<?xml version='1.0' encoding='UTF-8'?><gpx version="1.1" creator="JPX - https://github.com/jenetics/jpx" xmlns="http://www.topografix.com/GPX/1/1"><trk><trkseg><trkpt lat="51.14545681109507" lon="17.217789645157172"><ele>134.0</ele><time>2026-04-08T05:36:30.999Z</time></trkpt><trkpt lat="51.145397384710435" lon="17.217755835853453"><ele>134.0</ele><time>2026-04-08T05:36:32.999Z</time></trkpt><trkpt lat="51.14532785895797" lon="17.217741883246525"><ele>134.0</ele><time>2026-04-08T05:36:34.999Z</time></trkpt><trkpt lat="51.14526408614109" lon="17.21772388080048"><ele>134.0</ele><time>2026-04-08T05:36:36.999Z</time></trkpt><trkpt lat="51.14517812049821" lon="17.217699569473243"><ele>134.0</ele><time>2026-04-08T05:36:38.999Z</time></trkpt><trkpt lat="51.145091581950936" lon="17.217669062664573"><ele>134.0</ele><time>2026-04-08T05:36:40.999Z</time></trkpt><trkpt lat="51.14501023361206" lon="17.217639467598232"><ele>134.0</ele><time>2026-04-08T05:36:42.999Z</time></trkpt><trkpt lat="51.14492456662986" lon="17.21760555683106"><ele>134.0</ele><time>2026-04-08T05:36:44.999Z</time></trkpt><trkpt lat="51.144836180983404" lon="17.217563635620625"><ele>134.0</ele><time>2026-04-08T05:36:46.999Z</time></trkpt><trkpt lat="51.14474129179406" lon="17.217527686394785"><ele>134.0</ele><time>2026-04-08T05:36:48.999Z</time></trkpt><trkpt lat="51.1446819385139" lon="17.217492141621626"><ele>134.0</ele><time>2026-04-08T05:36:51.999Z</time></trkpt><trkpt lat="51.14461638278596" lon="17.21745583713041"><ele>134.0</ele><time>2026-04-08T05:37:06Z</time></trkpt><trkpt lat="51.14454792883866" lon="17.21737276630968"><ele>134.0</ele><time>2026-04-08T05:37:08Z</time></trkpt><trkpt lat="51.14451129515517" lon="17.2171996496618"><ele>134.0</ele><time>2026-04-08T05:37:10Z</time></trkpt><trkpt lat="51.14445423639117" lon="17.217157053606183"><ele>134.0</ele><time>2026-04-08T05:37:11Z</time></trkpt><trkpt lat="51.144365794408834" lon="17.217145480638766"><ele>134.0</ele><time>2026-04-08T05:37:12Z</time></trkpt><trkpt lat="51.14426612289738" lon="17.217087869753396"><ele>134.0</ele><time>2026-04-08T05:37:13Z</time></trkpt><trkpt lat="51.144154108159185" lon="17.21705929829222"><ele>134.5</ele><time>2026-04-08T05:37:14Z</time></trkpt><trkpt lat="51.144034328710596" lon="17.21700674735015"><ele>135.0</ele><time>2026-04-08T05:37:15Z</time></trkpt><trkpt lat="51.14390141727163" lon="17.216944269775727"><ele>135.5</ele><time>2026-04-08T05:37:16Z</time></trkpt><trkpt lat="51.14375827671825" lon="17.216879890245483"><ele>136.0</ele><time>2026-04-08T05:37:17Z</time></trkpt><trkpt lat="51.14361424666117" lon="17.216790325196868"><ele>136.0</ele><time>2026-04-08T05:37:18Z</time></trkpt><trkpt lat="51.143479619395045" lon="17.216727594529942"><ele>136.0</ele><time>2026-04-08T05:37:19Z</time></trkpt><trkpt lat="51.143360880390865" lon="17.216703357258222"><ele>136.0</ele><time>2026-04-08T05:37:20Z</time></trkpt><trkpt lat="51.14326642444467" lon="17.216660489725278"><ele>136.0</ele><time>2026-04-08T05:37:21Z</time></trkpt><trkpt lat="51.14318400581265" lon="17.2166241037387"><ele>136.0</ele><time>2026-04-08T05:37:22Z</time></trkpt><trkpt lat="51.14310396140778" lon="17.216588189019017"><ele>136.0</ele><time>2026-04-08T05:37:23Z</time></trkpt><trkpt lat="51.143013535670455" lon="17.21654562004045"><ele>136.0</ele><time>2026-04-08T05:37:24Z</time></trkpt><trkpt lat="51.142922956849965" lon="17.216473804735678"><ele>136.0</ele><time>2026-04-08T05:37:25Z</time></trkpt><trkpt lat="51.14282948918255" lon="17.216420000266808"><ele>136.0</ele><time>2026-04-08T05:37:26Z</time></trkpt><trkpt lat="51.14273648049043" lon="17.216350567120692"><ele>136.0</ele><time>2026-04-08T05:37:27Z</time></trkpt><trkpt lat="51.14263289599345" lon="17.216273228000563"><ele>136.0</ele><time>2026-04-08T05:37:28Z</time></trkpt><trkpt lat="51.14253769120543" lon="17.216205385152893"><ele>136.0</ele><time>2026-04-08T05:37:29Z</time></trkpt><trkpt lat="51.14245134072084" lon="17.216146454335096"><ele>136.0</ele><time>2026-04-08T05:37:30Z</time></trkpt><trkpt lat="51.14235792246755" lon="17.21611012527039"><ele>136.0</ele><time>2026-04-08T05:37:31Z</time></trkpt><trkpt lat="51.142261418518" lon="17.216047175481513"><ele>136.0</ele><time>2026-04-08T05:37:32Z</time></trkpt><trkpt lat="51.14215047269578" lon="17.21596051363958"><ele>135.75</ele><time>2026-04-08T05:37:33Z</time></trkpt><trkpt lat="51.1420221749348" lon="17.21590448335999"><ele>135.5</ele><time>2026-04-08T05:37:34Z</time></trkpt><trkpt lat="51.14190813020687" lon="17.215861484458383"><ele>135.25</ele><time>2026-04-08T05:37:35Z</time></trkpt><trkpt lat="51.141806803243355" lon="17.21583100399578"><ele>135.0</ele><time>2026-04-08T05:37:36Z</time></trkpt><trkpt lat="51.141702422384895" lon="17.21580198161142"><ele>135.0</ele><time>2026-04-08T05:37:37Z</time></trkpt><trkpt lat="51.14160577096498" lon="17.21577476344352"><ele>135.0</ele><time>2026-04-08T05:37:38Z</time></trkpt><trkpt lat="51.14152219305374" lon="17.21574745040798"><ele>135.0</ele><time>2026-04-08T05:37:39Z</time></trkpt><trkpt lat="51.14143210473149" lon="17.215717873298544"><ele>135.0</ele><time>2026-04-08T05:37:40Z</time></trkpt><trkpt lat="51.14133306477513" lon="17.215683823457656"><ele>135.0</ele><time>2026-04-08T05:37:41Z</time></trkpt><trkpt lat="51.141226249228595" lon="17.215673068623765"><ele>134.8</ele><time>2026-04-08T05:37:42Z</time></trkpt><trkpt lat="51.141121257827265" lon="17.21560687146181"><ele>134.6</ele><time>2026-04-08T05:37:43Z</time></trkpt><trkpt lat="51.141008671949685" lon="17.21556520236163"><ele>134.4</ele><time>2026-04-08T05:37:44Z</time></trkpt><trkpt lat="51.14090265469094" lon="17.21552770537161"><ele>134.2</ele><time>2026-04-08T05:37:45Z</time></trkpt><trkpt lat="51.14081285701105" lon="17.215521298735666"><ele>134.0</ele><time>2026-04-08T05:37:46Z</time></trkpt><trkpt lat="51.14074994386491" lon="17.215488066554244"><ele>133.4</ele><time>2026-04-08T05:37:47Z</time></trkpt><trkpt lat="51.140635534056095" lon="17.215448723178348"><ele>132.8</ele><time>2026-04-08T05:37:48.999Z</time></trkpt><trkpt lat="51.140537072614734" lon="17.21541915467803"><ele>132.2</ele><time>2026-04-08T05:37:50.999Z</time></trkpt><trkpt lat="51.14046168608008" lon="17.215398269969562"><ele>131.6</ele><time>2026-04-08T05:37:55.999Z</time></trkpt><trkpt lat="51.14038609727175" lon="17.215344328215878"><ele>131.0</ele><time>2026-04-08T05:38:15.999Z</time></trkpt><trkpt lat="51.14027199593739" lon="17.21530368058674"><ele>131.0</ele><time>2026-04-08T05:38:17.999Z</time></trkpt><trkpt lat="51.14016575697041" lon="17.215265889476058"><ele>131.0</ele><time>2026-04-08T05:38:19.999Z</time></trkpt><trkpt lat="51.140053439382285" lon="17.21522596968881"><ele>131.0</ele><time>2026-04-08T05:38:21.999Z</time></trkpt><trkpt lat="51.139969148443654" lon="17.215195522865518"><ele>131.0</ele><time>2026-04-08T05:38:22.999Z</time></trkpt><trkpt lat="51.13987474423006" lon="17.215161044804713"><ele>131.0</ele><time>2026-04-08T05:38:23.999Z</time></trkpt><trkpt lat="51.139769678723894" lon="17.215128470679442"><ele>131.0</ele><time>2026-04-08T05:38:24.999Z</time></trkpt><trkpt lat="51.1396637008819" lon="17.21510734416334"><ele>131.0</ele><time>2026-04-08T05:38:25.999Z</time></trkpt><trkpt lat="51.13955726002545" lon="17.215110229103974"><ele>131.0</ele><time>2026-04-08T05:38:26.999Z</time></trkpt><trkpt lat="51.13945219834474" lon="17.21514978283208"><ele>131.0</ele><time>2026-04-08T05:38:27.999Z</time></trkpt><trkpt lat="51.13934795072387" lon="17.215185919691457"><ele>131.0</ele><time>2026-04-08T05:38:28.999Z</time></trkpt><trkpt lat="51.13926223561513" lon="17.21523141499753"><ele>131.0</ele><time>2026-04-08T05:38:29.999Z</time></trkpt><trkpt lat="51.13919469287954" lon="17.2152414373673"><ele>131.0</ele><time>2026-04-08T05:38:30.999Z</time></trkpt><trkpt lat="51.13910010274492" lon="17.215319752995388"><ele>131.0</ele><time>2026-04-08T05:38:32.999Z</time></trkpt><trkpt lat="51.138993308941096" lon="17.215374039223335"><ele>131.0</ele><time>2026-04-08T05:38:34.999Z</time></trkpt><trkpt lat="51.13887720085846" lon="17.215438510143805"><ele>131.0</ele><time>2026-04-08T05:38:36.999Z</time></trkpt><trkpt lat="51.13876727831028" lon="17.21549219848839"><ele>130.8</ele><time>2026-04-08T05:38:38.999Z</time></trkpt><trkpt lat="51.138652536178434" lon="17.215546620108647"><ele>130.6</ele><time>2026-04-08T05:38:40.999Z</time></trkpt><trkpt lat="51.138572956421186" lon="17.215599105064012"><ele>130.4</ele><time>2026-04-08T05:38:41.999Z</time></trkpt><trkpt lat="51.13848714136388" lon="17.215661043128573"><ele>130.2</ele><time>2026-04-08T05:38:42.999Z</time></trkpt><trkpt lat="51.13838931068316" lon="17.215717727556257"><ele>130.0</ele><time>2026-04-08T05:38:43.999Z</time></trkpt><trkpt lat="51.138303337944485" lon="17.215797006407808"><ele>130.0</ele><time>2026-04-08T05:38:44.999Z</time></trkpt><trkpt lat="51.13823124660843" lon="17.215902116435895"><ele>130.0</ele><time>2026-04-08T05:38:45.999Z</time></trkpt><trkpt lat="51.13816641208438" lon="17.21600193349426"><ele>130.0</ele><time>2026-04-08T05:38:46.999Z</time></trkpt><trkpt lat="51.138117679341384" lon="17.21611123419565"><ele>130.0</ele><time>2026-04-08T05:38:47.999Z</time></trkpt><trkpt lat="51.13804625136977" lon="17.21618687458297"><ele>130.0</ele><time>2026-04-08T05:38:48.999Z</time></trkpt><trkpt lat="51.137992243465696" lon="17.216295608132977"><ele>130.0</ele><time>2026-04-08T05:38:49.999Z</time></trkpt><trkpt lat="51.13792223804363" lon="17.216376165485325"><ele>130.2</ele><time>2026-04-08T05:38:50.999Z</time></trkpt><trkpt lat="51.13786441252407" lon="17.216484468950082"><ele>130.4</ele><time>2026-04-08T05:38:51.999Z</time></trkpt><trkpt lat="51.13778617305319" lon="17.216586069359096"><ele>130.6</ele><time>2026-04-08T05:38:52.999Z</time></trkpt><trkpt lat="51.13770248371311" lon="17.21669141740865"><ele>130.8</ele><time>2026-04-08T05:38:53.999Z</time></trkpt><trkpt lat="51.13761798453734" lon="17.216805289914404"><ele>131.0</ele><time>2026-04-08T05:38:54.999Z</time></trkpt><trkpt lat="51.13753381252684" lon="17.216933265857367"><ele>131.0</ele><time>2026-04-08T05:38:55.999Z</time></trkpt><trkpt lat="51.13743762606551" lon="17.21707356175959"><ele>131.0</ele><time>2026-04-08T05:38:56.999Z</time></trkpt><trkpt lat="51.1373456354048" lon="17.217210590635272"><ele>131.0</ele><time>2026-04-08T05:38:57.999Z</time></trkpt><trkpt lat="51.13724757106791" lon="17.21734208541191"><ele>131.0</ele><time>2026-04-08T05:38:58.999Z</time></trkpt><trkpt lat="51.13715282873946" lon="17.21746647394513"><ele>130.2</ele><time>2026-04-08T05:38:59.999Z</time></trkpt><trkpt lat="51.137056553701164" lon="17.217591659604448"><ele>129.39999999999998</ele><time>2026-04-08T05:39:00.999Z</time></trkpt><trkpt lat="51.136968079053105" lon="17.217700806710173"><ele>128.6</ele><time>2026-04-08T05:39:02Z</time></trkpt><trkpt lat="51.136894628086814" lon="17.21780325587144"><ele>127.8</ele><time>2026-04-08T05:39:03Z</time></trkpt><trkpt lat="51.136830769021934" lon="17.21788122571104"><ele>127.0</ele><time>2026-04-08T05:39:04Z</time></trkpt><trkpt lat="51.13676569224677" lon="17.217978752704884"><ele>127.0</ele><time>2026-04-08T05:39:05Z</time></trkpt><trkpt lat="51.13668539126538" lon="17.21807454519209"><ele>126.99999999999999</ele><time>2026-04-08T05:39:06Z</time></trkpt><trkpt lat="51.1366172705421" lon="17.218178519949973"><ele>126.99999999999999</ele><time>2026-04-08T05:39:07Z</time></trkpt><trkpt lat="51.136550286905596" lon="17.218267762855323"><ele>127.0</ele><time>2026-04-08T05:39:08Z</time></trkpt><trkpt lat="51.1364824087839" lon="17.21834942421788"><ele>127.0</ele><time>2026-04-08T05:39:09Z</time></trkpt><trkpt lat="51.13640679136325" lon="17.218442997094314"><ele>127.6</ele><time>2026-04-08T05:39:10Z</time></trkpt><trkpt lat="51.13633305010582" lon="17.218544911833103"><ele>128.2</ele><time>2026-04-08T05:39:11Z</time></trkpt><trkpt lat="51.13626381617664" lon="17.21865673293146"><ele>128.8</ele><time>2026-04-08T05:39:12Z</time></trkpt><trkpt lat="51.13619467965717" lon="17.218764782006463"><ele>129.4</ele><time>2026-04-08T05:39:13Z</time></trkpt><trkpt lat="51.136128759462935" lon="17.21886969201996"><ele>130.0</ele><time>2026-04-08T05:39:14Z</time></trkpt><trkpt lat="51.13604401054036" lon="17.218945303390537"><ele>129.6</ele><time>2026-04-08T05:39:15Z</time></trkpt><trkpt lat="51.13597346665213" lon="17.219045142909575"><ele>129.2</ele><time>2026-04-08T05:39:16Z</time></trkpt><trkpt lat="51.13588748086318" lon="17.219161486442964"><ele>128.8</ele><time>2026-04-08T05:39:17Z</time></trkpt><trkpt lat="51.13579815860788" lon="17.219273129931874"><ele>128.4</ele><time>2026-04-08T05:39:18Z</time></trkpt><trkpt lat="51.13571624692965" lon="17.219384895514228"><ele>128.0</ele><time>2026-04-08T05:39:19Z</time></trkpt><trkpt lat="51.13564346015269" lon="17.219470172322264"><ele>127.80000000000001</ele><time>2026-04-08T05:39:20Z</time></trkpt><trkpt lat="51.13555774868699" lon="17.219599452906493"><ele>127.60000000000001</ele><time>2026-04-08T05:39:21Z</time></trkpt><trkpt lat="51.13546724799919" lon="17.21971437733874"><ele>127.39999999999999</ele><time>2026-04-08T05:39:22Z</time></trkpt><trkpt lat="51.13538746720646" lon="17.219820933633947"><ele>127.19999999999999</ele><time>2026-04-08T05:39:23Z</time></trkpt><trkpt lat="51.13531460684381" lon="17.219910845842225"><ele>127.0</ele><time>2026-04-08T05:39:24Z</time></trkpt><trkpt lat="51.135236768434034" lon="17.21997224007573"><ele>127.0</ele><time>2026-04-08T05:39:25Z</time></trkpt><trkpt lat="51.13516605769317" lon="17.22004134501237"><ele>126.99999999999999</ele><time>2026-04-08T05:39:26Z</time></trkpt><trkpt lat="51.13509508570195" lon="17.220133446678965"><ele>126.99999999999999</ele><time>2026-04-08T05:39:27Z</time></trkpt><trkpt lat="51.13502075421948" lon="17.220224190751647"><ele>127.0</ele><time>2026-04-08T05:39:28Z</time></trkpt><trkpt lat="51.13494484604458" lon="17.22034343568577"><ele>127.0</ele><time>2026-04-08T05:39:29Z</time></trkpt><trkpt lat="51.1348482577547" lon="17.220440298177888"><ele>127.25</ele><time>2026-04-08T05:39:30Z</time></trkpt><trkpt lat="51.134758820761235" lon="17.220557755447146"><ele>127.5</ele><time>2026-04-08T05:39:31Z</time></trkpt><trkpt lat="51.13467340517413" lon="17.220691744696317"><ele>127.75</ele><time>2026-04-08T05:39:32Z</time></trkpt><trkpt lat="51.134581387580454" lon="17.220816478231384"><ele>128.0</ele><time>2026-04-08T05:39:33Z</time></trkpt><trkpt lat="51.13448751988711" lon="17.220933965495608"><ele>128.5</ele><time>2026-04-08T05:39:34Z</time></trkpt><trkpt lat="51.13439491942898" lon="17.22105995724113"><ele>129.0</ele><time>2026-04-08T05:39:35Z</time></trkpt><trkpt lat="51.134291819273386" lon="17.22117190479907"><ele>129.5</ele><time>2026-04-08T05:39:36Z</time></trkpt><trkpt lat="51.13419446685202" lon="17.221301122422535"><ele>130.0</ele><time>2026-04-08T05:39:37Z</time></trkpt><trkpt lat="51.134095695899305" lon="17.22142366617984"><ele>130.25</ele><time>2026-04-08T05:39:38Z</time></trkpt><trkpt lat="51.134002464446155" lon="17.221538168625788"><ele>130.5</ele><time>2026-04-08T05:39:39Z</time></trkpt><trkpt lat="51.13391643597778" lon="17.221676739871402"><ele>130.75</ele><time>2026-04-08T05:39:40Z</time></trkpt><trkpt lat="51.13381578201369" lon="17.22178449197347"><ele>131.0</ele><time>2026-04-08T05:39:41Z</time></trkpt><trkpt lat="51.13373088751415" lon="17.22191556976373"><ele>131.0</ele><time>2026-04-08T05:39:42Z</time></trkpt><trkpt lat="51.13364513107095" lon="17.222043441386838"><ele>131.0</ele><time>2026-04-08T05:39:43Z</time></trkpt><trkpt lat="51.13354510556437" lon="17.22218306638143"><ele>131.0</ele><time>2026-04-08T05:39:44Z</time></trkpt><trkpt lat="51.133434094747855" lon="17.2222919283337"><ele>131.0</ele><time>2026-04-08T05:39:45Z</time></trkpt><trkpt lat="51.13333459689773" lon="17.22241639735498"><ele>131.0</ele><time>2026-04-08T05:39:46Z</time></trkpt><trkpt lat="51.13325125320277" lon="17.222545371515896"><ele>131.0</ele><time>2026-04-08T05:39:47Z</time></trkpt><trkpt lat="51.133164602637436" lon="17.222672164767026"><ele>131.0</ele><time>2026-04-08T05:39:48Z</time></trkpt><trkpt lat="51.133073569128605" lon="17.222789011688747"><ele>131.0</ele><time>2026-04-08T05:39:49Z</time></trkpt><trkpt lat="51.13298477915742" lon="17.222907572400448"><ele>131.0</ele><time>2026-04-08T05:39:50Z</time></trkpt><trkpt lat="51.132890240814376" lon="17.22303258932799"><ele>131.0</ele><time>2026-04-08T05:39:51Z</time></trkpt><trkpt lat="51.13279308738929" lon="17.223173689223618"><ele>131.0</ele><time>2026-04-08T05:39:52Z</time></trkpt><trkpt lat="51.132716862940356" lon="17.22327164161203"><ele>131.0</ele><time>2026-04-08T05:39:53Z</time></trkpt><trkpt lat="51.13266068846487" lon="17.223386296905822"><ele>131.0</ele><time>2026-04-08T05:39:54Z</time></trkpt><trkpt lat="51.132597679833225" lon="17.223473568157452"><ele>131.0</ele><time>2026-04-08T05:39:55Z</time></trkpt><trkpt lat="51.132522655205754" lon="17.22359401493044"><ele>131.0</ele><time>2026-04-08T05:39:56Z</time></trkpt><trkpt lat="51.13244287775675" lon="17.223720176489127"><ele>131.0</ele><time>2026-04-08T05:39:57Z</time></trkpt><trkpt lat="51.132358548695045" lon="17.223853244995365"><ele>131.0</ele><time>2026-04-08T05:39:57.999Z</time></trkpt><trkpt lat="51.13225857005973" lon="17.223946764945225"><ele>130.75</ele><time>2026-04-08T05:39:58.999Z</time></trkpt><trkpt lat="51.1321662763054" lon="17.224055154155625"><ele>130.5</ele><time>2026-04-08T05:39:59.999Z</time></trkpt><trkpt lat="51.132073941711525" lon="17.224151787769102"><ele>130.25</ele><time>2026-04-08T05:40:00.999Z</time></trkpt><trkpt lat="51.13198521792154" lon="17.22428804174442"><ele>130.0</ele><time>2026-04-08T05:40:01.999Z</time></trkpt><trkpt lat="51.13189318164669" lon="17.224434138217024"><ele>130.0</ele><time>2026-04-08T05:40:02.999Z</time></trkpt><trkpt lat="51.13177777833624" lon="17.224575821934994"><ele>130.0</ele><time>2026-04-08T05:40:03.999Z</time></trkpt><trkpt lat="51.13166297897025" lon="17.224724163721365"><ele>130.0</ele><time>2026-04-08T05:40:04.999Z</time></trkpt><trkpt lat="51.13156078410856" lon="17.224869147730008"><ele>130.0</ele><time>2026-04-08T05:40:05.999Z</time></trkpt><trkpt lat="51.13147294496664" lon="17.224999273254934"><ele>130.0</ele><time>2026-04-08T05:40:06.999Z</time></trkpt><trkpt lat="51.13139573859061" lon="17.225118604326724"><ele>130.0</ele><time>2026-04-08T05:40:07.999Z</time></trkpt><trkpt lat="51.131310222963414" lon="17.225227082855774"><ele>130.0</ele><time>2026-04-08T05:40:08.999Z</time></trkpt><trkpt lat="51.13121721218695" lon="17.22534196201516"><ele>130.0</ele><time>2026-04-08T05:40:09.999Z</time></trkpt><trkpt lat="51.131117810544616" lon="17.22546394057136"><ele>130.0</ele><time>2026-04-08T05:40:10.999Z</time></trkpt><trkpt lat="51.131016438835516" lon="17.225591365150535"><ele>130.0</ele><time>2026-04-08T05:40:11.999Z</time></trkpt><trkpt lat="51.13092692498893" lon="17.225707701344113"><ele>130.0</ele><time>2026-04-08T05:40:12.999Z</time></trkpt><trkpt lat="51.13083742602704" lon="17.225836585876227"><ele>130.0</ele><time>2026-04-08T05:40:13.999Z</time></trkpt><trkpt lat="51.130759570496785" lon="17.225943363272094"><ele>130.2</ele><time>2026-04-08T05:40:14.999Z</time></trkpt><trkpt lat="51.1306752639228" lon="17.226046117282706"><ele>130.4</ele><time>2026-04-08T05:40:15.999Z</time></trkpt><trkpt lat="51.13059161941519" lon="17.226159224269516"><ele>130.6</ele><time>2026-04-08T05:40:16.999Z</time></trkpt><trkpt lat="51.130503836209996" lon="17.226272630727564"><ele>130.8</ele><time>2026-04-08T05:40:17.999Z</time></trkpt><trkpt lat="51.13041442518101" lon="17.226397845769203"><ele>131.0</ele><time>2026-04-08T05:40:18.999Z</time></trkpt><trkpt lat="51.13031407893728" lon="17.22651735696662"><ele>131.5</ele><time>2026-04-08T05:40:19.999Z</time></trkpt><trkpt lat="51.13022053903688" lon="17.22664922687416"><ele>132.0</ele><time>2026-04-08T05:40:20.999Z</time></trkpt><trkpt lat="51.13012666897439" lon="17.226774934187816"><ele>132.5</ele><time>2026-04-08T05:40:21.999Z</time></trkpt><trkpt lat="51.13003307792708" lon="17.226885186335295"><ele>133.0</ele><time>2026-04-08T05:40:22.999Z</time></trkpt><trkpt lat="51.129949717565886" lon="17.2269937432714"><ele>132.8</ele><time>2026-04-08T05:40:23.999Z</time></trkpt><trkpt lat="51.12988065846052" lon="17.22706616821839"><ele>132.60000000000002</ele><time>2026-04-08T05:40:24.999Z</time></trkpt><trkpt lat="51.12981897209833" lon="17.227168980597217"><ele>132.39999999999998</ele><time>2026-04-08T05:40:25.999Z</time></trkpt><trkpt lat="51.12974699944207" lon="17.227281541078"><ele>132.2</ele><time>2026-04-08T05:40:26.999Z</time></trkpt><trkpt lat="51.12966686687213" lon="17.227385700060374"><ele>132.0</ele><time>2026-04-08T05:40:27.999Z</time></trkpt><trkpt lat="51.129586935273785" lon="17.227494783984497"><ele>132.4</ele><time>2026-04-08T05:40:28.999Z</time></trkpt><trkpt lat="51.12949437771506" lon="17.227594608972705"><ele>132.79999999999998</ele><time>2026-04-08T05:40:29.999Z</time></trkpt><trkpt lat="51.129402319259306" lon="17.227698117289847"><ele>133.2</ele><time>2026-04-08T05:40:30.999Z</time></trkpt><trkpt lat="51.12932035840663" lon="17.227822931981684"><ele>133.6</ele><time>2026-04-08T05:40:31.999Z</time></trkpt><trkpt lat="51.12924624060466" lon="17.227949036499425"><ele>134.0</ele><time>2026-04-08T05:40:32.999Z</time></trkpt><trkpt lat="51.12917498289832" lon="17.228048238029192"><ele>134.0</ele><time>2026-04-08T05:40:33.999Z</time></trkpt><trkpt lat="51.12910323572845" lon="17.228152705424616"><ele>134.0</ele><time>2026-04-08T05:40:34.999Z</time></trkpt><trkpt lat="51.12901126957203" lon="17.228217622766632"><ele>134.0</ele><time>2026-04-08T05:40:35.999Z</time></trkpt><trkpt lat="51.12895847681964" lon="17.228285068542903"><ele>134.0</ele><time>2026-04-08T05:40:36.999Z</time></trkpt><trkpt lat="51.128880193755606" lon="17.228380732610074"><ele>134.0</ele><time>2026-04-08T05:40:38.999Z</time></trkpt><trkpt lat="51.128834317476695" lon="17.228466315313515"><ele>134.0</ele><time>2026-04-08T05:40:39.999Z</time></trkpt><trkpt lat="51.128791250810075" lon="17.22856924441753"><ele>134.0</ele><time>2026-04-08T05:40:40.999Z</time></trkpt><trkpt lat="51.128729122008956" lon="17.22866087838215"><ele>134.0</ele><time>2026-04-08T05:40:41.999Z</time></trkpt><trkpt lat="51.128650118840035" lon="17.22875654076619"><ele>134.0</ele><time>2026-04-08T05:40:42.999Z</time></trkpt><trkpt lat="51.128566816448775" lon="17.22887472172595"><ele>134.0</ele><time>2026-04-08T05:40:43.999Z</time></trkpt><trkpt lat="51.128481949010876" lon="17.22899745657487"><ele>134.0</ele><time>2026-04-08T05:40:44.999Z</time></trkpt><trkpt lat="51.12839781377332" lon="17.229069940917267"><ele>134.0</ele><time>2026-04-08T05:40:45.999Z</time></trkpt><trkpt lat="51.128323746219316" lon="17.229162201253487"><ele>134.0</ele><time>2026-04-08T05:40:46.999Z</time></trkpt><trkpt lat="51.1282418575696" lon="17.229264541788144"><ele>134.0</ele><time>2026-04-08T05:40:47.999Z</time></trkpt><trkpt lat="51.12815487208188" lon="17.229370268017895"><ele>134.0</ele><time>2026-04-08T05:40:48.999Z</time></trkpt><trkpt lat="51.12805807406771" lon="17.229477387294498"><ele>134.0</ele><time>2026-04-08T05:40:49.999Z</time></trkpt><trkpt lat="51.12795463784259" lon="17.229592085384645"><ele>133.6</ele><time>2026-04-08T05:40:50.999Z</time></trkpt><trkpt lat="51.127860720032984" lon="17.229719855563808"><ele>133.2</ele><time>2026-04-08T05:40:51.999Z</time></trkpt><trkpt lat="51.12778330392476" lon="17.22982014395362"><ele>132.79999999999998</ele><time>2026-04-08T05:40:52.999Z</time></trkpt><trkpt lat="51.12771801164963" lon="17.22992567292095"><ele>132.4</ele><time>2026-04-08T05:40:53.999Z</time></trkpt><trkpt lat="51.1276554413966" lon="17.23004850241495"><ele>132.0</ele><time>2026-04-08T05:40:54.999Z</time></trkpt><trkpt lat="51.12758965722629" lon="17.230192720598538"><ele>132.0</ele><time>2026-04-08T05:40:55.999Z</time></trkpt><trkpt lat="51.127509656986874" lon="17.23035228342235"><ele>132.0</ele><time>2026-04-08T05:40:56.999Z</time></trkpt><trkpt lat="51.12744243812277" lon="17.23052428436736"><ele>132.0</ele><time>2026-04-08T05:40:57.999Z</time></trkpt><trkpt lat="51.127383045078794" lon="17.23069216737227"><ele>132.0</ele><time>2026-04-08T05:40:58.999Z</time></trkpt><trkpt lat="51.12733200397381" lon="17.230862661875772"><ele>131.6</ele><time>2026-04-08T05:40:59.999Z</time></trkpt><trkpt lat="51.12728967704779" lon="17.23101473112922"><ele>131.2</ele><time>2026-04-08T05:41:00.999Z</time></trkpt><trkpt lat="51.127249892808685" lon="17.231147861514494"><ele>130.8</ele><time>2026-04-08T05:41:01.999Z</time></trkpt><trkpt lat="51.127210364427306" lon="17.23127433501037"><ele>130.4</ele><time>2026-04-08T05:41:02.999Z</time></trkpt><trkpt lat="51.12716188416499" lon="17.231398226996447"><ele>130.0</ele><time>2026-04-08T05:41:03.999Z</time></trkpt><trkpt lat="51.12713175371176" lon="17.231536541323802"><ele>130.0</ele><time>2026-04-08T05:41:04.999Z</time></trkpt><trkpt lat="51.12709831979763" lon="17.23168702321356"><ele>130.0</ele><time>2026-04-08T05:41:05.999Z</time></trkpt><trkpt lat="51.12705384157193" lon="17.23183320478105"><ele>130.0</ele><time>2026-04-08T05:41:06.999Z</time></trkpt><trkpt lat="51.12700886760228" lon="17.231967410391583"><ele>130.0</ele><time>2026-04-08T05:41:08Z</time></trkpt><trkpt lat="51.126959294497546" lon="17.232109591687642"><ele>130.0</ele><time>2026-04-08T05:41:09Z</time></trkpt><trkpt lat="51.12690774244691" lon="17.232269512064715"><ele>129.5</ele><time>2026-04-08T05:41:10Z</time></trkpt><trkpt lat="51.126858629907524" lon="17.23243264389409"><ele>129.0</ele><time>2026-04-08T05:41:11Z</time></trkpt><trkpt lat="51.12680970160005" lon="17.23260123278608"><ele>128.5</ele><time>2026-04-08T05:41:12Z</time></trkpt><trkpt lat="51.126744857297666" lon="17.232786621614558"><ele>128.0</ele><time>2026-04-08T05:41:13Z</time></trkpt><trkpt lat="51.12668478934106" lon="17.232973227525093"><ele>128.0</ele><time>2026-04-08T05:41:14Z</time></trkpt><trkpt lat="51.12663167921196" lon="17.233158756276527"><ele>128.0</ele><time>2026-04-08T05:41:15Z</time></trkpt><trkpt lat="51.12657333062036" lon="17.2333339373565"><ele>128.0</ele><time>2026-04-08T05:41:16Z</time></trkpt><trkpt lat="51.12650953701491" lon="17.233511760157825"><ele>128.0</ele><time>2026-04-08T05:41:17Z</time></trkpt><trkpt lat="51.12644480440308" lon="17.233687819288313"><ele>128.25</ele><time>2026-04-08T05:41:18Z</time></trkpt><trkpt lat="51.12638332722624" lon="17.233877955487912"><ele>128.5</ele><time>2026-04-08T05:41:19Z</time></trkpt><trkpt lat="51.126327908742546" lon="17.234060296064325"><ele>128.75</ele><time>2026-04-08T05:41:20Z</time></trkpt><trkpt lat="51.126282713030605" lon="17.234236612356277"><ele>129.0</ele><time>2026-04-08T05:41:21Z</time></trkpt><trkpt lat="51.12622918605625" lon="17.23439713172074"><ele>128.6</ele><time>2026-04-08T05:41:22Z</time></trkpt><trkpt lat="51.126171914471996" lon="17.234536056065004"><ele>128.2</ele><time>2026-04-08T05:41:23Z</time></trkpt><trkpt lat="51.12612661008517" lon="17.23463992920124"><ele>127.79999999999998</ele><time>2026-04-08T05:41:24Z</time></trkpt><trkpt lat="51.12607844653092" lon="17.23470798289938"><ele>127.39999999999999</ele><time>2026-04-08T05:41:25Z</time></trkpt><trkpt lat="51.12604431299933" lon="17.234852219125393"><ele>127.0</ele><time>2026-04-08T05:41:27Z</time></trkpt><trkpt lat="51.126147743029236" lon="17.234911427393644"><ele>127.0</ele><time>2026-04-08T05:41:29Z</time></trkpt><trkpt lat="51.1262214802341" lon="17.234911986023057"><ele>126.99999999999999</ele><time>2026-04-08T05:41:30Z</time></trkpt><trkpt lat="51.12630972444829" lon="17.23491379776656"><ele>126.99999999999999</ele><time>2026-04-08T05:41:31Z</time></trkpt><trkpt lat="51.126411110236184" lon="17.234921028425447"><ele>127.0</ele><time>2026-04-08T05:41:32Z</time></trkpt><trkpt lat="51.12650930724225" lon="17.234939858613686"><ele>127.0</ele><time>2026-04-08T05:41:33Z</time></trkpt><trkpt lat="51.126594956152" lon="17.23501035022956"><ele>127.5</ele><time>2026-04-08T05:41:34Z</time></trkpt><trkpt lat="51.12668926673575" lon="17.235065580026774"><ele>128.0</ele><time>2026-04-08T05:41:35Z</time></trkpt><trkpt lat="51.126808423312504" lon="17.23509837008575"><ele>128.5</ele><time>2026-04-08T05:41:36Z</time></trkpt><trkpt lat="51.12693887304865" lon="17.235110858726742"><ele>129.0</ele><time>2026-04-08T05:41:37Z</time></trkpt><trkpt lat="51.12707154806805" lon="17.23512110088318"><ele>129.0</ele><time>2026-04-08T05:41:38Z</time></trkpt><trkpt lat="51.12720091427177" lon="17.23516905141198"><ele>129.0</ele><time>2026-04-08T05:41:39Z</time></trkpt><trkpt lat="51.127337098267354" lon="17.235195765164356"><ele>129.0</ele><time>2026-04-08T05:41:40Z</time></trkpt><trkpt lat="51.12747648846401" lon="17.23522226937804"><ele>129.0</ele><time>2026-04-08T05:41:41Z</time></trkpt><trkpt lat="51.12762175396163" lon="17.235271611841313"><ele>129.0</ele><time>2026-04-08T05:41:42Z</time></trkpt><trkpt lat="51.12776711341568" lon="17.235293533459796"><ele>129.0</ele><time>2026-04-08T05:41:43Z</time></trkpt><trkpt lat="51.127904556874235" lon="17.235301112256813"><ele>129.0</ele><time>2026-04-08T05:41:44Z</time></trkpt><trkpt lat="51.12804364952706" lon="17.235329500288543"><ele>129.0</ele><time>2026-04-08T05:41:45Z</time></trkpt><trkpt lat="51.128129795378904" lon="17.235357381607752"><ele>129.25</ele><time>2026-04-08T05:41:46Z</time></trkpt><trkpt lat="51.128235265871055" lon="17.235390538586003"><ele>129.5</ele><time>2026-04-08T05:41:47Z</time></trkpt><trkpt lat="51.128362614094165" lon="17.235429204939578"><ele>129.75</ele><time>2026-04-08T05:41:48Z</time></trkpt><trkpt lat="51.12849725603755" lon="17.235489404196223"><ele>130.0</ele><time>2026-04-08T05:41:49Z</time></trkpt><trkpt lat="51.12863746408394" lon="17.23555847404914"><ele>130.0</ele><time>2026-04-08T05:41:50Z</time></trkpt><trkpt lat="51.12876511062391" lon="17.235626909148866"><ele>130.0</ele><time>2026-04-08T05:41:51Z</time></trkpt><trkpt lat="51.12891089813578" lon="17.235701280303484"><ele>130.0</ele><time>2026-04-08T05:41:52Z</time></trkpt><trkpt lat="51.12905350574892" lon="17.235781665240033"><ele>130.0</ele><time>2026-04-08T05:41:53Z</time></trkpt><trkpt lat="51.12919209815175" lon="17.23586815915306"><ele>130.0</ele><time>2026-04-08T05:41:54Z</time></trkpt><trkpt lat="51.12933294902851" lon="17.235959782597583"><ele>130.0</ele><time>2026-04-08T05:41:55Z</time></trkpt><trkpt lat="51.129474696470304" lon="17.23605606276577"><ele>130.0</ele><time>2026-04-08T05:41:56Z</time></trkpt><trkpt lat="51.12960481439286" lon="17.23616457802234"><ele>130.0</ele><time>2026-04-08T05:41:57Z</time></trkpt><trkpt lat="51.129738682624996" lon="17.236264247682442"><ele>130.0</ele><time>2026-04-08T05:41:58Z</time></trkpt><trkpt lat="51.12987526505212" lon="17.2363583302959"><ele>130.0</ele><time>2026-04-08T05:41:59Z</time></trkpt><trkpt lat="51.13001111399796" lon="17.2364758129825"><ele>130.25</ele><time>2026-04-08T05:41:59.999Z</time></trkpt><trkpt lat="51.1301440881028" lon="17.236583701301058"><ele>130.5</ele><time>2026-04-08T05:42:00.999Z</time></trkpt><trkpt lat="51.13027212394779" lon="17.236703615792354"><ele>130.75</ele><time>2026-04-08T05:42:01.999Z</time></trkpt><trkpt lat="51.13039850222667" lon="17.236812783382597"><ele>131.0</ele><time>2026-04-08T05:42:02.999Z</time></trkpt><trkpt lat="51.13051563188884" lon="17.23691032764632"><ele>131.0</ele><time>2026-04-08T05:42:03.999Z</time></trkpt><trkpt lat="51.130615554455446" lon="17.23698657996908"><ele>131.0</ele><time>2026-04-08T05:42:04.999Z</time></trkpt><trkpt lat="51.13071975702363" lon="17.237073726715685"><ele>131.0</ele><time>2026-04-08T05:42:05.999Z</time></trkpt><trkpt lat="51.130829426129985" lon="17.237146704251284"><ele>131.0</ele><time>2026-04-08T05:42:06.999Z</time></trkpt><trkpt lat="51.13095465400714" lon="17.237211104227768"><ele>131.25</ele><time>2026-04-08T05:42:07.999Z</time></trkpt><trkpt lat="51.131069568610094" lon="17.237309627467738"><ele>131.5</ele><time>2026-04-08T05:42:08.999Z</time></trkpt><trkpt lat="51.131189415423634" lon="17.23740610324573"><ele>131.75</ele><time>2026-04-08T05:42:09.999Z</time></trkpt><trkpt lat="51.13131592354353" lon="17.23745412801024"><ele>132.0</ele><time>2026-04-08T05:42:10.999Z</time></trkpt><trkpt lat="51.1314384146426" lon="17.237531592600753"><ele>132.0</ele><time>2026-04-08T05:42:11.999Z</time></trkpt><trkpt lat="51.13155927378948" lon="17.23761402923055"><ele>132.0</ele><time>2026-04-08T05:42:12.999Z</time></trkpt><trkpt lat="51.13167505817122" lon="17.23769788762828"><ele>132.0</ele><time>2026-04-08T05:42:13.999Z</time></trkpt><trkpt lat="51.13180115927643" lon="17.23776814806764"><ele>132.0</ele><time>2026-04-08T05:42:14.999Z</time></trkpt><trkpt lat="51.131915523164196" lon="17.23785508675906"><ele>132.0</ele><time>2026-04-08T05:42:15.999Z</time></trkpt><trkpt lat="51.132033450646944" lon="17.237923894504327"><ele>132.0</ele><time>2026-04-08T05:42:16.999Z</time></trkpt><trkpt lat="51.13216291326904" lon="17.238001839049645"><ele>132.0</ele><time>2026-04-08T05:42:17.999Z</time></trkpt><trkpt lat="51.132285471440355" lon="17.23808285961274"><ele>132.0</ele><time>2026-04-08T05:42:18.999Z</time></trkpt><trkpt lat="51.132416052112525" lon="17.238139061533158"><ele>132.0</ele><time>2026-04-08T05:42:19.999Z</time></trkpt><trkpt lat="51.132537673324" lon="17.238218898819724"><ele>132.0</ele><time>2026-04-08T05:42:20.999Z</time></trkpt><trkpt lat="51.132640642157334" lon="17.238316532557803"><ele>132.0</ele><time>2026-04-08T05:42:21.999Z</time></trkpt><trkpt lat="51.132752312490545" lon="17.23836125262254"><ele>132.0</ele><time>2026-04-08T05:42:22.999Z</time></trkpt><trkpt lat="51.13287403313502" lon="17.23844768088838"><ele>132.0</ele><time>2026-04-08T05:42:23.999Z</time></trkpt><trkpt lat="51.13299921880737" lon="17.238518484068138"><ele>132.0</ele><time>2026-04-08T05:42:24.999Z</time></trkpt><trkpt lat="51.133129082577355" lon="17.2385862200315"><ele>132.0</ele><time>2026-04-08T05:42:25.999Z</time></trkpt><trkpt lat="51.133258649364045" lon="17.238653577877855"><ele>132.0</ele><time>2026-04-08T05:42:26.999Z</time></trkpt><trkpt lat="51.13339270929967" lon="17.23870852062025"><ele>132.25</ele><time>2026-04-08T05:42:27.999Z</time></trkpt><trkpt lat="51.13353009763422" lon="17.23876541149995"><ele>132.5</ele><time>2026-04-08T05:42:28.999Z</time></trkpt><trkpt lat="51.13366787564504" lon="17.238790936544614"><ele>132.75</ele><time>2026-04-08T05:42:29.999Z</time></trkpt><trkpt lat="51.13380050967679" lon="17.238829159278765"><ele>133.0</ele><time>2026-04-08T05:42:30.999Z</time></trkpt><trkpt lat="51.13393320778008" lon="17.238867725729918"><ele>133.25</ele><time>2026-04-08T05:42:31.999Z</time></trkpt><trkpt lat="51.13407805453003" lon="17.23888195015002"><ele>133.5</ele><time>2026-04-08T05:42:32.999Z</time></trkpt><trkpt lat="51.13421396562823" lon="17.23891651965637"><ele>133.75</ele><time>2026-04-08T05:42:33.999Z</time></trkpt><trkpt lat="51.134332438862785" lon="17.238948684919716"><ele>134.0</ele><time>2026-04-08T05:42:34.999Z</time></trkpt><trkpt lat="51.134440105881005" lon="17.23897464812617"><ele>133.6</ele><time>2026-04-08T05:42:35.999Z</time></trkpt><trkpt lat="51.134545357547715" lon="17.239002406738337"><ele>133.2</ele><time>2026-04-08T05:42:36.999Z</time></trkpt><trkpt lat="51.1346299375002" lon="17.239021432119124"><ele>132.79999999999998</ele><time>2026-04-08T05:42:37.999Z</time></trkpt><trkpt lat="51.134708501930355" lon="17.239040972578827"><ele>132.4</ele><time>2026-04-08T05:42:38.999Z</time></trkpt><trkpt lat="51.13479902485196" lon="17.23906019628701"><ele>132.0</ele><time>2026-04-08T05:42:39.999Z</time></trkpt><trkpt lat="51.134887060749094" lon="17.239092843914445"><ele>131.79999999999998</ele><time>2026-04-08T05:42:40.999Z</time></trkpt><trkpt lat="51.134951752456196" lon="17.239117888940722"><ele>131.6</ele><time>2026-04-08T05:42:41.999Z</time></trkpt><trkpt lat="51.135014177208184" lon="17.239172266892638"><ele>131.39999999999998</ele><time>2026-04-08T05:42:43.999Z</time></trkpt><trkpt lat="51.13504128631486" lon="17.239290384876675"><ele>131.2</ele><time>2026-04-08T05:48:24.999Z</time></trkpt><trkpt lat="51.135048666669576" lon="17.239532646693355"><ele>131.0</ele><time>2026-04-08T05:48:26.999Z</time></trkpt><trkpt lat="51.13503924464285" lon="17.239710058332435"><ele>131.25</ele><time>2026-04-08T05:48:27.999Z</time></trkpt><trkpt lat="51.13502255781916" lon="17.239916739297886"><ele>131.5</ele><time>2026-04-08T05:48:28.999Z</time></trkpt><trkpt lat="51.13500297388804" lon="17.240115600300953"><ele>131.75</ele><time>2026-04-08T05:48:29.999Z</time></trkpt><trkpt lat="51.135004846847515" lon="17.240273497108902"><ele>132.0</ele><time>2026-04-08T05:48:30.999Z</time></trkpt><trkpt lat="51.1349938021693" lon="17.24042855330239"><ele>132.0</ele><time>2026-04-08T05:48:31.999Z</time></trkpt><trkpt lat="51.13498507726382" lon="17.240586530635508"><ele>132.0</ele><time>2026-04-08T05:48:32.999Z</time></trkpt><trkpt lat="51.134983468306636" lon="17.240758974769253"><ele>132.0</ele><time>2026-04-08T05:48:33.999Z</time></trkpt><trkpt lat="51.13498009809408" lon="17.240949960482176"><ele>132.0</ele><time>2026-04-08T05:48:34.999Z</time></trkpt><trkpt lat="51.134972567024235" lon="17.241155660254538"><ele>132.33333333333334</ele><time>2026-04-08T05:48:35.999Z</time></trkpt><trkpt lat="51.13496172109409" lon="17.24138082198677"><ele>132.66666666666669</ele><time>2026-04-08T05:48:36.999Z</time></trkpt><trkpt lat="51.13495632875746" lon="17.241617326287454"><ele>133.0</ele><time>2026-04-08T05:48:37.999Z</time></trkpt><trkpt lat="51.13494349450148" lon="17.241873805328808"><ele>133.0</ele><time>2026-04-08T05:48:38.999Z</time></trkpt><trkpt lat="51.13493465391946" lon="17.242125249388707"><ele>133.0</ele><time>2026-04-08T05:48:39.999Z</time></trkpt><trkpt lat="51.13492745904815" lon="17.24236035599064"><ele>133.0</ele><time>2026-04-08T05:48:40.999Z</time></trkpt><trkpt lat="51.13491920101231" lon="17.242561961501757"><ele>133.0</ele><time>2026-04-08T05:48:41.999Z</time></trkpt><trkpt lat="51.134916839658736" lon="17.24275779869846"><ele>133.5</ele><time>2026-04-08T05:48:42.999Z</time></trkpt><trkpt lat="51.13492028176737" lon="17.242944224823447"><ele>134.0</ele><time>2026-04-08T05:48:43.999Z</time></trkpt><trkpt lat="51.13491748887868" lon="17.243127309047903"><ele>134.5</ele><time>2026-04-08T05:48:44.999Z</time></trkpt><trkpt lat="51.13491587012749" lon="17.243315102342656"><ele>135.0</ele><time>2026-04-08T05:48:45.999Z</time></trkpt><trkpt lat="51.134916206487766" lon="17.243506936261145"><ele>135.2</ele><time>2026-04-08T05:48:46.999Z</time></trkpt><trkpt lat="51.13490862939985" lon="17.243700024614647"><ele>135.4</ele><time>2026-04-08T05:48:47.999Z</time></trkpt><trkpt lat="51.13490775745955" lon="17.243858579970865"><ele>135.6</ele><time>2026-04-08T05:48:48.999Z</time></trkpt><trkpt lat="51.1349078727159" lon="17.244022297491835"><ele>135.8</ele><time>2026-04-08T05:48:49.999Z</time></trkpt><trkpt lat="51.134897555008465" lon="17.244196417344977"><ele>136.0</ele><time>2026-04-08T05:48:50.999Z</time></trkpt><trkpt lat="51.134895549806345" lon="17.244391416983913"><ele>136.0</ele><time>2026-04-08T05:48:51.999Z</time></trkpt><trkpt lat="51.13489143625808" lon="17.244586994993757"><ele>136.0</ele><time>2026-04-08T05:48:52.999Z</time></trkpt><trkpt lat="51.134887829667626" lon="17.24477559146676"><ele>136.0</ele><time>2026-04-08T05:48:53.999Z</time></trkpt><trkpt lat="51.134880017599514" lon="17.24496003235853"><ele>136.0</ele><time>2026-04-08T05:48:54.999Z</time></trkpt><trkpt lat="51.13487901882022" lon="17.245134317910928"><ele>136.16666666666669</ele><time>2026-04-08T05:48:55.999Z</time></trkpt><trkpt lat="51.134879974956206" lon="17.245286100425975"><ele>136.33333333333334</ele><time>2026-04-08T05:48:56.999Z</time></trkpt><trkpt lat="51.134877752048816" lon="17.24540941813813"><ele>136.5</ele><time>2026-04-08T05:48:57.999Z</time></trkpt><trkpt lat="51.13488963382853" lon="17.245526638143286"><ele>136.66666666666666</ele><time>2026-04-08T05:48:58.999Z</time></trkpt><trkpt lat="51.13491169117354" lon="17.245625927476862"><ele>136.83333333333331</ele><time>2026-04-08T05:48:59.999Z</time></trkpt><trkpt lat="51.13501970070028" lon="17.245724153007878"><ele>137.0</ele><time>2026-04-08T05:49:01.999Z</time></trkpt><trkpt lat="51.13508871955282" lon="17.245743170746223"><ele>137.2</ele><time>2026-04-08T05:49:02.999Z</time></trkpt><trkpt lat="51.13516670773664" lon="17.24574067833456"><ele>137.39999999999998</ele><time>2026-04-08T05:49:03.999Z</time></trkpt><trkpt lat="51.13526399237548" lon="17.245755563618584"><ele>137.60000000000002</ele><time>2026-04-08T05:49:04.999Z</time></trkpt><trkpt lat="51.1353738445201" lon="17.245809134813232"><ele>137.8</ele><time>2026-04-08T05:49:05.999Z</time></trkpt><trkpt lat="51.135495057599464" lon="17.24584322863647"><ele>138.0</ele><time>2026-04-08T05:49:06.999Z</time></trkpt><trkpt lat="51.13561787166827" lon="17.245877772787416"><ele>138.0</ele><time>2026-04-08T05:49:07.999Z</time></trkpt><trkpt lat="51.135748298831295" lon="17.245911912403457"><ele>138.0</ele><time>2026-04-08T05:49:08.999Z</time></trkpt><trkpt lat="51.135879815456356" lon="17.245918745469993"><ele>138.0</ele><time>2026-04-08T05:49:09.999Z</time></trkpt><trkpt lat="51.136001111119995" lon="17.245970542840965"><ele>138.0</ele><time>2026-04-08T05:49:10.999Z</time></trkpt><trkpt lat="51.136116421652176" lon="17.2459732762391"><ele>138.0</ele><time>2026-04-08T05:49:11.999Z</time></trkpt><trkpt lat="51.13621412474765" lon="17.24600315091898"><ele>138.0</ele><time>2026-04-08T05:49:12.999Z</time></trkpt><trkpt lat="51.13630835917643" lon="17.246037564591596"><ele>138.0</ele><time>2026-04-08T05:49:13.999Z</time></trkpt><trkpt lat="51.13639946831135" lon="17.24605722132865"><ele>138.0</ele><time>2026-04-08T05:49:14.999Z</time></trkpt><trkpt lat="51.136489563253434" lon="17.24607578591617"><ele>138.0</ele><time>2026-04-08T05:49:15.999Z</time></trkpt><trkpt lat="51.13658856318168" lon="17.246069665922718"><ele>138.0</ele><time>2026-04-08T05:49:16.999Z</time></trkpt><trkpt lat="51.13668071181715" lon="17.246108974245175"><ele>138.0</ele><time>2026-04-08T05:49:17.999Z</time></trkpt><trkpt lat="51.136791353097905" lon="17.246119992385953"><ele>138.0</ele><time>2026-04-08T05:49:18.999Z</time></trkpt><trkpt lat="51.13691637703688" lon="17.246139897847467"><ele>138.0</ele><time>2026-04-08T05:49:19.999Z</time></trkpt><trkpt lat="51.13704364444306" lon="17.24618815452695"><ele>138.0</ele><time>2026-04-08T05:49:20.999Z</time></trkpt><trkpt lat="51.137179820145356" lon="17.246216735988497"><ele>138.0</ele><time>2026-04-08T05:49:21.999Z</time></trkpt><trkpt lat="51.137298999575485" lon="17.246242060259434"><ele>138.0</ele><time>2026-04-08T05:49:22.999Z</time></trkpt><trkpt lat="51.1373947962127" lon="17.2462645125206"><ele>138.0</ele><time>2026-04-08T05:49:23.999Z</time></trkpt><trkpt lat="51.137475778649055" lon="17.2462665851461"><ele>138.0</ele><time>2026-04-08T05:49:24.999Z</time></trkpt><trkpt lat="51.13756321126975" lon="17.246285346235116"><ele>137.8</ele><time>2026-04-08T05:49:25.999Z</time></trkpt><trkpt lat="51.137657736274804" lon="17.246326458710683"><ele>137.60000000000002</ele><time>2026-04-08T05:49:26.999Z</time></trkpt><trkpt lat="51.137764282083" lon="17.24635231090172"><ele>137.39999999999998</ele><time>2026-04-08T05:49:27.999Z</time></trkpt><trkpt lat="51.13787906341828" lon="17.246365654227834"><ele>137.2</ele><time>2026-04-08T05:49:28.999Z</time></trkpt><trkpt lat="51.13798435520771" lon="17.246418503579537"><ele>137.0</ele><time>2026-04-08T05:49:29.999Z</time></trkpt><trkpt lat="51.13810725851353" lon="17.246443350636728"><ele>137.0</ele><time>2026-04-08T05:49:30.999Z</time></trkpt><trkpt lat="51.138237476652336" lon="17.24645882673922"><ele>137.0</ele><time>2026-04-08T05:49:32Z</time></trkpt><trkpt lat="51.138353827218765" lon="17.246482785682712"><ele>137.0</ele><time>2026-04-08T05:49:33Z</time></trkpt><trkpt lat="51.13845698727268" lon="17.24653261523279"><ele>137.0</ele><time>2026-04-08T05:49:34Z</time></trkpt><trkpt lat="51.138560073624134" lon="17.246553353428464"><ele>137.25</ele><time>2026-04-08T05:49:35Z</time></trkpt><trkpt lat="51.13865817852792" lon="17.24656640071551"><ele>137.5</ele><time>2026-04-08T05:49:36Z</time></trkpt><trkpt lat="51.1387725640121" lon="17.246579274755916"><ele>137.75</ele><time>2026-04-08T05:49:37Z</time></trkpt><trkpt lat="51.13889920795673" lon="17.246599221869023"><ele>138.0</ele><time>2026-04-08T05:49:38Z</time></trkpt><trkpt lat="51.13901596524205" lon="17.246620461957516"><ele>138.0</ele><time>2026-04-08T05:49:39Z</time></trkpt><trkpt lat="51.13911559061256" lon="17.24665747287726"><ele>138.0</ele><time>2026-04-08T05:49:40Z</time></trkpt><trkpt lat="51.13919772311064" lon="17.24669481271765"><ele>138.0</ele><time>2026-04-08T05:49:41Z</time></trkpt><trkpt lat="51.13928333342658" lon="17.24670248191968"><ele>138.0</ele><time>2026-04-08T05:49:42Z</time></trkpt><trkpt lat="51.139389476486606" lon="17.246734778125173"><ele>138.0</ele><time>2026-04-08T05:49:43Z</time></trkpt><trkpt lat="51.13949752103966" lon="17.246744509896864"><ele>138.0</ele><time>2026-04-08T05:49:44Z</time></trkpt><trkpt lat="51.13960372446721" lon="17.24677845246511"><ele>138.0</ele><time>2026-04-08T05:49:45Z</time></trkpt><trkpt lat="51.13972957082848" lon="17.246798595792086"><ele>138.0</ele><time>2026-04-08T05:49:46Z</time></trkpt><trkpt lat="51.1398491113663" lon="17.24682346500634"><ele>138.0</ele><time>2026-04-08T05:49:47Z</time></trkpt><trkpt lat="51.13996315788148" lon="17.246851534360918"><ele>137.5</ele><time>2026-04-08T05:49:48Z</time></trkpt><trkpt lat="51.140080208955695" lon="17.24687779963718"><ele>137.0</ele><time>2026-04-08T05:49:49Z</time></trkpt><trkpt lat="51.140217018699474" lon="17.246914854176424"><ele>136.5</ele><time>2026-04-08T05:49:50Z</time></trkpt><trkpt lat="51.1403612294732" lon="17.24695412175986"><ele>136.0</ele><time>2026-04-08T05:49:51Z</time></trkpt><trkpt lat="51.14051097374474" lon="17.246993677317757"><ele>136.0</ele><time>2026-04-08T05:49:52Z</time></trkpt><trkpt lat="51.140655779878806" lon="17.247032451173997"><ele>136.0</ele><time>2026-04-08T05:49:53Z</time></trkpt><trkpt lat="51.14079333836971" lon="17.247058093100474"><ele>136.0</ele><time>2026-04-08T05:49:54Z</time></trkpt><trkpt lat="51.14093660486656" lon="17.247084443980043"><ele>136.0</ele><time>2026-04-08T05:49:55Z</time></trkpt><trkpt lat="51.141076970948944" lon="17.247105741520073"><ele>135.5</ele><time>2026-04-08T05:49:56Z</time></trkpt><trkpt lat="51.14120075067409" lon="17.247118854439066"><ele>135.0</ele><time>2026-04-08T05:49:57Z</time></trkpt><trkpt lat="51.141305406165344" lon="17.247146321141578"><ele>134.5</ele><time>2026-04-08T05:49:58Z</time></trkpt><trkpt lat="51.141415881666425" lon="17.247168316088363"><ele>134.0</ele><time>2026-04-08T05:49:59Z</time></trkpt><trkpt lat="51.141531703378305" lon="17.247193197462046"><ele>134.0</ele><time>2026-04-08T05:50:00Z</time></trkpt><trkpt lat="51.14164984391586" lon="17.247214634207424"><ele>134.0</ele><time>2026-04-08T05:50:01Z</time></trkpt><trkpt lat="51.14177161551826" lon="17.2472696151655"><ele>134.0</ele><time>2026-04-08T05:50:02Z</time></trkpt><trkpt lat="51.14190615900079" lon="17.247295441988808"><ele>134.0</ele><time>2026-04-08T05:50:03Z</time></trkpt><trkpt lat="51.14205321701225" lon="17.247326879663174"><ele>134.0</ele><time>2026-04-08T05:50:04Z</time></trkpt><trkpt lat="51.142206475489346" lon="17.24735369412929"><ele>134.0</ele><time>2026-04-08T05:50:05Z</time></trkpt><trkpt lat="51.14235915043829" lon="17.247391802844678"><ele>134.0</ele><time>2026-04-08T05:50:06Z</time></trkpt><trkpt lat="51.142500703041065" lon="17.247413780396165"><ele>134.0</ele><time>2026-04-08T05:50:07Z</time></trkpt><trkpt lat="51.14263219086295" lon="17.247487181559823"><ele>134.0</ele><time>2026-04-08T05:50:08Z</time></trkpt><trkpt lat="51.142758869243316" lon="17.247524900473962"><ele>134.0</ele><time>2026-04-08T05:50:09Z</time></trkpt><trkpt lat="51.14287301214902" lon="17.247551620896157"><ele>134.0</ele><time>2026-04-08T05:50:10Z</time></trkpt><trkpt lat="51.142984436459315" lon="17.247579360154845"><ele>134.0</ele><time>2026-04-08T05:50:11Z</time></trkpt><trkpt lat="51.14308730523099" lon="17.24759589805671"><ele>134.0</ele><time>2026-04-08T05:50:12Z</time></trkpt><trkpt lat="51.143183227626736" lon="17.247610073442473"><ele>134.0</ele><time>2026-04-08T05:50:13Z</time></trkpt><trkpt lat="51.143293370492856" lon="17.24763334173511"><ele>134.0</ele><time>2026-04-08T05:50:14Z</time></trkpt><trkpt lat="51.14340540747465" lon="17.24766273897267"><ele>134.0</ele><time>2026-04-08T05:50:15Z</time></trkpt><trkpt lat="51.14351768396919" lon="17.247686988985052"><ele>134.0</ele><time>2026-04-08T05:50:16Z</time></trkpt><trkpt lat="51.14362588036619" lon="17.247693699960465"><ele>134.0</ele><time>2026-04-08T05:50:17Z</time></trkpt><trkpt lat="51.14372862281438" lon="17.247729885392477"><ele>134.0</ele><time>2026-04-08T05:50:18Z</time></trkpt><trkpt lat="51.14384040450117" lon="17.247756720915245"><ele>134.0</ele><time>2026-04-08T05:50:19Z</time></trkpt><trkpt lat="51.143959661988895" lon="17.24778740839554"><ele>134.0</ele><time>2026-04-08T05:50:20Z</time></trkpt><trkpt lat="51.14407892124285" lon="17.247813221269034"><ele>134.0</ele><time>2026-04-08T05:50:21Z</time></trkpt><trkpt lat="51.144205111382874" lon="17.24784046440618"><ele>134.0</ele><time>2026-04-08T05:50:22Z</time></trkpt><trkpt lat="51.14433773494765" lon="17.247850121822545"><ele>134.0</ele><time>2026-04-08T05:50:23Z</time></trkpt><trkpt lat="51.14447930145262" lon="17.247882436067375"><ele>134.0</ele><time>2026-04-08T05:50:24Z</time></trkpt><trkpt lat="51.144595707181594" lon="17.2478915456111"><ele>134.0</ele><time>2026-04-08T05:50:25Z</time></trkpt><trkpt lat="51.14472503515845" lon="17.24790544938083"><ele>134.0</ele><time>2026-04-08T05:50:25.999Z</time></trkpt><trkpt lat="51.144838146290176" lon="17.24792594427502"><ele>134.0</ele><time>2026-04-08T05:50:26.999Z</time></trkpt><trkpt lat="51.14493881470924" lon="17.24794089265726"><ele>134.0</ele><time>2026-04-08T05:50:27.999Z</time></trkpt><trkpt lat="51.145039952902444" lon="17.247947429053102"><ele>134.0</ele><time>2026-04-08T05:50:28.999Z</time></trkpt><trkpt lat="51.1451514092813" lon="17.247960178681293"><ele>133.8</ele><time>2026-04-08T05:50:29.999Z</time></trkpt><trkpt lat="51.14526455691753" lon="17.247975146101012"><ele>133.60000000000002</ele><time>2026-04-08T05:50:30.999Z</time></trkpt><trkpt lat="51.145375590270824" lon="17.248007423824312"><ele>133.4</ele><time>2026-04-08T05:50:31.999Z</time></trkpt><trkpt lat="51.14546579407925" lon="17.24800603524612"><ele>133.20000000000002</ele><time>2026-04-08T05:50:32.999Z</time></trkpt><trkpt lat="51.14555892171739" lon="17.24800570349996"><ele>133.0</ele><time>2026-04-08T05:50:33.999Z</time></trkpt><trkpt lat="51.14565609383901" lon="17.248012746181335"><ele>132.75</ele><time>2026-04-08T05:50:34.999Z</time></trkpt><trkpt lat="51.145767374926606" lon="17.248010461031427"><ele>132.5</ele><time>2026-04-08T05:50:35.999Z</time></trkpt><trkpt lat="51.14588313440157" lon="17.248015450752305"><ele>132.25</ele><time>2026-04-08T05:50:36.999Z</time></trkpt><trkpt lat="51.14599943530143" lon="17.248032156546486"><ele>132.0</ele><time>2026-04-08T05:50:37.999Z</time></trkpt><trkpt lat="51.146112321782766" lon="17.24804082770725"><ele>132.0</ele><time>2026-04-08T05:50:38.999Z</time></trkpt><trkpt lat="51.14626416237853" lon="17.248048459517996"><ele>132.0</ele><time>2026-04-08T05:50:40.999Z</time></trkpt><trkpt lat="51.14635937888916" lon="17.24804052016719"><ele>132.0</ele><time>2026-04-08T05:50:41.999Z</time></trkpt><trkpt lat="51.14644438862806" lon="17.248030137260354"><ele>132.0</ele><time>2026-04-08T05:50:42.999Z</time></trkpt><trkpt lat="51.14650808436068" lon="17.248020204962522"><ele>132.0</ele><time>2026-04-08T05:50:43.999Z</time></trkpt><trkpt lat="51.14662309647409" lon="17.248006274032292"><ele>133.0</ele><time>2026-04-08T05:50:45.999Z</time></trkpt><trkpt lat="51.146693380558894" lon="17.24801879945228"><ele>134.0</ele><time>2026-04-08T05:50:46.999Z</time></trkpt><trkpt lat="51.146776584831215" lon="17.248054008099817"><ele>135.0</ele><time>2026-04-08T05:50:47.999Z</time></trkpt><trkpt lat="51.14688177559295" lon="17.248095049997946"><ele>136.0</ele><time>2026-04-08T05:50:48.999Z</time></trkpt><trkpt lat="51.14699430711488" lon="17.248125669526"><ele>137.0</ele><time>2026-04-08T05:50:49.999Z</time></trkpt><trkpt lat="51.14712381754355" lon="17.248168324923615"><ele>137.0</ele><time>2026-04-08T05:50:50.999Z</time></trkpt><trkpt lat="51.147256813603946" lon="17.248225105548105"><ele>137.0</ele><time>2026-04-08T05:50:51.999Z</time></trkpt><trkpt lat="51.14737033318982" lon="17.24825247914656"><ele>137.0</ele><time>2026-04-08T05:50:52.999Z</time></trkpt><trkpt lat="51.14746878827218" lon="17.248279977052878"><ele>137.0</ele><time>2026-04-08T05:50:53.999Z</time></trkpt><trkpt lat="51.14755544920373" lon="17.24832203605242"><ele>137.0</ele><time>2026-04-08T05:50:54.999Z</time></trkpt><trkpt lat="51.147622786484334" lon="17.248354050741526"><ele>137.0</ele><time>2026-04-08T05:50:55.999Z</time></trkpt><trkpt lat="51.14773558555456" lon="17.248378927132272"><ele>137.0</ele><time>2026-04-08T05:50:57.999Z</time></trkpt><trkpt lat="51.14779995704573" lon="17.248398446449908"><ele>137.0</ele><time>2026-04-08T05:50:58.999Z</time></trkpt><trkpt lat="51.147870596130055" lon="17.248426389355885"><ele>137.0</ele><time>2026-04-08T05:51:00.999Z</time></trkpt><trkpt lat="51.147937043044955" lon="17.248437283944234"><ele>137.0</ele><time>2026-04-08T05:51:02.999Z</time></trkpt><trkpt lat="51.14801478588895" lon="17.248450618200163"><ele>137.0</ele><time>2026-04-08T05:51:04.999Z</time></trkpt><trkpt lat="51.148109225725854" lon="17.248476125507096"><ele>137.0</ele><time>2026-04-08T05:51:06.999Z</time></trkpt><trkpt lat="51.14816839742264" lon="17.248516061762405"><ele>137.0</ele><time>2026-04-08T05:51:07.999Z</time></trkpt><trkpt lat="51.14828961745063" lon="17.248552687906482"><ele>137.0</ele><time>2026-04-08T05:51:09.999Z</time></trkpt><trkpt lat="51.14835329244355" lon="17.248571848002904"><ele>137.0</ele><time>2026-04-08T05:51:10.999Z</time></trkpt><trkpt lat="51.148424091680795" lon="17.24859362814557"><ele>137.0</ele><time>2026-04-08T05:51:11.999Z</time></trkpt><trkpt lat="51.148510821168664" lon="17.248619909141695"><ele>137.0</ele><time>2026-04-08T05:51:12.999Z</time></trkpt><trkpt lat="51.14861455429268" lon="17.24865078854574"><ele>136.0</ele><time>2026-04-08T05:51:13.999Z</time></trkpt><trkpt lat="51.148733259775" lon="17.24868578056488"><ele>135.0</ele><time>2026-04-08T05:51:14.999Z</time></trkpt><trkpt lat="51.14883946882263" lon="17.248705672372875"><ele>134.0</ele><time>2026-04-08T05:51:15.999Z</time></trkpt><trkpt lat="51.148938039789684" lon="17.24873940599098"><ele>133.0</ele><time>2026-04-08T05:51:16.999Z</time></trkpt><trkpt lat="51.149035435597305" lon="17.248771057096597"><ele>132.0</ele><time>2026-04-08T05:51:17.999Z</time></trkpt><trkpt lat="51.14912863153066" lon="17.24880939733811"><ele>131.79999999999998</ele><time>2026-04-08T05:51:18.999Z</time></trkpt><trkpt lat="51.149218082930815" lon="17.248829707322063"><ele>131.6</ele><time>2026-04-08T05:51:19.999Z</time></trkpt><trkpt lat="51.149314816366996" lon="17.248861669484366"><ele>131.39999999999998</ele><time>2026-04-08T05:51:20.999Z</time></trkpt><trkpt lat="51.14941467577475" lon="17.248891695449068"><ele>131.2</ele><time>2026-04-08T05:51:21.999Z</time></trkpt><trkpt lat="51.14952819025098" lon="17.248929634851237"><ele>131.0</ele><time>2026-04-08T05:51:22.999Z</time></trkpt><trkpt lat="51.14965433127096" lon="17.248986810528624"><ele>131.0</ele><time>2026-04-08T05:51:23.999Z</time></trkpt><trkpt lat="51.149777108610266" lon="17.2490359668332"><ele>131.0</ele><time>2026-04-08T05:51:24.999Z</time></trkpt><trkpt lat="51.14989306252687" lon="17.249061585998497"><ele>131.0</ele><time>2026-04-08T05:51:25.999Z</time></trkpt><trkpt lat="51.149999873548644" lon="17.249078438361106"><ele>131.0</ele><time>2026-04-08T05:51:26.999Z</time></trkpt><trkpt lat="51.150093781333005" lon="17.2491099164649"><ele>131.0</ele><time>2026-04-08T05:51:27.999Z</time></trkpt><trkpt lat="51.150200568805765" lon="17.24914672016751"><ele>131.0</ele><time>2026-04-08T05:51:28.999Z</time></trkpt><trkpt lat="51.15032164055989" lon="17.249186833187775"><ele>131.0</ele><time>2026-04-08T05:51:29.999Z</time></trkpt><trkpt lat="51.15045842912158" lon="17.249228789391363"><ele>131.0</ele><time>2026-04-08T05:51:30.999Z</time></trkpt><trkpt lat="51.150591470382096" lon="17.249293820537076"><ele>131.0</ele><time>2026-04-08T05:51:31.999Z</time></trkpt><trkpt lat="51.15071983963165" lon="17.249319786329288"><ele>131.0</ele><time>2026-04-08T05:51:32.999Z</time></trkpt><trkpt lat="51.15084081286826" lon="17.249356899387134"><ele>131.0</ele><time>2026-04-08T05:51:33.999Z</time></trkpt><trkpt lat="51.15096073398545" lon="17.249402384531137"><ele>131.0</ele><time>2026-04-08T05:51:34.999Z</time></trkpt><trkpt lat="51.15107357156598" lon="17.249446815628083"><ele>131.0</ele><time>2026-04-08T05:51:35.999Z</time></trkpt><trkpt lat="51.15117234955603" lon="17.249474789140958"><ele>131.0</ele><time>2026-04-08T05:51:36.999Z</time></trkpt><trkpt lat="51.15126484570769" lon="17.249497254737324"><ele>131.0</ele><time>2026-04-08T05:51:38Z</time></trkpt><trkpt lat="51.15135167931925" lon="17.249534682679723"><ele>131.0</ele><time>2026-04-08T05:51:39Z</time></trkpt><trkpt lat="51.151438680663645" lon="17.249565526669212"><ele>131.0</ele><time>2026-04-08T05:51:40Z</time></trkpt><trkpt lat="51.15153984180709" lon="17.249595614554615"><ele>131.0</ele><time>2026-04-08T05:51:41Z</time></trkpt><trkpt lat="51.151634049126365" lon="17.249624225102288"><ele>131.0</ele><time>2026-04-08T05:51:42Z</time></trkpt><trkpt lat="51.151728430916414" lon="17.249657049114525"><ele>131.0</ele><time>2026-04-08T05:51:43Z</time></trkpt><trkpt lat="51.15182347433876" lon="17.249687204498287"><ele>131.0</ele><time>2026-04-08T05:51:44Z</time></trkpt><trkpt lat="51.15191629827365" lon="17.249721259344266"><ele>131.0</ele><time>2026-04-08T05:51:45Z</time></trkpt><trkpt lat="51.152013979310915" lon="17.249751207488178"><ele>131.0</ele><time>2026-04-08T05:51:46Z</time></trkpt><trkpt lat="51.152112038316716" lon="17.249778670272573"><ele>131.0</ele><time>2026-04-08T05:51:47Z</time></trkpt><trkpt lat="51.15220598566123" lon="17.24980500909699"><ele>131.0</ele><time>2026-04-08T05:51:48Z</time></trkpt><trkpt lat="51.15229954105502" lon="17.249841003361354"><ele>131.0</ele><time>2026-04-08T05:51:49Z</time></trkpt><trkpt lat="51.15239400277475" lon="17.249874587010282"><ele>131.0</ele><time>2026-04-08T05:51:50Z</time></trkpt><trkpt lat="51.152491584830436" lon="17.249901409453717"><ele>131.0</ele><time>2026-04-08T05:51:51Z</time></trkpt><trkpt lat="51.15259165086058" lon="17.24993800371488"><ele>131.0</ele><time>2026-04-08T05:51:52Z</time></trkpt><trkpt lat="51.15269221486493" lon="17.249970643583776"><ele>131.0</ele><time>2026-04-08T05:51:53Z</time></trkpt><trkpt lat="51.152796838330005" lon="17.250021066715654"><ele>131.0</ele><time>2026-04-08T05:51:54Z</time></trkpt><trkpt lat="51.15289573587344" lon="17.250035553872856"><ele>131.0</ele><time>2026-04-08T05:51:55Z</time></trkpt><trkpt lat="51.15299460108176" lon="17.25006392013788"><ele>131.0</ele><time>2026-04-08T05:51:56Z</time></trkpt><trkpt lat="51.153083231638504" lon="17.25009676242444"><ele>131.0</ele><time>2026-04-08T05:51:57Z</time></trkpt><trkpt lat="51.153172648983094" lon="17.25012533998183"><ele>131.0</ele><time>2026-04-08T05:51:58Z</time></trkpt><trkpt lat="51.153257315725156" lon="17.250163580075224"><ele>131.0</ele><time>2026-04-08T05:51:59Z</time></trkpt><trkpt lat="51.1533492090684" lon="17.25019891568425"><ele>131.0</ele><time>2026-04-08T05:52:00Z</time></trkpt><trkpt lat="51.15343715631402" lon="17.250250544732033"><ele>131.0</ele><time>2026-04-08T05:52:01Z</time></trkpt><trkpt lat="51.15352637681218" lon="17.25029246143298"><ele>131.2</ele><time>2026-04-08T05:52:02Z</time></trkpt><trkpt lat="51.15359546135099" lon="17.25033139393978"><ele>131.39999999999998</ele><time>2026-04-08T05:52:03Z</time></trkpt><trkpt lat="51.153684711172026" lon="17.25034875557286"><ele>131.6</ele><time>2026-04-08T05:52:04Z</time></trkpt><trkpt lat="51.153782736223974" lon="17.250363998170815"><ele>131.79999999999998</ele><time>2026-04-08T05:52:05Z</time></trkpt><trkpt lat="51.15388158399501" lon="17.25039427986512"><ele>132.0</ele><time>2026-04-08T05:52:06Z</time></trkpt><trkpt lat="51.15399358719521" lon="17.250422238236133"><ele>131.5</ele><time>2026-04-08T05:52:07Z</time></trkpt><trkpt lat="51.154108820306604" lon="17.25044437697412"><ele>131.0</ele><time>2026-04-08T05:52:08Z</time></trkpt><trkpt lat="51.15423479520495" lon="17.250480751640534"><ele>130.5</ele><time>2026-04-08T05:52:09Z</time></trkpt><trkpt lat="51.15435767460625" lon="17.250511616973572"><ele>130.0</ele><time>2026-04-08T05:52:10Z</time></trkpt><trkpt lat="51.154479939139705" lon="17.25054712535895"><ele>130.0</ele><time>2026-04-08T05:52:11Z</time></trkpt><trkpt lat="51.154597170369144" lon="17.25059071851796"><ele>130.0</ele><time>2026-04-08T05:52:12Z</time></trkpt><trkpt lat="51.15472023818542" lon="17.250627704114905"><ele>130.0</ele><time>2026-04-08T05:52:13Z</time></trkpt><trkpt lat="51.154845415967124" lon="17.250676989058498"><ele>130.0</ele><time>2026-04-08T05:52:14Z</time></trkpt><trkpt lat="51.1549712034203" lon="17.250728772098096"><ele>129.75</ele><time>2026-04-08T05:52:15Z</time></trkpt><trkpt lat="51.15509660365183" lon="17.25077930442065"><ele>129.5</ele><time>2026-04-08T05:52:16Z</time></trkpt><trkpt lat="51.155224684665534" lon="17.250751481035252"><ele>129.25</ele><time>2026-04-08T05:52:17Z</time></trkpt><trkpt lat="51.15533620781372" lon="17.250864484939036"><ele>129.0</ele><time>2026-04-08T05:52:18Z</time></trkpt><trkpt lat="51.155465060132336" lon="17.250978015171164"><ele>129.0</ele><time>2026-04-08T05:52:19Z</time></trkpt><trkpt lat="51.15558842941219" lon="17.25104593817572"><ele>129.0</ele><time>2026-04-08T05:52:20Z</time></trkpt><trkpt lat="51.15568863127864" lon="17.250955984858123"><ele>129.0</ele><time>2026-04-08T05:52:21Z</time></trkpt><trkpt lat="51.155805352612184" lon="17.25099759380905"><ele>129.0</ele><time>2026-04-08T05:52:22Z</time></trkpt><trkpt lat="51.15592795001509" lon="17.251034128679223"><ele>128.75</ele><time>2026-04-08T05:52:23Z</time></trkpt><trkpt lat="51.15604663026157" lon="17.25108124527"><ele>128.5</ele><time>2026-04-08T05:52:24Z</time></trkpt><trkpt lat="51.15616338010249" lon="17.25112321349297"><ele>128.25</ele><time>2026-04-08T05:52:25Z</time></trkpt><trkpt lat="51.156275152810906" lon="17.251159247435545"><ele>128.0</ele><time>2026-04-08T05:52:26Z</time></trkpt><trkpt lat="51.15639920218979" lon="17.251194869872734"><ele>128.0</ele><time>2026-04-08T05:52:26.999Z</time></trkpt><trkpt lat="51.156524813362175" lon="17.25123690241774"><ele>128.0</ele><time>2026-04-08T05:52:27.999Z</time></trkpt><trkpt lat="51.15664433576378" lon="17.251277152546916"><ele>128.0</ele><time>2026-04-08T05:52:28.999Z</time></trkpt><trkpt lat="51.15675795797759" lon="17.251309218986595"><ele>128.0</ele><time>2026-04-08T05:52:29.999Z</time></trkpt><trkpt lat="51.156874993483505" lon="17.251361690801936"><ele>128.0</ele><time>2026-04-08T05:52:30.999Z</time></trkpt><trkpt lat="51.15700261079011" lon="17.251392938650422"><ele>128.0</ele><time>2026-04-08T05:52:31.999Z</time></trkpt><trkpt lat="51.15710111692028" lon="17.251428524394274"><ele>128.0</ele><time>2026-04-08T05:52:32.999Z</time></trkpt><trkpt lat="51.15716927147449" lon="17.251462801946108"><ele>128.0</ele><time>2026-04-08T05:52:33.999Z</time></trkpt><trkpt lat="51.1572733776936" lon="17.251513528287038"><ele>128.0</ele><time>2026-04-08T05:52:35.999Z</time></trkpt><trkpt lat="51.157410365065424" lon="17.25154874611871"><ele>128.0</ele><time>2026-04-08T05:52:37.999Z</time></trkpt><trkpt lat="51.15749971758762" lon="17.251602802965767"><ele>128.0</ele><time>2026-04-08T05:52:38.999Z</time></trkpt><trkpt lat="51.15760147733037" lon="17.251663658626065"><ele>128.0</ele><time>2026-04-08T05:52:39.999Z</time></trkpt><trkpt lat="51.157717051453936" lon="17.25172244732681"><ele>128.0</ele><time>2026-04-08T05:52:40.999Z</time></trkpt><trkpt lat="51.15784205257845" lon="17.251778152841013"><ele>128.0</ele><time>2026-04-08T05:52:41.999Z</time></trkpt><trkpt lat="51.15797882356045" lon="17.25183480362502"><ele>128.0</ele><time>2026-04-08T05:52:42.999Z</time></trkpt><trkpt lat="51.15812152654635" lon="17.251898406806703"><ele>128.0</ele><time>2026-04-08T05:52:43.999Z</time></trkpt><trkpt lat="51.158271692587434" lon="17.251965585213487"><ele>128.0</ele><time>2026-04-08T05:52:44.999Z</time></trkpt><trkpt lat="51.15842207765179" lon="17.25203318353099"><ele>128.33333333333331</ele><time>2026-04-08T05:52:45.999Z</time></trkpt><trkpt lat="51.15857266206715" lon="17.252097253267603"><ele>128.66666666666666</ele><time>2026-04-08T05:52:46.999Z</time></trkpt><trkpt lat="51.158724044455624" lon="17.252145281543847"><ele>129.0</ele><time>2026-04-08T05:52:47.999Z</time></trkpt><trkpt lat="51.15888377329093" lon="17.252174377859262"><ele>129.0</ele><time>2026-04-08T05:52:48.999Z</time></trkpt><trkpt lat="51.15904453850154" lon="17.25221716436929"><ele>129.0</ele><time>2026-04-08T05:52:49.999Z</time></trkpt><trkpt lat="51.15920221411237" lon="17.252234789507817"><ele>129.0</ele><time>2026-04-08T05:52:50.999Z</time></trkpt><trkpt lat="51.159362627744606" lon="17.252247734322715"><ele>129.0</ele><time>2026-04-08T05:52:51.999Z</time></trkpt><trkpt lat="51.15951457103685" lon="17.252271609459775"><ele>129.0</ele><time>2026-04-08T05:52:52.999Z</time></trkpt><trkpt lat="51.15966397753123" lon="17.25228678405027"><ele>129.0</ele><time>2026-04-08T05:52:53.999Z</time></trkpt><trkpt lat="51.1598103024476" lon="17.25229936397286"><ele>129.0</ele><time>2026-04-08T05:52:54.999Z</time></trkpt><trkpt lat="51.159958594985824" lon="17.25231625841537"><ele>129.25</ele><time>2026-04-08T05:52:55.999Z</time></trkpt><trkpt lat="51.160105631230095" lon="17.252331897382785"><ele>129.5</ele><time>2026-04-08T05:52:56.999Z</time></trkpt><trkpt lat="51.16025418977044" lon="17.252348187775386"><ele>129.75</ele><time>2026-04-08T05:52:57.999Z</time></trkpt><trkpt lat="51.16040149212612" lon="17.252361189647"><ele>130.0</ele><time>2026-04-08T05:52:58.999Z</time></trkpt><trkpt lat="51.1605481972725" lon="17.252371864891458"><ele>130.0</ele><time>2026-04-08T05:52:59.999Z</time></trkpt><trkpt lat="51.160694170278596" lon="17.252383652135578"><ele>130.0</ele><time>2026-04-08T05:53:00.999Z</time></trkpt><trkpt lat="51.1608412614124" lon="17.25239632184238"><ele>130.0</ele><time>2026-04-08T05:53:01.999Z</time></trkpt><trkpt lat="51.160991298349465" lon="17.252403395270594"><ele>130.0</ele><time>2026-04-08T05:53:02.999Z</time></trkpt><trkpt lat="51.161139891941566" lon="17.252416492868"><ele>130.0</ele><time>2026-04-08T05:53:03.999Z</time></trkpt><trkpt lat="51.16129147581709" lon="17.252434774851693"><ele>130.0</ele><time>2026-04-08T05:53:04.999Z</time></trkpt><trkpt lat="51.16144108144063" lon="17.25244984520002"><ele>130.0</ele><time>2026-04-08T05:53:05.999Z</time></trkpt><trkpt lat="51.161589336754936" lon="17.252459678994352"><ele>129.33333333333334</ele><time>2026-04-08T05:53:06.999Z</time></trkpt><trkpt lat="51.161742041134715" lon="17.25247246788734"><ele>128.66666666666666</ele><time>2026-04-08T05:53:07.999Z</time></trkpt><trkpt lat="51.16189680924944" lon="17.252487551996346"><ele>128.0</ele><time>2026-04-08T05:53:08.999Z</time></trkpt><trkpt lat="51.162042428554095" lon="17.25251193538208"><ele>128.0</ele><time>2026-04-08T05:53:09.999Z</time></trkpt><trkpt lat="51.162161011945145" lon="17.252527908965178"><ele>128.0</ele><time>2026-04-08T05:53:10.999Z</time></trkpt><trkpt lat="51.16226928754525" lon="17.252541644508856"><ele>128.0</ele><time>2026-04-08T05:53:11.999Z</time></trkpt><trkpt lat="51.16236958791529" lon="17.252550227728918"><ele>128.0</ele><time>2026-04-08T05:53:12.999Z</time></trkpt><trkpt lat="51.162458581009524" lon="17.252556269915075"><ele>128.0</ele><time>2026-04-08T05:53:13.999Z</time></trkpt><trkpt lat="51.162525738771784" lon="17.252567048146965"><ele>128.0</ele><time>2026-04-08T05:53:14.999Z</time></trkpt><trkpt lat="51.16261902703172" lon="17.252586979251372"><ele>128.0</ele><time>2026-04-08T05:53:16.999Z</time></trkpt><trkpt lat="51.162713467884245" lon="17.252599893250153"><ele>128.0</ele><time>2026-04-08T05:53:19.999Z</time></trkpt><trkpt lat="51.16280351365738" lon="17.252429676447885"><ele>128.0</ele><time>2026-04-08T05:53:21.999Z</time></trkpt><trkpt lat="51.16281577831048" lon="17.252284170930764"><ele>128.0</ele><time>2026-04-08T05:53:22.999Z</time></trkpt><trkpt lat="51.162815123171214" lon="17.252121750929085"><ele>127.80000000000001</ele><time>2026-04-08T05:53:23.999Z</time></trkpt><trkpt lat="51.162811434765736" lon="17.251964930078707"><ele>127.60000000000001</ele><time>2026-04-08T05:53:24.999Z</time></trkpt><trkpt lat="51.162804190976736" lon="17.251819865069432"><ele>127.39999999999999</ele><time>2026-04-08T05:53:25.999Z</time></trkpt><trkpt lat="51.162814295475854" lon="17.251599711240686"><ele>127.19999999999999</ele><time>2026-04-08T05:53:27.999Z</time></trkpt><trkpt lat="51.162838154917694" lon="17.251465459661024"><ele>127.0</ele><time>2026-04-08T05:53:28.999Z</time></trkpt><trkpt lat="51.162845561383214" lon="17.25134562109856"><ele>127.0</ele><time>2026-04-08T05:53:29.999Z</time></trkpt><trkpt lat="51.162852370283446" lon="17.251235451174047"><ele>126.99999999999999</ele><time>2026-04-08T05:53:30.999Z</time></trkpt><trkpt lat="51.16285194915463" lon="17.251129399695195"><ele>126.99999999999999</ele><time>2026-04-08T05:53:31.999Z</time></trkpt><trkpt lat="51.162895595239625" lon="17.251052773906604"><ele>127.0</ele><time>2026-04-08T05:53:32.999Z</time></trkpt><trkpt lat="51.16301024210068" lon="17.25106149530773"><ele>127.0</ele><time>2026-04-08T05:53:34.999Z</time></trkpt><trkpt lat="51.16315609309097" lon="17.25107947993015"><ele>127.0</ele><time>2026-04-08T05:53:36.999Z</time></trkpt><trkpt lat="51.16326880902482" lon="17.251093378690936"><ele>127.0</ele><time>2026-04-08T05:53:37.999Z</time></trkpt><trkpt lat="51.16338658520552" lon="17.251107901392484"><ele>127.0</ele><time>2026-04-08T05:53:38.999Z</time></trkpt><trkpt lat="51.163514358766044" lon="17.251123656867133"><ele>127.0</ele><time>2026-04-08T05:53:39.999Z</time></trkpt><trkpt lat="51.16365554624797" lon="17.25114106639621"><ele>127.0</ele><time>2026-04-08T05:53:40.999Z</time></trkpt><trkpt lat="51.16379721130589" lon="17.251144369363708"><ele>127.0</ele><time>2026-04-08T05:53:41.999Z</time></trkpt><trkpt lat="51.16392977776239" lon="17.25118142063547"><ele>127.0</ele><time>2026-04-08T05:53:42.999Z</time></trkpt><trkpt lat="51.1640594442508" lon="17.25117424041236"><ele>127.0</ele><time>2026-04-08T05:53:44Z</time></trkpt><trkpt lat="51.16418606959303" lon="17.251187541544798"><ele>127.25</ele><time>2026-04-08T05:53:45Z</time></trkpt><trkpt lat="51.16429528013413" lon="17.25120153691357"><ele>127.5</ele><time>2026-04-08T05:53:46Z</time></trkpt><trkpt lat="51.164408222889875" lon="17.25123555040706"><ele>127.75</ele><time>2026-04-08T05:53:47Z</time></trkpt><trkpt lat="51.16451622461587" lon="17.25123528825387"><ele>128.0</ele><time>2026-04-08T05:53:48Z</time></trkpt><trkpt lat="51.164636879176925" lon="17.25125387358024"><ele>128.0</ele><time>2026-04-08T05:53:49Z</time></trkpt><trkpt lat="51.16474981398122" lon="17.25128047358572"><ele>128.0</ele><time>2026-04-08T05:53:50Z</time></trkpt><trkpt lat="51.16486929992414" lon="17.251300651059477"><ele>128.0</ele><time>2026-04-08T05:53:51Z</time></trkpt><trkpt lat="51.16501438479009" lon="17.25130340123989"><ele>128.0</ele><time>2026-04-08T05:53:52Z</time></trkpt><trkpt lat="51.165163778560085" lon="17.251319516170135"><ele>128.0</ele><time>2026-04-08T05:53:53Z</time></trkpt><trkpt lat="51.165321090163694" lon="17.25135765474361"><ele>128.0</ele><time>2026-04-08T05:53:54Z</time></trkpt><trkpt lat="51.16546893851271" lon="17.251388763625787"><ele>128.0</ele><time>2026-04-08T05:53:55Z</time></trkpt><trkpt lat="51.16560295543062" lon="17.2513954173599"><ele>128.0</ele><time>2026-04-08T05:53:56Z</time></trkpt><trkpt lat="51.165712988661795" lon="17.251409020834636"><ele>128.0</ele><time>2026-04-08T05:53:57Z</time></trkpt><trkpt lat="51.165817925897045" lon="17.251430892255964"><ele>128.0</ele><time>2026-04-08T05:53:58Z</time></trkpt><trkpt lat="51.165910181357056" lon="17.25143132573887"><ele>128.0</ele><time>2026-04-08T05:53:59Z</time></trkpt><trkpt lat="51.16598864408535" lon="17.25143920609136"><ele>128.0</ele><time>2026-04-08T05:54:00Z</time></trkpt><trkpt lat="51.166071240478416" lon="17.251469195066775"><ele>128.0</ele><time>2026-04-08T05:54:02Z</time></trkpt><trkpt lat="51.166127143327024" lon="17.251128068549317"><ele>127.99999999999999</ele><time>2026-04-08T05:54:04Z</time></trkpt><trkpt lat="51.16614002433877" lon="17.251010585427938"><ele>128.0</ele><time>2026-04-08T05:54:05Z</time></trkpt><trkpt lat="51.166161511289225" lon="17.2508934266597"><ele>128.0</ele><time>2026-04-08T05:54:06Z</time></trkpt><trkpt lat="51.16617997605235" lon="17.250762080298873"><ele>128.0</ele><time>2026-04-08T05:54:07Z</time></trkpt><trkpt lat="51.166190807934456" lon="17.250622027958578"><ele>127.99999999999999</ele><time>2026-04-08T05:54:08Z</time></trkpt><trkpt lat="51.16620505630565" lon="17.25046914466394"><ele>128.0</ele><time>2026-04-08T05:54:09Z</time></trkpt><trkpt lat="51.16622745004415" lon="17.250309098378878"><ele>128.0</ele><time>2026-04-08T05:54:10Z</time></trkpt><trkpt lat="51.166248285375936" lon="17.25015129381751"><ele>128.0</ele><time>2026-04-08T05:54:11Z</time></trkpt><trkpt lat="51.1662736920927" lon="17.24999331626067"><ele>128.0</ele><time>2026-04-08T05:54:12Z</time></trkpt><trkpt lat="51.1662998076701" lon="17.249818768161422"><ele>128.0</ele><time>2026-04-08T05:54:13Z</time></trkpt><trkpt lat="51.16629787544545" lon="17.249645735665126"><ele>128.0</ele><time>2026-04-08T05:54:14Z</time></trkpt><trkpt lat="51.16632021944583" lon="17.24947344833348"><ele>128.0</ele><time>2026-04-08T05:54:15Z</time></trkpt><trkpt lat="51.16634091324735" lon="17.249301488837716"><ele>128.0</ele><time>2026-04-08T05:54:16Z</time></trkpt><trkpt lat="51.16635863297793" lon="17.249150095502486"><ele>128.0</ele><time>2026-04-08T05:54:17Z</time></trkpt><trkpt lat="51.16637250606307" lon="17.248983433232233"><ele>128.0</ele><time>2026-04-08T05:54:18Z</time></trkpt><trkpt lat="51.166403090223184" lon="17.248788093340867"><ele>128.0</ele><time>2026-04-08T05:54:19Z</time></trkpt><trkpt lat="51.16643720119448" lon="17.248590749535076"><ele>128.0</ele><time>2026-04-08T05:54:20Z</time></trkpt><trkpt lat="51.16645052898992" lon="17.248407856648885"><ele>128.0</ele><time>2026-04-08T05:54:21Z</time></trkpt><trkpt lat="51.16647827511955" lon="17.24824136982069"><ele>128.0</ele><time>2026-04-08T05:54:22Z</time></trkpt><trkpt lat="51.16649431050243" lon="17.248108934005412"><ele>128.0</ele><time>2026-04-08T05:54:23Z</time></trkpt><trkpt lat="51.166513917390326" lon="17.247902860583924"><ele>128.0</ele><time>2026-04-08T05:54:24Z</time></trkpt><trkpt lat="51.1665339670502" lon="17.24771303806594"><ele>128.0</ele><time>2026-04-08T05:54:25Z</time></trkpt><trkpt lat="51.1665475141917" lon="17.247515611098848"><ele>128.0</ele><time>2026-04-08T05:54:26Z</time></trkpt><trkpt lat="51.16657815068424" lon="17.24731541868567"><ele>128.0</ele><time>2026-04-08T05:54:27Z</time></trkpt><trkpt lat="51.166594473366395" lon="17.247103786882246"><ele>128.0</ele><time>2026-04-08T05:54:28Z</time></trkpt><trkpt lat="51.16661768328554" lon="17.246904671526348"><ele>128.20000000000002</ele><time>2026-04-08T05:54:29Z</time></trkpt><trkpt lat="51.1666518480181" lon="17.246717487745013"><ele>128.4</ele><time>2026-04-08T05:54:30Z</time></trkpt><trkpt lat="51.16668984829811" lon="17.246565075691965"><ele>128.60000000000002</ele><time>2026-04-08T05:54:31Z</time></trkpt><trkpt lat="51.16674244451967" lon="17.24646531293547"><ele>128.8</ele><time>2026-04-08T05:54:32Z</time></trkpt><trkpt lat="51.16680736843537" lon="17.246371261944972"><ele>129.0</ele><time>2026-04-08T05:54:33Z</time></trkpt><trkpt lat="51.16687410594721" lon="17.246311302245758"><ele>129.2</ele><time>2026-04-08T05:54:34Z</time></trkpt><trkpt lat="51.16696103846792" lon="17.24624579651773"><ele>129.4</ele><time>2026-04-08T05:54:35Z</time></trkpt><trkpt lat="51.167050253432336" lon="17.246178486100145"><ele>129.6</ele><time>2026-04-08T05:54:36Z</time></trkpt><trkpt lat="51.1671395961037" lon="17.246078023725914"><ele>129.8</ele><time>2026-04-08T05:54:37Z</time></trkpt><trkpt lat="51.167247708515674" lon="17.24603412819598"><ele>130.0</ele><time>2026-04-08T05:54:38Z</time></trkpt><trkpt lat="51.16736435725086" lon="17.245937857241763"><ele>130.25</ele><time>2026-04-08T05:54:39Z</time></trkpt><trkpt lat="51.16749053322126" lon="17.245852576025047"><ele>130.5</ele><time>2026-04-08T05:54:39.999Z</time></trkpt><trkpt lat="51.167625440685136" lon="17.245751619377526"><ele>130.75</ele><time>2026-04-08T05:54:40.999Z</time></trkpt><trkpt lat="51.16775052239057" lon="17.245644875398597"><ele>131.0</ele><time>2026-04-08T05:54:41.999Z</time></trkpt><trkpt lat="51.167890106851274" lon="17.245553851447294"><ele>131.0</ele><time>2026-04-08T05:54:42.999Z</time></trkpt><trkpt lat="51.168039724233275" lon="17.245442066757185"><ele>131.0</ele><time>2026-04-08T05:54:43.999Z</time></trkpt><trkpt lat="51.168107138900545" lon="17.245391848305832"><ele>131.0</ele><time>2026-04-08T05:54:44.999Z</time></trkpt><trkpt lat="51.168236258738176" lon="17.245295664527635"><ele>131.0</ele><time>2026-04-08T05:54:45.999Z</time></trkpt><trkpt lat="51.16836933384312" lon="17.245196589582083"><ele>131.25</ele><time>2026-04-08T05:54:46.999Z</time></trkpt><trkpt lat="51.168498377038155" lon="17.245100630403506"><ele>131.5</ele><time>2026-04-08T05:54:47.999Z</time></trkpt><trkpt lat="51.16861663051317" lon="17.244986170360495"><ele>131.75</ele><time>2026-04-08T05:54:48.999Z</time></trkpt><trkpt lat="51.16874308790703" lon="17.24490786887189"><ele>132.0</ele><time>2026-04-08T05:54:49.999Z</time></trkpt><trkpt lat="51.168873078656254" lon="17.244818426100558"><ele>133.66666666666666</ele><time>2026-04-08T05:54:50.999Z</time></trkpt><trkpt lat="51.16900248428957" lon="17.244718925328442"><ele>135.33333333333331</ele><time>2026-04-08T05:54:51.999Z</time></trkpt><trkpt lat="51.169135949125625" lon="17.244660589830236"><ele>137.0</ele><time>2026-04-08T05:54:52.999Z</time></trkpt><trkpt lat="51.16929223729629" lon="17.244561073631846"><ele>137.0</ele><time>2026-04-08T05:54:53.999Z</time></trkpt><trkpt lat="51.169412808247365" lon="17.244483266191015"><ele>137.0</ele><time>2026-04-08T05:54:54.999Z</time></trkpt><trkpt lat="51.169536430683294" lon="17.24440099152739"><ele>137.0</ele><time>2026-04-08T05:54:55.999Z</time></trkpt><trkpt lat="51.1696615012516" lon="17.244313719197987"><ele>137.0</ele><time>2026-04-08T05:54:56.999Z</time></trkpt><trkpt lat="51.169790182424045" lon="17.244215441886798"><ele>137.0</ele><time>2026-04-08T05:54:57.999Z</time></trkpt><trkpt lat="51.16992533536416" lon="17.244099884886268"><ele>137.0</ele><time>2026-04-08T05:54:58.999Z</time></trkpt><trkpt lat="51.17004265027396" lon="17.243973538059407"><ele>137.0</ele><time>2026-04-08T05:54:59.999Z</time></trkpt><trkpt lat="51.170140279235035" lon="17.243865884181847"><ele>137.0</ele><time>2026-04-08T05:55:00.999Z</time></trkpt><trkpt lat="51.17025546246598" lon="17.243782494058287"><ele>136.75</ele><time>2026-04-08T05:55:01.999Z</time></trkpt><trkpt lat="51.17035978057649" lon="17.24367692495298"><ele>136.5</ele><time>2026-04-08T05:55:02.999Z</time></trkpt><trkpt lat="51.1704728586935" lon="17.24355306668165"><ele>136.25</ele><time>2026-04-08T05:55:03.999Z</time></trkpt><trkpt lat="51.1705513964638" lon="17.243465278196332"><ele>136.0</ele><time>2026-04-08T05:55:04.999Z</time></trkpt><trkpt lat="51.170627595998155" lon="17.243664086418722"><ele>135.75</ele><time>2026-04-08T05:55:08.999Z</time></trkpt><trkpt lat="51.17077067970594" lon="17.243728762603332"><ele>135.5</ele><time>2026-04-08T05:55:10.999Z</time></trkpt><trkpt lat="51.17087019790506" lon="17.24376570082696"><ele>135.25</ele><time>2026-04-08T05:55:11.999Z</time></trkpt><trkpt lat="51.17097870592914" lon="17.24381823688439"><ele>135.0</ele><time>2026-04-08T05:55:12.999Z</time></trkpt><trkpt lat="51.17109659812243" lon="17.243890043861892"><ele>135.0</ele><time>2026-04-08T05:55:13.999Z</time></trkpt><trkpt lat="51.17122357883793" lon="17.243954417443174"><ele>135.0</ele><time>2026-04-08T05:55:14.999Z</time></trkpt><trkpt lat="51.17136646837658" lon="17.244021647318338"><ele>135.0</ele><time>2026-04-08T05:55:15.999Z</time></trkpt><trkpt lat="51.171496330359524" lon="17.244103069812702"><ele>135.0</ele><time>2026-04-08T05:55:16.999Z</time></trkpt><trkpt lat="51.17166419780317" lon="17.244175104953143"><ele>136.0</ele><time>2026-04-08T05:55:17.999Z</time></trkpt><trkpt lat="51.17179960596184" lon="17.244264520982103"><ele>137.0</ele><time>2026-04-08T05:55:18.999Z</time></trkpt><trkpt lat="51.17193325519915" lon="17.244309399832908"><ele>138.0</ele><time>2026-04-08T05:55:19.999Z</time></trkpt><trkpt lat="51.17207516605547" lon="17.244354542485056"><ele>139.0</ele><time>2026-04-08T05:55:20.999Z</time></trkpt><trkpt lat="51.17221235262916" lon="17.24441024487177"><ele>139.0</ele><time>2026-04-08T05:55:21.999Z</time></trkpt><trkpt lat="51.172349245429196" lon="17.24448175872342"><ele>139.0</ele><time>2026-04-08T05:55:22.999Z</time></trkpt><trkpt lat="51.17248642651598" lon="17.244555974392107"><ele>139.0</ele><time>2026-04-08T05:55:23.999Z</time></trkpt><trkpt lat="51.17261152510707" lon="17.244628079335943"><ele>139.0</ele><time>2026-04-08T05:55:24.999Z</time></trkpt><trkpt lat="51.17273925367161" lon="17.24469152905406"><ele>139.0</ele><time>2026-04-08T05:55:25.999Z</time></trkpt><trkpt lat="51.172864496219105" lon="17.2447541970948"><ele>139.0</ele><time>2026-04-08T05:55:26.999Z</time></trkpt><trkpt lat="51.17300021318691" lon="17.244830286081232"><ele>139.0</ele><time>2026-04-08T05:55:27.999Z</time></trkpt><trkpt lat="51.173131886585885" lon="17.244900345996285"><ele>139.0</ele><time>2026-04-08T05:55:28.999Z</time></trkpt><trkpt lat="51.173272036814275" lon="17.244960062034618"><ele>139.0</ele><time>2026-04-08T05:55:29.999Z</time></trkpt><trkpt lat="51.173399397178294" lon="17.245022119337673"><ele>139.0</ele><time>2026-04-08T05:55:30.999Z</time></trkpt><trkpt lat="51.173544404027666" lon="17.245092607039226"><ele>139.0</ele><time>2026-04-08T05:55:31.999Z</time></trkpt><trkpt lat="51.17366908184655" lon="17.24514999391865"><ele>139.0</ele><time>2026-04-08T05:55:32.999Z</time></trkpt><trkpt lat="51.17379775778893" lon="17.24521558245423"><ele>139.0</ele><time>2026-04-08T05:55:33.999Z</time></trkpt><trkpt lat="51.173928592573944" lon="17.24528193264994"><ele>139.0</ele><time>2026-04-08T05:55:34.999Z</time></trkpt><trkpt lat="51.17405299612432" lon="17.245343698379102"><ele>139.0</ele><time>2026-04-08T05:55:35.999Z</time></trkpt><trkpt lat="51.1741762772564" lon="17.245405633194043"><ele>139.0</ele><time>2026-04-08T05:55:36.999Z</time></trkpt><trkpt lat="51.174302057560006" lon="17.245453574060136"><ele>138.75</ele><time>2026-04-08T05:55:37.999Z</time></trkpt><trkpt lat="51.17442379449823" lon="17.245502513289768"><ele>138.5</ele><time>2026-04-08T05:55:38.999Z</time></trkpt><trkpt lat="51.17452686154408" lon="17.24555986038009"><ele>138.25</ele><time>2026-04-08T05:55:39.999Z</time></trkpt><trkpt lat="51.17464519191405" lon="17.245611814784418"><ele>138.0</ele><time>2026-04-08T05:55:40.999Z</time></trkpt><trkpt lat="51.17477658822973" lon="17.245684975486313"><ele>137.75</ele><time>2026-04-08T05:55:41.999Z</time></trkpt><trkpt lat="51.17490844691437" lon="17.24574201452935"><ele>137.5</ele><time>2026-04-08T05:55:42.999Z</time></trkpt><trkpt lat="51.17504464113346" lon="17.245803876770182"><ele>137.25</ele><time>2026-04-08T05:55:43.999Z</time></trkpt><trkpt lat="51.17516160076863" lon="17.245854672674902"><ele>137.0</ele><time>2026-04-08T05:55:44.999Z</time></trkpt><trkpt lat="51.175236611643065" lon="17.245896974840292"><ele>137.0</ele><time>2026-04-08T05:55:45.999Z</time></trkpt><trkpt lat="51.175358619295984" lon="17.245840278237907"><ele>137.0</ele><time>2026-04-08T05:55:47.999Z</time></trkpt><trkpt lat="51.1754278139384" lon="17.245756971495698"><ele>137.0</ele><time>2026-04-08T05:55:48.999Z</time></trkpt><trkpt lat="51.17549943689887" lon="17.24566263218582"><ele>137.0</ele><time>2026-04-08T05:55:50Z</time></trkpt><trkpt lat="51.175587486461076" lon="17.245566191475845"><ele>137.0</ele><time>2026-04-08T05:55:51Z</time></trkpt><trkpt lat="51.175683130624876" lon="17.24546230191243"><ele>136.4</ele><time>2026-04-08T05:55:52Z</time></trkpt><trkpt lat="51.17580375375354" lon="17.245359658521657"><ele>135.79999999999998</ele><time>2026-04-08T05:55:53Z</time></trkpt><trkpt lat="51.17590817160935" lon="17.24527958459816"><ele>135.2</ele><time>2026-04-08T05:55:54Z</time></trkpt><trkpt lat="51.17599361615023" lon="17.245206698016595"><ele>134.6</ele><time>2026-04-08T05:55:55Z</time></trkpt><trkpt lat="51.17607169201788" lon="17.24511537765079"><ele>134.0</ele><time>2026-04-08T05:55:56Z</time></trkpt><trkpt lat="51.176163630172745" lon="17.245013777082573"><ele>134.0</ele><time>2026-04-08T05:55:57Z</time></trkpt><trkpt lat="51.17627654236201" lon="17.244915845590306"><ele>134.0</ele><time>2026-04-08T05:55:58Z</time></trkpt><trkpt lat="51.17640159193321" lon="17.244816877761124"><ele>134.0</ele><time>2026-04-08T05:55:59Z</time></trkpt><trkpt lat="51.1765031856495" lon="17.244698727847034"><ele>134.0</ele><time>2026-04-08T05:56:00Z</time></trkpt><trkpt lat="51.17659959518694" lon="17.244572308686415"><ele>133.5</ele><time>2026-04-08T05:56:01Z</time></trkpt><trkpt lat="51.17671843181687" lon="17.244452524480575"><ele>133.0</ele><time>2026-04-08T05:56:02Z</time></trkpt><trkpt lat="51.17682211858032" lon="17.244346514036145"><ele>132.5</ele><time>2026-04-08T05:56:03Z</time></trkpt><trkpt lat="51.17692282274166" lon="17.244256586031995"><ele>132.0</ele><time>2026-04-08T05:56:04Z</time></trkpt><trkpt lat="51.176975642650056" lon="17.244175631150707"><ele>132.0</ele><time>2026-04-08T05:56:05Z</time></trkpt><trkpt lat="51.17702564858458" lon="17.244007488887284"><ele>132.0</ele><time>2026-04-08T05:56:07Z</time></trkpt><trkpt lat="51.17703832369938" lon="17.243865607157364"><ele>132.0</ele><time>2026-04-08T05:56:08Z</time></trkpt><trkpt lat="51.17702942508567" lon="17.24370455468888"><ele>132.0</ele><time>2026-04-08T05:56:09Z</time></trkpt><trkpt lat="51.177048940185394" lon="17.24351297437634"><ele>132.0</ele><time>2026-04-08T05:56:10Z</time></trkpt><trkpt lat="51.17704928109194" lon="17.243334513909844"><ele>132.25</ele><time>2026-04-08T05:56:11Z</time></trkpt><trkpt lat="51.177058068235425" lon="17.243144892547217"><ele>132.5</ele><time>2026-04-08T05:56:12Z</time></trkpt><trkpt lat="51.17702798603132" lon="17.242967769938076"><ele>132.75</ele><time>2026-04-08T05:56:13Z</time></trkpt><trkpt lat="51.176968110529636" lon="17.242797668437724"><ele>133.0</ele><time>2026-04-08T05:56:14Z</time></trkpt><trkpt lat="51.17691549928032" lon="17.24263249280598"><ele>134.20000000000002</ele><time>2026-04-08T05:56:15Z</time></trkpt><trkpt lat="51.176854343059354" lon="17.24246692794129"><ele>135.4</ele><time>2026-04-08T05:56:16Z</time></trkpt><trkpt lat="51.17680936139714" lon="17.242332808984767"><ele>136.60000000000002</ele><time>2026-04-08T05:56:17Z</time></trkpt><trkpt lat="51.17678898515859" lon="17.242208913479484"><ele>137.8</ele><time>2026-04-08T05:56:18Z</time></trkpt><trkpt lat="51.176777818552296" lon="17.242017523323184"><ele>139.0</ele><time>2026-04-08T05:56:20Z</time></trkpt><trkpt lat="51.17686180374078" lon="17.24188463153776"><ele>139.8</ele><time>2026-04-08T05:56:22Z</time></trkpt><trkpt lat="51.17693588896877" lon="17.241896294722693"><ele>140.60000000000002</ele><time>2026-04-08T05:56:23Z</time></trkpt><trkpt lat="51.17700105916611" lon="17.241937953624767"><ele>141.4</ele><time>2026-04-08T05:56:24Z</time></trkpt><trkpt lat="51.17709568176782" lon="17.241979578514805"><ele>142.20000000000002</ele><time>2026-04-08T05:56:25Z</time></trkpt><trkpt lat="51.177194279915476" lon="17.24201613727553"><ele>143.0</ele><time>2026-04-08T05:56:26Z</time></trkpt><trkpt lat="51.177304298127346" lon="17.24205136265746"><ele>144.75</ele><time>2026-04-08T05:56:27Z</time></trkpt><trkpt lat="51.17742022719554" lon="17.24208087365009"><ele>146.5</ele><time>2026-04-08T05:56:28Z</time></trkpt><trkpt lat="51.177543046981256" lon="17.24211019779851"><ele>148.25</ele><time>2026-04-08T05:56:29Z</time></trkpt><trkpt lat="51.17766394698472" lon="17.242120211476273"><ele>150.0</ele><time>2026-04-08T05:56:30Z</time></trkpt><trkpt lat="51.177778679019724" lon="17.242148474799947"><ele>150.0</ele><time>2026-04-08T05:56:31Z</time></trkpt><trkpt lat="51.17789218123038" lon="17.242192979628033"><ele>150.0</ele><time>2026-04-08T05:56:32Z</time></trkpt><trkpt lat="51.178001154245194" lon="17.242245358759615"><ele>150.0</ele><time>2026-04-08T05:56:33Z</time></trkpt><trkpt lat="51.178102833569454" lon="17.242274173597785"><ele>150.0</ele><time>2026-04-08T05:56:34Z</time></trkpt><trkpt lat="51.17819384290461" lon="17.24228841499016"><ele>150.0</ele><time>2026-04-08T05:56:35Z</time></trkpt><trkpt lat="51.17827474571551" lon="17.242315222505074"><ele>149.4</ele><time>2026-04-08T05:56:36Z</time></trkpt><trkpt lat="51.17833904024451" lon="17.242323435242326"><ele>148.8</ele><time>2026-04-08T05:56:37Z</time></trkpt><trkpt lat="51.178434183231914" lon="17.242290398950857"><ele>148.2</ele><time>2026-04-08T05:56:39Z</time></trkpt><trkpt lat="51.178482750598434" lon="17.242442974548855"><ele>147.6</ele><time>2026-04-08T05:56:41Z</time></trkpt><trkpt lat="51.17850171916092" lon="17.242567393832683"><ele>147.0</ele><time>2026-04-08T05:56:42Z</time></trkpt><trkpt lat="51.17852628390199" lon="17.242722893681023"><ele>147.0</ele><time>2026-04-08T05:56:43Z</time></trkpt><trkpt lat="51.178557261321316" lon="17.242878801463704"><ele>147.0</ele><time>2026-04-08T05:56:44Z</time></trkpt><trkpt lat="51.178593402833734" lon="17.243038710576215"><ele>147.0</ele><time>2026-04-08T05:56:44.999Z</time></trkpt><trkpt lat="51.17864524867732" lon="17.24319550882827"><ele>147.0</ele><time>2026-04-08T05:56:45.999Z</time></trkpt><trkpt lat="51.178701165681424" lon="17.243330575858767"><ele>147.0</ele><time>2026-04-08T05:56:46.999Z</time></trkpt><trkpt lat="51.17877752223947" lon="17.24346008636832"><ele>145.6</ele><time>2026-04-08T05:56:47.999Z</time></trkpt><trkpt lat="51.17883809264924" lon="17.243596961004002"><ele>144.2</ele><time>2026-04-08T05:56:48.999Z</time></trkpt><trkpt lat="51.178896391816636" lon="17.24373412272434"><ele>142.8</ele><time>2026-04-08T05:56:49.999Z</time></trkpt><trkpt lat="51.17896025592066" lon="17.243869649954974"><ele>141.4</ele><time>2026-04-08T05:56:50.999Z</time></trkpt><trkpt lat="51.17901842320361" lon="17.243996285048357"><ele>140.0</ele><time>2026-04-08T05:56:51.999Z</time></trkpt><trkpt lat="51.1790913380495" lon="17.244120510699723"><ele>140.0</ele><time>2026-04-08T05:56:52.999Z</time></trkpt><trkpt lat="51.179165540633555" lon="17.244276311762793"><ele>140.0</ele><time>2026-04-08T05:56:53.999Z</time></trkpt><trkpt lat="51.17922563690321" lon="17.244389785993178"><ele>140.0</ele><time>2026-04-08T05:56:54.999Z</time></trkpt><trkpt lat="51.179292353153926" lon="17.24452460909577"><ele>140.0</ele><time>2026-04-08T05:56:55.999Z</time></trkpt><trkpt lat="51.17936879061581" lon="17.244665514160634"><ele>140.0</ele><time>2026-04-08T05:56:56.999Z</time></trkpt><trkpt lat="51.17942656485249" lon="17.244784118309866"><ele>140.0</ele><time>2026-04-08T05:56:57.999Z</time></trkpt><trkpt lat="51.17945804162582" lon="17.244897412501945"><ele>140.0</ele><time>2026-04-08T05:56:58.999Z</time></trkpt><trkpt lat="51.179492589178736" lon="17.244994844382628"><ele>140.0</ele><time>2026-04-08T05:56:59.999Z</time></trkpt><trkpt lat="51.17956158883063" lon="17.244956045946083"><ele>140.0</ele><time>2026-04-08T05:57:02.999Z</time></trkpt><trkpt lat="51.179613879135424" lon="17.24473339249612"><ele>140.0</ele><time>2026-04-08T05:57:04.999Z</time></trkpt><trkpt lat="51.17965510904156" lon="17.2445864731846"><ele>140.0</ele><time>2026-04-08T05:57:05.999Z</time></trkpt><trkpt lat="51.17970502396328" lon="17.244436245075104"><ele>140.0</ele><time>2026-04-08T05:57:06.999Z</time></trkpt><trkpt lat="51.1797354429716" lon="17.244283330410266"><ele>140.0</ele><time>2026-04-08T05:57:07.999Z</time></trkpt><trkpt lat="51.17976563699752" lon="17.24411493682768"><ele>140.0</ele><time>2026-04-08T05:57:08.999Z</time></trkpt><trkpt lat="51.179796948895685" lon="17.243991738687225"><ele>140.0</ele><time>2026-04-08T05:57:09.999Z</time></trkpt><trkpt lat="51.1798177813" lon="17.243780022960944"><ele>140.25</ele><time>2026-04-08T05:57:10.999Z</time></trkpt><trkpt lat="51.179811901500244" lon="17.24355220464291"><ele>140.5</ele><time>2026-04-08T05:57:11.999Z</time></trkpt><trkpt lat="51.1798296147928" lon="17.243380563529282"><ele>140.75</ele><time>2026-04-08T05:57:12.999Z</time></trkpt><trkpt lat="51.17985368382773" lon="17.243192133752554"><ele>141.0</ele><time>2026-04-08T05:57:13.999Z</time></trkpt><trkpt lat="51.17988061095282" lon="17.242984290288472"><ele>141.25</ele><time>2026-04-08T05:57:14.999Z</time></trkpt><trkpt lat="51.17991094403471" lon="17.242773754415662"><ele>141.5</ele><time>2026-04-08T05:57:15.999Z</time></trkpt><trkpt lat="51.17992826804243" lon="17.242572821900527"><ele>141.75</ele><time>2026-04-08T05:57:16.999Z</time></trkpt><trkpt lat="51.17995901693346" lon="17.242384620381074"><ele>142.0</ele><time>2026-04-08T05:57:17.999Z</time></trkpt><trkpt lat="51.179989551279824" lon="17.242193615641618"><ele>142.0</ele><time>2026-04-08T05:57:18.999Z</time></trkpt><trkpt lat="51.18001037535468" lon="17.24198857283357"><ele>142.0</ele><time>2026-04-08T05:57:19.999Z</time></trkpt><trkpt lat="51.18002311367695" lon="17.241785997740024"><ele>142.0</ele><time>2026-04-08T05:57:20.999Z</time></trkpt><trkpt lat="51.18004072273891" lon="17.241583101459238"><ele>142.0</ele><time>2026-04-08T05:57:21.999Z</time></trkpt><trkpt lat="51.18007213512265" lon="17.24139275619197"><ele>141.79999999999998</ele><time>2026-04-08T05:57:22.999Z</time></trkpt><trkpt lat="51.180083634486216" lon="17.24122509859039"><ele>141.6</ele><time>2026-04-08T05:57:23.999Z</time></trkpt><trkpt lat="51.180098324512386" lon="17.24106633923154"><ele>141.39999999999998</ele><time>2026-04-08T05:57:24.999Z</time></trkpt><trkpt lat="51.18010833824708" lon="17.2409076489622"><ele>141.2</ele><time>2026-04-08T05:57:25.999Z</time></trkpt><trkpt lat="51.18012139285031" lon="17.24075377669062"><ele>141.0</ele><time>2026-04-08T05:57:26.999Z</time></trkpt><trkpt lat="51.18016071335725" lon="17.240583602738702"><ele>141.0</ele><time>2026-04-08T05:57:27.999Z</time></trkpt><trkpt lat="51.1801645057483" lon="17.240396025846614"><ele>141.0</ele><time>2026-04-08T05:57:28.999Z</time></trkpt><trkpt lat="51.18018161535634" lon="17.240211448388113"><ele>141.0</ele><time>2026-04-08T05:57:29.999Z</time></trkpt><trkpt lat="51.180211019175815" lon="17.240052238920462"><ele>141.0</ele><time>2026-04-08T05:57:30.999Z</time></trkpt><trkpt lat="51.180226995195405" lon="17.239917853502476"><ele>141.0</ele><time>2026-04-08T05:57:31.999Z</time></trkpt><trkpt lat="51.18024548738488" lon="17.23980594090729"><ele>141.0</ele><time>2026-04-08T05:57:32.999Z</time></trkpt><trkpt lat="51.180266964366126" lon="17.239711169253027"><ele>141.0</ele><time>2026-04-08T05:57:33.999Z</time></trkpt><trkpt lat="51.180300383918606" lon="17.23960078869523"><ele>141.0</ele><time>2026-04-08T05:57:34.999Z</time></trkpt><trkpt lat="51.180345548731545" lon="17.239468371845543"><ele>141.0</ele><time>2026-04-08T05:57:35.999Z</time></trkpt><trkpt lat="51.18038238203487" lon="17.23931741248559"><ele>141.0</ele><time>2026-04-08T05:57:36.999Z</time></trkpt><trkpt lat="51.18040904353299" lon="17.239162677016807"><ele>141.0</ele><time>2026-04-08T05:57:37.999Z</time></trkpt><trkpt lat="51.18042908558838" lon="17.239026056702645"><ele>140.6</ele><time>2026-04-08T05:57:38.999Z</time></trkpt><trkpt lat="51.18045748833632" lon="17.238929516405822"><ele>140.2</ele><time>2026-04-08T05:57:39.999Z</time></trkpt><trkpt lat="51.18054794772641" lon="17.23882555820749"><ele>139.8</ele><time>2026-04-08T05:57:41.999Z</time></trkpt><trkpt lat="51.18065675260215" lon="17.238741937480537"><ele>139.4</ele><time>2026-04-08T05:57:43.999Z</time></trkpt><trkpt lat="51.18070212278724" lon="17.238644859294215"><ele>139.0</ele><time>2026-04-08T05:57:44.999Z</time></trkpt><trkpt lat="51.180738327021025" lon="17.23852028504964"><ele>138.8</ele><time>2026-04-08T05:57:45.999Z</time></trkpt><trkpt lat="51.180770800219534" lon="17.23839019779555"><ele>138.60000000000002</ele><time>2026-04-08T05:57:46.999Z</time></trkpt><trkpt lat="51.18080719346728" lon="17.238241176597747"><ele>138.4</ele><time>2026-04-08T05:57:47.999Z</time></trkpt><trkpt lat="51.180849903418185" lon="17.2380705216908"><ele>138.20000000000002</ele><time>2026-04-08T05:57:48.999Z</time></trkpt><trkpt lat="51.18089023895695" lon="17.237896964049167"><ele>138.0</ele><time>2026-04-08T05:57:49.999Z</time></trkpt><trkpt lat="51.180920994960715" lon="17.237718623849453"><ele>137.8</ele><time>2026-04-08T05:57:50.999Z</time></trkpt><trkpt lat="51.1809785137448" lon="17.23756571915996"><ele>137.60000000000002</ele><time>2026-04-08T05:57:51.999Z</time></trkpt><trkpt lat="51.181046757901996" lon="17.23742125551957"><ele>137.39999999999998</ele><time>2026-04-08T05:57:52.999Z</time></trkpt><trkpt lat="51.18111289668553" lon="17.237279544568043"><ele>137.2</ele><time>2026-04-08T05:57:53.999Z</time></trkpt><trkpt lat="51.181174140284554" lon="17.237137349483525"><ele>137.0</ele><time>2026-04-08T05:57:54.999Z</time></trkpt><trkpt lat="51.181231995316146" lon="17.237020886501416"><ele>137.6</ele><time>2026-04-08T05:57:56Z</time></trkpt><trkpt lat="51.181272178611806" lon="17.236895220182944"><ele>138.2</ele><time>2026-04-08T05:57:57Z</time></trkpt><trkpt lat="51.18129619429737" lon="17.236752205954907"><ele>138.8</ele><time>2026-04-08T05:57:58Z</time></trkpt><trkpt lat="51.18129808509888" lon="17.23660032885033"><ele>139.4</ele><time>2026-04-08T05:57:59Z</time></trkpt><trkpt lat="51.181304906596694" lon="17.236411516804406"><ele>140.0</ele><time>2026-04-08T05:58:00Z</time></trkpt><trkpt lat="51.18131558616086" lon="17.23625071324715"><ele>140.0</ele><time>2026-04-08T05:58:01Z</time></trkpt><trkpt lat="51.181333559374714" lon="17.236102496593546"><ele>140.0</ele><time>2026-04-08T05:58:02Z</time></trkpt><trkpt lat="51.18135230383461" lon="17.23593307598223"><ele>140.0</ele><time>2026-04-08T05:58:03Z</time></trkpt><trkpt lat="51.18136671571389" lon="17.235754911427975"><ele>140.0</ele><time>2026-04-08T05:58:04Z</time></trkpt><trkpt lat="51.18139313050578" lon="17.235577764881707"><ele>140.0</ele><time>2026-04-08T05:58:05Z</time></trkpt><trkpt lat="51.181414622539" lon="17.235400764335786"><ele>140.0</ele><time>2026-04-08T05:58:06Z</time></trkpt><trkpt lat="51.181431075658836" lon="17.235237335892894"><ele>140.0</ele><time>2026-04-08T05:58:07Z</time></trkpt><trkpt lat="51.181445391332275" lon="17.23508991020819"><ele>140.0</ele><time>2026-04-08T05:58:08Z</time></trkpt><trkpt lat="51.18147410198327" lon="17.23496057283666"><ele>140.0</ele><time>2026-04-08T05:58:09Z</time></trkpt><trkpt lat="51.18147846429735" lon="17.23484147512162"><ele>140.0</ele><time>2026-04-08T05:58:10Z</time></trkpt><trkpt lat="51.1815272266867" lon="17.234707251032287"><ele>140.0</ele><time>2026-04-08T05:58:12Z</time></trkpt><trkpt lat="51.18162687865044" lon="17.23464323997137"><ele>140.0</ele><time>2026-04-08T05:58:14Z</time></trkpt><trkpt lat="51.18170508302647" lon="17.234673752682177"><ele>140.0</ele><time>2026-04-08T05:58:15Z</time></trkpt><trkpt lat="51.18180832282132" lon="17.234712987794516"><ele>140.0</ele><time>2026-04-08T05:58:16Z</time></trkpt><trkpt lat="51.18190801183824" lon="17.234744925927107"><ele>140.0</ele><time>2026-04-08T05:58:17Z</time></trkpt><trkpt lat="51.18200995012724" lon="17.23479196516482"><ele>139.6</ele><time>2026-04-08T05:58:19Z</time></trkpt><trkpt lat="51.18207838143387" lon="17.234808683954252"><ele>139.2</ele><time>2026-04-08T05:58:20Z</time></trkpt><trkpt lat="51.18218058237976" lon="17.23482692573904"><ele>138.8</ele><time>2026-04-08T05:58:21Z</time></trkpt><trkpt lat="51.18229608677746" lon="17.234863981566537"><ele>138.4</ele><time>2026-04-08T05:58:22Z</time></trkpt><trkpt lat="51.18241575720536" lon="17.234894139500962"><ele>138.0</ele><time>2026-04-08T05:58:23Z</time></trkpt><trkpt lat="51.18254830843657" lon="17.234970103629323"><ele>135.75</ele><time>2026-04-08T05:58:24Z</time></trkpt><trkpt lat="51.18269332602938" lon="17.2350167439876"><ele>133.5</ele><time>2026-04-08T05:58:25Z</time></trkpt><trkpt lat="51.18283361444107" lon="17.23503456206403"><ele>131.25</ele><time>2026-04-08T05:58:26Z</time></trkpt><trkpt lat="51.18297599082913" lon="17.23507794721145"><ele>129.0</ele><time>2026-04-08T05:58:27Z</time></trkpt><trkpt lat="51.183125737258806" lon="17.235127441522497"><ele>129.0</ele><time>2026-04-08T05:58:28Z</time></trkpt><trkpt lat="51.18327944307091" lon="17.235168091536455"><ele>129.0</ele><time>2026-04-08T05:58:29Z</time></trkpt><trkpt lat="51.18343182262189" lon="17.235219415770167"><ele>129.0</ele><time>2026-04-08T05:58:30Z</time></trkpt><trkpt lat="51.18358233231737" lon="17.23526007610002"><ele>129.0</ele><time>2026-04-08T05:58:31Z</time></trkpt><trkpt lat="51.18371515892184" lon="17.23531579935991"><ele>129.0</ele><time>2026-04-08T05:58:32Z</time></trkpt><trkpt lat="51.18386081866178" lon="17.23535189307024"><ele>129.0</ele><time>2026-04-08T05:58:33Z</time></trkpt><trkpt lat="51.18399981673211" lon="17.23538065734417"><ele>129.0</ele><time>2026-04-08T05:58:34Z</time></trkpt><trkpt lat="51.184137152824114" lon="17.235432684601065"><ele>129.25</ele><time>2026-04-08T05:58:35Z</time></trkpt><trkpt lat="51.18427603500574" lon="17.235477315472455"><ele>129.5</ele><time>2026-04-08T05:58:36Z</time></trkpt><trkpt lat="51.18442782222818" lon="17.235494927985023"><ele>129.75</ele><time>2026-04-08T05:58:37Z</time></trkpt><trkpt lat="51.18457883132437" lon="17.23554232214473"><ele>130.0</ele><time>2026-04-08T05:58:38Z</time></trkpt><trkpt lat="51.18472807055251" lon="17.235584613829264"><ele>129.75</ele><time>2026-04-08T05:58:39Z</time></trkpt><trkpt lat="51.1848689903263" lon="17.235630545300978"><ele>129.5</ele><time>2026-04-08T05:58:40Z</time></trkpt><trkpt lat="51.18500295458016" lon="17.235682758321047"><ele>129.25</ele><time>2026-04-08T05:58:41Z</time></trkpt><trkpt lat="51.18515148617718" lon="17.23572365033531"><ele>129.0</ele><time>2026-04-08T05:58:42Z</time></trkpt><trkpt lat="51.18529920247342" lon="17.235792850783426"><ele>129.66666666666666</ele><time>2026-04-08T05:58:43Z</time></trkpt><trkpt lat="51.18544601736793" lon="17.235854399822195"><ele>130.33333333333331</ele><time>2026-04-08T05:58:44Z</time></trkpt><trkpt lat="51.185597931806285" lon="17.235917310567654"><ele>131.0</ele><time>2026-04-08T05:58:45Z</time></trkpt><trkpt lat="51.18574441473575" lon="17.235971265981092"><ele>131.0</ele><time>2026-04-08T05:58:46Z</time></trkpt><trkpt lat="51.185885904082014" lon="17.236015953973453"><ele>131.0</ele><time>2026-04-08T05:58:47Z</time></trkpt><trkpt lat="51.18602808007117" lon="17.236062392011526"><ele>131.0</ele><time>2026-04-08T05:58:48Z</time></trkpt><trkpt lat="51.18616286223148" lon="17.236119692628158"><ele>131.0</ele><time>2026-04-08T05:58:48.999Z</time></trkpt><trkpt lat="51.186303918845624" lon="17.236171996517886"><ele>131.0</ele><time>2026-04-08T05:58:49.999Z</time></trkpt><trkpt lat="51.18645408330601" lon="17.236197830460167"><ele>131.0</ele><time>2026-04-08T05:58:50.999Z</time></trkpt><trkpt lat="51.18660555278488" lon="17.236238164823455"><ele>131.0</ele><time>2026-04-08T05:58:51.999Z</time></trkpt><trkpt lat="51.18676188993705" lon="17.236285799553222"><ele>131.0</ele><time>2026-04-08T05:58:52.999Z</time></trkpt><trkpt lat="51.18691317538864" lon="17.23632431435731"><ele>131.0</ele><time>2026-04-08T05:58:53.999Z</time></trkpt><trkpt lat="51.18704488464212" lon="17.2363664922763"><ele>131.0</ele><time>2026-04-08T05:58:54.999Z</time></trkpt><trkpt lat="51.18716430821435" lon="17.23639595736516"><ele>131.0</ele><time>2026-04-08T05:58:55.999Z</time></trkpt><trkpt lat="51.187280886238035" lon="17.236415370142513"><ele>130.75</ele><time>2026-04-08T05:58:56.999Z</time></trkpt><trkpt lat="51.187398006055865" lon="17.23643248389385"><ele>130.5</ele><time>2026-04-08T05:58:57.999Z</time></trkpt><trkpt lat="51.187523908722035" lon="17.23644966954222"><ele>130.25</ele><time>2026-04-08T05:58:58.999Z</time></trkpt><trkpt lat="51.18764869372838" lon="17.23646271994214"><ele>130.0</ele><time>2026-04-08T05:58:59.999Z</time></trkpt><trkpt lat="51.18777855749447" lon="17.236462435769273"><ele>130.0</ele><time>2026-04-08T05:59:00.999Z</time></trkpt><trkpt lat="51.18791018497117" lon="17.236452378545717"><ele>130.0</ele><time>2026-04-08T05:59:01.999Z</time></trkpt><trkpt lat="51.188041571336825" lon="17.2364452777135"><ele>130.0</ele><time>2026-04-08T05:59:02.999Z</time></trkpt><trkpt lat="51.18817276193938" lon="17.23642875448776"><ele>130.0</ele><time>2026-04-08T05:59:03.999Z</time></trkpt><trkpt lat="51.18828988774409" lon="17.23641298505305"><ele>130.0</ele><time>2026-04-08T05:59:04.999Z</time></trkpt><trkpt lat="51.18839344498193" lon="17.23640650989072"><ele>130.0</ele><time>2026-04-08T05:59:05.999Z</time></trkpt><trkpt lat="51.18850557217919" lon="17.236406255506793"><ele>130.0</ele><time>2026-04-08T05:59:06.999Z</time></trkpt><trkpt lat="51.18862140147519" lon="17.23637320937961"><ele>130.0</ele><time>2026-04-08T05:59:07.999Z</time></trkpt><trkpt lat="51.18871818092834" lon="17.236372780256875"><ele>130.0</ele><time>2026-04-08T05:59:08.999Z</time></trkpt><trkpt lat="51.18881012805769" lon="17.236372352792767"><ele>130.0</ele><time>2026-04-08T05:59:09.999Z</time></trkpt><trkpt lat="51.18888686275972" lon="17.23637137255634"><ele>130.0</ele><time>2026-04-08T05:59:10.999Z</time></trkpt><trkpt lat="51.188985791172755" lon="17.236389465657044"><ele>130.0</ele><time>2026-04-08T05:59:12.999Z</time></trkpt><trkpt lat="51.18908486454537" lon="17.236411550651322"><ele>130.0</ele><time>2026-04-08T05:59:36.999Z</time></trkpt><trkpt lat="51.189211807723936" lon="17.23640835277663"><ele>130.0</ele><time>2026-04-08T05:59:38.999Z</time></trkpt><trkpt lat="51.189280230224306" lon="17.236409404618804"><ele>130.5</ele><time>2026-04-08T05:59:39.999Z</time></trkpt><trkpt lat="51.18933866847236" lon="17.236513787543856"><ele>131.0</ele><time>2026-04-08T05:59:40.999Z</time></trkpt><trkpt lat="51.18942044836003" lon="17.236571270083587"><ele>131.5</ele><time>2026-04-08T05:59:41.999Z</time></trkpt><trkpt lat="51.18948216731835" lon="17.236644857294745"><ele>132.0</ele><time>2026-04-08T05:59:42.999Z</time></trkpt><trkpt lat="51.18955892324834" lon="17.236690731750244"><ele>132.5</ele><time>2026-04-08T05:59:43.999Z</time></trkpt><trkpt lat="51.18965555323064" lon="17.23669783830486"><ele>133.0</ele><time>2026-04-08T05:59:44.999Z</time></trkpt><trkpt lat="51.18976707556196" lon="17.236687318659506"><ele>132.75</ele><time>2026-04-08T05:59:45.999Z</time></trkpt><trkpt lat="51.189877249197906" lon="17.23667278410333"><ele>132.5</ele><time>2026-04-08T05:59:46.999Z</time></trkpt><trkpt lat="51.18999017492536" lon="17.236634972900426"><ele>132.25</ele><time>2026-04-08T05:59:47.999Z</time></trkpt><trkpt lat="51.19010381131075" lon="17.236592481166774"><ele>132.0</ele><time>2026-04-08T05:59:48.999Z</time></trkpt><trkpt lat="51.19021275140092" lon="17.236543215122595"><ele>132.0</ele><time>2026-04-08T05:59:49.999Z</time></trkpt><trkpt lat="51.19031685275338" lon="17.236480753184573"><ele>132.0</ele><time>2026-04-08T05:59:50.999Z</time></trkpt><trkpt lat="51.190415424359045" lon="17.236426381429297"><ele>132.0</ele><time>2026-04-08T05:59:51.999Z</time></trkpt><trkpt lat="51.19051415602702" lon="17.236383882159643"><ele>132.0</ele><time>2026-04-08T05:59:52.999Z</time></trkpt><trkpt lat="51.19061612268591" lon="17.236369280977797"><ele>132.0</ele><time>2026-04-08T05:59:53.999Z</time></trkpt><trkpt lat="51.1907150686189" lon="17.236404718251844"><ele>132.0</ele><time>2026-04-08T05:59:54.999Z</time></trkpt><trkpt lat="51.19081698930202" lon="17.236425190545994"><ele>132.0</ele><time>2026-04-08T05:59:55.999Z</time></trkpt><trkpt lat="51.19091473976899" lon="17.23643360598348"><ele>132.0</ele><time>2026-04-08T05:59:56.999Z</time></trkpt><trkpt lat="51.19100294426974" lon="17.236468362643617"><ele>132.0</ele><time>2026-04-08T05:59:57.999Z</time></trkpt><trkpt lat="51.191071059053414" lon="17.236502529969016"><ele>132.0</ele><time>2026-04-08T05:59:58.999Z</time></trkpt><trkpt lat="51.191164320415275" lon="17.23654490364383"><ele>132.4</ele><time>2026-04-08T06:00:00.999Z</time></trkpt><trkpt lat="51.19125230506667" lon="17.236577680417184"><ele>132.79999999999998</ele><time>2026-04-08T06:00:30Z</time></trkpt><trkpt lat="51.1913697450135" lon="17.236582494439126"><ele>133.2</ele><time>2026-04-08T06:00:32Z</time></trkpt><trkpt lat="51.19144311144276" lon="17.23657755271394"><ele>133.6</ele><time>2026-04-08T06:00:33Z</time></trkpt><trkpt lat="51.19151899696178" lon="17.236571031372907"><ele>134.0</ele><time>2026-04-08T06:00:34Z</time></trkpt><trkpt lat="51.191640866774584" lon="17.236511071497855"><ele>134.0</ele><time>2026-04-08T06:00:36Z</time></trkpt><trkpt lat="51.19173352405993" lon="17.23636231854391"><ele>134.0</ele><time>2026-04-08T06:00:38Z</time></trkpt><trkpt lat="51.191686444434836" lon="17.23619560961968"><ele>134.0</ele><time>2026-04-08T06:00:39Z</time></trkpt><trkpt lat="51.19167604754084" lon="17.23607250059871"><ele>134.0</ele><time>2026-04-08T06:00:40Z</time></trkpt><trkpt lat="51.19166440644818" lon="17.235940498057577"><ele>134.0</ele><time>2026-04-08T06:00:41Z</time></trkpt><trkpt lat="51.191667183859366" lon="17.235822258312975"><ele>134.0</ele><time>2026-04-08T06:00:42Z</time></trkpt><trkpt lat="51.191679337057714" lon="17.235706897849745"><ele>134.0</ele><time>2026-04-08T06:00:44Z</time></trkpt><trkpt lat="51.19179665182107" lon="17.235686525137638"><ele>134.0</ele><time>2026-04-08T06:00:45Z</time></trkpt><trkpt lat="51.19186907218705" lon="17.235660319148796"><ele>134.0</ele><time>2026-04-08T06:00:46Z</time></trkpt><trkpt lat="51.191951617494404" lon="17.235616888619205"><ele>134.0</ele><time>2026-04-08T06:00:47Z</time></trkpt><trkpt lat="51.19204356597366" lon="17.235566809344736"><ele>133.6</ele><time>2026-04-08T06:00:48Z</time></trkpt><trkpt lat="51.19212889089396" lon="17.235517101050437"><ele>133.2</ele><time>2026-04-08T06:00:49Z</time></trkpt><trkpt lat="51.19221344657723" lon="17.235469537391015"><ele>132.79999999999998</ele><time>2026-04-08T06:00:50Z</time></trkpt><trkpt lat="51.19230593612011" lon="17.235416185464455"><ele>132.4</ele><time>2026-04-08T06:00:51Z</time></trkpt><trkpt lat="51.19239942109656" lon="17.23535882375"><ele>132.0</ele><time>2026-04-08T06:00:52Z</time></trkpt><trkpt lat="51.19248209244231" lon="17.235325639965605"><ele>132.0</ele><time>2026-04-08T06:00:53Z</time></trkpt><trkpt lat="51.19256133546025" lon="17.235271268061787"><ele>132.0</ele><time>2026-04-08T06:00:54Z</time></trkpt><trkpt lat="51.19264644122069" lon="17.235213698028307"><ele>132.0</ele><time>2026-04-08T06:00:55Z</time></trkpt><trkpt lat="51.19273272998904" lon="17.23514600614269"><ele>132.0</ele><time>2026-04-08T06:00:56Z</time></trkpt><trkpt lat="51.192808430608935" lon="17.235056067136714"><ele>132.0</ele><time>2026-04-08T06:00:57Z</time></trkpt><trkpt lat="51.19287414411097" lon="17.234944474561527"><ele>132.0</ele><time>2026-04-08T06:00:58Z</time></trkpt><trkpt lat="51.19294128750781" lon="17.23482792967742"><ele>132.0</ele><time>2026-04-08T06:00:59Z</time></trkpt><trkpt lat="51.1930105115142" lon="17.23471188129015"><ele>132.0</ele><time>2026-04-08T06:01:00Z</time></trkpt><trkpt lat="51.1930808910546" lon="17.234597120962192"><ele>132.0</ele><time>2026-04-08T06:01:01Z</time></trkpt><trkpt lat="51.193152345364666" lon="17.23447853963505"><ele>132.0</ele><time>2026-04-08T06:01:02Z</time></trkpt><trkpt lat="51.19322581226463" lon="17.2343564788392"><ele>132.0</ele><time>2026-04-08T06:01:02.999Z</time></trkpt><trkpt lat="51.19329865591566" lon="17.234233610247987"><ele>132.0</ele><time>2026-04-08T06:01:03.999Z</time></trkpt><trkpt lat="51.19337073413229" lon="17.234105966455676"><ele>132.0</ele><time>2026-04-08T06:01:04.999Z</time></trkpt><trkpt lat="51.19343527302066" lon="17.233999629933273"><ele>132.0</ele><time>2026-04-08T06:01:05.999Z</time></trkpt><trkpt lat="51.193492006154315" lon="17.233914653128505"><ele>132.0</ele><time>2026-04-08T06:01:06.999Z</time></trkpt><trkpt lat="51.19354899311773" lon="17.23382205262422"><ele>132.0</ele><time>2026-04-08T06:01:07.999Z</time></trkpt><trkpt lat="51.19361310170036" lon="17.233716338742948"><ele>132.0</ele><time>2026-04-08T06:01:08.999Z</time></trkpt><trkpt lat="51.193684008189145" lon="17.233600738044796"><ele>132.0</ele><time>2026-04-08T06:01:09.999Z</time></trkpt><trkpt lat="51.19376210865846" lon="17.2334777101397"><ele>132.0</ele><time>2026-04-08T06:01:10.999Z</time></trkpt><trkpt lat="51.19384717237526" lon="17.23336753262703"><ele>132.0</ele><time>2026-04-08T06:01:11.999Z</time></trkpt><trkpt lat="51.193936378374175" lon="17.23327781195093"><ele>132.0</ele><time>2026-04-08T06:01:12.999Z</time></trkpt><trkpt lat="51.19401555977587" lon="17.233191108195296"><ele>132.0</ele><time>2026-04-08T06:01:13.999Z</time></trkpt><trkpt lat="51.19409704291127" lon="17.233119603333574"><ele>132.0</ele><time>2026-04-08T06:01:14.999Z</time></trkpt><trkpt lat="51.19417753407288" lon="17.23303821185361"><ele>132.0</ele><time>2026-04-08T06:01:15.999Z</time></trkpt><trkpt lat="51.19426454096028" lon="17.23295113689447"><ele>132.0</ele><time>2026-04-08T06:01:16.999Z</time></trkpt><trkpt lat="51.19435958492577" lon="17.232865306371085"><ele>131.75</ele><time>2026-04-08T06:01:17.999Z</time></trkpt><trkpt lat="51.1944609805643" lon="17.232772197583504"><ele>131.5</ele><time>2026-04-08T06:01:18.999Z</time></trkpt><trkpt lat="51.19454349558143" lon="17.23269393999171"><ele>131.25</ele><time>2026-04-08T06:01:19.999Z</time></trkpt><trkpt lat="51.194642518878275" lon="17.23259087325124"><ele>131.0</ele><time>2026-04-08T06:01:20.999Z</time></trkpt><trkpt lat="51.1947422189453" lon="17.232459024312902"><ele>131.0</ele><time>2026-04-08T06:01:21.999Z</time></trkpt><trkpt lat="51.19484739012061" lon="17.23236368687426"><ele>131.0</ele><time>2026-04-08T06:01:22.999Z</time></trkpt><trkpt lat="51.194977245746" lon="17.232254544420282"><ele>131.0</ele><time>2026-04-08T06:01:23.999Z</time></trkpt><trkpt lat="51.19510499452928" lon="17.232131975097424"><ele>131.0</ele><time>2026-04-08T06:01:24.999Z</time></trkpt><trkpt lat="51.19524341203211" lon="17.232032245769307"><ele>131.0</ele><time>2026-04-08T06:01:25.999Z</time></trkpt><trkpt lat="51.19537118957506" lon="17.231902852707794"><ele>131.0</ele><time>2026-04-08T06:01:26.999Z</time></trkpt><trkpt lat="51.19550471455689" lon="17.23177311805118"><ele>131.0</ele><time>2026-04-08T06:01:27.999Z</time></trkpt><trkpt lat="51.19563772567937" lon="17.23166308678156"><ele>131.0</ele><time>2026-04-08T06:01:28.999Z</time></trkpt><trkpt lat="51.19575727793138" lon="17.231538151234442"><ele>131.0</ele><time>2026-04-08T06:01:29.999Z</time></trkpt><trkpt lat="51.19588586863403" lon="17.231416953715428"><ele>131.0</ele><time>2026-04-08T06:01:30.999Z</time></trkpt><trkpt lat="51.19602910913409" lon="17.231296592920625"><ele>131.0</ele><time>2026-04-08T06:01:31.999Z</time></trkpt><trkpt lat="51.196164213683126" lon="17.23116656986118"><ele>131.0</ele><time>2026-04-08T06:01:32.999Z</time></trkpt><trkpt lat="51.1962940006163" lon="17.231051796531386"><ele>131.0</ele><time>2026-04-08T06:01:33.999Z</time></trkpt><trkpt lat="51.196420747981584" lon="17.230892623212522"><ele>131.0</ele><time>2026-04-08T06:01:34.999Z</time></trkpt><trkpt lat="51.196538464912166" lon="17.230806723113115"><ele>131.0</ele><time>2026-04-08T06:01:35.999Z</time></trkpt><trkpt lat="51.1966576908718" lon="17.2306933476552"><ele>131.0</ele><time>2026-04-08T06:01:36.999Z</time></trkpt><trkpt lat="51.196787290099024" lon="17.23057358890804"><ele>131.0</ele><time>2026-04-08T06:01:37.999Z</time></trkpt><trkpt lat="51.19692751219441" lon="17.230449756034684"><ele>131.0</ele><time>2026-04-08T06:01:38.999Z</time></trkpt><trkpt lat="51.19708193381597" lon="17.23032387975306"><ele>131.0</ele><time>2026-04-08T06:01:39.999Z</time></trkpt><trkpt lat="51.19719012249698" lon="17.230234836936752"><ele>131.0</ele><time>2026-04-08T06:01:40.999Z</time></trkpt><trkpt lat="51.19729555109107" lon="17.230137443899057"><ele>131.0</ele><time>2026-04-08T06:01:41.999Z</time></trkpt><trkpt lat="51.19741430284411" lon="17.230036965336776"><ele>131.66666666666666</ele><time>2026-04-08T06:01:42.999Z</time></trkpt><trkpt lat="51.19756434331435" lon="17.229906373471017"><ele>132.33333333333334</ele><time>2026-04-08T06:01:43.999Z</time></trkpt><trkpt lat="51.19768491577992" lon="17.2297706498028"><ele>133.0</ele><time>2026-04-08T06:01:44.999Z</time></trkpt><trkpt lat="51.19782690857135" lon="17.2296547425234"><ele>133.0</ele><time>2026-04-08T06:01:45.999Z</time></trkpt><trkpt lat="51.19795662333481" lon="17.229535407856552"><ele>133.0</ele><time>2026-04-08T06:01:46.999Z</time></trkpt><trkpt lat="51.19809153256985" lon="17.22941635944409"><ele>133.0</ele><time>2026-04-08T06:01:47.999Z</time></trkpt><trkpt lat="51.19822167283342" lon="17.229298768217657"><ele>133.0</ele><time>2026-04-08T06:01:48.999Z</time></trkpt><trkpt lat="51.198360091254706" lon="17.22918217754812"><ele>133.0</ele><time>2026-04-08T06:01:49.999Z</time></trkpt><trkpt lat="51.198501394601955" lon="17.229066673703628"><ele>133.0</ele><time>2026-04-08T06:01:50.999Z</time></trkpt><trkpt lat="51.19864323702387" lon="17.228950617634645"><ele>133.0</ele><time>2026-04-08T06:01:51.999Z</time></trkpt><trkpt lat="51.19877044550307" lon="17.228831295185575"><ele>133.0</ele><time>2026-04-08T06:01:52.999Z</time></trkpt><trkpt lat="51.19891022194851" lon="17.22870033027046"><ele>133.0</ele><time>2026-04-08T06:01:53.999Z</time></trkpt><trkpt lat="51.1990527875878" lon="17.228564163040243"><ele>133.33333333333334</ele><time>2026-04-08T06:01:54.999Z</time></trkpt><trkpt lat="51.19919134752743" lon="17.228424431862507"><ele>133.66666666666666</ele><time>2026-04-08T06:01:55.999Z</time></trkpt><trkpt lat="51.1993354306226" lon="17.22828255379301"><ele>134.0</ele><time>2026-04-08T06:01:56.999Z</time></trkpt><trkpt lat="51.19945233215632" lon="17.22818139059308"><ele>134.0</ele><time>2026-04-08T06:01:57.999Z</time></trkpt><trkpt lat="51.19955593979873" lon="17.228111528075498"><ele>134.0</ele><time>2026-04-08T06:01:58.999Z</time></trkpt><trkpt lat="51.19968177585553" lon="17.227996204548433"><ele>134.0</ele><time>2026-04-08T06:01:59.999Z</time></trkpt><trkpt lat="51.19986476389998" lon="17.227809786567175"><ele>134.66666666666666</ele><time>2026-04-08T06:02:00.999Z</time></trkpt><trkpt lat="51.20000777150554" lon="17.227697639991444"><ele>135.33333333333334</ele><time>2026-04-08T06:02:01.999Z</time></trkpt><trkpt lat="51.200143876892085" lon="17.227540277229483"><ele>136.0</ele><time>2026-04-08T06:02:02.999Z</time></trkpt><trkpt lat="51.20028967784053" lon="17.22743419139854"><ele>136.0</ele><time>2026-04-08T06:02:03.999Z</time></trkpt><trkpt lat="51.200410594843554" lon="17.227318453464907"><ele>136.0</ele><time>2026-04-08T06:02:04.999Z</time></trkpt><trkpt lat="51.200541906975204" lon="17.22718500127363"><ele>136.0</ele><time>2026-04-08T06:02:05.999Z</time></trkpt><trkpt lat="51.20065854812631" lon="17.227014733140926"><ele>136.0</ele><time>2026-04-08T06:02:06.999Z</time></trkpt><trkpt lat="51.200779491690604" lon="17.226901165810315"><ele>136.0</ele><time>2026-04-08T06:02:08Z</time></trkpt><trkpt lat="51.20090244613062" lon="17.2267801443247"><ele>136.0</ele><time>2026-04-08T06:02:09Z</time></trkpt><trkpt lat="51.20102488871657" lon="17.226676900880626"><ele>136.0</ele><time>2026-04-08T06:02:10Z</time></trkpt><trkpt lat="51.20115676647866" lon="17.22658393185366"><ele>136.0</ele><time>2026-04-08T06:02:11Z</time></trkpt><trkpt lat="51.2012952129939" lon="17.226508730840344"><ele>136.0</ele><time>2026-04-08T06:02:12Z</time></trkpt><trkpt lat="51.20143859710731" lon="17.22645581131779"><ele>136.0</ele><time>2026-04-08T06:02:13Z</time></trkpt><trkpt lat="51.20156545132547" lon="17.226403283446388"><ele>136.0</ele><time>2026-04-08T06:02:14Z</time></trkpt><trkpt lat="51.20167480163791" lon="17.22650842236801"><ele>136.5</ele><time>2026-04-08T06:02:15Z</time></trkpt><trkpt lat="51.201782459729685" lon="17.226541058569428"><ele>137.0</ele><time>2026-04-08T06:02:16Z</time></trkpt><trkpt lat="51.20189059964123" lon="17.226554077324266"><ele>137.5</ele><time>2026-04-08T06:02:17Z</time></trkpt><trkpt lat="51.20201632477114" lon="17.226605194457314"><ele>138.0</ele><time>2026-04-08T06:02:18Z</time></trkpt><trkpt lat="51.202152689409836" lon="17.226644477736798"><ele>138.0</ele><time>2026-04-08T06:02:19Z</time></trkpt><trkpt lat="51.2022849987976" lon="17.22666662849001"><ele>138.0</ele><time>2026-04-08T06:02:20Z</time></trkpt><trkpt lat="51.202421553227786" lon="17.22672521855137"><ele>138.0</ele><time>2026-04-08T06:02:21Z</time></trkpt><trkpt lat="51.20253380002793" lon="17.226729472491886"><ele>138.0</ele><time>2026-04-08T06:02:22Z</time></trkpt><trkpt lat="51.20262985285528" lon="17.226755189418547"><ele>138.16666666666666</ele><time>2026-04-08T06:02:23Z</time></trkpt><trkpt lat="51.202716781374285" lon="17.226786012067212"><ele>138.33333333333334</ele><time>2026-04-08T06:02:24Z</time></trkpt><trkpt lat="51.202782703350145" lon="17.226802264266468"><ele>138.5</ele><time>2026-04-08T06:02:25Z</time></trkpt><trkpt lat="51.202917848087125" lon="17.226841611910764"><ele>138.66666666666669</ele><time>2026-04-08T06:02:27Z</time></trkpt><trkpt lat="51.202988746286245" lon="17.22686435877837"><ele>138.83333333333334</ele><time>2026-04-08T06:02:28Z</time></trkpt><trkpt lat="51.2030688957755" lon="17.2268814039052"><ele>139.0</ele><time>2026-04-08T06:02:30Z</time></trkpt><trkpt lat="51.203153930546335" lon="17.22690681598201"><ele>139.0</ele><time>2026-04-08T06:04:31Z</time></trkpt><trkpt lat="51.20323016616475" lon="17.22694364783221"><ele>139.0</ele><time>2026-04-08T06:04:33Z</time></trkpt><trkpt lat="51.203248419457765" lon="17.22674919882385"><ele>139.0</ele><time>2026-04-08T06:04:35Z</time></trkpt><trkpt lat="51.20315496049148" lon="17.22660011010866"><ele>139.0</ele><time>2026-04-08T06:04:37Z</time></trkpt><trkpt lat="51.20310429364044" lon="17.226481934859578"><ele>139.0</ele><time>2026-04-08T06:04:38Z</time></trkpt><trkpt lat="51.20305555814679" lon="17.22635612309401"><ele>138.6</ele><time>2026-04-08T06:04:39Z</time></trkpt><trkpt lat="51.203006405800366" lon="17.22623656375031"><ele>138.2</ele><time>2026-04-08T06:04:40Z</time></trkpt><trkpt lat="51.202961019014275" lon="17.226134555599486"><ele>137.79999999999998</ele><time>2026-04-08T06:04:41Z</time></trkpt><trkpt lat="51.202928492794236" lon="17.226043097764812"><ele>137.4</ele><time>2026-04-08T06:04:42Z</time></trkpt><trkpt lat="51.202862670997256" lon="17.225854944094646"><ele>137.0</ele><time>2026-04-08T06:04:44Z</time></trkpt><trkpt lat="51.202823306613126" lon="17.22570536103253"><ele>136.6</ele><time>2026-04-08T06:04:46Z</time></trkpt><trkpt lat="51.20275976751323" lon="17.225496562095383"><ele>136.2</ele><time>2026-04-08T06:04:48Z</time></trkpt><trkpt lat="51.2027162806569" lon="17.225367431779983"><ele>135.8</ele><time>2026-04-08T06:04:49Z</time></trkpt><trkpt lat="51.20268504078194" lon="17.225272217004925"><ele>135.4</ele><time>2026-04-08T06:04:50Z</time></trkpt><trkpt lat="51.20264855323421" lon="17.22514439618007"><ele>135.0</ele><time>2026-04-08T06:04:52Z</time></trkpt><trkpt lat="51.202594148874276" lon="17.224988939616928"><ele>135.0</ele><time>2026-04-08T06:04:54Z</time></trkpt><trkpt lat="51.202561561417276" lon="17.224877007946258"><ele>135.0</ele><time>2026-04-08T06:04:55Z</time></trkpt><trkpt lat="51.20252102936897" lon="17.224743445670978"><ele>135.0</ele><time>2026-04-08T06:04:56Z</time></trkpt><trkpt lat="51.202476235145674" lon="17.224610490902947"><ele>135.0</ele><time>2026-04-08T06:04:57Z</time></trkpt><trkpt lat="51.20243242630844" lon="17.22445413446588"><ele>135.0</ele><time>2026-04-08T06:04:58Z</time></trkpt><trkpt lat="51.20238743983311" lon="17.224324177491628"><ele>135.0</ele><time>2026-04-08T06:04:59Z</time></trkpt><trkpt lat="51.20236239636794" lon="17.224183455387596"><ele>135.0</ele><time>2026-04-08T06:05:00Z</time></trkpt><trkpt lat="51.202339728975865" lon="17.22402998302647"><ele>135.0</ele><time>2026-04-08T06:05:01Z</time></trkpt><trkpt lat="51.202296281798795" lon="17.22386514789985"><ele>135.0</ele><time>2026-04-08T06:05:02Z</time></trkpt><trkpt lat="51.202248906428416" lon="17.223682491334774"><ele>135.0</ele><time>2026-04-08T06:05:03Z</time></trkpt><trkpt lat="51.20219864823012" lon="17.22348830405819"><ele>135.0</ele><time>2026-04-08T06:05:04Z</time></trkpt><trkpt lat="51.20214800326336" lon="17.223295716606984"><ele>135.0</ele><time>2026-04-08T06:05:05Z</time></trkpt><trkpt lat="51.20209607497248" lon="17.223096433181052"><ele>135.0</ele><time>2026-04-08T06:05:06Z</time></trkpt><trkpt lat="51.202041774059914" lon="17.222899784807215"><ele>135.0</ele><time>2026-04-08T06:05:07Z</time></trkpt><trkpt lat="51.2019938991561" lon="17.2227006422871"><ele>135.5</ele><time>2026-04-08T06:05:08Z</time></trkpt><trkpt lat="51.20194461231658" lon="17.222498874091677"><ele>136.0</ele><time>2026-04-08T06:05:09Z</time></trkpt><trkpt lat="51.20189770909138" lon="17.222298657998778"><ele>136.5</ele><time>2026-04-08T06:05:10Z</time></trkpt><trkpt lat="51.20184610213023" lon="17.22210631975626"><ele>137.0</ele><time>2026-04-08T06:05:11Z</time></trkpt><trkpt lat="51.20179751174825" lon="17.221934277208202"><ele>137.6</ele><time>2026-04-08T06:05:12Z</time></trkpt><trkpt lat="51.20176042689455" lon="17.221781476377068"><ele>138.2</ele><time>2026-04-08T06:05:13Z</time></trkpt><trkpt lat="51.20172085609269" lon="17.221626665607854"><ele>138.8</ele><time>2026-04-08T06:05:14Z</time></trkpt><trkpt lat="51.201682156176865" lon="17.221459011282136"><ele>139.4</ele><time>2026-04-08T06:05:15Z</time></trkpt><trkpt lat="51.20164397316542" lon="17.221285246945524"><ele>140.0</ele><time>2026-04-08T06:05:15.999Z</time></trkpt><trkpt lat="51.20160485712637" lon="17.22110817708351"><ele>139.25</ele><time>2026-04-08T06:05:16.999Z</time></trkpt><trkpt lat="51.201565369743044" lon="17.220914167974875"><ele>138.5</ele><time>2026-04-08T06:05:17.999Z</time></trkpt><trkpt lat="51.20152451105" lon="17.220710852525"><ele>137.75</ele><time>2026-04-08T06:05:18.999Z</time></trkpt><trkpt lat="51.20148333777312" lon="17.220524618997608"><ele>137.0</ele><time>2026-04-08T06:05:19.999Z</time></trkpt><trkpt lat="51.201441492664344" lon="17.220357275149336"><ele>137.0</ele><time>2026-04-08T06:05:20.999Z</time></trkpt><trkpt lat="51.20141185943873" lon="17.22021080287827"><ele>137.0</ele><time>2026-04-08T06:05:21.999Z</time></trkpt><trkpt lat="51.20138681259169" lon="17.22007932429597"><ele>137.0</ele><time>2026-04-08T06:05:22.999Z</time></trkpt><trkpt lat="51.2013443216144" lon="17.21993970767409"><ele>137.0</ele><time>2026-04-08T06:05:23.999Z</time></trkpt><trkpt lat="51.20130280756851" lon="17.219765762250884"><ele>137.0</ele><time>2026-04-08T06:05:24.999Z</time></trkpt><trkpt lat="51.20125749369913" lon="17.219580976891308"><ele>137.25</ele><time>2026-04-08T06:05:25.999Z</time></trkpt><trkpt lat="51.201210695373824" lon="17.21939622751468"><ele>137.5</ele><time>2026-04-08T06:05:26.999Z</time></trkpt><trkpt lat="51.20116496373818" lon="17.21920715043243"><ele>137.75</ele><time>2026-04-08T06:05:27.999Z</time></trkpt><trkpt lat="51.20112151636905" lon="17.219009472634006"><ele>138.0</ele><time>2026-04-08T06:05:28.999Z</time></trkpt><trkpt lat="51.20107952491909" lon="17.218825333685917"><ele>138.0</ele><time>2026-04-08T06:05:29.999Z</time></trkpt><trkpt lat="51.20104002498263" lon="17.218671567029137"><ele>138.0</ele><time>2026-04-08T06:05:30.999Z</time></trkpt><trkpt lat="51.201001367205976" lon="17.218536501254455"><ele>138.0</ele><time>2026-04-08T06:05:31.999Z</time></trkpt><trkpt lat="51.200975799474435" lon="17.21841641578712"><ele>138.0</ele><time>2026-04-08T06:05:32.999Z</time></trkpt><trkpt lat="51.20095363470294" lon="17.21831626797151"><ele>138.0</ele><time>2026-04-08T06:05:33.999Z</time></trkpt><trkpt lat="51.20093338201681" lon="17.21818147942071"><ele>138.0</ele><time>2026-04-08T06:05:35.999Z</time></trkpt><trkpt lat="51.200981721702966" lon="17.218112583546297"><ele>138.0</ele><time>2026-04-08T06:05:37.999Z</time></trkpt><trkpt lat="51.201086780274274" lon="17.21803137221837"><ele>138.0</ele><time>2026-04-08T06:05:39.999Z</time></trkpt><trkpt lat="51.20117602913579" lon="17.218011684666642"><ele>138.0</ele><time>2026-04-08T06:05:40.999Z</time></trkpt><trkpt lat="51.20125140371626" lon="17.217974045064967"><ele>138.0</ele><time>2026-04-08T06:05:41.999Z</time></trkpt><trkpt lat="51.20134848743029" lon="17.217912040826548"><ele>138.0</ele><time>2026-04-08T06:05:42.999Z</time></trkpt><trkpt lat="51.201443911243885" lon="17.217850536721"><ele>140.0</ele><time>2026-04-08T06:05:43.999Z</time></trkpt><trkpt lat="51.20154028122417" lon="17.21778665129936"><ele>142.0</ele><time>2026-04-08T06:05:44.999Z</time></trkpt><trkpt lat="51.20165122153884" lon="17.217714479449317"><ele>144.0</ele><time>2026-04-08T06:05:45.999Z</time></trkpt><trkpt lat="51.201762591313376" lon="17.21764954697292"><ele>146.0</ele><time>2026-04-08T06:05:46.999Z</time></trkpt><trkpt lat="51.20187704584266" lon="17.21757520539939"><ele>146.0</ele><time>2026-04-08T06:05:47.999Z</time></trkpt><trkpt lat="51.20199474365628" lon="17.217509276196587"><ele>146.0</ele><time>2026-04-08T06:05:48.999Z</time></trkpt><trkpt lat="51.20211764582709" lon="17.217447162927325"><ele>146.0</ele><time>2026-04-08T06:05:49.999Z</time></trkpt><trkpt lat="51.20223311079451" lon="17.21736631564756"><ele>146.0</ele><time>2026-04-08T06:05:50.999Z</time></trkpt><trkpt lat="51.20236486966074" lon="17.21730321518723"><ele>147.0</ele><time>2026-04-08T06:05:51.999Z</time></trkpt><trkpt lat="51.2024993075847" lon="17.217234351225983"><ele>148.0</ele><time>2026-04-08T06:05:52.999Z</time></trkpt><trkpt lat="51.202625637040704" lon="17.217178996757777"><ele>149.0</ele><time>2026-04-08T06:05:53.999Z</time></trkpt><trkpt lat="51.20273961272278" lon="17.21710247126169"><ele>150.0</ele><time>2026-04-08T06:05:54.999Z</time></trkpt><trkpt lat="51.20285396952431" lon="17.217032772692296"><ele>150.0</ele><time>2026-04-08T06:05:55.999Z</time></trkpt><trkpt lat="51.202958479389956" lon="17.216960077445716"><ele>150.0</ele><time>2026-04-08T06:05:56.999Z</time></trkpt><trkpt lat="51.20309679765046" lon="17.216910901914815"><ele>150.0</ele><time>2026-04-08T06:05:57.999Z</time></trkpt><trkpt lat="51.20321679092724" lon="17.216849907046406"><ele>150.0</ele><time>2026-04-08T06:05:58.999Z</time></trkpt><trkpt lat="51.203336331404884" lon="17.216792715870945"><ele>149.33333333333334</ele><time>2026-04-08T06:05:59.999Z</time></trkpt><trkpt lat="51.2034443165612" lon="17.21673227752655"><ele>148.66666666666666</ele><time>2026-04-08T06:06:00.999Z</time></trkpt><trkpt lat="51.20354402923345" lon="17.216691477882673"><ele>148.0</ele><time>2026-04-08T06:06:01.999Z</time></trkpt><trkpt lat="51.20360797361275" lon="17.216655580361504"><ele>147.33333333333331</ele><time>2026-04-08T06:06:02.999Z</time></trkpt><trkpt lat="51.20364652064085" lon="17.216559194423333"><ele>146.66666666666666</ele><time>2026-04-08T06:06:04.999Z</time></trkpt><trkpt lat="51.20360704175171" lon="17.216445633185515"><ele>146.0</ele><time>2026-04-08T06:06:05.999Z</time></trkpt><trkpt lat="51.20358853891633" lon="17.216340525785885"><ele>145.8</ele><time>2026-04-08T06:06:06.999Z</time></trkpt><trkpt lat="51.20354240929206" lon="17.216208697656974"><ele>145.6</ele><time>2026-04-08T06:06:07.999Z</time></trkpt><trkpt lat="51.203480881190885" lon="17.216080610309035"><ele>145.4</ele><time>2026-04-08T06:06:08.999Z</time></trkpt><trkpt lat="51.2034053618" lon="17.215957660896017"><ele>145.2</ele><time>2026-04-08T06:06:09.999Z</time></trkpt><trkpt lat="51.203348369792465" lon="17.215826002899764"><ele>145.0</ele><time>2026-04-08T06:06:10.999Z</time></trkpt><trkpt lat="51.20328233734752" lon="17.215660662154832"><ele>144.8</ele><time>2026-04-08T06:06:11.999Z</time></trkpt><trkpt lat="51.2032199095888" lon="17.215534775748736"><ele>144.6</ele><time>2026-04-08T06:06:12.999Z</time></trkpt><trkpt lat="51.20316287708367" lon="17.215374857422777"><ele>144.4</ele><time>2026-04-08T06:06:13.999Z</time></trkpt><trkpt lat="51.20310178324604" lon="17.21522675734769"><ele>144.2</ele><time>2026-04-08T06:06:14.999Z</time></trkpt><trkpt lat="51.203061223243544" lon="17.215101773941537"><ele>144.0</ele><time>2026-04-08T06:06:15.999Z</time></trkpt><trkpt lat="51.20305829013422" lon="17.214997131536705"><ele>144.25</ele><time>2026-04-08T06:06:16.999Z</time></trkpt><trkpt lat="51.20307664483571" lon="17.214757464136603"><ele>144.5</ele><time>2026-04-08T06:06:18.999Z</time></trkpt><trkpt lat="51.20311406321298" lon="17.214608732319373"><ele>144.75</ele><time>2026-04-08T06:06:20Z</time></trkpt><trkpt lat="51.203140307874506" lon="17.214452254932933"><ele>145.0</ele><time>2026-04-08T06:06:21Z</time></trkpt><trkpt lat="51.2031533875332" lon="17.214258655205747"><ele>145.0</ele><time>2026-04-08T06:06:22Z</time></trkpt><trkpt lat="51.20317588246157" lon="17.214047777361305"><ele>145.0</ele><time>2026-04-08T06:06:23Z</time></trkpt><trkpt lat="51.20319738864825" lon="17.21384626654639"><ele>145.0</ele><time>2026-04-08T06:06:24Z</time></trkpt><trkpt lat="51.20321480049333" lon="17.213637109317848"><ele>145.0</ele><time>2026-04-08T06:06:25Z</time></trkpt><trkpt lat="51.203246908164544" lon="17.213432729224856"><ele>145.0</ele><time>2026-04-08T06:06:26Z</time></trkpt><trkpt lat="51.20327518131995" lon="17.21321115011005"><ele>145.0</ele><time>2026-04-08T06:06:27Z</time></trkpt><trkpt lat="51.20330817749426" lon="17.212986908928045"><ele>145.0</ele><time>2026-04-08T06:06:28Z</time></trkpt><trkpt lat="51.20333813974367" lon="17.212774975334177"><ele>145.0</ele><time>2026-04-08T06:06:29Z</time></trkpt><trkpt lat="51.20337758093657" lon="17.212582347688105"><ele>145.0</ele><time>2026-04-08T06:06:30Z</time></trkpt><trkpt lat="51.20341278359156" lon="17.21239550047598"><ele>145.0</ele><time>2026-04-08T06:06:31Z</time></trkpt><trkpt lat="51.20345059551152" lon="17.212212569504715"><ele>145.0</ele><time>2026-04-08T06:06:32Z</time></trkpt><trkpt lat="51.20346132478948" lon="17.21204120897488"><ele>145.0</ele><time>2026-04-08T06:06:33Z</time></trkpt><trkpt lat="51.203486847410595" lon="17.211901912581308"><ele>145.0</ele><time>2026-04-08T06:06:34Z</time></trkpt><trkpt lat="51.20353523010736" lon="17.211809190079716"><ele>144.6</ele><time>2026-04-08T06:06:36Z</time></trkpt><trkpt lat="51.203650483156956" lon="17.21185698456171"><ele>144.2</ele><time>2026-04-08T06:06:38Z</time></trkpt><trkpt lat="51.203742485885584" lon="17.21189874191774"><ele>143.8</ele><time>2026-04-08T06:06:39Z</time></trkpt><trkpt lat="51.2038468670424" lon="17.211960227925257"><ele>143.4</ele><time>2026-04-08T06:06:40Z</time></trkpt><trkpt lat="51.203963933657256" lon="17.21199986574671"><ele>143.0</ele><time>2026-04-08T06:06:41Z</time></trkpt><trkpt lat="51.20409745019325" lon="17.212055342894807"><ele>142.25</ele><time>2026-04-08T06:06:42Z</time></trkpt><trkpt lat="51.20423946362127" lon="17.212122816116057"><ele>141.5</ele><time>2026-04-08T06:06:43Z</time></trkpt><trkpt lat="51.20438664459552" lon="17.212193490909797"><ele>140.75</ele><time>2026-04-08T06:06:44Z</time></trkpt><trkpt lat="51.204514611298" lon="17.21223167411045"><ele>140.0</ele><time>2026-04-08T06:06:45Z</time></trkpt><trkpt lat="51.204641571677996" lon="17.212271849429943"><ele>140.0</ele><time>2026-04-08T06:06:46Z</time></trkpt><trkpt lat="51.20479069598113" lon="17.2123300389379"><ele>140.0</ele><time>2026-04-08T06:06:47Z</time></trkpt><trkpt lat="51.204919935443414" lon="17.21236788116642"><ele>140.0</ele><time>2026-04-08T06:06:48Z</time></trkpt><trkpt lat="51.20504059474602" lon="17.21245425743695"><ele>140.0</ele><time>2026-04-08T06:06:49Z</time></trkpt><trkpt lat="51.2051439068861" lon="17.212519732150305"><ele>140.0</ele><time>2026-04-08T06:06:50Z</time></trkpt><trkpt lat="51.20525216492738" lon="17.212579973073133"><ele>140.0</ele><time>2026-04-08T06:06:51Z</time></trkpt><trkpt lat="51.20536576831662" lon="17.21263549582682"><ele>140.0</ele><time>2026-04-08T06:06:52Z</time></trkpt><trkpt lat="51.205496633007954" lon="17.212657854587572"><ele>140.0</ele><time>2026-04-08T06:06:53Z</time></trkpt><trkpt lat="51.20563119135609" lon="17.212670538165288"><ele>139.25</ele><time>2026-04-08T06:06:54Z</time></trkpt><trkpt lat="51.205743205859484" lon="17.212701618466784"><ele>138.5</ele><time>2026-04-08T06:06:55Z</time></trkpt><trkpt lat="51.20585947972761" lon="17.212746557493883"><ele>137.75</ele><time>2026-04-08T06:06:56Z</time></trkpt><trkpt lat="51.20598355480605" lon="17.212841682284527"><ele>137.0</ele><time>2026-04-08T06:06:57Z</time></trkpt><trkpt lat="51.20610964039203" lon="17.212912617838"><ele>137.0</ele><time>2026-04-08T06:06:58Z</time></trkpt><trkpt lat="51.206253776918004" lon="17.212952341298738"><ele>137.0</ele><time>2026-04-08T06:06:59Z</time></trkpt><trkpt lat="51.20638985393908" lon="17.21298874073055"><ele>137.0</ele><time>2026-04-08T06:07:00Z</time></trkpt><trkpt lat="51.2065293280805" lon="17.213034911751357"><ele>137.0</ele><time>2026-04-08T06:07:01Z</time></trkpt><trkpt lat="51.20666779362535" lon="17.213065121195523"><ele>137.66666666666666</ele><time>2026-04-08T06:07:01.999Z</time></trkpt><trkpt lat="51.206817850041375" lon="17.213130747222905"><ele>138.33333333333334</ele><time>2026-04-08T06:07:02.999Z</time></trkpt><trkpt lat="51.20696991656927" lon="17.213219664781988"><ele>139.0</ele><time>2026-04-08T06:07:03.999Z</time></trkpt><trkpt lat="51.2071317955289" lon="17.213298606269632"><ele>139.0</ele><time>2026-04-08T06:07:04.999Z</time></trkpt><trkpt lat="51.20728129666925" lon="17.21337688205105"><ele>139.0</ele><time>2026-04-08T06:07:05.999Z</time></trkpt><trkpt lat="51.207416029465904" lon="17.213438498360496"><ele>139.0</ele><time>2026-04-08T06:07:06.999Z</time></trkpt><trkpt lat="51.207540978516306" lon="17.21350392150485"><ele>139.0</ele><time>2026-04-08T06:07:07.999Z</time></trkpt><trkpt lat="51.20765014103147" lon="17.213567394854433"><ele>139.6</ele><time>2026-04-08T06:07:08.999Z</time></trkpt><trkpt lat="51.207771709042376" lon="17.213627643963797"><ele>140.2</ele><time>2026-04-08T06:07:09.999Z</time></trkpt><trkpt lat="51.20787763193638" lon="17.213675709998302"><ele>140.79999999999998</ele><time>2026-04-08T06:07:10.999Z</time></trkpt><trkpt lat="51.20795204537718" lon="17.213680047239723"><ele>141.4</ele><time>2026-04-08T06:07:11.999Z</time></trkpt><trkpt lat="51.20796211252118" lon="17.21354008655425"><ele>142.0</ele><time>2026-04-08T06:07:14.999Z</time></trkpt><trkpt lat="51.207908420173055" lon="17.21334647271823"><ele>142.0</ele><time>2026-04-08T06:07:16.999Z</time></trkpt><trkpt lat="51.207847746938796" lon="17.213218381808186"><ele>142.0</ele><time>2026-04-08T06:07:17.999Z</time></trkpt><trkpt lat="51.20778039139017" lon="17.213073743091893"><ele>142.0</ele><time>2026-04-08T06:07:18.999Z</time></trkpt><trkpt lat="51.2077105750581" lon="17.212911585499178"><ele>142.0</ele><time>2026-04-08T06:07:19.999Z</time></trkpt><trkpt lat="51.20762702303617" lon="17.212729843489335"><ele>142.66666666666669</ele><time>2026-04-08T06:07:20.999Z</time></trkpt><trkpt lat="51.207536550867665" lon="17.212533947127703"><ele>143.33333333333334</ele><time>2026-04-08T06:07:21.999Z</time></trkpt><trkpt lat="51.2074527245387" lon="17.212323953609577"><ele>144.0</ele><time>2026-04-08T06:07:22.999Z</time></trkpt><trkpt lat="51.207361153437276" lon="17.212117871467186"><ele>142.33333333333334</ele><time>2026-04-08T06:07:23.999Z</time></trkpt><trkpt lat="51.20727709898306" lon="17.211884230551465"><ele>140.66666666666669</ele><time>2026-04-08T06:07:24.999Z</time></trkpt><trkpt lat="51.20717703579073" lon="17.21165479277885"><ele>139.0</ele><time>2026-04-08T06:07:25.999Z</time></trkpt><trkpt lat="51.20707743805194" lon="17.211433728863074"><ele>139.0</ele><time>2026-04-08T06:07:26.999Z</time></trkpt><trkpt lat="51.20698613066146" lon="17.211212738932616"><ele>139.0</ele><time>2026-04-08T06:07:27.999Z</time></trkpt><trkpt lat="51.206882234808845" lon="17.210985606173946"><ele>139.0</ele><time>2026-04-08T06:07:28.999Z</time></trkpt><trkpt lat="51.20678357780498" lon="17.210740617434013"><ele>140.0</ele><time>2026-04-08T06:07:29.999Z</time></trkpt><trkpt lat="51.20669214040579" lon="17.210498708441058"><ele>141.0</ele><time>2026-04-08T06:07:30.999Z</time></trkpt><trkpt lat="51.20663712731619" lon="17.21022425136453"><ele>142.0</ele><time>2026-04-08T06:07:31.999Z</time></trkpt><trkpt lat="51.20653842113793" lon="17.20997790718673"><ele>142.0</ele><time>2026-04-08T06:07:32.999Z</time></trkpt><trkpt lat="51.20644027471872" lon="17.209731624833047"><ele>142.0</ele><time>2026-04-08T06:07:33.999Z</time></trkpt><trkpt lat="51.20634769895617" lon="17.20950105155771"><ele>142.0</ele><time>2026-04-08T06:07:34.999Z</time></trkpt><trkpt lat="51.20625025544042" lon="17.20926103294151"><ele>142.0</ele><time>2026-04-08T06:07:35.999Z</time></trkpt><trkpt lat="51.20615533646507" lon="17.20902442388297"><ele>142.0</ele><time>2026-04-08T06:07:36.999Z</time></trkpt><trkpt lat="51.20605768952399" lon="17.20878158848"><ele>142.0</ele><time>2026-04-08T06:07:37.999Z</time></trkpt><trkpt lat="51.2059590380415" lon="17.208537257671214"><ele>142.0</ele><time>2026-04-08T06:07:38.999Z</time></trkpt><trkpt lat="51.205861060441116" lon="17.208291883952217"><ele>142.0</ele><time>2026-04-08T06:07:39.999Z</time></trkpt><trkpt lat="51.205763733869574" lon="17.20804891784406"><ele>142.0</ele><time>2026-04-08T06:07:40.999Z</time></trkpt><trkpt lat="51.205668552629255" lon="17.207813381364716"><ele>141.66666666666669</ele><time>2026-04-08T06:07:41.999Z</time></trkpt><trkpt lat="51.205570225362415" lon="17.207569605135507"><ele>141.33333333333334</ele><time>2026-04-08T06:07:42.999Z</time></trkpt><trkpt lat="51.205471524202856" lon="17.207326571665572"><ele>141.0</ele><time>2026-04-08T06:07:43.999Z</time></trkpt><trkpt lat="51.205378951616076" lon="17.207099286863944"><ele>140.0</ele><time>2026-04-08T06:07:44.999Z</time></trkpt><trkpt lat="51.20529975622455" lon="17.2069056865561"><ele>139.0</ele><time>2026-04-08T06:07:45.999Z</time></trkpt><trkpt lat="51.20522790943286" lon="17.20672937867181"><ele>138.0</ele><time>2026-04-08T06:07:46.999Z</time></trkpt><trkpt lat="51.20517396159004" lon="17.206596424668174"><ele>137.0</ele><time>2026-04-08T06:07:47.999Z</time></trkpt><trkpt lat="51.20511666635731" lon="17.206463699012676"><ele>136.6</ele><time>2026-04-08T06:07:48.999Z</time></trkpt><trkpt lat="51.2050771065466" lon="17.206313413664418"><ele>136.2</ele><time>2026-04-08T06:07:49.999Z</time></trkpt><trkpt lat="51.2050568758682" lon="17.20619967462551"><ele>135.8</ele><time>2026-04-08T06:07:50.999Z</time></trkpt><trkpt lat="51.20502603769243" lon="17.206046432993528"><ele>135.4</ele><time>2026-04-08T06:07:52.999Z</time></trkpt><trkpt lat="51.205163318511744" lon="17.205898227857443"><ele>135.0</ele><time>2026-04-08T06:07:53.999Z</time></trkpt><trkpt lat="51.205236570145885" lon="17.205780517222664"><ele>134.5</ele><time>2026-04-08T06:07:54.999Z</time></trkpt><trkpt lat="51.205300728202886" lon="17.20562769135786"><ele>134.0</ele><time>2026-04-08T06:07:55.999Z</time></trkpt><trkpt lat="51.20535214582738" lon="17.2054585015722"><ele>133.5</ele><time>2026-04-08T06:07:56.999Z</time></trkpt><trkpt lat="51.205399746657584" lon="17.2052851405125"><ele>133.0</ele><time>2026-04-08T06:07:57.999Z</time></trkpt><trkpt lat="51.205449737738654" lon="17.205094171943365"><ele>133.0</ele><time>2026-04-08T06:07:58.999Z</time></trkpt><trkpt lat="51.20550518914531" lon="17.204880110294155"><ele>133.0</ele><time>2026-04-08T06:07:59.999Z</time></trkpt><trkpt lat="51.20555336340633" lon="17.20468234951019"><ele>133.0</ele><time>2026-04-08T06:08:00.999Z</time></trkpt><trkpt lat="51.205602783962064" lon="17.204478190915747"><ele>133.0</ele><time>2026-04-08T06:08:01.999Z</time></trkpt><trkpt lat="51.20569162953299" lon="17.204303800262316"><ele>133.0</ele><time>2026-04-08T06:08:02.999Z</time></trkpt><trkpt lat="51.20577061266448" lon="17.204108468797216"><ele>133.0</ele><time>2026-04-08T06:08:03.999Z</time></trkpt><trkpt lat="51.20587767344743" lon="17.20396497014009"><ele>133.0</ele><time>2026-04-08T06:08:04.999Z</time></trkpt><trkpt lat="51.205984492888305" lon="17.203836327863524"><ele>133.0</ele><time>2026-04-08T06:08:05.999Z</time></trkpt><trkpt lat="51.20610012677453" lon="17.203717734981506"><ele>133.25</ele><time>2026-04-08T06:08:06.999Z</time></trkpt><trkpt lat="51.20621908851209" lon="17.20360247789264"><ele>133.5</ele><time>2026-04-08T06:08:07.999Z</time></trkpt><trkpt lat="51.20635037005568" lon="17.203534371618986"><ele>133.75</ele><time>2026-04-08T06:08:08.999Z</time></trkpt><trkpt lat="51.206488146542256" lon="17.20349414926467"><ele>134.0</ele><time>2026-04-08T06:08:09.999Z</time></trkpt><trkpt lat="51.206621616534974" lon="17.203461047445078"><ele>134.0</ele><time>2026-04-08T06:08:10.999Z</time></trkpt><trkpt lat="51.2067518193973" lon="17.203400881382485"><ele>134.0</ele><time>2026-04-08T06:08:11.999Z</time></trkpt><trkpt lat="51.206883689684666" lon="17.203298279961512"><ele>134.0</ele><time>2026-04-08T06:08:12.999Z</time></trkpt><trkpt lat="51.20700602415863" lon="17.203174744657325"><ele>134.0</ele><time>2026-04-08T06:08:13.999Z</time></trkpt><trkpt lat="51.20714326135882" lon="17.203039699362193"><ele>133.33333333333331</ele><time>2026-04-08T06:08:14.999Z</time></trkpt><trkpt lat="51.20727937397522" lon="17.202899530050438"><ele>132.66666666666666</ele><time>2026-04-08T06:08:15.999Z</time></trkpt><trkpt lat="51.20740551828549" lon="17.20274805013389"><ele>132.0</ele><time>2026-04-08T06:08:16.999Z</time></trkpt><trkpt lat="51.20752303473903" lon="17.20258277101208"><ele>132.0</ele><time>2026-04-08T06:08:17.999Z</time></trkpt><trkpt lat="51.207628238489704" lon="17.202392786162058"><ele>132.0</ele><time>2026-04-08T06:08:18.999Z</time></trkpt><trkpt lat="51.20771978532058" lon="17.202200356203875"><ele>132.0</ele><time>2026-04-08T06:08:19.999Z</time></trkpt><trkpt lat="51.20781790886432" lon="17.201983017667203"><ele>131.33333333333334</ele><time>2026-04-08T06:08:20.999Z</time></trkpt><trkpt lat="51.20788664754304" lon="17.201753881758805"><ele>130.66666666666669</ele><time>2026-04-08T06:08:21.999Z</time></trkpt><trkpt lat="51.20795520845075" lon="17.201527268634646"><ele>130.0</ele><time>2026-04-08T06:08:22.999Z</time></trkpt><trkpt lat="51.208033581236435" lon="17.20132538391655"><ele>130.0</ele><time>2026-04-08T06:08:23.999Z</time></trkpt><trkpt lat="51.20809335244426" lon="17.201158332023113"><ele>130.0</ele><time>2026-04-08T06:08:24.999Z</time></trkpt><trkpt lat="51.20813926705323" lon="17.20103000742484"><ele>130.0</ele><time>2026-04-08T06:08:26Z</time></trkpt><trkpt lat="51.20818075951783" lon="17.200914042335004"><ele>130.0</ele><time>2026-04-08T06:08:27Z</time></trkpt><trkpt lat="51.208310894533355" lon="17.200583319598437"><ele>130.2</ele><time>2026-04-08T06:08:28Z</time></trkpt><trkpt lat="51.20839311519015" lon="17.200489004249057"><ele>130.4</ele><time>2026-04-08T06:08:29Z</time></trkpt><trkpt lat="51.208461012039265" lon="17.200429417996528"><ele>130.6</ele><time>2026-04-08T06:08:30Z</time></trkpt><trkpt lat="51.20852049845421" lon="17.200390213305425"><ele>130.8</ele><time>2026-04-08T06:08:31Z</time></trkpt><trkpt lat="51.20860981679965" lon="17.200359612079613"><ele>131.0</ele><time>2026-04-08T06:08:33Z</time></trkpt><trkpt lat="51.20851292057676" lon="17.200154280118884"><ele>131.0</ele><time>2026-04-08T06:08:36Z</time></trkpt><trkpt lat="51.20843742821021" lon="17.200123939119738"><ele>131.0</ele><time>2026-04-08T06:08:37Z</time></trkpt><trkpt lat="51.208351993917155" lon="17.200060736471745"><ele>131.0</ele><time>2026-04-08T06:08:38Z</time></trkpt><trkpt lat="51.20827968217092" lon="17.199972430664534"><ele>131.0</ele><time>2026-04-08T06:08:39Z</time></trkpt><trkpt lat="51.20820516530627" lon="17.199863110236052"><ele>131.0</ele><time>2026-04-08T06:08:40Z</time></trkpt><trkpt lat="51.20814917166142" lon="17.19972054704202"><ele>131.2</ele><time>2026-04-08T06:08:41Z</time></trkpt><trkpt lat="51.20808917447602" lon="17.199587816330762"><ele>131.39999999999998</ele><time>2026-04-08T06:08:42Z</time></trkpt><trkpt lat="51.20804820193987" lon="17.19948116580091"><ele>131.6</ele><time>2026-04-08T06:08:43Z</time></trkpt><trkpt lat="51.20803663195518" lon="17.199374160862575"><ele>131.79999999999998</ele><time>2026-04-08T06:08:44Z</time></trkpt><trkpt lat="51.20801348122151" lon="17.19927582807194"><ele>132.0</ele><time>2026-04-08T06:08:46Z</time></trkpt><trkpt lat="51.208200303941226" lon="17.199248264433507"><ele>132.0</ele><time>2026-04-08T06:08:48Z</time></trkpt><trkpt lat="51.20830438145074" lon="17.19927491523343"><ele>132.0</ele><time>2026-04-08T06:08:49Z</time></trkpt><trkpt lat="51.20842173037388" lon="17.19930800155364"><ele>132.0</ele><time>2026-04-08T06:08:50Z</time></trkpt><trkpt lat="51.20854382700812" lon="17.199317311548686"><ele>132.0</ele><time>2026-04-08T06:08:51Z</time></trkpt><trkpt lat="51.20865863453925" lon="17.19932072956038"><ele>132.0</ele><time>2026-04-08T06:08:52Z</time></trkpt><trkpt lat="51.20875690820756" lon="17.199319499246126"><ele>132.0</ele><time>2026-04-08T06:08:53Z</time></trkpt><trkpt lat="51.208864879598245" lon="17.19931317101571"><ele>132.0</ele><time>2026-04-08T06:08:54Z</time></trkpt><trkpt lat="51.20895777415925" lon="17.199314254471403"><ele>132.0</ele><time>2026-04-08T06:08:55Z</time></trkpt><trkpt lat="51.209037462590594" lon="17.19927014701109"><ele>132.0</ele><time>2026-04-08T06:08:56Z</time></trkpt><trkpt lat="51.20909202186436" lon="17.199164651222"><ele>133.0</ele><time>2026-04-08T06:08:57Z</time></trkpt><trkpt lat="51.20910883060034" lon="17.199024163094503"><ele>134.0</ele><time>2026-04-08T06:08:58Z</time></trkpt><trkpt lat="51.20911771420598" lon="17.198873337369246"><ele>135.0</ele><time>2026-04-08T06:08:59Z</time></trkpt><trkpt lat="51.20911430504408" lon="17.198706599902902"><ele>136.0</ele><time>2026-04-08T06:09:00Z</time></trkpt><trkpt lat="51.209137680129146" lon="17.19851857498479"><ele>137.0</ele><time>2026-04-08T06:09:01Z</time></trkpt><trkpt lat="51.209169190515226" lon="17.198335014010254"><ele>136.5</ele><time>2026-04-08T06:09:02Z</time></trkpt><trkpt lat="51.20921252222301" lon="17.198145635143348"><ele>136.0</ele><time>2026-04-08T06:09:03Z</time></trkpt><trkpt lat="51.2092548615519" lon="17.197940222288455"><ele>135.5</ele><time>2026-04-08T06:09:04Z</time></trkpt><trkpt lat="51.209306039136415" lon="17.197738869400254"><ele>135.0</ele><time>2026-04-08T06:09:05Z</time></trkpt><trkpt lat="51.20935321499376" lon="17.197535288482012"><ele>134.5</ele><time>2026-04-08T06:09:06Z</time></trkpt><trkpt lat="51.20939148451149" lon="17.19731945140689"><ele>134.0</ele><time>2026-04-08T06:09:07Z</time></trkpt><trkpt lat="51.209435546361206" lon="17.19711083567061"><ele>133.5</ele><time>2026-04-08T06:09:08Z</time></trkpt><trkpt lat="51.2094850087137" lon="17.19690518071838"><ele>133.0</ele><time>2026-04-08T06:09:09Z</time></trkpt><trkpt lat="51.209524995642994" lon="17.196692663847553"><ele>133.0</ele><time>2026-04-08T06:09:10Z</time></trkpt><trkpt lat="51.2095709758008" lon="17.1964914455591"><ele>133.0</ele><time>2026-04-08T06:09:11Z</time></trkpt><trkpt lat="51.20961187204121" lon="17.196292443104387"><ele>133.0</ele><time>2026-04-08T06:09:12Z</time></trkpt><trkpt lat="51.20965481968003" lon="17.19610231571068"><ele>133.0</ele><time>2026-04-08T06:09:13Z</time></trkpt><trkpt lat="51.20970786606922" lon="17.195911552081718"><ele>133.0</ele><time>2026-04-08T06:09:14Z</time></trkpt><trkpt lat="51.209762983947684" lon="17.19571729921648"><ele>133.0</ele><time>2026-04-08T06:09:15Z</time></trkpt><trkpt lat="51.209831899982944" lon="17.195523907888752"><ele>133.0</ele><time>2026-04-08T06:09:16Z</time></trkpt><trkpt lat="51.20989358602485" lon="17.195342200229813"><ele>133.0</ele><time>2026-04-08T06:09:17Z</time></trkpt><trkpt lat="51.20996308358618" lon="17.195156723454893"><ele>134.0</ele><time>2026-04-08T06:09:17.999Z</time></trkpt><trkpt lat="51.21003161436966" lon="17.19495967296416"><ele>135.0</ele><time>2026-04-08T06:09:18.999Z</time></trkpt><trkpt lat="51.21010404580041" lon="17.19477102970715"><ele>136.0</ele><time>2026-04-08T06:09:19.999Z</time></trkpt><trkpt lat="51.21018389309931" lon="17.194591220587334"><ele>137.0</ele><time>2026-04-08T06:09:20.999Z</time></trkpt><trkpt lat="51.21026365126512" lon="17.1943953152528"><ele>137.0</ele><time>2026-04-08T06:09:21.999Z</time></trkpt><trkpt lat="51.21033979015252" lon="17.194196808179274"><ele>137.0</ele><time>2026-04-08T06:09:22.999Z</time></trkpt><trkpt lat="51.21042408822915" lon="17.193998782201366"><ele>137.0</ele><time>2026-04-08T06:09:23.999Z</time></trkpt><trkpt lat="51.21051198121674" lon="17.19380649652198"><ele>137.0</ele><time>2026-04-08T06:09:24.999Z</time></trkpt><trkpt lat="51.21059457076614" lon="17.193611555194344"><ele>137.25</ele><time>2026-04-08T06:09:25.999Z</time></trkpt><trkpt lat="51.21066838102983" lon="17.19341160861484"><ele>137.5</ele><time>2026-04-08T06:09:26.999Z</time></trkpt><trkpt lat="51.21073865167252" lon="17.19321170542702"><ele>137.75</ele><time>2026-04-08T06:09:27.999Z</time></trkpt><trkpt lat="51.21080901473539" lon="17.193008096080536"><ele>138.0</ele><time>2026-04-08T06:09:28.999Z</time></trkpt><trkpt lat="51.21087794275952" lon="17.192799240054697"><ele>138.0</ele><time>2026-04-08T06:09:29.999Z</time></trkpt><trkpt lat="51.21095117448332" lon="17.192594722999985"><ele>138.0</ele><time>2026-04-08T06:09:30.999Z</time></trkpt><trkpt lat="51.21101929333013" lon="17.192389585108494"><ele>138.0</ele><time>2026-04-08T06:09:31.999Z</time></trkpt><trkpt lat="51.21107913748896" lon="17.192166277222647"><ele>138.0</ele><time>2026-04-08T06:09:32.999Z</time></trkpt><trkpt lat="51.211115221821466" lon="17.19193180561653"><ele>138.0</ele><time>2026-04-08T06:09:33.999Z</time></trkpt><trkpt lat="51.21115415093176" lon="17.191687772950974"><ele>138.0</ele><time>2026-04-08T06:09:34.999Z</time></trkpt><trkpt lat="51.21118478632859" lon="17.191434975667832"><ele>138.0</ele><time>2026-04-08T06:09:35.999Z</time></trkpt><trkpt lat="51.21120880819492" lon="17.191190987637494"><ele>138.0</ele><time>2026-04-08T06:09:36.999Z</time></trkpt><trkpt lat="51.211240974657926" lon="17.190955562114592"><ele>138.0</ele><time>2026-04-08T06:09:37.999Z</time></trkpt><trkpt lat="51.211270047886295" lon="17.190723314480845"><ele>138.0</ele><time>2026-04-08T06:09:38.999Z</time></trkpt><trkpt lat="51.21129009433836" lon="17.190500523993848"><ele>138.0</ele><time>2026-04-08T06:09:39.999Z</time></trkpt><trkpt lat="51.2113043025287" lon="17.19029862466102"><ele>137.75</ele><time>2026-04-08T06:09:40.999Z</time></trkpt><trkpt lat="51.21131829320921" lon="17.19012812421994"><ele>137.5</ele><time>2026-04-08T06:09:41.999Z</time></trkpt><trkpt lat="51.211305670205114" lon="17.189949766817648"><ele>137.25</ele><time>2026-04-08T06:09:42.999Z</time></trkpt><trkpt lat="51.21128629893638" lon="17.18975511835586"><ele>137.0</ele><time>2026-04-08T06:09:43.999Z</time></trkpt><trkpt lat="51.211248217160815" lon="17.189570225854744"><ele>136.75</ele><time>2026-04-08T06:09:44.999Z</time></trkpt><trkpt lat="51.21121079903662" lon="17.18936347150068"><ele>136.5</ele><time>2026-04-08T06:09:45.999Z</time></trkpt><trkpt lat="51.211177523381146" lon="17.189142456955842"><ele>136.25</ele><time>2026-04-08T06:09:46.999Z</time></trkpt><trkpt lat="51.21113989564333" lon="17.188923158595106"><ele>136.0</ele><time>2026-04-08T06:09:47.999Z</time></trkpt><trkpt lat="51.21111620456836" lon="17.1887131202374"><ele>136.0</ele><time>2026-04-08T06:09:48.999Z</time></trkpt><trkpt lat="51.21108894564789" lon="17.18850589826613"><ele>136.0</ele><time>2026-04-08T06:09:49.999Z</time></trkpt><trkpt lat="51.21105868514115" lon="17.18830009580783"><ele>136.0</ele><time>2026-04-08T06:09:50.999Z</time></trkpt><trkpt lat="51.211033655371565" lon="17.18810993762565"><ele>136.0</ele><time>2026-04-08T06:09:51.999Z</time></trkpt><trkpt lat="51.211003401707856" lon="17.187925817182634"><ele>136.5</ele><time>2026-04-08T06:09:52.999Z</time></trkpt><trkpt lat="51.21096053177211" lon="17.18773197359977"><ele>137.0</ele><time>2026-04-08T06:09:53.999Z</time></trkpt><trkpt lat="51.21092700803591" lon="17.18752925240755"><ele>137.5</ele><time>2026-04-08T06:09:54.999Z</time></trkpt><trkpt lat="51.21089700637572" lon="17.18732431905786"><ele>138.0</ele><time>2026-04-08T06:09:55.999Z</time></trkpt><trkpt lat="51.21087489520272" lon="17.187116746996214"><ele>138.0</ele><time>2026-04-08T06:09:56.999Z</time></trkpt><trkpt lat="51.21084688848077" lon="17.186904442814196"><ele>138.0</ele><time>2026-04-08T06:09:57.999Z</time></trkpt><trkpt lat="51.21082783176849" lon="17.186696209885415"><ele>138.0</ele><time>2026-04-08T06:09:58.999Z</time></trkpt><trkpt lat="51.2107769923351" lon="17.186508822132023"><ele>138.0</ele><time>2026-04-08T06:09:59.999Z</time></trkpt><trkpt lat="51.21073350988858" lon="17.186315393313006"><ele>138.0</ele><time>2026-04-08T06:10:00.999Z</time></trkpt><trkpt lat="51.210701524548895" lon="17.18611523920989"><ele>138.0</ele><time>2026-04-08T06:10:01.999Z</time></trkpt><trkpt lat="51.210672769170664" lon="17.185906374266935"><ele>138.0</ele><time>2026-04-08T06:10:02.999Z</time></trkpt><trkpt lat="51.210649328265944" lon="17.18568846984034"><ele>138.0</ele><time>2026-04-08T06:10:03.999Z</time></trkpt><trkpt lat="51.210615230451374" lon="17.18547716405787"><ele>138.0</ele><time>2026-04-08T06:10:04.999Z</time></trkpt><trkpt lat="51.21057336894114" lon="17.18526473965368"><ele>138.0</ele><time>2026-04-08T06:10:05.999Z</time></trkpt><trkpt lat="51.21054575189164" lon="17.185040910066608"><ele>138.0</ele><time>2026-04-08T06:10:06.999Z</time></trkpt><trkpt lat="51.21050778796803" lon="17.184812043629044"><ele>138.0</ele><time>2026-04-08T06:10:07.999Z</time></trkpt><trkpt lat="51.21046650944472" lon="17.184571174445797"><ele>138.0</ele><time>2026-04-08T06:10:08.999Z</time></trkpt><trkpt lat="51.210441614061835" lon="17.184340339105013"><ele>138.0</ele><time>2026-04-08T06:10:09.999Z</time></trkpt><trkpt lat="51.21041049842582" lon="17.184140133838383"><ele>138.0</ele><time>2026-04-08T06:10:10.999Z</time></trkpt><trkpt lat="51.21040034638132" lon="17.1839958465887"><ele>138.0</ele><time>2026-04-08T06:10:11.999Z</time></trkpt><trkpt lat="51.21038870114145" lon="17.18388858006082"><ele>138.0</ele><time>2026-04-08T06:10:12.999Z</time></trkpt><trkpt lat="51.2104668546035" lon="17.183775297093398"><ele>137.8</ele><time>2026-04-08T06:10:15.999Z</time></trkpt><trkpt lat="51.210537065952785" lon="17.18376789874044"><ele>137.60000000000002</ele><time>2026-04-08T06:10:16.999Z</time></trkpt><trkpt lat="51.210624140234124" lon="17.18373976106276"><ele>137.39999999999998</ele><time>2026-04-08T06:10:17.999Z</time></trkpt><trkpt lat="51.21072174007544" lon="17.1837302029732"><ele>137.2</ele><time>2026-04-08T06:10:18.999Z</time></trkpt><trkpt lat="51.210823728540184" lon="17.18369518148462"><ele>137.0</ele><time>2026-04-08T06:10:19.999Z</time></trkpt><trkpt lat="51.21093367528871" lon="17.183666558913664"><ele>139.5</ele><time>2026-04-08T06:10:20.999Z</time></trkpt><trkpt lat="51.21107295281139" lon="17.183666999247137"><ele>142.0</ele><time>2026-04-08T06:10:21.999Z</time></trkpt><trkpt lat="51.211199385764395" lon="17.183602996844073"><ele>144.5</ele><time>2026-04-08T06:10:22.999Z</time></trkpt><trkpt lat="51.21133397412608" lon="17.18355150421912"><ele>147.0</ele><time>2026-04-08T06:10:23.999Z</time></trkpt><trkpt lat="51.21145786840651" lon="17.183478975327247"><ele>147.5</ele><time>2026-04-08T06:10:24.999Z</time></trkpt><trkpt lat="51.21160129771924" lon="17.183440061542193"><ele>148.0</ele><time>2026-04-08T06:10:25.999Z</time></trkpt><trkpt lat="51.21173813500335" lon="17.183365539839887"><ele>148.5</ele><time>2026-04-08T06:10:26.999Z</time></trkpt><trkpt lat="51.21186810883705" lon="17.183291151166408"><ele>149.0</ele><time>2026-04-08T06:10:27.999Z</time></trkpt><trkpt lat="51.2119997608062" lon="17.18322617334934"><ele>149.0</ele><time>2026-04-08T06:10:28.999Z</time></trkpt><trkpt lat="51.212144100723535" lon="17.183199885628614"><ele>149.0</ele><time>2026-04-08T06:10:29.999Z</time></trkpt><trkpt lat="51.212278990661936" lon="17.18313309752703"><ele>149.0</ele><time>2026-04-08T06:10:30.999Z</time></trkpt><trkpt lat="51.212421611981114" lon="17.183091147510932"><ele>149.0</ele><time>2026-04-08T06:10:32Z</time></trkpt><trkpt lat="51.21256233146643" lon="17.183067055011783"><ele>148.25</ele><time>2026-04-08T06:10:33Z</time></trkpt><trkpt lat="51.2126908420034" lon="17.18302889005888"><ele>147.5</ele><time>2026-04-08T06:10:34Z</time></trkpt><trkpt lat="51.21281091258267" lon="17.18296556884592"><ele>146.75</ele><time>2026-04-08T06:10:35Z</time></trkpt><trkpt lat="51.2129491398483" lon="17.182921607136855"><ele>146.0</ele><time>2026-04-08T06:10:36Z</time></trkpt><trkpt lat="51.21306608209775" lon="17.182851825059917"><ele>146.75</ele><time>2026-04-08T06:10:37Z</time></trkpt><trkpt lat="51.21319617798649" lon="17.182822226155814"><ele>147.5</ele><time>2026-04-08T06:10:38Z</time></trkpt><trkpt lat="51.21333507825921" lon="17.18277724953436"><ele>148.25</ele><time>2026-04-08T06:10:39Z</time></trkpt><trkpt lat="51.21346930605225" lon="17.182719668806236"><ele>149.0</ele><time>2026-04-08T06:10:40Z</time></trkpt><trkpt lat="51.213599018522515" lon="17.182690891206327"><ele>149.0</ele><time>2026-04-08T06:10:41Z</time></trkpt><trkpt lat="51.213713626853675" lon="17.182623793953752"><ele>149.0</ele><time>2026-04-08T06:10:42Z</time></trkpt><trkpt lat="51.21383289983432" lon="17.182591461735985"><ele>149.0</ele><time>2026-04-08T06:10:43Z</time></trkpt><trkpt lat="51.213958097982534" lon="17.182549462541196"><ele>149.0</ele><time>2026-04-08T06:10:44Z</time></trkpt><trkpt lat="51.21407962435844" lon="17.182491952674773"><ele>149.25</ele><time>2026-04-08T06:10:45Z</time></trkpt><trkpt lat="51.21419422486837" lon="17.18243084729544"><ele>149.5</ele><time>2026-04-08T06:10:46Z</time></trkpt><trkpt lat="51.21433029758764" lon="17.182381973232832"><ele>149.75</ele><time>2026-04-08T06:10:47Z</time></trkpt><trkpt lat="51.21446789887773" lon="17.182331045892507"><ele>150.0</ele><time>2026-04-08T06:10:48Z</time></trkpt><trkpt lat="51.214609543970255" lon="17.182314663000632"><ele>150.0</ele><time>2026-04-08T06:10:49Z</time></trkpt><trkpt lat="51.214755025354116" lon="17.182295721761143"><ele>150.0</ele><time>2026-04-08T06:10:50Z</time></trkpt><trkpt lat="51.21491467770118" lon="17.182258165026884"><ele>150.0</ele><time>2026-04-08T06:10:51Z</time></trkpt><trkpt lat="51.215033182882635" lon="17.182222262165034"><ele>150.0</ele><time>2026-04-08T06:10:52Z</time></trkpt><trkpt lat="51.215150422549144" lon="17.182152393753736"><ele>148.6</ele><time>2026-04-08T06:10:53Z</time></trkpt><trkpt lat="51.215260813818375" lon="17.182109106829895"><ele>147.2</ele><time>2026-04-08T06:10:54Z</time></trkpt><trkpt lat="51.21534723398452" lon="17.182092301962665"><ele>145.8</ele><time>2026-04-08T06:10:55Z</time></trkpt><trkpt lat="51.2154531846577" lon="17.182081680005883"><ele>144.4</ele><time>2026-04-08T06:10:56Z</time></trkpt><trkpt lat="51.21555985603964" lon="17.182065060751537"><ele>143.0</ele><time>2026-04-08T06:10:57Z</time></trkpt><trkpt lat="51.21565980492097" lon="17.182010871287194"><ele>141.5</ele><time>2026-04-08T06:10:58Z</time></trkpt><trkpt lat="51.21577553238743" lon="17.18196951484212"><ele>140.0</ele><time>2026-04-08T06:10:59Z</time></trkpt><trkpt lat="51.21589495360032" lon="17.181927345177435"><ele>138.5</ele><time>2026-04-08T06:11:00Z</time></trkpt><trkpt lat="51.216007594328715" lon="17.181909022840394"><ele>137.0</ele><time>2026-04-08T06:11:01Z</time></trkpt><trkpt lat="51.21611297973633" lon="17.181869748872018"><ele>137.0</ele><time>2026-04-08T06:11:02Z</time></trkpt><trkpt lat="51.21624546412333" lon="17.18184131485774"><ele>137.0</ele><time>2026-04-08T06:11:03Z</time></trkpt><trkpt lat="51.216382116312616" lon="17.181808562558427"><ele>137.0</ele><time>2026-04-08T06:11:04Z</time></trkpt><trkpt lat="51.21652901764485" lon="17.18174029037389"><ele>137.0</ele><time>2026-04-08T06:11:05Z</time></trkpt><trkpt lat="51.21667160511784" lon="17.181689326299004"><ele>137.0</ele><time>2026-04-08T06:11:06Z</time></trkpt><trkpt lat="51.21673649283594" lon="17.18167339122238"><ele>137.0</ele><time>2026-04-08T06:11:07Z</time></trkpt><trkpt lat="51.21685889951126" lon="17.181657149304154"><ele>137.0</ele><time>2026-04-08T06:11:08Z</time></trkpt><trkpt lat="51.21697550094885" lon="17.181646652768922"><ele>137.0</ele><time>2026-04-08T06:11:09Z</time></trkpt><trkpt lat="51.2170873790351" lon="17.181570610136397"><ele>137.0</ele><time>2026-04-08T06:11:10Z</time></trkpt><trkpt lat="51.21715521568065" lon="17.181517865562196"><ele>137.0</ele><time>2026-04-08T06:11:11Z</time></trkpt><trkpt lat="51.217307007459375" lon="17.18153828795314"><ele>137.0</ele><time>2026-04-08T06:11:12Z</time></trkpt><trkpt lat="51.21743351964533" lon="17.18154454490546"><ele>137.0</ele><time>2026-04-08T06:11:13Z</time></trkpt><trkpt lat="51.21753245803417" lon="17.18148587581932"><ele>137.0</ele><time>2026-04-08T06:11:14Z</time></trkpt><trkpt lat="51.21761982315179" lon="17.181409608906574"><ele>137.0</ele><time>2026-04-08T06:11:15Z</time></trkpt><trkpt lat="51.21770451712829" lon="17.181353512179005"><ele>137.0</ele><time>2026-04-08T06:11:16Z</time></trkpt><trkpt lat="51.21782358446811" lon="17.181345457778882"><ele>137.0</ele><time>2026-04-08T06:11:17Z</time></trkpt><trkpt lat="51.217939681581896" lon="17.181328776963138"><ele>137.0</ele><time>2026-04-08T06:11:18Z</time></trkpt><trkpt lat="51.218042598964985" lon="17.181234305885354"><ele>137.0</ele><time>2026-04-08T06:11:19Z</time></trkpt><trkpt lat="51.21811413994877" lon="17.181103503191263"><ele>137.5</ele><time>2026-04-08T06:11:20Z</time></trkpt><trkpt lat="51.21822059333046" lon="17.18116647889417"><ele>138.0</ele><time>2026-04-08T06:11:21Z</time></trkpt><trkpt lat="51.21831512998163" lon="17.181150320085493"><ele>138.5</ele><time>2026-04-08T06:11:22Z</time></trkpt><trkpt lat="51.218437877706826" lon="17.181121577033064"><ele>139.0</ele><time>2026-04-08T06:11:23Z</time></trkpt><trkpt lat="51.21855073897649" lon="17.181055273894312"><ele>139.0</ele><time>2026-04-08T06:11:24Z</time></trkpt><trkpt lat="51.218672866803615" lon="17.18102558495863"><ele>139.0</ele><time>2026-04-08T06:11:25Z</time></trkpt><trkpt lat="51.218788152257424" lon="17.180960624989183"><ele>139.0</ele><time>2026-04-08T06:11:26Z</time></trkpt><trkpt lat="51.21891224268968" lon="17.18092495736833"><ele>139.0</ele><time>2026-04-08T06:11:27Z</time></trkpt><trkpt lat="51.219048296192504" lon="17.18088590114974"><ele>138.75</ele><time>2026-04-08T06:11:28Z</time></trkpt><trkpt lat="51.21918632200742" lon="17.180832702571184"><ele>138.5</ele><time>2026-04-08T06:11:29Z</time></trkpt><trkpt lat="51.21931596390256" lon="17.18077640932601"><ele>138.25</ele><time>2026-04-08T06:11:30Z</time></trkpt><trkpt lat="51.21943737282235" lon="17.180722671191624"><ele>138.0</ele><time>2026-04-08T06:11:31Z</time></trkpt><trkpt lat="51.219564525795285" lon="17.180690562603164"><ele>138.0</ele><time>2026-04-08T06:11:32Z</time></trkpt><trkpt lat="51.21967736202683" lon="17.180693412910653"><ele>138.0</ele><time>2026-04-08T06:11:33Z</time></trkpt><trkpt lat="51.2197976401061" lon="17.180690426560197"><ele>138.0</ele><time>2026-04-08T06:11:34Z</time></trkpt><trkpt lat="51.21990734060391" lon="17.180664009472338"><ele>138.0</ele><time>2026-04-08T06:11:35Z</time></trkpt><trkpt lat="51.21999954742957" lon="17.180633166613568"><ele>138.0</ele><time>2026-04-08T06:11:35.999Z</time></trkpt><trkpt lat="51.220069239057516" lon="17.180589301843796"><ele>138.0</ele><time>2026-04-08T06:11:36.999Z</time></trkpt><trkpt lat="51.220134773700146" lon="17.180552445659455"><ele>138.0</ele><time>2026-04-08T06:11:37.999Z</time></trkpt><trkpt lat="51.220203405426346" lon="17.180570120661553"><ele>138.0</ele><time>2026-04-08T06:11:38.999Z</time></trkpt><trkpt lat="51.220258981832615" lon="17.180623648507808"><ele>138.0</ele><time>2026-04-08T06:11:39.999Z</time></trkpt><trkpt lat="51.22029964198284" lon="17.18071672568357"><ele>138.0</ele><time>2026-04-08T06:11:40.999Z</time></trkpt><trkpt lat="51.220366950694434" lon="17.18082780817064"><ele>138.0</ele><time>2026-04-08T06:11:41.999Z</time></trkpt><trkpt lat="51.22044861067086" lon="17.18093285058903"><ele>138.0</ele><time>2026-04-08T06:11:42.999Z</time></trkpt><trkpt lat="51.220547739084374" lon="17.18102210744735"><ele>138.0</ele><time>2026-04-08T06:11:43.999Z</time></trkpt><trkpt lat="51.220651111882106" lon="17.181118420062944"><ele>138.0</ele><time>2026-04-08T06:11:44.999Z</time></trkpt><trkpt lat="51.22075470331498" lon="17.18121361077784"><ele>138.0</ele><time>2026-04-08T06:11:45.999Z</time></trkpt><trkpt lat="51.22085899085322" lon="17.181331108441487"><ele>138.0</ele><time>2026-04-08T06:11:46.999Z</time></trkpt><trkpt lat="51.220975431208565" lon="17.181422307430875"><ele>138.0</ele><time>2026-04-08T06:11:47.999Z</time></trkpt><trkpt lat="51.221070704409854" lon="17.181534620096915"><ele>138.0</ele><time>2026-04-08T06:11:48.999Z</time></trkpt><trkpt lat="51.221166304088456" lon="17.181620850946636"><ele>138.0</ele><time>2026-04-08T06:11:49.999Z</time></trkpt><trkpt lat="51.22128039702403" lon="17.181681734293946"><ele>138.0</ele><time>2026-04-08T06:11:50.999Z</time></trkpt><trkpt lat="51.22141081163425" lon="17.181707992008608"><ele>138.0</ele><time>2026-04-08T06:11:51.999Z</time></trkpt><trkpt lat="51.221540786871394" lon="17.18173621582281"><ele>138.0</ele><time>2026-04-08T06:11:52.999Z</time></trkpt><trkpt lat="51.221673264529244" lon="17.18175967392187"><ele>138.0</ele><time>2026-04-08T06:11:53.999Z</time></trkpt><trkpt lat="51.221809046665385" lon="17.18177695253347"><ele>138.25</ele><time>2026-04-08T06:11:54.999Z</time></trkpt><trkpt lat="51.221941643022944" lon="17.181806827134395"><ele>138.5</ele><time>2026-04-08T06:11:55.999Z</time></trkpt><trkpt lat="51.222063302508936" lon="17.181840157518113"><ele>138.75</ele><time>2026-04-08T06:11:56.999Z</time></trkpt><trkpt lat="51.222167580257334" lon="17.181843606057257"><ele>139.0</ele><time>2026-04-08T06:11:57.999Z</time></trkpt><trkpt lat="51.22227856202069" lon="17.18182051950244"><ele>139.25</ele><time>2026-04-08T06:11:58.999Z</time></trkpt><trkpt lat="51.22240113903761" lon="17.18179970474154"><ele>139.5</ele><time>2026-04-08T06:11:59.999Z</time></trkpt><trkpt lat="51.22252535561996" lon="17.181781697132376"><ele>139.75</ele><time>2026-04-08T06:12:00.999Z</time></trkpt><trkpt lat="51.22264621727638" lon="17.18173747214949"><ele>140.0</ele><time>2026-04-08T06:12:01.999Z</time></trkpt><trkpt lat="51.222761356091375" lon="17.181686953753488"><ele>140.0</ele><time>2026-04-08T06:12:02.999Z</time></trkpt><trkpt lat="51.22287961901784" lon="17.181661850875727"><ele>140.0</ele><time>2026-04-08T06:12:03.999Z</time></trkpt><trkpt lat="51.22298602992296" lon="17.181610283780017"><ele>140.0</ele><time>2026-04-08T06:12:04.999Z</time></trkpt><trkpt lat="51.22308942694181" lon="17.181541747606"><ele>140.0</ele><time>2026-04-08T06:12:05.999Z</time></trkpt><trkpt lat="51.223190313448" lon="17.18142794077412"><ele>140.0</ele><time>2026-04-08T06:12:06.999Z</time></trkpt><trkpt lat="51.22328469465294" lon="17.18130196776964"><ele>140.0</ele><time>2026-04-08T06:12:07.999Z</time></trkpt><trkpt lat="51.22336742940594" lon="17.18121760398532"><ele>140.0</ele><time>2026-04-08T06:12:08.999Z</time></trkpt><trkpt lat="51.22344039861396" lon="17.181179840515096"><ele>140.0</ele><time>2026-04-08T06:12:09.999Z</time></trkpt><trkpt lat="51.22350433999394" lon="17.181186838080716"><ele>140.0</ele><time>2026-04-08T06:12:10.999Z</time></trkpt><trkpt lat="51.223570962901434" lon="17.18120959303007"><ele>140.0</ele><time>2026-04-08T06:12:11.999Z</time></trkpt><trkpt lat="51.223655580620154" lon="17.181256718389815"><ele>140.0</ele><time>2026-04-08T06:12:12.999Z</time></trkpt><trkpt lat="51.22375252808466" lon="17.181313071739606"><ele>140.0</ele><time>2026-04-08T06:12:13.999Z</time></trkpt><trkpt lat="51.22385533333995" lon="17.181375654478575"><ele>140.0</ele><time>2026-04-08T06:12:14.999Z</time></trkpt><trkpt lat="51.22396441801101" lon="17.181433943904576"><ele>140.0</ele><time>2026-04-08T06:12:15.999Z</time></trkpt><trkpt lat="51.22407816559568" lon="17.18149259415865"><ele>140.0</ele><time>2026-04-08T06:12:16.999Z</time></trkpt><trkpt lat="51.22419842656888" lon="17.181547483460594"><ele>140.25</ele><time>2026-04-08T06:12:17.999Z</time></trkpt><trkpt lat="51.22431911256179" lon="17.181602530505895"><ele>140.5</ele><time>2026-04-08T06:12:18.999Z</time></trkpt><trkpt lat="51.22444213226518" lon="17.18165706227464"><ele>140.75</ele><time>2026-04-08T06:12:19.999Z</time></trkpt><trkpt lat="51.224567636330114" lon="17.181717158788523"><ele>141.0</ele><time>2026-04-08T06:12:20.999Z</time></trkpt><trkpt lat="51.22469128144816" lon="17.181771092585198"><ele>141.0</ele><time>2026-04-08T06:12:21.999Z</time></trkpt><trkpt lat="51.22479412121296" lon="17.18181941787594"><ele>141.0</ele><time>2026-04-08T06:12:22.999Z</time></trkpt><trkpt lat="51.22486927603093" lon="17.181853023590516"><ele>141.0</ele><time>2026-04-08T06:12:23.999Z</time></trkpt><trkpt lat="51.22495051547649" lon="17.181867482706732"><ele>141.0</ele><time>2026-04-08T06:12:25.999Z</time></trkpt><trkpt lat="51.224992033186766" lon="17.181779269428016"><ele>141.0</ele><time>2026-04-08T06:12:27.999Z</time></trkpt><trkpt lat="51.225001483330225" lon="17.18162835512267"><ele>141.0</ele><time>2026-04-08T06:14:49Z</time></trkpt><trkpt lat="51.224984603023394" lon="17.181480353139268"><ele>140.83333333333334</ele><time>2026-04-08T06:14:53Z</time></trkpt><trkpt lat="51.224998255404316" lon="17.18133969895052"><ele>140.66666666666666</ele><time>2026-04-08T06:14:55Z</time></trkpt><trkpt lat="51.224981523230625" lon="17.181222768327626"><ele>140.5</ele><time>2026-04-08T06:14:57Z</time></trkpt><trkpt lat="51.2249772248961" lon="17.18102053681163"><ele>140.33333333333331</ele><time>2026-04-08T06:14:59Z</time></trkpt><trkpt lat="51.22497631280684" lon="17.180916337497468"><ele>140.16666666666666</ele><time>2026-04-08T06:15:00Z</time></trkpt><trkpt lat="51.22497849967035" lon="17.180811774276616"><ele>140.0</ele><time>2026-04-08T06:15:01Z</time></trkpt><trkpt lat="51.22497591195244" lon="17.180704203008535"><ele>140.14285714285714</ele><time>2026-04-08T06:15:02Z</time></trkpt><trkpt lat="51.22497036669397" lon="17.180599040489966"><ele>140.28571428571428</ele><time>2026-04-08T06:15:03Z</time></trkpt><trkpt lat="51.224969004479945" lon="17.18048860660486"><ele>140.42857142857144</ele><time>2026-04-08T06:15:04Z</time></trkpt><trkpt lat="51.224968755985415" lon="17.180387290965495"><ele>140.57142857142856</ele><time>2026-04-08T06:15:05Z</time></trkpt><trkpt lat="51.224971429634174" lon="17.180284359862124"><ele>140.71428571428572</ele><time>2026-04-08T06:15:06Z</time></trkpt><trkpt lat="51.22497118628636" lon="17.180180788585755"><ele>140.85714285714286</ele><time>2026-04-08T06:15:07Z</time></trkpt><trkpt lat="51.22497022248165" lon="17.180068397808533"><ele>141.0</ele><time>2026-04-08T06:15:08Z</time></trkpt><trkpt lat="51.22496926594217" lon="17.17994208231618"><ele>141.0</ele><time>2026-04-08T06:15:09Z</time></trkpt><trkpt lat="51.22496448508214" lon="17.179800310500635"><ele>141.0</ele><time>2026-04-08T06:15:10Z</time></trkpt><trkpt lat="51.22496223408448" lon="17.17966028339687"><ele>141.0</ele><time>2026-04-08T06:15:11Z</time></trkpt><trkpt lat="51.22496327702434" lon="17.179526517743703"><ele>141.0</ele><time>2026-04-08T06:15:12Z</time></trkpt><trkpt lat="51.22496189310304" lon="17.179390220648273"><ele>141.0</ele><time>2026-04-08T06:15:13Z</time></trkpt><trkpt lat="51.22495673512515" lon="17.17925459150423"><ele>141.0</ele><time>2026-04-08T06:15:14Z</time></trkpt><trkpt lat="51.224953392201634" lon="17.179115112147095"><ele>140.83333333333334</ele><time>2026-04-08T06:15:15Z</time></trkpt><trkpt lat="51.224951301609266" lon="17.17897928017353"><ele>140.66666666666666</ele><time>2026-04-08T06:15:16Z</time></trkpt><trkpt lat="51.224949551112246" lon="17.17884790626035"><ele>140.5</ele><time>2026-04-08T06:15:17Z</time></trkpt><trkpt lat="51.22494694208604" lon="17.178724744629164"><ele>140.33333333333331</ele><time>2026-04-08T06:15:18Z</time></trkpt><trkpt lat="51.22493946091458" lon="17.17861549517129"><ele>140.16666666666666</ele><time>2026-04-08T06:15:19Z</time></trkpt><trkpt lat="51.22491702104345" lon="17.178511234482283"><ele>140.0</ele><time>2026-04-08T06:15:20Z</time></trkpt><trkpt lat="51.22488109979658" lon="17.17840680060191"><ele>140.0</ele><time>2026-04-08T06:15:21Z</time></trkpt><trkpt lat="51.22482818127614" lon="17.17831913733958"><ele>140.0</ele><time>2026-04-08T06:15:22Z</time></trkpt><trkpt lat="51.22475676218709" lon="17.17823533364561"><ele>140.0</ele><time>2026-04-08T06:15:23Z</time></trkpt><trkpt lat="51.224677515543995" lon="17.178157322041773"><ele>140.0</ele><time>2026-04-08T06:15:24Z</time></trkpt><trkpt lat="51.224587905808924" lon="17.178083355885914"><ele>140.0</ele><time>2026-04-08T06:15:25Z</time></trkpt><trkpt lat="51.22449755577078" lon="17.17801217294677"><ele>139.83333333333331</ele><time>2026-04-08T06:15:26Z</time></trkpt><trkpt lat="51.22441384519355" lon="17.177953834697618"><ele>139.66666666666666</ele><time>2026-04-08T06:15:27Z</time></trkpt><trkpt lat="51.22433023140737" lon="17.17788911487234"><ele>139.5</ele><time>2026-04-08T06:15:28Z</time></trkpt><trkpt lat="51.22424709469225" lon="17.177825404280984"><ele>139.33333333333334</ele><time>2026-04-08T06:15:29Z</time></trkpt><trkpt lat="51.22416595953693" lon="17.177768064964706"><ele>139.16666666666669</ele><time>2026-04-08T06:15:30Z</time></trkpt><trkpt lat="51.224088097472375" lon="17.17771642485896"><ele>139.0</ele><time>2026-04-08T06:15:31Z</time></trkpt><trkpt lat="51.2240125589194" lon="17.177667057676192"><ele>138.8</ele><time>2026-04-08T06:15:32Z</time></trkpt><trkpt lat="51.223939451496015" lon="17.17760172349318"><ele>138.60000000000002</ele><time>2026-04-08T06:15:33Z</time></trkpt><trkpt lat="51.22386270670423" lon="17.17752667166459"><ele>138.4</ele><time>2026-04-08T06:15:34Z</time></trkpt><trkpt lat="51.22378336176405" lon="17.177416440212323"><ele>138.20000000000002</ele><time>2026-04-08T06:15:35Z</time></trkpt><trkpt lat="51.22371363886134" lon="17.177279891942597"><ele>138.0</ele><time>2026-04-08T06:15:36Z</time></trkpt><trkpt lat="51.223630155001565" lon="17.177156350830675"><ele>137.75</ele><time>2026-04-08T06:15:37Z</time></trkpt><trkpt lat="51.22355550826394" lon="17.17702645624487"><ele>137.5</ele><time>2026-04-08T06:15:38Z</time></trkpt><trkpt lat="51.223472464009376" lon="17.17689576606031"><ele>137.25</ele><time>2026-04-08T06:15:39Z</time></trkpt><trkpt lat="51.223384502867006" lon="17.176766490268086"><ele>137.0</ele><time>2026-04-08T06:15:40Z</time></trkpt><trkpt lat="51.22329616349971" lon="17.176626060769333"><ele>137.0</ele><time>2026-04-08T06:15:41Z</time></trkpt><trkpt lat="51.22320473087594" lon="17.17647887023121"><ele>137.0</ele><time>2026-04-08T06:15:42Z</time></trkpt><trkpt lat="51.22310675117343" lon="17.176346706799702"><ele>137.0</ele><time>2026-04-08T06:15:43Z</time></trkpt><trkpt lat="51.223011640486895" lon="17.176244760142687"><ele>137.0</ele><time>2026-04-08T06:15:44Z</time></trkpt><trkpt lat="51.22293082146687" lon="17.176155185098082"><ele>136.83333333333331</ele><time>2026-04-08T06:15:45Z</time></trkpt><trkpt lat="51.222864596238296" lon="17.17607611035914"><ele>136.66666666666666</ele><time>2026-04-08T06:15:46Z</time></trkpt><trkpt lat="51.22281278573504" lon="17.176013531681882"><ele>136.5</ele><time>2026-04-08T06:15:47Z</time></trkpt><trkpt lat="51.22280015966288" lon="17.17585806814251"><ele>136.33333333333334</ele><time>2026-04-08T06:15:48.999Z</time></trkpt><trkpt lat="51.22282653307263" lon="17.175760332102676"><ele>136.16666666666669</ele><time>2026-04-08T06:15:49.999Z</time></trkpt><trkpt lat="51.222869502105446" lon="17.175651418959312"><ele>136.0</ele><time>2026-04-08T06:15:50.999Z</time></trkpt><trkpt lat="51.222912803023014" lon="17.175530410604452"><ele>136.0</ele><time>2026-04-08T06:15:51.999Z</time></trkpt><trkpt lat="51.222956236574696" lon="17.17539178881674"><ele>136.0</ele><time>2026-04-08T06:15:52.999Z</time></trkpt><trkpt lat="51.22300391653728" lon="17.175238425274554"><ele>136.0</ele><time>2026-04-08T06:15:53.999Z</time></trkpt><trkpt lat="51.22305837852838" lon="17.175075755617577"><ele>136.0</ele><time>2026-04-08T06:15:54.999Z</time></trkpt><trkpt lat="51.223112958164705" lon="17.174896684989896"><ele>136.0</ele><time>2026-04-08T06:15:55.999Z</time></trkpt><trkpt lat="51.22315711129765" lon="17.174705688573212"><ele>136.75</ele><time>2026-04-08T06:15:56.999Z</time></trkpt><trkpt lat="51.223189818058046" lon="17.174513628749857"><ele>137.5</ele><time>2026-04-08T06:15:57.999Z</time></trkpt><trkpt lat="51.22320915023394" lon="17.17432719365884"><ele>138.25</ele><time>2026-04-08T06:15:58.999Z</time></trkpt><trkpt lat="51.22319214142972" lon="17.17413471137165"><ele>139.0</ele><time>2026-04-08T06:15:59.999Z</time></trkpt><trkpt lat="51.22316141087004" lon="17.17393960692455"><ele>138.75</ele><time>2026-04-08T06:16:00.999Z</time></trkpt><trkpt lat="51.223132764866534" lon="17.17373616835623"><ele>138.5</ele><time>2026-04-08T06:16:01.999Z</time></trkpt><trkpt lat="51.223090946101564" lon="17.173539231496093"><ele>138.25</ele><time>2026-04-08T06:16:02.999Z</time></trkpt><trkpt lat="51.22305648057353" lon="17.173351190157184"><ele>138.0</ele><time>2026-04-08T06:16:03.999Z</time></trkpt><trkpt lat="51.22304332051939" lon="17.173174864540464"><ele>138.0</ele><time>2026-04-08T06:16:04.999Z</time></trkpt><trkpt lat="51.2230378323759" lon="17.173008285470015"><ele>138.0</ele><time>2026-04-08T06:16:05.999Z</time></trkpt><trkpt lat="51.22302924006377" lon="17.172830622407446"><ele>138.0</ele><time>2026-04-08T06:16:06.999Z</time></trkpt><trkpt lat="51.22301846554905" lon="17.172650078120572"><ele>138.0</ele><time>2026-04-08T06:16:07.999Z</time></trkpt><trkpt lat="51.223019743898384" lon="17.172469935205648"><ele>138.0</ele><time>2026-04-08T06:16:08.999Z</time></trkpt><trkpt lat="51.22301687696088" lon="17.172294930622062"><ele>138.0</ele><time>2026-04-08T06:16:09.999Z</time></trkpt><trkpt lat="51.22302235861002" lon="17.172123317821075"><ele>138.0</ele><time>2026-04-08T06:16:10.999Z</time></trkpt><trkpt lat="51.22302030621035" lon="17.171948960480176"><ele>138.0</ele><time>2026-04-08T06:16:11.999Z</time></trkpt><trkpt lat="51.22302463249873" lon="17.171770902489392"><ele>138.0</ele><time>2026-04-08T06:16:12.999Z</time></trkpt><trkpt lat="51.22304880754556" lon="17.17159451584094"><ele>138.0</ele><time>2026-04-08T06:16:13.999Z</time></trkpt><trkpt lat="51.223083881550444" lon="17.17143385436665"><ele>138.0</ele><time>2026-04-08T06:16:14.999Z</time></trkpt><trkpt lat="51.223123249206665" lon="17.171270383318184"><ele>138.0</ele><time>2026-04-08T06:16:15.999Z</time></trkpt><trkpt lat="51.223178048826874" lon="17.17111810645429"><ele>138.0</ele><time>2026-04-08T06:16:16.999Z</time></trkpt><trkpt lat="51.22323889968446" lon="17.170978135364628"><ele>138.0</ele><time>2026-04-08T06:16:17.999Z</time></trkpt><trkpt lat="51.22328838364085" lon="17.17082903586608"><ele>138.0</ele><time>2026-04-08T06:16:18.999Z</time></trkpt><trkpt lat="51.22330786728955" lon="17.17066921384283"><ele>138.0</ele><time>2026-04-08T06:16:19.999Z</time></trkpt><trkpt lat="51.223305742015945" lon="17.17050885399264"><ele>138.0</ele><time>2026-04-08T06:16:20.999Z</time></trkpt><trkpt lat="51.22329419449148" lon="17.170365022790914"><ele>138.0</ele><time>2026-04-08T06:16:21.999Z</time></trkpt><trkpt lat="51.22329434174434" lon="17.170255212775828"><ele>138.0</ele><time>2026-04-08T06:16:22.999Z</time></trkpt><trkpt lat="51.22330997321715" lon="17.170136398101047"><ele>138.0</ele><time>2026-04-08T06:16:24.999Z</time></trkpt><trkpt lat="51.22346453217227" lon="17.170171825144326"><ele>138.0</ele><time>2026-04-08T06:16:26.999Z</time></trkpt><trkpt lat="51.223544146773946" lon="17.170191340253734"><ele>138.0</ele><time>2026-04-08T06:16:27.999Z</time></trkpt><trkpt lat="51.22363433964424" lon="17.170203734671272"><ele>138.0</ele><time>2026-04-08T06:16:28.999Z</time></trkpt><trkpt lat="51.22373607867493" lon="17.17021386468948"><ele>138.0</ele><time>2026-04-08T06:16:29.999Z</time></trkpt><trkpt lat="51.22385031028034" lon="17.170223443267474"><ele>138.0</ele><time>2026-04-08T06:16:30.999Z</time></trkpt><trkpt lat="51.22397273043487" lon="17.170238878243662"><ele>137.75</ele><time>2026-04-08T06:16:31.999Z</time></trkpt><trkpt lat="51.224096559888515" lon="17.17024718224895"><ele>137.5</ele><time>2026-04-08T06:16:32.999Z</time></trkpt><trkpt lat="51.22423201553119" lon="17.17026166668362"><ele>137.25</ele><time>2026-04-08T06:16:33.999Z</time></trkpt><trkpt lat="51.224369324738355" lon="17.170275631969087"><ele>137.0</ele><time>2026-04-08T06:16:34.999Z</time></trkpt><trkpt lat="51.22451112623025" lon="17.17029061048616"><ele>137.0</ele><time>2026-04-08T06:16:35.999Z</time></trkpt><trkpt lat="51.22465053457362" lon="17.170301760882108"><ele>137.0</ele><time>2026-04-08T06:16:36.999Z</time></trkpt><trkpt lat="51.224791443255384" lon="17.170315128371957"><ele>137.0</ele><time>2026-04-08T06:16:37.999Z</time></trkpt><trkpt lat="51.224926888853325" lon="17.170327687452154"><ele>137.0</ele><time>2026-04-08T06:16:38.999Z</time></trkpt><trkpt lat="51.22506213943542" lon="17.170335078541648"><ele>137.25</ele><time>2026-04-08T06:16:39.999Z</time></trkpt><trkpt lat="51.225194147637225" lon="17.170333093067015"><ele>137.5</ele><time>2026-04-08T06:16:40.999Z</time></trkpt><trkpt lat="51.2253336602239" lon="17.170368464284987"><ele>137.75</ele><time>2026-04-08T06:16:41.999Z</time></trkpt><trkpt lat="51.22547901646474" lon="17.170382458120265"><ele>138.0</ele><time>2026-04-08T06:16:42.999Z</time></trkpt><trkpt lat="51.22561398497933" lon="17.170401767210652"><ele>138.25</ele><time>2026-04-08T06:16:43.999Z</time></trkpt><trkpt lat="51.22574461122021" lon="17.170437319993695"><ele>138.5</ele><time>2026-04-08T06:16:44.999Z</time></trkpt><trkpt lat="51.22585715648997" lon="17.170491898961338"><ele>138.75</ele><time>2026-04-08T06:16:45.999Z</time></trkpt><trkpt lat="51.22595418011447" lon="17.17055668381751"><ele>139.0</ele><time>2026-04-08T06:16:46.999Z</time></trkpt><trkpt lat="51.226038909310844" lon="17.170632665135226"><ele>139.0</ele><time>2026-04-08T06:16:47.999Z</time></trkpt><trkpt lat="51.226109801707594" lon="17.170704960611356"><ele>139.0</ele><time>2026-04-08T06:16:48.999Z</time></trkpt><trkpt lat="51.226180160097464" lon="17.1707990337569"><ele>139.0</ele><time>2026-04-08T06:16:51Z</time></trkpt><trkpt lat="51.22624140181664" lon="17.17090489825818"><ele>139.0</ele><time>2026-04-08T06:17:00Z</time></trkpt><trkpt lat="51.226294582475816" lon="17.17098870633334"><ele>139.0</ele><time>2026-04-08T06:17:01Z</time></trkpt><trkpt lat="51.226330717103096" lon="17.171072237787786"><ele>139.0</ele><time>2026-04-08T06:17:02Z</time></trkpt><trkpt lat="51.2265052309008" lon="17.170978007268847"><ele>139.0</ele><time>2026-04-08T06:17:04Z</time></trkpt><trkpt lat="51.22656740988011" lon="17.17090986171068"><ele>139.0</ele><time>2026-04-08T06:17:05Z</time></trkpt><trkpt lat="51.22664104000849" lon="17.17082661889248"><ele>139.0</ele><time>2026-04-08T06:17:06Z</time></trkpt><trkpt lat="51.22673220740925" lon="17.170739435016014"><ele>139.0</ele><time>2026-04-08T06:17:07Z</time></trkpt><trkpt lat="51.2268416934678" lon="17.17067448935496"><ele>139.0</ele><time>2026-04-08T06:17:08Z</time></trkpt><trkpt lat="51.22695991951783" lon="17.170614745200076"><ele>139.0</ele><time>2026-04-08T06:17:09Z</time></trkpt><trkpt lat="51.22709939721566" lon="17.17060399061577"><ele>139.0</ele><time>2026-04-08T06:17:10Z</time></trkpt><trkpt lat="51.2272457038523" lon="17.1706041698874"><ele>139.0</ele><time>2026-04-08T06:17:11Z</time></trkpt><trkpt lat="51.227393490875215" lon="17.17061035099078"><ele>139.0</ele><time>2026-04-08T06:17:12Z</time></trkpt><trkpt lat="51.22753247008991" lon="17.170621518222784"><ele>139.2</ele><time>2026-04-08T06:17:13Z</time></trkpt><trkpt lat="51.22765030731273" lon="17.17064111417878"><ele>139.4</ele><time>2026-04-08T06:17:14Z</time></trkpt><trkpt lat="51.22774881907114" lon="17.17068102367667"><ele>139.6</ele><time>2026-04-08T06:17:15Z</time></trkpt><trkpt lat="51.227830094680456" lon="17.17073669424941"><ele>139.8</ele><time>2026-04-08T06:17:16Z</time></trkpt><trkpt lat="51.227897895752854" lon="17.170791388581222"><ele>140.0</ele><time>2026-04-08T06:17:17Z</time></trkpt><trkpt lat="51.22798977261736" lon="17.170872655405258"><ele>140.0</ele><time>2026-04-08T06:17:19Z</time></trkpt><trkpt lat="51.22806045200575" lon="17.170935468233672"><ele>140.0</ele><time>2026-04-08T06:17:26Z</time></trkpt><trkpt lat="51.22807323330031" lon="17.170640076180106"><ele>140.0</ele><time>2026-04-08T06:17:29Z</time></trkpt><trkpt lat="51.228017972740496" lon="17.17053232049029"><ele>140.0</ele><time>2026-04-08T06:17:30Z</time></trkpt><trkpt lat="51.22796049954103" lon="17.17038857645873"><ele>140.25</ele><time>2026-04-08T06:17:31Z</time></trkpt><trkpt lat="51.22789694272242" lon="17.170219037671263"><ele>140.5</ele><time>2026-04-08T06:17:32Z</time></trkpt><trkpt lat="51.2278366889424" lon="17.17003372867983"><ele>140.75</ele><time>2026-04-08T06:17:33Z</time></trkpt><trkpt lat="51.22777281349295" lon="17.169834004760556"><ele>141.0</ele><time>2026-04-08T06:17:34Z</time></trkpt><trkpt lat="51.22770644319389" lon="17.16963604836428"><ele>141.0</ele><time>2026-04-08T06:17:35Z</time></trkpt><trkpt lat="51.227632832434416" lon="17.169436789541127"><ele>141.0</ele><time>2026-04-08T06:17:36Z</time></trkpt><trkpt lat="51.22757098837253" lon="17.16922700562749"><ele>141.0</ele><time>2026-04-08T06:17:37Z</time></trkpt><trkpt lat="51.227494319559725" lon="17.16905387744009"><ele>141.0</ele><time>2026-04-08T06:17:38Z</time></trkpt><trkpt lat="51.22742418550026" lon="17.168899306456463"><ele>141.0</ele><time>2026-04-08T06:17:39Z</time></trkpt><trkpt lat="51.22736236289724" lon="17.168771897268087"><ele>141.0</ele><time>2026-04-08T06:17:40Z</time></trkpt><trkpt lat="51.227303548284134" lon="17.168653954136875"><ele>141.0</ele><time>2026-04-08T06:17:41Z</time></trkpt><trkpt lat="51.22724529945224" lon="17.16854583595344"><ele>141.0</ele><time>2026-04-08T06:17:42Z</time></trkpt><trkpt lat="51.22719405105595" lon="17.168444192457052"><ele>141.0</ele><time>2026-04-08T06:17:43Z</time></trkpt><trkpt lat="51.22713603374393" lon="17.168319489109876"><ele>140.8</ele><time>2026-04-08T06:17:44Z</time></trkpt><trkpt lat="51.2270757484865" lon="17.168208320740078"><ele>140.6</ele><time>2026-04-08T06:17:45Z</time></trkpt><trkpt lat="51.22701932519836" lon="17.168082416182685"><ele>140.4</ele><time>2026-04-08T06:17:46Z</time></trkpt><trkpt lat="51.22696082910696" lon="17.167960233946403"><ele>140.2</ele><time>2026-04-08T06:17:47Z</time></trkpt><trkpt lat="51.226893027738846" lon="17.167818366186424"><ele>140.0</ele><time>2026-04-08T06:17:48Z</time></trkpt><trkpt lat="51.22682552204532" lon="17.16765711337139"><ele>139.75</ele><time>2026-04-08T06:17:48.999Z</time></trkpt><trkpt lat="51.22673155831522" lon="17.167513666633084"><ele>139.5</ele><time>2026-04-08T06:17:49.999Z</time></trkpt><trkpt lat="51.22664539448258" lon="17.167350779231146"><ele>139.25</ele><time>2026-04-08T06:17:50.999Z</time></trkpt><trkpt lat="51.22654770543189" lon="17.16718693796574"><ele>139.0</ele><time>2026-04-08T06:17:51.999Z</time></trkpt><trkpt lat="51.22644772444907" lon="17.16703278531235"><ele>138.75</ele><time>2026-04-08T06:17:52.999Z</time></trkpt><trkpt lat="51.22635532885988" lon="17.1668656434273"><ele>138.5</ele><time>2026-04-08T06:17:53.999Z</time></trkpt><trkpt lat="51.2262514427694" lon="17.166706710402323"><ele>138.25</ele><time>2026-04-08T06:17:54.999Z</time></trkpt><trkpt lat="51.226158581764714" lon="17.16652710801351"><ele>138.0</ele><time>2026-04-08T06:17:55.999Z</time></trkpt><trkpt lat="51.22603979839805" lon="17.1663711847006"><ele>138.0</ele><time>2026-04-08T06:17:56.999Z</time></trkpt><trkpt lat="51.225944537890165" lon="17.16619577609519"><ele>138.0</ele><time>2026-04-08T06:17:57.999Z</time></trkpt><trkpt lat="51.22584185110118" lon="17.16602627142095"><ele>138.0</ele><time>2026-04-08T06:17:58.999Z</time></trkpt><trkpt lat="51.225744286953784" lon="17.165852979325802"><ele>138.0</ele><time>2026-04-08T06:17:59.999Z</time></trkpt><trkpt lat="51.225652887495926" lon="17.165686473782113"><ele>138.25</ele><time>2026-04-08T06:18:00.999Z</time></trkpt><trkpt lat="51.22556632443822" lon="17.165513901616894"><ele>138.5</ele><time>2026-04-08T06:18:01.999Z</time></trkpt><trkpt lat="51.22548501444651" lon="17.16533629569865"><ele>138.75</ele><time>2026-04-08T06:18:02.999Z</time></trkpt><trkpt lat="51.22540425821706" lon="17.165144299787546"><ele>139.0</ele><time>2026-04-08T06:18:03.999Z</time></trkpt><trkpt lat="51.22532801390136" lon="17.16495478681612"><ele>139.0</ele><time>2026-04-08T06:18:04.999Z</time></trkpt><trkpt lat="51.22525489483971" lon="17.164763807285667"><ele>139.0</ele><time>2026-04-08T06:18:05.999Z</time></trkpt><trkpt lat="51.225170665348585" lon="17.16458822060692"><ele>139.0</ele><time>2026-04-08T06:18:06.999Z</time></trkpt><trkpt lat="51.225097385542455" lon="17.164401117458066"><ele>139.0</ele><time>2026-04-08T06:18:07.999Z</time></trkpt><trkpt lat="51.22502803933841" lon="17.164201420998484"><ele>139.0</ele><time>2026-04-08T06:18:08.999Z</time></trkpt><trkpt lat="51.224957161505166" lon="17.16403052764903"><ele>139.0</ele><time>2026-04-08T06:18:09.999Z</time></trkpt><trkpt lat="51.22488521485178" lon="17.163865237332256"><ele>139.0</ele><time>2026-04-08T06:18:10.999Z</time></trkpt><trkpt lat="51.22481333087511" lon="17.16369962018932"><ele>139.0</ele><time>2026-04-08T06:18:11.999Z</time></trkpt><trkpt lat="51.224746514055155" lon="17.163544347077504"><ele>138.66666666666669</ele><time>2026-04-08T06:18:12.999Z</time></trkpt><trkpt lat="51.224691386730385" lon="17.163426142403857"><ele>138.33333333333334</ele><time>2026-04-08T06:18:13.999Z</time></trkpt><trkpt lat="51.22465221934825" lon="17.163298874133176"><ele>138.0</ele><time>2026-04-08T06:18:14.999Z</time></trkpt><trkpt lat="51.22466486224547" lon="17.1631742062856"><ele>137.66666666666666</ele><time>2026-04-08T06:18:15.999Z</time></trkpt><trkpt lat="51.224684052686655" lon="17.163065560269747"><ele>137.33333333333331</ele><time>2026-04-08T06:18:16.999Z</time></trkpt><trkpt lat="51.22472562532164" lon="17.16294462052992"><ele>137.0</ele><time>2026-04-08T06:18:17.999Z</time></trkpt><trkpt lat="51.22474820220838" lon="17.162794114814655"><ele>137.0</ele><time>2026-04-08T06:18:18.999Z</time></trkpt><trkpt lat="51.22478006013975" lon="17.162628347957252"><ele>137.0</ele><time>2026-04-08T06:18:19.999Z</time></trkpt><trkpt lat="51.22479552771735" lon="17.16244022842116"><ele>137.0</ele><time>2026-04-08T06:18:20.999Z</time></trkpt><trkpt lat="51.22481912692498" lon="17.16225150189748"><ele>137.0</ele><time>2026-04-08T06:18:21.999Z</time></trkpt><trkpt lat="51.22483604703826" lon="17.162042901129656"><ele>137.25</ele><time>2026-04-08T06:18:22.999Z</time></trkpt><trkpt lat="51.22485043543935" lon="17.161833588310717"><ele>137.5</ele><time>2026-04-08T06:18:23.999Z</time></trkpt><trkpt lat="51.22485055799829" lon="17.161624003597375"><ele>137.75</ele><time>2026-04-08T06:18:24.999Z</time></trkpt><trkpt lat="51.2248684994806" lon="17.16138525383676"><ele>138.0</ele><time>2026-04-08T06:18:25.999Z</time></trkpt><trkpt lat="51.22490239027937" lon="17.161156401661284"><ele>138.25</ele><time>2026-04-08T06:18:26.999Z</time></trkpt><trkpt lat="51.224931704197644" lon="17.160950740734247"><ele>138.5</ele><time>2026-04-08T06:18:27.999Z</time></trkpt><trkpt lat="51.22494969242219" lon="17.160735644080226"><ele>138.75</ele><time>2026-04-08T06:18:28.999Z</time></trkpt><trkpt lat="51.22495779774028" lon="17.160510224970825"><ele>139.0</ele><time>2026-04-08T06:18:29.999Z</time></trkpt><trkpt lat="51.224979402707085" lon="17.16026812818581"><ele>139.0</ele><time>2026-04-08T06:18:30.999Z</time></trkpt><trkpt lat="51.22500566573327" lon="17.160041749977122"><ele>139.0</ele><time>2026-04-08T06:18:31.999Z</time></trkpt><trkpt lat="51.22502893303916" lon="17.15983423910432"><ele>139.0</ele><time>2026-04-08T06:18:32.999Z</time></trkpt><trkpt lat="51.22507815185065" lon="17.159643383680095"><ele>139.0</ele><time>2026-04-08T06:18:33.999Z</time></trkpt><trkpt lat="51.22510246351768" lon="17.15943820412994"><ele>139.0</ele><time>2026-04-08T06:18:34.999Z</time></trkpt><trkpt lat="51.22511246163878" lon="17.159254940664"><ele>139.0</ele><time>2026-04-08T06:18:35.999Z</time></trkpt><trkpt lat="51.22512521988507" lon="17.159072280762928"><ele>139.0</ele><time>2026-04-08T06:18:36.999Z</time></trkpt><trkpt lat="51.22518327480622" lon="17.15889729714767"><ele>139.0</ele><time>2026-04-08T06:18:37.999Z</time></trkpt><trkpt lat="51.22521627787178" lon="17.158709654770217"><ele>139.0</ele><time>2026-04-08T06:18:38.999Z</time></trkpt><trkpt lat="51.225257182871054" lon="17.158521554187196"><ele>139.0</ele><time>2026-04-08T06:18:39.999Z</time></trkpt><trkpt lat="51.22529301268588" lon="17.15831068890753"><ele>139.0</ele><time>2026-04-08T06:18:40.999Z</time></trkpt><trkpt lat="51.22533192414368" lon="17.158092169016644"><ele>139.0</ele><time>2026-04-08T06:18:41.999Z</time></trkpt><trkpt lat="51.2253759834624" lon="17.157870604977777"><ele>138.66666666666669</ele><time>2026-04-08T06:18:42.999Z</time></trkpt><trkpt lat="51.22541512507712" lon="17.157642023406925"><ele>138.33333333333334</ele><time>2026-04-08T06:18:43.999Z</time></trkpt><trkpt lat="51.22546324599286" lon="17.15740740507205"><ele>138.0</ele><time>2026-04-08T06:18:44.999Z</time></trkpt><trkpt lat="51.22550820534398" lon="17.157170101456593"><ele>138.0</ele><time>2026-04-08T06:18:45.999Z</time></trkpt><trkpt lat="51.225555685043624" lon="17.15693308170046"><ele>138.0</ele><time>2026-04-08T06:18:46.999Z</time></trkpt><trkpt lat="51.22558965644762" lon="17.156687288586934"><ele>138.0</ele><time>2026-04-08T06:18:47.999Z</time></trkpt><trkpt lat="51.22563190125294" lon="17.156456927259555"><ele>138.5</ele><time>2026-04-08T06:18:48.999Z</time></trkpt><trkpt lat="51.22566454005339" lon="17.156223294859366"><ele>139.0</ele><time>2026-04-08T06:18:49.999Z</time></trkpt><trkpt lat="51.22570324428704" lon="17.155997280023286"><ele>139.5</ele><time>2026-04-08T06:18:50.999Z</time></trkpt><trkpt lat="51.225745465388165" lon="17.155782699732008"><ele>140.0</ele><time>2026-04-08T06:18:51.999Z</time></trkpt><trkpt lat="51.22578245642182" lon="17.15555708181654"><ele>140.0</ele><time>2026-04-08T06:18:52.999Z</time></trkpt><trkpt lat="51.22582360510118" lon="17.155326184514067"><ele>140.0</ele><time>2026-04-08T06:18:53.999Z</time></trkpt><trkpt lat="51.22585364523248" lon="17.155092627712175"><ele>140.0</ele><time>2026-04-08T06:18:54.999Z</time></trkpt><trkpt lat="51.225899913774256" lon="17.15487495235847"><ele>140.0</ele><time>2026-04-08T06:18:56Z</time></trkpt><trkpt lat="51.22593289065801" lon="17.15466142463872"><ele>140.0</ele><time>2026-04-08T06:18:57Z</time></trkpt><trkpt lat="51.22597531745617" lon="17.154467830424302"><ele>140.0</ele><time>2026-04-08T06:18:58Z</time></trkpt><trkpt lat="51.226007483335614" lon="17.1542688135688"><ele>140.0</ele><time>2026-04-08T06:18:59Z</time></trkpt><trkpt lat="51.22603208624699" lon="17.154091935191655"><ele>140.0</ele><time>2026-04-08T06:19:00Z</time></trkpt><trkpt lat="51.22606063026437" lon="17.153907657165508"><ele>139.8</ele><time>2026-04-08T06:19:01Z</time></trkpt><trkpt lat="51.226089474001846" lon="17.15373539774803"><ele>139.6</ele><time>2026-04-08T06:19:02Z</time></trkpt><trkpt lat="51.22611227632872" lon="17.153555476111126"><ele>139.4</ele><time>2026-04-08T06:19:03Z</time></trkpt><trkpt lat="51.22614589194527" lon="17.15337259198884"><ele>139.2</ele><time>2026-04-08T06:19:04Z</time></trkpt><trkpt lat="51.226166655969934" lon="17.153234601715585"><ele>139.0</ele><time>2026-04-08T06:19:05Z</time></trkpt><trkpt lat="51.226193506259634" lon="17.15307324533524"><ele>139.0</ele><time>2026-04-08T06:19:06Z</time></trkpt><trkpt lat="51.22622273566386" lon="17.152888395280268"><ele>139.0</ele><time>2026-04-08T06:19:07Z</time></trkpt><trkpt lat="51.22624805374431" lon="17.15269111056598"><ele>139.0</ele><time>2026-04-08T06:19:08Z</time></trkpt><trkpt lat="51.22627955739309" lon="17.15250387041617"><ele>139.0</ele><time>2026-04-08T06:19:09Z</time></trkpt><trkpt lat="51.22630608932387" lon="17.152296287311216"><ele>139.0</ele><time>2026-04-08T06:19:10Z</time></trkpt><trkpt lat="51.226342668366506" lon="17.15210589255356"><ele>139.0</ele><time>2026-04-08T06:19:11Z</time></trkpt><trkpt lat="51.226376261454945" lon="17.15191046410079"><ele>139.0</ele><time>2026-04-08T06:19:12Z</time></trkpt><trkpt lat="51.22640628903155" lon="17.151727736650464"><ele>139.0</ele><time>2026-04-08T06:19:13Z</time></trkpt><trkpt lat="51.226432896629596" lon="17.151559500104224"><ele>139.0</ele><time>2026-04-08T06:19:14Z</time></trkpt><trkpt lat="51.226473670110195" lon="17.151402186647772"><ele>139.0</ele><time>2026-04-08T06:19:15Z</time></trkpt><trkpt lat="51.22649952212454" lon="17.151213626349456"><ele>139.0</ele><time>2026-04-08T06:19:16Z</time></trkpt><trkpt lat="51.22653097421734" lon="17.151024322760758"><ele>139.0</ele><time>2026-04-08T06:19:17Z</time></trkpt><trkpt lat="51.22655701722666" lon="17.150839572875324"><ele>139.75</ele><time>2026-04-08T06:19:18Z</time></trkpt><trkpt lat="51.226591178235616" lon="17.150657375796854"><ele>140.5</ele><time>2026-04-08T06:19:19Z</time></trkpt><trkpt lat="51.226627858618706" lon="17.1504711629295"><ele>141.25</ele><time>2026-04-08T06:19:20Z</time></trkpt><trkpt lat="51.22666201875681" lon="17.1502748116098"><ele>142.0</ele><time>2026-04-08T06:19:21Z</time></trkpt><trkpt lat="51.22670001428761" lon="17.150081945707452"><ele>142.0</ele><time>2026-04-08T06:19:22Z</time></trkpt><trkpt lat="51.22673197603942" lon="17.14990098409808"><ele>142.0</ele><time>2026-04-08T06:19:23Z</time></trkpt><trkpt lat="51.226761911214815" lon="17.149725293499834"><ele>142.0</ele><time>2026-04-08T06:19:24Z</time></trkpt><trkpt lat="51.22679436050786" lon="17.14954327652974"><ele>142.0</ele><time>2026-04-08T06:19:25Z</time></trkpt><trkpt lat="51.22682865859136" lon="17.149354962713026"><ele>142.0</ele><time>2026-04-08T06:19:26Z</time></trkpt><trkpt lat="51.22686200053662" lon="17.14916234159941"><ele>142.0</ele><time>2026-04-08T06:19:27Z</time></trkpt><trkpt lat="51.22689521887379" lon="17.148956897150082"><ele>142.0</ele><time>2026-04-08T06:19:28Z</time></trkpt><trkpt lat="51.22693053272142" lon="17.1487865365574"><ele>142.0</ele><time>2026-04-08T06:19:29Z</time></trkpt><trkpt lat="51.22696326253866" lon="17.148646804238542"><ele>142.0</ele><time>2026-04-08T06:19:30Z</time></trkpt><trkpt lat="51.22700071183181" lon="17.148536478978652"><ele>142.0</ele><time>2026-04-08T06:19:31Z</time></trkpt><trkpt lat="51.22704356578126" lon="17.148438471739933"><ele>142.0</ele><time>2026-04-08T06:19:32Z</time></trkpt><trkpt lat="51.227104930531894" lon="17.14837725491813"><ele>142.0</ele><time>2026-04-08T06:19:33Z</time></trkpt><trkpt lat="51.22717036802167" lon="17.14839066023106"><ele>142.0</ele><time>2026-04-08T06:19:34Z</time></trkpt><trkpt lat="51.227252636231796" lon="17.14842579677641"><ele>142.0</ele><time>2026-04-08T06:19:35Z</time></trkpt><trkpt lat="51.22734190593242" lon="17.148438809960727"><ele>142.5</ele><time>2026-04-08T06:19:36Z</time></trkpt><trkpt lat="51.22745020217038" lon="17.148440457977532"><ele>143.0</ele><time>2026-04-08T06:19:37Z</time></trkpt><trkpt lat="51.22755694481285" lon="17.148423437562226"><ele>143.5</ele><time>2026-04-08T06:19:38Z</time></trkpt><trkpt lat="51.22767238046713" lon="17.148379783086884"><ele>144.0</ele><time>2026-04-08T06:19:39Z</time></trkpt><trkpt lat="51.227796199358245" lon="17.148323016341287"><ele>144.0</ele><time>2026-04-08T06:19:40Z</time></trkpt><trkpt lat="51.227917025894186" lon="17.14826630851808"><ele>144.0</ele><time>2026-04-08T06:19:41Z</time></trkpt><trkpt lat="51.228026921231205" lon="17.148237778266363"><ele>144.0</ele><time>2026-04-08T06:19:42Z</time></trkpt><trkpt lat="51.2281159689092" lon="17.14819332094932"><ele>144.0</ele><time>2026-04-08T06:19:43Z</time></trkpt><trkpt lat="51.22821205699779" lon="17.148167047789954"><ele>144.0</ele><time>2026-04-08T06:19:44Z</time></trkpt><trkpt lat="51.22831411406118" lon="17.148152051724722"><ele>144.0</ele><time>2026-04-08T06:19:45Z</time></trkpt><trkpt lat="51.228399930375616" lon="17.148166821428394"><ele>144.0</ele><time>2026-04-08T06:19:46Z</time></trkpt><trkpt lat="51.228466145274155" lon="17.14816622496817"><ele>144.0</ele><time>2026-04-08T06:19:47Z</time></trkpt><trkpt lat="51.22857355906992" lon="17.148199982530215"><ele>144.0</ele><time>2026-04-08T06:19:48Z</time></trkpt><trkpt lat="51.228678149260894" lon="17.148243227758005"><ele>144.0</ele><time>2026-04-08T06:19:49Z</time></trkpt><trkpt lat="51.22880035455585" lon="17.148276984332064"><ele>144.0</ele><time>2026-04-08T06:19:50Z</time></trkpt><trkpt lat="51.22891616325098" lon="17.14833669829116"><ele>144.0</ele><time>2026-04-08T06:19:50.999Z</time></trkpt><trkpt lat="51.229040572722404" lon="17.148427896647362"><ele>144.0</ele><time>2026-04-08T06:19:51.999Z</time></trkpt><trkpt lat="51.229171080628284" lon="17.14851129789345"><ele>144.0</ele><time>2026-04-08T06:19:52.999Z</time></trkpt><trkpt lat="51.229281101086194" lon="17.148623139499986"><ele>144.0</ele><time>2026-04-08T06:19:53.999Z</time></trkpt><trkpt lat="51.22938717436013" lon="17.14870355328017"><ele>144.0</ele><time>2026-04-08T06:19:54.999Z</time></trkpt><trkpt lat="51.22948363983054" lon="17.148789874489665"><ele>144.0</ele><time>2026-04-08T06:19:55.999Z</time></trkpt><trkpt lat="51.22958912621732" lon="17.148865605867083"><ele>144.0</ele><time>2026-04-08T06:19:56.999Z</time></trkpt><trkpt lat="51.22967992519605" lon="17.148952223360048"><ele>144.0</ele><time>2026-04-08T06:19:57.999Z</time></trkpt><trkpt lat="51.22976773772053" lon="17.149009107440715"><ele>144.2</ele><time>2026-04-08T06:19:58.999Z</time></trkpt><trkpt lat="51.22981580537614" lon="17.149097083231133"><ele>144.4</ele><time>2026-04-08T06:19:59.999Z</time></trkpt><trkpt lat="51.2298894458093" lon="17.14915963205814"><ele>144.6</ele><time>2026-04-08T06:20:00.999Z</time></trkpt><trkpt lat="51.22997572299964" lon="17.149210391146536"><ele>144.8</ele><time>2026-04-08T06:20:01.999Z</time></trkpt><trkpt lat="51.23006313605463" lon="17.14928948387095"><ele>145.0</ele><time>2026-04-08T06:20:02.999Z</time></trkpt><trkpt lat="51.230150350806696" lon="17.14937098603163"><ele>145.0</ele><time>2026-04-08T06:20:03.999Z</time></trkpt><trkpt lat="51.230236955241686" lon="17.149440439888913"><ele>145.0</ele><time>2026-04-08T06:20:04.999Z</time></trkpt><trkpt lat="51.23032738852585" lon="17.149520871788564"><ele>145.0</ele><time>2026-04-08T06:20:05.999Z</time></trkpt><trkpt lat="51.23041016223995" lon="17.149588717552486"><ele>145.0</ele><time>2026-04-08T06:20:06.999Z</time></trkpt><trkpt lat="51.230483066304224" lon="17.149649275886745"><ele>145.0</ele><time>2026-04-08T06:20:07.999Z</time></trkpt><trkpt lat="51.230565706399304" lon="17.149723817838993"><ele>145.25</ele><time>2026-04-08T06:20:08.999Z</time></trkpt><trkpt lat="51.230659076853634" lon="17.149804962640808"><ele>145.5</ele><time>2026-04-08T06:20:09.999Z</time></trkpt><trkpt lat="51.23076063088846" lon="17.14988267703997"><ele>145.75</ele><time>2026-04-08T06:20:10.999Z</time></trkpt><trkpt lat="51.23086562303509" lon="17.149974394458425"><ele>146.0</ele><time>2026-04-08T06:20:11.999Z</time></trkpt><trkpt lat="51.23096833161784" lon="17.150062104690537"><ele>146.0</ele><time>2026-04-08T06:20:12.999Z</time></trkpt><trkpt lat="51.23106963086685" lon="17.150135022391044"><ele>146.0</ele><time>2026-04-08T06:20:13.999Z</time></trkpt><trkpt lat="51.23117243408756" lon="17.15021983923729"><ele>146.0</ele><time>2026-04-08T06:20:14.999Z</time></trkpt><trkpt lat="51.23127587836484" lon="17.15030334138431"><ele>146.0</ele><time>2026-04-08T06:20:15.999Z</time></trkpt><trkpt lat="51.23137367509724" lon="17.150384980451687"><ele>146.0</ele><time>2026-04-08T06:20:16.999Z</time></trkpt><trkpt lat="51.231464940241494" lon="17.150452769771988"><ele>146.0</ele><time>2026-04-08T06:20:17.999Z</time></trkpt><trkpt lat="51.23156033258683" lon="17.150526958392113"><ele>146.0</ele><time>2026-04-08T06:20:18.999Z</time></trkpt><trkpt lat="51.23166369704477" lon="17.150606266447785"><ele>146.0</ele><time>2026-04-08T06:20:19.999Z</time></trkpt><trkpt lat="51.23176925373897" lon="17.150694394559228"><ele>146.0</ele><time>2026-04-08T06:20:20.999Z</time></trkpt><trkpt lat="51.23188215186068" lon="17.150776289197225"><ele>146.5</ele><time>2026-04-08T06:20:21.999Z</time></trkpt><trkpt lat="51.23199653898469" lon="17.15086840621856"><ele>147.0</ele><time>2026-04-08T06:20:22.999Z</time></trkpt><trkpt lat="51.23211714997591" lon="17.15095276794119"><ele>147.5</ele><time>2026-04-08T06:20:23.999Z</time></trkpt><trkpt lat="51.23223719344013" lon="17.151050420781512"><ele>148.0</ele><time>2026-04-08T06:20:24.999Z</time></trkpt><trkpt lat="51.23234939672939" lon="17.151133989467052"><ele>148.5</ele><time>2026-04-08T06:20:25.999Z</time></trkpt><trkpt lat="51.232434543623" lon="17.151201280085964"><ele>149.0</ele><time>2026-04-08T06:20:26.999Z</time></trkpt><trkpt lat="51.23250789110729" lon="17.151268600452305"><ele>149.5</ele><time>2026-04-08T06:20:27.999Z</time></trkpt><trkpt lat="51.23256964461544" lon="17.151312270104405"><ele>150.0</ele><time>2026-04-08T06:20:28.999Z</time></trkpt><trkpt lat="51.23264979331486" lon="17.15136002009921"><ele>150.5</ele><time>2026-04-08T06:20:30.999Z</time></trkpt><trkpt lat="51.232713257635695" lon="17.15123173229042"><ele>151.0</ele><time>2026-04-08T06:20:32.999Z</time></trkpt><trkpt lat="51.23272307707303" lon="17.151119492678006"><ele>151.0</ele><time>2026-04-08T06:20:33.999Z</time></trkpt><trkpt lat="51.23271036741193" lon="17.150973033082224"><ele>151.0</ele><time>2026-04-08T06:20:34.999Z</time></trkpt><trkpt lat="51.232692411000436" lon="17.150799722208667"><ele>151.0</ele><time>2026-04-08T06:20:35.999Z</time></trkpt><trkpt lat="51.23269092249116" lon="17.15061604304573"><ele>151.0</ele><time>2026-04-08T06:20:36.999Z</time></trkpt><trkpt lat="51.23267779974077" lon="17.150419964398573"><ele>151.0</ele><time>2026-04-08T06:20:37.999Z</time></trkpt><trkpt lat="51.23266789960474" lon="17.150207250252475"><ele>150.75</ele><time>2026-04-08T06:20:38.999Z</time></trkpt><trkpt lat="51.23266019557966" lon="17.14997953299999"><ele>150.5</ele><time>2026-04-08T06:20:39.999Z</time></trkpt><trkpt lat="51.232653367017534" lon="17.1497377664896"><ele>150.25</ele><time>2026-04-08T06:20:40.999Z</time></trkpt><trkpt lat="51.23264676364809" lon="17.149493712417485"><ele>150.0</ele><time>2026-04-08T06:20:41.999Z</time></trkpt><trkpt lat="51.232645230597235" lon="17.14924488904205"><ele>150.0</ele><time>2026-04-08T06:20:42.999Z</time></trkpt><trkpt lat="51.23264501728358" lon="17.148994712668035"><ele>150.0</ele><time>2026-04-08T06:20:43.999Z</time></trkpt><trkpt lat="51.232644319136874" lon="17.148736434803507"><ele>150.0</ele><time>2026-04-08T06:20:44.999Z</time></trkpt><trkpt lat="51.232646821888764" lon="17.14848354698063"><ele>150.0</ele><time>2026-04-08T06:20:45.999Z</time></trkpt><trkpt lat="51.23265175103511" lon="17.148214774289425"><ele>150.0</ele><time>2026-04-08T06:20:46.999Z</time></trkpt><trkpt lat="51.232655367433296" lon="17.147946325952915"><ele>150.0</ele><time>2026-04-08T06:20:47.999Z</time></trkpt><trkpt lat="51.23266318588918" lon="17.1476713825403"><ele>150.0</ele><time>2026-04-08T06:20:48.999Z</time></trkpt><trkpt lat="51.23266867427556" lon="17.147394843656905"><ele>150.0</ele><time>2026-04-08T06:20:49.999Z</time></trkpt><trkpt lat="51.232676231422644" lon="17.147111732724838"><ele>150.0</ele><time>2026-04-08T06:20:50.999Z</time></trkpt><trkpt lat="51.232682182707336" lon="17.146826981902283"><ele>150.33333333333334</ele><time>2026-04-08T06:20:51.999Z</time></trkpt><trkpt lat="51.23268269850903" lon="17.146558826516596"><ele>150.66666666666669</ele><time>2026-04-08T06:20:52.999Z</time></trkpt><trkpt lat="51.232684251607736" lon="17.146300969116044"><ele>151.0</ele><time>2026-04-08T06:20:53.999Z</time></trkpt><trkpt lat="51.2326849500261" lon="17.146047069935804"><ele>151.0</ele><time>2026-04-08T06:20:54.999Z</time></trkpt><trkpt lat="51.23268393038708" lon="17.1458012916345"><ele>151.0</ele><time>2026-04-08T06:20:55.999Z</time></trkpt><trkpt lat="51.23267528272001" lon="17.145557544544513"><ele>151.0</ele><time>2026-04-08T06:20:56.999Z</time></trkpt><trkpt lat="51.2326542929525" lon="17.14532231446361"><ele>150.66666666666669</ele><time>2026-04-08T06:20:57.999Z</time></trkpt><trkpt lat="51.23263142384135" lon="17.145078867694842"><ele>150.33333333333334</ele><time>2026-04-08T06:20:58.999Z</time></trkpt><trkpt lat="51.232615653605805" lon="17.144840504064955"><ele>150.0</ele><time>2026-04-08T06:20:59.999Z</time></trkpt><trkpt lat="51.232593870089886" lon="17.144604511227342"><ele>150.0</ele><time>2026-04-08T06:21:00.999Z</time></trkpt><trkpt lat="51.232576968974044" lon="17.14437072011868"><ele>150.0</ele><time>2026-04-08T06:21:02Z</time></trkpt><trkpt lat="51.232570233213515" lon="17.144142451179412"><ele>150.0</ele><time>2026-04-08T06:21:03Z</time></trkpt><trkpt lat="51.23258295531796" lon="17.14391007994207"><ele>150.0</ele><time>2026-04-08T06:21:04Z</time></trkpt><trkpt lat="51.232604948020175" lon="17.143681654321473"><ele>150.66666666666666</ele><time>2026-04-08T06:21:05Z</time></trkpt><trkpt lat="51.23262855349415" lon="17.14344419194447"><ele>151.33333333333331</ele><time>2026-04-08T06:21:06Z</time></trkpt><trkpt lat="51.23266121120421" lon="17.143209005346023"><ele>152.0</ele><time>2026-04-08T06:21:07Z</time></trkpt><trkpt lat="51.232698801260355" lon="17.142963030970996"><ele>152.0</ele><time>2026-04-08T06:21:08Z</time></trkpt><trkpt lat="51.232729490773394" lon="17.142725766451875"><ele>152.0</ele><time>2026-04-08T06:21:09Z</time></trkpt><trkpt lat="51.232751006495725" lon="17.142468569465823"><ele>152.0</ele><time>2026-04-08T06:21:10Z</time></trkpt><trkpt lat="51.23277675999135" lon="17.142203963551644"><ele>152.0</ele><time>2026-04-08T06:21:11Z</time></trkpt><trkpt lat="51.232799344916586" lon="17.14193731264469"><ele>152.0</ele><time>2026-04-08T06:21:12Z</time></trkpt><trkpt lat="51.23282845808781" lon="17.141678324022603"><ele>152.0</ele><time>2026-04-08T06:21:13Z</time></trkpt><trkpt lat="51.23285921985544" lon="17.14143425345178"><ele>151.75</ele><time>2026-04-08T06:21:14Z</time></trkpt><trkpt lat="51.23288253747649" lon="17.141203048547844"><ele>151.5</ele><time>2026-04-08T06:21:15Z</time></trkpt><trkpt lat="51.232911952781855" lon="17.141002625399842"><ele>151.25</ele><time>2026-04-08T06:21:16Z</time></trkpt><trkpt lat="51.232935166128144" lon="17.140790358258123"><ele>151.0</ele><time>2026-04-08T06:21:17Z</time></trkpt><trkpt lat="51.23297652380979" lon="17.140583768780868"><ele>151.0</ele><time>2026-04-08T06:21:18Z</time></trkpt><trkpt lat="51.23300443563045" lon="17.140380846901387"><ele>151.0</ele><time>2026-04-08T06:21:19Z</time></trkpt><trkpt lat="51.233022659303394" lon="17.140194414929457"><ele>151.0</ele><time>2026-04-08T06:21:20Z</time></trkpt><trkpt lat="51.23304550304141" lon="17.14001578440223"><ele>151.0</ele><time>2026-04-08T06:21:21Z</time></trkpt><trkpt lat="51.23304817613121" lon="17.139860369185907"><ele>151.25</ele><time>2026-04-08T06:21:22Z</time></trkpt><trkpt lat="51.233061922519575" lon="17.13968986755266"><ele>151.5</ele><time>2026-04-08T06:21:23Z</time></trkpt><trkpt lat="51.23305158087392" lon="17.13953609176129"><ele>151.75</ele><time>2026-04-08T06:21:24Z</time></trkpt><trkpt lat="51.23289848291382" lon="17.139408790116313"><ele>152.0</ele><time>2026-04-08T06:21:25Z</time></trkpt><trkpt lat="51.23279629697254" lon="17.139302032402128"><ele>152.0</ele><time>2026-04-08T06:21:26Z</time></trkpt><trkpt lat="51.23267436937071" lon="17.13919572141216"><ele>152.0</ele><time>2026-04-08T06:21:27Z</time></trkpt><trkpt lat="51.23255476269225" lon="17.139042850862932"><ele>152.0</ele><time>2026-04-08T06:21:28Z</time></trkpt><trkpt lat="51.23244900446441" lon="17.138945700324275"><ele>152.0</ele><time>2026-04-08T06:21:29Z</time></trkpt><trkpt lat="51.232309758854015" lon="17.13881680062436"><ele>151.33333333333331</ele><time>2026-04-08T06:21:30Z</time></trkpt><trkpt lat="51.23217914890842" lon="17.138660025074213"><ele>150.66666666666666</ele><time>2026-04-08T06:21:31Z</time></trkpt><trkpt lat="51.23204466476302" lon="17.138525023688008"><ele>150.0</ele><time>2026-04-08T06:21:32Z</time></trkpt><trkpt lat="51.23191542765223" lon="17.13839832572287"><ele>150.0</ele><time>2026-04-08T06:21:33Z</time></trkpt><trkpt lat="51.23179053777355" lon="17.138279474746003"><ele>150.0</ele><time>2026-04-08T06:21:34Z</time></trkpt><trkpt lat="51.23167010752477" lon="17.138170246813125"><ele>150.0</ele><time>2026-04-08T06:21:35Z</time></trkpt><trkpt lat="51.23155788756072" lon="17.13811125100526"><ele>150.0</ele><time>2026-04-08T06:21:36Z</time></trkpt><trkpt lat="51.231457360236334" lon="17.138046782877915"><ele>150.0</ele><time>2026-04-08T06:21:37Z</time></trkpt><trkpt lat="51.231344045516785" lon="17.138016795305727"><ele>150.0</ele><time>2026-04-08T06:21:38Z</time></trkpt><trkpt lat="51.231212762395515" lon="17.137990474005544"><ele>150.0</ele><time>2026-04-08T06:21:39Z</time></trkpt><trkpt lat="51.23107510606357" lon="17.1379383822541"><ele>150.0</ele><time>2026-04-08T06:21:40Z</time></trkpt><trkpt lat="51.230932051311875" lon="17.137899268538973"><ele>150.0</ele><time>2026-04-08T06:21:41Z</time></trkpt><trkpt lat="51.230814641784455" lon="17.137835533473062"><ele>150.0</ele><time>2026-04-08T06:21:42Z</time></trkpt><trkpt lat="51.23071064093228" lon="17.13774732375895"><ele>150.0</ele><time>2026-04-08T06:21:43Z</time></trkpt><trkpt lat="51.23062498200713" lon="17.137617664712163"><ele>150.0</ele><time>2026-04-08T06:21:44Z</time></trkpt><trkpt lat="51.23056099448486" lon="17.137465275289895"><ele>149.25</ele><time>2026-04-08T06:21:45Z</time></trkpt><trkpt lat="51.23049528734791" lon="17.137291717545995"><ele>148.5</ele><time>2026-04-08T06:21:46Z</time></trkpt><trkpt lat="51.23042868519696" lon="17.13709941501395"><ele>147.75</ele><time>2026-04-08T06:21:47Z</time></trkpt><trkpt lat="51.23036224085524" lon="17.136895885005217"><ele>147.0</ele><time>2026-04-08T06:21:48Z</time></trkpt><trkpt lat="51.23033579346165" lon="17.136715509751486"><ele>147.25</ele><time>2026-04-08T06:21:49Z</time></trkpt><trkpt lat="51.230328938202014" lon="17.136520561183186"><ele>147.5</ele><time>2026-04-08T06:21:50Z</time></trkpt><trkpt lat="51.230345159698615" lon="17.13635470967294"><ele>147.75</ele><time>2026-04-08T06:21:51Z</time></trkpt><trkpt lat="51.230408396346114" lon="17.13618122557902"><ele>148.0</ele><time>2026-04-08T06:21:52Z</time></trkpt><trkpt lat="51.23045614004924" lon="17.135992352588566"><ele>148.0</ele><time>2026-04-08T06:21:53Z</time></trkpt><trkpt lat="51.23051575095716" lon="17.13579833721382"><ele>148.0</ele><time>2026-04-08T06:21:54Z</time></trkpt><trkpt lat="51.23057399370412" lon="17.135596649717826"><ele>148.0</ele><time>2026-04-08T06:21:55Z</time></trkpt><trkpt lat="51.23063247540778" lon="17.13538544001283"><ele>148.0</ele><time>2026-04-08T06:21:56Z</time></trkpt><trkpt lat="51.230692396790126" lon="17.13516615063948"><ele>148.0</ele><time>2026-04-08T06:21:57Z</time></trkpt><trkpt lat="51.230751124039955" lon="17.13494012559202"><ele>148.0</ele><time>2026-04-08T06:21:57.999Z</time></trkpt><trkpt lat="51.23081336820617" lon="17.134708264257736"><ele>148.0</ele><time>2026-04-08T06:21:58.999Z</time></trkpt><trkpt lat="51.23087764673576" lon="17.13447566413619"><ele>148.66666666666669</ele><time>2026-04-08T06:21:59.999Z</time></trkpt><trkpt lat="51.230946018138326" lon="17.1342371658803"><ele>149.33333333333334</ele><time>2026-04-08T06:22:00.999Z</time></trkpt><trkpt lat="51.231009322702036" lon="17.133991797312465"><ele>150.0</ele><time>2026-04-08T06:22:01.999Z</time></trkpt><trkpt lat="51.231067135211866" lon="17.133744949397762"><ele>150.0</ele><time>2026-04-08T06:22:02.999Z</time></trkpt><trkpt lat="51.23111981204237" lon="17.133494182058918"><ele>150.0</ele><time>2026-04-08T06:22:03.999Z</time></trkpt><trkpt lat="51.23117563273838" lon="17.133236232104696"><ele>150.0</ele><time>2026-04-08T06:22:04.999Z</time></trkpt><trkpt lat="51.231208264778196" lon="17.132975590238974"><ele>150.0</ele><time>2026-04-08T06:22:05.999Z</time></trkpt><trkpt lat="51.231241897284725" lon="17.132715850284004"><ele>150.0</ele><time>2026-04-08T06:22:06.999Z</time></trkpt><trkpt lat="51.23126852622022" lon="17.13244732633341"><ele>150.0</ele><time>2026-04-08T06:22:07.999Z</time></trkpt><trkpt lat="51.231300336833804" lon="17.132184454267392"><ele>150.0</ele><time>2026-04-08T06:22:08.999Z</time></trkpt><trkpt lat="51.23133477396747" lon="17.13192450665536"><ele>150.0</ele><time>2026-04-08T06:22:09.999Z</time></trkpt><trkpt lat="51.2313679809967" lon="17.131662722476054"><ele>150.0</ele><time>2026-04-08T06:22:10.999Z</time></trkpt><trkpt lat="51.23140422096526" lon="17.13139963145762"><ele>150.0</ele><time>2026-04-08T06:22:11.999Z</time></trkpt><trkpt lat="51.23143455619155" lon="17.13113640178557"><ele>150.0</ele><time>2026-04-08T06:22:12.999Z</time></trkpt><trkpt lat="51.231467407688704" lon="17.130870381514757"><ele>150.0</ele><time>2026-04-08T06:22:13.999Z</time></trkpt><trkpt lat="51.23150885304647" lon="17.130610857856965"><ele>151.0</ele><time>2026-04-08T06:22:14.999Z</time></trkpt><trkpt lat="51.23154328724479" lon="17.130336839494614"><ele>152.0</ele><time>2026-04-08T06:22:15.999Z</time></trkpt><trkpt lat="51.23158641543372" lon="17.130065922911726"><ele>153.0</ele><time>2026-04-08T06:22:16.999Z</time></trkpt><trkpt lat="51.231635891539966" lon="17.129801132298233"><ele>153.0</ele><time>2026-04-08T06:22:17.999Z</time></trkpt><trkpt lat="51.23168273332793" lon="17.12953333745713"><ele>153.0</ele><time>2026-04-08T06:22:18.999Z</time></trkpt><trkpt lat="51.23173946952116" lon="17.129263857306665"><ele>153.0</ele><time>2026-04-08T06:22:19.999Z</time></trkpt><trkpt lat="51.231788706865046" lon="17.128998811578725"><ele>152.66666666666666</ele><time>2026-04-08T06:22:20.999Z</time></trkpt><trkpt lat="51.23183849972848" lon="17.128736001663977"><ele>152.33333333333331</ele><time>2026-04-08T06:22:21.999Z</time></trkpt><trkpt lat="51.23189477928938" lon="17.128470630953366"><ele>152.0</ele><time>2026-04-08T06:22:22.999Z</time></trkpt><trkpt lat="51.23193944699632" lon="17.128190626334394"><ele>151.66666666666666</ele><time>2026-04-08T06:22:23.999Z</time></trkpt><trkpt lat="51.2319917800411" lon="17.12792735468393"><ele>151.33333333333334</ele><time>2026-04-08T06:22:24.999Z</time></trkpt><trkpt lat="51.23204901656465" lon="17.12766752752799"><ele>151.0</ele><time>2026-04-08T06:22:25.999Z</time></trkpt><trkpt lat="51.23211610835363" lon="17.127416959477024"><ele>150.33333333333334</ele><time>2026-04-08T06:22:26.999Z</time></trkpt><trkpt lat="51.23218734066992" lon="17.12717405618619"><ele>149.66666666666666</ele><time>2026-04-08T06:22:27.999Z</time></trkpt><trkpt lat="51.23227071902217" lon="17.12693443595185"><ele>149.0</ele><time>2026-04-08T06:22:28.999Z</time></trkpt><trkpt lat="51.23235452429651" lon="17.126702746173603"><ele>150.66666666666666</ele><time>2026-04-08T06:22:29.999Z</time></trkpt><trkpt lat="51.232440012311024" lon="17.126476307061854"><ele>152.33333333333334</ele><time>2026-04-08T06:22:30.999Z</time></trkpt><trkpt lat="51.232525098417504" lon="17.126243701070397"><ele>154.0</ele><time>2026-04-08T06:22:31.999Z</time></trkpt><trkpt lat="51.23260877120039" lon="17.1260158064948"><ele>154.0</ele><time>2026-04-08T06:22:32.999Z</time></trkpt><trkpt lat="51.23271002343797" lon="17.125802240609957"><ele>154.0</ele><time>2026-04-08T06:22:33.999Z</time></trkpt><trkpt lat="51.2327975021573" lon="17.12557445539819"><ele>154.0</ele><time>2026-04-08T06:22:34.999Z</time></trkpt><trkpt lat="51.232871457435266" lon="17.12533152707872"><ele>154.0</ele><time>2026-04-08T06:22:35.999Z</time></trkpt><trkpt lat="51.23297493051333" lon="17.125112232516276"><ele>154.0</ele><time>2026-04-08T06:22:36.999Z</time></trkpt><trkpt lat="51.23305086829508" lon="17.12486870162256"><ele>154.0</ele><time>2026-04-08T06:22:37.999Z</time></trkpt><trkpt lat="51.233138520590146" lon="17.124622397921396"><ele>154.0</ele><time>2026-04-08T06:22:38.999Z</time></trkpt><trkpt lat="51.233231289507394" lon="17.12438444660041"><ele>154.0</ele><time>2026-04-08T06:22:39.999Z</time></trkpt><trkpt lat="51.233324190184796" lon="17.124145511622842"><ele>154.0</ele><time>2026-04-08T06:22:40.999Z</time></trkpt><trkpt lat="51.233404208903636" lon="17.12390131232285"><ele>154.0</ele><time>2026-04-08T06:22:41.999Z</time></trkpt><trkpt lat="51.23347387159442" lon="17.123655340014288"><ele>154.0</ele><time>2026-04-08T06:22:42.999Z</time></trkpt><trkpt lat="51.23353887765138" lon="17.12339840853583"><ele>154.0</ele><time>2026-04-08T06:22:43.999Z</time></trkpt><trkpt lat="51.23360578103593" lon="17.12313801664242"><ele>154.33333333333334</ele><time>2026-04-08T06:22:44.999Z</time></trkpt><trkpt lat="51.23366944256262" lon="17.122873338406567"><ele>154.66666666666666</ele><time>2026-04-08T06:22:45.999Z</time></trkpt><trkpt lat="51.233731952645435" lon="17.122612326223443"><ele>155.0</ele><time>2026-04-08T06:22:46.999Z</time></trkpt><trkpt lat="51.233793034458174" lon="17.12235642718593"><ele>155.0</ele><time>2026-04-08T06:22:47.999Z</time></trkpt><trkpt lat="51.23384918478986" lon="17.122112098234666"><ele>155.0</ele><time>2026-04-08T06:22:48.999Z</time></trkpt><trkpt lat="51.233901197681334" lon="17.121880560255274"><ele>155.0</ele><time>2026-04-08T06:22:49.999Z</time></trkpt><trkpt lat="51.23395024650813" lon="17.12167475020055"><ele>155.0</ele><time>2026-04-08T06:22:50.999Z</time></trkpt><trkpt lat="51.233993585150216" lon="17.121493616710815"><ele>155.0</ele><time>2026-04-08T06:22:51.999Z</time></trkpt><trkpt lat="51.23402776704036" lon="17.121348855392466"><ele>155.0</ele><time>2026-04-08T06:22:52.999Z</time></trkpt><trkpt lat="51.23405634497898" lon="17.12121475372805"><ele>155.0</ele><time>2026-04-08T06:22:53.999Z</time></trkpt><trkpt lat="51.23408214171734" lon="17.121117848061928"><ele>155.0</ele><time>2026-04-08T06:22:54.999Z</time></trkpt><trkpt lat="51.23410968607494" lon="17.121000622686577"><ele>155.0</ele><time>2026-04-08T06:22:56.999Z</time></trkpt><trkpt lat="51.23414091056438" lon="17.1208592425964"><ele>155.0</ele><time>2026-04-08T06:23:00.999Z</time></trkpt><trkpt lat="51.23410850026918" lon="17.120659732754433"><ele>155.0</ele><time>2026-04-08T06:23:02.999Z</time></trkpt><trkpt lat="51.233993887413725" lon="17.120581269619137"><ele>155.0</ele><time>2026-04-08T06:23:03.999Z</time></trkpt><trkpt lat="51.233919461206895" lon="17.120477078093526"><ele>155.0</ele><time>2026-04-08T06:23:04.999Z</time></trkpt><trkpt lat="51.233834157101185" lon="17.120352308682772"><ele>154.75</ele><time>2026-04-08T06:23:05.999Z</time></trkpt><trkpt lat="51.23373866559278" lon="17.12021901814321"><ele>154.5</ele><time>2026-04-08T06:23:06.999Z</time></trkpt><trkpt lat="51.23363256167613" lon="17.120074713069748"><ele>154.25</ele><time>2026-04-08T06:23:08Z</time></trkpt><trkpt lat="51.23352372965875" lon="17.11992838582684"><ele>154.0</ele><time>2026-04-08T06:23:09Z</time></trkpt><trkpt lat="51.23342957766801" lon="17.119798828235457"><ele>153.8</ele><time>2026-04-08T06:23:10Z</time></trkpt><trkpt lat="51.233361450636615" lon="17.1197052063387"><ele>153.60000000000002</ele><time>2026-04-08T06:23:11Z</time></trkpt><trkpt lat="51.23330308798672" lon="17.11962266504643"><ele>153.4</ele><time>2026-04-08T06:23:12Z</time></trkpt><trkpt lat="51.23325174497381" lon="17.1195511085227"><ele>153.20000000000002</ele><time>2026-04-08T06:23:13Z</time></trkpt><trkpt lat="51.233214982276905" lon="17.119389941104675"><ele>153.0</ele><time>2026-04-08T06:23:15Z</time></trkpt><trkpt lat="51.2332881011759" lon="17.11926308193932"><ele>153.0</ele><time>2026-04-08T06:23:17Z</time></trkpt><trkpt lat="51.23335655065649" lon="17.119235673751035"><ele>153.0</ele><time>2026-04-08T06:23:18Z</time></trkpt><trkpt lat="51.233439261242644" lon="17.119202072673815"><ele>153.0</ele><time>2026-04-08T06:23:19Z</time></trkpt><trkpt lat="51.23352958969295" lon="17.119156696661392"><ele>153.0</ele><time>2026-04-08T06:23:20Z</time></trkpt><trkpt lat="51.23361655956916" lon="17.11911003183417"><ele>153.0</ele><time>2026-04-08T06:23:21Z</time></trkpt><trkpt lat="51.233685099988854" lon="17.119073242098665"><ele>153.0</ele><time>2026-04-08T06:23:22Z</time></trkpt><trkpt lat="51.23376318258471" lon="17.119060101361146"><ele>153.0</ele><time>2026-04-08T06:23:23Z</time></trkpt><trkpt lat="51.233840215434824" lon="17.119021494939876"><ele>153.0</ele><time>2026-04-08T06:23:24Z</time></trkpt><trkpt lat="51.23390961899922" lon="17.118966672966383"><ele>153.0</ele><time>2026-04-08T06:23:25Z</time></trkpt><trkpt lat="51.23397493037027" lon="17.11894309345187"><ele>153.0</ele><time>2026-04-08T06:23:26Z</time></trkpt><trkpt lat="51.23403935257021" lon="17.118944093768107"><ele>153.0</ele><time>2026-04-08T06:23:27Z</time></trkpt><trkpt lat="51.23415477055866" lon="17.118899352239126"><ele>153.0</ele><time>2026-04-08T06:23:29Z</time></trkpt><trkpt lat="51.234217634038075" lon="17.118874331251188"><ele>153.0</ele><time>2026-04-08T06:23:30Z</time></trkpt><trkpt lat="51.23428870842085" lon="17.11884604214981"><ele>153.0</ele><time>2026-04-08T06:23:31Z</time></trkpt><trkpt lat="51.23437385107385" lon="17.1188121535809"><ele>153.0</ele><time>2026-04-08T06:23:32Z</time></trkpt><trkpt lat="51.234462457775635" lon="17.11874646496945"><ele>153.0</ele><time>2026-04-08T06:23:33Z</time></trkpt><trkpt lat="51.234562432036185" lon="17.118727409258092"><ele>153.0</ele><time>2026-04-08T06:23:34Z</time></trkpt><trkpt lat="51.23466040764817" lon="17.118682116140167"><ele>153.0</ele><time>2026-04-08T06:23:35Z</time></trkpt><trkpt lat="51.234754758517674" lon="17.11863849870054"><ele>153.0</ele><time>2026-04-08T06:23:36Z</time></trkpt><trkpt lat="51.23484671250432" lon="17.11859540194779"><ele>153.0</ele><time>2026-04-08T06:23:37Z</time></trkpt><trkpt lat="51.23492801715857" lon="17.118557092473498"><ele>153.0</ele><time>2026-04-08T06:23:38Z</time></trkpt><trkpt lat="51.23498935416112" lon="17.11850066060573"><ele>153.0</ele><time>2026-04-08T06:23:39Z</time></trkpt><trkpt lat="51.23508763693143" lon="17.118456045555032"><ele>153.20000000000002</ele><time>2026-04-08T06:23:41Z</time></trkpt><trkpt lat="51.23519143424388" lon="17.118430323118755"><ele>153.4</ele><time>2026-04-08T06:23:43Z</time></trkpt><trkpt lat="51.23527614803775" lon="17.11837816412742"><ele>153.60000000000002</ele><time>2026-04-08T06:23:45Z</time></trkpt><trkpt lat="51.23536579272898" lon="17.11832677988446"><ele>153.8</ele><time>2026-04-08T06:23:47Z</time></trkpt><trkpt lat="51.23546885314075" lon="17.118268568476218"><ele>154.0</ele><time>2026-04-08T06:23:49Z</time></trkpt><trkpt lat="51.23558304389794" lon="17.118196118432664"><ele>153.83333333333334</ele><time>2026-04-08T06:23:51Z</time></trkpt><trkpt lat="51.235644192794766" lon="17.118157374146573"><ele>153.66666666666669</ele><time>2026-04-08T06:23:52Z</time></trkpt><trkpt lat="51.235724540971134" lon="17.11811161153843"><ele>153.5</ele><time>2026-04-08T06:23:53Z</time></trkpt><trkpt lat="51.235811198164676" lon="17.118070796029613"><ele>153.33333333333334</ele><time>2026-04-08T06:23:54Z</time></trkpt><trkpt lat="51.23589176934116" lon="17.118039625922208"><ele>153.16666666666666</ele><time>2026-04-08T06:23:55Z</time></trkpt><trkpt lat="51.235965611537246" lon="17.118012935452622"><ele>153.0</ele><time>2026-04-08T06:23:56Z</time></trkpt><trkpt lat="51.23607821820852" lon="17.117975854010552"><ele>153.0</ele><time>2026-04-08T06:23:58Z</time></trkpt><trkpt lat="51.2361477250176" lon="17.1179529653793"><ele>153.0</ele><time>2026-04-08T06:23:59Z</time></trkpt><trkpt lat="51.236230632905865" lon="17.117936692071925"><ele>153.0</ele><time>2026-04-08T06:24:00Z</time></trkpt><trkpt lat="51.23631768880627" lon="17.11789566314924"><ele>153.0</ele><time>2026-04-08T06:24:01Z</time></trkpt><trkpt lat="51.23640485103439" lon="17.117852568120288"><ele>153.0</ele><time>2026-04-08T06:24:02Z</time></trkpt><trkpt lat="51.236500704367394" lon="17.117799222207985"><ele>153.0</ele><time>2026-04-08T06:24:03Z</time></trkpt><trkpt lat="51.23660398988343" lon="17.117742357161465"><ele>153.5</ele><time>2026-04-08T06:24:04Z</time></trkpt><trkpt lat="51.23670128820214" lon="17.11766279497517"><ele>154.0</ele><time>2026-04-08T06:24:05Z</time></trkpt><trkpt lat="51.23680810226993" lon="17.117600905345412"><ele>154.5</ele><time>2026-04-08T06:24:06Z</time></trkpt><trkpt lat="51.236916966188474" lon="17.11753331299452"><ele>155.0</ele><time>2026-04-08T06:24:07Z</time></trkpt><trkpt lat="51.23701538127059" lon="17.11744831592027"><ele>155.0</ele><time>2026-04-08T06:24:08Z</time></trkpt><trkpt lat="51.23712434858294" lon="17.11741483205966"><ele>155.0</ele><time>2026-04-08T06:24:08.999Z</time></trkpt><trkpt lat="51.23722905486172" lon="17.117356900294425"><ele>155.0</ele><time>2026-04-08T06:24:09.999Z</time></trkpt><trkpt lat="51.23733089123575" lon="17.117300556336804"><ele>155.0</ele><time>2026-04-08T06:24:10.999Z</time></trkpt><trkpt lat="51.23741853256281" lon="17.117233607502236"><ele>155.0</ele><time>2026-04-08T06:24:11.999Z</time></trkpt><trkpt lat="51.23751261546322" lon="17.117183050417566"><ele>154.6</ele><time>2026-04-08T06:24:12.999Z</time></trkpt><trkpt lat="51.237598169888955" lon="17.117132761720335"><ele>154.2</ele><time>2026-04-08T06:24:13.999Z</time></trkpt><trkpt lat="51.23766430926734" lon="17.11709753932819"><ele>153.8</ele><time>2026-04-08T06:24:14.999Z</time></trkpt><trkpt lat="51.23778524987506" lon="17.117030642826133"><ele>153.4</ele><time>2026-04-08T06:24:16.999Z</time></trkpt><trkpt lat="51.23785891836092" lon="17.116977180971357"><ele>153.0</ele><time>2026-04-08T06:24:17.999Z</time></trkpt><trkpt lat="51.23794646296388" lon="17.116950858151625"><ele>153.0</ele><time>2026-04-08T06:24:18.999Z</time></trkpt><trkpt lat="51.23802989678838" lon="17.116898674214557"><ele>153.0</ele><time>2026-04-08T06:24:19.999Z</time></trkpt><trkpt lat="51.23812159147957" lon="17.116841508547974"><ele>153.0</ele><time>2026-04-08T06:24:20.999Z</time></trkpt><trkpt lat="51.238221915956125" lon="17.11676262656186"><ele>153.0</ele><time>2026-04-08T06:24:21.999Z</time></trkpt><trkpt lat="51.23832624380369" lon="17.116683672340788"><ele>153.0</ele><time>2026-04-08T06:24:22.999Z</time></trkpt><trkpt lat="51.23843440081223" lon="17.116602118617216"><ele>153.75</ele><time>2026-04-08T06:24:23.999Z</time></trkpt><trkpt lat="51.238535597112225" lon="17.116532826423235"><ele>154.5</ele><time>2026-04-08T06:24:24.999Z</time></trkpt><trkpt lat="51.238649566788624" lon="17.116459463781077"><ele>155.25</ele><time>2026-04-08T06:24:25.999Z</time></trkpt><trkpt lat="51.238763314710766" lon="17.11637770576433"><ele>156.0</ele><time>2026-04-08T06:24:26.999Z</time></trkpt><trkpt lat="51.23887986007218" lon="17.116301198787042"><ele>155.75</ele><time>2026-04-08T06:24:27.999Z</time></trkpt><trkpt lat="51.238995246317714" lon="17.116227202864366"><ele>155.5</ele><time>2026-04-08T06:24:28.999Z</time></trkpt><trkpt lat="51.239101456068305" lon="17.116148619156252"><ele>155.25</ele><time>2026-04-08T06:24:29.999Z</time></trkpt><trkpt lat="51.2392092428959" lon="17.116078593769334"><ele>155.0</ele><time>2026-04-08T06:24:30.999Z</time></trkpt><trkpt lat="51.23930304304368" lon="17.11600166934868"><ele>155.0</ele><time>2026-04-08T06:24:31.999Z</time></trkpt><trkpt lat="51.23940791811134" lon="17.115917748379736"><ele>155.0</ele><time>2026-04-08T06:24:32.999Z</time></trkpt><trkpt lat="51.239511162261344" lon="17.115830129900935"><ele>155.0</ele><time>2026-04-08T06:24:33.999Z</time></trkpt><trkpt lat="51.23961771383719" lon="17.11574001680916"><ele>155.0</ele><time>2026-04-08T06:24:34.999Z</time></trkpt><trkpt lat="51.239731619675666" lon="17.11564323085337"><ele>155.25</ele><time>2026-04-08T06:24:35.999Z</time></trkpt><trkpt lat="51.239849605719705" lon="17.115565827228288"><ele>155.5</ele><time>2026-04-08T06:24:36.999Z</time></trkpt><trkpt lat="51.23995752364128" lon="17.115459202406324"><ele>155.75</ele><time>2026-04-08T06:24:37.999Z</time></trkpt><trkpt lat="51.24006383026136" lon="17.115351222824227"><ele>156.0</ele><time>2026-04-08T06:24:38.999Z</time></trkpt><trkpt lat="51.24017500355527" lon="17.11524565540366"><ele>156.0</ele><time>2026-04-08T06:24:39.999Z</time></trkpt><trkpt lat="51.240273297482794" lon="17.115141555591542"><ele>156.0</ele><time>2026-04-08T06:24:40.999Z</time></trkpt><trkpt lat="51.240371602825036" lon="17.115069509779854"><ele>156.0</ele><time>2026-04-08T06:24:41.999Z</time></trkpt><trkpt lat="51.24045367616592" lon="17.11498621777351"><ele>156.0</ele><time>2026-04-08T06:24:42.999Z</time></trkpt><trkpt lat="51.240527618775594" lon="17.114878430291032"><ele>156.0</ele><time>2026-04-08T06:24:43.999Z</time></trkpt><trkpt lat="51.240615370568854" lon="17.11479035140196"><ele>156.0</ele><time>2026-04-08T06:24:44.999Z</time></trkpt><trkpt lat="51.24070572189223" lon="17.114699042941606"><ele>156.0</ele><time>2026-04-08T06:24:45.999Z</time></trkpt><trkpt lat="51.2408006957372" lon="17.11459820023971"><ele>156.0</ele><time>2026-04-08T06:24:46.999Z</time></trkpt><trkpt lat="51.240902432635544" lon="17.114507565306035"><ele>156.0</ele><time>2026-04-08T06:24:47.999Z</time></trkpt><trkpt lat="51.241004756236386" lon="17.11439467975526"><ele>156.0</ele><time>2026-04-08T06:24:48.999Z</time></trkpt><trkpt lat="51.241097928891094" lon="17.11426002240228"><ele>156.0</ele><time>2026-04-08T06:24:49.999Z</time></trkpt><trkpt lat="51.241212683315354" lon="17.114147149731693"><ele>156.0</ele><time>2026-04-08T06:24:50.999Z</time></trkpt><trkpt lat="51.241321652066084" lon="17.114035843108578"><ele>156.0</ele><time>2026-04-08T06:24:51.999Z</time></trkpt><trkpt lat="51.24142930671181" lon="17.113914340728794"><ele>156.5</ele><time>2026-04-08T06:24:52.999Z</time></trkpt><trkpt lat="51.24154281956861" lon="17.11380095406962"><ele>157.0</ele><time>2026-04-08T06:24:53.999Z</time></trkpt><trkpt lat="51.24165112281416" lon="17.113695218180663"><ele>157.5</ele><time>2026-04-08T06:24:54.999Z</time></trkpt><trkpt lat="51.24174891858969" lon="17.113582735697378"><ele>158.0</ele><time>2026-04-08T06:24:55.999Z</time></trkpt><trkpt lat="51.24183349548155" lon="17.11348310405937"><ele>158.0</ele><time>2026-04-08T06:24:56.999Z</time></trkpt><trkpt lat="51.24191896113099" lon="17.113383488719595"><ele>158.0</ele><time>2026-04-08T06:24:57.999Z</time></trkpt><trkpt lat="51.24200623700836" lon="17.113265404234003"><ele>158.0</ele><time>2026-04-08T06:24:58.999Z</time></trkpt><trkpt lat="51.242117116864954" lon="17.11318587719718"><ele>158.0</ele><time>2026-04-08T06:24:59.999Z</time></trkpt><trkpt lat="51.24220435405555" lon="17.113069777617657"><ele>158.20000000000002</ele><time>2026-04-08T06:25:00.999Z</time></trkpt><trkpt lat="51.242307500652025" lon="17.112995019550333"><ele>158.4</ele><time>2026-04-08T06:25:01.999Z</time></trkpt><trkpt lat="51.24239965409903" lon="17.11290000340931"><ele>158.60000000000002</ele><time>2026-04-08T06:25:02.999Z</time></trkpt><trkpt lat="51.24248759251904" lon="17.112808335546735"><ele>158.8</ele><time>2026-04-08T06:25:03.999Z</time></trkpt><trkpt lat="51.24258014277124" lon="17.112711860315393"><ele>159.0</ele><time>2026-04-08T06:25:04.999Z</time></trkpt><trkpt lat="51.24267490110168" lon="17.112613083294846"><ele>159.0</ele><time>2026-04-08T06:25:05.999Z</time></trkpt><trkpt lat="51.2427697436503" lon="17.11251421851711"><ele>159.0</ele><time>2026-04-08T06:25:06.999Z</time></trkpt><trkpt lat="51.24286069350183" lon="17.112419411524478"><ele>159.0</ele><time>2026-04-08T06:25:07.999Z</time></trkpt><trkpt lat="51.242946739749286" lon="17.112304661280394"><ele>159.0</ele><time>2026-04-08T06:25:08.999Z</time></trkpt><trkpt lat="51.24304354033411" lon="17.1122156617477"><ele>159.0</ele><time>2026-04-08T06:25:09.999Z</time></trkpt><trkpt lat="51.2431265773855" lon="17.112091956040576"><ele>159.25</ele><time>2026-04-08T06:25:10.999Z</time></trkpt><trkpt lat="51.24322296651667" lon="17.11199176246439"><ele>159.5</ele><time>2026-04-08T06:25:11.999Z</time></trkpt><trkpt lat="51.24332416583967" lon="17.111888310899424"><ele>159.75</ele><time>2026-04-08T06:25:12.999Z</time></trkpt><trkpt lat="51.2434243261781" lon="17.111776187982947"><ele>160.0</ele><time>2026-04-08T06:25:14Z</time></trkpt><trkpt lat="51.2435286259475" lon="17.111674984492737"><ele>160.0</ele><time>2026-04-08T06:25:15Z</time></trkpt><trkpt lat="51.24362872631997" lon="17.111567448079423"><ele>160.0</ele><time>2026-04-08T06:25:16Z</time></trkpt><trkpt lat="51.24373112617213" lon="17.111454748021803"><ele>160.0</ele><time>2026-04-08T06:25:17Z</time></trkpt><trkpt lat="51.243824760880536" lon="17.111351282654052"><ele>160.0</ele><time>2026-04-08T06:25:18Z</time></trkpt><trkpt lat="51.24390129538006" lon="17.111273655341147"><ele>160.0</ele><time>2026-04-08T06:25:19Z</time></trkpt><trkpt lat="51.2439722621039" lon="17.111225756593324"><ele>160.0</ele><time>2026-04-08T06:25:20Z</time></trkpt><trkpt lat="51.24407360706426" lon="17.111113925449974"><ele>160.0</ele><time>2026-04-08T06:25:22Z</time></trkpt><trkpt lat="51.244142541152335" lon="17.111037598883563"><ele>160.0</ele><time>2026-04-08T06:25:23Z</time></trkpt><trkpt lat="51.24420757712265" lon="17.110965588685605"><ele>160.0</ele><time>2026-04-08T06:25:24Z</time></trkpt><trkpt lat="51.24427297707228" lon="17.110893175313258"><ele>160.0</ele><time>2026-04-08T06:25:25Z</time></trkpt><trkpt lat="51.244335138413085" lon="17.11082434783615"><ele>160.0</ele><time>2026-04-08T06:25:26Z</time></trkpt><trkpt lat="51.24439480366015" lon="17.11073495582169"><ele>160.0</ele><time>2026-04-08T06:25:27Z</time></trkpt><trkpt lat="51.244471848762075" lon="17.110675809363855"><ele>160.0</ele><time>2026-04-08T06:25:28Z</time></trkpt><trkpt lat="51.244539695564825" lon="17.11060443563139"><ele>160.0</ele><time>2026-04-08T06:25:29Z</time></trkpt><trkpt lat="51.244605804309955" lon="17.110537232705912"><ele>160.0</ele><time>2026-04-08T06:25:30Z</time></trkpt><trkpt lat="51.244674293859894" lon="17.110470657001997"><ele>160.0</ele><time>2026-04-08T06:25:31Z</time></trkpt><trkpt lat="51.24473887300459" lon="17.11037528334708"><ele>160.0</ele><time>2026-04-08T06:25:32Z</time></trkpt><trkpt lat="51.24481792588837" lon="17.11029001338504"><ele>160.33333333333334</ele><time>2026-04-08T06:25:33Z</time></trkpt><trkpt lat="51.244898899590844" lon="17.110210495703235"><ele>160.66666666666669</ele><time>2026-04-08T06:25:34Z</time></trkpt><trkpt lat="51.24497027239" lon="17.110130650264228"><ele>161.0</ele><time>2026-04-08T06:25:35Z</time></trkpt><trkpt lat="51.24502963524059" lon="17.110071970389612"><ele>161.33333333333334</ele><time>2026-04-08T06:25:36Z</time></trkpt><trkpt lat="51.24508508977316" lon="17.110021370795685"><ele>161.66666666666666</ele><time>2026-04-08T06:25:37Z</time></trkpt><trkpt lat="51.24518817675266" lon="17.109918309047703"><ele>162.0</ele><time>2026-04-08T06:25:39Z</time></trkpt><trkpt lat="51.24529754688004" lon="17.10994729585501"><ele>162.0</ele><time>2026-04-08T06:25:40Z</time></trkpt><trkpt lat="51.24537714899886" lon="17.109876902418005"><ele>162.0</ele><time>2026-04-08T06:25:41Z</time></trkpt><trkpt lat="51.245468474298235" lon="17.109787757848153"><ele>162.0</ele><time>2026-04-08T06:25:42Z</time></trkpt><trkpt lat="51.24557211430623" lon="17.109689378557988"><ele>162.0</ele><time>2026-04-08T06:25:43Z</time></trkpt><trkpt lat="51.2456724011813" lon="17.109572927624423"><ele>162.0</ele><time>2026-04-08T06:25:44Z</time></trkpt><trkpt lat="51.24577866203333" lon="17.10945206519314"><ele>162.25</ele><time>2026-04-08T06:25:45Z</time></trkpt><trkpt lat="51.245889667344" lon="17.1093343579173"><ele>162.5</ele><time>2026-04-08T06:25:46Z</time></trkpt><trkpt lat="51.24600563989375" lon="17.109214641803653"><ele>162.75</ele><time>2026-04-08T06:25:47Z</time></trkpt><trkpt lat="51.24612156328715" lon="17.109084295811428"><ele>163.0</ele><time>2026-04-08T06:25:48Z</time></trkpt><trkpt lat="51.24624409394168" lon="17.10895633935431"><ele>163.0</ele><time>2026-04-08T06:25:49Z</time></trkpt><trkpt lat="51.246369188537756" lon="17.10882436106623"><ele>163.0</ele><time>2026-04-08T06:25:50Z</time></trkpt><trkpt lat="51.24644117816784" lon="17.10856429191784"><ele>163.0</ele><time>2026-04-08T06:25:51Z</time></trkpt><trkpt lat="51.24657029111361" lon="17.1084263386176"><ele>163.66666666666669</ele><time>2026-04-08T06:25:52Z</time></trkpt><trkpt lat="51.24669677201302" lon="17.108294698650052"><ele>164.33333333333334</ele><time>2026-04-08T06:25:53Z</time></trkpt><trkpt lat="51.246827800406066" lon="17.108164666933945"><ele>165.0</ele><time>2026-04-08T06:25:54Z</time></trkpt><trkpt lat="51.246951407093704" lon="17.10804148177706"><ele>165.0</ele><time>2026-04-08T06:25:55Z</time></trkpt><trkpt lat="51.247081416001656" lon="17.107906560576847"><ele>165.0</ele><time>2026-04-08T06:25:56Z</time></trkpt><trkpt lat="51.247207315777445" lon="17.107775269505375"><ele>165.0</ele><time>2026-04-08T06:25:57Z</time></trkpt><trkpt lat="51.24733303594747" lon="17.10763847935563"><ele>165.66666666666666</ele><time>2026-04-08T06:25:58Z</time></trkpt><trkpt lat="51.24745373751284" lon="17.107497398171148"><ele>166.33333333333331</ele><time>2026-04-08T06:25:59Z</time></trkpt><trkpt lat="51.24759549691948" lon="17.107352325457992"><ele>167.0</ele><time>2026-04-08T06:26:00Z</time></trkpt><trkpt lat="51.24772772928925" lon="17.107226750064015"><ele>167.33333333333331</ele><time>2026-04-08T06:26:01Z</time></trkpt><trkpt lat="51.24785168629018" lon="17.107090936092106"><ele>167.66666666666666</ele><time>2026-04-08T06:26:02Z</time></trkpt><trkpt lat="51.247979398660306" lon="17.10694374614352"><ele>168.0</ele><time>2026-04-08T06:26:03Z</time></trkpt><trkpt lat="51.248104268471664" lon="17.106797353544497"><ele>168.33333333333334</ele><time>2026-04-08T06:26:04Z</time></trkpt><trkpt lat="51.24823803011233" lon="17.106653056795743"><ele>168.66666666666669</ele><time>2026-04-08T06:26:05Z</time></trkpt><trkpt lat="51.24836658665033" lon="17.106517678998635"><ele>169.0</ele><time>2026-04-08T06:26:06Z</time></trkpt><trkpt lat="51.24849622389404" lon="17.106381163400567"><ele>169.0</ele><time>2026-04-08T06:26:07Z</time></trkpt><trkpt lat="51.248629985911286" lon="17.10624331232276"><ele>169.0</ele><time>2026-04-08T06:26:08Z</time></trkpt><trkpt lat="51.24876077423206" lon="17.1061063986999"><ele>169.0</ele><time>2026-04-08T06:26:09Z</time></trkpt><trkpt lat="51.248891441156346" lon="17.105960448750587"><ele>169.0</ele><time>2026-04-08T06:26:10Z</time></trkpt><trkpt lat="51.24902638697294" lon="17.105820751749448"><ele>169.0</ele><time>2026-04-08T06:26:11Z</time></trkpt><trkpt lat="51.24914899234043" lon="17.10569358508657"><ele>169.0</ele><time>2026-04-08T06:26:12Z</time></trkpt><trkpt lat="51.249278410466324" lon="17.105552603338626"><ele>169.0</ele><time>2026-04-08T06:26:12.999Z</time></trkpt><trkpt lat="51.249405245051896" lon="17.105412892131504"><ele>169.0</ele><time>2026-04-08T06:26:13.999Z</time></trkpt><trkpt lat="51.249537392381924" lon="17.1052661198055"><ele>169.0</ele><time>2026-04-08T06:26:14.999Z</time></trkpt><trkpt lat="51.249665714167236" lon="17.1051235963484"><ele>169.0</ele><time>2026-04-08T06:26:15.999Z</time></trkpt><trkpt lat="51.249791560897656" lon="17.104982950289845"><ele>169.0</ele><time>2026-04-08T06:26:16.999Z</time></trkpt><trkpt lat="51.24991904830413" lon="17.104840277608567"><ele>169.0</ele><time>2026-04-08T06:26:17.999Z</time></trkpt><trkpt lat="51.25004579399391" lon="17.104698867058065"><ele>169.0</ele><time>2026-04-08T06:26:18.999Z</time></trkpt><trkpt lat="51.250180041144645" lon="17.10455310091114"><ele>169.0</ele><time>2026-04-08T06:26:19.999Z</time></trkpt><trkpt lat="51.25031488232033" lon="17.10442135567137"><ele>169.0</ele><time>2026-04-08T06:26:20.999Z</time></trkpt><trkpt lat="51.250447045669084" lon="17.104278648554146"><ele>169.0</ele><time>2026-04-08T06:26:21.999Z</time></trkpt><trkpt lat="51.250582751151434" lon="17.104132116812096"><ele>169.0</ele><time>2026-04-08T06:26:22.999Z</time></trkpt><trkpt lat="51.25071603217692" lon="17.10398955803167"><ele>169.0</ele><time>2026-04-08T06:26:23.999Z</time></trkpt><trkpt lat="51.25084958047973" lon="17.103846331004032"><ele>169.66666666666669</ele><time>2026-04-08T06:26:24.999Z</time></trkpt><trkpt lat="51.25098114095318" lon="17.10369802339842"><ele>170.33333333333334</ele><time>2026-04-08T06:26:25.999Z</time></trkpt><trkpt lat="51.2511029986557" lon="17.103546360503532"><ele>171.0</ele><time>2026-04-08T06:26:26.999Z</time></trkpt><trkpt lat="51.25122606264104" lon="17.103407922248206"><ele>171.0</ele><time>2026-04-08T06:26:27.999Z</time></trkpt><trkpt lat="51.251357686091204" lon="17.103264153068103"><ele>171.0</ele><time>2026-04-08T06:26:28.999Z</time></trkpt><trkpt lat="51.251471847151734" lon="17.103142454050264"><ele>171.0</ele><time>2026-04-08T06:26:29.999Z</time></trkpt><trkpt lat="51.251567373796306" lon="17.1030406199692"><ele>171.0</ele><time>2026-04-08T06:26:30.999Z</time></trkpt><trkpt lat="51.25165599195001" lon="17.102946150472064"><ele>170.8</ele><time>2026-04-08T06:26:31.999Z</time></trkpt><trkpt lat="51.25172387266498" lon="17.102873787813593"><ele>170.60000000000002</ele><time>2026-04-08T06:26:32.999Z</time></trkpt><trkpt lat="51.251797745118886" lon="17.102795037619437"><ele>170.4</ele><time>2026-04-08T06:26:33.999Z</time></trkpt><trkpt lat="51.25185063587027" lon="17.102738654611663"><ele>170.2</ele><time>2026-04-08T06:26:34.999Z</time></trkpt><trkpt lat="51.2519220529754" lon="17.102663220193435"><ele>170.0</ele><time>2026-04-08T06:26:35.999Z</time></trkpt><trkpt lat="51.25209062944969" lon="17.102486291985866"><ele>170.25</ele><time>2026-04-08T06:26:36.999Z</time></trkpt><trkpt lat="51.25222549027021" lon="17.10234474991838"><ele>170.5</ele><time>2026-04-08T06:26:37.999Z</time></trkpt><trkpt lat="51.25235183611148" lon="17.10221214455184"><ele>170.75</ele><time>2026-04-08T06:26:38.999Z</time></trkpt><trkpt lat="51.252465564782554" lon="17.10209278142742"><ele>171.0</ele><time>2026-04-08T06:26:39.999Z</time></trkpt><trkpt lat="51.252586660327125" lon="17.1019673436289"><ele>171.0</ele><time>2026-04-08T06:26:40.999Z</time></trkpt><trkpt lat="51.25271101965389" lon="17.101841002895586"><ele>171.0</ele><time>2026-04-08T06:26:41.999Z</time></trkpt><trkpt lat="51.252824947602576" lon="17.101726755514253"><ele>171.0</ele><time>2026-04-08T06:26:42.999Z</time></trkpt><trkpt lat="51.25292040733088" lon="17.101629723083366"><ele>171.0</ele><time>2026-04-08T06:26:43.999Z</time></trkpt><trkpt lat="51.25301652308105" lon="17.10153132244301"><ele>171.0</ele><time>2026-04-08T06:26:44.999Z</time></trkpt><trkpt lat="51.25312018601011" lon="17.101420658389856"><ele>171.0</ele><time>2026-04-08T06:26:45.999Z</time></trkpt><trkpt lat="51.25322673122616" lon="17.101306917551373"><ele>171.0</ele><time>2026-04-08T06:26:46.999Z</time></trkpt><trkpt lat="51.2533377665669" lon="17.101187608032774"><ele>171.0</ele><time>2026-04-08T06:26:47.999Z</time></trkpt><trkpt lat="51.253451108412676" lon="17.10106576550774"><ele>171.25</ele><time>2026-04-08T06:26:48.999Z</time></trkpt><trkpt lat="51.253564414144655" lon="17.10094496165141"><ele>171.5</ele><time>2026-04-08T06:26:49.999Z</time></trkpt><trkpt lat="51.25367598016367" lon="17.10082693268171"><ele>171.75</ele><time>2026-04-08T06:26:50.999Z</time></trkpt><trkpt lat="51.25378504281006" lon="17.10071155234403"><ele>172.0</ele><time>2026-04-08T06:26:51.999Z</time></trkpt><trkpt lat="51.25388666606748" lon="17.10060404228201"><ele>172.5</ele><time>2026-04-08T06:26:52.999Z</time></trkpt><trkpt lat="51.25399015720416" lon="17.1004945563247"><ele>173.0</ele><time>2026-04-08T06:26:53.999Z</time></trkpt><trkpt lat="51.2540950484885" lon="17.100383588743533"><ele>173.5</ele><time>2026-04-08T06:26:54.999Z</time></trkpt><trkpt lat="51.254198820765225" lon="17.100275837905205"><ele>174.0</ele><time>2026-04-08T06:26:55.999Z</time></trkpt><trkpt lat="51.25427656539355" lon="17.100195516471565"><ele>174.0</ele><time>2026-04-08T06:26:56.999Z</time></trkpt><trkpt lat="51.254334489288716" lon="17.10013567308416"><ele>174.0</ele><time>2026-04-08T06:26:57.999Z</time></trkpt><trkpt lat="51.25443019431325" lon="17.10003740148862"><ele>174.0</ele><time>2026-04-08T06:26:59.999Z</time></trkpt><trkpt lat="51.254546536849745" lon="17.0999179839921"><ele>174.0</ele><time>2026-04-08T06:27:01.999Z</time></trkpt><trkpt lat="51.254617594649474" lon="17.09981606584845"><ele>174.0</ele><time>2026-04-08T06:27:02.999Z</time></trkpt><trkpt lat="51.25469164968543" lon="17.099737306469873"><ele>174.0</ele><time>2026-04-08T06:27:03.999Z</time></trkpt><trkpt lat="51.25474605328287" lon="17.09968451366397"><ele>174.0</ele><time>2026-04-08T06:27:04.999Z</time></trkpt><trkpt lat="51.25478205277842" lon="17.09958379795717"><ele>174.0</ele><time>2026-04-08T06:27:06.999Z</time></trkpt><trkpt lat="51.25469469211245" lon="17.099462823045666"><ele>174.0</ele><time>2026-04-08T06:27:07.999Z</time></trkpt><trkpt lat="51.25464530342452" lon="17.09938913164462"><ele>174.0</ele><time>2026-04-08T06:27:08.999Z</time></trkpt><trkpt lat="51.25455669943995" lon="17.09938002772678"><ele>174.0</ele><time>2026-04-08T06:27:09.999Z</time></trkpt><trkpt lat="51.25446443797944" lon="17.099334475275363"><ele>174.0</ele><time>2026-04-08T06:27:10.999Z</time></trkpt><trkpt lat="51.254358440908135" lon="17.09927846949191"><ele>174.0</ele><time>2026-04-08T06:27:11.999Z</time></trkpt><trkpt lat="51.25422499358965" lon="17.099248349527745"><ele>174.0</ele><time>2026-04-08T06:27:12.999Z</time></trkpt><trkpt lat="51.25409112725544" lon="17.099181182825923"><ele>174.0</ele><time>2026-04-08T06:27:13.999Z</time></trkpt><trkpt lat="51.25394355090893" lon="17.099123987086998"><ele>174.0</ele><time>2026-04-08T06:27:14.999Z</time></trkpt><trkpt lat="51.253797965207916" lon="17.099024116891457"><ele>174.0</ele><time>2026-04-08T06:27:15.999Z</time></trkpt><trkpt lat="51.253648201837194" lon="17.098911501862304"><ele>174.0</ele><time>2026-04-08T06:27:16.999Z</time></trkpt><trkpt lat="51.25349710752244" lon="17.09878826535325"><ele>174.0</ele><time>2026-04-08T06:27:17.999Z</time></trkpt><trkpt lat="51.253345236799994" lon="17.09864791596083"><ele>174.0</ele><time>2026-04-08T06:27:18.999Z</time></trkpt><trkpt lat="51.25318864495043" lon="17.09848974462734"><ele>174.0</ele><time>2026-04-08T06:27:20Z</time></trkpt><trkpt lat="51.25303727668769" lon="17.098331114116682"><ele>173.33333333333334</ele><time>2026-04-08T06:27:21Z</time></trkpt><trkpt lat="51.25289185744376" lon="17.09816818192303"><ele>172.66666666666669</ele><time>2026-04-08T06:27:22Z</time></trkpt><trkpt lat="51.252764293217076" lon="17.09801414395303"><ele>172.0</ele><time>2026-04-08T06:27:23Z</time></trkpt><trkpt lat="51.25263987470732" lon="17.097880462457397"><ele>172.0</ele><time>2026-04-08T06:27:24Z</time></trkpt><trkpt lat="51.25252373729022" lon="17.09774893567641"><ele>172.0</ele><time>2026-04-08T06:27:25Z</time></trkpt><trkpt lat="51.252406974018854" lon="17.09762621815274"><ele>172.0</ele><time>2026-04-08T06:27:26Z</time></trkpt><trkpt lat="51.252302427204356" lon="17.097511418574417"><ele>172.0</ele><time>2026-04-08T06:27:27Z</time></trkpt><trkpt lat="51.2522199126136" lon="17.09742793027169"><ele>171.8</ele><time>2026-04-08T06:27:28Z</time></trkpt><trkpt lat="51.252161209604644" lon="17.097343354363982"><ele>171.6</ele><time>2026-04-08T06:27:29Z</time></trkpt><trkpt lat="51.252116955321" lon="17.097254471039896"><ele>171.4</ele><time>2026-04-08T06:27:30Z</time></trkpt><trkpt lat="51.252165388180515" lon="17.097009182563276"><ele>171.20000000000002</ele><time>2026-04-08T06:27:32Z</time></trkpt><trkpt lat="51.25219769607618" lon="17.096845018674227"><ele>171.0</ele><time>2026-04-08T06:27:33Z</time></trkpt><trkpt lat="51.25223634189287" lon="17.09664989629185"><ele>170.75</ele><time>2026-04-08T06:27:34Z</time></trkpt><trkpt lat="51.252275917138675" lon="17.096445406249675"><ele>170.5</ele><time>2026-04-08T06:27:35Z</time></trkpt><trkpt lat="51.252311019537565" lon="17.0962282643491"><ele>170.25</ele><time>2026-04-08T06:27:36Z</time></trkpt><trkpt lat="51.252349875602555" lon="17.096024666091672"><ele>170.0</ele><time>2026-04-08T06:27:37Z</time></trkpt><trkpt lat="51.25238936210469" lon="17.095853827267764"><ele>169.25</ele><time>2026-04-08T06:27:38Z</time></trkpt><trkpt lat="51.25242269847356" lon="17.095681756564357"><ele>168.5</ele><time>2026-04-08T06:27:39Z</time></trkpt><trkpt lat="51.252462205753275" lon="17.095488015943257"><ele>167.75</ele><time>2026-04-08T06:27:40Z</time></trkpt><trkpt lat="51.252511452732584" lon="17.095274749348953"><ele>167.0</ele><time>2026-04-08T06:27:41Z</time></trkpt><trkpt lat="51.25256542910055" lon="17.095053406428146"><ele>166.75</ele><time>2026-04-08T06:27:42Z</time></trkpt><trkpt lat="51.252601210932845" lon="17.094846105104292"><ele>166.5</ele><time>2026-04-08T06:27:43Z</time></trkpt><trkpt lat="51.25262464124266" lon="17.094656374356468"><ele>166.25</ele><time>2026-04-08T06:27:44Z</time></trkpt><trkpt lat="51.252659570606866" lon="17.094472777396835"><ele>166.0</ele><time>2026-04-08T06:27:45Z</time></trkpt><trkpt lat="51.252704600576415" lon="17.09427541427238"><ele>166.0</ele><time>2026-04-08T06:27:46Z</time></trkpt><trkpt lat="51.25274353108792" lon="17.09406620157216"><ele>166.0</ele><time>2026-04-08T06:27:47Z</time></trkpt><trkpt lat="51.25277667549415" lon="17.09385300829668"><ele>166.0</ele><time>2026-04-08T06:27:48Z</time></trkpt><trkpt lat="51.2528144459707" lon="17.093642625456503"><ele>166.0</ele><time>2026-04-08T06:27:49Z</time></trkpt><trkpt lat="51.25284040439762" lon="17.09342322775251"><ele>166.0</ele><time>2026-04-08T06:27:50Z</time></trkpt><trkpt lat="51.25286539392383" lon="17.09322128599255"><ele>166.0</ele><time>2026-04-08T06:27:51Z</time></trkpt><trkpt lat="51.25289639718006" lon="17.09300173393223"><ele>166.0</ele><time>2026-04-08T06:27:52Z</time></trkpt><trkpt lat="51.252912148174794" lon="17.092770550157134"><ele>166.0</ele><time>2026-04-08T06:27:53Z</time></trkpt><trkpt lat="51.252932027582375" lon="17.092538370176353"><ele>166.25</ele><time>2026-04-08T06:27:54Z</time></trkpt><trkpt lat="51.25294602639006" lon="17.092328297893214"><ele>166.5</ele><time>2026-04-08T06:27:55Z</time></trkpt><trkpt lat="51.25297078382552" lon="17.092109758681623"><ele>166.75</ele><time>2026-04-08T06:27:56Z</time></trkpt><trkpt lat="51.25298546852035" lon="17.091881644524886"><ele>167.0</ele><time>2026-04-08T06:27:57Z</time></trkpt><trkpt lat="51.25300294166559" lon="17.091645798170816"><ele>166.25</ele><time>2026-04-08T06:27:58Z</time></trkpt><trkpt lat="51.253003365032235" lon="17.09141570734487"><ele>165.5</ele><time>2026-04-08T06:27:59Z</time></trkpt><trkpt lat="51.25301340967765" lon="17.091182452564123"><ele>164.75</ele><time>2026-04-08T06:28:00Z</time></trkpt><trkpt lat="51.25302072458582" lon="17.09094703846356"><ele>164.0</ele><time>2026-04-08T06:28:01Z</time></trkpt><trkpt lat="51.25303903264494" lon="17.09071401705099"><ele>163.0</ele><time>2026-04-08T06:28:02Z</time></trkpt><trkpt lat="51.25304284164201" lon="17.090493385044173"><ele>162.0</ele><time>2026-04-08T06:28:03Z</time></trkpt><trkpt lat="51.25303182761684" lon="17.090315702541858"><ele>161.0</ele><time>2026-04-08T06:28:04Z</time></trkpt><trkpt lat="51.25300723590788" lon="17.090137060482608"><ele>160.0</ele><time>2026-04-08T06:28:05Z</time></trkpt><trkpt lat="51.253008256654425" lon="17.089955855310468"><ele>159.5</ele><time>2026-04-08T06:28:06Z</time></trkpt><trkpt lat="51.25299810272965" lon="17.089785420977048"><ele>159.0</ele><time>2026-04-08T06:28:07Z</time></trkpt><trkpt lat="51.252980730143925" lon="17.089585634576817"><ele>158.5</ele><time>2026-04-08T06:28:08Z</time></trkpt><trkpt lat="51.25295585540621" lon="17.08938722673507"><ele>158.0</ele><time>2026-04-08T06:28:09Z</time></trkpt><trkpt lat="51.252945090023985" lon="17.089193369172698"><ele>157.75</ele><time>2026-04-08T06:28:10Z</time></trkpt><trkpt lat="51.25293656383637" lon="17.089004745211366"><ele>157.5</ele><time>2026-04-08T06:28:11Z</time></trkpt><trkpt lat="51.25293482833264" lon="17.088851907256103"><ele>157.25</ele><time>2026-04-08T06:28:12Z</time></trkpt><trkpt lat="51.25293742914327" lon="17.088705870092532"><ele>157.0</ele><time>2026-04-08T06:28:13Z</time></trkpt><trkpt lat="51.252942077509374" lon="17.088475683877732"><ele>157.0</ele><time>2026-04-08T06:28:14Z</time></trkpt><trkpt lat="51.2529842060677" lon="17.088265355920885"><ele>157.0</ele><time>2026-04-08T06:28:15Z</time></trkpt><trkpt lat="51.25300342048898" lon="17.08805459664505"><ele>157.0</ele><time>2026-04-08T06:28:16Z</time></trkpt><trkpt lat="51.253021045754295" lon="17.087850060821403"><ele>157.0</ele><time>2026-04-08T06:28:17Z</time></trkpt><trkpt lat="51.253044208999235" lon="17.08767754173137"><ele>157.0</ele><time>2026-04-08T06:28:18Z</time></trkpt><trkpt lat="51.25305175927158" lon="17.087503991379254"><ele>157.0</ele><time>2026-04-08T06:28:19Z</time></trkpt><trkpt lat="51.2530628464496" lon="17.087304448905545"><ele>157.0</ele><time>2026-04-08T06:28:19.999Z</time></trkpt><trkpt lat="51.25308794380933" lon="17.087128417815503"><ele>157.0</ele><time>2026-04-08T06:28:20.999Z</time></trkpt><trkpt lat="51.25310677574117" lon="17.086961633800357"><ele>157.0</ele><time>2026-04-08T06:28:21.999Z</time></trkpt><trkpt lat="51.2531376316785" lon="17.086824960974962"><ele>157.0</ele><time>2026-04-08T06:28:22.999Z</time></trkpt><trkpt lat="51.253187383873986" lon="17.0867105698157"><ele>157.0</ele><time>2026-04-08T06:28:23.999Z</time></trkpt><trkpt lat="51.253248526770605" lon="17.086629287377807"><ele>157.0</ele><time>2026-04-08T06:28:24.999Z</time></trkpt><trkpt lat="51.25329797706774" lon="17.0865299335184"><ele>157.0</ele><time>2026-04-08T06:28:25.999Z</time></trkpt><trkpt lat="51.25335274018262" lon="17.086400335459405"><ele>157.0</ele><time>2026-04-08T06:28:26.999Z</time></trkpt><trkpt lat="51.253403779192226" lon="17.086262195276564"><ele>157.0</ele><time>2026-04-08T06:28:27.999Z</time></trkpt><trkpt lat="51.25346079213571" lon="17.086134646614"><ele>157.0</ele><time>2026-04-08T06:28:28.999Z</time></trkpt><trkpt lat="51.25351082386849" lon="17.08598602615038"><ele>157.0</ele><time>2026-04-08T06:28:29.999Z</time></trkpt><trkpt lat="51.253561690627336" lon="17.085838801843604"><ele>157.0</ele><time>2026-04-08T06:28:30.999Z</time></trkpt><trkpt lat="51.25361994119671" lon="17.085706948056806"><ele>157.0</ele><time>2026-04-08T06:28:31.999Z</time></trkpt><trkpt lat="51.25366035159448" lon="17.085570686331558"><ele>157.6</ele><time>2026-04-08T06:28:32.999Z</time></trkpt><trkpt lat="51.2537128636666" lon="17.085432521013153"><ele>158.2</ele><time>2026-04-08T06:28:33.999Z</time></trkpt><trkpt lat="51.2537663722103" lon="17.085275859879673"><ele>158.8</ele><time>2026-04-08T06:28:34.999Z</time></trkpt><trkpt lat="51.25381455729005" lon="17.085137102823484"><ele>159.4</ele><time>2026-04-08T06:28:35.999Z</time></trkpt><trkpt lat="51.25387424239305" lon="17.08504791111707"><ele>160.0</ele><time>2026-04-08T06:28:36.999Z</time></trkpt><trkpt lat="51.253915158942895" lon="17.084954555544332"><ele>160.0</ele><time>2026-04-08T06:28:37.999Z</time></trkpt><trkpt lat="51.253936946833186" lon="17.084854977509558"><ele>160.0</ele><time>2026-04-08T06:28:38.999Z</time></trkpt><trkpt lat="51.25397031786491" lon="17.084743026734063"><ele>159.0</ele><time>2026-04-08T06:28:40.999Z</time></trkpt></trkseg><trkseg><trkpt lat="51.25398216994465" lon="17.084552996805407"><ele>159.0</ele><time>2026-04-08T06:47:15.999Z</time></trkpt><trkpt lat="51.25404538027842" lon="17.084447906795624"><ele>159.0</ele><time>2026-04-08T06:47:18.999Z</time></trkpt><trkpt lat="51.25409092701972" lon="17.084299319051684"><ele>159.0</ele><time>2026-04-08T06:47:21.999Z</time></trkpt><trkpt lat="51.254135695560564" lon="17.08419571021832"><ele>159.0</ele><time>2026-04-08T06:47:22.999Z</time></trkpt><trkpt lat="51.25416605223533" lon="17.084091691306174"><ele>159.0</ele><time>2026-04-08T06:47:23.999Z</time></trkpt><trkpt lat="51.25422339819973" lon="17.083994898118366"><ele>159.0</ele><time>2026-04-08T06:47:24.999Z</time></trkpt><trkpt lat="51.254266440565225" lon="17.08388582377904"><ele>159.16666666666666</ele><time>2026-04-08T06:47:25.999Z</time></trkpt><trkpt lat="51.254305671859434" lon="17.083792301055837"><ele>159.33333333333334</ele><time>2026-04-08T06:47:26.999Z</time></trkpt><trkpt lat="51.25435158173656" lon="17.083684097864687"><ele>159.5</ele><time>2026-04-08T06:47:27.999Z</time></trkpt><trkpt lat="51.25439967196483" lon="17.083571345672546"><ele>159.66666666666669</ele><time>2026-04-08T06:47:28.999Z</time></trkpt><trkpt lat="51.25444753499142" lon="17.083458231101847"><ele>159.83333333333334</ele><time>2026-04-08T06:47:29.999Z</time></trkpt><trkpt lat="51.25449887344875" lon="17.083334153115814"><ele>160.0</ele><time>2026-04-08T06:47:30.999Z</time></trkpt><trkpt lat="51.25454933505342" lon="17.08321219482383"><ele>160.16666666666669</ele><time>2026-04-08T06:47:31.999Z</time></trkpt><trkpt lat="51.254588291639664" lon="17.083089963666804"><ele>160.33333333333334</ele><time>2026-04-08T06:47:32.999Z</time></trkpt><trkpt lat="51.25462988574345" lon="17.08296249279385"><ele>160.5</ele><time>2026-04-08T06:47:33.999Z</time></trkpt><trkpt lat="51.254673514483194" lon="17.082840008398662"><ele>160.66666666666666</ele><time>2026-04-08T06:47:34.999Z</time></trkpt><trkpt lat="51.25470619504" lon="17.08270551208234"><ele>160.83333333333331</ele><time>2026-04-08T06:47:35.999Z</time></trkpt><trkpt lat="51.25474295391652" lon="17.082582232583466"><ele>161.0</ele><time>2026-04-08T06:47:36.999Z</time></trkpt><trkpt lat="51.254781302607334" lon="17.08244614817311"><ele>161.4</ele><time>2026-04-08T06:47:37.999Z</time></trkpt><trkpt lat="51.25481491748422" lon="17.08231963458907"><ele>161.8</ele><time>2026-04-08T06:47:38.999Z</time></trkpt><trkpt lat="51.25486001623619" lon="17.082201596928275"><ele>162.20000000000002</ele><time>2026-04-08T06:47:39.999Z</time></trkpt><trkpt lat="51.25491276595643" lon="17.082091335341026"><ele>162.60000000000002</ele><time>2026-04-08T06:47:40.999Z</time></trkpt><trkpt lat="51.254967997092585" lon="17.081958605554185"><ele>163.0</ele><time>2026-04-08T06:47:41.999Z</time></trkpt><trkpt lat="51.255008698821264" lon="17.081821464281003"><ele>163.0</ele><time>2026-04-08T06:47:42.999Z</time></trkpt><trkpt lat="51.255054965907135" lon="17.081677943821376"><ele>163.0</ele><time>2026-04-08T06:47:43.999Z</time></trkpt><trkpt lat="51.25510610191859" lon="17.081538577434365"><ele>163.0</ele><time>2026-04-08T06:47:44.999Z</time></trkpt><trkpt lat="51.25515941953217" lon="17.081401426247915"><ele>163.0</ele><time>2026-04-08T06:47:45.999Z</time></trkpt><trkpt lat="51.25521148684253" lon="17.081263874540088"><ele>163.0</ele><time>2026-04-08T06:47:46.999Z</time></trkpt><trkpt lat="51.25526606912032" lon="17.081125496967744"><ele>163.0</ele><time>2026-04-08T06:47:47.999Z</time></trkpt><trkpt lat="51.25531165949285" lon="17.080996542329817"><ele>163.0</ele><time>2026-04-08T06:47:48.999Z</time></trkpt><trkpt lat="51.255367594316496" lon="17.080862860016367"><ele>163.0</ele><time>2026-04-08T06:47:49.999Z</time></trkpt><trkpt lat="51.255433044974495" lon="17.080730595510282"><ele>163.0</ele><time>2026-04-08T06:47:50.999Z</time></trkpt><trkpt lat="51.25548829227463" lon="17.08059449361308"><ele>163.0</ele><time>2026-04-08T06:47:51.999Z</time></trkpt><trkpt lat="51.255545466857356" lon="17.080454801146875"><ele>163.2</ele><time>2026-04-08T06:47:52.999Z</time></trkpt><trkpt lat="51.25560083266516" lon="17.080321494795115"><ele>163.4</ele><time>2026-04-08T06:47:53.999Z</time></trkpt><trkpt lat="51.25565289394087" lon="17.080200756662933"><ele>163.6</ele><time>2026-04-08T06:47:54.999Z</time></trkpt><trkpt lat="51.255701987628385" lon="17.080072262055292"><ele>163.79999999999998</ele><time>2026-04-08T06:47:55.999Z</time></trkpt><trkpt lat="51.25575295448173" lon="17.079939465359576"><ele>164.0</ele><time>2026-04-08T06:47:56.999Z</time></trkpt><trkpt lat="51.255791985796584" lon="17.079841833627103"><ele>164.2</ele><time>2026-04-08T06:47:57.999Z</time></trkpt><trkpt lat="51.255866598569106" lon="17.079704124953974"><ele>164.39999999999998</ele><time>2026-04-08T06:47:59.999Z</time></trkpt><trkpt lat="51.25591084242419" lon="17.07961646728934"><ele>164.6</ele><time>2026-04-08T06:48:00.999Z</time></trkpt><trkpt lat="51.256052204612814" lon="17.07973595525994"><ele>164.8</ele><time>2026-04-08T06:48:03.999Z</time></trkpt><trkpt lat="51.25612745587668" lon="17.07981502026955"><ele>165.0</ele><time>2026-04-08T06:48:04.999Z</time></trkpt><trkpt lat="51.25621948462401" lon="17.07989439314961"><ele>164.75</ele><time>2026-04-08T06:48:05.999Z</time></trkpt><trkpt lat="51.25631511215301" lon="17.079995024226854"><ele>164.5</ele><time>2026-04-08T06:48:06.999Z</time></trkpt><trkpt lat="51.256419515127796" lon="17.080118380241647"><ele>164.25</ele><time>2026-04-08T06:48:07.999Z</time></trkpt><trkpt lat="51.256545110500035" lon="17.080220276648014"><ele>164.0</ele><time>2026-04-08T06:48:08.999Z</time></trkpt><trkpt lat="51.25665993492594" lon="17.080341932979376"><ele>163.75</ele><time>2026-04-08T06:48:09.999Z</time></trkpt><trkpt lat="51.256756625853725" lon="17.080435260829486"><ele>163.5</ele><time>2026-04-08T06:48:10.999Z</time></trkpt><trkpt lat="51.25684729621901" lon="17.080524120450594"><ele>163.25</ele><time>2026-04-08T06:48:11.999Z</time></trkpt><trkpt lat="51.25694366532641" lon="17.08062336186357"><ele>163.0</ele><time>2026-04-08T06:48:12.999Z</time></trkpt><trkpt lat="51.25704817431131" lon="17.08071480990041"><ele>162.8</ele><time>2026-04-08T06:48:13.999Z</time></trkpt><trkpt lat="51.2571298946369" lon="17.080819299237938"><ele>162.60000000000002</ele><time>2026-04-08T06:48:14.999Z</time></trkpt><trkpt lat="51.257221506240825" lon="17.0808921953981"><ele>162.39999999999998</ele><time>2026-04-08T06:48:15.999Z</time></trkpt><trkpt lat="51.25730954330295" lon="17.080912580519776"><ele>162.2</ele><time>2026-04-08T06:48:16.999Z</time></trkpt><trkpt lat="51.257404697440904" lon="17.08093788883204"><ele>162.0</ele><time>2026-04-08T06:48:17.999Z</time></trkpt><trkpt lat="51.25749467982061" lon="17.08098936488333"><ele>162.0</ele><time>2026-04-08T06:48:18.999Z</time></trkpt><trkpt lat="51.25759164324048" lon="17.081033795728843"><ele>162.0</ele><time>2026-04-08T06:48:19.999Z</time></trkpt><trkpt lat="51.25769290305147" lon="17.081081400250365"><ele>162.0</ele><time>2026-04-08T06:48:20.999Z</time></trkpt><trkpt lat="51.25779332460948" lon="17.08113082122347"><ele>162.0</ele><time>2026-04-08T06:48:21.999Z</time></trkpt><trkpt lat="51.257890289424985" lon="17.081181459133457"><ele>162.0</ele><time>2026-04-08T06:48:22.999Z</time></trkpt><trkpt lat="51.25798462408787" lon="17.0812358068918"><ele>162.0</ele><time>2026-04-08T06:48:23.999Z</time></trkpt><trkpt lat="51.25807291102463" lon="17.081291177869964"><ele>162.0</ele><time>2026-04-08T06:48:24.999Z</time></trkpt><trkpt lat="51.25815018686461" lon="17.08138420524105"><ele>162.0</ele><time>2026-04-08T06:48:25.999Z</time></trkpt><trkpt lat="51.25822578075366" lon="17.081479953763928"><ele>162.0</ele><time>2026-04-08T06:48:26.999Z</time></trkpt><trkpt lat="51.25829781107354" lon="17.081583279597535"><ele>162.0</ele><time>2026-04-08T06:48:27.999Z</time></trkpt><trkpt lat="51.2583628080993" lon="17.081705411907706"><ele>162.16666666666666</ele><time>2026-04-08T06:48:28.999Z</time></trkpt><trkpt lat="51.25842964683092" lon="17.081791159858824"><ele>162.33333333333334</ele><time>2026-04-08T06:48:29.999Z</time></trkpt><trkpt lat="51.25848197328223" lon="17.081871728078067"><ele>162.5</ele><time>2026-04-08T06:48:30.999Z</time></trkpt><trkpt lat="51.25853170081474" lon="17.08194888704422"><ele>162.66666666666669</ele><time>2026-04-08T06:48:31.999Z</time></trkpt><trkpt lat="51.25858265136881" lon="17.082032467801678"><ele>162.83333333333334</ele><time>2026-04-08T06:48:32.999Z</time></trkpt><trkpt lat="51.25863776007772" lon="17.08212184507898"><ele>163.0</ele><time>2026-04-08T06:48:33.999Z</time></trkpt><trkpt lat="51.25869476198211" lon="17.08222539671223"><ele>163.0</ele><time>2026-04-08T06:48:34.999Z</time></trkpt><trkpt lat="51.25876502801135" lon="17.08230222608519"><ele>163.0</ele><time>2026-04-08T06:48:35.999Z</time></trkpt><trkpt lat="51.25884075013892" lon="17.082355351330047"><ele>163.0</ele><time>2026-04-08T06:48:36.999Z</time></trkpt><trkpt lat="51.258906996711985" lon="17.082420293565374"><ele>163.0</ele><time>2026-04-08T06:48:37.999Z</time></trkpt><trkpt lat="51.25897325127546" lon="17.08246701183219"><ele>163.0</ele><time>2026-04-08T06:48:38.999Z</time></trkpt><trkpt lat="51.25907458809194" lon="17.082554937527117"><ele>163.0</ele><time>2026-04-08T06:48:40.999Z</time></trkpt><trkpt lat="51.25913693890019" lon="17.08260690924406"><ele>164.0</ele><time>2026-04-08T06:48:43.999Z</time></trkpt><trkpt lat="51.2592219057873" lon="17.082701765387938"><ele>165.0</ele><time>2026-04-08T06:49:24.999Z</time></trkpt><trkpt lat="51.25932594979585" lon="17.082798702472658"><ele>166.0</ele><time>2026-04-08T06:49:26.999Z</time></trkpt><trkpt lat="51.25941649721041" lon="17.082904938593195"><ele>167.0</ele><time>2026-04-08T06:49:28.998Z</time></trkpt><trkpt lat="51.259469275050904" lon="17.082977766199583"><ele>168.0</ele><time>2026-04-08T06:49:29.998Z</time></trkpt><trkpt lat="51.25952610459735" lon="17.083068509291184"><ele>168.0</ele><time>2026-04-08T06:49:30.998Z</time></trkpt><trkpt lat="51.25957677259605" lon="17.083176327286484"><ele>168.0</ele><time>2026-04-08T06:49:31.998Z</time></trkpt><trkpt lat="51.2596257679104" lon="17.083290830543422"><ele>168.0</ele><time>2026-04-08T06:49:32.998Z</time></trkpt><trkpt lat="51.25967226868099" lon="17.083405707148202"><ele>168.0</ele><time>2026-04-08T06:49:33.999Z</time></trkpt><trkpt lat="51.25972446665676" lon="17.08348850513708"><ele>168.0</ele><time>2026-04-08T06:49:34.999Z</time></trkpt><trkpt lat="51.2597760462701" lon="17.083670687491733"><ele>169.60000000000002</ele><time>2026-04-08T06:49:36.999Z</time></trkpt><trkpt lat="51.25982268661159" lon="17.083772668285842"><ele>171.20000000000002</ele><time>2026-04-08T06:49:37.999Z</time></trkpt><trkpt lat="51.25991473918773" lon="17.08391189190547"><ele>172.8</ele><time>2026-04-08T06:49:39.999Z</time></trkpt><trkpt lat="51.26003038293628" lon="17.08401852980677"><ele>174.4</ele><time>2026-04-08T06:49:41.999Z</time></trkpt><trkpt lat="51.26010676572623" lon="17.08406326180759"><ele>176.0</ele><time>2026-04-08T06:49:42.999Z</time></trkpt><trkpt lat="51.26018471736365" lon="17.084097737452236"><ele>176.33333333333331</ele><time>2026-04-08T06:49:43.999Z</time></trkpt><trkpt lat="51.260253486223945" lon="17.08412215929426"><ele>176.66666666666666</ele><time>2026-04-08T06:49:44.999Z</time></trkpt><trkpt lat="51.26032075997353" lon="17.084123002665685"><ele>177.0</ele><time>2026-04-08T06:49:45.999Z</time></trkpt><trkpt lat="51.26039099528507" lon="17.084143675737455"><ele>177.33333333333334</ele><time>2026-04-08T06:49:46.999Z</time></trkpt><trkpt lat="51.26047136799519" lon="17.08417098408819"><ele>177.66666666666669</ele><time>2026-04-08T06:49:47.999Z</time></trkpt><trkpt lat="51.26054948030733" lon="17.084197280552903"><ele>178.0</ele><time>2026-04-08T06:49:48.999Z</time></trkpt><trkpt lat="51.260631847903156" lon="17.084225634861088"><ele>178.8</ele><time>2026-04-08T06:49:49.999Z</time></trkpt><trkpt lat="51.26072092289975" lon="17.08423992984251"><ele>179.60000000000002</ele><time>2026-04-08T06:49:50.999Z</time></trkpt><trkpt lat="51.260814396533455" lon="17.08426245738908"><ele>180.39999999999998</ele><time>2026-04-08T06:49:51.999Z</time></trkpt><trkpt lat="51.26091673442434" lon="17.084298067284386"><ele>181.2</ele><time>2026-04-08T06:49:52.999Z</time></trkpt><trkpt lat="51.26101793543513" lon="17.084355506129192"><ele>182.0</ele><time>2026-04-08T06:49:53.999Z</time></trkpt><trkpt lat="51.261113879644775" lon="17.08438971457199"><ele>182.0</ele><time>2026-04-08T06:49:54.999Z</time></trkpt><trkpt lat="51.261217146011184" lon="17.084400386924443"><ele>182.0</ele><time>2026-04-08T06:49:55.999Z</time></trkpt><trkpt lat="51.26131530625683" lon="17.08443185311006"><ele>182.0</ele><time>2026-04-08T06:49:56.999Z</time></trkpt><trkpt lat="51.26139131750611" lon="17.084470454333008"><ele>182.0</ele><time>2026-04-08T06:49:57.999Z</time></trkpt><trkpt lat="51.261468969080084" lon="17.084512821715144"><ele>182.0</ele><time>2026-04-08T06:49:58.999Z</time></trkpt><trkpt lat="51.261558733438505" lon="17.084574468521534"><ele>182.2</ele><time>2026-04-08T06:49:59.999Z</time></trkpt><trkpt lat="51.26164673527106" lon="17.084662121796146"><ele>182.39999999999998</ele><time>2026-04-08T06:50:00.999Z</time></trkpt><trkpt lat="51.261743075709" lon="17.08473815462145"><ele>182.60000000000002</ele><time>2026-04-08T06:50:01.999Z</time></trkpt><trkpt lat="51.261828157930154" lon="17.08481446348196"><ele>182.8</ele><time>2026-04-08T06:50:02.999Z</time></trkpt><trkpt lat="51.261914679210015" lon="17.084883156604274"><ele>183.0</ele><time>2026-04-08T06:50:03.999Z</time></trkpt><trkpt lat="51.26200134226066" lon="17.08495244859187"><ele>183.0</ele><time>2026-04-08T06:50:04.999Z</time></trkpt><trkpt lat="51.26208885030215" lon="17.085015194853305"><ele>183.0</ele><time>2026-04-08T06:50:05.999Z</time></trkpt><trkpt lat="51.26217786588952" lon="17.085076272503272"><ele>183.0</ele><time>2026-04-08T06:50:06.999Z</time></trkpt><trkpt lat="51.2622735388469" lon="17.085138488621144"><ele>183.0</ele><time>2026-04-08T06:50:07.999Z</time></trkpt><trkpt lat="51.26236247531502" lon="17.085179088753105"><ele>183.0</ele><time>2026-04-08T06:50:08.999Z</time></trkpt><trkpt lat="51.2624604408066" lon="17.085242837969382"><ele>183.0</ele><time>2026-04-08T06:50:09.999Z</time></trkpt><trkpt lat="51.262565014692036" lon="17.085317190191876"><ele>183.0</ele><time>2026-04-08T06:50:10.999Z</time></trkpt><trkpt lat="51.262666720336256" lon="17.08538305798346"><ele>183.0</ele><time>2026-04-08T06:50:11.999Z</time></trkpt><trkpt lat="51.262766245285476" lon="17.085435536616107"><ele>183.0</ele><time>2026-04-08T06:50:12.999Z</time></trkpt><trkpt lat="51.26285918166662" lon="17.085496977412735"><ele>183.0</ele><time>2026-04-08T06:50:13.999Z</time></trkpt><trkpt lat="51.262954038197016" lon="17.085547244837404"><ele>183.0</ele><time>2026-04-08T06:50:14.999Z</time></trkpt><trkpt lat="51.26304621246952" lon="17.08560422874662"><ele>183.0</ele><time>2026-04-08T06:50:15.999Z</time></trkpt><trkpt lat="51.263137720264744" lon="17.08567648008596"><ele>183.0</ele><time>2026-04-08T06:50:16.999Z</time></trkpt><trkpt lat="51.26323285733871" lon="17.085733181695925"><ele>183.0</ele><time>2026-04-08T06:50:17.999Z</time></trkpt><trkpt lat="51.26333221893832" lon="17.08579147926899"><ele>183.0</ele><time>2026-04-08T06:50:18.999Z</time></trkpt><trkpt lat="51.26343198720503" lon="17.0858681641436"><ele>183.5</ele><time>2026-04-08T06:50:19.999Z</time></trkpt><trkpt lat="51.2635435863811" lon="17.085945283574738"><ele>184.0</ele><time>2026-04-08T06:50:20.999Z</time></trkpt><trkpt lat="51.263649213683074" lon="17.086011702204466"><ele>184.5</ele><time>2026-04-08T06:50:21.999Z</time></trkpt><trkpt lat="51.26375444729551" lon="17.086078844072528"><ele>185.0</ele><time>2026-04-08T06:50:22.999Z</time></trkpt><trkpt lat="51.26385480581827" lon="17.086147040042803"><ele>184.5</ele><time>2026-04-08T06:50:23.999Z</time></trkpt><trkpt lat="51.263960722507576" lon="17.086211628288215"><ele>184.0</ele><time>2026-04-08T06:50:24.999Z</time></trkpt><trkpt lat="51.264070881106505" lon="17.08628202762604"><ele>183.5</ele><time>2026-04-08T06:50:25.999Z</time></trkpt><trkpt lat="51.264184714899365" lon="17.08634544066353"><ele>183.0</ele><time>2026-04-08T06:50:26.999Z</time></trkpt><trkpt lat="51.26428880992644" lon="17.08640850401306"><ele>183.0</ele><time>2026-04-08T06:50:27.999Z</time></trkpt><trkpt lat="51.26438338986257" lon="17.086446924496315"><ele>183.0</ele><time>2026-04-08T06:50:28.999Z</time></trkpt><trkpt lat="51.264478623562674" lon="17.08648982114207"><ele>183.0</ele><time>2026-04-08T06:50:29.999Z</time></trkpt><trkpt lat="51.26458539491929" lon="17.0865324264258"><ele>183.0</ele><time>2026-04-08T06:50:30.999Z</time></trkpt><trkpt lat="51.26469598688084" lon="17.08658008499171"><ele>183.0</ele><time>2026-04-08T06:50:31.999Z</time></trkpt><trkpt lat="51.26481042715176" lon="17.08665819297438"><ele>184.0</ele><time>2026-04-08T06:50:32.999Z</time></trkpt><trkpt lat="51.26493682780044" lon="17.086711256109368"><ele>185.0</ele><time>2026-04-08T06:50:33.999Z</time></trkpt><trkpt lat="51.26506071987735" lon="17.086764831563794"><ele>186.0</ele><time>2026-04-08T06:50:34.999Z</time></trkpt><trkpt lat="51.265178410690794" lon="17.086790807926636"><ele>187.0</ele><time>2026-04-08T06:50:35.999Z</time></trkpt><trkpt lat="51.26527453412594" lon="17.08686742461855"><ele>187.0</ele><time>2026-04-08T06:50:36.999Z</time></trkpt><trkpt lat="51.265369160783706" lon="17.086915888038835"><ele>187.0</ele><time>2026-04-08T06:50:37.999Z</time></trkpt><trkpt lat="51.26546375760009" lon="17.086938636081804"><ele>187.0</ele><time>2026-04-08T06:50:38.999Z</time></trkpt><trkpt lat="51.26554214554617" lon="17.08696140725804"><ele>187.0</ele><time>2026-04-08T06:50:39.999Z</time></trkpt><trkpt lat="51.265620556271486" lon="17.086978802379956"><ele>187.0</ele><time>2026-04-08T06:50:40.999Z</time></trkpt><trkpt lat="51.26571307250227" lon="17.086998947611356"><ele>187.0</ele><time>2026-04-08T06:50:41.999Z</time></trkpt><trkpt lat="51.265813702808074" lon="17.08701242201151"><ele>187.39999999999998</ele><time>2026-04-08T06:50:42.999Z</time></trkpt><trkpt lat="51.265906173397525" lon="17.086988719235745"><ele>187.79999999999998</ele><time>2026-04-08T06:50:43.999Z</time></trkpt><trkpt lat="51.26598426813848" lon="17.086981093982594"><ele>188.2</ele><time>2026-04-08T06:50:44.999Z</time></trkpt><trkpt lat="51.26607978796947" lon="17.086953885024755"><ele>188.6</ele><time>2026-04-08T06:50:45.999Z</time></trkpt><trkpt lat="51.266179217850684" lon="17.086960764950536"><ele>189.0</ele><time>2026-04-08T06:50:46.999Z</time></trkpt><trkpt lat="51.26627749574088" lon="17.086957898597245"><ele>189.0</ele><time>2026-04-08T06:50:47.999Z</time></trkpt><trkpt lat="51.266375494634644" lon="17.086952977905295"><ele>189.0</ele><time>2026-04-08T06:50:48.999Z</time></trkpt><trkpt lat="51.26645754827482" lon="17.086938737324203"><ele>189.0</ele><time>2026-04-08T06:50:49.999Z</time></trkpt><trkpt lat="51.266545329309125" lon="17.086932015745333"><ele>189.0</ele><time>2026-04-08T06:50:50.999Z</time></trkpt><trkpt lat="51.266636214334305" lon="17.0869583000129"><ele>189.0</ele><time>2026-04-08T06:50:51.999Z</time></trkpt><trkpt lat="51.266735903569774" lon="17.086972454272168"><ele>189.39999999999998</ele><time>2026-04-08T06:50:52.999Z</time></trkpt><trkpt lat="51.26681438020965" lon="17.08697734992986"><ele>189.8</ele><time>2026-04-08T06:50:53.999Z</time></trkpt><trkpt lat="51.26689487748814" lon="17.086961280356526"><ele>190.2</ele><time>2026-04-08T06:50:54.999Z</time></trkpt><trkpt lat="51.26699615112317" lon="17.08700558563853"><ele>190.60000000000002</ele><time>2026-04-08T06:50:55.999Z</time></trkpt><trkpt lat="51.26709223229296" lon="17.08703644393683"><ele>191.0</ele><time>2026-04-08T06:50:56.999Z</time></trkpt><trkpt lat="51.26718260475358" lon="17.08704120588435"><ele>191.0</ele><time>2026-04-08T06:50:57.999Z</time></trkpt><trkpt lat="51.26726604075025" lon="17.086999930050837"><ele>191.0</ele><time>2026-04-08T06:50:58.999Z</time></trkpt><trkpt lat="51.26735026566918" lon="17.086976194531402"><ele>191.0</ele><time>2026-04-08T06:50:59.999Z</time></trkpt><trkpt lat="51.267432165915274" lon="17.086935389105722"><ele>191.0</ele><time>2026-04-08T06:51:00.999Z</time></trkpt><trkpt lat="51.26751109636362" lon="17.086882726307454"><ele>191.0</ele><time>2026-04-08T06:51:01.999Z</time></trkpt><trkpt lat="51.267591996469264" lon="17.086841085126064"><ele>191.0</ele><time>2026-04-08T06:51:02.999Z</time></trkpt><trkpt lat="51.26768751968155" lon="17.086810142678118"><ele>191.0</ele><time>2026-04-08T06:51:03.999Z</time></trkpt><trkpt lat="51.26779368292326" lon="17.086787831494306"><ele>191.0</ele><time>2026-04-08T06:51:04.999Z</time></trkpt><trkpt lat="51.267902329498284" lon="17.086759776314803"><ele>191.0</ele><time>2026-04-08T06:51:05.999Z</time></trkpt><trkpt lat="51.26798847413032" lon="17.08672916196651"><ele>191.0</ele><time>2026-04-08T06:51:06.999Z</time></trkpt><trkpt lat="51.26805787105372" lon="17.086694259871624"><ele>191.0</ele><time>2026-04-08T06:51:07.999Z</time></trkpt><trkpt lat="51.268132307323135" lon="17.086632408878444"><ele>191.4</ele><time>2026-04-08T06:51:08.999Z</time></trkpt><trkpt lat="51.268215823400574" lon="17.086549890016844"><ele>191.8</ele><time>2026-04-08T06:51:09.999Z</time></trkpt><trkpt lat="51.268306897355934" lon="17.08646611915798"><ele>192.20000000000002</ele><time>2026-04-08T06:51:10.999Z</time></trkpt><trkpt lat="51.268405625980805" lon="17.086395848496785"><ele>192.60000000000002</ele><time>2026-04-08T06:51:11.999Z</time></trkpt><trkpt lat="51.26850926199843" lon="17.086336556342875"><ele>193.0</ele><time>2026-04-08T06:51:12.999Z</time></trkpt><trkpt lat="51.268615446723906" lon="17.086273299186658"><ele>193.0</ele><time>2026-04-08T06:51:13.999Z</time></trkpt><trkpt lat="51.268706813126585" lon="17.086184408219253"><ele>193.0</ele><time>2026-04-08T06:51:14.999Z</time></trkpt><trkpt lat="51.268789086117025" lon="17.08612336215979"><ele>193.0</ele><time>2026-04-08T06:51:15.999Z</time></trkpt><trkpt lat="51.26886649979487" lon="17.086067459129954"><ele>193.0</ele><time>2026-04-08T06:51:16.999Z</time></trkpt><trkpt lat="51.26895763513698" lon="17.086003268766664"><ele>193.0</ele><time>2026-04-08T06:51:17.999Z</time></trkpt><trkpt lat="51.26906178200931" lon="17.085925449047807"><ele>193.25</ele><time>2026-04-08T06:51:18.999Z</time></trkpt><trkpt lat="51.269176204590956" lon="17.08584155999915"><ele>193.5</ele><time>2026-04-08T06:51:19.999Z</time></trkpt><trkpt lat="51.26929628503099" lon="17.085748442965738"><ele>193.75</ele><time>2026-04-08T06:51:20.999Z</time></trkpt><trkpt lat="51.26941171317318" lon="17.08568653055793"><ele>194.0</ele><time>2026-04-08T06:51:21.999Z</time></trkpt><trkpt lat="51.26951776438877" lon="17.08565685922289"><ele>194.0</ele><time>2026-04-08T06:51:22.999Z</time></trkpt><trkpt lat="51.26963813007127" lon="17.085650563502597"><ele>194.0</ele><time>2026-04-08T06:51:23.999Z</time></trkpt><trkpt lat="51.26976153753589" lon="17.08567111812289"><ele>194.0</ele><time>2026-04-08T06:51:24.999Z</time></trkpt><trkpt lat="51.26988740547996" lon="17.08571188737779"><ele>194.0</ele><time>2026-04-08T06:51:25.999Z</time></trkpt><trkpt lat="51.270013435377194" lon="17.08575994629855"><ele>194.5</ele><time>2026-04-08T06:51:26.999Z</time></trkpt><trkpt lat="51.270130470992854" lon="17.085787563765052"><ele>195.0</ele><time>2026-04-08T06:51:27.999Z</time></trkpt><trkpt lat="51.27023256606839" lon="17.08580554591114"><ele>195.5</ele><time>2026-04-08T06:51:28.999Z</time></trkpt><trkpt lat="51.270339981298065" lon="17.085845870131564"><ele>196.0</ele><time>2026-04-08T06:51:29.999Z</time></trkpt><trkpt lat="51.270453692520206" lon="17.085911064644833"><ele>196.0</ele><time>2026-04-08T06:51:30.999Z</time></trkpt><trkpt lat="51.27058210280718" lon="17.085969689459127"><ele>196.0</ele><time>2026-04-08T06:51:31.999Z</time></trkpt><trkpt lat="51.27070670613514" lon="17.08601470384307"><ele>196.0</ele><time>2026-04-08T06:51:32.999Z</time></trkpt><trkpt lat="51.270774071382405" lon="17.086044326270866"><ele>196.0</ele><time>2026-04-08T06:51:33.999Z</time></trkpt><trkpt lat="51.27085429253352" lon="17.08607051671427"><ele>196.0</ele><time>2026-04-08T06:51:34.999Z</time></trkpt><trkpt lat="51.27094302834005" lon="17.086085348204424"><ele>196.4</ele><time>2026-04-08T06:51:35.999Z</time></trkpt><trkpt lat="51.27102522906293" lon="17.08613115639042"><ele>196.8</ele><time>2026-04-08T06:51:36.999Z</time></trkpt><trkpt lat="51.271116786797116" lon="17.086174536255555"><ele>197.20000000000002</ele><time>2026-04-08T06:51:37.999Z</time></trkpt><trkpt lat="51.27121838088553" lon="17.086212840128113"><ele>197.60000000000002</ele><time>2026-04-08T06:51:38.999Z</time></trkpt><trkpt lat="51.2713243783432" lon="17.0862588467492"><ele>198.0</ele><time>2026-04-08T06:51:39.999Z</time></trkpt><trkpt lat="51.27141023478077" lon="17.086320182677046"><ele>198.8</ele><time>2026-04-08T06:51:40.999Z</time></trkpt><trkpt lat="51.27149964117728" lon="17.086358977627466"><ele>199.60000000000002</ele><time>2026-04-08T06:51:41.999Z</time></trkpt><trkpt lat="51.27159363358364" lon="17.086376654230822"><ele>200.39999999999998</ele><time>2026-04-08T06:51:42.999Z</time></trkpt><trkpt lat="51.271692213308455" lon="17.086410996838477"><ele>201.2</ele><time>2026-04-08T06:51:43.999Z</time></trkpt><trkpt lat="51.2717836155317" lon="17.08644769405399"><ele>202.0</ele><time>2026-04-08T06:51:44.999Z</time></trkpt><trkpt lat="51.27187196482843" lon="17.08651188686849"><ele>202.0</ele><time>2026-04-08T06:51:45.999Z</time></trkpt><trkpt lat="51.27196976720069" lon="17.08655246160335"><ele>202.0</ele><time>2026-04-08T06:51:46.999Z</time></trkpt><trkpt lat="51.272076978960186" lon="17.08657265769615"><ele>202.0</ele><time>2026-04-08T06:51:47.999Z</time></trkpt><trkpt lat="51.272166816132085" lon="17.08661233421505"><ele>202.0</ele><time>2026-04-08T06:51:48.999Z</time></trkpt><trkpt lat="51.27227031780341" lon="17.08662752269733"><ele>202.0</ele><time>2026-04-08T06:51:49.999Z</time></trkpt><trkpt lat="51.27237160466608" lon="17.086655380214825"><ele>202.2</ele><time>2026-04-08T06:51:50.999Z</time></trkpt><trkpt lat="51.27247070300314" lon="17.08668524204071"><ele>202.39999999999998</ele><time>2026-04-08T06:51:51.999Z</time></trkpt><trkpt lat="51.2725639624028" lon="17.0867132854578"><ele>202.60000000000002</ele><time>2026-04-08T06:51:52.999Z</time></trkpt><trkpt lat="51.27265760411814" lon="17.086771291714342"><ele>202.8</ele><time>2026-04-08T06:51:53.999Z</time></trkpt><trkpt lat="51.27276626310824" lon="17.086816098465185"><ele>203.0</ele><time>2026-04-08T06:51:54.999Z</time></trkpt><trkpt lat="51.2728839700283" lon="17.086863933799684"><ele>203.0</ele><time>2026-04-08T06:51:55.999Z</time></trkpt><trkpt lat="51.27299975861489" lon="17.086908936846136"><ele>203.0</ele><time>2026-04-08T06:51:56.999Z</time></trkpt><trkpt lat="51.273114861472585" lon="17.086948531754356"><ele>203.0</ele><time>2026-04-08T06:51:57.999Z</time></trkpt><trkpt lat="51.273213289662955" lon="17.086998935603383"><ele>203.0</ele><time>2026-04-08T06:51:59Z</time></trkpt><trkpt lat="51.27332493798154" lon="17.087044481630468"><ele>203.25</ele><time>2026-04-08T06:52:00Z</time></trkpt><trkpt lat="51.27342629592633" lon="17.08709243475281"><ele>203.5</ele><time>2026-04-08T06:52:01Z</time></trkpt><trkpt lat="51.27354307390672" lon="17.087139907515585"><ele>203.75</ele><time>2026-04-08T06:52:02Z</time></trkpt><trkpt lat="51.273664541100615" lon="17.08718700139205"><ele>204.0</ele><time>2026-04-08T06:52:03Z</time></trkpt><trkpt lat="51.2737882097335" lon="17.08722797619768"><ele>204.0</ele><time>2026-04-08T06:52:04Z</time></trkpt><trkpt lat="51.27391121783756" lon="17.087273889430648"><ele>204.0</ele><time>2026-04-08T06:52:05Z</time></trkpt><trkpt lat="51.27402754394847" lon="17.087317870676713"><ele>204.0</ele><time>2026-04-08T06:52:06Z</time></trkpt><trkpt lat="51.27412840250275" lon="17.087370852241527"><ele>204.0</ele><time>2026-04-08T06:52:07Z</time></trkpt><trkpt lat="51.27422305834709" lon="17.087421723430293"><ele>204.0</ele><time>2026-04-08T06:52:08Z</time></trkpt><trkpt lat="51.274316948281644" lon="17.08750088903009"><ele>204.0</ele><time>2026-04-08T06:52:09Z</time></trkpt><trkpt lat="51.27441958528995" lon="17.087540983452055"><ele>204.0</ele><time>2026-04-08T06:52:10Z</time></trkpt><trkpt lat="51.274520470713185" lon="17.087558739842436"><ele>204.0</ele><time>2026-04-08T06:52:11Z</time></trkpt><trkpt lat="51.274623853939865" lon="17.08758851877247"><ele>204.0</ele><time>2026-04-08T06:52:12Z</time></trkpt><trkpt lat="51.27473470632578" lon="17.087625198797724"><ele>204.79999999999998</ele><time>2026-04-08T06:52:13Z</time></trkpt><trkpt lat="51.27484483909431" lon="17.087675168246673"><ele>205.6</ele><time>2026-04-08T06:52:14Z</time></trkpt><trkpt lat="51.2749596437936" lon="17.087735092054693"><ele>206.4</ele><time>2026-04-08T06:52:15Z</time></trkpt><trkpt lat="51.27506605214498" lon="17.08775540708125"><ele>207.2</ele><time>2026-04-08T06:52:16Z</time></trkpt><trkpt lat="51.27516562895998" lon="17.087811722320208"><ele>208.0</ele><time>2026-04-08T06:52:17Z</time></trkpt><trkpt lat="51.275268150020345" lon="17.087857600907913"><ele>208.0</ele><time>2026-04-08T06:52:18Z</time></trkpt><trkpt lat="51.2753668283481" lon="17.08792138714166"><ele>208.0</ele><time>2026-04-08T06:52:19Z</time></trkpt><trkpt lat="51.27545397509731" lon="17.08795970727165"><ele>208.0</ele><time>2026-04-08T06:52:20Z</time></trkpt><trkpt lat="51.27554594433747" lon="17.087979393441763"><ele>208.0</ele><time>2026-04-08T06:52:21Z</time></trkpt><trkpt lat="51.27562903117349" lon="17.088010451208024"><ele>208.0</ele><time>2026-04-08T06:52:22Z</time></trkpt><trkpt lat="51.27570627418869" lon="17.088053489747836"><ele>207.99999999999997</ele><time>2026-04-08T06:52:23Z</time></trkpt><trkpt lat="51.275793138653235" lon="17.088091185371045"><ele>208.0</ele><time>2026-04-08T06:52:24Z</time></trkpt><trkpt lat="51.27588446563209" lon="17.088119906228513"><ele>208.0</ele><time>2026-04-08T06:52:25Z</time></trkpt><trkpt lat="51.27596808417673" lon="17.088161816835278"><ele>208.0</ele><time>2026-04-08T06:52:26Z</time></trkpt><trkpt lat="51.27604907803256" lon="17.088189140058947"><ele>207.99999999999997</ele><time>2026-04-08T06:52:27Z</time></trkpt><trkpt lat="51.276134973165306" lon="17.088227888577535"><ele>208.0</ele><time>2026-04-08T06:52:28Z</time></trkpt><trkpt lat="51.27622340357982" lon="17.088262211629946"><ele>207.66666666666666</ele><time>2026-04-08T06:52:29Z</time></trkpt><trkpt lat="51.27631118366757" lon="17.088305350406532"><ele>207.33333333333331</ele><time>2026-04-08T06:52:30Z</time></trkpt><trkpt lat="51.27639703515431" lon="17.088333558683395"><ele>207.0</ele><time>2026-04-08T06:52:31Z</time></trkpt><trkpt lat="51.276475805550895" lon="17.088383988957503"><ele>206.66666666666669</ele><time>2026-04-08T06:52:32Z</time></trkpt><trkpt lat="51.27655724136823" lon="17.08841794266138"><ele>206.33333333333334</ele><time>2026-04-08T06:52:33Z</time></trkpt><trkpt lat="51.27663651162989" lon="17.088452311948224"><ele>206.0</ele><time>2026-04-08T06:52:34Z</time></trkpt><trkpt lat="51.27671640377144" lon="17.08849135768252"><ele>205.50000000000003</ele><time>2026-04-08T06:52:35Z</time></trkpt><trkpt lat="51.27679088643498" lon="17.08852216908819"><ele>205.0</ele><time>2026-04-08T06:52:36Z</time></trkpt><trkpt lat="51.27686207935409" lon="17.088563926473157"><ele>204.5</ele><time>2026-04-08T06:52:37Z</time></trkpt><trkpt lat="51.27694015835744" lon="17.088587115753754"><ele>204.0</ele><time>2026-04-08T06:52:38Z</time></trkpt><trkpt lat="51.27701329829626" lon="17.08863420669626"><ele>203.50000000000003</ele><time>2026-04-08T06:52:39Z</time></trkpt><trkpt lat="51.27709117628925" lon="17.088655990236333"><ele>203.0</ele><time>2026-04-08T06:52:40Z</time></trkpt><trkpt lat="51.277170811681174" lon="17.088685005414508"><ele>203.00000000000003</ele><time>2026-04-08T06:52:41Z</time></trkpt><trkpt lat="51.27725213029986" lon="17.088715520657217"><ele>203.0</ele><time>2026-04-08T06:52:42Z</time></trkpt><trkpt lat="51.27733056771984" lon="17.08874564774554"><ele>203.0</ele><time>2026-04-08T06:52:43Z</time></trkpt><trkpt lat="51.2774085409843" lon="17.088778653647793"><ele>203.0</ele><time>2026-04-08T06:52:44Z</time></trkpt><trkpt lat="51.27748546661418" lon="17.08880216863462"><ele>203.00000000000003</ele><time>2026-04-08T06:52:45Z</time></trkpt><trkpt lat="51.27756765144855" lon="17.08882631410693"><ele>203.0</ele><time>2026-04-08T06:52:46Z</time></trkpt><trkpt lat="51.27764498473985" lon="17.088852474412413"><ele>203.00000000000003</ele><time>2026-04-08T06:52:47Z</time></trkpt><trkpt lat="51.27772167884219" lon="17.08887567158061"><ele>203.0</ele><time>2026-04-08T06:52:48Z</time></trkpt><trkpt lat="51.27780174318139" lon="17.088897697050786"><ele>203.0</ele><time>2026-04-08T06:52:49Z</time></trkpt><trkpt lat="51.27787358499025" lon="17.088903217824825"><ele>203.0</ele><time>2026-04-08T06:52:50Z</time></trkpt><trkpt lat="51.27795568105815" lon="17.088911683043925"><ele>203.00000000000003</ele><time>2026-04-08T06:52:52Z</time></trkpt><trkpt lat="51.27803059683457" lon="17.088922681047865"><ele>203.0</ele><time>2026-04-08T06:52:55Z</time></trkpt><trkpt lat="51.27812085400445" lon="17.08871169952175"><ele>203.0</ele><time>2026-04-08T06:52:58Z</time></trkpt><trkpt lat="51.278144212760544" lon="17.088582480505067"><ele>203.0</ele><time>2026-04-08T06:52:59Z</time></trkpt><trkpt lat="51.278176311722234" lon="17.088440608953654"><ele>203.0</ele><time>2026-04-08T06:53:00Z</time></trkpt><trkpt lat="51.27821783163073" lon="17.08829639838822"><ele>203.0</ele><time>2026-04-08T06:53:01Z</time></trkpt><trkpt lat="51.278281830117514" lon="17.088133736366544"><ele>203.0</ele><time>2026-04-08T06:53:02Z</time></trkpt><trkpt lat="51.27834698158737" lon="17.087964366959458"><ele>202.5</ele><time>2026-04-08T06:53:03Z</time></trkpt><trkpt lat="51.278409874435965" lon="17.08779029782065"><ele>202.0</ele><time>2026-04-08T06:53:04Z</time></trkpt><trkpt lat="51.27846542664642" lon="17.087630576061795"><ele>201.5</ele><time>2026-04-08T06:53:05Z</time></trkpt><trkpt lat="51.27854140475144" lon="17.087506553431606"><ele>201.0</ele><time>2026-04-08T06:53:06Z</time></trkpt><trkpt lat="51.27863227728949" lon="17.087399393818746"><ele>200.25</ele><time>2026-04-08T06:53:07Z</time></trkpt><trkpt lat="51.27875565797243" lon="17.08733609438421"><ele>199.5</ele><time>2026-04-08T06:53:08Z</time></trkpt><trkpt lat="51.278869069546076" lon="17.08722869387088"><ele>198.75</ele><time>2026-04-08T06:53:09Z</time></trkpt><trkpt lat="51.278989002383945" lon="17.087140405155573"><ele>198.0</ele><time>2026-04-08T06:53:10Z</time></trkpt><trkpt lat="51.279102388264064" lon="17.087034030446308"><ele>197.5</ele><time>2026-04-08T06:53:11Z</time></trkpt><trkpt lat="51.27920718232552" lon="17.08690489600159"><ele>197.0</ele><time>2026-04-08T06:53:12Z</time></trkpt><trkpt lat="51.2793040569737" lon="17.086766048863865"><ele>196.5</ele><time>2026-04-08T06:53:13Z</time></trkpt><trkpt lat="51.279396205918005" lon="17.086623866707274"><ele>196.0</ele><time>2026-04-08T06:53:14Z</time></trkpt><trkpt lat="51.279467030222" lon="17.086455387726343"><ele>196.0</ele><time>2026-04-08T06:53:15Z</time></trkpt><trkpt lat="51.279529931074805" lon="17.086281081784016"><ele>196.0</ele><time>2026-04-08T06:53:16Z</time></trkpt><trkpt lat="51.27957192019006" lon="17.08608330680095"><ele>196.0</ele><time>2026-04-08T06:53:17Z</time></trkpt><trkpt lat="51.27959643570584" lon="17.085913570467564"><ele>196.0</ele><time>2026-04-08T06:53:18Z</time></trkpt><trkpt lat="51.27965437694819" lon="17.085782681003007"><ele>195.99999999999997</ele><time>2026-04-08T06:53:19Z</time></trkpt><trkpt lat="51.27971707665559" lon="17.085664636499352"><ele>196.0</ele><time>2026-04-08T06:53:20Z</time></trkpt><trkpt lat="51.279776555039035" lon="17.085569587822004"><ele>196.0</ele><time>2026-04-08T06:53:21Z</time></trkpt><trkpt lat="51.27984122675255" lon="17.08547682049107"><ele>196.0</ele><time>2026-04-08T06:53:22Z</time></trkpt><trkpt lat="51.27991298747321" lon="17.08540126154874"><ele>195.99999999999997</ele><time>2026-04-08T06:53:23Z</time></trkpt><trkpt lat="51.27999179898562" lon="17.08534075051652"><ele>196.0</ele><time>2026-04-08T06:53:24Z</time></trkpt><trkpt lat="51.280072015059936" lon="17.085285649676717"><ele>196.16666666666666</ele><time>2026-04-08T06:53:25Z</time></trkpt><trkpt lat="51.28015364124413" lon="17.085255390556373"><ele>196.33333333333331</ele><time>2026-04-08T06:53:26Z</time></trkpt><trkpt lat="51.280237665699275" lon="17.085230302647705"><ele>196.5</ele><time>2026-04-08T06:53:27Z</time></trkpt><trkpt lat="51.28031698813669" lon="17.08520382220849"><ele>196.66666666666669</ele><time>2026-04-08T06:53:28Z</time></trkpt><trkpt lat="51.28040012906112" lon="17.085208745480337"><ele>196.83333333333334</ele><time>2026-04-08T06:53:29Z</time></trkpt><trkpt lat="51.28048646170822" lon="17.0851985052538"><ele>197.0</ele><time>2026-04-08T06:53:30Z</time></trkpt><trkpt lat="51.28057774816745" lon="17.08518885299765"><ele>197.39999999999998</ele><time>2026-04-08T06:53:31Z</time></trkpt><trkpt lat="51.28066885796466" lon="17.08518508860726"><ele>197.79999999999998</ele><time>2026-04-08T06:53:32Z</time></trkpt><trkpt lat="51.28075937912463" lon="17.085181559914414"><ele>198.2</ele><time>2026-04-08T06:53:33Z</time></trkpt><trkpt lat="51.28085214447746" lon="17.085177943735328"><ele>198.6</ele><time>2026-04-08T06:53:34Z</time></trkpt><trkpt lat="51.28094183841524" lon="17.08515532728882"><ele>199.0</ele><time>2026-04-08T06:53:35Z</time></trkpt><trkpt lat="51.28102988877555" lon="17.085152346002516"><ele>199.0</ele><time>2026-04-08T06:53:36Z</time></trkpt><trkpt lat="51.28110735141018" lon="17.08511371964992"><ele>199.0</ele><time>2026-04-08T06:53:37Z</time></trkpt><trkpt lat="51.28119777365016" lon="17.085087619054764"><ele>199.0</ele><time>2026-04-08T06:53:38Z</time></trkpt><trkpt lat="51.281297759058475" lon="17.085058701641998"><ele>199.0</ele><time>2026-04-08T06:53:39Z</time></trkpt><trkpt lat="51.28139263383326" lon="17.085031369633917"><ele>199.0</ele><time>2026-04-08T06:53:40Z</time></trkpt><trkpt lat="51.28149132206975" lon="17.085002939084045"><ele>200.0</ele><time>2026-04-08T06:53:41Z</time></trkpt><trkpt lat="51.28157353596676" lon="17.084979534061315"><ele>201.0</ele><time>2026-04-08T06:53:42Z</time></trkpt><trkpt lat="51.281656129659055" lon="17.084929733918074"><ele>202.0</ele><time>2026-04-08T06:53:43Z</time></trkpt><trkpt lat="51.281746914454295" lon="17.084911082469418"><ele>203.0</ele><time>2026-04-08T06:53:44Z</time></trkpt><trkpt lat="51.28183809898417" lon="17.084885201355043"><ele>204.0</ele><time>2026-04-08T06:53:45Z</time></trkpt><trkpt lat="51.28195598892597" lon="17.084837786977566"><ele>204.2</ele><time>2026-04-08T06:53:46Z</time></trkpt><trkpt lat="51.28204985671115" lon="17.08478561397479"><ele>204.39999999999998</ele><time>2026-04-08T06:53:47Z</time></trkpt><trkpt lat="51.28212475044806" lon="17.084718013619515"><ele>204.6</ele><time>2026-04-08T06:53:48Z</time></trkpt><trkpt lat="51.28222559955981" lon="17.084604058071392"><ele>204.8</ele><time>2026-04-08T06:53:49Z</time></trkpt><trkpt lat="51.28232562366392" lon="17.08449024027346"><ele>205.0</ele><time>2026-04-08T06:53:50Z</time></trkpt><trkpt lat="51.28240126267394" lon="17.08437777804625"><ele>205.66666666666666</ele><time>2026-04-08T06:53:51Z</time></trkpt><trkpt lat="51.28248024632997" lon="17.08430374166103"><ele>206.33333333333331</ele><time>2026-04-08T06:53:52Z</time></trkpt><trkpt lat="51.282542804907635" lon="17.08425647487559"><ele>207.0</ele><time>2026-04-08T06:53:53Z</time></trkpt><trkpt lat="51.28262010280264" lon="17.084232889238926"><ele>207.66666666666669</ele><time>2026-04-08T06:53:54Z</time></trkpt><trkpt lat="51.282698128147366" lon="17.08421476245058"><ele>208.33333333333334</ele><time>2026-04-08T06:53:55Z</time></trkpt><trkpt lat="51.28276590466376" lon="17.08419545831765"><ele>209.0</ele><time>2026-04-08T06:53:56Z</time></trkpt><trkpt lat="51.282823610979754" lon="17.084132806739632"><ele>209.6</ele><time>2026-04-08T06:53:57Z</time></trkpt><trkpt lat="51.28284989286309" lon="17.08402681838612"><ele>210.2</ele><time>2026-04-08T06:53:58Z</time></trkpt><trkpt lat="51.282884161935556" lon="17.083902793824787"><ele>210.79999999999998</ele><time>2026-04-08T06:53:59Z</time></trkpt><trkpt lat="51.282928835245194" lon="17.08377666935738"><ele>211.39999999999998</ele><time>2026-04-08T06:54:00Z</time></trkpt><trkpt lat="51.28298008604" lon="17.08363341550886"><ele>212.0</ele><time>2026-04-08T06:54:01Z</time></trkpt><trkpt lat="51.28301545826952" lon="17.083469389677447"><ele>212.0</ele><time>2026-04-08T06:54:02Z</time></trkpt><trkpt lat="51.28307444732049" lon="17.083322732332487"><ele>212.0</ele><time>2026-04-08T06:54:03Z</time></trkpt><trkpt lat="51.283107231633736" lon="17.083199578911962"><ele>212.0</ele><time>2026-04-08T06:54:04Z</time></trkpt><trkpt lat="51.28314566075796" lon="17.083091749250194"><ele>212.0</ele><time>2026-04-08T06:54:05Z</time></trkpt><trkpt lat="51.28318982820628" lon="17.08296296108921"><ele>212.0</ele><time>2026-04-08T06:54:06Z</time></trkpt><trkpt lat="51.28322517546942" lon="17.08283505546855"><ele>212.33333333333334</ele><time>2026-04-08T06:54:07Z</time></trkpt><trkpt lat="51.28325811970536" lon="17.082711556789697"><ele>212.66666666666669</ele><time>2026-04-08T06:54:08Z</time></trkpt><trkpt lat="51.28330007216204" lon="17.082600917137388"><ele>213.0</ele><time>2026-04-08T06:54:09Z</time></trkpt><trkpt lat="51.28333392312972" lon="17.08248744284958"><ele>213.33333333333331</ele><time>2026-04-08T06:54:10Z</time></trkpt><trkpt lat="51.28336936980404" lon="17.082381074536418"><ele>213.66666666666666</ele><time>2026-04-08T06:54:11Z</time></trkpt><trkpt lat="51.28340431249305" lon="17.082266959669976"><ele>214.0</ele><time>2026-04-08T06:54:12Z</time></trkpt><trkpt lat="51.283447367991485" lon="17.08216378916064"><ele>213.99999999999997</ele><time>2026-04-08T06:54:13Z</time></trkpt><trkpt lat="51.283489175633456" lon="17.08206790577279"><ele>214.0</ele><time>2026-04-08T06:54:14Z</time></trkpt><trkpt lat="51.28353094543744" lon="17.08197147842281"><ele>214.0</ele><time>2026-04-08T06:54:15Z</time></trkpt><trkpt lat="51.28358143061897" lon="17.08188755488406"><ele>214.0</ele><time>2026-04-08T06:54:16Z</time></trkpt><trkpt lat="51.283637066131675" lon="17.08179134428063"><ele>213.99999999999997</ele><time>2026-04-08T06:54:17Z</time></trkpt><trkpt lat="51.283690600557264" lon="17.08170761369381"><ele>214.0</ele><time>2026-04-08T06:54:18Z</time></trkpt><trkpt lat="51.283765962590984" lon="17.08156550759065"><ele>214.16666666666666</ele><time>2026-04-08T06:54:20Z</time></trkpt><trkpt lat="51.28384465321656" lon="17.081421115558886"><ele>214.33333333333331</ele><time>2026-04-08T06:54:22Z</time></trkpt><trkpt lat="51.2839068255607" lon="17.08135069682602"><ele>214.5</ele><time>2026-04-08T06:54:23Z</time></trkpt><trkpt lat="51.28396509157461" lon="17.081268115697217"><ele>214.66666666666669</ele><time>2026-04-08T06:54:24Z</time></trkpt><trkpt lat="51.28402755549143" lon="17.081206049290248"><ele>214.83333333333334</ele><time>2026-04-08T06:54:25Z</time></trkpt><trkpt lat="51.284101489223985" lon="17.081155774814402"><ele>215.0</ele><time>2026-04-08T06:54:26Z</time></trkpt><trkpt lat="51.284173282883316" lon="17.081091997798534"><ele>215.66666666666669</ele><time>2026-04-08T06:54:27Z</time></trkpt><trkpt lat="51.28424843580411" lon="17.081043675591342"><ele>216.33333333333334</ele><time>2026-04-08T06:54:28Z</time></trkpt><trkpt lat="51.28432010886183" lon="17.081013443017643"><ele>217.0</ele><time>2026-04-08T06:54:29Z</time></trkpt><trkpt lat="51.284394931571605" lon="17.08097627394039"><ele>217.66666666666669</ele><time>2026-04-08T06:54:30Z</time></trkpt><trkpt lat="51.28446921597587" lon="17.080919435584484"><ele>218.33333333333334</ele><time>2026-04-08T06:54:31Z</time></trkpt><trkpt lat="51.284537897326096" lon="17.080880888667064"><ele>219.0</ele><time>2026-04-08T06:54:32Z</time></trkpt><trkpt lat="51.284646664037496" lon="17.080793642897618"><ele>219.16666666666666</ele><time>2026-04-08T06:54:34Z</time></trkpt><trkpt lat="51.28470460607404" lon="17.080747854271184"><ele>219.33333333333331</ele><time>2026-04-08T06:54:35Z</time></trkpt><trkpt lat="51.28477310489373" lon="17.080695330495193"><ele>219.5</ele><time>2026-04-08T06:54:36Z</time></trkpt><trkpt lat="51.28485314671472" lon="17.08062098834772"><ele>219.66666666666666</ele><time>2026-04-08T06:54:37Z</time></trkpt><trkpt lat="51.284927229271766" lon="17.080550080154676"><ele>219.83333333333331</ele><time>2026-04-08T06:54:38Z</time></trkpt><trkpt lat="51.28499837962551" lon="17.080462046101218"><ele>220.0</ele><time>2026-04-08T06:54:39Z</time></trkpt><trkpt lat="51.28506899702056" lon="17.080390538223703"><ele>220.0</ele><time>2026-04-08T06:54:40Z</time></trkpt><trkpt lat="51.285130401325354" lon="17.08031182014375"><ele>220.0</ele><time>2026-04-08T06:54:41Z</time></trkpt><trkpt lat="51.285211323812796" lon="17.080242887759802"><ele>220.0</ele><time>2026-04-08T06:54:42Z</time></trkpt><trkpt lat="51.28530411475249" lon="17.080160453600843"><ele>220.0</ele><time>2026-04-08T06:54:43Z</time></trkpt><trkpt lat="51.285399441679644" lon="17.08007079772507"><ele>220.0</ele><time>2026-04-08T06:54:44Z</time></trkpt><trkpt lat="51.28549019585279" lon="17.079992097179137"><ele>219.8</ele><time>2026-04-08T06:54:45Z</time></trkpt><trkpt lat="51.28557687310658" lon="17.07989282485028"><ele>219.6</ele><time>2026-04-08T06:54:46Z</time></trkpt><trkpt lat="51.28566613058438" lon="17.07980441585307"><ele>219.39999999999998</ele><time>2026-04-08T06:54:47Z</time></trkpt><trkpt lat="51.28574454841894" lon="17.079727266027227"><ele>219.2</ele><time>2026-04-08T06:54:48Z</time></trkpt><trkpt lat="51.28580688673361" lon="17.079632264002594"><ele>219.0</ele><time>2026-04-08T06:54:49Z</time></trkpt><trkpt lat="51.2858876765148" lon="17.079560658480407"><ele>220.5</ele><time>2026-04-08T06:54:50Z</time></trkpt><trkpt lat="51.28596835585842" lon="17.07949492572788"><ele>222.0</ele><time>2026-04-08T06:54:51Z</time></trkpt><trkpt lat="51.286049424036584" lon="17.079441973068043"><ele>223.5</ele><time>2026-04-08T06:54:52Z</time></trkpt><trkpt lat="51.28611557753511" lon="17.07941380337975"><ele>225.0</ele><time>2026-04-08T06:54:53Z</time></trkpt><trkpt lat="51.286184545843696" lon="17.079385040589525"><ele>226.5</ele><time>2026-04-08T06:54:54Z</time></trkpt><trkpt lat="51.286256467143616" lon="17.079339683393865"><ele>228.0</ele><time>2026-04-08T06:54:55Z</time></trkpt><trkpt lat="51.2863327668127" lon="17.07924820684653"><ele>228.0</ele><time>2026-04-08T06:54:56Z</time></trkpt><trkpt lat="51.28641861979703" lon="17.079167843913876"><ele>228.0</ele><time>2026-04-08T06:54:57Z</time></trkpt><trkpt lat="51.2865156190977" lon="17.07910012880012"><ele>228.0</ele><time>2026-04-08T06:54:58Z</time></trkpt><trkpt lat="51.28662210366911" lon="17.07904058811184"><ele>228.0</ele><time>2026-04-08T06:54:59Z</time></trkpt><trkpt lat="51.28672498955757" lon="17.07898028617198"><ele>228.0</ele><time>2026-04-08T06:55:00Z</time></trkpt><trkpt lat="51.286821049775774" lon="17.07890520420373"><ele>228.16666666666666</ele><time>2026-04-08T06:55:01Z</time></trkpt><trkpt lat="51.286909371911214" lon="17.078821686210865"><ele>228.33333333333331</ele><time>2026-04-08T06:55:02Z</time></trkpt><trkpt lat="51.28698496986812" lon="17.078760358079062"><ele>228.5</ele><time>2026-04-08T06:55:03Z</time></trkpt><trkpt lat="51.28705747854908" lon="17.078722080480606"><ele>228.66666666666666</ele><time>2026-04-08T06:55:04Z</time></trkpt><trkpt lat="51.28712796452566" lon="17.078688440758093"><ele>228.83333333333331</ele><time>2026-04-08T06:55:05Z</time></trkpt><trkpt lat="51.28721020823155" lon="17.078653315086736"><ele>229.0</ele><time>2026-04-08T06:55:06Z</time></trkpt><trkpt lat="51.28728775785511" lon="17.07859399863601"><ele>229.0</ele><time>2026-04-08T06:55:07Z</time></trkpt><trkpt lat="51.28736242862434" lon="17.078559483286604"><ele>228.99999999999997</ele><time>2026-04-08T06:55:08Z</time></trkpt><trkpt lat="51.28744316702674" lon="17.078531719063527"><ele>228.99999999999997</ele><time>2026-04-08T06:55:09Z</time></trkpt><trkpt lat="51.28753430065922" lon="17.078483492277424"><ele>229.0</ele><time>2026-04-08T06:55:10Z</time></trkpt><trkpt lat="51.287632048907255" lon="17.07843044473156"><ele>229.0</ele><time>2026-04-08T06:55:11Z</time></trkpt><trkpt lat="51.287729870758156" lon="17.07836862188"><ele>228.99999999999997</ele><time>2026-04-08T06:55:12Z</time></trkpt><trkpt lat="51.28782604268859" lon="17.078313012224143"><ele>229.0</ele><time>2026-04-08T06:55:13Z</time></trkpt><trkpt lat="51.28791959698661" lon="17.078259956163443"><ele>229.0</ele><time>2026-04-08T06:55:14Z</time></trkpt><trkpt lat="51.28799572648018" lon="17.078209482594417"><ele>229.0</ele><time>2026-04-08T06:55:15Z</time></trkpt><trkpt lat="51.288068079034076" lon="17.078175278325205"><ele>228.99999999999997</ele><time>2026-04-08T06:55:16Z</time></trkpt><trkpt lat="51.288147541297604" lon="17.07814520787144"><ele>229.0</ele><time>2026-04-08T06:55:17Z</time></trkpt><trkpt lat="51.28822943506118" lon="17.07811940360267"><ele>228.49999999999997</ele><time>2026-04-08T06:55:18Z</time></trkpt><trkpt lat="51.288311290425106" lon="17.078090083143113"><ele>228.0</ele><time>2026-04-08T06:55:19Z</time></trkpt><trkpt lat="51.28839656242585" lon="17.07805523841867"><ele>227.5</ele><time>2026-04-08T06:55:20Z</time></trkpt><trkpt lat="51.28847670556224" lon="17.078021598238756"><ele>227.0</ele><time>2026-04-08T06:55:21Z</time></trkpt><trkpt lat="51.28855491305189" lon="17.077976203949678"><ele>226.49999999999997</ele><time>2026-04-08T06:55:22Z</time></trkpt><trkpt lat="51.28863891999833" lon="17.077928759181525"><ele>226.0</ele><time>2026-04-08T06:55:23Z</time></trkpt><trkpt lat="51.28872455348895" lon="17.077888547647344"><ele>226.0</ele><time>2026-04-08T06:55:24Z</time></trkpt><trkpt lat="51.28880996425724" lon="17.07784676383296"><ele>226.00000000000003</ele><time>2026-04-08T06:55:25Z</time></trkpt><trkpt lat="51.28890030985875" lon="17.077814102658813"><ele>226.00000000000003</ele><time>2026-04-08T06:55:26Z</time></trkpt><trkpt lat="51.288986648738444" lon="17.077756681478814"><ele>226.0</ele><time>2026-04-08T06:55:27Z</time></trkpt><trkpt lat="51.28907201687334" lon="17.07771469482955"><ele>226.0</ele><time>2026-04-08T06:55:28Z</time></trkpt><trkpt lat="51.289160687211925" lon="17.077686833390043"><ele>225.99999999999997</ele><time>2026-04-08T06:55:29Z</time></trkpt><trkpt lat="51.28925049572043" lon="17.077653553329263"><ele>226.0</ele><time>2026-04-08T06:55:30Z</time></trkpt><trkpt lat="51.28934026108658" lon="17.07763823934886"><ele>226.0</ele><time>2026-04-08T06:55:31Z</time></trkpt><trkpt lat="51.28941988370623" lon="17.077616814955917"><ele>226.0</ele><time>2026-04-08T06:55:32Z</time></trkpt><trkpt lat="51.28950921716631" lon="17.077596882527196"><ele>225.99999999999997</ele><time>2026-04-08T06:55:33Z</time></trkpt><trkpt lat="51.28960215309475" lon="17.077572519816034"><ele>226.0</ele><time>2026-04-08T06:55:34Z</time></trkpt><trkpt lat="51.28970197547165" lon="17.07753435834639"><ele>226.75</ele><time>2026-04-08T06:55:35Z</time></trkpt><trkpt lat="51.28981263521202" lon="17.077485522207997"><ele>227.5</ele><time>2026-04-08T06:55:36Z</time></trkpt><trkpt lat="51.28993164767185" lon="17.07744516633252"><ele>228.25</ele><time>2026-04-08T06:55:37Z</time></trkpt><trkpt lat="51.29005572311561" lon="17.077410199608796"><ele>229.0</ele><time>2026-04-08T06:55:38Z</time></trkpt><trkpt lat="51.29017922714863" lon="17.077360685358855"><ele>229.25</ele><time>2026-04-08T06:55:39Z</time></trkpt><trkpt lat="51.29030822990063" lon="17.07731648496114"><ele>229.5</ele><time>2026-04-08T06:55:40Z</time></trkpt><trkpt lat="51.29044377201542" lon="17.077301200049522"><ele>229.75</ele><time>2026-04-08T06:55:41Z</time></trkpt><trkpt lat="51.290574243935176" lon="17.077248258677887"><ele>230.0</ele><time>2026-04-08T06:55:42Z</time></trkpt><trkpt lat="51.290711552071244" lon="17.07721774993458"><ele>230.25</ele><time>2026-04-08T06:55:43Z</time></trkpt><trkpt lat="51.290850857912005" lon="17.077165812887102"><ele>230.5</ele><time>2026-04-08T06:55:44Z</time></trkpt><trkpt lat="51.29098082897911" lon="17.077120541918404"><ele>230.75</ele><time>2026-04-08T06:55:45Z</time></trkpt><trkpt lat="51.291102417689714" lon="17.07709020897738"><ele>231.0</ele><time>2026-04-08T06:55:46Z</time></trkpt><trkpt lat="51.29122291022627" lon="17.077053656727173"><ele>231.0</ele><time>2026-04-08T06:55:47Z</time></trkpt><trkpt lat="51.291346090760946" lon="17.07702105874637"><ele>231.0</ele><time>2026-04-08T06:55:48Z</time></trkpt><trkpt lat="51.29146527454321" lon="17.076975956096987"><ele>231.0</ele><time>2026-04-08T06:55:49Z</time></trkpt><trkpt lat="51.29158349272599" lon="17.076926618019197"><ele>231.0</ele><time>2026-04-08T06:55:50Z</time></trkpt><trkpt lat="51.29170350629297" lon="17.07688792098299"><ele>230.8</ele><time>2026-04-08T06:55:51Z</time></trkpt><trkpt lat="51.2917775199098" lon="17.076888087069015"><ele>230.60000000000002</ele><time>2026-04-08T06:55:52Z</time></trkpt><trkpt lat="51.29187196391741" lon="17.076860033165925"><ele>230.4</ele><time>2026-04-08T06:55:53Z</time></trkpt><trkpt lat="51.291968664913526" lon="17.07682892212027"><ele>230.2</ele><time>2026-04-08T06:55:54Z</time></trkpt><trkpt lat="51.29207095139597" lon="17.076804125974263"><ele>230.0</ele><time>2026-04-08T06:55:55Z</time></trkpt><trkpt lat="51.292175299015575" lon="17.076763224758942"><ele>231.25</ele><time>2026-04-08T06:55:56Z</time></trkpt><trkpt lat="51.29228605823181" lon="17.076718564017437"><ele>232.5</ele><time>2026-04-08T06:55:57Z</time></trkpt><trkpt lat="51.292403667646056" lon="17.076699619709984"><ele>233.75</ele><time>2026-04-08T06:55:58Z</time></trkpt><trkpt lat="51.292520826266774" lon="17.076666947328775"><ele>235.0</ele><time>2026-04-08T06:55:59Z</time></trkpt><trkpt lat="51.292637792858464" lon="17.076633558676843"><ele>236.5</ele><time>2026-04-08T06:56:00Z</time></trkpt><trkpt lat="51.29275446492533" lon="17.07660025409957"><ele>238.0</ele><time>2026-04-08T06:56:01Z</time></trkpt><trkpt lat="51.29286129510975" lon="17.076556786419854"><ele>239.5</ele><time>2026-04-08T06:56:02Z</time></trkpt><trkpt lat="51.292985852761035" lon="17.076540850683337"><ele>241.0</ele><time>2026-04-08T06:56:03Z</time></trkpt><trkpt lat="51.293100698457174" lon="17.076544798900212"><ele>240.8</ele><time>2026-04-08T06:56:04Z</time></trkpt><trkpt lat="51.293195489424015" lon="17.07654810040573"><ele>240.60000000000002</ele><time>2026-04-08T06:56:05Z</time></trkpt><trkpt lat="51.293266098396046" lon="17.076615033280703"><ele>240.4</ele><time>2026-04-08T06:56:06Z</time></trkpt><trkpt lat="51.29336228323398" lon="17.076674105084955"><ele>240.2</ele><time>2026-04-08T06:56:07Z</time></trkpt><trkpt lat="51.2934560349948" lon="17.07673559949359"><ele>240.0</ele><time>2026-04-08T06:56:08Z</time></trkpt><trkpt lat="51.29356058947733" lon="17.07680242121773"><ele>240.0</ele><time>2026-04-08T06:56:09Z</time></trkpt><trkpt lat="51.29367648245808" lon="17.07687013299651"><ele>240.0</ele><time>2026-04-08T06:56:10Z</time></trkpt><trkpt lat="51.293798227139774" lon="17.07695207836987"><ele>240.0</ele><time>2026-04-08T06:56:11Z</time></trkpt><trkpt lat="51.293928652620835" lon="17.07704351645029"><ele>240.0</ele><time>2026-04-08T06:56:12Z</time></trkpt><trkpt lat="51.29405322811239" lon="17.077173579879673"><ele>238.66666666666669</ele><time>2026-04-08T06:56:13Z</time></trkpt><trkpt lat="51.29417657193183" lon="17.07731718956129"><ele>237.33333333333334</ele><time>2026-04-08T06:56:14Z</time></trkpt><trkpt lat="51.29430301199533" lon="17.077457041791437"><ele>236.0</ele><time>2026-04-08T06:56:15Z</time></trkpt><trkpt lat="51.294419490553096" lon="17.077616716250834"><ele>236.0</ele><time>2026-04-08T06:56:16Z</time></trkpt><trkpt lat="51.29453572005778" lon="17.077778827885265"><ele>236.0</ele><time>2026-04-08T06:56:17Z</time></trkpt><trkpt lat="51.29466624314342" lon="17.07790878832032"><ele>236.0</ele><time>2026-04-08T06:56:18Z</time></trkpt><trkpt lat="51.29479923216233" lon="17.078037057101533"><ele>235.66666666666669</ele><time>2026-04-08T06:56:19Z</time></trkpt><trkpt lat="51.29493704829517" lon="17.078158240875933"><ele>235.33333333333331</ele><time>2026-04-08T06:56:20Z</time></trkpt><trkpt lat="51.29508454621659" lon="17.07826501306447"><ele>235.0</ele><time>2026-04-08T06:56:21Z</time></trkpt><trkpt lat="51.29522575146961" lon="17.078350034923584"><ele>235.0</ele><time>2026-04-08T06:56:22Z</time></trkpt><trkpt lat="51.29536762080499" lon="17.078446585181187"><ele>235.0</ele><time>2026-04-08T06:56:23Z</time></trkpt><trkpt lat="51.29550997521268" lon="17.078547889926675"><ele>235.0</ele><time>2026-04-08T06:56:24Z</time></trkpt><trkpt lat="51.29564499783425" lon="17.07865852564385"><ele>235.66666666666666</ele><time>2026-04-08T06:56:25Z</time></trkpt><trkpt lat="51.29578320526674" lon="17.078773218233486"><ele>236.33333333333331</ele><time>2026-04-08T06:56:26Z</time></trkpt><trkpt lat="51.29592188804225" lon="17.078881386846195"><ele>237.0</ele><time>2026-04-08T06:56:27Z</time></trkpt><trkpt lat="51.29606869568592" lon="17.078971623405653"><ele>237.0</ele><time>2026-04-08T06:56:28Z</time></trkpt><trkpt lat="51.29622086087558" lon="17.079045279111938"><ele>237.0</ele><time>2026-04-08T06:56:29Z</time></trkpt><trkpt lat="51.29636518900032" lon="17.07914616168725"><ele>237.0</ele><time>2026-04-08T06:56:30Z</time></trkpt><trkpt lat="51.296514540623214" lon="17.079220148117937"><ele>237.75</ele><time>2026-04-08T06:56:31Z</time></trkpt><trkpt lat="51.29664851208536" lon="17.07925343290864"><ele>238.5</ele><time>2026-04-08T06:56:32Z</time></trkpt><trkpt lat="51.296782413763246" lon="17.079261542780166"><ele>239.25</ele><time>2026-04-08T06:56:33Z</time></trkpt><trkpt lat="51.296925727236804" lon="17.07925932209291"><ele>240.0</ele><time>2026-04-08T06:56:34Z</time></trkpt><trkpt lat="51.2970567500239" lon="17.079260164372805"><ele>240.0</ele><time>2026-04-08T06:56:35Z</time></trkpt><trkpt lat="51.29720623878163" lon="17.07924038864997"><ele>240.0</ele><time>2026-04-08T06:56:36Z</time></trkpt><trkpt lat="51.297335263076356" lon="17.07922777557266"><ele>240.0</ele><time>2026-04-08T06:56:37Z</time></trkpt><trkpt lat="51.2974519762591" lon="17.079178467172067"><ele>240.0</ele><time>2026-04-08T06:56:38Z</time></trkpt><trkpt lat="51.29756458887571" lon="17.079139311155238"><ele>239.83333333333334</ele><time>2026-04-08T06:56:39Z</time></trkpt><trkpt lat="51.29766343361941" lon="17.0791168009209"><ele>239.66666666666669</ele><time>2026-04-08T06:56:40Z</time></trkpt><trkpt lat="51.29775480329907" lon="17.07909534486282"><ele>239.5</ele><time>2026-04-08T06:56:41Z</time></trkpt><trkpt lat="51.29782646077518" lon="17.07907406952624"><ele>239.33333333333334</ele><time>2026-04-08T06:56:42Z</time></trkpt><trkpt lat="51.297892484034364" lon="17.079044251653396"><ele>239.16666666666669</ele><time>2026-04-08T06:56:44Z</time></trkpt><trkpt lat="51.29796860866556" lon="17.079039590888357"><ele>239.0</ele><time>2026-04-08T06:56:56Z</time></trkpt><trkpt lat="51.29806748173733" lon="17.079068695287493"><ele>239.79999999999998</ele><time>2026-04-08T06:56:59Z</time></trkpt><trkpt lat="51.298145995376224" lon="17.07905771633351"><ele>240.59999999999997</ele><time>2026-04-08T06:57:00Z</time></trkpt><trkpt lat="51.29822678571233" lon="17.07893114287487"><ele>241.4</ele><time>2026-04-08T06:57:01Z</time></trkpt><trkpt lat="51.29831115703761" lon="17.078805112013463"><ele>242.2</ele><time>2026-04-08T06:57:02Z</time></trkpt><trkpt lat="51.29840830392392" lon="17.078715637894984"><ele>243.0</ele><time>2026-04-08T06:57:03Z</time></trkpt><trkpt lat="51.29847935235938" lon="17.078631752175337"><ele>243.0</ele><time>2026-04-08T06:57:04Z</time></trkpt><trkpt lat="51.29854521615908" lon="17.078544127744163"><ele>243.0</ele><time>2026-04-08T06:57:05Z</time></trkpt><trkpt lat="51.29861276902806" lon="17.07849827626257"><ele>243.0</ele><time>2026-04-08T06:57:06Z</time></trkpt><trkpt lat="51.29868000252625" lon="17.07841488162649"><ele>243.0</ele><time>2026-04-08T06:57:07Z</time></trkpt><trkpt lat="51.29876135150167" lon="17.078315135122512"><ele>243.0</ele><time>2026-04-08T06:57:08Z</time></trkpt><trkpt lat="51.29886294250693" lon="17.07821927691602"><ele>244.0</ele><time>2026-04-08T06:57:09Z</time></trkpt><trkpt lat="51.29896086866057" lon="17.078113585605184"><ele>245.0</ele><time>2026-04-08T06:57:10Z</time></trkpt><trkpt lat="51.29908896539715" lon="17.07799979166942"><ele>246.0</ele><time>2026-04-08T06:57:11Z</time></trkpt><trkpt lat="51.299205467967056" lon="17.077866664338522"><ele>247.0</ele><time>2026-04-08T06:57:12Z</time></trkpt><trkpt lat="51.29930641614105" lon="17.077754060276494"><ele>246.99999999999997</ele><time>2026-04-08T06:57:13Z</time></trkpt><trkpt lat="51.2993951901455" lon="17.077658311733845"><ele>247.0</ele><time>2026-04-08T06:57:14Z</time></trkpt><trkpt lat="51.29947508807672" lon="17.077577115503296"><ele>247.0</ele><time>2026-04-08T06:57:15Z</time></trkpt><trkpt lat="51.299544845085954" lon="17.07751395032478"><ele>247.0</ele><time>2026-04-08T06:57:16Z</time></trkpt><trkpt lat="51.299612449832715" lon="17.07744101587362"><ele>246.99999999999997</ele><time>2026-04-08T06:57:17Z</time></trkpt><trkpt lat="51.299679124894695" lon="17.077377022016933"><ele>247.0</ele><time>2026-04-08T06:57:18Z</time></trkpt><trkpt lat="51.2997478793306" lon="17.077308152765372"><ele>245.39999999999998</ele><time>2026-04-08T06:57:19Z</time></trkpt><trkpt lat="51.29982798239866" lon="17.07721786210727"><ele>243.79999999999998</ele><time>2026-04-08T06:57:20Z</time></trkpt><trkpt lat="51.299914765573355" lon="17.077145481506758"><ele>242.2</ele><time>2026-04-08T06:57:21Z</time></trkpt><trkpt lat="51.300001887035165" lon="17.07705213452337"><ele>240.6</ele><time>2026-04-08T06:57:22Z</time></trkpt><trkpt lat="51.30009141635251" lon="17.07696783503564"><ele>239.0</ele><time>2026-04-08T06:57:23Z</time></trkpt><trkpt lat="51.300197063547635" lon="17.076917319172473"><ele>239.0</ele><time>2026-04-08T06:57:24Z</time></trkpt><trkpt lat="51.3002980360008" lon="17.076854727220503"><ele>239.0</ele><time>2026-04-08T06:57:25Z</time></trkpt><trkpt lat="51.30040668508325" lon="17.076795089560367"><ele>239.0</ele><time>2026-04-08T06:57:26Z</time></trkpt><trkpt lat="51.30051618006868" lon="17.076752296403377"><ele>239.0</ele><time>2026-04-08T06:57:27Z</time></trkpt><trkpt lat="51.300633256179964" lon="17.076714269167038"><ele>238.25</ele><time>2026-04-08T06:57:28Z</time></trkpt><trkpt lat="51.30075145178151" lon="17.076683098944525"><ele>237.5</ele><time>2026-04-08T06:57:29Z</time></trkpt><trkpt lat="51.300874041277154" lon="17.076655859875387"><ele>236.75</ele><time>2026-04-08T06:57:30Z</time></trkpt><trkpt lat="51.30099377506053" lon="17.076629034290168"><ele>236.0</ele><time>2026-04-08T06:57:31Z</time></trkpt><trkpt lat="51.30111404798683" lon="17.076585599788583"><ele>236.0</ele><time>2026-04-08T06:57:32Z</time></trkpt><trkpt lat="51.30123544279011" lon="17.07656514185575"><ele>236.00000000000003</ele><time>2026-04-08T06:57:33Z</time></trkpt><trkpt lat="51.30134446098866" lon="17.076533989287963"><ele>236.00000000000003</ele><time>2026-04-08T06:57:34Z</time></trkpt><trkpt lat="51.30144762942575" lon="17.076507900513416"><ele>236.0</ele><time>2026-04-08T06:57:35Z</time></trkpt><trkpt lat="51.301559192291485" lon="17.076493338163214"><ele>236.0</ele><time>2026-04-08T06:57:36Z</time></trkpt><trkpt lat="51.30166955373913" lon="17.076467320617756"><ele>234.75</ele><time>2026-04-08T06:57:37Z</time></trkpt><trkpt lat="51.30178028050086" lon="17.07645296167327"><ele>233.5</ele><time>2026-04-08T06:57:38Z</time></trkpt><trkpt lat="51.30190272061126" lon="17.07641462369979"><ele>232.25</ele><time>2026-04-08T06:57:39Z</time></trkpt><trkpt lat="51.30202534394657" lon="17.07638802051129"><ele>231.0</ele><time>2026-04-08T06:57:40Z</time></trkpt><trkpt lat="51.302139299499565" lon="17.076368455660596"><ele>229.0</ele><time>2026-04-08T06:57:41Z</time></trkpt><trkpt lat="51.302268229696715" lon="17.07633132749202"><ele>227.0</ele><time>2026-04-08T06:57:42Z</time></trkpt><trkpt lat="51.30238686490152" lon="17.076313999042636"><ele>225.0</ele><time>2026-04-08T06:57:43Z</time></trkpt><trkpt lat="51.30251669227057" lon="17.076277108802447"><ele>223.0</ele><time>2026-04-08T06:57:44Z</time></trkpt><trkpt lat="51.302648593737366" lon="17.07622682540838"><ele>223.0</ele><time>2026-04-08T06:57:45Z</time></trkpt><trkpt lat="51.3027699415888" lon="17.07618392752846"><ele>223.0</ele><time>2026-04-08T06:57:46Z</time></trkpt><trkpt lat="51.30287217834781" lon="17.076091027053124"><ele>223.0</ele><time>2026-04-08T06:57:47Z</time></trkpt><trkpt lat="51.302985775490455" lon="17.076007354535786"><ele>223.0</ele><time>2026-04-08T06:57:48Z</time></trkpt><trkpt lat="51.30311769181721" lon="17.07591794011701"><ele>220.75</ele><time>2026-04-08T06:57:49Z</time></trkpt><trkpt lat="51.30323217932818" lon="17.0758271948659"><ele>218.5</ele><time>2026-04-08T06:57:50Z</time></trkpt><trkpt lat="51.30333697439568" lon="17.07573355642272"><ele>216.25</ele><time>2026-04-08T06:57:51Z</time></trkpt><trkpt lat="51.30342563510787" lon="17.07564186063559"><ele>214.0</ele><time>2026-04-08T06:57:52Z</time></trkpt><trkpt lat="51.303521516053166" lon="17.07556485328017"><ele>214.0</ele><time>2026-04-08T06:57:53Z</time></trkpt><trkpt lat="51.303617313980446" lon="17.075497331410997"><ele>213.99999999999997</ele><time>2026-04-08T06:57:54Z</time></trkpt><trkpt lat="51.30370202482177" lon="17.075416879659773"><ele>213.99999999999997</ele><time>2026-04-08T06:57:55Z</time></trkpt><trkpt lat="51.303781988552906" lon="17.075355071210307"><ele>214.0</ele><time>2026-04-08T06:57:56Z</time></trkpt><trkpt lat="51.3038609963433" lon="17.075287136613493"><ele>214.0</ele><time>2026-04-08T06:57:57Z</time></trkpt><trkpt lat="51.30394165542116" lon="17.075215154465244"><ele>211.79999999999998</ele><time>2026-04-08T06:57:58Z</time></trkpt><trkpt lat="51.30402647026607" lon="17.075140909730354"><ele>209.59999999999997</ele><time>2026-04-08T06:57:59Z</time></trkpt><trkpt lat="51.30411337080066" lon="17.0750730575146"><ele>207.4</ele><time>2026-04-08T06:58:00Z</time></trkpt><trkpt lat="51.304201630542174" lon="17.075004748955294"><ele>205.2</ele><time>2026-04-08T06:58:01Z</time></trkpt><trkpt lat="51.3042889694984" lon="17.074933168999717"><ele>203.0</ele><time>2026-04-08T06:58:02Z</time></trkpt><trkpt lat="51.30437316490209" lon="17.074860084427556"><ele>203.0</ele><time>2026-04-08T06:58:03Z</time></trkpt><trkpt lat="51.30445910222531" lon="17.074787111305813"><ele>203.0</ele><time>2026-04-08T06:58:04Z</time></trkpt><trkpt lat="51.304548272509585" lon="17.074707133994774"><ele>203.0</ele><time>2026-04-08T06:58:05Z</time></trkpt><trkpt lat="51.30464220230228" lon="17.074619527071377"><ele>203.0</ele><time>2026-04-08T06:58:06Z</time></trkpt><trkpt lat="51.30473736129772" lon="17.074532239953935"><ele>203.0</ele><time>2026-04-08T06:58:07Z</time></trkpt><trkpt lat="51.30483108010368" lon="17.074439511347432"><ele>200.8</ele><time>2026-04-08T06:58:08Z</time></trkpt><trkpt lat="51.304919085772546" lon="17.074333447214748"><ele>198.60000000000002</ele><time>2026-04-08T06:58:09Z</time></trkpt><trkpt lat="51.30500241853282" lon="17.0742099485623"><ele>196.39999999999998</ele><time>2026-04-08T06:58:10Z</time></trkpt><trkpt lat="51.30508617797408" lon="17.074086995163228"><ele>194.2</ele><time>2026-04-08T06:58:11Z</time></trkpt><trkpt lat="51.30515652574504" lon="17.073966571135237"><ele>192.0</ele><time>2026-04-08T06:58:12Z</time></trkpt><trkpt lat="51.305221080395306" lon="17.07384719933804"><ele>191.25</ele><time>2026-04-08T06:58:13Z</time></trkpt><trkpt lat="51.30529241996692" lon="17.073720545511744"><ele>190.5</ele><time>2026-04-08T06:58:14Z</time></trkpt><trkpt lat="51.30536435020003" lon="17.073583649589107"><ele>189.75</ele><time>2026-04-08T06:58:15Z</time></trkpt><trkpt lat="51.3054315072297" lon="17.07342453927696"><ele>189.0</ele><time>2026-04-08T06:58:16Z</time></trkpt><trkpt lat="51.305495017679476" lon="17.073270171291373"><ele>188.6</ele><time>2026-04-08T06:58:17Z</time></trkpt><trkpt lat="51.30555184746216" lon="17.073111473531107"><ele>188.2</ele><time>2026-04-08T06:58:18Z</time></trkpt><trkpt lat="51.305603723339054" lon="17.072954943739493"><ele>187.79999999999998</ele><time>2026-04-08T06:58:19Z</time></trkpt><trkpt lat="51.30565565371914" lon="17.072799569086026"><ele>187.39999999999998</ele><time>2026-04-08T06:58:20Z</time></trkpt><trkpt lat="51.30570324691922" lon="17.072663448021824"><ele>187.0</ele><time>2026-04-08T06:58:21Z</time></trkpt><trkpt lat="51.30574580358092" lon="17.07253295965998"><ele>186.25</ele><time>2026-04-08T06:58:22Z</time></trkpt><trkpt lat="51.3057886823154" lon="17.072386630661214"><ele>185.5</ele><time>2026-04-08T06:58:23Z</time></trkpt><trkpt lat="51.30584353335194" lon="17.072227493089507"><ele>184.75</ele><time>2026-04-08T06:58:24Z</time></trkpt><trkpt lat="51.30589803621967" lon="17.072054264620284"><ele>184.0</ele><time>2026-04-08T06:58:25Z</time></trkpt><trkpt lat="51.30595723496861" lon="17.0718813919693"><ele>184.0</ele><time>2026-04-08T06:58:26Z</time></trkpt><trkpt lat="51.306011993876304" lon="17.071718542581422"><ele>184.0</ele><time>2026-04-08T06:58:27Z</time></trkpt><trkpt lat="51.30607446886201" lon="17.071572746760545"><ele>184.0</ele><time>2026-04-08T06:58:28Z</time></trkpt><trkpt lat="51.306146005688824" lon="17.071434136192323"><ele>184.0</ele><time>2026-04-08T06:58:29Z</time></trkpt><trkpt lat="51.30622324357897" lon="17.071293233519203"><ele>184.0</ele><time>2026-04-08T06:58:30Z</time></trkpt><trkpt lat="51.30630562999319" lon="17.071150320313244"><ele>184.0</ele><time>2026-04-08T06:58:31Z</time></trkpt><trkpt lat="51.30638760448565" lon="17.07099547970978"><ele>184.0</ele><time>2026-04-08T06:58:32Z</time></trkpt><trkpt lat="51.30647301607379" lon="17.070839507169975"><ele>184.0</ele><time>2026-04-08T06:58:33Z</time></trkpt><trkpt lat="51.30654498018139" lon="17.070672142584954"><ele>184.25</ele><time>2026-04-08T06:58:34Z</time></trkpt><trkpt lat="51.30660217895812" lon="17.07049630515501"><ele>184.5</ele><time>2026-04-08T06:58:35Z</time></trkpt><trkpt lat="51.306645513674454" lon="17.070302861443732"><ele>184.75</ele><time>2026-04-08T06:58:36Z</time></trkpt><trkpt lat="51.30668729638005" lon="17.070107106117717"><ele>185.0</ele><time>2026-04-08T06:58:37Z</time></trkpt><trkpt lat="51.30672634523821" lon="17.06992658687657"><ele>185.0</ele><time>2026-04-08T06:58:38Z</time></trkpt><trkpt lat="51.30677989181203" lon="17.069752949819947"><ele>185.0</ele><time>2026-04-08T06:58:39Z</time></trkpt><trkpt lat="51.30684311994666" lon="17.06958707645861"><ele>185.0</ele><time>2026-04-08T06:58:40Z</time></trkpt><trkpt lat="51.30691337628768" lon="17.06942948395737"><ele>185.0</ele><time>2026-04-08T06:58:41Z</time></trkpt><trkpt lat="51.306990198456724" lon="17.06929111932907"><ele>185.0</ele><time>2026-04-08T06:58:42Z</time></trkpt><trkpt lat="51.307054935153815" lon="17.069155951728657"><ele>185.0</ele><time>2026-04-08T06:58:43Z</time></trkpt><trkpt lat="51.30712868604517" lon="17.069031769687573"><ele>185.0</ele><time>2026-04-08T06:58:44Z</time></trkpt><trkpt lat="51.30720755944065" lon="17.068919202217398"><ele>185.0</ele><time>2026-04-08T06:58:45Z</time></trkpt><trkpt lat="51.307289872335204" lon="17.068828622287278"><ele>185.0</ele><time>2026-04-08T06:58:46Z</time></trkpt><trkpt lat="51.307372719791275" lon="17.068758985150172"><ele>184.5</ele><time>2026-04-08T06:58:47Z</time></trkpt><trkpt lat="51.3074547128899" lon="17.068693834654397"><ele>184.0</ele><time>2026-04-08T06:58:48Z</time></trkpt><trkpt lat="51.307536739659945" lon="17.068634591098768"><ele>183.5</ele><time>2026-04-08T06:58:49Z</time></trkpt><trkpt lat="51.307621644667556" lon="17.068586835039444"><ele>183.0</ele><time>2026-04-08T06:58:50Z</time></trkpt><trkpt lat="51.30769529026312" lon="17.06851825802136"><ele>182.5</ele><time>2026-04-08T06:58:51Z</time></trkpt><trkpt lat="51.3077511415799" lon="17.068435760784542"><ele>182.0</ele><time>2026-04-08T06:58:52Z</time></trkpt><trkpt lat="51.307789383192336" lon="17.068338599237865"><ele>181.66666666666666</ele><time>2026-04-08T06:58:53Z</time></trkpt><trkpt lat="51.30782083229392" lon="17.068225715323948"><ele>181.33333333333331</ele><time>2026-04-08T06:58:54Z</time></trkpt><trkpt lat="51.307823750931554" lon="17.06810171160425"><ele>181.0</ele><time>2026-04-08T06:58:55Z</time></trkpt><trkpt lat="51.307810060408066" lon="17.067982909564417"><ele>180.66666666666666</ele><time>2026-04-08T06:58:56Z</time></trkpt><trkpt lat="51.307782204752286" lon="17.067861935545157"><ele>180.33333333333334</ele><time>2026-04-08T06:58:57Z</time></trkpt><trkpt lat="51.30775190120545" lon="17.06771802206605"><ele>180.0</ele><time>2026-04-08T06:58:58Z</time></trkpt><trkpt lat="51.307722101577355" lon="17.06756408119303"><ele>180.0</ele><time>2026-04-08T06:58:59Z</time></trkpt><trkpt lat="51.30769544305149" lon="17.06740124771353"><ele>180.0</ele><time>2026-04-08T06:59:00Z</time></trkpt><trkpt lat="51.30766904852686" lon="17.067247988539638"><ele>180.0</ele><time>2026-04-08T06:59:01Z</time></trkpt><trkpt lat="51.3076464113183" lon="17.06711217858122"><ele>180.0</ele><time>2026-04-08T06:59:02Z</time></trkpt><trkpt lat="51.30762266414971" lon="17.066988780452824"><ele>180.0</ele><time>2026-04-08T06:59:03Z</time></trkpt><trkpt lat="51.307604162952195" lon="17.066880063024346"><ele>180.0</ele><time>2026-04-08T06:59:04Z</time></trkpt><trkpt lat="51.30758507156671" lon="17.066775350655238"><ele>180.0</ele><time>2026-04-08T06:59:05Z</time></trkpt><trkpt lat="51.30756555213485" lon="17.06667461432559"><ele>180.0</ele><time>2026-04-08T06:59:06Z</time></trkpt><trkpt lat="51.307538529923434" lon="17.066516137337697"><ele>180.0</ele><time>2026-04-08T06:59:08Z</time></trkpt><trkpt lat="51.30751507086472" lon="17.066416187324638"><ele>180.0</ele><time>2026-04-08T06:59:11Z</time></trkpt><trkpt lat="51.30748515771331" lon="17.066255436611463"><ele>180.0</ele><time>2026-04-08T06:59:29Z</time></trkpt><trkpt lat="51.307451673724344" lon="17.06610993128571"><ele>180.0</ele><time>2026-04-08T06:59:31Z</time></trkpt><trkpt lat="51.30730214697172" lon="17.066044685721803"><ele>181.0</ele><time>2026-04-08T06:59:33Z</time></trkpt><trkpt lat="51.30718643160765" lon="17.0660679388123"><ele>182.0</ele><time>2026-04-08T06:59:34Z</time></trkpt><trkpt lat="51.307060070057354" lon="17.066076530943686"><ele>183.0</ele><time>2026-04-08T06:59:35Z</time></trkpt><trkpt lat="51.30692806134387" lon="17.06606944223721"><ele>184.0</ele><time>2026-04-08T06:59:36Z</time></trkpt><trkpt lat="51.30678461973793" lon="17.066078389259413"><ele>184.0</ele><time>2026-04-08T06:59:37Z</time></trkpt><trkpt lat="51.306636063121026" lon="17.066079718105254"><ele>184.0</ele><time>2026-04-08T06:59:38Z</time></trkpt><trkpt lat="51.30647990528896" lon="17.066083135910635"><ele>184.0</ele><time>2026-04-08T06:59:39Z</time></trkpt><trkpt lat="51.3063239957969" lon="17.06611864821789"><ele>185.0</ele><time>2026-04-08T06:59:40Z</time></trkpt><trkpt lat="51.306165662502316" lon="17.066171567268558"><ele>186.0</ele><time>2026-04-08T06:59:41Z</time></trkpt><trkpt lat="51.306006684136236" lon="17.06618690624283"><ele>187.0</ele><time>2026-04-08T06:59:42Z</time></trkpt><trkpt lat="51.30585287678238" lon="17.06623720832834"><ele>187.0</ele><time>2026-04-08T06:59:43Z</time></trkpt><trkpt lat="51.305708021150885" lon="17.066255746596322"><ele>187.0</ele><time>2026-04-08T06:59:44Z</time></trkpt><trkpt lat="51.30557105960482" lon="17.066265370401897"><ele>187.0</ele><time>2026-04-08T06:59:45Z</time></trkpt><trkpt lat="51.30544407087322" lon="17.06626112483575"><ele>187.0</ele><time>2026-04-08T06:59:46Z</time></trkpt><trkpt lat="51.30532036802676" lon="17.06624941110919"><ele>188.0</ele><time>2026-04-08T06:59:47Z</time></trkpt><trkpt lat="51.305200073537726" lon="17.066210484703266"><ele>189.0</ele><time>2026-04-08T06:59:48Z</time></trkpt><trkpt lat="51.305099484675324" lon="17.06615974930417"><ele>190.0</ele><time>2026-04-08T06:59:49Z</time></trkpt><trkpt lat="51.30501526853321" lon="17.06610202116874"><ele>191.0</ele><time>2026-04-08T06:59:50Z</time></trkpt><trkpt lat="51.30494920752148" lon="17.066042469266357"><ele>192.0</ele><time>2026-04-08T06:59:51Z</time></trkpt><trkpt lat="51.304889823702325" lon="17.065975285820095"><ele>192.0</ele><time>2026-04-08T06:59:52Z</time></trkpt><trkpt lat="51.30483262458626" lon="17.06587645146482"><ele>192.0</ele><time>2026-04-08T06:59:53Z</time></trkpt><trkpt lat="51.30480053450482" lon="17.06577375909816"><ele>192.0</ele><time>2026-04-08T06:59:54Z</time></trkpt><trkpt lat="51.30479384328731" lon="17.065662556763805"><ele>192.0</ele><time>2026-04-08T06:59:55Z</time></trkpt><trkpt lat="51.30480968546825" lon="17.065545430011174"><ele>192.0</ele><time>2026-04-08T06:59:56Z</time></trkpt><trkpt lat="51.30484568647995" lon="17.065430415246237"><ele>192.0</ele><time>2026-04-08T06:59:57Z</time></trkpt><trkpt lat="51.30490681270698" lon="17.06532313071176"><ele>192.39999999999998</ele><time>2026-04-08T06:59:58Z</time></trkpt><trkpt lat="51.30497119157711" lon="17.065216603818588"><ele>192.79999999999998</ele><time>2026-04-08T06:59:59Z</time></trkpt><trkpt lat="51.30503790522429" lon="17.065092079969332"><ele>193.2</ele><time>2026-04-08T07:00:00Z</time></trkpt><trkpt lat="51.305112793868894" lon="17.064959489025593"><ele>193.6</ele><time>2026-04-08T07:00:01Z</time></trkpt><trkpt lat="51.305187860230326" lon="17.064812852648732"><ele>194.0</ele><time>2026-04-08T07:00:02Z</time></trkpt><trkpt lat="51.30526086208537" lon="17.0646769486452"><ele>194.50000000000003</ele><time>2026-04-08T07:00:03Z</time></trkpt><trkpt lat="51.30531997341525" lon="17.064551236717435"><ele>195.0</ele><time>2026-04-08T07:00:04Z</time></trkpt><trkpt lat="51.305356030019375" lon="17.064460486243025"><ele>195.5</ele><time>2026-04-08T07:00:05Z</time></trkpt><trkpt lat="51.30539411155185" lon="17.064328065374617"><ele>196.0</ele><time>2026-04-08T07:00:07Z</time></trkpt><trkpt lat="51.3054297753368" lon="17.064212132782426"><ele>196.50000000000003</ele><time>2026-04-08T07:00:09Z</time></trkpt><trkpt lat="51.305455709011056" lon="17.06410932579534"><ele>197.0</ele><time>2026-04-08T07:00:11Z</time></trkpt><trkpt lat="51.30549499400346" lon="17.063952292967524"><ele>197.00000000000003</ele><time>2026-04-08T07:00:13Z</time></trkpt><trkpt lat="51.30552801748833" lon="17.063841187838555"><ele>197.0</ele><time>2026-04-08T07:00:14Z</time></trkpt><trkpt lat="51.305560605167656" lon="17.06370648522664"><ele>197.0</ele><time>2026-04-08T07:00:15Z</time></trkpt><trkpt lat="51.30560038365444" lon="17.063555433986295"><ele>197.0</ele><time>2026-04-08T07:00:16Z</time></trkpt><trkpt lat="51.30564381764942" lon="17.06343302941127"><ele>197.00000000000003</ele><time>2026-04-08T07:00:17Z</time></trkpt><trkpt lat="51.30566583932483" lon="17.063310782541173"><ele>197.0</ele><time>2026-04-08T07:00:18Z</time></trkpt><trkpt lat="51.30569848443557" lon="17.063200435365985"><ele>196.33333333333334</ele><time>2026-04-08T07:00:19Z</time></trkpt><trkpt lat="51.30573924861729" lon="17.063067678502506"><ele>195.66666666666669</ele><time>2026-04-08T07:00:20Z</time></trkpt><trkpt lat="51.30577843173423" lon="17.06292774904964"><ele>195.0</ele><time>2026-04-08T07:00:21Z</time></trkpt><trkpt lat="51.30582093523203" lon="17.0627889823551"><ele>194.33333333333331</ele><time>2026-04-08T07:00:22Z</time></trkpt><trkpt lat="51.30585566809188" lon="17.062664150771912"><ele>193.66666666666666</ele><time>2026-04-08T07:00:23Z</time></trkpt><trkpt lat="51.305888762013744" lon="17.062555017745765"><ele>193.0</ele><time>2026-04-08T07:00:24Z</time></trkpt><trkpt lat="51.30592844124935" lon="17.062439984607924"><ele>192.0</ele><time>2026-04-08T07:00:25Z</time></trkpt><trkpt lat="51.30597420545491" lon="17.062306314395705"><ele>191.0</ele><time>2026-04-08T07:00:26Z</time></trkpt><trkpt lat="51.30602267377927" lon="17.062173449677253"><ele>190.0</ele><time>2026-04-08T07:00:27Z</time></trkpt><trkpt lat="51.306069927059774" lon="17.062038187614228"><ele>189.0</ele><time>2026-04-08T07:00:28Z</time></trkpt><trkpt lat="51.30610924500173" lon="17.061913673170483"><ele>188.0</ele><time>2026-04-08T07:00:29Z</time></trkpt><trkpt lat="51.30616395424233" lon="17.06180913517723"><ele>188.0</ele><time>2026-04-08T07:00:30Z</time></trkpt><trkpt lat="51.3062090515786" lon="17.06169110524603"><ele>188.0</ele><time>2026-04-08T07:00:31Z</time></trkpt><trkpt lat="51.306254092193356" lon="17.061575074521414"><ele>188.0</ele><time>2026-04-08T07:00:32Z</time></trkpt><trkpt lat="51.306302372202296" lon="17.06146414863729"><ele>188.0</ele><time>2026-04-08T07:00:33Z</time></trkpt><trkpt lat="51.30634720756702" lon="17.061368707758778"><ele>188.0</ele><time>2026-04-08T07:00:34Z</time></trkpt><trkpt lat="51.30641388682129" lon="17.061233398441363"><ele>188.0</ele><time>2026-04-08T07:00:36Z</time></trkpt><trkpt lat="51.306469743921326" lon="17.06112729160853"><ele>187.60000000000002</ele><time>2026-04-08T07:00:38Z</time></trkpt><trkpt lat="51.30652106356318" lon="17.061030257333144"><ele>187.20000000000002</ele><time>2026-04-08T07:00:40Z</time></trkpt><trkpt lat="51.30658356868528" lon="17.060911224508907"><ele>186.8</ele><time>2026-04-08T07:00:42Z</time></trkpt><trkpt lat="51.30665247436748" lon="17.06077629597145"><ele>186.4</ele><time>2026-04-08T07:00:44Z</time></trkpt><trkpt lat="51.30672819887614" lon="17.060729701074212"><ele>186.0</ele><time>2026-04-08T07:00:46Z</time></trkpt><trkpt lat="51.30674289469828" lon="17.060596035042316"><ele>186.0</ele><time>2026-04-08T07:00:48Z</time></trkpt><trkpt lat="51.30662860786907" lon="17.060543587719955"><ele>186.0</ele><time>2026-04-08T07:00:51Z</time></trkpt><trkpt lat="51.30653865239759" lon="17.060622816481494"><ele>186.0</ele><time>2026-04-08T07:00:52Z</time></trkpt><trkpt lat="51.30644262987328" lon="17.060437565290947"><ele>186.0</ele><time>2026-04-08T07:00:53Z</time></trkpt><trkpt lat="51.30634563061179" lon="17.060344699293456"><ele>186.33333333333334</ele><time>2026-04-08T07:00:54Z</time></trkpt><trkpt lat="51.30627000653563" lon="17.060275549903754"><ele>186.66666666666666</ele><time>2026-04-08T07:00:55Z</time></trkpt><trkpt lat="51.30620433460437" lon="17.06022049593499"><ele>187.0</ele><time>2026-04-08T07:00:56Z</time></trkpt><trkpt lat="51.30614294737936" lon="17.060165460937615"><ele>187.33333333333331</ele><time>2026-04-08T07:00:57Z</time></trkpt><trkpt lat="51.30607406541035" lon="17.060111292948573"><ele>187.66666666666666</ele><time>2026-04-08T07:00:58Z</time></trkpt><trkpt lat="51.30598769169808" lon="17.060046358132233"><ele>188.0</ele><time>2026-04-08T07:00:59Z</time></trkpt><trkpt lat="51.305913180815985" lon="17.059977627187784"><ele>188.16666666666666</ele><time>2026-04-08T07:01:00Z</time></trkpt><trkpt lat="51.30584132714541" lon="17.05993179039751"><ele>188.33333333333331</ele><time>2026-04-08T07:01:01Z</time></trkpt><trkpt lat="51.30577131827934" lon="17.059881036783295"><ele>188.5</ele><time>2026-04-08T07:01:02Z</time></trkpt><trkpt lat="51.3057041469401" lon="17.059821398024702"><ele>188.66666666666666</ele><time>2026-04-08T07:01:03Z</time></trkpt><trkpt lat="51.30564465261585" lon="17.059741952722874"><ele>188.83333333333334</ele><time>2026-04-08T07:01:04Z</time></trkpt><trkpt lat="51.30558742579493" lon="17.05964271701344"><ele>189.0</ele><time>2026-04-08T07:01:05Z</time></trkpt><trkpt lat="51.305537915585276" lon="17.059541113280986"><ele>189.16666666666666</ele><time>2026-04-08T07:01:06Z</time></trkpt><trkpt lat="51.305494054868994" lon="17.059453654931716"><ele>189.33333333333334</ele><time>2026-04-08T07:01:07Z</time></trkpt><trkpt lat="51.30542492607147" lon="17.05933198156451"><ele>189.5</ele><time>2026-04-08T07:01:09Z</time></trkpt><trkpt lat="51.30537683964679" lon="17.05922946577149"><ele>189.66666666666669</ele><time>2026-04-08T07:01:11Z</time></trkpt><trkpt lat="51.30532764005961" lon="17.059131750389906"><ele>189.83333333333334</ele><time>2026-04-08T07:01:21Z</time></trkpt><trkpt lat="51.30530261583322" lon="17.05903892423637"><ele>190.0</ele><time>2026-04-08T07:01:25Z</time></trkpt><trkpt lat="51.305271350191184" lon="17.05889157805638"><ele>190.0</ele><time>2026-04-08T07:01:29Z</time></trkpt><trkpt lat="51.30524913831121" lon="17.058790991367303"><ele>190.0</ele><time>2026-04-08T07:01:30Z</time></trkpt><trkpt lat="51.30522787536874" lon="17.058659707443205"><ele>190.0</ele><time>2026-04-08T07:01:31Z</time></trkpt><trkpt lat="51.30520007337765" lon="17.058499022915683"><ele>190.0</ele><time>2026-04-08T07:01:32Z</time></trkpt><trkpt lat="51.3051698229151" lon="17.058324201539346"><ele>190.0</ele><time>2026-04-08T07:01:33Z</time></trkpt><trkpt lat="51.305123217713685" lon="17.05813905108398"><ele>190.25</ele><time>2026-04-08T07:01:34Z</time></trkpt><trkpt lat="51.3051087379424" lon="17.0579322381883"><ele>190.5</ele><time>2026-04-08T07:01:35Z</time></trkpt><trkpt lat="51.30514059990525" lon="17.057715935538184"><ele>190.75</ele><time>2026-04-08T07:01:36Z</time></trkpt><trkpt lat="51.30515142774912" lon="17.05748113933958"><ele>191.0</ele><time>2026-04-08T07:01:37Z</time></trkpt><trkpt lat="51.30517852228044" lon="17.05725013472588"><ele>191.66666666666666</ele><time>2026-04-08T07:01:38Z</time></trkpt><trkpt lat="51.30519419090627" lon="17.057006282086707"><ele>192.33333333333331</ele><time>2026-04-08T07:01:39Z</time></trkpt><trkpt lat="51.3052095271873" lon="17.056758662000586"><ele>193.0</ele><time>2026-04-08T07:01:40Z</time></trkpt><trkpt lat="51.30525056834106" lon="17.05654316974992"><ele>193.25</ele><time>2026-04-08T07:01:41Z</time></trkpt><trkpt lat="51.305298168184024" lon="17.05635248911092"><ele>193.5</ele><time>2026-04-08T07:01:42Z</time></trkpt><trkpt lat="51.305343027315566" lon="17.056137003754614"><ele>193.75</ele><time>2026-04-08T07:01:43Z</time></trkpt><trkpt lat="51.30539062855243" lon="17.055946426570642"><ele>194.0</ele><time>2026-04-08T07:01:44Z</time></trkpt><trkpt lat="51.305432491067954" lon="17.055780956889766"><ele>194.00000000000003</ele><time>2026-04-08T07:01:45Z</time></trkpt><trkpt lat="51.30547855481202" lon="17.055649471976942"><ele>194.0</ele><time>2026-04-08T07:01:46Z</time></trkpt><trkpt lat="51.30553407255671" lon="17.055555075806314"><ele>194.0</ele><time>2026-04-08T07:01:47Z</time></trkpt><trkpt lat="51.305592125193456" lon="17.05547548125825"><ele>194.0</ele><time>2026-04-08T07:01:48Z</time></trkpt><trkpt lat="51.305667564546084" lon="17.055420235806118"><ele>194.00000000000003</ele><time>2026-04-08T07:01:49Z</time></trkpt><trkpt lat="51.30574596685563" lon="17.055402856324225"><ele>194.0</ele><time>2026-04-08T07:01:50Z</time></trkpt><trkpt lat="51.30582973677315" lon="17.055403723932418"><ele>194.0</ele><time>2026-04-08T07:01:51Z</time></trkpt><trkpt lat="51.30591075191533" lon="17.05528867697983"><ele>194.0</ele><time>2026-04-08T07:01:52Z</time></trkpt><trkpt lat="51.30600597988308" lon="17.055180320367047"><ele>194.0</ele><time>2026-04-08T07:01:53Z</time></trkpt><trkpt lat="51.30611481316297" lon="17.05508104308599"><ele>194.0</ele><time>2026-04-08T07:01:54Z</time></trkpt><trkpt lat="51.306237398244534" lon="17.05500049133556"><ele>194.0</ele><time>2026-04-08T07:01:55Z</time></trkpt><trkpt lat="51.30637328736487" lon="17.054928187095026"><ele>194.0</ele><time>2026-04-08T07:01:56Z</time></trkpt><trkpt lat="51.30652148927869" lon="17.054857711372655"><ele>194.0</ele><time>2026-04-08T07:01:57Z</time></trkpt><trkpt lat="51.30667044503418" lon="17.054791919386492"><ele>196.0</ele><time>2026-04-08T07:01:58Z</time></trkpt><trkpt lat="51.30682932091022" lon="17.054734753221393"><ele>198.0</ele><time>2026-04-08T07:01:59Z</time></trkpt><trkpt lat="51.30698953878006" lon="17.054667639767224"><ele>200.0</ele><time>2026-04-08T07:02:00Z</time></trkpt><trkpt lat="51.3071626710715" lon="17.0546044069105"><ele>201.0</ele><time>2026-04-08T07:02:01Z</time></trkpt><trkpt lat="51.30732021881558" lon="17.05449185365591"><ele>202.0</ele><time>2026-04-08T07:02:02Z</time></trkpt><trkpt lat="51.307469705039814" lon="17.054434374720277"><ele>203.0</ele><time>2026-04-08T07:02:03Z</time></trkpt><trkpt lat="51.30761954896985" lon="17.054341262880676"><ele>203.0</ele><time>2026-04-08T07:02:04Z</time></trkpt><trkpt lat="51.30777162230458" lon="17.05425935636551"><ele>203.0</ele><time>2026-04-08T07:02:05Z</time></trkpt><trkpt lat="51.30792767790711" lon="17.054166409087998"><ele>203.0</ele><time>2026-04-08T07:02:06Z</time></trkpt><trkpt lat="51.308079240178046" lon="17.05404858182888"><ele>205.66666666666669</ele><time>2026-04-08T07:02:07Z</time></trkpt><trkpt lat="51.30822661571752" lon="17.053921392916525"><ele>208.33333333333331</ele><time>2026-04-08T07:02:08Z</time></trkpt><trkpt lat="51.3083513813483" lon="17.053780320139772"><ele>211.0</ele><time>2026-04-08T07:02:09Z</time></trkpt><trkpt lat="51.308460314162524" lon="17.05362768048039"><ele>211.0</ele><time>2026-04-08T07:02:10Z</time></trkpt><trkpt lat="51.308563521759254" lon="17.053453580417486"><ele>211.0</ele><time>2026-04-08T07:02:11Z</time></trkpt><trkpt lat="51.30865824792233" lon="17.05326162007211"><ele>211.0</ele><time>2026-04-08T07:02:12Z</time></trkpt><trkpt lat="51.308746539401696" lon="17.05305663946302"><ele>212.0</ele><time>2026-04-08T07:02:13Z</time></trkpt><trkpt lat="51.30883124066192" lon="17.05284890107028"><ele>213.0</ele><time>2026-04-08T07:02:14Z</time></trkpt><trkpt lat="51.30891331091104" lon="17.05263215949537"><ele>214.0</ele><time>2026-04-08T07:02:15Z</time></trkpt><trkpt lat="51.30899175266924" lon="17.05241019938736"><ele>215.0</ele><time>2026-04-08T07:02:16Z</time></trkpt><trkpt lat="51.309064478996476" lon="17.052186416758122"><ele>216.0</ele><time>2026-04-08T07:02:17Z</time></trkpt><trkpt lat="51.30913961902882" lon="17.051958762705258"><ele>217.0</ele><time>2026-04-08T07:02:18Z</time></trkpt><trkpt lat="51.3091963386843" lon="17.051732660331467"><ele>217.33333333333331</ele><time>2026-04-08T07:02:19Z</time></trkpt><trkpt lat="51.3092516044067" lon="17.05150973680408"><ele>217.66666666666669</ele><time>2026-04-08T07:02:20Z</time></trkpt><trkpt lat="51.30930572447998" lon="17.05128164775136"><ele>218.0</ele><time>2026-04-08T07:02:21Z</time></trkpt><trkpt lat="51.30936111215393" lon="17.051039500570173"><ele>218.0</ele><time>2026-04-08T07:02:22Z</time></trkpt><trkpt lat="51.30941820511312" lon="17.05078861201776"><ele>218.0</ele><time>2026-04-08T07:02:23Z</time></trkpt><trkpt lat="51.30947757353228" lon="17.0505378098126"><ele>218.0</ele><time>2026-04-08T07:02:24Z</time></trkpt><trkpt lat="51.30955329206912" lon="17.05025783251667"><ele>218.0</ele><time>2026-04-08T07:02:25Z</time></trkpt><trkpt lat="51.309625042067424" lon="17.05004030875688"><ele>218.0</ele><time>2026-04-08T07:02:26Z</time></trkpt><trkpt lat="51.3097180771198" lon="17.049860635861915"><ele>218.0</ele><time>2026-04-08T07:02:27Z</time></trkpt><trkpt lat="51.30982194840661" lon="17.04967947221453"><ele>216.5</ele><time>2026-04-08T07:02:28Z</time></trkpt><trkpt lat="51.30992445875141" lon="17.04951650155631"><ele>215.0</ele><time>2026-04-08T07:02:29Z</time></trkpt><trkpt lat="51.30999823465772" lon="17.049370195406564"><ele>213.5</ele><time>2026-04-08T07:02:30Z</time></trkpt><trkpt lat="51.31007841832727" lon="17.04925196045175"><ele>212.0</ele><time>2026-04-08T07:02:31Z</time></trkpt><trkpt lat="51.310156072231884" lon="17.04913729138888"><ele>212.25</ele><time>2026-04-08T07:02:32Z</time></trkpt><trkpt lat="51.310236277465236" lon="17.04901137320041"><ele>212.5</ele><time>2026-04-08T07:02:33Z</time></trkpt><trkpt lat="51.310319412361764" lon="17.048867260744377"><ele>212.75</ele><time>2026-04-08T07:02:34Z</time></trkpt><trkpt lat="51.310396360486244" lon="17.048711562765615"><ele>213.0</ele><time>2026-04-08T07:02:35Z</time></trkpt><trkpt lat="51.31046267624674" lon="17.04853686625973"><ele>213.0</ele><time>2026-04-08T07:02:36Z</time></trkpt><trkpt lat="51.31053113785602" lon="17.048360867508624"><ele>213.0</ele><time>2026-04-08T07:02:37Z</time></trkpt><trkpt lat="51.31059496857876" lon="17.04818079548157"><ele>213.0</ele><time>2026-04-08T07:02:38Z</time></trkpt><trkpt lat="51.3106597345864" lon="17.047991781206065"><ele>213.0</ele><time>2026-04-08T07:02:39Z</time></trkpt><trkpt lat="51.31072368379792" lon="17.047794688586336"><ele>214.0</ele><time>2026-04-08T07:02:40Z</time></trkpt><trkpt lat="51.310786944844914" lon="17.047599344475376"><ele>215.0</ele><time>2026-04-08T07:02:41Z</time></trkpt><trkpt lat="51.310854026612965" lon="17.04740890942871"><ele>216.0</ele><time>2026-04-08T07:02:42Z</time></trkpt><trkpt lat="51.31092579743178" lon="17.0472247872491"><ele>217.0</ele><time>2026-04-08T07:02:43Z</time></trkpt><trkpt lat="51.31099198442041" lon="17.04707315320568"><ele>217.33333333333331</ele><time>2026-04-08T07:02:44Z</time></trkpt><trkpt lat="51.311051914694325" lon="17.046948026278685"><ele>217.66666666666666</ele><time>2026-04-08T07:02:45Z</time></trkpt><trkpt lat="51.31110881971605" lon="17.046827271696237"><ele>218.0</ele><time>2026-04-08T07:02:46Z</time></trkpt><trkpt lat="51.311163624007605" lon="17.046725609267757"><ele>218.33333333333331</ele><time>2026-04-08T07:02:47Z</time></trkpt><trkpt lat="51.311197406885015" lon="17.046624113024595"><ele>218.66666666666666</ele><time>2026-04-08T07:02:48Z</time></trkpt><trkpt lat="51.311243495598184" lon="17.046522280502522"><ele>219.0</ele><time>2026-04-08T07:02:49Z</time></trkpt><trkpt lat="51.31129499861504" lon="17.046408768799303"><ele>220.0</ele><time>2026-04-08T07:02:50Z</time></trkpt><trkpt lat="51.311353120968256" lon="17.046291962883764"><ele>220.99999999999997</ele><time>2026-04-08T07:02:51Z</time></trkpt><trkpt lat="51.31141727590633" lon="17.046175872943383"><ele>221.99999999999997</ele><time>2026-04-08T07:02:52Z</time></trkpt><trkpt lat="51.31148207412124" lon="17.046063250906148"><ele>223.0</ele><time>2026-04-08T07:02:53Z</time></trkpt><trkpt lat="51.31154668354403" lon="17.045944787767603"><ele>224.0</ele><time>2026-04-08T07:02:54Z</time></trkpt><trkpt lat="51.31161257571416" lon="17.045820549210227"><ele>220.6</ele><time>2026-04-08T07:02:55Z</time></trkpt><trkpt lat="51.31168185814011" lon="17.045695933516058"><ele>217.2</ele><time>2026-04-08T07:02:56Z</time></trkpt><trkpt lat="51.311749572693714" lon="17.04556973207912"><ele>213.79999999999998</ele><time>2026-04-08T07:02:57Z</time></trkpt><trkpt lat="51.31181057476511" lon="17.04546040383729"><ele>210.39999999999998</ele><time>2026-04-08T07:02:58Z</time></trkpt><trkpt lat="51.31187097746331" lon="17.045350094216666"><ele>207.0</ele><time>2026-04-08T07:02:59Z</time></trkpt><trkpt lat="51.31192825927963" lon="17.045242144508748"><ele>207.00000000000003</ele><time>2026-04-08T07:03:00Z</time></trkpt><trkpt lat="51.31197849070992" lon="17.045153399356128"><ele>207.0</ele><time>2026-04-08T07:03:01Z</time></trkpt><trkpt lat="51.31202869131448" lon="17.045057151901872"><ele>207.0</ele><time>2026-04-08T07:03:02Z</time></trkpt><trkpt lat="51.31209206165397" lon="17.04494651024717"><ele>207.0</ele><time>2026-04-08T07:03:04Z</time></trkpt><trkpt lat="51.31213401660158" lon="17.044866593424523"><ele>207.0</ele><time>2026-04-08T07:03:06Z</time></trkpt><trkpt lat="51.31217745137377" lon="17.044780189388373"><ele>207.00000000000003</ele><time>2026-04-08T07:03:09Z</time></trkpt><trkpt lat="51.312218367702" lon="17.044703465389766"><ele>207.0</ele><time>2026-04-08T07:03:12Z</time></trkpt><trkpt lat="51.31226453588854" lon="17.044608478839507"><ele>206.2</ele><time>2026-04-08T07:03:32Z</time></trkpt><trkpt lat="51.31232153504686" lon="17.04454250878323"><ele>205.39999999999998</ele><time>2026-04-08T07:03:34Z</time></trkpt><trkpt lat="51.31241051885057" lon="17.044441951633786"><ele>204.60000000000002</ele><time>2026-04-08T07:03:37Z</time></trkpt><trkpt lat="51.31244811298949" lon="17.04430040376248"><ele>203.8</ele><time>2026-04-08T07:03:38Z</time></trkpt><trkpt lat="51.3125049578542" lon="17.04415659715755"><ele>203.0</ele><time>2026-04-08T07:03:39Z</time></trkpt><trkpt lat="51.312580823246854" lon="17.044010724776157"><ele>203.0</ele><time>2026-04-08T07:03:40Z</time></trkpt><trkpt lat="51.31266315403146" lon="17.043860734230318"><ele>203.0</ele><time>2026-04-08T07:03:41Z</time></trkpt><trkpt lat="51.3127576093653" lon="17.043702889783297"><ele>203.0</ele><time>2026-04-08T07:03:42Z</time></trkpt><trkpt lat="51.312854578118035" lon="17.04353256041755"><ele>203.0</ele><time>2026-04-08T07:03:43Z</time></trkpt><trkpt lat="51.31295328069906" lon="17.043347066022598"><ele>203.25</ele><time>2026-04-08T07:03:44Z</time></trkpt><trkpt lat="51.31304665670681" lon="17.04317834659997"><ele>203.5</ele><time>2026-04-08T07:03:45Z</time></trkpt><trkpt lat="51.313130438653396" lon="17.043011094077425"><ele>203.75</ele><time>2026-04-08T07:03:46Z</time></trkpt><trkpt lat="51.313222522942816" lon="17.042844111178116"><ele>204.0</ele><time>2026-04-08T07:03:47Z</time></trkpt><trkpt lat="51.31331573084471" lon="17.04267891283598"><ele>204.5</ele><time>2026-04-08T07:03:48Z</time></trkpt><trkpt lat="51.313401857604305" lon="17.042527358835514"><ele>205.0</ele><time>2026-04-08T07:03:49Z</time></trkpt><trkpt lat="51.31348251925651" lon="17.042380259346302"><ele>205.5</ele><time>2026-04-08T07:03:50Z</time></trkpt><trkpt lat="51.313570190842" lon="17.04221322512497"><ele>206.0</ele><time>2026-04-08T07:03:51Z</time></trkpt><trkpt lat="51.31366531571499" lon="17.042045941052333"><ele>207.0</ele><time>2026-04-08T07:03:52Z</time></trkpt><trkpt lat="51.313763841225956" lon="17.041868577998063"><ele>208.0</ele><time>2026-04-08T07:03:53Z</time></trkpt><trkpt lat="51.31386500084343" lon="17.041681778991357"><ele>209.0</ele><time>2026-04-08T07:03:54Z</time></trkpt><trkpt lat="51.313967724071546" lon="17.04149668057924"><ele>210.66666666666669</ele><time>2026-04-08T07:03:55Z</time></trkpt><trkpt lat="51.31407527963926" lon="17.041317773855663"><ele>212.33333333333331</ele><time>2026-04-08T07:03:56Z</time></trkpt><trkpt lat="51.31419293062149" lon="17.041143614899777"><ele>214.0</ele><time>2026-04-08T07:03:57Z</time></trkpt><trkpt lat="51.31431132418661" lon="17.04097936813721"><ele>214.0</ele><time>2026-04-08T07:03:58Z</time></trkpt><trkpt lat="51.31442336572081" lon="17.04083642458026"><ele>214.0</ele><time>2026-04-08T07:03:59Z</time></trkpt><trkpt lat="51.31453743184141" lon="17.040703263449497"><ele>214.0</ele><time>2026-04-08T07:04:00Z</time></trkpt><trkpt lat="51.314655023477606" lon="17.04056865748106"><ele>214.0</ele><time>2026-04-08T07:04:01Z</time></trkpt><trkpt lat="51.31478283052477" lon="17.04043078531278"><ele>213.66666666666666</ele><time>2026-04-08T07:04:02Z</time></trkpt><trkpt lat="51.31491922518628" lon="17.040297845495584"><ele>213.33333333333331</ele><time>2026-04-08T07:04:03Z</time></trkpt><trkpt lat="51.31505629828995" lon="17.040159698201514"><ele>213.0</ele><time>2026-04-08T07:04:04Z</time></trkpt><trkpt lat="51.31519467359301" lon="17.040019561499328"><ele>214.66666666666669</ele><time>2026-04-08T07:04:05Z</time></trkpt><trkpt lat="51.31534648201343" lon="17.03990542085552"><ele>216.33333333333334</ele><time>2026-04-08T07:04:06Z</time></trkpt><trkpt lat="51.31548913708344" lon="17.039767971342386"><ele>218.0</ele><time>2026-04-08T07:04:07Z</time></trkpt><trkpt lat="51.315626016913306" lon="17.039619153384958"><ele>218.33333333333334</ele><time>2026-04-08T07:04:08Z</time></trkpt><trkpt lat="51.31577549141643" lon="17.039480629727763"><ele>218.66666666666669</ele><time>2026-04-08T07:04:09Z</time></trkpt><trkpt lat="51.31592700769176" lon="17.03934475889484"><ele>219.0</ele><time>2026-04-08T07:04:10Z</time></trkpt><trkpt lat="51.31607705333979" lon="17.039205280703456"><ele>219.33333333333331</ele><time>2026-04-08T07:04:11Z</time></trkpt><trkpt lat="51.316218456349766" lon="17.039069935910852"><ele>219.66666666666666</ele><time>2026-04-08T07:04:12Z</time></trkpt><trkpt lat="51.316362011440326" lon="17.038936144137843"><ele>220.0</ele><time>2026-04-08T07:04:13Z</time></trkpt><trkpt lat="51.31648612437401" lon="17.038821252549948"><ele>220.0</ele><time>2026-04-08T07:04:14Z</time></trkpt><trkpt lat="51.316599329199036" lon="17.03871659565326"><ele>220.0</ele><time>2026-04-08T07:04:15Z</time></trkpt><trkpt lat="51.31670563313455" lon="17.038620043912"><ele>220.0</ele><time>2026-04-08T07:04:16Z</time></trkpt><trkpt lat="51.31679373245559" lon="17.038530609707617"><ele>220.0</ele><time>2026-04-08T07:04:17Z</time></trkpt><trkpt lat="51.31687872246706" lon="17.038454148182755"><ele>220.0</ele><time>2026-04-08T07:04:18Z</time></trkpt><trkpt lat="51.3169464877246" lon="17.038404228869204"><ele>220.0</ele><time>2026-04-08T07:04:19Z</time></trkpt><trkpt lat="51.31702464460666" lon="17.038341448554938"><ele>220.0</ele><time>2026-04-08T07:04:21Z</time></trkpt><trkpt lat="51.317084882102705" lon="17.038262119298647"><ele>220.0</ele><time>2026-04-08T07:04:27Z</time></trkpt><trkpt lat="51.31704601329768" lon="17.03801711401081"><ele>220.0</ele><time>2026-04-08T07:04:31Z</time></trkpt><trkpt lat="51.31698933254261" lon="17.037972212418886"><ele>219.99999999999997</ele><time>2026-04-08T07:04:34Z</time></trkpt><trkpt lat="51.31691268533058" lon="17.038010178255544"><ele>220.0</ele><time>2026-04-08T07:04:43Z</time></trkpt><trkpt lat="51.316788220387906" lon="17.037989390196117"><ele>220.0</ele><time>2026-04-08T07:04:45Z</time></trkpt><trkpt lat="51.3167247262502" lon="17.037947663701523"><ele>220.0</ele><time>2026-04-08T07:04:48Z</time></trkpt><trkpt lat="51.316693463977806" lon="17.03804314218181"><ele>219.99999999999997</ele><time>2026-04-08T07:04:51Z</time></trkpt><trkpt lat="51.31676065466199" lon="17.038058680522816"><ele>220.0</ele><time>2026-04-08T07:04:57Z</time></trkpt><trkpt lat="51.31681456475677" lon="17.037996992564384"><ele>220.0</ele><time>2026-04-08T07:05:33Z</time></trkpt><trkpt lat="51.316881432131794" lon="17.038006417899073"><ele>220.0</ele><time>2026-04-08T07:05:41Z</time></trkpt><trkpt lat="51.316942370036436" lon="17.038038886990826"><ele>220.0</ele><time>2026-04-08T07:05:43Z</time></trkpt><trkpt lat="51.31703040162597" lon="17.03811711946798"><ele>220.0</ele><time>2026-04-08T07:05:48Z</time></trkpt><trkpt lat="51.31703201499412" lon="17.03828760837832"><ele>220.0</ele><time>2026-04-08T07:05:50Z</time></trkpt><trkpt lat="51.316979043635094" lon="17.038445450820383"><ele>220.0</ele><time>2026-04-08T07:05:52Z</time></trkpt><trkpt lat="51.31705024562855" lon="17.03862247503621"><ele>220.0</ele><time>2026-04-08T07:05:54Z</time></trkpt><trkpt lat="51.31716591218679" lon="17.03858047839789"><ele>220.0</ele><time>2026-04-08T07:05:55Z</time></trkpt><trkpt lat="51.31726544366761" lon="17.038570121314443"><ele>220.0</ele><time>2026-04-08T07:05:56Z</time></trkpt><trkpt lat="51.31737866049951" lon="17.03854147407364"><ele>219.25</ele><time>2026-04-08T07:05:57Z</time></trkpt><trkpt lat="51.317506610357285" lon="17.038508599973465"><ele>218.5</ele><time>2026-04-08T07:05:58Z</time></trkpt><trkpt lat="51.31764291720628" lon="17.03847338234327"><ele>217.75</ele><time>2026-04-08T07:05:59Z</time></trkpt><trkpt lat="51.3177876716573" lon="17.038440522725736"><ele>217.0</ele><time>2026-04-08T07:06:00Z</time></trkpt><trkpt lat="51.31792887308864" lon="17.03843375303294"><ele>217.0</ele><time>2026-04-08T07:06:01Z</time></trkpt><trkpt lat="51.31804551072634" lon="17.03837795818142"><ele>217.0</ele><time>2026-04-08T07:06:02Z</time></trkpt><trkpt lat="51.31815341410831" lon="17.038359303930555"><ele>217.0</ele><time>2026-04-08T07:06:03Z</time></trkpt><trkpt lat="51.318257901806405" lon="17.038299181725222"><ele>217.0</ele><time>2026-04-08T07:06:04Z</time></trkpt><trkpt lat="51.318358155800404" lon="17.038203935309003"><ele>216.39999999999998</ele><time>2026-04-08T07:06:05Z</time></trkpt><trkpt lat="51.31844046760892" lon="17.03806115809323"><ele>215.79999999999998</ele><time>2026-04-08T07:06:06Z</time></trkpt><trkpt lat="51.31851725746579" lon="17.037934653836626"><ele>215.2</ele><time>2026-04-08T07:06:07Z</time></trkpt><trkpt lat="51.318578387492224" lon="17.037815982919977"><ele>214.6</ele><time>2026-04-08T07:06:08Z</time></trkpt><trkpt lat="51.31862651331303" lon="17.037691951743714"><ele>214.0</ele><time>2026-04-08T07:06:09Z</time></trkpt><trkpt lat="51.318663626846515" lon="17.037577248014607"><ele>213.99999999999997</ele><time>2026-04-08T07:06:10Z</time></trkpt><trkpt lat="51.318693466628886" lon="17.0374737392857"><ele>214.0</ele><time>2026-04-08T07:06:11Z</time></trkpt><trkpt lat="51.31871982290679" lon="17.037363541108174"><ele>214.0</ele><time>2026-04-08T07:06:12Z</time></trkpt><trkpt lat="51.3187401199141" lon="17.037259937229788"><ele>214.0</ele><time>2026-04-08T07:06:13Z</time></trkpt><trkpt lat="51.31877747869596" lon="17.037122403414177"><ele>213.99999999999997</ele><time>2026-04-08T07:06:15Z</time></trkpt><trkpt lat="51.31880818446492" lon="17.03701031954556"><ele>214.0</ele><time>2026-04-08T07:06:27Z</time></trkpt><trkpt lat="51.318849270772446" lon="17.036904507752627"><ele>213.0</ele><time>2026-04-08T07:06:30Z</time></trkpt><trkpt lat="51.31891399490064" lon="17.0368140489284"><ele>211.99999999999997</ele><time>2026-04-08T07:06:32Z</time></trkpt><trkpt lat="51.31899289915428" lon="17.036779684462186"><ele>211.0</ele><time>2026-04-08T07:06:33Z</time></trkpt><trkpt lat="51.319093562307614" lon="17.036721987784"><ele>210.0</ele><time>2026-04-08T07:06:34Z</time></trkpt><trkpt lat="51.31921200932833" lon="17.036654997108283"><ele>209.0</ele><time>2026-04-08T07:06:35Z</time></trkpt><trkpt lat="51.319344634277925" lon="17.03658505912587"><ele>208.33333333333334</ele><time>2026-04-08T07:06:36Z</time></trkpt><trkpt lat="51.31949105834693" lon="17.03650858086045"><ele>207.66666666666669</ele><time>2026-04-08T07:06:37Z</time></trkpt><trkpt lat="51.31964930448538" lon="17.03642832533058"><ele>207.0</ele><time>2026-04-08T07:06:38Z</time></trkpt><trkpt lat="51.319817555478224" lon="17.036342367612704"><ele>205.33333333333331</ele><time>2026-04-08T07:06:39Z</time></trkpt><trkpt lat="51.31998485649636" lon="17.036254395764757"><ele>203.66666666666666</ele><time>2026-04-08T07:06:40Z</time></trkpt><trkpt lat="51.320149647317855" lon="17.03616702698392"><ele>202.0</ele><time>2026-04-08T07:06:41Z</time></trkpt><trkpt lat="51.3203237840622" lon="17.036072353228228"><ele>202.0</ele><time>2026-04-08T07:06:42Z</time></trkpt><trkpt lat="51.32049757946285" lon="17.035967560920252"><ele>202.0</ele><time>2026-04-08T07:06:43Z</time></trkpt><trkpt lat="51.32067645590208" lon="17.035853194111922"><ele>202.0</ele><time>2026-04-08T07:06:44Z</time></trkpt><trkpt lat="51.32085790841243" lon="17.035733137058134"><ele>200.33333333333331</ele><time>2026-04-08T07:06:45Z</time></trkpt><trkpt lat="51.3210451162296" lon="17.03560821549007"><ele>198.66666666666669</ele><time>2026-04-08T07:06:46Z</time></trkpt><trkpt lat="51.32123490315296" lon="17.035490307664958"><ele>197.0</ele><time>2026-04-08T07:06:47Z</time></trkpt><trkpt lat="51.321427718316414" lon="17.035382327200306"><ele>196.33333333333334</ele><time>2026-04-08T07:06:48Z</time></trkpt><trkpt lat="51.3216175393628" lon="17.0352553961034"><ele>195.66666666666669</ele><time>2026-04-08T07:06:49Z</time></trkpt><trkpt lat="51.32178871188253" lon="17.03511023871281"><ele>195.0</ele><time>2026-04-08T07:06:50Z</time></trkpt><trkpt lat="51.321963592418804" lon="17.034979087608193"><ele>194.0</ele><time>2026-04-08T07:06:51Z</time></trkpt><trkpt lat="51.32213590891391" lon="17.034830450088677"><ele>193.0</ele><time>2026-04-08T07:06:52Z</time></trkpt><trkpt lat="51.322314637912726" lon="17.034712932678655"><ele>192.0</ele><time>2026-04-08T07:06:53Z</time></trkpt><trkpt lat="51.32248779967385" lon="17.034572889948098"><ele>191.66666666666666</ele><time>2026-04-08T07:06:54Z</time></trkpt><trkpt lat="51.32266028823651" lon="17.034426584499045"><ele>191.33333333333331</ele><time>2026-04-08T07:06:55Z</time></trkpt><trkpt lat="51.322832686093975" lon="17.03427595933975"><ele>191.0</ele><time>2026-04-08T07:06:56Z</time></trkpt><trkpt lat="51.323008461009444" lon="17.034122307472575"><ele>188.66666666666666</ele><time>2026-04-08T07:06:57Z</time></trkpt><trkpt lat="51.32318699484297" lon="17.033965543354782"><ele>186.33333333333334</ele><time>2026-04-08T07:06:58Z</time></trkpt><trkpt lat="51.32336658615924" lon="17.033806700164362"><ele>184.0</ele><time>2026-04-08T07:06:59Z</time></trkpt><trkpt lat="51.32354669316345" lon="17.0336471520361"><ele>184.0</ele><time>2026-04-08T07:07:00Z</time></trkpt><trkpt lat="51.323719691212204" lon="17.0334918952987"><ele>184.0</ele><time>2026-04-08T07:07:01Z</time></trkpt><trkpt lat="51.32388638130207" lon="17.033341507039573"><ele>184.0</ele><time>2026-04-08T07:07:02Z</time></trkpt><trkpt lat="51.32404692311597" lon="17.03319480887494"><ele>184.33333333333334</ele><time>2026-04-08T07:07:03Z</time></trkpt><trkpt lat="51.32420319495661" lon="17.033053701049486"><ele>184.66666666666666</ele><time>2026-04-08T07:07:04Z</time></trkpt><trkpt lat="51.32435514949115" lon="17.03291701786802"><ele>185.0</ele><time>2026-04-08T07:07:05Z</time></trkpt><trkpt lat="51.324508517191774" lon="17.032780484490594"><ele>185.0</ele><time>2026-04-08T07:07:06Z</time></trkpt><trkpt lat="51.324661901122866" lon="17.032644118511186"><ele>185.0</ele><time>2026-04-08T07:07:07Z</time></trkpt><trkpt lat="51.32481551712415" lon="17.032505498792"><ele>185.0</ele><time>2026-04-08T07:07:08Z</time></trkpt><trkpt lat="51.32497061874215" lon="17.032363780045603"><ele>184.0</ele><time>2026-04-08T07:07:09Z</time></trkpt><trkpt lat="51.325118903533934" lon="17.032194768000476"><ele>183.0</ele><time>2026-04-08T07:07:10Z</time></trkpt><trkpt lat="51.325279939585776" lon="17.03205156715795"><ele>182.0</ele><time>2026-04-08T07:07:11Z</time></trkpt><trkpt lat="51.32544263040086" lon="17.031904335679254"><ele>180.66666666666666</ele><time>2026-04-08T07:07:12Z</time></trkpt><trkpt lat="51.3255974236831" lon="17.031756241949235"><ele>179.33333333333334</ele><time>2026-04-08T07:07:13Z</time></trkpt><trkpt lat="51.325743688283225" lon="17.031605765662334"><ele>178.0</ele><time>2026-04-08T07:07:14Z</time></trkpt><trkpt lat="51.32588020949284" lon="17.031443983971"><ele>177.33333333333334</ele><time>2026-04-08T07:07:15Z</time></trkpt><trkpt lat="51.32601574415082" lon="17.031280507779258"><ele>176.66666666666666</ele><time>2026-04-08T07:07:16Z</time></trkpt><trkpt lat="51.32614758301819" lon="17.03114438952885"><ele>176.0</ele><time>2026-04-08T07:07:17Z</time></trkpt><trkpt lat="51.32627563150389" lon="17.031020898489405"><ele>174.5</ele><time>2026-04-08T07:07:18Z</time></trkpt><trkpt lat="51.326404969276965" lon="17.03091697594185"><ele>173.0</ele><time>2026-04-08T07:07:19Z</time></trkpt><trkpt lat="51.32654150201992" lon="17.030832015970386"><ele>171.5</ele><time>2026-04-08T07:07:20Z</time></trkpt><trkpt lat="51.32667545221516" lon="17.03073945198173"><ele>170.0</ele><time>2026-04-08T07:07:21Z</time></trkpt><trkpt lat="51.3267894564823" lon="17.030618778686517"><ele>170.0</ele><time>2026-04-08T07:07:22Z</time></trkpt><trkpt lat="51.32688740149" lon="17.030521514949715"><ele>170.0</ele><time>2026-04-08T07:07:23Z</time></trkpt><trkpt lat="51.326975932775426" lon="17.030418263214983"><ele>170.0</ele><time>2026-04-08T07:07:24Z</time></trkpt><trkpt lat="51.32704030946675" lon="17.03032260049519"><ele>170.0</ele><time>2026-04-08T07:07:25Z</time></trkpt><trkpt lat="51.327091452872075" lon="17.03023999781657"><ele>170.0</ele><time>2026-04-08T07:07:26Z</time></trkpt><trkpt lat="51.32720910141868" lon="17.029942740747785"><ele>169.83333333333331</ele><time>2026-04-08T07:07:27Z</time></trkpt><trkpt lat="51.327251094951706" lon="17.029787063451117"><ele>169.66666666666666</ele><time>2026-04-08T07:07:28Z</time></trkpt><trkpt lat="51.32728136308486" lon="17.029644899323877"><ele>169.5</ele><time>2026-04-08T07:07:29Z</time></trkpt><trkpt lat="51.327314266291204" lon="17.0295265719327"><ele>169.33333333333334</ele><time>2026-04-08T07:07:30Z</time></trkpt><trkpt lat="51.32731964666645" lon="17.02941538295965"><ele>169.16666666666669</ele><time>2026-04-08T07:07:31Z</time></trkpt><trkpt lat="51.327353358748695" lon="17.02927893429658"><ele>169.0</ele><time>2026-04-08T07:07:33Z</time></trkpt><trkpt lat="51.32722442068885" lon="17.02919672594655"><ele>169.79999999999998</ele><time>2026-04-08T07:07:34Z</time></trkpt><trkpt lat="51.32717222143546" lon="17.029122855659242"><ele>170.6</ele><time>2026-04-08T07:07:35Z</time></trkpt><trkpt lat="51.32709712088236" lon="17.029074577367712"><ele>171.4</ele><time>2026-04-08T07:07:36Z</time></trkpt><trkpt lat="51.327051059165655" lon="17.02898678172059"><ele>172.2</ele><time>2026-04-08T07:07:37Z</time></trkpt><trkpt lat="51.32693664558011" lon="17.028862886075263"><ele>173.0</ele><time>2026-04-08T07:07:39Z</time></trkpt><trkpt lat="51.32684430016281" lon="17.028783018262626"><ele>173.0</ele><time>2026-04-08T07:07:41Z</time></trkpt><trkpt lat="51.326759726277686" lon="17.02868088407902"><ele>173.0</ele><time>2026-04-08T07:07:43Z</time></trkpt><trkpt lat="51.32669673181753" lon="17.02863896477978"><ele>173.0</ele><time>2026-04-08T07:07:46Z</time></trkpt><trkpt lat="51.32662135417848" lon="17.028580622267377"><ele>173.0</ele><time>2026-04-08T07:07:48Z</time></trkpt><trkpt lat="51.326499855483185" lon="17.028482370360678"><ele>173.0</ele><time>2026-04-08T07:07:51Z</time></trkpt><trkpt lat="51.326437732517334" lon="17.028423823157375"><ele>173.25</ele><time>2026-04-08T07:07:53Z</time></trkpt><trkpt lat="51.326322742441434" lon="17.028310002604215"><ele>173.5</ele><time>2026-04-08T07:07:55Z</time></trkpt><trkpt lat="51.326238349705385" lon="17.028225288521572"><ele>173.75</ele><time>2026-04-08T07:07:56Z</time></trkpt><trkpt lat="51.32614388121689" lon="17.028140283715082"><ele>174.0</ele><time>2026-04-08T07:07:57Z</time></trkpt><trkpt lat="51.32604345397604" lon="17.02802591932345"><ele>174.25</ele><time>2026-04-08T07:07:58Z</time></trkpt><trkpt lat="51.325937055849785" lon="17.027907165303528"><ele>174.5</ele><time>2026-04-08T07:07:59Z</time></trkpt><trkpt lat="51.32584132696431" lon="17.02776408966662"><ele>174.75</ele><time>2026-04-08T07:08:00Z</time></trkpt><trkpt lat="51.325744812268645" lon="17.027613848295548"><ele>175.0</ele><time>2026-04-08T07:08:01Z</time></trkpt><trkpt lat="51.32563876027593" lon="17.02747682127944"><ele>175.6</ele><time>2026-04-08T07:08:02Z</time></trkpt><trkpt lat="51.3255422075303" lon="17.027351852613663"><ele>176.2</ele><time>2026-04-08T07:08:03Z</time></trkpt><trkpt lat="51.32547030995593" lon="17.02723780118377"><ele>176.8</ele><time>2026-04-08T07:08:04Z</time></trkpt><trkpt lat="51.32541219270631" lon="17.027138219163366"><ele>177.4</ele><time>2026-04-08T07:08:05Z</time></trkpt><trkpt lat="51.32535791529064" lon="17.027054427525886"><ele>178.0</ele><time>2026-04-08T07:08:06Z</time></trkpt><trkpt lat="51.32530108455347" lon="17.026941436544767"><ele>178.0</ele><time>2026-04-08T07:08:07Z</time></trkpt><trkpt lat="51.32522492371746" lon="17.026845108790248"><ele>178.0</ele><time>2026-04-08T07:08:08Z</time></trkpt><trkpt lat="51.32515817796899" lon="17.026734007693253"><ele>178.0</ele><time>2026-04-08T07:08:09Z</time></trkpt><trkpt lat="51.325106026100016" lon="17.026625944956717"><ele>178.0</ele><time>2026-04-08T07:08:10Z</time></trkpt><trkpt lat="51.32504774990759" lon="17.026557221552988"><ele>178.0</ele><time>2026-04-08T07:08:11Z</time></trkpt><trkpt lat="51.3250442815202" lon="17.0263854451861"><ele>178.0</ele><time>2026-04-08T07:08:12Z</time></trkpt><trkpt lat="51.32504312295581" lon="17.026231514562234"><ele>178.0</ele><time>2026-04-08T07:08:13Z</time></trkpt><trkpt lat="51.325029175514544" lon="17.02605419509703"><ele>178.0</ele><time>2026-04-08T07:08:14Z</time></trkpt><trkpt lat="51.32499635363444" lon="17.025874175609758"><ele>178.0</ele><time>2026-04-08T07:08:15Z</time></trkpt><trkpt lat="51.324969076457194" lon="17.02570301171871"><ele>178.0</ele><time>2026-04-08T07:08:16Z</time></trkpt><trkpt lat="51.32494383343346" lon="17.025549266771982"><ele>177.33333333333334</ele><time>2026-04-08T07:08:17Z</time></trkpt><trkpt lat="51.32492364784927" lon="17.025405539353134"><ele>176.66666666666669</ele><time>2026-04-08T07:08:18Z</time></trkpt><trkpt lat="51.3249049271562" lon="17.02526852201228"><ele>176.0</ele><time>2026-04-08T07:08:19Z</time></trkpt><trkpt lat="51.32488309488153" lon="17.025129197968788"><ele>175.33333333333334</ele><time>2026-04-08T07:08:20Z</time></trkpt><trkpt lat="51.32486582770856" lon="17.024986843356263"><ele>174.66666666666666</ele><time>2026-04-08T07:08:21Z</time></trkpt><trkpt lat="51.32484268494954" lon="17.024850151021706"><ele>174.0</ele><time>2026-04-08T07:08:22Z</time></trkpt><trkpt lat="51.324818476518374" lon="17.02472216984588"><ele>173.42857142857142</ele><time>2026-04-08T07:08:23Z</time></trkpt><trkpt lat="51.32479669919447" lon="17.02460843529989"><ele>172.85714285714286</ele><time>2026-04-08T07:08:24Z</time></trkpt><trkpt lat="51.324777018826346" lon="17.024512397149753"><ele>172.28571428571428</ele><time>2026-04-08T07:08:25Z</time></trkpt><trkpt lat="51.32475033841284" lon="17.024415776211058"><ele>171.71428571428572</ele><time>2026-04-08T07:08:26Z</time></trkpt><trkpt lat="51.32472172703915" lon="17.024308956327015"><ele>171.14285714285714</ele><time>2026-04-08T07:08:27Z</time></trkpt><trkpt lat="51.32468632146051" lon="17.02419132677893"><ele>170.57142857142858</ele><time>2026-04-08T07:08:28Z</time></trkpt><trkpt lat="51.324650355742406" lon="17.024081918294694"><ele>170.0</ele><time>2026-04-08T07:08:29Z</time></trkpt><trkpt lat="51.32462525664513" lon="17.023979718837346"><ele>169.6</ele><time>2026-04-08T07:08:30Z</time></trkpt><trkpt lat="51.32460753305006" lon="17.023842061235563"><ele>169.2</ele><time>2026-04-08T07:08:33Z</time></trkpt><trkpt lat="51.32470984986259" lon="17.023757633386595"><ele>168.8</ele><time>2026-04-08T07:08:35Z</time></trkpt><trkpt lat="51.324791285265" lon="17.02369928487323"><ele>168.4</ele><time>2026-04-08T07:08:36Z</time></trkpt><trkpt lat="51.324879123236535" lon="17.023636024366915"><ele>168.0</ele><time>2026-04-08T07:08:37Z</time></trkpt><trkpt lat="51.3249718530835" lon="17.02355493151917"><ele>168.0</ele><time>2026-04-08T07:08:38Z</time></trkpt><trkpt lat="51.32505836166165" lon="17.02346139137426"><ele>168.0</ele><time>2026-04-08T07:08:39Z</time></trkpt><trkpt lat="51.32514587832502" lon="17.023346088350007"><ele>168.0</ele><time>2026-04-08T07:08:40Z</time></trkpt><trkpt lat="51.325230391053076" lon="17.023212040716892"><ele>168.0</ele><time>2026-04-08T07:08:41Z</time></trkpt><trkpt lat="51.32532384713146" lon="17.02307772883206"><ele>167.5</ele><time>2026-04-08T07:08:42Z</time></trkpt><trkpt lat="51.32542194766887" lon="17.02293423696615"><ele>167.0</ele><time>2026-04-08T07:08:43Z</time></trkpt><trkpt lat="51.325524720204115" lon="17.02278119239149"><ele>166.5</ele><time>2026-04-08T07:08:44Z</time></trkpt><trkpt lat="51.32562473117221" lon="17.022636068977683"><ele>166.0</ele><time>2026-04-08T07:08:45Z</time></trkpt><trkpt lat="51.325709253317875" lon="17.022513043503558"><ele>165.5</ele><time>2026-04-08T07:08:46Z</time></trkpt><trkpt lat="51.3257908857679" lon="17.022418935674946"><ele>165.0</ele><time>2026-04-08T07:08:47Z</time></trkpt><trkpt lat="51.3258998862252" lon="17.02238190868608"><ele>164.5</ele><time>2026-04-08T07:08:48Z</time></trkpt><trkpt lat="51.3260130774206" lon="17.02230421646838"><ele>164.0</ele><time>2026-04-08T07:08:49Z</time></trkpt><trkpt lat="51.32613376530815" lon="17.02222486503413"><ele>164.0</ele><time>2026-04-08T07:08:50Z</time></trkpt><trkpt lat="51.32626184419778" lon="17.02214418629113"><ele>164.0</ele><time>2026-04-08T07:08:51Z</time></trkpt><trkpt lat="51.326389150403415" lon="17.022078850900147"><ele>164.0</ele><time>2026-04-08T07:08:52Z</time></trkpt><trkpt lat="51.32651122205062" lon="17.022007649416274"><ele>164.0</ele><time>2026-04-08T07:08:53Z</time></trkpt><trkpt lat="51.32663067036957" lon="17.02195453913559"><ele>163.75</ele><time>2026-04-08T07:08:54Z</time></trkpt><trkpt lat="51.32674975791119" lon="17.021933529023332"><ele>163.5</ele><time>2026-04-08T07:08:55Z</time></trkpt><trkpt lat="51.3268560630599" lon="17.021877539564073"><ele>163.25</ele><time>2026-04-08T07:08:56Z</time></trkpt><trkpt lat="51.32697126574666" lon="17.021837246864987"><ele>163.0</ele><time>2026-04-08T07:08:57Z</time></trkpt><trkpt lat="51.327084751982774" lon="17.02182369168533"><ele>163.0</ele><time>2026-04-08T07:08:58Z</time></trkpt><trkpt lat="51.3272044139187" lon="17.021810502819804"><ele>163.0</ele><time>2026-04-08T07:08:59Z</time></trkpt><trkpt lat="51.32732534032471" lon="17.021784337930967"><ele>163.0</ele><time>2026-04-08T07:09:00Z</time></trkpt><trkpt lat="51.32745280216458" lon="17.02175904172259"><ele>163.0</ele><time>2026-04-08T07:09:01Z</time></trkpt><trkpt lat="51.32757706242328" lon="17.021729220393908"><ele>163.0</ele><time>2026-04-08T07:09:02Z</time></trkpt><trkpt lat="51.32770693856351" lon="17.021692591084175"><ele>163.0</ele><time>2026-04-08T07:09:03Z</time></trkpt><trkpt lat="51.327829365821934" lon="17.021664256049856"><ele>163.0</ele><time>2026-04-08T07:09:04Z</time></trkpt><trkpt lat="51.327943443512204" lon="17.021636080922544"><ele>163.0</ele><time>2026-04-08T07:09:05Z</time></trkpt><trkpt lat="51.3280360814707" lon="17.021634373566783"><ele>162.60000000000002</ele><time>2026-04-08T07:09:06Z</time></trkpt><trkpt lat="51.32810708673119" lon="17.02162490557302"><ele>162.20000000000002</ele><time>2026-04-08T07:09:07Z</time></trkpt><trkpt lat="51.32820566094948" lon="17.02164895570339"><ele>161.8</ele><time>2026-04-08T07:09:09Z</time></trkpt><trkpt lat="51.32820401926886" lon="17.021874586713622"><ele>161.4</ele><time>2026-04-08T07:09:11Z</time></trkpt><trkpt lat="51.32820638325356" lon="17.022004438338737"><ele>161.0</ele><time>2026-04-08T07:09:12Z</time></trkpt><trkpt lat="51.32820854016334" lon="17.022153044458467"><ele>161.0</ele><time>2026-04-08T07:09:13Z</time></trkpt><trkpt lat="51.328207355920966" lon="17.02230365276396"><ele>161.0</ele><time>2026-04-08T07:09:14Z</time></trkpt><trkpt lat="51.328200256941784" lon="17.022472536058245"><ele>161.0</ele><time>2026-04-08T07:09:15Z</time></trkpt><trkpt lat="51.328180794996136" lon="17.022658669558968"><ele>161.0</ele><time>2026-04-08T07:09:16Z</time></trkpt><trkpt lat="51.32816865929728" lon="17.022847372034178"><ele>161.0</ele><time>2026-04-08T07:09:17Z</time></trkpt><trkpt lat="51.32813893031476" lon="17.02298067300594"><ele>161.5</ele><time>2026-04-08T07:09:18Z</time></trkpt><trkpt lat="51.328093718512804" lon="17.023077077566224"><ele>162.0</ele><time>2026-04-08T07:09:19Z</time></trkpt><trkpt lat="51.32824154266845" lon="17.02330251122572"><ele>162.5</ele><time>2026-04-08T07:09:22Z</time></trkpt><trkpt lat="51.328329036980655" lon="17.02334068742783"><ele>163.0</ele><time>2026-04-08T07:09:23Z</time></trkpt><trkpt lat="51.32842424854161" lon="17.023381383019498"><ele>163.0</ele><time>2026-04-08T07:09:24Z</time></trkpt><trkpt lat="51.32853030013713" lon="17.02340212759956"><ele>163.0</ele><time>2026-04-08T07:09:25Z</time></trkpt><trkpt lat="51.32864134094144" lon="17.023441735328987"><ele>163.0</ele><time>2026-04-08T07:09:26Z</time></trkpt><trkpt lat="51.3287645800129" lon="17.023492485790964"><ele>163.0</ele><time>2026-04-08T07:09:27Z</time></trkpt><trkpt lat="51.3288992983091" lon="17.023530108818463"><ele>163.0</ele><time>2026-04-08T07:09:28Z</time></trkpt><trkpt lat="51.32902732526786" lon="17.02358251951044"><ele>163.0</ele><time>2026-04-08T07:09:29Z</time></trkpt><trkpt lat="51.32914994111774" lon="17.02361465645009"><ele>163.0</ele><time>2026-04-08T07:09:30Z</time></trkpt><trkpt lat="51.329271729165924" lon="17.023622968476726"><ele>163.0</ele><time>2026-04-08T07:09:31Z</time></trkpt><trkpt lat="51.32936902922759" lon="17.0236808357996"><ele>163.0</ele><time>2026-04-08T07:09:32Z</time></trkpt><trkpt lat="51.32946218213112" lon="17.023717777685707"><ele>163.0</ele><time>2026-04-08T07:09:33Z</time></trkpt><trkpt lat="51.329552644399286" lon="17.023754798194457"><ele>163.0</ele><time>2026-04-08T07:09:34Z</time></trkpt><trkpt lat="51.329634124848845" lon="17.02378814300759"><ele>163.0</ele><time>2026-04-08T07:09:35Z</time></trkpt><trkpt lat="51.32973023356157" lon="17.023800497665533"><ele>163.0</ele><time>2026-04-08T07:09:36Z</time></trkpt><trkpt lat="51.32981986229176" lon="17.023825717404307"><ele>162.0</ele><time>2026-04-08T07:09:37Z</time></trkpt><trkpt lat="51.32991153388622" lon="17.023824936098737"><ele>161.0</ele><time>2026-04-08T07:09:38Z</time></trkpt><trkpt lat="51.33000001071635" lon="17.02377617742891"><ele>160.0</ele><time>2026-04-08T07:09:39Z</time></trkpt><trkpt lat="51.330077726313746" lon="17.02367227026353"><ele>159.0</ele><time>2026-04-08T07:09:40Z</time></trkpt><trkpt lat="51.33015280547965" lon="17.02354594325569"><ele>158.0</ele><time>2026-04-08T07:09:41Z</time></trkpt><trkpt lat="51.33024071196248" lon="17.023409867135168"><ele>157.75</ele><time>2026-04-08T07:09:42Z</time></trkpt><trkpt lat="51.330349483957484" lon="17.02328196076079"><ele>157.5</ele><time>2026-04-08T07:09:43Z</time></trkpt><trkpt lat="51.3304418101775" lon="17.023127232757332"><ele>157.25</ele><time>2026-04-08T07:09:44Z</time></trkpt><trkpt lat="51.330545303952185" lon="17.0229874370409"><ele>157.0</ele><time>2026-04-08T07:09:45Z</time></trkpt><trkpt lat="51.33064927530606" lon="17.022833427438187"><ele>156.79999999999998</ele><time>2026-04-08T07:09:46Z</time></trkpt><trkpt lat="51.33074833160323" lon="17.022693356494543"><ele>156.6</ele><time>2026-04-08T07:09:47Z</time></trkpt><trkpt lat="51.33083311045944" lon="17.02257276297475"><ele>156.39999999999998</ele><time>2026-04-08T07:09:48Z</time></trkpt><trkpt lat="51.330910379757825" lon="17.022470497019327"><ele>156.2</ele><time>2026-04-08T07:09:49Z</time></trkpt><trkpt lat="51.33099376384603" lon="17.02239709987979"><ele>156.0</ele><time>2026-04-08T07:09:50Z</time></trkpt><trkpt lat="51.33107679538727" lon="17.022303212786785"><ele>155.8</ele><time>2026-04-08T07:09:51Z</time></trkpt><trkpt lat="51.331167718771816" lon="17.022248779582153"><ele>155.6</ele><time>2026-04-08T07:09:52Z</time></trkpt><trkpt lat="51.331259172722376" lon="17.022232278867047"><ele>155.4</ele><time>2026-04-08T07:09:53Z</time></trkpt><trkpt lat="51.3313427971488" lon="17.02223645567544"><ele>155.2</ele><time>2026-04-08T07:09:54Z</time></trkpt><trkpt lat="51.331402725301594" lon="17.02234860391026"><ele>155.0</ele><time>2026-04-08T07:09:55Z</time></trkpt><trkpt lat="51.33146736231834" lon="17.02244126739648"><ele>155.0</ele><time>2026-04-08T07:09:56Z</time></trkpt><trkpt lat="51.331534964395985" lon="17.02250907478752"><ele>155.0</ele><time>2026-04-08T07:09:57Z</time></trkpt><trkpt lat="51.3315736161681" lon="17.022606085459532"><ele>155.0</ele><time>2026-04-08T07:09:58Z</time></trkpt><trkpt lat="51.33162249266482" lon="17.022709321528655"><ele>155.0</ele><time>2026-04-08T07:09:59Z</time></trkpt><trkpt lat="51.331677412855136" lon="17.022822807750916"><ele>155.0</ele><time>2026-04-08T07:10:00Z</time></trkpt><trkpt lat="51.331718696347494" lon="17.022951160339325"><ele>155.0</ele><time>2026-04-08T07:10:01Z</time></trkpt><trkpt lat="51.33177181442444" lon="17.023082214099915"><ele>155.0</ele><time>2026-04-08T07:10:02Z</time></trkpt><trkpt lat="51.331843923966304" lon="17.023196618639762"><ele>155.0</ele><time>2026-04-08T07:10:04Z</time></trkpt><trkpt lat="51.33192354855628" lon="17.02320044169653"><ele>155.0</ele><time>2026-04-08T07:10:05Z</time></trkpt><trkpt lat="51.33197839782554" lon="17.02304663339688"><ele>155.0</ele><time>2026-04-08T07:10:06Z</time></trkpt><trkpt lat="51.3320324527691" lon="17.022955940632304"><ele>155.0</ele><time>2026-04-08T07:10:07Z</time></trkpt><trkpt lat="51.33209750607125" lon="17.022861541271563"><ele>155.0</ele><time>2026-04-08T07:10:08Z</time></trkpt><trkpt lat="51.33214932284842" lon="17.022779878063048"><ele>155.0</ele><time>2026-04-08T07:10:09Z</time></trkpt><trkpt lat="51.33222924367695" lon="17.022679563165177"><ele>155.0</ele><time>2026-04-08T07:10:11Z</time></trkpt><trkpt lat="51.33232908234621" lon="17.022609116756133"><ele>155.0</ele><time>2026-04-08T07:10:13Z</time></trkpt><trkpt lat="51.33241644189404" lon="17.02253609549767"><ele>155.0</ele><time>2026-04-08T07:10:14Z</time></trkpt><trkpt lat="51.332490625800865" lon="17.02245944051001"><ele>154.5</ele><time>2026-04-08T07:10:15Z</time></trkpt><trkpt lat="51.33256546264917" lon="17.02237923068978"><ele>154.0</ele><time>2026-04-08T07:10:16Z</time></trkpt><trkpt lat="51.33264002354911" lon="17.02229687552311"><ele>153.5</ele><time>2026-04-08T07:10:17Z</time></trkpt><trkpt lat="51.33259080292782" lon="17.021956124492288"><ele>153.0</ele><time>2026-04-08T07:10:18Z</time></trkpt><trkpt lat="51.332684399999124" lon="17.021829899164075"><ele>153.0</ele><time>2026-04-08T07:10:20Z</time></trkpt><trkpt lat="51.33274201408925" lon="17.021737101485805"><ele>153.0</ele><time>2026-04-08T07:10:21Z</time></trkpt><trkpt lat="51.332806478093474" lon="17.02162431986817"><ele>153.0</ele><time>2026-04-08T07:10:22Z</time></trkpt><trkpt lat="51.33287803537884" lon="17.021517633819318"><ele>153.0</ele><time>2026-04-08T07:10:23Z</time></trkpt><trkpt lat="51.33293904357707" lon="17.0214267665514"><ele>153.0</ele><time>2026-04-08T07:10:24Z</time></trkpt><trkpt lat="51.33301851169657" lon="17.02132067676186"><ele>152.83333333333334</ele><time>2026-04-08T07:10:26Z</time></trkpt><trkpt lat="51.333104756719756" lon="17.0213681867301"><ele>152.66666666666666</ele><time>2026-04-08T07:10:28Z</time></trkpt><trkpt lat="51.33313830879498" lon="17.021454101559293"><ele>152.5</ele><time>2026-04-08T07:10:29Z</time></trkpt><trkpt lat="51.33316857943491" lon="17.02155073177001"><ele>152.33333333333331</ele><time>2026-04-08T07:10:30Z</time></trkpt><trkpt lat="51.33325096248283" lon="17.021665623114437"><ele>152.16666666666666</ele><time>2026-04-08T07:10:32Z</time></trkpt><trkpt lat="51.33334824387346" lon="17.021612250982066"><ele>152.0</ele><time>2026-04-08T07:10:34Z</time></trkpt><trkpt lat="51.333417526500135" lon="17.021529573006404"><ele>152.0</ele><time>2026-04-08T07:10:35Z</time></trkpt><trkpt lat="51.333490999681125" lon="17.02140959726007"><ele>152.0</ele><time>2026-04-08T07:10:36Z</time></trkpt><trkpt lat="51.33356956382326" lon="17.02128552162945"><ele>152.0</ele><time>2026-04-08T07:10:37Z</time></trkpt><trkpt lat="51.33363404714934" lon="17.021135329487166"><ele>152.0</ele><time>2026-04-08T07:10:38Z</time></trkpt><trkpt lat="51.33370120024335" lon="17.02096674550232"><ele>152.25</ele><time>2026-04-08T07:10:39Z</time></trkpt><trkpt lat="51.33376741014003" lon="17.020793070471143"><ele>152.5</ele><time>2026-04-08T07:10:40Z</time></trkpt><trkpt lat="51.33384290960329" lon="17.020638026179455"><ele>152.75</ele><time>2026-04-08T07:10:41Z</time></trkpt><trkpt lat="51.33393239806848" lon="17.02049198222704"><ele>153.0</ele><time>2026-04-08T07:10:42Z</time></trkpt><trkpt lat="51.334035673465216" lon="17.020354538786698"><ele>153.0</ele><time>2026-04-08T07:10:43Z</time></trkpt><trkpt lat="51.33414614056792" lon="17.020222986761077"><ele>153.0</ele><time>2026-04-08T07:10:44Z</time></trkpt><trkpt lat="51.33425477385732" lon="17.020078306368944"><ele>153.0</ele><time>2026-04-08T07:10:45Z</time></trkpt><trkpt lat="51.33435851055938" lon="17.01993965621146"><ele>153.0</ele><time>2026-04-08T07:10:46Z</time></trkpt><trkpt lat="51.33445503126486" lon="17.019839151082007"><ele>153.0</ele><time>2026-04-08T07:10:47Z</time></trkpt><trkpt lat="51.334548516640226" lon="17.019806534339494"><ele>153.0</ele><time>2026-04-08T07:10:48Z</time></trkpt><trkpt lat="51.33463971243357" lon="17.01981868215163"><ele>153.0</ele><time>2026-04-08T07:10:49Z</time></trkpt><trkpt lat="51.33472395863912" lon="17.019902867398496"><ele>153.0</ele><time>2026-04-08T07:10:50Z</time></trkpt><trkpt lat="51.33482657357972" lon="17.01997435943947"><ele>153.0</ele><time>2026-04-08T07:10:51Z</time></trkpt><trkpt lat="51.33494146710339" lon="17.02004856337988"><ele>153.0</ele><time>2026-04-08T07:10:52Z</time></trkpt><trkpt lat="51.335069684839304" lon="17.02010263833936"><ele>153.0</ele><time>2026-04-08T07:10:53Z</time></trkpt><trkpt lat="51.33520121069362" lon="17.020187898499795"><ele>153.0</ele><time>2026-04-08T07:10:54Z</time></trkpt><trkpt lat="51.33534043529252" lon="17.020270624451005"><ele>153.0</ele><time>2026-04-08T07:10:55Z</time></trkpt><trkpt lat="51.33547893404989" lon="17.020387455768255"><ele>153.5</ele><time>2026-04-08T07:10:56Z</time></trkpt><trkpt lat="51.335624976981165" lon="17.020480595752936"><ele>154.0</ele><time>2026-04-08T07:10:57Z</time></trkpt><trkpt lat="51.33576385261653" lon="17.02056976136641"><ele>154.5</ele><time>2026-04-08T07:10:58Z</time></trkpt><trkpt lat="51.33588339889538" lon="17.020653852996677"><ele>155.0</ele><time>2026-04-08T07:10:59Z</time></trkpt><trkpt lat="51.33599247820886" lon="17.02073046339416"><ele>155.0</ele><time>2026-04-08T07:11:00Z</time></trkpt><trkpt lat="51.33609654650347" lon="17.020783330603344"><ele>155.0</ele><time>2026-04-08T07:11:01Z</time></trkpt><trkpt lat="51.33620340362891" lon="17.020802615282737"><ele>155.0</ele><time>2026-04-08T07:11:02Z</time></trkpt><trkpt lat="51.33630087049243" lon="17.020777211527864"><ele>155.0</ele><time>2026-04-08T07:11:03Z</time></trkpt><trkpt lat="51.336376366010555" lon="17.02070148457478"><ele>155.0</ele><time>2026-04-08T07:11:04Z</time></trkpt><trkpt lat="51.33641399820782" lon="17.020564887370195"><ele>155.2</ele><time>2026-04-08T07:11:05Z</time></trkpt><trkpt lat="51.33647451073436" lon="17.020459466695982"><ele>155.4</ele><time>2026-04-08T07:11:06Z</time></trkpt><trkpt lat="51.33660098338947" lon="17.02053028848002"><ele>155.6</ele><time>2026-04-08T07:11:08Z</time></trkpt><trkpt lat="51.33667030109303" lon="17.020579435779258"><ele>155.8</ele><time>2026-04-08T07:11:09Z</time></trkpt><trkpt lat="51.33675458136467" lon="17.020639191835162"><ele>156.0</ele><time>2026-04-08T07:11:10Z</time></trkpt><trkpt lat="51.3368558805586" lon="17.02071101456158"><ele>156.0</ele><time>2026-04-08T07:11:11Z</time></trkpt><trkpt lat="51.33696340018732" lon="17.020787247658898"><ele>156.0</ele><time>2026-04-08T07:11:12Z</time></trkpt><trkpt lat="51.33707848221405" lon="17.020868850891596"><ele>156.0</ele><time>2026-04-08T07:11:13Z</time></trkpt><trkpt lat="51.337200752601774" lon="17.0209556421035"><ele>156.0</ele><time>2026-04-08T07:11:14Z</time></trkpt><trkpt lat="51.337329645954185" lon="17.021045355816383"><ele>156.0</ele><time>2026-04-08T07:11:15Z</time></trkpt><trkpt lat="51.33747010918823" lon="17.02111918911572"><ele>156.0</ele><time>2026-04-08T07:11:16Z</time></trkpt><trkpt lat="51.33761068954423" lon="17.021213558670997"><ele>156.0</ele><time>2026-04-08T07:11:17Z</time></trkpt><trkpt lat="51.33775373748819" lon="17.02131850245613"><ele>156.0</ele><time>2026-04-08T07:11:18Z</time></trkpt><trkpt lat="51.33789251099987" lon="17.02141136886919"><ele>156.0</ele><time>2026-04-08T07:11:19Z</time></trkpt><trkpt lat="51.33803407404282" lon="17.02149329650182"><ele>156.0</ele><time>2026-04-08T07:11:20Z</time></trkpt><trkpt lat="51.33817268037692" lon="17.021572110447817"><ele>156.0</ele><time>2026-04-08T07:11:21Z</time></trkpt><trkpt lat="51.338312100902044" lon="17.021641594538956"><ele>156.33333333333334</ele><time>2026-04-08T07:11:22Z</time></trkpt><trkpt lat="51.338461966713325" lon="17.02170935835938"><ele>156.66666666666669</ele><time>2026-04-08T07:11:23Z</time></trkpt><trkpt lat="51.33862086972539" lon="17.02176196121544"><ele>157.0</ele><time>2026-04-08T07:11:24Z</time></trkpt><trkpt lat="51.33878771178214" lon="17.021823878606718"><ele>155.33333333333334</ele><time>2026-04-08T07:11:25Z</time></trkpt><trkpt lat="51.338949915637144" lon="17.021914655382005"><ele>153.66666666666666</ele><time>2026-04-08T07:11:26Z</time></trkpt><trkpt lat="51.339121729681786" lon="17.021985259603294"><ele>152.0</ele><time>2026-04-08T07:11:27Z</time></trkpt><trkpt lat="51.33929111562817" lon="17.022037576455794"><ele>152.0</ele><time>2026-04-08T07:11:28Z</time></trkpt><trkpt lat="51.3394665549966" lon="17.02210261866391"><ele>152.0</ele><time>2026-04-08T07:11:29Z</time></trkpt><trkpt lat="51.339631518122815" lon="17.02216055377169"><ele>152.0</ele><time>2026-04-08T07:11:30Z</time></trkpt><trkpt lat="51.339802749736855" lon="17.022225367092954"><ele>151.66666666666666</ele><time>2026-04-08T07:11:31Z</time></trkpt><trkpt lat="51.33997019333993" lon="17.02232148340075"><ele>151.33333333333334</ele><time>2026-04-08T07:11:32Z</time></trkpt><trkpt lat="51.34013547840793" lon="17.022392340927695"><ele>151.0</ele><time>2026-04-08T07:11:33Z</time></trkpt><trkpt lat="51.340267203524874" lon="17.02244881138208"><ele>152.0</ele><time>2026-04-08T07:11:34Z</time></trkpt><trkpt lat="51.340415324213375" lon="17.022512112009462"><ele>153.0</ele><time>2026-04-08T07:11:35Z</time></trkpt><trkpt lat="51.34055974569949" lon="17.02257379024205"><ele>154.0</ele><time>2026-04-08T07:11:36Z</time></trkpt><trkpt lat="51.340703346084624" lon="17.022633224031942"><ele>154.0</ele><time>2026-04-08T07:11:37Z</time></trkpt><trkpt lat="51.340842022976624" lon="17.022689430119637"><ele>154.0</ele><time>2026-04-08T07:11:38Z</time></trkpt><trkpt lat="51.34097593788122" lon="17.022722965977838"><ele>154.0</ele><time>2026-04-08T07:11:39Z</time></trkpt><trkpt lat="51.3410925413342" lon="17.022791617835956"><ele>154.0</ele><time>2026-04-08T07:11:40Z</time></trkpt><trkpt lat="51.34120003010757" lon="17.022827804360087"><ele>154.0</ele><time>2026-04-08T07:11:41Z</time></trkpt><trkpt lat="51.341279642134566" lon="17.02285422349749"><ele>154.0</ele><time>2026-04-08T07:11:42Z</time></trkpt><trkpt lat="51.34138381912018" lon="17.022878229465938"><ele>154.0</ele><time>2026-04-08T07:11:44Z</time></trkpt><trkpt lat="51.34141376305698" lon="17.022728977231136"><ele>154.0</ele><time>2026-04-08T07:11:46Z</time></trkpt><trkpt lat="51.34140830888154" lon="17.02261150086252"><ele>154.0</ele><time>2026-04-08T07:11:47Z</time></trkpt><trkpt lat="51.341408250733814" lon="17.022474713684332"><ele>154.0</ele><time>2026-04-08T07:11:48Z</time></trkpt><trkpt lat="51.341431419718546" lon="17.022322490508643"><ele>155.25</ele><time>2026-04-08T07:11:49Z</time></trkpt><trkpt lat="51.34146396818507" lon="17.02214855029686"><ele>156.5</ele><time>2026-04-08T07:11:50Z</time></trkpt><trkpt lat="51.34149222529728" lon="17.021961352489665"><ele>157.75</ele><time>2026-04-08T07:11:51Z</time></trkpt><trkpt lat="51.341521193011886" lon="17.021775937352757"><ele>159.0</ele><time>2026-04-08T07:11:52Z</time></trkpt><trkpt lat="51.34154871319379" lon="17.021594955995244"><ele>159.4</ele><time>2026-04-08T07:11:53Z</time></trkpt><trkpt lat="51.341563856230046" lon="17.021395548671986"><ele>159.8</ele><time>2026-04-08T07:11:54Z</time></trkpt><trkpt lat="51.34157640111654" lon="17.021213913513105"><ele>160.20000000000002</ele><time>2026-04-08T07:11:55Z</time></trkpt><trkpt lat="51.34158327697963" lon="17.021061099048712"><ele>160.60000000000002</ele><time>2026-04-08T07:11:56Z</time></trkpt><trkpt lat="51.34160485213363" lon="17.020938095217286"><ele>161.0</ele><time>2026-04-08T07:11:57Z</time></trkpt><trkpt lat="51.34168598175788" lon="17.020822962288126"><ele>161.20000000000002</ele><time>2026-04-08T07:11:59Z</time></trkpt><trkpt lat="51.34177814635981" lon="17.02072532995674"><ele>161.4</ele><time>2026-04-08T07:12:01Z</time></trkpt><trkpt lat="51.341797375097535" lon="17.02060547993111"><ele>161.6</ele><time>2026-04-08T07:12:02Z</time></trkpt><trkpt lat="51.34181647757964" lon="17.020459831838917"><ele>161.8</ele><time>2026-04-08T07:12:03Z</time></trkpt><trkpt lat="51.34182375490956" lon="17.0203353772861"><ele>162.0</ele><time>2026-04-08T07:12:04Z</time></trkpt><trkpt lat="51.34171938419684" lon="17.020219868879202"><ele>162.0</ele><time>2026-04-08T07:12:06Z</time></trkpt><trkpt lat="51.341630395547305" lon="17.020194977349554"><ele>162.0</ele><time>2026-04-08T07:12:07Z</time></trkpt><trkpt lat="51.34153698023925" lon="17.020138809917732"><ele>162.0</ele><time>2026-04-08T07:12:08Z</time></trkpt><trkpt lat="51.341477486364774" lon="17.02007041069087"><ele>162.0</ele><time>2026-04-08T07:12:09Z</time></trkpt><trkpt lat="51.34143543442964" lon="17.019973210311402"><ele>162.0</ele><time>2026-04-08T07:12:10Z</time></trkpt><trkpt lat="51.3413835947513" lon="17.019835778045845"><ele>162.0</ele><time>2026-04-08T07:12:11Z</time></trkpt><trkpt lat="51.34135543582823" lon="17.0196808646619"><ele>162.0</ele><time>2026-04-08T07:12:12Z</time></trkpt><trkpt lat="51.341332372088885" lon="17.019556315107582"><ele>162.0</ele><time>2026-04-08T07:12:13Z</time></trkpt><trkpt lat="51.34134189769403" lon="17.019317752058473"><ele>162.0</ele><time>2026-04-08T07:12:15Z</time></trkpt><trkpt lat="51.34138622675815" lon="17.019171427672397"><ele>162.0</ele><time>2026-04-08T07:12:16Z</time></trkpt><trkpt lat="51.34143335069595" lon="17.019067913723283"><ele>162.0</ele><time>2026-04-08T07:12:17Z</time></trkpt><trkpt lat="51.34154861912161" lon="17.018988806958028"><ele>161.8</ele><time>2026-04-08T07:12:19Z</time></trkpt><trkpt lat="51.341644317609884" lon="17.01894690653075"><ele>161.6</ele><time>2026-04-08T07:12:20Z</time></trkpt><trkpt lat="51.341735505196766" lon="17.01889319690963"><ele>161.4</ele><time>2026-04-08T07:12:21Z</time></trkpt><trkpt lat="51.3418130283041" lon="17.0188057671322"><ele>161.20000000000002</ele><time>2026-04-08T07:12:22Z</time></trkpt><trkpt lat="51.34187460128907" lon="17.018694139254023"><ele>161.0</ele><time>2026-04-08T07:12:23Z</time></trkpt><trkpt lat="51.3419129185427" lon="17.018562263278938"><ele>161.0</ele><time>2026-04-08T07:12:24Z</time></trkpt><trkpt lat="51.3419292071471" lon="17.018406164912992"><ele>161.0</ele><time>2026-04-08T07:12:25Z</time></trkpt><trkpt lat="51.34194006768808" lon="17.018238516668205"><ele>161.0</ele><time>2026-04-08T07:12:26Z</time></trkpt><trkpt lat="51.341999891469264" lon="17.018105485765613"><ele>161.0</ele><time>2026-04-08T07:12:27Z</time></trkpt><trkpt lat="51.34206561667597" lon="17.018002862628556"><ele>161.0</ele><time>2026-04-08T07:12:28Z</time></trkpt><trkpt lat="51.34209784213098" lon="17.01786480140105"><ele>161.20000000000002</ele><time>2026-04-08T07:12:29Z</time></trkpt><trkpt lat="51.34210850046259" lon="17.0177020950347"><ele>161.4</ele><time>2026-04-08T07:12:30Z</time></trkpt><trkpt lat="51.342102350887174" lon="17.01752923480411"><ele>161.6</ele><time>2026-04-08T07:12:31Z</time></trkpt><trkpt lat="51.34210199773215" lon="17.017344693391657"><ele>161.8</ele><time>2026-04-08T07:12:32Z</time></trkpt><trkpt lat="51.34212906901841" lon="17.017183962935356"><ele>162.0</ele><time>2026-04-08T07:12:33Z</time></trkpt><trkpt lat="51.34217324019582" lon="17.017008305390412"><ele>162.0</ele><time>2026-04-08T07:12:34Z</time></trkpt><trkpt lat="51.34220340598089" lon="17.016805750531965"><ele>162.0</ele><time>2026-04-08T07:12:35Z</time></trkpt><trkpt lat="51.34223937361295" lon="17.01661178941302"><ele>162.0</ele><time>2026-04-08T07:12:36Z</time></trkpt><trkpt lat="51.342269893697576" lon="17.016427994714167"><ele>162.0</ele><time>2026-04-08T07:12:37Z</time></trkpt><trkpt lat="51.34229290376806" lon="17.016271842835135"><ele>162.16666666666666</ele><time>2026-04-08T07:12:38Z</time></trkpt><trkpt lat="51.342303216753784" lon="17.01613479127802"><ele>162.33333333333334</ele><time>2026-04-08T07:12:39Z</time></trkpt><trkpt lat="51.34231037888366" lon="17.016003626833374"><ele>162.5</ele><time>2026-04-08T07:12:40Z</time></trkpt><trkpt lat="51.342289615923654" lon="17.01588440207294"><ele>162.66666666666669</ele><time>2026-04-08T07:12:41Z</time></trkpt><trkpt lat="51.34226039820861" lon="17.015748940200297"><ele>162.83333333333334</ele><time>2026-04-08T07:12:42Z</time></trkpt><trkpt lat="51.342265050589674" lon="17.01561204641781"><ele>163.0</ele><time>2026-04-08T07:12:43Z</time></trkpt><trkpt lat="51.342295401130265" lon="17.01548516784134"><ele>162.33333333333334</ele><time>2026-04-08T07:12:44Z</time></trkpt><trkpt lat="51.34232061938492" lon="17.015383458540043"><ele>161.66666666666669</ele><time>2026-04-08T07:12:45Z</time></trkpt><trkpt lat="51.34230342445639" lon="17.015281307165413"><ele>161.0</ele><time>2026-04-08T07:12:46Z</time></trkpt><trkpt lat="51.34226245186521" lon="17.015188036562474"><ele>160.33333333333334</ele><time>2026-04-08T07:12:47Z</time></trkpt><trkpt lat="51.342218847716644" lon="17.015104803271356"><ele>159.66666666666666</ele><time>2026-04-08T07:12:48Z</time></trkpt><trkpt lat="51.34225644937179" lon="17.01491526681061"><ele>159.0</ele><time>2026-04-08T07:12:50Z</time></trkpt><trkpt lat="51.342295605205706" lon="17.01478582159437"><ele>158.0</ele><time>2026-04-08T07:12:51Z</time></trkpt><trkpt lat="51.3423389904071" lon="17.014652877878444"><ele>157.0</ele><time>2026-04-08T07:12:52Z</time></trkpt><trkpt lat="51.3424058561812" lon="17.014583162696123"><ele>156.0</ele><time>2026-04-08T07:12:53Z</time></trkpt><trkpt lat="51.34249432154721" lon="17.014534295613114"><ele>155.0</ele><time>2026-04-08T07:12:54Z</time></trkpt><trkpt lat="51.342586266154804" lon="17.014462908325594"><ele>154.0</ele><time>2026-04-08T07:12:55Z</time></trkpt><trkpt lat="51.34267195721483" lon="17.01433474111678"><ele>154.0</ele><time>2026-04-08T07:12:56Z</time></trkpt><trkpt lat="51.34273993035071" lon="17.014225008319332"><ele>154.0</ele><time>2026-04-08T07:12:57Z</time></trkpt><trkpt lat="51.34281169352632" lon="17.01417123865622"><ele>154.0</ele><time>2026-04-08T07:12:58Z</time></trkpt><trkpt lat="51.34289278300465" lon="17.014166065147247"><ele>154.0</ele><time>2026-04-08T07:12:59Z</time></trkpt><trkpt lat="51.34295122597111" lon="17.014113515105524"><ele>154.0</ele><time>2026-04-08T07:13:00Z</time></trkpt><trkpt lat="51.342988136508644" lon="17.014001229522126"><ele>154.0</ele><time>2026-04-08T07:13:01Z</time></trkpt><trkpt lat="51.34302540852318" lon="17.013847653097994"><ele>153.83333333333334</ele><time>2026-04-08T07:13:02Z</time></trkpt><trkpt lat="51.34306469159095" lon="17.013712894193436"><ele>153.66666666666669</ele><time>2026-04-08T07:13:03Z</time></trkpt><trkpt lat="51.34311691515179" lon="17.013626381022924"><ele>153.5</ele><time>2026-04-08T07:13:04Z</time></trkpt><trkpt lat="51.343192341889036" lon="17.0135501520925"><ele>153.33333333333334</ele><time>2026-04-08T07:13:05Z</time></trkpt><trkpt lat="51.34326808113364" lon="17.01345254605421"><ele>153.16666666666666</ele><time>2026-04-08T07:13:06Z</time></trkpt><trkpt lat="51.343320557006194" lon="17.013335050504867"><ele>153.0</ele><time>2026-04-08T07:13:07Z</time></trkpt><trkpt lat="51.34338615697505" lon="17.013271946027285"><ele>151.8</ele><time>2026-04-08T07:13:08Z</time></trkpt><trkpt lat="51.343470789367395" lon="17.01324016193072"><ele>150.60000000000002</ele><time>2026-04-08T07:13:09Z</time></trkpt><trkpt lat="51.34356645463094" lon="17.01321838112937"><ele>149.39999999999998</ele><time>2026-04-08T07:13:10Z</time></trkpt><trkpt lat="51.343664664762294" lon="17.01319022373067"><ele>148.2</ele><time>2026-04-08T07:13:11Z</time></trkpt><trkpt lat="51.34376513036755" lon="17.01320472929124"><ele>147.0</ele><time>2026-04-08T07:13:12Z</time></trkpt><trkpt lat="51.34387083959187" lon="17.013249771996332"><ele>147.0</ele><time>2026-04-08T07:13:13Z</time></trkpt><trkpt lat="51.343978592482586" lon="17.013240782803553"><ele>147.0</ele><time>2026-04-08T07:13:14Z</time></trkpt><trkpt lat="51.344066120088705" lon="17.01323679424594"><ele>147.0</ele><time>2026-04-08T07:13:15Z</time></trkpt><trkpt lat="51.344149026028816" lon="17.013245068705846"><ele>147.0</ele><time>2026-04-08T07:13:16Z</time></trkpt><trkpt lat="51.34423280965553" lon="17.013223475429697"><ele>147.0</ele><time>2026-04-08T07:13:17Z</time></trkpt><trkpt lat="51.34431896639385" lon="17.01316178445529"><ele>147.0</ele><time>2026-04-08T07:13:18Z</time></trkpt><trkpt lat="51.34439727671673" lon="17.013135796211323"><ele>147.0</ele><time>2026-04-08T07:13:19Z</time></trkpt><trkpt lat="51.34451904058987" lon="17.013141129212876"><ele>147.0</ele><time>2026-04-08T07:13:21Z</time></trkpt><trkpt lat="51.344574099451414" lon="17.01305954813728"><ele>147.0</ele><time>2026-04-08T07:13:22Z</time></trkpt><trkpt lat="51.344608527928145" lon="17.01293936819186"><ele>147.0</ele><time>2026-04-08T07:13:23Z</time></trkpt><trkpt lat="51.34463877737795" lon="17.012781668838223"><ele>147.0</ele><time>2026-04-08T07:13:24Z</time></trkpt><trkpt lat="51.344663834228754" lon="17.01265377425249"><ele>147.0</ele><time>2026-04-08T07:13:25Z</time></trkpt><trkpt lat="51.34467351076918" lon="17.01254560219934"><ele>147.0</ele><time>2026-04-08T07:13:26Z</time></trkpt><trkpt lat="51.34468895799169" lon="17.01240705588695"><ele>147.0</ele><time>2026-04-08T07:13:27Z</time></trkpt><trkpt lat="51.34470347743679" lon="17.012244559127723"><ele>147.0</ele><time>2026-04-08T07:13:28Z</time></trkpt><trkpt lat="51.34471519818023" lon="17.012076556485102"><ele>147.0</ele><time>2026-04-08T07:13:29Z</time></trkpt><trkpt lat="51.34473918426925" lon="17.011872954546067"><ele>146.25</ele><time>2026-04-08T07:13:30Z</time></trkpt><trkpt lat="51.34477498342026" lon="17.011657861636053"><ele>145.5</ele><time>2026-04-08T07:13:31Z</time></trkpt><trkpt lat="51.34482302651001" lon="17.01144492104691"><ele>144.75</ele><time>2026-04-08T07:13:32Z</time></trkpt><trkpt lat="51.34485875651451" lon="17.011232080297294"><ele>144.0</ele><time>2026-04-08T07:13:33Z</time></trkpt><trkpt lat="51.34489605147182" lon="17.011013918938286"><ele>143.2</ele><time>2026-04-08T07:13:34Z</time></trkpt><trkpt lat="51.34494105271395" lon="17.010830992359885"><ele>142.4</ele><time>2026-04-08T07:13:35Z</time></trkpt><trkpt lat="51.34498330162444" lon="17.01065275472396"><ele>141.6</ele><time>2026-04-08T07:13:36Z</time></trkpt><trkpt lat="51.3450160900669" lon="17.010485083950876"><ele>140.8</ele><time>2026-04-08T07:13:37Z</time></trkpt><trkpt lat="51.3450424440195" lon="17.01033619748062"><ele>140.0</ele><time>2026-04-08T07:13:38Z</time></trkpt><trkpt lat="51.34507931929147" lon="17.010213254869136"><ele>140.0</ele><time>2026-04-08T07:13:39Z</time></trkpt><trkpt lat="51.34515088948548" lon="17.010095628308562"><ele>140.0</ele><time>2026-04-08T07:13:41Z</time></trkpt><trkpt lat="51.34524599129279" lon="17.010071980950176"><ele>140.0</ele><time>2026-04-08T07:13:43Z</time></trkpt><trkpt lat="51.34531046826178" lon="17.010102339815916"><ele>140.0</ele><time>2026-04-08T07:13:44Z</time></trkpt><trkpt lat="51.345382752080354" lon="17.01014860522892"><ele>140.0</ele><time>2026-04-08T07:13:45Z</time></trkpt><trkpt lat="51.345478056138035" lon="17.010179979810204"><ele>140.0</ele><time>2026-04-08T07:13:46Z</time></trkpt><trkpt lat="51.34559005526889" lon="17.010249755863"><ele>139.8</ele><time>2026-04-08T07:13:47Z</time></trkpt><trkpt lat="51.345668828958225" lon="17.01027210283006"><ele>139.6</ele><time>2026-04-08T07:13:48Z</time></trkpt><trkpt lat="51.3457530807149" lon="17.01028628595736"><ele>139.4</ele><time>2026-04-08T07:13:50Z</time></trkpt><trkpt lat="51.34584305015022" lon="17.010340402335768"><ele>139.2</ele><time>2026-04-08T07:13:51Z</time></trkpt><trkpt lat="51.34594519457281" lon="17.010357937161892"><ele>139.0</ele><time>2026-04-08T07:13:52Z</time></trkpt><trkpt lat="51.34606357279943" lon="17.01038916034767"><ele>139.0</ele><time>2026-04-08T07:13:53Z</time></trkpt><trkpt lat="51.34614270595344" lon="17.010412823416296"><ele>139.0</ele><time>2026-04-08T07:13:54Z</time></trkpt><trkpt lat="51.346211604961695" lon="17.01045150358608"><ele>139.0</ele><time>2026-04-08T07:13:55Z</time></trkpt><trkpt lat="51.34627245618765" lon="17.010420690199705"><ele>139.0</ele><time>2026-04-08T07:13:57Z</time></trkpt><trkpt lat="51.34628284369844" lon="17.010231016615915"><ele>139.0</ele><time>2026-04-08T07:13:59Z</time></trkpt><trkpt lat="51.34629930999106" lon="17.01008825142349"><ele>139.0</ele><time>2026-04-08T07:14:00Z</time></trkpt><trkpt lat="51.3463404211738" lon="17.009916475920413"><ele>138.75</ele><time>2026-04-08T07:14:01Z</time></trkpt><trkpt lat="51.34636886076887" lon="17.009729218418215"><ele>138.5</ele><time>2026-04-08T07:14:02Z</time></trkpt><trkpt lat="51.34640669029531" lon="17.00953859109176"><ele>138.25</ele><time>2026-04-08T07:14:03Z</time></trkpt><trkpt lat="51.34646153951401" lon="17.00936539332209"><ele>138.0</ele><time>2026-04-08T07:14:04Z</time></trkpt><trkpt lat="51.346515551216285" lon="17.009210418546903"><ele>137.4</ele><time>2026-04-08T07:14:05Z</time></trkpt><trkpt lat="51.346552339089705" lon="17.009061509013723"><ele>136.8</ele><time>2026-04-08T07:14:06Z</time></trkpt><trkpt lat="51.34660144273445" lon="17.00892134798392"><ele>136.2</ele><time>2026-04-08T07:14:07Z</time></trkpt><trkpt lat="51.346637821151624" lon="17.008814374796692"><ele>135.6</ele><time>2026-04-08T07:14:08Z</time></trkpt><trkpt lat="51.34663491088537" lon="17.00865728303846"><ele>135.0</ele><time>2026-04-08T07:14:09Z</time></trkpt><trkpt lat="51.34666052094183" lon="17.00851955306985"><ele>135.0</ele><time>2026-04-08T07:14:10Z</time></trkpt><trkpt lat="51.34670799881716" lon="17.008403414014314"><ele>135.0</ele><time>2026-04-08T07:14:11Z</time></trkpt><trkpt lat="51.34676853893189" lon="17.008263040942026"><ele>135.0</ele><time>2026-04-08T07:14:12Z</time></trkpt><trkpt lat="51.34681418023289" lon="17.008117288345534"><ele>135.0</ele><time>2026-04-08T07:14:13Z</time></trkpt><trkpt lat="51.34685989163147" lon="17.007971765934347"><ele>135.0</ele><time>2026-04-08T07:14:14Z</time></trkpt><trkpt lat="51.346896874143546" lon="17.007851102608267"><ele>135.0</ele><time>2026-04-08T07:14:15Z</time></trkpt><trkpt lat="51.346938682923046" lon="17.00774884183841"><ele>135.0</ele><time>2026-04-08T07:14:16Z</time></trkpt><trkpt lat="51.34699438782429" lon="17.007557034566016"><ele>135.0</ele><time>2026-04-08T07:14:18Z</time></trkpt><trkpt lat="51.34701711830073" lon="17.00744289915001"><ele>135.0</ele><time>2026-04-08T07:14:19Z</time></trkpt><trkpt lat="51.34702293428897" lon="17.007329348253144"><ele>135.0</ele><time>2026-04-08T07:14:20Z</time></trkpt><trkpt lat="51.34702196856244" lon="17.007220197534572"><ele>135.0</ele><time>2026-04-08T07:14:21Z</time></trkpt><trkpt lat="51.347034775519425" lon="17.007091905507117"><ele>135.2</ele><time>2026-04-08T07:14:22Z</time></trkpt><trkpt lat="51.347047258409944" lon="17.00696152477179"><ele>135.4</ele><time>2026-04-08T07:14:23Z</time></trkpt><trkpt lat="51.34706390338856" lon="17.006767006085422"><ele>135.6</ele><time>2026-04-08T07:14:25Z</time></trkpt><trkpt lat="51.34706748396292" lon="17.006665179388502"><ele>135.8</ele><time>2026-04-08T07:14:26Z</time></trkpt><trkpt lat="51.34707882479815" lon="17.006532171895724"><ele>136.0</ele><time>2026-04-08T07:14:28Z</time></trkpt><trkpt lat="51.347072536285346" lon="17.00636833169423"><ele>136.0</ele><time>2026-04-08T07:14:30Z</time></trkpt><trkpt lat="51.34706927256965" lon="17.00624569846871"><ele>136.0</ele><time>2026-04-08T07:14:31Z</time></trkpt><trkpt lat="51.347081483813625" lon="17.006136663325783"><ele>136.0</ele><time>2026-04-08T07:14:32Z</time></trkpt><trkpt lat="51.3471207914311" lon="17.006030335479522"><ele>136.0</ele><time>2026-04-08T07:14:33Z</time></trkpt><trkpt lat="51.34719017420586" lon="17.005931600305033"><ele>136.0</ele><time>2026-04-08T07:14:34Z</time></trkpt><trkpt lat="51.34728194503919" lon="17.00583435434549"><ele>136.0</ele><time>2026-04-08T07:14:35Z</time></trkpt><trkpt lat="51.34738079734903" lon="17.0057272042091"><ele>135.75</ele><time>2026-04-08T07:14:36Z</time></trkpt><trkpt lat="51.34747647900605" lon="17.005599659277078"><ele>135.5</ele><time>2026-04-08T07:14:37Z</time></trkpt><trkpt lat="51.347570803347985" lon="17.005446117563068"><ele>135.25</ele><time>2026-04-08T07:14:38Z</time></trkpt><trkpt lat="51.347660895788856" lon="17.005284984680653"><ele>135.0</ele><time>2026-04-08T07:14:39Z</time></trkpt><trkpt lat="51.347759302139266" lon="17.00510949973754"><ele>135.0</ele><time>2026-04-08T07:14:40Z</time></trkpt><trkpt lat="51.34786340706435" lon="17.004932346566992"><ele>135.0</ele><time>2026-04-08T07:14:41Z</time></trkpt><trkpt lat="51.347969573808705" lon="17.004750784047015"><ele>135.0</ele><time>2026-04-08T07:14:42Z</time></trkpt><trkpt lat="51.34807777390278" lon="17.004566551100382"><ele>135.0</ele><time>2026-04-08T07:14:43Z</time></trkpt><trkpt lat="51.348183454074004" lon="17.00437345277132"><ele>135.0</ele><time>2026-04-08T07:14:44Z</time></trkpt><trkpt lat="51.34828720988651" lon="17.00417700318528"><ele>135.0</ele><time>2026-04-08T07:14:45Z</time></trkpt><trkpt lat="51.34839390156763" lon="17.003973677787783"><ele>135.33333333333334</ele><time>2026-04-08T07:14:46Z</time></trkpt><trkpt lat="51.34850756119823" lon="17.00376950500312"><ele>135.66666666666669</ele><time>2026-04-08T07:14:47Z</time></trkpt><trkpt lat="51.34860783091089" lon="17.003588624818132"><ele>136.0</ele><time>2026-04-08T07:14:48Z</time></trkpt><trkpt lat="51.34869914904546" lon="17.00341270557606"><ele>136.0</ele><time>2026-04-08T07:14:49Z</time></trkpt><trkpt lat="51.34879593702844" lon="17.003218723534097"><ele>136.0</ele><time>2026-04-08T07:14:50Z</time></trkpt><trkpt lat="51.34889316014122" lon="17.003011956532653"><ele>136.0</ele><time>2026-04-08T07:14:51Z</time></trkpt><trkpt lat="51.34897947520398" lon="17.002814963721516"><ele>136.0</ele><time>2026-04-08T07:14:52Z</time></trkpt><trkpt lat="51.34906410391431" lon="17.00265236712442"><ele>136.0</ele><time>2026-04-08T07:14:53Z</time></trkpt><trkpt lat="51.349134442077585" lon="17.002484816878702"><ele>136.0</ele><time>2026-04-08T07:14:54Z</time></trkpt><trkpt lat="51.349203044575596" lon="17.002324679957553"><ele>136.0</ele><time>2026-04-08T07:14:55Z</time></trkpt><trkpt lat="51.349268097858676" lon="17.00218247456538"><ele>136.2</ele><time>2026-04-08T07:14:56Z</time></trkpt><trkpt lat="51.3493354131144" lon="17.002058401847727"><ele>136.39999999999998</ele><time>2026-04-08T07:14:57Z</time></trkpt><trkpt lat="51.34941600174907" lon="17.001966681139308"><ele>136.6</ele><time>2026-04-08T07:14:58Z</time></trkpt><trkpt lat="51.349499780877004" lon="17.001905604663204"><ele>136.79999999999998</ele><time>2026-04-08T07:14:59Z</time></trkpt><trkpt lat="51.34958916477475" lon="17.00189467288918"><ele>137.0</ele><time>2026-04-08T07:15:00Z</time></trkpt><trkpt lat="51.349682740229824" lon="17.001922182934585"><ele>136.57142857142858</ele><time>2026-04-08T07:15:01Z</time></trkpt><trkpt lat="51.34974934754973" lon="17.001933699858455"><ele>136.14285714285714</ele><time>2026-04-08T07:15:02Z</time></trkpt><trkpt lat="51.349813147557185" lon="17.00194961848778"><ele>135.71428571428572</ele><time>2026-04-08T07:15:03Z</time></trkpt><trkpt lat="51.34988698420094" lon="17.00195515050612"><ele>135.28571428571428</ele><time>2026-04-08T07:15:09Z</time></trkpt><trkpt lat="51.34997180349962" lon="17.00195657451411"><ele>134.85714285714286</ele><time>2026-04-08T07:15:18Z</time></trkpt><trkpt lat="51.350052944113436" lon="17.001951637371594"><ele>134.42857142857144</ele><time>2026-04-08T07:15:22Z</time></trkpt><trkpt lat="51.35011851250584" lon="17.001946888741376"><ele>134.0</ele><time>2026-04-08T07:15:25Z</time></trkpt><trkpt lat="51.35021415291855" lon="17.00192267968216"><ele>134.0</ele><time>2026-04-08T07:15:28Z</time></trkpt><trkpt lat="51.35030627131447" lon="17.001942201430307"><ele>134.0</ele><time>2026-04-08T07:15:30Z</time></trkpt><trkpt lat="51.35038496288515" lon="17.00198613045115"><ele>134.0</ele><time>2026-04-08T07:15:32Z</time></trkpt><trkpt lat="51.35048540690185" lon="17.00202261761764"><ele>134.0</ele><time>2026-04-08T07:15:34Z</time></trkpt><trkpt lat="51.35054928183786" lon="17.002007885511393"><ele>134.0</ele><time>2026-04-08T07:15:36Z</time></trkpt><trkpt lat="51.35066512719301" lon="17.002012508433857"><ele>133.66666666666666</ele><time>2026-04-08T07:15:38Z</time></trkpt><trkpt lat="51.350743913957224" lon="17.002036392516718"><ele>133.33333333333331</ele><time>2026-04-08T07:15:40Z</time></trkpt><trkpt lat="51.35081077640841" lon="17.002044123416848"><ele>133.0</ele><time>2026-04-08T07:15:42Z</time></trkpt><trkpt lat="51.3509279881193" lon="17.002061530441384"><ele>132.66666666666666</ele><time>2026-04-08T07:15:44Z</time></trkpt><trkpt lat="51.35099031314168" lon="17.002078580970405"><ele>132.33333333333334</ele><time>2026-04-08T07:15:46Z</time></trkpt><trkpt lat="51.35105562058053" lon="17.00208307822502"><ele>132.0</ele><time>2026-04-08T07:15:48Z</time></trkpt><trkpt lat="51.35117934166133" lon="17.002101959856255"><ele>132.0</ele><time>2026-04-08T07:15:50Z</time></trkpt><trkpt lat="51.351302916883924" lon="17.002113023943178"><ele>132.0</ele><time>2026-04-08T07:15:52Z</time></trkpt><trkpt lat="51.351377499047516" lon="17.002141403517808"><ele>132.0</ele><time>2026-04-08T07:15:53Z</time></trkpt><trkpt lat="51.35148363108321" lon="17.002162709007205"><ele>132.0</ele><time>2026-04-08T07:15:55Z</time></trkpt><trkpt lat="51.35156175567936" lon="17.002188115759427"><ele>132.0</ele><time>2026-04-08T07:15:59Z</time></trkpt><trkpt lat="51.351623197421574" lon="17.00225327558609"><ele>131.83333333333334</ele><time>2026-04-08T07:16:01Z</time></trkpt><trkpt lat="51.351707684435695" lon="17.0021808895423"><ele>131.66666666666666</ele><time>2026-04-08T07:16:04Z</time></trkpt><trkpt lat="51.35175894338043" lon="17.002071966724465"><ele>131.5</ele><time>2026-04-08T07:16:06Z</time></trkpt><trkpt lat="51.35184956927801" lon="17.00199247909404"><ele>131.33333333333331</ele><time>2026-04-08T07:16:08Z</time></trkpt><trkpt lat="51.35192296366521" lon="17.002045292541126"><ele>131.16666666666666</ele><time>2026-04-08T07:16:09Z</time></trkpt><trkpt lat="51.3520004895146" lon="17.002090862066144"><ele>131.0</ele><time>2026-04-08T07:16:10Z</time></trkpt><trkpt lat="51.35210370006814" lon="17.00211830846467"><ele>130.75</ele><time>2026-04-08T07:16:11Z</time></trkpt><trkpt lat="51.352217772631334" lon="17.002117117798743"><ele>130.5</ele><time>2026-04-08T07:16:12Z</time></trkpt><trkpt lat="51.35233531542993" lon="17.00210926313751"><ele>130.25</ele><time>2026-04-08T07:16:13Z</time></trkpt><trkpt lat="51.3524531575216" lon="17.00209214387884"><ele>130.0</ele><time>2026-04-08T07:16:14Z</time></trkpt><trkpt lat="51.3525708466787" lon="17.00209046774986"><ele>130.0</ele><time>2026-04-08T07:16:15Z</time></trkpt><trkpt lat="51.35268929416443" lon="17.00210456814435"><ele>130.0</ele><time>2026-04-08T07:16:16Z</time></trkpt><trkpt lat="51.352811258313366" lon="17.002075918659482"><ele>130.0</ele><time>2026-04-08T07:16:17Z</time></trkpt><trkpt lat="51.352921270897816" lon="17.002080277041348"><ele>130.0</ele><time>2026-04-08T07:16:18Z</time></trkpt><trkpt lat="51.353030920938785" lon="17.002070851182765"><ele>129.8</ele><time>2026-04-08T07:16:19Z</time></trkpt><trkpt lat="51.35313438640457" lon="17.002071271972284"><ele>129.6</ele><time>2026-04-08T07:16:20Z</time></trkpt><trkpt lat="51.35324069512851" lon="17.002075353217187"><ele>129.4</ele><time>2026-04-08T07:16:21Z</time></trkpt><trkpt lat="51.35334397774131" lon="17.00212766590032"><ele>129.2</ele><time>2026-04-08T07:16:22Z</time></trkpt><trkpt lat="51.353431857983075" lon="17.00222730985461"><ele>129.0</ele><time>2026-04-08T07:16:23Z</time></trkpt><trkpt lat="51.35354379887516" lon="17.002156285455598"><ele>129.0</ele><time>2026-04-08T07:16:24Z</time></trkpt><trkpt lat="51.35364640301704" lon="17.00218230452937"><ele>129.0</ele><time>2026-04-08T07:16:25Z</time></trkpt><trkpt lat="51.35375380930692" lon="17.002207670840413"><ele>129.0</ele><time>2026-04-08T07:16:26Z</time></trkpt><trkpt lat="51.35385761790252" lon="17.002253403181907"><ele>129.0</ele><time>2026-04-08T07:16:27Z</time></trkpt><trkpt lat="51.353964136609456" lon="17.002280421082954"><ele>129.0</ele><time>2026-04-08T07:16:28Z</time></trkpt><trkpt lat="51.354069218763016" lon="17.00229847417908"><ele>128.8</ele><time>2026-04-08T07:16:29Z</time></trkpt><trkpt lat="51.35416564479243" lon="17.002332306065924"><ele>128.60000000000002</ele><time>2026-04-08T07:16:30Z</time></trkpt><trkpt lat="51.35426926432559" lon="17.002382439111702"><ele>128.4</ele><time>2026-04-08T07:16:31Z</time></trkpt><trkpt lat="51.354408243567896" lon="17.00242877756974"><ele>128.20000000000002</ele><time>2026-04-08T07:16:32Z</time></trkpt><trkpt lat="51.35448889275978" lon="17.002458050661463"><ele>128.0</ele><time>2026-04-08T07:16:33Z</time></trkpt><trkpt lat="51.35457646741545" lon="17.002451864992555"><ele>127.75</ele><time>2026-04-08T07:16:34Z</time></trkpt><trkpt lat="51.354743024108274" lon="17.00249324278817"><ele>127.5</ele><time>2026-04-08T07:16:35Z</time></trkpt><trkpt lat="51.35488343874183" lon="17.00251569227671"><ele>127.25</ele><time>2026-04-08T07:16:36Z</time></trkpt><trkpt lat="51.35500912599492" lon="17.00253858102581"><ele>127.0</ele><time>2026-04-08T07:16:37Z</time></trkpt><trkpt lat="51.355127211803705" lon="17.002556176803523"><ele>127.0</ele><time>2026-04-08T07:16:38Z</time></trkpt><trkpt lat="51.355232086979825" lon="17.002558885162987"><ele>126.99999999999999</ele><time>2026-04-08T07:16:39Z</time></trkpt><trkpt lat="51.35530863368542" lon="17.00253392911622"><ele>126.99999999999999</ele><time>2026-04-08T07:16:40Z</time></trkpt><trkpt lat="51.355367699783514" lon="17.002484978391237"><ele>127.0</ele><time>2026-04-08T07:16:42Z</time></trkpt><trkpt lat="51.35543323821535" lon="17.002532353969862"><ele>127.0</ele><time>2026-04-08T07:16:45Z</time></trkpt><trkpt lat="51.355573754088624" lon="17.002624440504974"><ele>126.0</ele><time>2026-04-08T07:16:47Z</time></trkpt><trkpt lat="51.35567558899628" lon="17.002667354231686"><ele>126.0</ele><time>2026-04-08T07:16:48Z</time></trkpt><trkpt lat="51.355746673894956" lon="17.0026580773894"><ele>126.0</ele><time>2026-04-08T07:16:49Z</time></trkpt><trkpt lat="51.35579191227031" lon="17.00257515355268"><ele>126.0</ele><time>2026-04-08T07:16:51Z</time></trkpt><trkpt lat="51.355721298433814" lon="17.002507082751954"><ele>126.0</ele><time>2026-04-08T07:16:54Z</time></trkpt></trkseg><trkseg><trkpt lat="51.35570514768064" lon="17.002672795934"><ele>126.0</ele><time>2026-04-08T07:32:52Z</time></trkpt><trkpt lat="51.35584064050938" lon="17.00274738698023"><ele>126.0</ele><time>2026-04-08T07:32:54Z</time></trkpt><trkpt lat="51.35594791039895" lon="17.00275618363014"><ele>126.0</ele><time>2026-04-08T07:32:55Z</time></trkpt><trkpt lat="51.35606892009693" lon="17.00277298885815"><ele>126.0</ele><time>2026-04-08T07:32:56Z</time></trkpt><trkpt lat="51.35620490509518" lon="17.00278889802104"><ele>126.0</ele><time>2026-04-08T07:32:57Z</time></trkpt><trkpt lat="51.35634547826887" lon="17.00281076719996"><ele>126.0</ele><time>2026-04-08T07:32:58Z</time></trkpt><trkpt lat="51.35650210752436" lon="17.00284050699101"><ele>126.0</ele><time>2026-04-08T07:32:59Z</time></trkpt><trkpt lat="51.35665543214385" lon="17.00286615281292"><ele>125.75</ele><time>2026-04-08T07:33:00Z</time></trkpt><trkpt lat="51.35679105702366" lon="17.002894517254806"><ele>125.5</ele><time>2026-04-08T07:33:01Z</time></trkpt><trkpt lat="51.35692366144705" lon="17.002921974386314"><ele>125.25</ele><time>2026-04-08T07:33:02Z</time></trkpt><trkpt lat="51.35707225427145" lon="17.00292450522763"><ele>125.0</ele><time>2026-04-08T07:33:03Z</time></trkpt><trkpt lat="51.357227474138604" lon="17.002933524167645"><ele>124.66666666666666</ele><time>2026-04-08T07:33:04Z</time></trkpt><trkpt lat="51.357386729051235" lon="17.00294251483633"><ele>124.33333333333334</ele><time>2026-04-08T07:33:05Z</time></trkpt><trkpt lat="51.35754856828588" lon="17.002962818293977"><ele>124.0</ele><time>2026-04-08T07:33:06Z</time></trkpt><trkpt lat="51.357714266509156" lon="17.002983504350258"><ele>124.0</ele><time>2026-04-08T07:33:07Z</time></trkpt><trkpt lat="51.35785532941875" lon="17.003012976135196"><ele>124.0</ele><time>2026-04-08T07:33:08Z</time></trkpt><trkpt lat="51.35798227905721" lon="17.0030432342562"><ele>124.0</ele><time>2026-04-08T07:33:09Z</time></trkpt><trkpt lat="51.3580879406459" lon="17.003088549996164"><ele>124.0</ele><time>2026-04-08T07:33:10Z</time></trkpt><trkpt lat="51.35817837678629" lon="17.003124614552952"><ele>123.85714285714286</ele><time>2026-04-08T07:33:11Z</time></trkpt><trkpt lat="51.358255906746834" lon="17.00318473506295"><ele>123.71428571428572</ele><time>2026-04-08T07:33:12Z</time></trkpt><trkpt lat="51.35831740821071" lon="17.003255697721247"><ele>123.57142857142858</ele><time>2026-04-08T07:33:13Z</time></trkpt><trkpt lat="51.35836856449791" lon="17.003315467515748"><ele>123.42857142857144</ele><time>2026-04-08T07:33:14Z</time></trkpt><trkpt lat="51.358452040494086" lon="17.003333608391486"><ele>123.28571428571429</ele><time>2026-04-08T07:33:16Z</time></trkpt><trkpt lat="51.358518482563426" lon="17.003347579402842"><ele>123.14285714285717</ele><time>2026-04-08T07:33:25Z</time></trkpt><trkpt lat="51.35858898500258" lon="17.003349337921495"><ele>123.00000000000001</ele><time>2026-04-08T07:33:26Z</time></trkpt><trkpt lat="51.358682432171506" lon="17.003349551862357"><ele>122.75</ele><time>2026-04-08T07:33:27Z</time></trkpt><trkpt lat="51.35878374412897" lon="17.003360423151584"><ele>122.5</ele><time>2026-04-08T07:33:28Z</time></trkpt><trkpt lat="51.35889811668796" lon="17.00335694799185"><ele>122.25</ele><time>2026-04-08T07:33:29Z</time></trkpt><trkpt lat="51.35902315925675" lon="17.00335184018186"><ele>122.0</ele><time>2026-04-08T07:33:30Z</time></trkpt><trkpt lat="51.359138514157216" lon="17.00338820318867"><ele>121.6</ele><time>2026-04-08T07:33:30.999Z</time></trkpt><trkpt lat="51.359242160765675" lon="17.003420474625365"><ele>121.19999999999999</ele><time>2026-04-08T07:33:31.999Z</time></trkpt><trkpt lat="51.35934688733925" lon="17.003455480036116"><ele>120.8</ele><time>2026-04-08T07:33:32.999Z</time></trkpt><trkpt lat="51.359468081348545" lon="17.00347510126615"><ele>120.4</ele><time>2026-04-08T07:33:33.999Z</time></trkpt><trkpt lat="51.35957845115667" lon="17.003511147065772"><ele>120.0</ele><time>2026-04-08T07:33:34.999Z</time></trkpt><trkpt lat="51.359660381325995" lon="17.00352648403965"><ele>119.83333333333333</ele><time>2026-04-08T07:33:35.999Z</time></trkpt><trkpt lat="51.35973767006453" lon="17.00353465822079"><ele>119.66666666666666</ele><time>2026-04-08T07:33:36.999Z</time></trkpt><trkpt lat="51.35982593181924" lon="17.003553869147463"><ele>119.5</ele><time>2026-04-08T07:33:37.999Z</time></trkpt><trkpt lat="51.359916251651356" lon="17.003535393705725"><ele>119.33333333333333</ele><time>2026-04-08T07:33:39.999Z</time></trkpt><trkpt lat="51.36000774818628" lon="17.00344608878063"><ele>119.16666666666666</ele><time>2026-04-08T07:33:41.999Z</time></trkpt><trkpt lat="51.360060090854795" lon="17.003351665838363"><ele>119.0</ele><time>2026-04-08T07:33:42.999Z</time></trkpt><trkpt lat="51.36012677195106" lon="17.003229978307953"><ele>118.99999999999999</ele><time>2026-04-08T07:33:43.999Z</time></trkpt><trkpt lat="51.360198055110494" lon="17.00310089605915"><ele>119.0</ele><time>2026-04-08T07:33:44.999Z</time></trkpt><trkpt lat="51.3602656258574" lon="17.00299402942623"><ele>119.0</ele><time>2026-04-08T07:33:45.999Z</time></trkpt><trkpt lat="51.360317212373396" lon="17.002893215235787"><ele>119.0</ele><time>2026-04-08T07:33:46.999Z</time></trkpt><trkpt lat="51.36035749488575" lon="17.002814801439996"><ele>118.99999999999999</ele><time>2026-04-08T07:33:47.999Z</time></trkpt><trkpt lat="51.360405034664765" lon="17.002744721804643"><ele>119.0</ele><time>2026-04-08T07:33:48.999Z</time></trkpt><trkpt lat="51.36045706751717" lon="17.002669356837337"><ele>119.0</ele><time>2026-04-08T07:33:49.999Z</time></trkpt><trkpt lat="51.36050503717509" lon="17.002581877632256"><ele>119.0</ele><time>2026-04-08T07:33:50.999Z</time></trkpt><trkpt lat="51.36055133749286" lon="17.002510587536783"><ele>119.0</ele><time>2026-04-08T07:33:51.999Z</time></trkpt><trkpt lat="51.36059420555379" lon="17.002430052062994"><ele>119.0</ele><time>2026-04-08T07:33:52.999Z</time></trkpt><trkpt lat="51.36064644305308" lon="17.002347964609772"><ele>119.0</ele><time>2026-04-08T07:33:53.999Z</time></trkpt><trkpt lat="51.36069322932782" lon="17.00226769595363"><ele>119.0</ele><time>2026-04-08T07:33:54.999Z</time></trkpt><trkpt lat="51.36075996832966" lon="17.002166661598647"><ele>119.0</ele><time>2026-04-08T07:33:56.999Z</time></trkpt><trkpt lat="51.36084084586396" lon="17.002016412154315"><ele>119.4</ele><time>2026-04-08T07:33:58.999Z</time></trkpt><trkpt lat="51.36091712599507" lon="17.00188953248238"><ele>119.80000000000001</ele><time>2026-04-08T07:34:00.999Z</time></trkpt><trkpt lat="51.36098486293517" lon="17.001780581668214"><ele>120.19999999999999</ele><time>2026-04-08T07:34:03Z</time></trkpt><trkpt lat="51.361034163445815" lon="17.001688997421002"><ele>120.6</ele><time>2026-04-08T07:34:05Z</time></trkpt><trkpt lat="51.3611159419231" lon="17.00161271495004"><ele>121.0</ele><time>2026-04-08T07:34:09Z</time></trkpt><trkpt lat="51.36118914220043" lon="17.0016506226071"><ele>121.0</ele><time>2026-04-08T07:34:13Z</time></trkpt><trkpt lat="51.36126841579643" lon="17.001688428217378"><ele>121.0</ele><time>2026-04-08T07:34:15Z</time></trkpt><trkpt lat="51.3613729645833" lon="17.00173613003062"><ele>121.0</ele><time>2026-04-08T07:34:17Z</time></trkpt><trkpt lat="51.36149312782469" lon="17.001787048348444"><ele>121.0</ele><time>2026-04-08T07:34:19Z</time></trkpt><trkpt lat="51.36159100541751" lon="17.001836034989164"><ele>121.0</ele><time>2026-04-08T07:34:21Z</time></trkpt><trkpt lat="51.3616967799984" lon="17.001889256149635"><ele>120.6</ele><time>2026-04-08T07:34:23Z</time></trkpt><trkpt lat="51.361813293110664" lon="17.001952467006554"><ele>120.19999999999999</ele><time>2026-04-08T07:34:25Z</time></trkpt><trkpt lat="51.361879066766484" lon="17.001986961337952"><ele>119.80000000000001</ele><time>2026-04-08T07:34:26Z</time></trkpt><trkpt lat="51.36195198491364" lon="17.002031072529824"><ele>119.4</ele><time>2026-04-08T07:34:27Z</time></trkpt><trkpt lat="51.36203504021731" lon="17.002066436682533"><ele>119.0</ele><time>2026-04-08T07:34:28Z</time></trkpt><trkpt lat="51.362124196597435" lon="17.00211155516366"><ele>118.6</ele><time>2026-04-08T07:34:29Z</time></trkpt><trkpt lat="51.36221673044742" lon="17.002160862570832"><ele>118.2</ele><time>2026-04-08T07:34:30Z</time></trkpt><trkpt lat="51.36231411618267" lon="17.002201677141038"><ele>117.79999999999998</ele><time>2026-04-08T07:34:31Z</time></trkpt><trkpt lat="51.362414736218135" lon="17.002265456917158"><ele>117.39999999999999</ele><time>2026-04-08T07:34:32Z</time></trkpt><trkpt lat="51.362520964252525" lon="17.00232582812933"><ele>117.0</ele><time>2026-04-08T07:34:33Z</time></trkpt><trkpt lat="51.36263430426693" lon="17.002384572734783"><ele>117.0</ele><time>2026-04-08T07:34:34Z</time></trkpt><trkpt lat="51.362754977609974" lon="17.002425672911464"><ele>117.0</ele><time>2026-04-08T07:34:35Z</time></trkpt><trkpt lat="51.36286817600182" lon="17.00249850902731"><ele>117.0</ele><time>2026-04-08T07:34:36Z</time></trkpt><trkpt lat="51.36297529891881" lon="17.002547103502554"><ele>117.0</ele><time>2026-04-08T07:34:37Z</time></trkpt><trkpt lat="51.36308103581665" lon="17.00260376731392"><ele>116.0</ele><time>2026-04-08T07:34:38Z</time></trkpt><trkpt lat="51.363199530457656" lon="17.00263733067463"><ele>115.0</ele><time>2026-04-08T07:34:39Z</time></trkpt><trkpt lat="51.36332080063717" lon="17.002695025731427"><ele>114.0</ele><time>2026-04-08T07:34:40Z</time></trkpt><trkpt lat="51.36345263670046" lon="17.002757219020673"><ele>113.0</ele><time>2026-04-08T07:34:41Z</time></trkpt><trkpt lat="51.3635898212433" lon="17.00282722786938"><ele>113.0</ele><time>2026-04-08T07:34:42Z</time></trkpt><trkpt lat="51.363726423815706" lon="17.00287535796603"><ele>113.0</ele><time>2026-04-08T07:34:43Z</time></trkpt><trkpt lat="51.3638427443755" lon="17.002958261336214"><ele>113.0</ele><time>2026-04-08T07:34:44Z</time></trkpt><trkpt lat="51.36394745999732" lon="17.003006669237347"><ele>113.0</ele><time>2026-04-08T07:34:45Z</time></trkpt><trkpt lat="51.36405491139829" lon="17.003075627167426"><ele>113.25</ele><time>2026-04-08T07:34:46Z</time></trkpt><trkpt lat="51.36416654797918" lon="17.003140558573"><ele>113.5</ele><time>2026-04-08T07:34:47Z</time></trkpt><trkpt lat="51.364279871673745" lon="17.003204230101055"><ele>113.75</ele><time>2026-04-08T07:34:48Z</time></trkpt><trkpt lat="51.36438676382883" lon="17.00326352483658"><ele>114.0</ele><time>2026-04-08T07:34:49Z</time></trkpt><trkpt lat="51.36449184394466" lon="17.003314791541424"><ele>114.0</ele><time>2026-04-08T07:34:50Z</time></trkpt><trkpt lat="51.36460115485137" lon="17.003366582440133"><ele>114.0</ele><time>2026-04-08T07:34:51Z</time></trkpt><trkpt lat="51.36471067376899" lon="17.00343346813905"><ele>114.0</ele><time>2026-04-08T07:34:52Z</time></trkpt><trkpt lat="51.36482380818022" lon="17.00348151829315"><ele>114.0</ele><time>2026-04-08T07:34:53Z</time></trkpt><trkpt lat="51.364937288449845" lon="17.003528949612875"><ele>114.0</ele><time>2026-04-08T07:34:54Z</time></trkpt><trkpt lat="51.36504562555563" lon="17.003584163194038"><ele>114.0</ele><time>2026-04-08T07:34:55Z</time></trkpt><trkpt lat="51.365157861701604" lon="17.00363166386872"><ele>114.0</ele><time>2026-04-08T07:34:56Z</time></trkpt><trkpt lat="51.36526360336427" lon="17.003676552837376"><ele>114.0</ele><time>2026-04-08T07:34:57Z</time></trkpt><trkpt lat="51.36534953879822" lon="17.00373101225784"><ele>114.0</ele><time>2026-04-08T07:34:58Z</time></trkpt><trkpt lat="51.365435509075304" lon="17.003781443664867"><ele>114.0</ele><time>2026-04-08T07:34:59Z</time></trkpt><trkpt lat="51.36552452332017" lon="17.00384965520193"><ele>114.0</ele><time>2026-04-08T07:35:00Z</time></trkpt><trkpt lat="51.36564161418316" lon="17.003912276145936"><ele>114.0</ele><time>2026-04-08T07:35:01Z</time></trkpt><trkpt lat="51.36576093479989" lon="17.003970021890108"><ele>114.0</ele><time>2026-04-08T07:35:02Z</time></trkpt><trkpt lat="51.365873532812394" lon="17.00401798562332"><ele>114.0</ele><time>2026-04-08T07:35:03Z</time></trkpt><trkpt lat="51.365997526367146" lon="17.00407628608933"><ele>114.0</ele><time>2026-04-08T07:35:04Z</time></trkpt><trkpt lat="51.366129537482934" lon="17.00412325479812"><ele>114.0</ele><time>2026-04-08T07:35:05Z</time></trkpt><trkpt lat="51.36624651787136" lon="17.00421553369665"><ele>114.0</ele><time>2026-04-08T07:35:06Z</time></trkpt><trkpt lat="51.36637901989876" lon="17.004273542845702"><ele>113.5</ele><time>2026-04-08T07:35:07Z</time></trkpt><trkpt lat="51.366513555157276" lon="17.00433746018248"><ele>113.0</ele><time>2026-04-08T07:35:07.999Z</time></trkpt><trkpt lat="51.366656702134605" lon="17.00440668489645"><ele>112.5</ele><time>2026-04-08T07:35:08.999Z</time></trkpt><trkpt lat="51.36678264117953" lon="17.004465416831128"><ele>112.0</ele><time>2026-04-08T07:35:09.999Z</time></trkpt><trkpt lat="51.36688937764258" lon="17.004553868708342"><ele>112.0</ele><time>2026-04-08T07:35:10.999Z</time></trkpt><trkpt lat="51.36700871396296" lon="17.004620655394444"><ele>112.0</ele><time>2026-04-08T07:35:11.999Z</time></trkpt><trkpt lat="51.36713332015869" lon="17.004665646327616"><ele>112.0</ele><time>2026-04-08T07:35:12.999Z</time></trkpt><trkpt lat="51.367255289824115" lon="17.00471317826457"><ele>112.0</ele><time>2026-04-08T07:35:13.999Z</time></trkpt><trkpt lat="51.36738211517709" lon="17.00477178518692"><ele>112.0</ele><time>2026-04-08T07:35:14.999Z</time></trkpt><trkpt lat="51.367517896737255" lon="17.004838616372115"><ele>112.0</ele><time>2026-04-08T07:35:15.999Z</time></trkpt><trkpt lat="51.36766113722999" lon="17.004906526848167"><ele>112.0</ele><time>2026-04-08T07:35:16.999Z</time></trkpt><trkpt lat="51.36779300877257" lon="17.004970379905494"><ele>112.0</ele><time>2026-04-08T07:35:17.999Z</time></trkpt><trkpt lat="51.367898925837174" lon="17.005032499800834"><ele>112.0</ele><time>2026-04-08T07:35:18.999Z</time></trkpt><trkpt lat="51.36799813137228" lon="17.00507757959523"><ele>111.99999999999999</ele><time>2026-04-08T07:35:19.999Z</time></trkpt><trkpt lat="51.368102036878895" lon="17.005126770221796"><ele>111.99999999999999</ele><time>2026-04-08T07:35:20.999Z</time></trkpt><trkpt lat="51.36819523335499" lon="17.005183739705167"><ele>112.0</ele><time>2026-04-08T07:35:21.999Z</time></trkpt><trkpt lat="51.36826710444369" lon="17.00523153305597"><ele>112.0</ele><time>2026-04-08T07:35:22.999Z</time></trkpt><trkpt lat="51.36834071906987" lon="17.005261550221416"><ele>112.00000000000001</ele><time>2026-04-08T07:35:23.999Z</time></trkpt><trkpt lat="51.36841852405887" lon="17.00528370537195"><ele>112.0</ele><time>2026-04-08T07:35:24.999Z</time></trkpt><trkpt lat="51.36848142621008" lon="17.005257972609463"><ele>112.0</ele><time>2026-04-08T07:35:25.999Z</time></trkpt><trkpt lat="51.3685210017729" lon="17.00511324093914"><ele>112.0</ele><time>2026-04-08T07:35:27.999Z</time></trkpt><trkpt lat="51.36851785523597" lon="17.005004079378757"><ele>112.00000000000001</ele><time>2026-04-08T07:35:28.999Z</time></trkpt><trkpt lat="51.36852608946393" lon="17.004869094470514"><ele>112.0</ele><time>2026-04-08T07:35:29.999Z</time></trkpt><trkpt lat="51.36855360523433" lon="17.004720497541378"><ele>111.75</ele><time>2026-04-08T07:35:30.999Z</time></trkpt><trkpt lat="51.36858277868215" lon="17.004552405388658"><ele>111.5</ele><time>2026-04-08T07:35:31.999Z</time></trkpt><trkpt lat="51.368609249992296" lon="17.0043548263385"><ele>111.25</ele><time>2026-04-08T07:35:32.999Z</time></trkpt><trkpt lat="51.36864338969829" lon="17.00415056389393"><ele>111.0</ele><time>2026-04-08T07:35:33.999Z</time></trkpt><trkpt lat="51.368676025842994" lon="17.003933269914352"><ele>111.0</ele><time>2026-04-08T07:35:34.999Z</time></trkpt><trkpt lat="51.36870544203243" lon="17.00370805285878"><ele>111.0</ele><time>2026-04-08T07:35:35.999Z</time></trkpt><trkpt lat="51.36873314481397" lon="17.003522860740116"><ele>111.0</ele><time>2026-04-08T07:35:36.999Z</time></trkpt><trkpt lat="51.36876520575259" lon="17.003343972682963"><ele>111.0</ele><time>2026-04-08T07:35:37.999Z</time></trkpt><trkpt lat="51.36880498885574" lon="17.003130511126255"><ele>111.0</ele><time>2026-04-08T07:35:38.999Z</time></trkpt><trkpt lat="51.368840638764624" lon="17.00291998781111"><ele>111.0</ele><time>2026-04-08T07:35:39.999Z</time></trkpt><trkpt lat="51.368879504142754" lon="17.002681307560426"><ele>111.0</ele><time>2026-04-08T07:35:40.999Z</time></trkpt><trkpt lat="51.368918434510235" lon="17.002438416865367"><ele>111.0</ele><time>2026-04-08T07:35:41.999Z</time></trkpt><trkpt lat="51.36895762234387" lon="17.00222940693094"><ele>110.75</ele><time>2026-04-08T07:35:42.999Z</time></trkpt><trkpt lat="51.369002497881525" lon="17.002052925543786"><ele>110.5</ele><time>2026-04-08T07:35:43.999Z</time></trkpt><trkpt lat="51.36903340057269" lon="17.00187772252435"><ele>110.25</ele><time>2026-04-08T07:35:44.999Z</time></trkpt><trkpt lat="51.36905698235314" lon="17.00168714548126"><ele>110.0</ele><time>2026-04-08T07:35:45.999Z</time></trkpt><trkpt lat="51.36907425593683" lon="17.001493077876944"><ele>110.0</ele><time>2026-04-08T07:35:46.999Z</time></trkpt><trkpt lat="51.36909861970727" lon="17.00129311078132"><ele>110.0</ele><time>2026-04-08T07:35:47.999Z</time></trkpt><trkpt lat="51.36912615821675" lon="17.0010994240905"><ele>110.0</ele><time>2026-04-08T07:35:48.999Z</time></trkpt><trkpt lat="51.369156847027014" lon="17.00091540303501"><ele>110.0</ele><time>2026-04-08T07:35:49.999Z</time></trkpt><trkpt lat="51.36918311263228" lon="17.0007223168759"><ele>110.0</ele><time>2026-04-08T07:35:50.999Z</time></trkpt><trkpt lat="51.36922204825079" lon="17.000523726524637"><ele>110.0</ele><time>2026-04-08T07:35:51.999Z</time></trkpt><trkpt lat="51.36924402104374" lon="17.00035745720869"><ele>110.0</ele><time>2026-04-08T07:35:52.999Z</time></trkpt><trkpt lat="51.36925598892517" lon="17.000210523020932"><ele>110.0</ele><time>2026-04-08T07:35:53.999Z</time></trkpt><trkpt lat="51.3692680494885" lon="17.000110161716798"><ele>110.0</ele><time>2026-04-08T07:35:54.999Z</time></trkpt><trkpt lat="51.369298437894614" lon="17.00001373386265"><ele>109.99999999999999</ele><time>2026-04-08T07:35:56.999Z</time></trkpt><trkpt lat="51.3694015556706" lon="17.000048599117584"><ele>110.0</ele><time>2026-04-08T07:35:58.999Z</time></trkpt><trkpt lat="51.369460738193986" lon="17.00009610282724"><ele>110.0</ele><time>2026-04-08T07:35:59.999Z</time></trkpt><trkpt lat="51.36953246878996" lon="17.00015010880715"><ele>110.0</ele><time>2026-04-08T07:36:00.999Z</time></trkpt><trkpt lat="51.36962019018705" lon="17.000188960802376"><ele>109.99999999999999</ele><time>2026-04-08T07:36:01.999Z</time></trkpt><trkpt lat="51.36971623729197" lon="17.000251017714657"><ele>110.0</ele><time>2026-04-08T07:36:02.999Z</time></trkpt><trkpt lat="51.36982648829279" lon="17.00031693241267"><ele>110.0</ele><time>2026-04-08T07:36:03.999Z</time></trkpt><trkpt lat="51.36994500996137" lon="17.000368023344233"><ele>110.0</ele><time>2026-04-08T07:36:04.999Z</time></trkpt><trkpt lat="51.3700623539666" lon="17.000431340299354"><ele>110.0</ele><time>2026-04-08T07:36:05.999Z</time></trkpt><trkpt lat="51.3701835500151" lon="17.000503925734144"><ele>110.0</ele><time>2026-04-08T07:36:06.999Z</time></trkpt><trkpt lat="51.370303451584384" lon="17.00057826011915"><ele>110.0</ele><time>2026-04-08T07:36:07.999Z</time></trkpt><trkpt lat="51.37041527788013" lon="17.000646135869083"><ele>110.0</ele><time>2026-04-08T07:36:08.999Z</time></trkpt><trkpt lat="51.37051736186864" lon="17.000710911736014"><ele>110.0</ele><time>2026-04-08T07:36:09.999Z</time></trkpt><trkpt lat="51.37063085623177" lon="17.000803114928623"><ele>110.0</ele><time>2026-04-08T07:36:10.999Z</time></trkpt><trkpt lat="51.37075238008654" lon="17.000878932140182"><ele>110.0</ele><time>2026-04-08T07:36:11.999Z</time></trkpt><trkpt lat="51.37088496874654" lon="17.000961652537253"><ele>110.0</ele><time>2026-04-08T07:36:12.999Z</time></trkpt><trkpt lat="51.371020668266716" lon="17.001047375633803"><ele>110.0</ele><time>2026-04-08T07:36:13.999Z</time></trkpt><trkpt lat="51.37114065352398" lon="17.001123101278928"><ele>110.0</ele><time>2026-04-08T07:36:14.999Z</time></trkpt><trkpt lat="51.371275782433166" lon="17.001186876148207"><ele>110.0</ele><time>2026-04-08T07:36:15.999Z</time></trkpt><trkpt lat="51.37140588010776" lon="17.00126635467107"><ele>110.0</ele><time>2026-04-08T07:36:16.999Z</time></trkpt><trkpt lat="51.371535472848734" lon="17.00136586905554"><ele>110.0</ele><time>2026-04-08T07:36:17.999Z</time></trkpt><trkpt lat="51.37168547055806" lon="17.001429451581657"><ele>110.0</ele><time>2026-04-08T07:36:18.999Z</time></trkpt><trkpt lat="51.371826738286195" lon="17.00150002715076"><ele>110.0</ele><time>2026-04-08T07:36:19.999Z</time></trkpt><trkpt lat="51.371945728925986" lon="17.00157034428245"><ele>110.0</ele><time>2026-04-08T07:36:20.999Z</time></trkpt><trkpt lat="51.37207766161533" lon="17.00164509211194"><ele>110.0</ele><time>2026-04-08T07:36:21.999Z</time></trkpt><trkpt lat="51.372215742902966" lon="17.001733994321732"><ele>110.0</ele><time>2026-04-08T07:36:22.999Z</time></trkpt><trkpt lat="51.37234877604795" lon="17.001763465208878"><ele>109.75</ele><time>2026-04-08T07:36:23.999Z</time></trkpt><trkpt lat="51.37248461619008" lon="17.001827264034837"><ele>109.5</ele><time>2026-04-08T07:36:24.999Z</time></trkpt><trkpt lat="51.3726223031811" lon="17.00188193726532"><ele>109.25</ele><time>2026-04-08T07:36:25.999Z</time></trkpt><trkpt lat="51.37276221878804" lon="17.001935942958088"><ele>109.0</ele><time>2026-04-08T07:36:26.999Z</time></trkpt><trkpt lat="51.372898205939926" lon="17.00199949908659"><ele>108.75</ele><time>2026-04-08T07:36:27.999Z</time></trkpt><trkpt lat="51.37303024751543" lon="17.002050195822115"><ele>108.5</ele><time>2026-04-08T07:36:28.999Z</time></trkpt><trkpt lat="51.37316144102193" lon="17.00207657681971"><ele>108.25</ele><time>2026-04-08T07:36:29.999Z</time></trkpt><trkpt lat="51.37328826522799" lon="17.002090548863443"><ele>108.0</ele><time>2026-04-08T07:36:30.999Z</time></trkpt><trkpt lat="51.37342267141587" lon="17.002117636961934"><ele>108.0</ele><time>2026-04-08T07:36:31.999Z</time></trkpt><trkpt lat="51.37356063649658" lon="17.002161376761784"><ele>108.0</ele><time>2026-04-08T07:36:32.999Z</time></trkpt><trkpt lat="51.37368629880964" lon="17.002160803755128"><ele>108.0</ele><time>2026-04-08T07:36:33.999Z</time></trkpt><trkpt lat="51.37380285370225" lon="17.00218749978524"><ele>108.0</ele><time>2026-04-08T07:36:34.999Z</time></trkpt><trkpt lat="51.3739262025596" lon="17.002195810291433"><ele>108.0</ele><time>2026-04-08T07:36:35.999Z</time></trkpt><trkpt lat="51.37404752427257" lon="17.00222539502573"><ele>108.00000000000001</ele><time>2026-04-08T07:36:36.999Z</time></trkpt><trkpt lat="51.3741597808171" lon="17.00220463389711"><ele>108.00000000000001</ele><time>2026-04-08T07:36:37.999Z</time></trkpt><trkpt lat="51.37425063071251" lon="17.002181647846584"><ele>108.0</ele><time>2026-04-08T07:36:38.999Z</time></trkpt><trkpt lat="51.374331737872645" lon="17.00216554966162"><ele>108.0</ele><time>2026-04-08T07:36:39.999Z</time></trkpt><trkpt lat="51.374420170227644" lon="17.002138598837515"><ele>108.0</ele><time>2026-04-08T07:36:41.999Z</time></trkpt><trkpt lat="51.37442327981108" lon="17.001812700973453"><ele>108.0</ele><time>2026-04-08T07:36:44.999Z</time></trkpt><trkpt lat="51.37439052371696" lon="17.00165163339076"><ele>108.0</ele><time>2026-04-08T07:36:45.999Z</time></trkpt><trkpt lat="51.37438101017015" lon="17.00145905023261"><ele>108.0</ele><time>2026-04-08T07:36:46.999Z</time></trkpt><trkpt lat="51.37435743657281" lon="17.001258541839157"><ele>107.83333333333333</ele><time>2026-04-08T07:36:47.999Z</time></trkpt><trkpt lat="51.37433631865168" lon="17.00107892051881"><ele>107.66666666666666</ele><time>2026-04-08T07:36:48.999Z</time></trkpt><trkpt lat="51.37430278501576" lon="17.000936589136767"><ele>107.5</ele><time>2026-04-08T07:36:49.999Z</time></trkpt><trkpt lat="51.374302695388835" lon="17.000807881532943"><ele>107.33333333333333</ele><time>2026-04-08T07:36:50.999Z</time></trkpt><trkpt lat="51.374262115315716" lon="17.000721167591927"><ele>107.16666666666666</ele><time>2026-04-08T07:36:51.999Z</time></trkpt><trkpt lat="51.37418408231411" lon="17.000661550494225"><ele>107.0</ele><time>2026-04-08T07:36:52.999Z</time></trkpt><trkpt lat="51.374085220574635" lon="17.000620185831004"><ele>107.0</ele><time>2026-04-08T07:36:53.999Z</time></trkpt><trkpt lat="51.373981140071606" lon="17.000548812802236"><ele>107.0</ele><time>2026-04-08T07:36:54.999Z</time></trkpt><trkpt lat="51.373871179989784" lon="17.000456785887575"><ele>107.0</ele><time>2026-04-08T07:36:55.999Z</time></trkpt><trkpt lat="51.37376022944385" lon="17.000342625363693"><ele>107.0</ele><time>2026-04-08T07:36:56.999Z</time></trkpt><trkpt lat="51.37365492739263" lon="17.00024188936974"><ele>107.19999999999999</ele><time>2026-04-08T07:36:57.999Z</time></trkpt><trkpt lat="51.37356967671859" lon="17.000155347699902"><ele>107.39999999999999</ele><time>2026-04-08T07:36:58.999Z</time></trkpt><trkpt lat="51.373482431729215" lon="17.000076647629584"><ele>107.60000000000001</ele><time>2026-04-08T07:36:59.999Z</time></trkpt><trkpt lat="51.37339406575479" lon="16.999972501164542"><ele>107.80000000000001</ele><time>2026-04-08T07:37:00.999Z</time></trkpt><trkpt lat="51.373317856649024" lon="16.999873222518474"><ele>108.0</ele><time>2026-04-08T07:37:01.999Z</time></trkpt><trkpt lat="51.37326097346452" lon="16.999791504901626"><ele>108.0</ele><time>2026-04-08T07:37:02.999Z</time></trkpt><trkpt lat="51.373184281724555" lon="16.999771113145414"><ele>108.0</ele><time>2026-04-08T07:37:04.999Z</time></trkpt><trkpt lat="51.373250400494925" lon="16.99953776228911"><ele>108.0</ele><time>2026-04-08T07:37:05.999Z</time></trkpt><trkpt lat="51.373288008159584" lon="16.999389756507657"><ele>108.0</ele><time>2026-04-08T07:37:07.999Z</time></trkpt><trkpt lat="51.37344740233771" lon="16.999471917054628"><ele>108.0</ele><time>2026-04-08T07:37:08.999Z</time></trkpt><trkpt lat="51.373538416395064" lon="16.99945313137219"><ele>108.00000000000001</ele><time>2026-04-08T07:37:09.999Z</time></trkpt><trkpt lat="51.37364417577268" lon="16.99947021543536"><ele>108.00000000000001</ele><time>2026-04-08T07:37:10.999Z</time></trkpt><trkpt lat="51.37376135791206" lon="16.99945973173229"><ele>108.0</ele><time>2026-04-08T07:37:11.999Z</time></trkpt><trkpt lat="51.373891828622526" lon="16.999433373197835"><ele>108.0</ele><time>2026-04-08T07:37:12.999Z</time></trkpt><trkpt lat="51.37403237625784" lon="16.999393252962978"><ele>107.75</ele><time>2026-04-08T07:37:13.999Z</time></trkpt><trkpt lat="51.37417909913176" lon="16.99934961893913"><ele>107.5</ele><time>2026-04-08T07:37:14.999Z</time></trkpt><trkpt lat="51.3743323222889" lon="16.99930614546919"><ele>107.25</ele><time>2026-04-08T07:37:15.999Z</time></trkpt><trkpt lat="51.37447667731149" lon="16.99930716787018"><ele>107.0</ele><time>2026-04-08T07:37:16.999Z</time></trkpt><trkpt lat="51.374595353371554" lon="16.99933131187127"><ele>106.75</ele><time>2026-04-08T07:37:17.999Z</time></trkpt><trkpt lat="51.374702367841955" lon="16.999386823683054"><ele>106.5</ele><time>2026-04-08T07:37:18.999Z</time></trkpt><trkpt lat="51.374819792036874" lon="16.999426259230898"><ele>106.25</ele><time>2026-04-08T07:37:19.999Z</time></trkpt><trkpt lat="51.37494880504106" lon="16.999457191345044"><ele>106.0</ele><time>2026-04-08T07:37:20.999Z</time></trkpt><trkpt lat="51.37508944963258" lon="16.999441036658997"><ele>106.0</ele><time>2026-04-08T07:37:21.999Z</time></trkpt><trkpt lat="51.37523654182688" lon="16.999413889285144"><ele>106.0</ele><time>2026-04-08T07:37:22.999Z</time></trkpt><trkpt lat="51.37537542469781" lon="16.99934057941613"><ele>106.0</ele><time>2026-04-08T07:37:23.999Z</time></trkpt><trkpt lat="51.37551445790319" lon="16.999248351805136"><ele>106.0</ele><time>2026-04-08T07:37:24.999Z</time></trkpt><trkpt lat="51.37566389413953" lon="16.99915006360879"><ele>106.33333333333334</ele><time>2026-04-08T07:37:25.999Z</time></trkpt><trkpt lat="51.375812816503895" lon="16.999072131201906"><ele>106.66666666666666</ele><time>2026-04-08T07:37:26.999Z</time></trkpt><trkpt lat="51.37597336737507" lon="16.999003567174842"><ele>107.0</ele><time>2026-04-08T07:37:27.999Z</time></trkpt><trkpt lat="51.376136767219585" lon="16.998927451456755"><ele>107.0</ele><time>2026-04-08T07:37:28.999Z</time></trkpt><trkpt lat="51.37629140885844" lon="16.998872823065224"><ele>107.0</ele><time>2026-04-08T07:37:29.999Z</time></trkpt><trkpt lat="51.37644481546722" lon="16.998792398725435"><ele>107.0</ele><time>2026-04-08T07:37:30.999Z</time></trkpt><trkpt lat="51.376606275184145" lon="16.998719926623192"><ele>106.66666666666666</ele><time>2026-04-08T07:37:31.999Z</time></trkpt><trkpt lat="51.3767696316995" lon="16.99864784673012"><ele>106.33333333333334</ele><time>2026-04-08T07:37:32.999Z</time></trkpt><trkpt lat="51.37693572985421" lon="16.998570225516456"><ele>106.0</ele><time>2026-04-08T07:37:33.999Z</time></trkpt><trkpt lat="51.377097710827215" lon="16.998496223936556"><ele>105.66666666666667</ele><time>2026-04-08T07:37:34.999Z</time></trkpt><trkpt lat="51.37726580243045" lon="16.998413734882245"><ele>105.33333333333334</ele><time>2026-04-08T07:37:35.999Z</time></trkpt><trkpt lat="51.37743246342465" lon="16.998331173568772"><ele>105.0</ele><time>2026-04-08T07:37:36.999Z</time></trkpt><trkpt lat="51.37759184976819" lon="16.998268118194535"><ele>105.0</ele><time>2026-04-08T07:37:37.999Z</time></trkpt><trkpt lat="51.377758124853926" lon="16.998214407797466"><ele>105.0</ele><time>2026-04-08T07:37:38.999Z</time></trkpt><trkpt lat="51.37791464448282" lon="16.998183081300976"><ele>105.0</ele><time>2026-04-08T07:37:39.999Z</time></trkpt><trkpt lat="51.37807319146498" lon="16.998164438269438"><ele>104.66666666666666</ele><time>2026-04-08T07:37:40.999Z</time></trkpt><trkpt lat="51.37822443872282" lon="16.99820559113475"><ele>104.33333333333333</ele><time>2026-04-08T07:37:41.999Z</time></trkpt><trkpt lat="51.378377182353404" lon="16.99820534564298"><ele>104.0</ele><time>2026-04-08T07:37:42.999Z</time></trkpt><trkpt lat="51.378535245010454" lon="16.998239613435477"><ele>104.0</ele><time>2026-04-08T07:37:43.999Z</time></trkpt><trkpt lat="51.37869152290298" lon="16.998274223124685"><ele>104.0</ele><time>2026-04-08T07:37:44.999Z</time></trkpt><trkpt lat="51.37885376108528" lon="16.998269349814862"><ele>104.0</ele><time>2026-04-08T07:37:45.999Z</time></trkpt><trkpt lat="51.37901652731741" lon="16.998253401348496"><ele>103.66666666666666</ele><time>2026-04-08T07:37:46.999Z</time></trkpt><trkpt lat="51.379186039409504" lon="16.99822321870668"><ele>103.33333333333334</ele><time>2026-04-08T07:37:47.999Z</time></trkpt><trkpt lat="51.37936125721131" lon="16.99820043148875"><ele>103.0</ele><time>2026-04-08T07:37:48.999Z</time></trkpt><trkpt lat="51.3795367062934" lon="16.998179278390428"><ele>103.0</ele><time>2026-04-08T07:37:49.999Z</time></trkpt><trkpt lat="51.37971730610529" lon="16.998170007154496"><ele>103.0</ele><time>2026-04-08T07:37:50.999Z</time></trkpt><trkpt lat="51.37988962422661" lon="16.99815781929098"><ele>103.0</ele><time>2026-04-08T07:37:51.999Z</time></trkpt><trkpt lat="51.38004592791636" lon="16.99815839292257"><ele>103.0</ele><time>2026-04-08T07:37:52.999Z</time></trkpt><trkpt lat="51.380186090255286" lon="16.998175560814186"><ele>103.0</ele><time>2026-04-08T07:37:53.999Z</time></trkpt><trkpt lat="51.3803264444821" lon="16.99819648235155"><ele>103.0</ele><time>2026-04-08T07:37:54.999Z</time></trkpt><trkpt lat="51.38047025611309" lon="16.998206031425195"><ele>103.0</ele><time>2026-04-08T07:37:55.999Z</time></trkpt><trkpt lat="51.38062395569872" lon="16.998208220518656"><ele>103.0</ele><time>2026-04-08T07:37:56.999Z</time></trkpt><trkpt lat="51.38078261515799" lon="16.998236140269"><ele>103.0</ele><time>2026-04-08T07:37:57.999Z</time></trkpt><trkpt lat="51.38094124403204" lon="16.998252633145775"><ele>103.0</ele><time>2026-04-08T07:37:58.999Z</time></trkpt><trkpt lat="51.381074681884286" lon="16.99828597449762"><ele>103.0</ele><time>2026-04-08T07:37:59.999Z</time></trkpt><trkpt lat="51.381204905103075" lon="16.998313503976174"><ele>103.0</ele><time>2026-04-08T07:38:00.999Z</time></trkpt><trkpt lat="51.38133307970198" lon="16.9983331778627"><ele>103.0</ele><time>2026-04-08T07:38:01.999Z</time></trkpt><trkpt lat="51.381462046853656" lon="16.99835707624333"><ele>103.0</ele><time>2026-04-08T07:38:02.999Z</time></trkpt><trkpt lat="51.38158518065128" lon="16.99837356331105"><ele>103.0</ele><time>2026-04-08T07:38:03.999Z</time></trkpt><trkpt lat="51.38170695430994" lon="16.99839704476393"><ele>103.0</ele><time>2026-04-08T07:38:04.999Z</time></trkpt><trkpt lat="51.381829373981084" lon="16.998456762641762"><ele>103.0</ele><time>2026-04-08T07:38:05.999Z</time></trkpt><trkpt lat="51.38194951715375" lon="16.99849884583756"><ele>103.0</ele><time>2026-04-08T07:38:06.999Z</time></trkpt><trkpt lat="51.382065052521654" lon="16.998544378588413"><ele>103.0</ele><time>2026-04-08T07:38:07.999Z</time></trkpt><trkpt lat="51.382169333028386" lon="16.99858536122139"><ele>103.0</ele><time>2026-04-08T07:38:08.999Z</time></trkpt><trkpt lat="51.38227629149897" lon="16.998602590912977"><ele>103.0</ele><time>2026-04-08T07:38:09.999Z</time></trkpt><trkpt lat="51.38238728443115" lon="16.998639598220997"><ele>103.0</ele><time>2026-04-08T07:38:10.999Z</time></trkpt><trkpt lat="51.38249790048829" lon="16.998702943864952"><ele>103.0</ele><time>2026-04-08T07:38:11.999Z</time></trkpt><trkpt lat="51.38261799709417" lon="16.998715568987876"><ele>102.75</ele><time>2026-04-08T07:38:12.999Z</time></trkpt><trkpt lat="51.38273831464803" lon="16.998767665556226"><ele>102.5</ele><time>2026-04-08T07:38:13.999Z</time></trkpt><trkpt lat="51.3828633349663" lon="16.998778546120526"><ele>102.25</ele><time>2026-04-08T07:38:14.999Z</time></trkpt><trkpt lat="51.38299065429356" lon="16.998842577676644"><ele>102.0</ele><time>2026-04-08T07:38:15.999Z</time></trkpt><trkpt lat="51.38312354693298" lon="16.998871642797695"><ele>102.0</ele><time>2026-04-08T07:38:16.999Z</time></trkpt><trkpt lat="51.38324407963716" lon="16.998944095673743"><ele>102.0</ele><time>2026-04-08T07:38:17.999Z</time></trkpt><trkpt lat="51.383381828842246" lon="16.999018419334202"><ele>102.0</ele><time>2026-04-08T07:38:18.999Z</time></trkpt><trkpt lat="51.38348505601993" lon="16.999088237327296"><ele>102.0</ele><time>2026-04-08T07:38:19.999Z</time></trkpt><trkpt lat="51.38361923771291" lon="16.99915201648943"><ele>102.0</ele><time>2026-04-08T07:38:20.999Z</time></trkpt><trkpt lat="51.3837584846569" lon="16.999222222536513"><ele>102.0</ele><time>2026-04-08T07:38:21.999Z</time></trkpt><trkpt lat="51.38389659328295" lon="16.999293048309674"><ele>102.0</ele><time>2026-04-08T07:38:22.999Z</time></trkpt><trkpt lat="51.38403372402899" lon="16.9993685783665"><ele>102.0</ele><time>2026-04-08T07:38:23.999Z</time></trkpt><trkpt lat="51.38417334710599" lon="16.999423157439796"><ele>101.75</ele><time>2026-04-08T07:38:24.999Z</time></trkpt><trkpt lat="51.38431412123608" lon="16.99945698680694"><ele>101.5</ele><time>2026-04-08T07:38:25.999Z</time></trkpt><trkpt lat="51.38442756363292" lon="16.999535765911645"><ele>101.25</ele><time>2026-04-08T07:38:26.999Z</time></trkpt><trkpt lat="51.38453744646494" lon="16.99960118278751"><ele>101.0</ele><time>2026-04-08T07:38:27.999Z</time></trkpt><trkpt lat="51.38467121390037" lon="16.999646279042512"><ele>101.0</ele><time>2026-04-08T07:38:28.999Z</time></trkpt><trkpt lat="51.38477109253967" lon="16.999719324452705"><ele>101.0</ele><time>2026-04-08T07:38:29.999Z</time></trkpt><trkpt lat="51.38486210040045" lon="16.999740151979758"><ele>101.0</ele><time>2026-04-08T07:38:30.999Z</time></trkpt><trkpt lat="51.38495430453608" lon="16.99978808537049"><ele>101.0</ele><time>2026-04-08T07:38:31.999Z</time></trkpt><trkpt lat="51.38505725059433" lon="16.999840406358704"><ele>101.0</ele><time>2026-04-08T07:38:32.999Z</time></trkpt><trkpt lat="51.385169143002294" lon="16.99989803545293"><ele>101.0</ele><time>2026-04-08T07:38:33.999Z</time></trkpt><trkpt lat="51.3852890662005" lon="16.999948966910306"><ele>101.0</ele><time>2026-04-08T07:38:34.999Z</time></trkpt><trkpt lat="51.385415761697345" lon="16.9999904877426"><ele>101.0</ele><time>2026-04-08T07:38:35.999Z</time></trkpt><trkpt lat="51.385531191452934" lon="17.000039498770175"><ele>101.0</ele><time>2026-04-08T07:38:36.999Z</time></trkpt><trkpt lat="51.38562220485378" lon="17.00008788654155"><ele>101.16666666666666</ele><time>2026-04-08T07:38:37.999Z</time></trkpt><trkpt lat="51.38569471840142" lon="17.00015697737994"><ele>101.33333333333333</ele><time>2026-04-08T07:38:38.999Z</time></trkpt><trkpt lat="51.385776457063734" lon="17.00020236694505"><ele>101.5</ele><time>2026-04-08T07:38:39.999Z</time></trkpt><trkpt lat="51.38585971284732" lon="17.000242035651866"><ele>101.66666666666666</ele><time>2026-04-08T07:38:40.999Z</time></trkpt><trkpt lat="51.38593787647158" lon="17.000274000459786"><ele>101.83333333333333</ele><time>2026-04-08T07:38:41.999Z</time></trkpt><trkpt lat="51.38601252951508" lon="17.000272956055163"><ele>102.0</ele><time>2026-04-08T07:38:42.999Z</time></trkpt><trkpt lat="51.38607795716557" lon="17.000290821402878"><ele>102.0</ele><time>2026-04-08T07:38:43.999Z</time></trkpt><trkpt lat="51.386198484182366" lon="17.000279844153678"><ele>102.0</ele><time>2026-04-08T07:38:45.999Z</time></trkpt><trkpt lat="51.38631809683173" lon="17.00028658055908"><ele>102.0</ele><time>2026-04-08T07:38:47.999Z</time></trkpt><trkpt lat="51.38639302238423" lon="17.000310138534314"><ele>102.0</ele><time>2026-04-08T07:38:48.999Z</time></trkpt><trkpt lat="51.386466111630575" lon="17.000333357095982"><ele>102.0</ele><time>2026-04-08T07:38:49.999Z</time></trkpt><trkpt lat="51.386544524164904" lon="17.00035437675915"><ele>102.0</ele><time>2026-04-08T07:38:50.999Z</time></trkpt><trkpt lat="51.38661218547748" lon="17.00035174151869"><ele>102.0</ele><time>2026-04-08T07:38:52Z</time></trkpt><trkpt lat="51.38668909414271" lon="17.00034987032612"><ele>102.0</ele><time>2026-04-08T07:38:54Z</time></trkpt><trkpt lat="51.386769281752386" lon="17.00035860471378"><ele>102.0</ele><time>2026-04-08T07:38:56Z</time></trkpt><trkpt lat="51.38683304280625" lon="17.000355505568034"><ele>102.0</ele><time>2026-04-08T07:38:57Z</time></trkpt><trkpt lat="51.38691808080384" lon="17.00035942592667"><ele>102.0</ele><time>2026-04-08T07:38:58Z</time></trkpt><trkpt lat="51.38700097856927" lon="17.00036416291142"><ele>102.0</ele><time>2026-04-08T07:38:59Z</time></trkpt><trkpt lat="51.38707460194924" lon="17.000360851651102"><ele>102.0</ele><time>2026-04-08T07:39:00Z</time></trkpt><trkpt lat="51.387149198188716" lon="17.00036511467972"><ele>102.0</ele><time>2026-04-08T07:39:01Z</time></trkpt><trkpt lat="51.387228765796365" lon="17.00037544682845"><ele>102.0</ele><time>2026-04-08T07:39:02Z</time></trkpt><trkpt lat="51.387318971007204" lon="17.000375617574566"><ele>102.0</ele><time>2026-04-08T07:39:04Z</time></trkpt><trkpt lat="51.387419520761554" lon="17.000363754531673"><ele>102.0</ele><time>2026-04-08T07:39:06Z</time></trkpt><trkpt lat="51.38753083042363" lon="17.000376229882985"><ele>101.6</ele><time>2026-04-08T07:39:08Z</time></trkpt><trkpt lat="51.38764806407327" lon="17.00036667675491"><ele>101.19999999999999</ele><time>2026-04-08T07:39:10Z</time></trkpt><trkpt lat="51.38777025775574" lon="17.000366281494916"><ele>100.8</ele><time>2026-04-08T07:39:12Z</time></trkpt><trkpt lat="51.38783775968682" lon="17.000365264684007"><ele>100.4</ele><time>2026-04-08T07:39:13Z</time></trkpt><trkpt lat="51.38791226429283" lon="17.000355040675114"><ele>100.0</ele><time>2026-04-08T07:39:14Z</time></trkpt><trkpt lat="51.38798926637457" lon="17.000369287133264"><ele>100.0</ele><time>2026-04-08T07:39:15Z</time></trkpt><trkpt lat="51.388066588078296" lon="17.000366661121287"><ele>100.0</ele><time>2026-04-08T07:39:16Z</time></trkpt><trkpt lat="51.38815386444193" lon="17.000339803334224"><ele>100.0</ele><time>2026-04-08T07:39:17Z</time></trkpt><trkpt lat="51.38826137454528" lon="17.00033717844859"><ele>100.0</ele><time>2026-04-08T07:39:18Z</time></trkpt><trkpt lat="51.388382193668896" lon="17.000322736450084"><ele>100.0</ele><time>2026-04-08T07:39:19Z</time></trkpt><trkpt lat="51.38848801519213" lon="17.000309432477025"><ele>100.0</ele><time>2026-04-08T07:39:20Z</time></trkpt><trkpt lat="51.388580768628515" lon="17.00030051700425"><ele>100.0</ele><time>2026-04-08T07:39:21Z</time></trkpt><trkpt lat="51.38867818187328" lon="17.00029328871803"><ele>100.0</ele><time>2026-04-08T07:39:22Z</time></trkpt><trkpt lat="51.38877027018082" lon="17.000289947162504"><ele>100.0</ele><time>2026-04-08T07:39:23Z</time></trkpt><trkpt lat="51.38887350718969" lon="17.000262421783066"><ele>100.0</ele><time>2026-04-08T07:39:24Z</time></trkpt><trkpt lat="51.38899704980673" lon="17.0002433990076"><ele>100.2</ele><time>2026-04-08T07:39:25Z</time></trkpt><trkpt lat="51.38911314243623" lon="17.000230934695143"><ele>100.4</ele><time>2026-04-08T07:39:26Z</time></trkpt><trkpt lat="51.38922321556489" lon="17.000225876441206"><ele>100.6</ele><time>2026-04-08T07:39:27Z</time></trkpt><trkpt lat="51.38932958442882" lon="17.000215179075685"><ele>100.8</ele><time>2026-04-08T07:39:28Z</time></trkpt><trkpt lat="51.38942222890642" lon="17.000210999325176"><ele>101.0</ele><time>2026-04-08T07:39:29Z</time></trkpt><trkpt lat="51.38951598339002" lon="17.000211891918287"><ele>101.0</ele><time>2026-04-08T07:39:30Z</time></trkpt><trkpt lat="51.3896180779732" lon="17.0002160138832"><ele>101.0</ele><time>2026-04-08T07:39:31Z</time></trkpt><trkpt lat="51.389721327698716" lon="17.000198554225847"><ele>101.0</ele><time>2026-04-08T07:39:32Z</time></trkpt><trkpt lat="51.389812860483225" lon="17.000159410677167"><ele>101.0</ele><time>2026-04-08T07:39:33Z</time></trkpt><trkpt lat="51.38989860702229" lon="17.0001299121939"><ele>101.0</ele><time>2026-04-08T07:39:34Z</time></trkpt><trkpt lat="51.3899872898666" lon="17.000119279551036"><ele>101.0</ele><time>2026-04-08T07:39:35Z</time></trkpt><trkpt lat="51.39009819916306" lon="17.000068838061942"><ele>101.0</ele><time>2026-04-08T07:39:36Z</time></trkpt><trkpt lat="51.39020411514999" lon="17.0000108611578"><ele>101.0</ele><time>2026-04-08T07:39:37Z</time></trkpt><trkpt lat="51.39028379911726" lon="16.999986617504835"><ele>101.0</ele><time>2026-04-08T07:39:38Z</time></trkpt><trkpt lat="51.3903567160518" lon="16.999968539203127"><ele>101.0</ele><time>2026-04-08T07:39:39Z</time></trkpt><trkpt lat="51.39047170956148" lon="16.999942419769376"><ele>100.8</ele><time>2026-04-08T07:39:41Z</time></trkpt><trkpt lat="51.39054285306051" lon="16.99991412031821"><ele>100.6</ele><time>2026-04-08T07:39:42Z</time></trkpt><trkpt lat="51.390637146095685" lon="16.999910498037547"><ele>100.4</ele><time>2026-04-08T07:39:43Z</time></trkpt><trkpt lat="51.39074450996783" lon="16.999919366781732"><ele>100.2</ele><time>2026-04-08T07:39:44Z</time></trkpt><trkpt lat="51.390842263163236" lon="16.999920106643028"><ele>100.0</ele><time>2026-04-08T07:39:45Z</time></trkpt><trkpt lat="51.390952523198074" lon="16.999913929072502"><ele>100.0</ele><time>2026-04-08T07:39:46Z</time></trkpt><trkpt lat="51.391069984290034" lon="16.999927069640226"><ele>100.0</ele><time>2026-04-08T07:39:47Z</time></trkpt><trkpt lat="51.391192338712585" lon="16.999937325054475"><ele>100.0</ele><time>2026-04-08T07:39:48Z</time></trkpt><trkpt lat="51.391320752405306" lon="16.999954675295726"><ele>100.0</ele><time>2026-04-08T07:39:49Z</time></trkpt><trkpt lat="51.3914262276661" lon="16.999959464157445"><ele>100.16666666666667</ele><time>2026-04-08T07:39:50Z</time></trkpt><trkpt lat="51.39152178151905" lon="16.9999545930506"><ele>100.33333333333334</ele><time>2026-04-08T07:39:51Z</time></trkpt><trkpt lat="51.391609758226984" lon="16.999967065008843"><ele>100.5</ele><time>2026-04-08T07:39:52Z</time></trkpt><trkpt lat="51.3916749659974" lon="17.000005475462384"><ele>100.66666666666666</ele><time>2026-04-08T07:39:53Z</time></trkpt><trkpt lat="51.39175007462878" lon="17.0000547285769"><ele>100.83333333333333</ele><time>2026-04-08T07:39:54Z</time></trkpt><trkpt lat="51.391844280017665" lon="17.00007614505696"><ele>101.0</ele><time>2026-04-08T07:39:55Z</time></trkpt><trkpt lat="51.39195027704445" lon="17.000090701179822"><ele>101.0</ele><time>2026-04-08T07:39:56Z</time></trkpt><trkpt lat="51.39206183096206" lon="17.00010011318605"><ele>101.0</ele><time>2026-04-08T07:39:57Z</time></trkpt><trkpt lat="51.39217170372002" lon="17.00011586406045"><ele>101.0</ele><time>2026-04-08T07:39:58Z</time></trkpt><trkpt lat="51.39229026964116" lon="17.000106373203902"><ele>101.0</ele><time>2026-04-08T07:39:59Z</time></trkpt><trkpt lat="51.39239402807271" lon="17.000105166084364"><ele>101.0</ele><time>2026-04-08T07:40:00Z</time></trkpt><trkpt lat="51.39247271641172" lon="17.000096816435878"><ele>101.0</ele><time>2026-04-08T07:40:01Z</time></trkpt><trkpt lat="51.39255933465445" lon="17.000076175123652"><ele>101.0</ele><time>2026-04-08T07:40:02Z</time></trkpt><trkpt lat="51.3926532452625" lon="17.000068891754882"><ele>101.0</ele><time>2026-04-08T07:40:03Z</time></trkpt><trkpt lat="51.392765807151285" lon="17.00006423280907"><ele>101.0</ele><time>2026-04-08T07:40:04Z</time></trkpt><trkpt lat="51.39289190540572" lon="17.00003955054542"><ele>101.0</ele><time>2026-04-08T07:40:05Z</time></trkpt><trkpt lat="51.39301252485754" lon="17.000010014819136"><ele>100.83333333333333</ele><time>2026-04-08T07:40:06Z</time></trkpt><trkpt lat="51.39311088919926" lon="16.999997527743833"><ele>100.66666666666666</ele><time>2026-04-08T07:40:07Z</time></trkpt><trkpt lat="51.39318429137216" lon="16.999970232525726"><ele>100.5</ele><time>2026-04-08T07:40:08Z</time></trkpt><trkpt lat="51.393257162429215" lon="16.999923350495354"><ele>100.33333333333334</ele><time>2026-04-08T07:40:09Z</time></trkpt><trkpt lat="51.39334276839584" lon="16.999895922560242"><ele>100.16666666666667</ele><time>2026-04-08T07:40:10Z</time></trkpt><trkpt lat="51.3934287553081" lon="16.999879288382157"><ele>100.0</ele><time>2026-04-08T07:40:11Z</time></trkpt><trkpt lat="51.39350938001896" lon="16.999856165950828"><ele>100.0</ele><time>2026-04-08T07:40:12Z</time></trkpt><trkpt lat="51.39357912326936" lon="16.999845194729897"><ele>100.0</ele><time>2026-04-08T07:40:13Z</time></trkpt><trkpt lat="51.393707328184625" lon="16.999769644126346"><ele>100.0</ele><time>2026-04-08T07:40:15Z</time></trkpt><trkpt lat="51.39378858041622" lon="16.99973116697974"><ele>100.0</ele><time>2026-04-08T07:40:16Z</time></trkpt><trkpt lat="51.39388068922904" lon="16.99970045399833"><ele>100.0</ele><time>2026-04-08T07:40:17Z</time></trkpt><trkpt lat="51.39395871669934" lon="16.999668113942036"><ele>99.8</ele><time>2026-04-08T07:40:18Z</time></trkpt><trkpt lat="51.3940441928198" lon="16.99963654113696"><ele>99.6</ele><time>2026-04-08T07:40:19Z</time></trkpt><trkpt lat="51.39413902399121" lon="16.999597845397187"><ele>99.4</ele><time>2026-04-08T07:40:19.999Z</time></trkpt><trkpt lat="51.39423586052136" lon="16.999549586547097"><ele>99.2</ele><time>2026-04-08T07:40:20.999Z</time></trkpt><trkpt lat="51.3943342128941" lon="16.9995119201039"><ele>99.0</ele><time>2026-04-08T07:40:21.999Z</time></trkpt><trkpt lat="51.39441644883009" lon="16.999483941168076"><ele>99.0</ele><time>2026-04-08T07:40:22.999Z</time></trkpt><trkpt lat="51.39449394356708" lon="16.999453293198936"><ele>99.0</ele><time>2026-04-08T07:40:23.999Z</time></trkpt><trkpt lat="51.3945586298799" lon="16.9994157704396"><ele>99.0</ele><time>2026-04-08T07:40:24.999Z</time></trkpt><trkpt lat="51.39465155536479" lon="16.999338718836675"><ele>99.0</ele><time>2026-04-08T07:40:26.999Z</time></trkpt><trkpt lat="51.39480944717478" lon="16.999212513579348"><ele>99.0</ele><time>2026-04-08T07:40:31.999Z</time></trkpt><trkpt lat="51.394901517787034" lon="16.999128290934646"><ele>99.25</ele><time>2026-04-08T07:40:32.999Z</time></trkpt><trkpt lat="51.3950137934288" lon="16.99906570469581"><ele>99.5</ele><time>2026-04-08T07:40:33.999Z</time></trkpt><trkpt lat="51.395142650512994" lon="16.99901775354468"><ele>99.75</ele><time>2026-04-08T07:40:34.999Z</time></trkpt><trkpt lat="51.39527416433343" lon="16.99895252700062"><ele>100.0</ele><time>2026-04-08T07:40:35.999Z</time></trkpt><trkpt lat="51.39541369762786" lon="16.998865614437154"><ele>99.75</ele><time>2026-04-08T07:40:36.999Z</time></trkpt><trkpt lat="51.39556186543451" lon="16.998788632415575"><ele>99.5</ele><time>2026-04-08T07:40:37.999Z</time></trkpt><trkpt lat="51.39570593369207" lon="16.998718653284268"><ele>99.25</ele><time>2026-04-08T07:40:38.999Z</time></trkpt><trkpt lat="51.39583976273411" lon="16.998657249114423"><ele>99.0</ele><time>2026-04-08T07:40:39.999Z</time></trkpt><trkpt lat="51.395981247468185" lon="16.99860367150304"><ele>99.0</ele><time>2026-04-08T07:40:40.999Z</time></trkpt><trkpt lat="51.39613476062059" lon="16.99857582186103"><ele>99.0</ele><time>2026-04-08T07:40:42Z</time></trkpt><trkpt lat="51.396297488276" lon="16.99854573336169"><ele>99.0</ele><time>2026-04-08T07:40:43Z</time></trkpt><trkpt lat="51.39646369951646" lon="16.99850259735999"><ele>99.0</ele><time>2026-04-08T07:40:44Z</time></trkpt><trkpt lat="51.39662637515957" lon="16.99843893826809"><ele>99.0</ele><time>2026-04-08T07:40:45Z</time></trkpt><trkpt lat="51.39676758321273" lon="16.998392810583283"><ele>99.0</ele><time>2026-04-08T07:40:46Z</time></trkpt><trkpt lat="51.396893667818475" lon="16.99836943989014"><ele>99.0</ele><time>2026-04-08T07:40:47Z</time></trkpt><trkpt lat="51.39701704267861" lon="16.998338883225063"><ele>99.0</ele><time>2026-04-08T07:40:48Z</time></trkpt><trkpt lat="51.39713869837542" lon="16.998280788396944"><ele>99.0</ele><time>2026-04-08T07:40:49Z</time></trkpt><trkpt lat="51.39727061866165" lon="16.99823795049288"><ele>99.0</ele><time>2026-04-08T07:40:50Z</time></trkpt><trkpt lat="51.39743154783546" lon="16.998262577177286"><ele>99.0</ele><time>2026-04-08T07:40:51Z</time></trkpt><trkpt lat="51.397577313168135" lon="16.998239580788752"><ele>99.0</ele><time>2026-04-08T07:40:52Z</time></trkpt><trkpt lat="51.3977250026951" lon="16.99821402928391"><ele>99.0</ele><time>2026-04-08T07:40:53Z</time></trkpt><trkpt lat="51.397875560119054" lon="16.99818649021386"><ele>99.0</ele><time>2026-04-08T07:40:54Z</time></trkpt><trkpt lat="51.39802013213238" lon="16.99815367989768"><ele>99.0</ele><time>2026-04-08T07:40:55Z</time></trkpt><trkpt lat="51.398142560292555" lon="16.998107901046254"><ele>99.2</ele><time>2026-04-08T07:40:56Z</time></trkpt><trkpt lat="51.3982331007203" lon="16.998048952469116"><ele>99.4</ele><time>2026-04-08T07:40:57Z</time></trkpt><trkpt lat="51.39832962081412" lon="16.99806302944703"><ele>99.6</ele><time>2026-04-08T07:40:58Z</time></trkpt><trkpt lat="51.39842963240245" lon="16.998077154422436"><ele>99.8</ele><time>2026-04-08T07:40:59Z</time></trkpt><trkpt lat="51.398535242869336" lon="16.99811552757502"><ele>100.0</ele><time>2026-04-08T07:41:00Z</time></trkpt><trkpt lat="51.398650576215665" lon="16.998184806678736"><ele>100.0</ele><time>2026-04-08T07:41:01Z</time></trkpt><trkpt lat="51.398779346202915" lon="16.998227737736222"><ele>100.0</ele><time>2026-04-08T07:41:02Z</time></trkpt><trkpt lat="51.398918233888324" lon="16.998294717433936"><ele>100.0</ele><time>2026-04-08T07:41:03Z</time></trkpt><trkpt lat="51.39906773220811" lon="16.99835484792042"><ele>100.0</ele><time>2026-04-08T07:41:04Z</time></trkpt><trkpt lat="51.39922545945513" lon="16.998405534043886"><ele>99.33333333333334</ele><time>2026-04-08T07:41:05Z</time></trkpt><trkpt lat="51.399385232493984" lon="16.99846874138751"><ele>98.66666666666666</ele><time>2026-04-08T07:41:06Z</time></trkpt><trkpt lat="51.39954968761106" lon="16.998547023596863"><ele>98.0</ele><time>2026-04-08T07:41:07Z</time></trkpt><trkpt lat="51.39971759855174" lon="16.99862068734983"><ele>97.75</ele><time>2026-04-08T07:41:08Z</time></trkpt><trkpt lat="51.39988195983001" lon="16.998688923877772"><ele>97.5</ele><time>2026-04-08T07:41:09Z</time></trkpt><trkpt lat="51.40002476938088" lon="16.998762844323274"><ele>97.25</ele><time>2026-04-08T07:41:10Z</time></trkpt><trkpt lat="51.40014900633825" lon="16.998801461161293"><ele>97.0</ele><time>2026-04-08T07:41:11Z</time></trkpt><trkpt lat="51.40026438790064" lon="16.998848933660916"><ele>97.0</ele><time>2026-04-08T07:41:12Z</time></trkpt><trkpt lat="51.4003832698682" lon="16.998915633988812"><ele>97.0</ele><time>2026-04-08T07:41:13Z</time></trkpt><trkpt lat="51.4004874280514" lon="16.998945214370455"><ele>97.0</ele><time>2026-04-08T07:41:14Z</time></trkpt><trkpt lat="51.40060924921204" lon="16.998971854497864"><ele>97.0</ele><time>2026-04-08T07:41:15Z</time></trkpt><trkpt lat="51.40073047643866" lon="16.999040700777236"><ele>97.0</ele><time>2026-04-08T07:41:16Z</time></trkpt><trkpt lat="51.40084074002906" lon="16.99906212345332"><ele>97.0</ele><time>2026-04-08T07:41:17Z</time></trkpt><trkpt lat="51.400941625911486" lon="16.999122336697006"><ele>97.0</ele><time>2026-04-08T07:41:18Z</time></trkpt><trkpt lat="51.401053024337244" lon="16.999158223626424"><ele>97.0</ele><time>2026-04-08T07:41:19Z</time></trkpt><trkpt lat="51.401171202835926" lon="16.99920619129104"><ele>97.0</ele><time>2026-04-08T07:41:20Z</time></trkpt><trkpt lat="51.401294623215136" lon="16.999256246539172"><ele>97.0</ele><time>2026-04-08T07:41:21Z</time></trkpt><trkpt lat="51.40142657662276" lon="16.999310864405217"><ele>97.0</ele><time>2026-04-08T07:41:22Z</time></trkpt><trkpt lat="51.40155855949692" lon="16.99937543022475"><ele>97.0</ele><time>2026-04-08T07:41:23Z</time></trkpt><trkpt lat="51.40169416209241" lon="16.999431703931034"><ele>97.0</ele><time>2026-04-08T07:41:24Z</time></trkpt><trkpt lat="51.401838635301544" lon="16.999480649807396"><ele>97.0</ele><time>2026-04-08T07:41:25Z</time></trkpt><trkpt lat="51.40199015029528" lon="16.99952245800527"><ele>97.0</ele><time>2026-04-08T07:41:26Z</time></trkpt><trkpt lat="51.40214999999465" lon="16.999579194002852"><ele>96.75</ele><time>2026-04-08T07:41:27Z</time></trkpt><trkpt lat="51.40230011481952" lon="16.99964190715033"><ele>96.5</ele><time>2026-04-08T07:41:28Z</time></trkpt><trkpt lat="51.402436653422725" lon="16.99970247109965"><ele>96.25</ele><time>2026-04-08T07:41:29Z</time></trkpt><trkpt lat="51.40256282310711" lon="16.99975520258883"><ele>96.0</ele><time>2026-04-08T07:41:30Z</time></trkpt><trkpt lat="51.40270192142049" lon="16.99980468527587"><ele>96.0</ele><time>2026-04-08T07:41:31Z</time></trkpt><trkpt lat="51.40284688638123" lon="16.999862333395324"><ele>96.0</ele><time>2026-04-08T07:41:32Z</time></trkpt><trkpt lat="51.40299953631117" lon="16.999940033296543"><ele>96.0</ele><time>2026-04-08T07:41:33Z</time></trkpt><trkpt lat="51.40314561547384" lon="17.000002994730355"><ele>96.0</ele><time>2026-04-08T07:41:34Z</time></trkpt><trkpt lat="51.403267957003294" lon="17.000057191015156"><ele>96.0</ele><time>2026-04-08T07:41:35Z</time></trkpt><trkpt lat="51.403367022599134" lon="17.000090384763595"><ele>96.0</ele><time>2026-04-08T07:41:36Z</time></trkpt><trkpt lat="51.40345353599225" lon="17.000116485277275"><ele>96.0</ele><time>2026-04-08T07:41:37Z</time></trkpt><trkpt lat="51.403532113582465" lon="17.000140299155852"><ele>96.0</ele><time>2026-04-08T07:41:38Z</time></trkpt><trkpt lat="51.40362657799469" lon="17.000191428344042"><ele>96.0</ele><time>2026-04-08T07:41:39Z</time></trkpt><trkpt lat="51.4037280985189" lon="17.000237071788938"><ele>96.0</ele><time>2026-04-08T07:41:40Z</time></trkpt><trkpt lat="51.40383517777657" lon="17.00024471838006"><ele>96.0</ele><time>2026-04-08T07:41:41Z</time></trkpt><trkpt lat="51.40394633731418" lon="17.000254974445554"><ele>96.0</ele><time>2026-04-08T07:41:42Z</time></trkpt><trkpt lat="51.40406007722952" lon="17.000280896647503"><ele>96.0</ele><time>2026-04-08T07:41:43Z</time></trkpt><trkpt lat="51.404181479355806" lon="17.000291463925794"><ele>96.0</ele><time>2026-04-08T07:41:44Z</time></trkpt><trkpt lat="51.404311870076555" lon="17.00028220308935"><ele>96.0</ele><time>2026-04-08T07:41:45Z</time></trkpt><trkpt lat="51.40445280536117" lon="17.00029783939693"><ele>96.0</ele><time>2026-04-08T07:41:46Z</time></trkpt><trkpt lat="51.40458342896595" lon="17.000296439303074"><ele>96.0</ele><time>2026-04-08T07:41:47Z</time></trkpt><trkpt lat="51.40471189588844" lon="17.000272654762462"><ele>96.0</ele><time>2026-04-08T07:41:48Z</time></trkpt><trkpt lat="51.404852035198374" lon="17.000266009142443"><ele>96.0</ele><time>2026-04-08T07:41:49Z</time></trkpt><trkpt lat="51.40497631770657" lon="17.00026994293341"><ele>96.0</ele><time>2026-04-08T07:41:50Z</time></trkpt><trkpt lat="51.40508066561582" lon="17.00026788738957"><ele>96.0</ele><time>2026-04-08T07:41:51Z</time></trkpt><trkpt lat="51.4051920029821" lon="17.00024903325335"><ele>96.0</ele><time>2026-04-08T07:41:52Z</time></trkpt><trkpt lat="51.405308586284455" lon="17.000230819362564"><ele>96.0</ele><time>2026-04-08T07:41:53Z</time></trkpt><trkpt lat="51.40541776158059" lon="17.00020962752479"><ele>96.0</ele><time>2026-04-08T07:41:54Z</time></trkpt><trkpt lat="51.40553524663922" lon="17.000212878561918"><ele>96.0</ele><time>2026-04-08T07:41:55Z</time></trkpt><trkpt lat="51.40564496356729" lon="17.000183187473713"><ele>96.0</ele><time>2026-04-08T07:41:56Z</time></trkpt><trkpt lat="51.40573339875314" lon="17.00015230380329"><ele>96.0</ele><time>2026-04-08T07:41:57Z</time></trkpt><trkpt lat="51.40582014803793" lon="17.000134951271914"><ele>96.0</ele><time>2026-04-08T07:41:58Z</time></trkpt><trkpt lat="51.4059129719909" lon="17.00007946450495"><ele>96.0</ele><time>2026-04-08T07:41:59Z</time></trkpt><trkpt lat="51.40602368998203" lon="17.000044872022688"><ele>96.0</ele><time>2026-04-08T07:42:00Z</time></trkpt><trkpt lat="51.406145183974886" lon="17.000002062442597"><ele>96.0</ele><time>2026-04-08T07:42:01Z</time></trkpt><trkpt lat="51.406270780642366" lon="16.99996665904679"><ele>96.0</ele><time>2026-04-08T07:42:02Z</time></trkpt><trkpt lat="51.40637409157688" lon="16.999931228380245"><ele>96.0</ele><time>2026-04-08T07:42:03Z</time></trkpt><trkpt lat="51.40647464330575" lon="16.999899728897535"><ele>96.0</ele><time>2026-04-08T07:42:04Z</time></trkpt><trkpt lat="51.40659903264038" lon="16.999857237357215"><ele>96.0</ele><time>2026-04-08T07:42:05Z</time></trkpt><trkpt lat="51.406718753645414" lon="16.999838349662536"><ele>96.0</ele><time>2026-04-08T07:42:06Z</time></trkpt><trkpt lat="51.40683677255484" lon="16.999799618702426"><ele>96.0</ele><time>2026-04-08T07:42:07Z</time></trkpt><trkpt lat="51.40694936850359" lon="16.999761129529343"><ele>96.0</ele><time>2026-04-08T07:42:08Z</time></trkpt><trkpt lat="51.40704270636906" lon="16.99970866005057"><ele>96.0</ele><time>2026-04-08T07:42:09Z</time></trkpt><trkpt lat="51.407134136705054" lon="16.999695642866545"><ele>96.0</ele><time>2026-04-08T07:42:10Z</time></trkpt><trkpt lat="51.4072353581628" lon="16.999635699757544"><ele>96.0</ele><time>2026-04-08T07:42:11Z</time></trkpt><trkpt lat="51.40734249136514" lon="16.999594230544524"><ele>96.0</ele><time>2026-04-08T07:42:12Z</time></trkpt><trkpt lat="51.40744815727693" lon="16.999544840689644"><ele>96.0</ele><time>2026-04-08T07:42:13Z</time></trkpt><trkpt lat="51.40754685177516" lon="16.999495238877977"><ele>96.0</ele><time>2026-04-08T07:42:14Z</time></trkpt><trkpt lat="51.40764607213226" lon="16.999435982999735"><ele>96.0</ele><time>2026-04-08T07:42:15Z</time></trkpt><trkpt lat="51.407755049250774" lon="16.999376224620885"><ele>96.0</ele><time>2026-04-08T07:42:16Z</time></trkpt><trkpt lat="51.40786967896186" lon="16.9992919312849"><ele>96.0</ele><time>2026-04-08T07:42:17Z</time></trkpt><trkpt lat="51.4079952215214" lon="16.9992273586346"><ele>96.0</ele><time>2026-04-08T07:42:18Z</time></trkpt><trkpt lat="51.408105801475564" lon="16.999123806174804"><ele>96.0</ele><time>2026-04-08T07:42:19Z</time></trkpt><trkpt lat="51.40821758875702" lon="16.9990531229425"><ele>96.0</ele><time>2026-04-08T07:42:20Z</time></trkpt><trkpt lat="51.4083303951072" lon="16.998977516521176"><ele>96.0</ele><time>2026-04-08T07:42:21Z</time></trkpt><trkpt lat="51.408443900015094" lon="16.998896928439322"><ele>96.0</ele><time>2026-04-08T07:42:22Z</time></trkpt><trkpt lat="51.40855502037123" lon="16.998813904315625"><ele>96.0</ele><time>2026-04-08T07:42:23Z</time></trkpt><trkpt lat="51.408665479490374" lon="16.99874133948105"><ele>96.0</ele><time>2026-04-08T07:42:24Z</time></trkpt><trkpt lat="51.408772740221515" lon="16.99866831758115"><ele>96.0</ele><time>2026-04-08T07:42:25Z</time></trkpt><trkpt lat="51.408892044355454" lon="16.998579170006145"><ele>96.0</ele><time>2026-04-08T07:42:26Z</time></trkpt><trkpt lat="51.40900144200487" lon="16.998511919507678"><ele>96.0</ele><time>2026-04-08T07:42:27Z</time></trkpt><trkpt lat="51.40910405677123" lon="16.998434343707363"><ele>96.0</ele><time>2026-04-08T07:42:28Z</time></trkpt><trkpt lat="51.409220364406444" lon="16.998352603034867"><ele>96.0</ele><time>2026-04-08T07:42:29Z</time></trkpt><trkpt lat="51.409344561200605" lon="16.998263430619584"><ele>96.0</ele><time>2026-04-08T07:42:30Z</time></trkpt><trkpt lat="51.40946783489224" lon="16.99817027760903"><ele>96.0</ele><time>2026-04-08T07:42:31Z</time></trkpt><trkpt lat="51.40959463771932" lon="16.998107625243023"><ele>96.0</ele><time>2026-04-08T07:42:32Z</time></trkpt><trkpt lat="51.409685365644435" lon="16.99801450799606"><ele>96.0</ele><time>2026-04-08T07:42:33Z</time></trkpt><trkpt lat="51.40976972722817" lon="16.997962498766665"><ele>96.0</ele><time>2026-04-08T07:42:34Z</time></trkpt><trkpt lat="51.409857553404215" lon="16.997921551251252"><ele>96.0</ele><time>2026-04-08T07:42:35Z</time></trkpt><trkpt lat="51.409936666921034" lon="16.99786556066332"><ele>96.0</ele><time>2026-04-08T07:42:36Z</time></trkpt><trkpt lat="51.410013411624085" lon="16.997792776535046"><ele>96.0</ele><time>2026-04-08T07:42:37Z</time></trkpt><trkpt lat="51.41010693266613" lon="16.997721904844276"><ele>96.0</ele><time>2026-04-08T07:42:38Z</time></trkpt><trkpt lat="51.410216347956585" lon="16.997639931266722"><ele>96.0</ele><time>2026-04-08T07:42:39Z</time></trkpt><trkpt lat="51.4103377145354" lon="16.997554368006067"><ele>96.0</ele><time>2026-04-08T07:42:40Z</time></trkpt><trkpt lat="51.410473500810795" lon="16.997486317625654"><ele>96.0</ele><time>2026-04-08T07:42:41Z</time></trkpt><trkpt lat="51.41060024426474" lon="16.99736786229581"><ele>96.0</ele><time>2026-04-08T07:42:42Z</time></trkpt><trkpt lat="51.4107382668418" lon="16.99726997552645"><ele>96.25</ele><time>2026-04-08T07:42:43Z</time></trkpt><trkpt lat="51.410863657268585" lon="16.99718117211572"><ele>96.5</ele><time>2026-04-08T07:42:44Z</time></trkpt><trkpt lat="51.41097526251897" lon="16.997131248060537"><ele>96.75</ele><time>2026-04-08T07:42:45Z</time></trkpt><trkpt lat="51.41105988560113" lon="16.99704786712008"><ele>97.0</ele><time>2026-04-08T07:42:46Z</time></trkpt><trkpt lat="51.411158141696134" lon="16.996980075931944"><ele>97.0</ele><time>2026-04-08T07:42:47Z</time></trkpt><trkpt lat="51.41126920613519" lon="16.996894900242943"><ele>97.0</ele><time>2026-04-08T07:42:48Z</time></trkpt><trkpt lat="51.41138546338837" lon="16.996821408123484"><ele>97.0</ele><time>2026-04-08T07:42:49Z</time></trkpt><trkpt lat="51.4114843942004" lon="16.99674562352865"><ele>97.0</ele><time>2026-04-08T07:42:50Z</time></trkpt><trkpt lat="51.41158716318184" lon="16.996693777526705"><ele>97.25</ele><time>2026-04-08T07:42:51Z</time></trkpt><trkpt lat="51.41169422445453" lon="16.99659206371225"><ele>97.5</ele><time>2026-04-08T07:42:52Z</time></trkpt><trkpt lat="51.411817502696806" lon="16.996497698027035"><ele>97.75</ele><time>2026-04-08T07:42:53Z</time></trkpt><trkpt lat="51.411945755014884" lon="16.99639912090095"><ele>98.0</ele><time>2026-04-08T07:42:54Z</time></trkpt><trkpt lat="51.41205419483029" lon="16.996325878935604"><ele>98.0</ele><time>2026-04-08T07:42:55Z</time></trkpt><trkpt lat="51.41215423045405" lon="16.996254707462903"><ele>98.0</ele><time>2026-04-08T07:42:56Z</time></trkpt><trkpt lat="51.41223787119841" lon="16.996197817147333"><ele>98.0</ele><time>2026-04-08T07:42:57Z</time></trkpt><trkpt lat="51.41232329152466" lon="16.99613262807047"><ele>98.0</ele><time>2026-04-08T07:42:58Z</time></trkpt><trkpt lat="51.4124161918044" lon="16.996091240455243"><ele>98.0</ele><time>2026-04-08T07:42:59Z</time></trkpt><trkpt lat="51.41250798579895" lon="16.996070482261782"><ele>97.0</ele><time>2026-04-08T07:43:00Z</time></trkpt><trkpt lat="51.412617432599774" lon="16.99606372773987"><ele>96.0</ele><time>2026-04-08T07:43:01Z</time></trkpt><trkpt lat="51.412741841185664" lon="16.99606871199699"><ele>95.0</ele><time>2026-04-08T07:43:02Z</time></trkpt><trkpt lat="51.41287658364506" lon="16.99608049386973"><ele>94.0</ele><time>2026-04-08T07:43:03Z</time></trkpt><trkpt lat="51.41301166786389" lon="16.996076608892796"><ele>94.0</ele><time>2026-04-08T07:43:04Z</time></trkpt><trkpt lat="51.41314956698493" lon="16.996067783014208"><ele>94.0</ele><time>2026-04-08T07:43:05Z</time></trkpt><trkpt lat="51.41329187282163" lon="16.99605440056686"><ele>94.0</ele><time>2026-04-08T07:43:06Z</time></trkpt><trkpt lat="51.41343250951339" lon="16.996050709831056"><ele>94.0</ele><time>2026-04-08T07:43:07Z</time></trkpt><trkpt lat="51.41357799566315" lon="16.99604631199721"><ele>94.0</ele><time>2026-04-08T07:43:08Z</time></trkpt><trkpt lat="51.41372438804047" lon="16.99605813930903"><ele>94.0</ele><time>2026-04-08T07:43:09Z</time></trkpt><trkpt lat="51.413867020727146" lon="16.996065354571797"><ele>94.0</ele><time>2026-04-08T07:43:10Z</time></trkpt><trkpt lat="51.41400907682608" lon="16.99607645425027"><ele>94.0</ele><time>2026-04-08T07:43:11Z</time></trkpt><trkpt lat="51.41414979701372" lon="16.996069173922102"><ele>94.0</ele><time>2026-04-08T07:43:12Z</time></trkpt><trkpt lat="51.414277935667435" lon="16.996045573217753"><ele>94.0</ele><time>2026-04-08T07:43:13Z</time></trkpt><trkpt lat="51.41439229971881" lon="16.996047829426754"><ele>94.0</ele><time>2026-04-08T07:43:14Z</time></trkpt><trkpt lat="51.4145200908708" lon="16.996051270902758"><ele>94.0</ele><time>2026-04-08T07:43:15Z</time></trkpt><trkpt lat="51.4146517009117" lon="16.996061498781526"><ele>94.25</ele><time>2026-04-08T07:43:16Z</time></trkpt><trkpt lat="51.41478437747267" lon="16.99607681816156"><ele>94.5</ele><time>2026-04-08T07:43:17Z</time></trkpt><trkpt lat="51.41490151655017" lon="16.996107315800913"><ele>94.75</ele><time>2026-04-08T07:43:18Z</time></trkpt><trkpt lat="51.41501420097124" lon="16.99608233679025"><ele>95.0</ele><time>2026-04-08T07:43:19Z</time></trkpt><trkpt lat="51.415115295276415" lon="16.996104450083056"><ele>95.0</ele><time>2026-04-08T07:43:20Z</time></trkpt><trkpt lat="51.41521108603372" lon="16.996146408322637"><ele>95.0</ele><time>2026-04-08T07:43:21Z</time></trkpt><trkpt lat="51.41529693181267" lon="16.996228478069636"><ele>95.0</ele><time>2026-04-08T07:43:22Z</time></trkpt><trkpt lat="51.41539417665476" lon="16.99631136285215"><ele>95.0</ele><time>2026-04-08T07:43:23Z</time></trkpt><trkpt lat="51.41549698655959" lon="16.996413820310682"><ele>95.0</ele><time>2026-04-08T07:43:24Z</time></trkpt><trkpt lat="51.41560410562934" lon="16.99653762959998"><ele>95.25</ele><time>2026-04-08T07:43:25Z</time></trkpt><trkpt lat="51.41572393248374" lon="16.996654743022557"><ele>95.5</ele><time>2026-04-08T07:43:26Z</time></trkpt><trkpt lat="51.41584265994069" lon="16.99678142416042"><ele>95.75</ele><time>2026-04-08T07:43:27Z</time></trkpt><trkpt lat="51.41596437873166" lon="16.99691590381508"><ele>96.0</ele><time>2026-04-08T07:43:28Z</time></trkpt><trkpt lat="51.41609897040767" lon="16.997055339157907"><ele>95.33333333333333</ele><time>2026-04-08T07:43:29Z</time></trkpt><trkpt lat="51.41622668637338" lon="16.997209224648106"><ele>94.66666666666666</ele><time>2026-04-08T07:43:30Z</time></trkpt><trkpt lat="51.4163527501973" lon="16.997377335163296"><ele>94.0</ele><time>2026-04-08T07:43:31Z</time></trkpt><trkpt lat="51.41646922144665" lon="16.997531232236607"><ele>94.0</ele><time>2026-04-08T07:43:32Z</time></trkpt><trkpt lat="51.41657790909946" lon="16.997648330271304"><ele>94.0</ele><time>2026-04-08T07:43:33Z</time></trkpt><trkpt lat="51.416665758592956" lon="16.99775690370707"><ele>94.0</ele><time>2026-04-08T07:43:34Z</time></trkpt><trkpt lat="51.416738605376835" lon="16.99788012693387"><ele>94.0</ele><time>2026-04-08T07:43:35Z</time></trkpt><trkpt lat="51.41681969400128" lon="16.998000959900185"><ele>94.0</ele><time>2026-04-08T07:43:36Z</time></trkpt><trkpt lat="51.41687365334037" lon="16.998119708661747"><ele>94.0</ele><time>2026-04-08T07:43:37Z</time></trkpt><trkpt lat="51.416914103423935" lon="16.99823603268959"><ele>94.0</ele><time>2026-04-08T07:43:38Z</time></trkpt><trkpt lat="51.41697289407623" lon="16.998346624564043"><ele>94.0</ele><time>2026-04-08T07:43:39Z</time></trkpt><trkpt lat="51.417049307584975" lon="16.99845730571133"><ele>94.0</ele><time>2026-04-08T07:43:40Z</time></trkpt><trkpt lat="51.41713156912139" lon="16.998590900411266"><ele>95.0</ele><time>2026-04-08T07:43:41Z</time></trkpt><trkpt lat="51.41721424367672" lon="16.99871027497645"><ele>96.0</ele><time>2026-04-08T07:43:42Z</time></trkpt><trkpt lat="51.41728533791709" lon="16.998816677345438"><ele>97.0</ele><time>2026-04-08T07:43:43Z</time></trkpt><trkpt lat="51.41733685102368" lon="16.99890450733919"><ele>98.0</ele><time>2026-04-08T07:43:44Z</time></trkpt><trkpt lat="51.41738460820455" lon="16.998982170820728"><ele>99.0</ele><time>2026-04-08T07:43:46Z</time></trkpt><trkpt lat="51.41746322148529" lon="16.999114988643363"><ele>98.4</ele><time>2026-04-08T07:43:48Z</time></trkpt><trkpt lat="51.417527102775175" lon="16.99922252417421"><ele>97.80000000000001</ele><time>2026-04-08T07:43:49Z</time></trkpt><trkpt lat="51.41760347050425" lon="16.999349321557048"><ele>97.19999999999999</ele><time>2026-04-08T07:43:50Z</time></trkpt><trkpt lat="51.417686968149376" lon="16.999483458158927"><ele>96.6</ele><time>2026-04-08T07:43:51Z</time></trkpt><trkpt lat="51.41776515929412" lon="16.999647341474713"><ele>96.0</ele><time>2026-04-08T07:43:52Z</time></trkpt><trkpt lat="51.417853637231154" lon="16.999813875825875"><ele>96.0</ele><time>2026-04-08T07:43:53Z</time></trkpt><trkpt lat="51.41795356285191" lon="16.999976808795495"><ele>96.0</ele><time>2026-04-08T07:43:54Z</time></trkpt><trkpt lat="51.41805851123539" lon="17.000145155739705"><ele>96.0</ele><time>2026-04-08T07:43:55Z</time></trkpt><trkpt lat="51.418154689817854" lon="17.000312577922614"><ele>96.0</ele><time>2026-04-08T07:43:56Z</time></trkpt><trkpt lat="51.418222546016665" lon="17.000452083207147"><ele>96.6</ele><time>2026-04-08T07:43:57Z</time></trkpt><trkpt lat="51.418261779779584" lon="17.000536688625015"><ele>97.19999999999999</ele><time>2026-04-08T07:43:58Z</time></trkpt><trkpt lat="51.41840179569331" lon="17.000402734487658"><ele>97.80000000000001</ele><time>2026-04-08T07:44:02Z</time></trkpt><trkpt lat="51.418430491991764" lon="17.000296941676208"><ele>98.4</ele><time>2026-04-08T07:44:03Z</time></trkpt><trkpt lat="51.41844389244975" lon="17.00014124890781"><ele>99.0</ele><time>2026-04-08T07:44:04Z</time></trkpt><trkpt lat="51.41846633742778" lon="16.999973159620072"><ele>99.0</ele><time>2026-04-08T07:44:05Z</time></trkpt><trkpt lat="51.418480067633375" lon="16.99978251286848"><ele>99.0</ele><time>2026-04-08T07:44:06Z</time></trkpt><trkpt lat="51.41848496624705" lon="16.999574043751494"><ele>99.0</ele><time>2026-04-08T07:44:07Z</time></trkpt><trkpt lat="51.41850494449353" lon="16.999391837264003"><ele>99.0</ele><time>2026-04-08T07:44:08Z</time></trkpt><trkpt lat="51.418535399204025" lon="16.999249185801613"><ele>100.25</ele><time>2026-04-08T07:44:09Z</time></trkpt><trkpt lat="51.41857919416823" lon="16.999087126447897"><ele>101.5</ele><time>2026-04-08T07:44:10Z</time></trkpt><trkpt lat="51.4186278323635" lon="16.998898742987564"><ele>102.75</ele><time>2026-04-08T07:44:11Z</time></trkpt><trkpt lat="51.41867473683881" lon="16.998726307058007"><ele>104.0</ele><time>2026-04-08T07:44:12Z</time></trkpt><trkpt lat="51.41871779888231" lon="16.998587204589672"><ele>104.0</ele><time>2026-04-08T07:44:13Z</time></trkpt><trkpt lat="51.418763181624676" lon="16.998437701671296"><ele>104.0</ele><time>2026-04-08T07:44:14Z</time></trkpt><trkpt lat="51.418804477267564" lon="16.99826032437111"><ele>104.0</ele><time>2026-04-08T07:44:15Z</time></trkpt><trkpt lat="51.418845992093466" lon="16.99805334563057"><ele>104.0</ele><time>2026-04-08T07:44:16Z</time></trkpt><trkpt lat="51.41887485498431" lon="16.99783140725674"><ele>102.75</ele><time>2026-04-08T07:44:17Z</time></trkpt><trkpt lat="51.418910766915914" lon="16.997617253894216"><ele>101.5</ele><time>2026-04-08T07:44:18Z</time></trkpt><trkpt lat="51.418944634056864" lon="16.99741155591961"><ele>100.25</ele><time>2026-04-08T07:44:19Z</time></trkpt><trkpt lat="51.419000420733" lon="16.99723245773805"><ele>99.0</ele><time>2026-04-08T07:44:20Z</time></trkpt><trkpt lat="51.41902599948461" lon="16.997063427230962"><ele>99.0</ele><time>2026-04-08T07:44:21Z</time></trkpt><trkpt lat="51.41905144300666" lon="16.99690745918061"><ele>99.0</ele><time>2026-04-08T07:44:22Z</time></trkpt><trkpt lat="51.41910584458666" lon="16.99673376979892"><ele>99.0</ele><time>2026-04-08T07:44:23Z</time></trkpt><trkpt lat="51.41915804743897" lon="16.996555017476915"><ele>99.0</ele><time>2026-04-08T07:44:24Z</time></trkpt><trkpt lat="51.41920885065827" lon="16.99635292400078"><ele>99.0</ele><time>2026-04-08T07:44:25Z</time></trkpt><trkpt lat="51.41926116191058" lon="16.996145018173188"><ele>99.0</ele><time>2026-04-08T07:44:26Z</time></trkpt><trkpt lat="51.41928290250851" lon="16.99596711526229"><ele>99.0</ele><time>2026-04-08T07:44:27Z</time></trkpt><trkpt lat="51.41930882538846" lon="16.995789897891765"><ele>99.0</ele><time>2026-04-08T07:44:28Z</time></trkpt><trkpt lat="51.419342622177396" lon="16.9955945362475"><ele>98.75</ele><time>2026-04-08T07:44:29Z</time></trkpt><trkpt lat="51.41939021175419" lon="16.995374891072338"><ele>98.5</ele><time>2026-04-08T07:44:30Z</time></trkpt><trkpt lat="51.41944062533279" lon="16.995158065433046"><ele>98.25</ele><time>2026-04-08T07:44:31Z</time></trkpt><trkpt lat="51.419491979288345" lon="16.994940011540482"><ele>98.0</ele><time>2026-04-08T07:44:32Z</time></trkpt><trkpt lat="51.41951874323194" lon="16.994740260626752"><ele>98.0</ele><time>2026-04-08T07:44:33Z</time></trkpt><trkpt lat="51.419538447413785" lon="16.994552755231123"><ele>98.0</ele><time>2026-04-08T07:44:34Z</time></trkpt><trkpt lat="51.41956608672321" lon="16.994363523964193"><ele>98.0</ele><time>2026-04-08T07:44:35Z</time></trkpt><trkpt lat="51.41959974929811" lon="16.994197707851452"><ele>98.0</ele><time>2026-04-08T07:44:36Z</time></trkpt><trkpt lat="51.419664853206335" lon="16.994026794564405"><ele>97.0</ele><time>2026-04-08T07:44:37Z</time></trkpt><trkpt lat="51.419724641386566" lon="16.993831216764804"><ele>96.0</ele><time>2026-04-08T07:44:38Z</time></trkpt><trkpt lat="51.419787196722936" lon="16.99361143973032"><ele>95.0</ele><time>2026-04-08T07:44:39Z</time></trkpt><trkpt lat="51.4198146508982" lon="16.99336180897801"><ele>94.0</ele><time>2026-04-08T07:44:40Z</time></trkpt><trkpt lat="51.419856872107346" lon="16.993132896502885"><ele>94.0</ele><time>2026-04-08T07:44:41Z</time></trkpt><trkpt lat="51.419894765387006" lon="16.992896789326885"><ele>94.0</ele><time>2026-04-08T07:44:42Z</time></trkpt><trkpt lat="51.41993920805111" lon="16.992661055527158"><ele>94.0</ele><time>2026-04-08T07:44:43Z</time></trkpt><trkpt lat="51.41998479942027" lon="16.99245814066675"><ele>94.0</ele><time>2026-04-08T07:44:44Z</time></trkpt><trkpt lat="51.4200123617475" lon="16.99228859297738"><ele>94.2</ele><time>2026-04-08T07:44:45Z</time></trkpt><trkpt lat="51.42002658192251" lon="16.992135759479538"><ele>94.4</ele><time>2026-04-08T07:44:46Z</time></trkpt><trkpt lat="51.420042684126486" lon="16.992005688808796"><ele>94.6</ele><time>2026-04-08T07:44:47Z</time></trkpt><trkpt lat="51.42006936850569" lon="16.991882923950588"><ele>94.8</ele><time>2026-04-08T07:44:48Z</time></trkpt><trkpt lat="51.42011523305806" lon="16.99174115655489"><ele>95.0</ele><time>2026-04-08T07:44:49Z</time></trkpt><trkpt lat="51.42018492991398" lon="16.99161249539003"><ele>95.25</ele><time>2026-04-08T07:44:50Z</time></trkpt><trkpt lat="51.42027183813135" lon="16.99148997715495"><ele>95.5</ele><time>2026-04-08T07:44:51Z</time></trkpt><trkpt lat="51.420367038301755" lon="16.991354136997863"><ele>95.75</ele><time>2026-04-08T07:44:52Z</time></trkpt><trkpt lat="51.420467160021076" lon="16.991199720267716"><ele>96.0</ele><time>2026-04-08T07:44:53Z</time></trkpt><trkpt lat="51.420575215870485" lon="16.991041696047375"><ele>95.66666666666667</ele><time>2026-04-08T07:44:54Z</time></trkpt><trkpt lat="51.4206904886135" lon="16.99087135024957"><ele>95.33333333333334</ele><time>2026-04-08T07:44:55Z</time></trkpt><trkpt lat="51.420798117223804" lon="16.990687414304706"><ele>95.0</ele><time>2026-04-08T07:44:56Z</time></trkpt><trkpt lat="51.42091814145609" lon="16.990515455132154"><ele>95.0</ele><time>2026-04-08T07:44:57Z</time></trkpt><trkpt lat="51.421023720485536" lon="16.9903573210687"><ele>95.0</ele><time>2026-04-08T07:44:58Z</time></trkpt><trkpt lat="51.42112410254197" lon="16.99024594261023"><ele>95.0</ele><time>2026-04-08T07:44:59Z</time></trkpt><trkpt lat="51.421230774162254" lon="16.99016230733262"><ele>95.0</ele><time>2026-04-08T07:45:00Z</time></trkpt><trkpt lat="51.42134174748021" lon="16.99006903473914"><ele>94.5</ele><time>2026-04-08T07:45:01Z</time></trkpt><trkpt lat="51.421464887070904" lon="16.98997054493194"><ele>94.0</ele><time>2026-04-08T07:45:02Z</time></trkpt><trkpt lat="51.421586718332435" lon="16.98985910691954"><ele>93.5</ele><time>2026-04-08T07:45:03Z</time></trkpt><trkpt lat="51.42170666527761" lon="16.98971867954527"><ele>93.0</ele><time>2026-04-08T07:45:04Z</time></trkpt><trkpt lat="51.4218136936487" lon="16.989582710349957"><ele>93.0</ele><time>2026-04-08T07:45:05Z</time></trkpt><trkpt lat="51.42192768449593" lon="16.989498011858466"><ele>93.0</ele><time>2026-04-08T07:45:06Z</time></trkpt><trkpt lat="51.42203497391061" lon="16.98936052626877"><ele>93.0</ele><time>2026-04-08T07:45:07Z</time></trkpt><trkpt lat="51.422116581705694" lon="16.989239442949984"><ele>93.0</ele><time>2026-04-08T07:45:08Z</time></trkpt><trkpt lat="51.42220309521213" lon="16.989088703608715"><ele>92.75</ele><time>2026-04-08T07:45:09Z</time></trkpt><trkpt lat="51.42228410666576" lon="16.988928946388192"><ele>92.5</ele><time>2026-04-08T07:45:10Z</time></trkpt><trkpt lat="51.42235261156813" lon="16.988746481355903"><ele>92.25</ele><time>2026-04-08T07:45:11Z</time></trkpt><trkpt lat="51.42242268650372" lon="16.988617074223587"><ele>92.0</ele><time>2026-04-08T07:45:12Z</time></trkpt><trkpt lat="51.42246008513537" lon="16.98848358006007"><ele>92.0</ele><time>2026-04-08T07:45:13Z</time></trkpt><trkpt lat="51.42250119404429" lon="16.988349080048142"><ele>92.0</ele><time>2026-04-08T07:45:14Z</time></trkpt><trkpt lat="51.42253171684279" lon="16.988198163396103"><ele>92.0</ele><time>2026-04-08T07:45:15Z</time></trkpt><trkpt lat="51.422530675687845" lon="16.988027513534902"><ele>92.0</ele><time>2026-04-08T07:45:16Z</time></trkpt><trkpt lat="51.42252954417804" lon="16.9878302799251"><ele>92.0</ele><time>2026-04-08T07:45:17Z</time></trkpt><trkpt lat="51.42257010703374" lon="16.98763850806732"><ele>92.25</ele><time>2026-04-08T07:45:18Z</time></trkpt><trkpt lat="51.42260121905948" lon="16.987414047892127"><ele>92.5</ele><time>2026-04-08T07:45:19Z</time></trkpt><trkpt lat="51.4226309306799" lon="16.98717860049625"><ele>92.75</ele><time>2026-04-08T07:45:20Z</time></trkpt><trkpt lat="51.42263784564716" lon="16.986953611943992"><ele>93.0</ele><time>2026-04-08T07:45:21Z</time></trkpt><trkpt lat="51.42265656406233" lon="16.986710479238806"><ele>93.0</ele><time>2026-04-08T07:45:22Z</time></trkpt><trkpt lat="51.42269215691287" lon="16.986465187241812"><ele>93.0</ele><time>2026-04-08T07:45:23Z</time></trkpt><trkpt lat="51.42271572645861" lon="16.98620607507614"><ele>93.0</ele><time>2026-04-08T07:45:24Z</time></trkpt><trkpt lat="51.42273510055628" lon="16.9859673104099"><ele>93.0</ele><time>2026-04-08T07:45:25Z</time></trkpt><trkpt lat="51.422752836430995" lon="16.985762108504595"><ele>93.0</ele><time>2026-04-08T07:45:26Z</time></trkpt><trkpt lat="51.42277891358371" lon="16.985564136134233"><ele>93.0</ele><time>2026-04-08T07:45:27Z</time></trkpt><trkpt lat="51.42281754405684" lon="16.98537094273648"><ele>93.0</ele><time>2026-04-08T07:45:28Z</time></trkpt><trkpt lat="51.42286746209143" lon="16.98517464681141"><ele>93.0</ele><time>2026-04-08T07:45:29Z</time></trkpt><trkpt lat="51.42292447199787" lon="16.984972299783166"><ele>93.0</ele><time>2026-04-08T07:45:30Z</time></trkpt><trkpt lat="51.42297968483913" lon="16.98475113547149"><ele>93.0</ele><time>2026-04-08T07:45:31Z</time></trkpt><trkpt lat="51.42306701019974" lon="16.984549598951396"><ele>93.0</ele><time>2026-04-08T07:45:32Z</time></trkpt><trkpt lat="51.4231470845702" lon="16.984329027991205"><ele>93.25</ele><time>2026-04-08T07:45:33Z</time></trkpt><trkpt lat="51.423222393990116" lon="16.984101393087368"><ele>93.5</ele><time>2026-04-08T07:45:34Z</time></trkpt><trkpt lat="51.42327939952853" lon="16.983886836032507"><ele>93.75</ele><time>2026-04-08T07:45:35Z</time></trkpt><trkpt lat="51.42334361893553" lon="16.983697028012344"><ele>94.0</ele><time>2026-04-08T07:45:36Z</time></trkpt><trkpt lat="51.42339310956257" lon="16.983531298729478"><ele>94.0</ele><time>2026-04-08T07:45:37Z</time></trkpt><trkpt lat="51.42344076162298" lon="16.98338599498916"><ele>94.0</ele><time>2026-04-08T07:45:38Z</time></trkpt><trkpt lat="51.42349556806761" lon="16.983217066090084"><ele>94.0</ele><time>2026-04-08T07:45:39Z</time></trkpt><trkpt lat="51.42355658073832" lon="16.983032253772286"><ele>94.0</ele><time>2026-04-08T07:45:40Z</time></trkpt><trkpt lat="51.423642843560664" lon="16.982860676387332"><ele>93.75</ele><time>2026-04-08T07:45:41Z</time></trkpt><trkpt lat="51.423694463493696" lon="16.982657741726303"><ele>93.5</ele><time>2026-04-08T07:45:42Z</time></trkpt><trkpt lat="51.42376718667731" lon="16.982476147294854"><ele>93.25</ele><time>2026-04-08T07:45:43Z</time></trkpt><trkpt lat="51.423836472472374" lon="16.982282153856698"><ele>93.0</ele><time>2026-04-08T07:45:44Z</time></trkpt><trkpt lat="51.42390410004801" lon="16.982079353633285"><ele>93.0</ele><time>2026-04-08T07:45:45Z</time></trkpt><trkpt lat="51.42397273834079" lon="16.98188715528619"><ele>93.0</ele><time>2026-04-08T07:45:46Z</time></trkpt><trkpt lat="51.42404202914599" lon="16.98167377061346"><ele>93.0</ele><time>2026-04-08T07:45:47Z</time></trkpt><trkpt lat="51.42412602235131" lon="16.98145933034695"><ele>93.0</ele><time>2026-04-08T07:45:48Z</time></trkpt><trkpt lat="51.42417840131914" lon="16.981208681364205"><ele>93.66666666666667</ele><time>2026-04-08T07:45:49Z</time></trkpt><trkpt lat="51.42423844237318" lon="16.980962912815876"><ele>94.33333333333334</ele><time>2026-04-08T07:45:50Z</time></trkpt><trkpt lat="51.42429529165211" lon="16.98071406022513"><ele>95.0</ele><time>2026-04-08T07:45:51Z</time></trkpt><trkpt lat="51.424362757386334" lon="16.980489864743493"><ele>95.0</ele><time>2026-04-08T07:45:52Z</time></trkpt><trkpt lat="51.42441057476448" lon="16.980294409183156"><ele>95.0</ele><time>2026-04-08T07:45:53Z</time></trkpt><trkpt lat="51.42445845637172" lon="16.98009869108419"><ele>95.0</ele><time>2026-04-08T07:45:54Z</time></trkpt><trkpt lat="51.424503089841394" lon="16.97990674602114"><ele>95.0</ele><time>2026-04-08T07:45:55Z</time></trkpt><trkpt lat="51.42454215801674" lon="16.979721158734222"><ele>95.0</ele><time>2026-04-08T07:45:56Z</time></trkpt><trkpt lat="51.42458302110982" lon="16.9795534960412"><ele>95.0</ele><time>2026-04-08T07:45:57Z</time></trkpt><trkpt lat="51.4246173159189" lon="16.979398911320644"><ele>95.0</ele><time>2026-04-08T07:45:58Z</time></trkpt><trkpt lat="51.42464821545065" lon="16.979263368539335"><ele>95.0</ele><time>2026-04-08T07:45:59Z</time></trkpt><trkpt lat="51.42467032465123" lon="16.979162549504682"><ele>95.0</ele><time>2026-04-08T07:46:00Z</time></trkpt><trkpt lat="51.424690758541864" lon="16.979055305843744"><ele>95.0</ele><time>2026-04-08T07:46:04Z</time></trkpt><trkpt lat="51.42471652204504" lon="16.978947137349984"><ele>95.0</ele><time>2026-04-08T07:46:07Z</time></trkpt><trkpt lat="51.42474700925047" lon="16.97885849508836"><ele>95.0</ele><time>2026-04-08T07:46:14Z</time></trkpt><trkpt lat="51.4247860302972" lon="16.978756411133443"><ele>95.0</ele><time>2026-04-08T07:46:16Z</time></trkpt><trkpt lat="51.42489566873486" lon="16.978891795445275"><ele>95.0</ele><time>2026-04-08T07:46:17Z</time></trkpt><trkpt lat="51.424980759554565" lon="16.97894393640941"><ele>95.0</ele><time>2026-04-08T07:46:18Z</time></trkpt><trkpt lat="51.42508393052227" lon="16.979007156334507"><ele>95.0</ele><time>2026-04-08T07:46:19Z</time></trkpt><trkpt lat="51.42518895847572" lon="16.979061834392123"><ele>95.0</ele><time>2026-04-08T07:46:20Z</time></trkpt><trkpt lat="51.42527425370043" lon="16.979119077535454"><ele>95.0</ele><time>2026-04-08T07:46:21Z</time></trkpt><trkpt lat="51.42535678234334" lon="16.979178875450707"><ele>95.0</ele><time>2026-04-08T07:46:22Z</time></trkpt><trkpt lat="51.425417286233284" lon="16.97922909979152"><ele>95.0</ele><time>2026-04-08T07:46:23Z</time></trkpt><trkpt lat="51.42551796354503" lon="16.979304524986105"><ele>95.0</ele><time>2026-04-08T07:46:25Z</time></trkpt><trkpt lat="51.42560121552835" lon="16.979373083821294"><ele>95.0</ele><time>2026-04-08T07:46:27Z</time></trkpt><trkpt lat="51.425672871506656" lon="16.9791424055497"><ele>95.0</ele><time>2026-04-08T07:46:28Z</time></trkpt><trkpt lat="51.42569867732105" lon="16.979016697223017"><ele>95.0</ele><time>2026-04-08T07:46:29Z</time></trkpt><trkpt lat="51.42573108242726" lon="16.978873140033087"><ele>95.0</ele><time>2026-04-08T07:46:30Z</time></trkpt><trkpt lat="51.425766605363044" lon="16.978707226073414"><ele>94.75</ele><time>2026-04-08T07:46:31Z</time></trkpt><trkpt lat="51.42580674638637" lon="16.97852563394726"><ele>94.5</ele><time>2026-04-08T07:46:32Z</time></trkpt><trkpt lat="51.42586121723656" lon="16.97834583121562"><ele>94.25</ele><time>2026-04-08T07:46:33Z</time></trkpt><trkpt lat="51.42591439267247" lon="16.978148331361705"><ele>94.0</ele><time>2026-04-08T07:46:34Z</time></trkpt><trkpt lat="51.42595054155065" lon="16.97793546273875"><ele>94.0</ele><time>2026-04-08T07:46:35Z</time></trkpt><trkpt lat="51.42600152661633" lon="16.977736436591353"><ele>94.0</ele><time>2026-04-08T07:46:36Z</time></trkpt><trkpt lat="51.426049343048646" lon="16.977550366400795"><ele>94.0</ele><time>2026-04-08T07:46:37Z</time></trkpt><trkpt lat="51.42610152500921" lon="16.977394448490642"><ele>94.0</ele><time>2026-04-08T07:46:38Z</time></trkpt><trkpt lat="51.42612248642288" lon="16.97724407849631"><ele>94.2</ele><time>2026-04-08T07:46:39Z</time></trkpt><trkpt lat="51.42615568938574" lon="16.977114054378763"><ele>94.4</ele><time>2026-04-08T07:46:40Z</time></trkpt><trkpt lat="51.42620656521071" lon="16.97697716624701"><ele>94.6</ele><time>2026-04-08T07:46:41Z</time></trkpt><trkpt lat="51.42623082553509" lon="16.97680503416328"><ele>94.8</ele><time>2026-04-08T07:46:42Z</time></trkpt><trkpt lat="51.426282848702" lon="16.976631612918265"><ele>95.0</ele><time>2026-04-08T07:46:43Z</time></trkpt><trkpt lat="51.42630662031265" lon="16.976457455133648"><ele>95.0</ele><time>2026-04-08T07:46:44Z</time></trkpt><trkpt lat="51.42634058879709" lon="16.97632034932669"><ele>95.0</ele><time>2026-04-08T07:46:45Z</time></trkpt><trkpt lat="51.42636838049277" lon="16.97619561333803"><ele>95.0</ele><time>2026-04-08T07:46:46Z</time></trkpt><trkpt lat="51.42639408048019" lon="16.976083436090537"><ele>95.0</ele><time>2026-04-08T07:46:48Z</time></trkpt><trkpt lat="51.426432004806955" lon="16.975974049637777"><ele>95.0</ele><time>2026-04-08T07:46:55Z</time></trkpt><trkpt lat="51.42645920610684" lon="16.97586558343749"><ele>95.0</ele><time>2026-04-08T07:46:57Z</time></trkpt><trkpt lat="51.426526934447665" lon="16.97600800986328"><ele>95.0</ele><time>2026-04-08T07:46:59Z</time></trkpt><trkpt lat="51.426601844947776" lon="16.976086174485268"><ele>95.0</ele><time>2026-04-08T07:47:00Z</time></trkpt><trkpt lat="51.426682229800846" lon="16.976178203427228"><ele>95.0</ele><time>2026-04-08T07:47:01Z</time></trkpt><trkpt lat="51.42673852437202" lon="16.97630568660944"><ele>95.0</ele><time>2026-04-08T07:47:02Z</time></trkpt><trkpt lat="51.42680170466412" lon="16.976449210107894"><ele>95.0</ele><time>2026-04-08T07:47:03Z</time></trkpt><trkpt lat="51.426866447761675" lon="16.976610278575283"><ele>94.66666666666667</ele><time>2026-04-08T07:47:04Z</time></trkpt><trkpt lat="51.42692475816553" lon="16.97676064433292"><ele>94.33333333333333</ele><time>2026-04-08T07:47:05Z</time></trkpt><trkpt lat="51.42700085922453" lon="16.976934466810096"><ele>94.0</ele><time>2026-04-08T07:47:06Z</time></trkpt><trkpt lat="51.4274744568863" lon="16.97674153701875"><ele>94.0</ele><time>2026-04-08T07:47:07Z</time></trkpt><trkpt lat="51.42759682766084" lon="16.976854323228565"><ele>94.0</ele><time>2026-04-08T07:47:08Z</time></trkpt><trkpt lat="51.42771250313617" lon="16.976949666818598"><ele>94.0</ele><time>2026-04-08T07:47:09Z</time></trkpt><trkpt lat="51.42781807472511" lon="16.977034629646397"><ele>94.0</ele><time>2026-04-08T07:47:10Z</time></trkpt><trkpt lat="51.427939813729196" lon="16.97713801643178"><ele>93.5</ele><time>2026-04-08T07:47:11Z</time></trkpt><trkpt lat="51.42806534219155" lon="16.977253314832367"><ele>93.0</ele><time>2026-04-08T07:47:12Z</time></trkpt><trkpt lat="51.42818882486622" lon="16.977355313426802"><ele>92.5</ele><time>2026-04-08T07:47:13Z</time></trkpt><trkpt lat="51.42830225992942" lon="16.977449335296118"><ele>92.0</ele><time>2026-04-08T07:47:14Z</time></trkpt><trkpt lat="51.42841534388356" lon="16.977544243370648"><ele>92.0</ele><time>2026-04-08T07:47:15Z</time></trkpt><trkpt lat="51.42853002470356" lon="16.977641970514412"><ele>92.0</ele><time>2026-04-08T07:47:16Z</time></trkpt><trkpt lat="51.428647077247675" lon="16.977747979155268"><ele>92.0</ele><time>2026-04-08T07:47:17Z</time></trkpt><trkpt lat="51.42876972826538" lon="16.977855255761625"><ele>92.0</ele><time>2026-04-08T07:47:18Z</time></trkpt><trkpt lat="51.42889584380745" lon="16.977963575526513"><ele>92.0</ele><time>2026-04-08T07:47:19Z</time></trkpt><trkpt lat="51.429026497833426" lon="16.978075861750398"><ele>92.0</ele><time>2026-04-08T07:47:20Z</time></trkpt><trkpt lat="51.42916244269146" lon="16.978196471151257"><ele>92.0</ele><time>2026-04-08T07:47:21Z</time></trkpt><trkpt lat="51.429306128743505" lon="16.978321636667207"><ele>92.0</ele><time>2026-04-08T07:47:22Z</time></trkpt><trkpt lat="51.429455810473826" lon="16.978464691831306"><ele>92.0</ele><time>2026-04-08T07:47:23Z</time></trkpt><trkpt lat="51.42960614111748" lon="16.97859471512012"><ele>92.0</ele><time>2026-04-08T07:47:24Z</time></trkpt><trkpt lat="51.42974634418686" lon="16.97869862562024"><ele>91.75</ele><time>2026-04-08T07:47:25Z</time></trkpt><trkpt lat="51.42987813815728" lon="16.978807922025755"><ele>91.5</ele><time>2026-04-08T07:47:26Z</time></trkpt><trkpt lat="51.43000318200637" lon="16.97891880012707"><ele>91.25</ele><time>2026-04-08T07:47:27Z</time></trkpt><trkpt lat="51.430127846640865" lon="16.979032466225885"><ele>91.0</ele><time>2026-04-08T07:47:28Z</time></trkpt><trkpt lat="51.43025531443777" lon="16.9791442002761"><ele>91.25</ele><time>2026-04-08T07:47:29Z</time></trkpt><trkpt lat="51.43038150362977" lon="16.97923853917311"><ele>91.5</ele><time>2026-04-08T07:47:30Z</time></trkpt><trkpt lat="51.430502431425666" lon="16.97933458059695"><ele>91.75</ele><time>2026-04-08T07:47:31Z</time></trkpt><trkpt lat="51.430611375318676" lon="16.979422420518578"><ele>92.0</ele><time>2026-04-08T07:47:32Z</time></trkpt><trkpt lat="51.43071075256689" lon="16.979514196151044"><ele>92.19999999999999</ele><time>2026-04-08T07:47:33Z</time></trkpt><trkpt lat="51.43079921523635" lon="16.979588565717822"><ele>92.4</ele><time>2026-04-08T07:47:34Z</time></trkpt><trkpt lat="51.43089562738247" lon="16.979643139914284"><ele>92.6</ele><time>2026-04-08T07:47:35Z</time></trkpt><trkpt lat="51.43101520653424" lon="16.9797318441573"><ele>92.80000000000001</ele><time>2026-04-08T07:47:36Z</time></trkpt><trkpt lat="51.43110770505524" lon="16.97976601395801"><ele>93.0</ele><time>2026-04-08T07:47:37Z</time></trkpt><trkpt lat="51.43120320082538" lon="16.97977275151586"><ele>93.0</ele><time>2026-04-08T07:47:38Z</time></trkpt><trkpt lat="51.43130127246857" lon="16.979762481725018"><ele>93.0</ele><time>2026-04-08T07:47:39Z</time></trkpt><trkpt lat="51.43141271276534" lon="16.979785616988522"><ele>93.0</ele><time>2026-04-08T07:47:40Z</time></trkpt><trkpt lat="51.43152634061201" lon="16.979731108997864"><ele>93.0</ele><time>2026-04-08T07:47:41Z</time></trkpt><trkpt lat="51.431643333833456" lon="16.97967056173999"><ele>92.33333333333333</ele><time>2026-04-08T07:47:42Z</time></trkpt><trkpt lat="51.43176802797461" lon="16.979604346596492"><ele>91.66666666666666</ele><time>2026-04-08T07:47:43Z</time></trkpt><trkpt lat="51.43190942592854" lon="16.979527355634872"><ele>91.0</ele><time>2026-04-08T07:47:44Z</time></trkpt><trkpt lat="51.43207077608356" lon="16.979435465628463"><ele>91.0</ele><time>2026-04-08T07:47:45Z</time></trkpt><trkpt lat="51.43222061027284" lon="16.979349877055945"><ele>91.0</ele><time>2026-04-08T07:47:46Z</time></trkpt><trkpt lat="51.43237652444421" lon="16.979259540780863"><ele>91.0</ele><time>2026-04-08T07:47:47Z</time></trkpt><trkpt lat="51.43254324969123" lon="16.979162393381262"><ele>91.0</ele><time>2026-04-08T07:47:48Z</time></trkpt><trkpt lat="51.43270058203498" lon="16.97907065977888"><ele>91.0</ele><time>2026-04-08T07:47:49Z</time></trkpt><trkpt lat="51.43284796148743" lon="16.978986580766247"><ele>91.0</ele><time>2026-04-08T07:47:50Z</time></trkpt><trkpt lat="51.4329727054465" lon="16.978916327494076"><ele>91.0</ele><time>2026-04-08T07:47:51Z</time></trkpt><trkpt lat="51.43307498573865" lon="16.97885939151644"><ele>91.0</ele><time>2026-04-08T07:47:52Z</time></trkpt><trkpt lat="51.43319400525949" lon="16.97879595202358"><ele>91.0</ele><time>2026-04-08T07:47:53Z</time></trkpt><trkpt lat="51.43329682036446" lon="16.978748115533367"><ele>91.0</ele><time>2026-04-08T07:47:54Z</time></trkpt><trkpt lat="51.43339514180998" lon="16.97871159541759"><ele>91.0</ele><time>2026-04-08T07:47:55Z</time></trkpt><trkpt lat="51.43351486411697" lon="16.978706700995748"><ele>91.0</ele><time>2026-04-08T07:47:57Z</time></trkpt><trkpt lat="51.433592624665756" lon="16.978528151554148"><ele>91.0</ele><time>2026-04-08T07:47:58Z</time></trkpt><trkpt lat="51.43370561169337" lon="16.97845604338259"><ele>91.0</ele><time>2026-04-08T07:47:59Z</time></trkpt><trkpt lat="51.43382771780683" lon="16.978365381171578"><ele>91.0</ele><time>2026-04-08T07:48:00Z</time></trkpt><trkpt lat="51.43396375915676" lon="16.978285269699796"><ele>91.0</ele><time>2026-04-08T07:48:01Z</time></trkpt><trkpt lat="51.434111469979186" lon="16.978205769417098"><ele>91.0</ele><time>2026-04-08T07:48:02Z</time></trkpt><trkpt lat="51.43425968252567" lon="16.978122456200516"><ele>91.0</ele><time>2026-04-08T07:48:03Z</time></trkpt><trkpt lat="51.434408391778014" lon="16.97801945311718"><ele>91.0</ele><time>2026-04-08T07:48:04Z</time></trkpt><trkpt lat="51.4345594720975" lon="16.977899385889433"><ele>91.0</ele><time>2026-04-08T07:48:05Z</time></trkpt><trkpt lat="51.43470901515545" lon="16.97776481489957"><ele>91.0</ele><time>2026-04-08T07:48:06Z</time></trkpt><trkpt lat="51.43485481874359" lon="16.977618122394368"><ele>91.33333333333333</ele><time>2026-04-08T07:48:07Z</time></trkpt><trkpt lat="51.43500185040424" lon="16.97746482354695"><ele>91.66666666666667</ele><time>2026-04-08T07:48:08Z</time></trkpt><trkpt lat="51.435148313798315" lon="16.97730771334847"><ele>92.0</ele><time>2026-04-08T07:48:09Z</time></trkpt><trkpt lat="51.43529433982349" lon="16.977148046265405"><ele>92.0</ele><time>2026-04-08T07:48:10Z</time></trkpt><trkpt lat="51.4354402685114" lon="16.976987403372014"><ele>92.0</ele><time>2026-04-08T07:48:11Z</time></trkpt><trkpt lat="51.43556956427911" lon="16.97680594896519"><ele>92.0</ele><time>2026-04-08T07:48:12Z</time></trkpt><trkpt lat="51.43568722174939" lon="16.976569753011667"><ele>91.66666666666667</ele><time>2026-04-08T07:48:13Z</time></trkpt><trkpt lat="51.43579985443864" lon="16.976338585143"><ele>91.33333333333333</ele><time>2026-04-08T07:48:14Z</time></trkpt><trkpt lat="51.435910427048505" lon="16.97611283301336"><ele>91.0</ele><time>2026-04-08T07:48:15Z</time></trkpt><trkpt lat="51.43601744110785" lon="16.975889155001617"><ele>91.0</ele><time>2026-04-08T07:48:16Z</time></trkpt><trkpt lat="51.43613071221436" lon="16.975664218406312"><ele>91.0</ele><time>2026-04-08T07:48:17Z</time></trkpt><trkpt lat="51.436250847127944" lon="16.97545092705936"><ele>91.0</ele><time>2026-04-08T07:48:18Z</time></trkpt><trkpt lat="51.4363738383537" lon="16.975244557743"><ele>91.33333333333333</ele><time>2026-04-08T07:48:19Z</time></trkpt><trkpt lat="51.436499160861196" lon="16.97503448545385"><ele>91.66666666666667</ele><time>2026-04-08T07:48:20Z</time></trkpt><trkpt lat="51.43662590759344" lon="16.97482944458117"><ele>92.0</ele><time>2026-04-08T07:48:21Z</time></trkpt><trkpt lat="51.436753080348716" lon="16.97461986821992"><ele>92.33333333333334</ele><time>2026-04-08T07:48:22Z</time></trkpt><trkpt lat="51.436877122038354" lon="16.97440872143208"><ele>92.66666666666667</ele><time>2026-04-08T07:48:23Z</time></trkpt><trkpt lat="51.43700143397825" lon="16.974204103778327"><ele>93.0</ele><time>2026-04-08T07:48:24Z</time></trkpt><trkpt lat="51.43711623941492" lon="16.97401852748507"><ele>93.33333333333333</ele><time>2026-04-08T07:48:25Z</time></trkpt><trkpt lat="51.437222650655364" lon="16.973849491693823"><ele>93.66666666666666</ele><time>2026-04-08T07:48:26Z</time></trkpt><trkpt lat="51.43732550893204" lon="16.973674062788366"><ele>94.0</ele><time>2026-04-08T07:48:27Z</time></trkpt><trkpt lat="51.43742959880344" lon="16.973473152111215"><ele>94.33333333333333</ele><time>2026-04-08T07:48:28Z</time></trkpt><trkpt lat="51.437527478254566" lon="16.973242361687806"><ele>94.66666666666667</ele><time>2026-04-08T07:48:29Z</time></trkpt><trkpt lat="51.43761393871848" lon="16.973008875497065"><ele>95.0</ele><time>2026-04-08T07:48:30Z</time></trkpt><trkpt lat="51.4376984325958" lon="16.972778913075334"><ele>95.0</ele><time>2026-04-08T07:48:31Z</time></trkpt><trkpt lat="51.437783751545915" lon="16.972572075037593"><ele>95.0</ele><time>2026-04-08T07:48:32Z</time></trkpt><trkpt lat="51.43787186614585" lon="16.972353972897658"><ele>95.0</ele><time>2026-04-08T07:48:33Z</time></trkpt><trkpt lat="51.43796605060248" lon="16.97211343248059"><ele>95.33333333333334</ele><time>2026-04-08T07:48:34Z</time></trkpt><trkpt lat="51.438050684828404" lon="16.971861565910103"><ele>95.66666666666667</ele><time>2026-04-08T07:48:35Z</time></trkpt><trkpt lat="51.43813308289998" lon="16.971612320985997"><ele>96.0</ele><time>2026-04-08T07:48:36Z</time></trkpt><trkpt lat="51.43820961240669" lon="16.971394384639353"><ele>96.0</ele><time>2026-04-08T07:48:37Z</time></trkpt><trkpt lat="51.43830124876117" lon="16.97120246355558"><ele>96.0</ele><time>2026-04-08T07:48:38Z</time></trkpt><trkpt lat="51.43841016822758" lon="16.97102433329052"><ele>96.0</ele><time>2026-04-08T07:48:39Z</time></trkpt><trkpt lat="51.43852965506474" lon="16.970877901792026"><ele>96.0</ele><time>2026-04-08T07:48:40Z</time></trkpt><trkpt lat="51.438650001176605" lon="16.97074564234992"><ele>96.0</ele><time>2026-04-08T07:48:41Z</time></trkpt><trkpt lat="51.43876929518557" lon="16.970618210882826"><ele>96.0</ele><time>2026-04-08T07:48:42Z</time></trkpt><trkpt lat="51.43887875684374" lon="16.970486385373267"><ele>96.0</ele><time>2026-04-08T07:48:43Z</time></trkpt><trkpt lat="51.43898464525911" lon="16.9703493249607"><ele>96.0</ele><time>2026-04-08T07:48:44Z</time></trkpt><trkpt lat="51.43909025216411" lon="16.97022052215796"><ele>96.0</ele><time>2026-04-08T07:48:45Z</time></trkpt><trkpt lat="51.43919592273688" lon="16.970081740323923"><ele>96.0</ele><time>2026-04-08T07:48:46Z</time></trkpt><trkpt lat="51.439306994476844" lon="16.969950843478863"><ele>96.0</ele><time>2026-04-08T07:48:47Z</time></trkpt><trkpt lat="51.43942076542361" lon="16.969809924528313"><ele>96.0</ele><time>2026-04-08T07:48:48Z</time></trkpt><trkpt lat="51.43953585387276" lon="16.969662091438078"><ele>96.0</ele><time>2026-04-08T07:48:49Z</time></trkpt><trkpt lat="51.43964957055674" lon="16.969511404799434"><ele>96.0</ele><time>2026-04-08T07:48:50Z</time></trkpt><trkpt lat="51.43976587897375" lon="16.969376282544857"><ele>96.0</ele><time>2026-04-08T07:48:51Z</time></trkpt><trkpt lat="51.439879639243465" lon="16.969241888032876"><ele>96.25</ele><time>2026-04-08T07:48:52Z</time></trkpt><trkpt lat="51.439989863354874" lon="16.969124761094726"><ele>96.5</ele><time>2026-04-08T07:48:53Z</time></trkpt><trkpt lat="51.44010607046114" lon="16.96904038302725"><ele>96.75</ele><time>2026-04-08T07:48:54Z</time></trkpt><trkpt lat="51.44022936445059" lon="16.96901376613003"><ele>97.0</ele><time>2026-04-08T07:48:55Z</time></trkpt><trkpt lat="51.44033450295477" lon="16.968968118826254"><ele>97.00000000000001</ele><time>2026-04-08T07:48:56Z</time></trkpt><trkpt lat="51.440418301726034" lon="16.96894419725646"><ele>97.0</ele><time>2026-04-08T07:48:57Z</time></trkpt><trkpt lat="51.440490707344296" lon="16.968926903348798"><ele>97.0</ele><time>2026-04-08T07:48:58Z</time></trkpt><trkpt lat="51.44055753477182" lon="16.96890654910181"><ele>97.0</ele><time>2026-04-08T07:48:59Z</time></trkpt><trkpt lat="51.44062077103886" lon="16.96887435278339"><ele>97.00000000000001</ele><time>2026-04-08T07:49:00Z</time></trkpt><trkpt lat="51.44073912527024" lon="16.968845064773234"><ele>97.0</ele><time>2026-04-08T07:49:02Z</time></trkpt><trkpt lat="51.44085738111904" lon="16.968807517576124"><ele>97.16666666666667</ele><time>2026-04-08T07:49:04Z</time></trkpt><trkpt lat="51.44092255660062" lon="16.96877262955226"><ele>97.33333333333334</ele><time>2026-04-08T07:49:05Z</time></trkpt><trkpt lat="51.44097858277374" lon="16.96870887952037"><ele>97.5</ele><time>2026-04-08T07:49:06Z</time></trkpt><trkpt lat="51.44102192158194" lon="16.968617715736876"><ele>97.66666666666666</ele><time>2026-04-08T07:49:07Z</time></trkpt><trkpt lat="51.44106006163744" lon="16.96849843009415"><ele>97.83333333333333</ele><time>2026-04-08T07:49:08Z</time></trkpt><trkpt lat="51.44110678875858" lon="16.968356722634265"><ele>98.0</ele><time>2026-04-08T07:49:09Z</time></trkpt><trkpt lat="51.4411635402863" lon="16.968205202877254"><ele>98.0</ele><time>2026-04-08T07:49:10Z</time></trkpt><trkpt lat="51.441225678693456" lon="16.968051416584917"><ele>98.0</ele><time>2026-04-08T07:49:11Z</time></trkpt><trkpt lat="51.44128650730416" lon="16.96790388879315"><ele>98.0</ele><time>2026-04-08T07:49:12Z</time></trkpt><trkpt lat="51.44134072523091" lon="16.967779592794674"><ele>98.0</ele><time>2026-04-08T07:49:13Z</time></trkpt><trkpt lat="51.44139079582038" lon="16.967639976589272"><ele>98.0</ele><time>2026-04-08T07:49:14Z</time></trkpt><trkpt lat="51.44144269192794" lon="16.96750539254181"><ele>97.99999999999999</ele><time>2026-04-08T07:49:15Z</time></trkpt><trkpt lat="51.44149370752558" lon="16.967362586139544"><ele>98.0</ele><time>2026-04-08T07:49:16Z</time></trkpt><trkpt lat="51.441547803616935" lon="16.96723665597862"><ele>98.0</ele><time>2026-04-08T07:49:17Z</time></trkpt><trkpt lat="51.441591890861076" lon="16.967110046012507"><ele>98.0</ele><time>2026-04-08T07:49:18Z</time></trkpt><trkpt lat="51.441638705364035" lon="16.967002439836275"><ele>97.99999999999999</ele><time>2026-04-08T07:49:19Z</time></trkpt><trkpt lat="51.44167538481688" lon="16.96689092204416"><ele>98.0</ele><time>2026-04-08T07:49:20Z</time></trkpt><trkpt lat="51.441712850445704" lon="16.966778893167408"><ele>97.83333333333333</ele><time>2026-04-08T07:49:21Z</time></trkpt><trkpt lat="51.441753124647796" lon="16.966670338509925"><ele>97.66666666666666</ele><time>2026-04-08T07:49:22Z</time></trkpt><trkpt lat="51.44179776921339" lon="16.966554563846323"><ele>97.5</ele><time>2026-04-08T07:49:23Z</time></trkpt><trkpt lat="51.44183336398819" lon="16.966440816301837"><ele>97.33333333333334</ele><time>2026-04-08T07:49:24Z</time></trkpt><trkpt lat="51.441872152421304" lon="16.966331538992932"><ele>97.16666666666667</ele><time>2026-04-08T07:49:25Z</time></trkpt><trkpt lat="51.44191420431315" lon="16.96622971871371"><ele>97.0</ele><time>2026-04-08T07:49:26Z</time></trkpt><trkpt lat="51.44195390477003" lon="16.96612452618313"><ele>97.0</ele><time>2026-04-08T07:49:27Z</time></trkpt><trkpt lat="51.44199215129539" lon="16.966027522015082"><ele>97.0</ele><time>2026-04-08T07:49:28Z</time></trkpt><trkpt lat="51.44204958434104" lon="16.965887672091764"><ele>97.0</ele><time>2026-04-08T07:49:30Z</time></trkpt><trkpt lat="51.44210740492498" lon="16.965739272510675"><ele>97.0</ele><time>2026-04-08T07:49:32Z</time></trkpt><trkpt lat="51.44214018272643" lon="16.965644975442242"><ele>97.0</ele><time>2026-04-08T07:49:34Z</time></trkpt><trkpt lat="51.442197383283485" lon="16.965490856824726"><ele>97.16666666666667</ele><time>2026-04-08T07:49:37Z</time></trkpt><trkpt lat="51.44223196371642" lon="16.965402659400368"><ele>97.33333333333334</ele><time>2026-04-08T07:49:38Z</time></trkpt><trkpt lat="51.44227134116233" lon="16.965322496522752"><ele>97.5</ele><time>2026-04-08T07:49:39Z</time></trkpt><trkpt lat="51.4423983389862" lon="16.965309433309816"><ele>97.66666666666666</ele><time>2026-04-08T07:49:41Z</time></trkpt><trkpt lat="51.44246668113972" lon="16.96532097037744"><ele>97.83333333333333</ele><time>2026-04-08T07:49:42Z</time></trkpt><trkpt lat="51.44255059896718" lon="16.965307934498163"><ele>98.0</ele><time>2026-04-08T07:49:43Z</time></trkpt><trkpt lat="51.442649424282344" lon="16.965340905822863"><ele>98.0</ele><time>2026-04-08T07:49:44Z</time></trkpt><trkpt lat="51.442747527350406" lon="16.965369928983815"><ele>98.0</ele><time>2026-04-08T07:49:45Z</time></trkpt><trkpt lat="51.44283391017662" lon="16.965395782737296"><ele>98.0</ele><time>2026-04-08T07:49:46Z</time></trkpt><trkpt lat="51.442932568831104" lon="16.965387512021554"><ele>98.0</ele><time>2026-04-08T07:49:47Z</time></trkpt><trkpt lat="51.443027780361355" lon="16.96535536325185"><ele>98.0</ele><time>2026-04-08T07:49:48Z</time></trkpt><trkpt lat="51.443122689921125" lon="16.965295198549445"><ele>98.0</ele><time>2026-04-08T07:49:49Z</time></trkpt><trkpt lat="51.44321669278527" lon="16.96524926677456"><ele>98.0</ele><time>2026-04-08T07:49:50Z</time></trkpt><trkpt lat="51.443304650600325" lon="16.96520903999268"><ele>98.0</ele><time>2026-04-08T07:49:51Z</time></trkpt><trkpt lat="51.443393512523315" lon="16.965252789301665"><ele>98.0</ele><time>2026-04-08T07:49:52Z</time></trkpt><trkpt lat="51.44346830164917" lon="16.96532896478748"><ele>98.0</ele><time>2026-04-08T07:49:53Z</time></trkpt><trkpt lat="51.44354072275556" lon="16.965390531936144"><ele>98.0</ele><time>2026-04-08T07:49:54Z</time></trkpt><trkpt lat="51.443615762489095" lon="16.965465136497926"><ele>98.0</ele><time>2026-04-08T07:49:55Z</time></trkpt><trkpt lat="51.44367192764672" lon="16.965560876117607"><ele>98.0</ele><time>2026-04-08T07:49:56Z</time></trkpt><trkpt lat="51.44372477574421" lon="16.965668495697535"><ele>98.0</ele><time>2026-04-08T07:49:57Z</time></trkpt><trkpt lat="51.44390349959523" lon="16.96564069617975"><ele>98.0</ele><time>2026-04-08T07:49:58Z</time></trkpt><trkpt lat="51.44401933283688" lon="16.96572263025921"><ele>97.5</ele><time>2026-04-08T07:49:59Z</time></trkpt><trkpt lat="51.44415241771954" lon="16.965789063753334"><ele>97.0</ele><time>2026-04-08T07:50:00Z</time></trkpt><trkpt lat="51.444286201704834" lon="16.965863780109384"><ele>96.5</ele><time>2026-04-08T07:50:01Z</time></trkpt><trkpt lat="51.44440196130553" lon="16.965918743465977"><ele>96.0</ele><time>2026-04-08T07:50:02Z</time></trkpt><trkpt lat="51.44450558674791" lon="16.965961891173446"><ele>96.0</ele><time>2026-04-08T07:50:03Z</time></trkpt><trkpt lat="51.44460466685129" lon="16.96603303856413"><ele>96.0</ele><time>2026-04-08T07:50:04Z</time></trkpt><trkpt lat="51.444722808740124" lon="16.96609224790135"><ele>96.0</ele><time>2026-04-08T07:50:05Z</time></trkpt><trkpt lat="51.44484200392205" lon="16.966147647685123"><ele>96.0</ele><time>2026-04-08T07:50:06Z</time></trkpt><trkpt lat="51.4449434709345" lon="16.966193301742855"><ele>95.8</ele><time>2026-04-08T07:50:07Z</time></trkpt><trkpt lat="51.445046869956435" lon="16.96624178166463"><ele>95.6</ele><time>2026-04-08T07:50:08Z</time></trkpt><trkpt lat="51.44514565148686" lon="16.96628166546055"><ele>95.4</ele><time>2026-04-08T07:50:09Z</time></trkpt><trkpt lat="51.44522720134682" lon="16.96630182754841"><ele>95.2</ele><time>2026-04-08T07:50:10Z</time></trkpt><trkpt lat="51.4452982026243" lon="16.966272389670493"><ele>95.0</ele><time>2026-04-08T07:50:11Z</time></trkpt><trkpt lat="51.44537204744553" lon="16.96619220632045"><ele>95.0</ele><time>2026-04-08T07:50:12Z</time></trkpt><trkpt lat="51.445441904380004" lon="16.966079677780336"><ele>95.0</ele><time>2026-04-08T07:50:13Z</time></trkpt><trkpt lat="51.44549627404425" lon="16.96592047478589"><ele>95.0</ele><time>2026-04-08T07:50:14Z</time></trkpt><trkpt lat="51.44554359216866" lon="16.96572766772962"><ele>95.0</ele><time>2026-04-08T07:50:15Z</time></trkpt><trkpt lat="51.445610760640825" lon="16.965530491548222"><ele>94.66666666666667</ele><time>2026-04-08T07:50:16Z</time></trkpt><trkpt lat="51.44567238961862" lon="16.96530775753681"><ele>94.33333333333333</ele><time>2026-04-08T07:50:17Z</time></trkpt><trkpt lat="51.44574163775163" lon="16.965073426151477"><ele>94.0</ele><time>2026-04-08T07:50:18Z</time></trkpt><trkpt lat="51.44581487115818" lon="16.964827974651385"><ele>93.66666666666666</ele><time>2026-04-08T07:50:19Z</time></trkpt><trkpt lat="51.44588499153949" lon="16.96457306827181"><ele>93.33333333333333</ele><time>2026-04-08T07:50:20Z</time></trkpt><trkpt lat="51.445961199925996" lon="16.964314832315935"><ele>93.0</ele><time>2026-04-08T07:50:21Z</time></trkpt><trkpt lat="51.44603933710652" lon="16.9640420794388"><ele>92.66666666666667</ele><time>2026-04-08T07:50:22Z</time></trkpt><trkpt lat="51.4461162415112" lon="16.963786582829986"><ele>92.33333333333334</ele><time>2026-04-08T07:50:23Z</time></trkpt><trkpt lat="51.44619555371082" lon="16.963538762784008"><ele>92.0</ele><time>2026-04-08T07:50:24Z</time></trkpt><trkpt lat="51.44626488729004" lon="16.9633132587204"><ele>91.5</ele><time>2026-04-08T07:50:25Z</time></trkpt><trkpt lat="51.44632577266063" lon="16.963088496908327"><ele>91.0</ele><time>2026-04-08T07:50:26Z</time></trkpt><trkpt lat="51.44637485687681" lon="16.962865683633186"><ele>90.5</ele><time>2026-04-08T07:50:27Z</time></trkpt><trkpt lat="51.44642010483083" lon="16.962667011370957"><ele>90.0</ele><time>2026-04-08T07:50:28Z</time></trkpt><trkpt lat="51.446449028057316" lon="16.96246856705371"><ele>90.0</ele><time>2026-04-08T07:50:29Z</time></trkpt><trkpt lat="51.44647036053496" lon="16.96226012335788"><ele>90.0</ele><time>2026-04-08T07:50:30Z</time></trkpt><trkpt lat="51.44648333382147" lon="16.96206045656885"><ele>90.0</ele><time>2026-04-08T07:50:31Z</time></trkpt><trkpt lat="51.44649027969163" lon="16.961880149781006"><ele>90.0</ele><time>2026-04-08T07:50:32Z</time></trkpt><trkpt lat="51.446502059061636" lon="16.961724641331763"><ele>90.2</ele><time>2026-04-08T07:50:33Z</time></trkpt><trkpt lat="51.44651229818436" lon="16.961589718000884"><ele>90.4</ele><time>2026-04-08T07:50:34Z</time></trkpt><trkpt lat="51.44651788382181" lon="16.961474604114954"><ele>90.6</ele><time>2026-04-08T07:50:35Z</time></trkpt><trkpt lat="51.44652689764131" lon="16.96135704968719"><ele>90.8</ele><time>2026-04-08T07:50:36Z</time></trkpt><trkpt lat="51.446663252956206" lon="16.961283684532383"><ele>91.0</ele><time>2026-04-08T07:50:38Z</time></trkpt><trkpt lat="51.446749840820566" lon="16.961244028071576"><ele>91.0</ele><time>2026-04-08T07:50:39Z</time></trkpt><trkpt lat="51.446859065061865" lon="16.961218367771707"><ele>91.0</ele><time>2026-04-08T07:50:40Z</time></trkpt><trkpt lat="51.44698351831627" lon="16.9611916593979"><ele>91.0</ele><time>2026-04-08T07:50:41Z</time></trkpt><trkpt lat="51.4471148239536" lon="16.961172087511628"><ele>91.0</ele><time>2026-04-08T07:50:42Z</time></trkpt><trkpt lat="51.4472546378716" lon="16.96121091702742"><ele>90.66666666666666</ele><time>2026-04-08T07:50:43Z</time></trkpt><trkpt lat="51.44740958887879" lon="16.961213601930105"><ele>90.33333333333333</ele><time>2026-04-08T07:50:44Z</time></trkpt><trkpt lat="51.44757275701558" lon="16.961255469273706"><ele>90.0</ele><time>2026-04-08T07:50:45Z</time></trkpt><trkpt lat="51.4477396505141" lon="16.96132069451678"><ele>90.0</ele><time>2026-04-08T07:50:46Z</time></trkpt><trkpt lat="51.44790830934331" lon="16.96130849976112"><ele>90.0</ele><time>2026-04-08T07:50:47Z</time></trkpt><trkpt lat="51.4480542865169" lon="16.96126682796644"><ele>90.0</ele><time>2026-04-08T07:50:48Z</time></trkpt><trkpt lat="51.44820418805404" lon="16.961193266103848"><ele>90.0</ele><time>2026-04-08T07:50:49Z</time></trkpt><trkpt lat="51.448354347794655" lon="16.961082454670034"><ele>90.0</ele><time>2026-04-08T07:50:50Z</time></trkpt><trkpt lat="51.448507377597515" lon="16.960967712577865"><ele>90.0</ele><time>2026-04-08T07:50:51Z</time></trkpt><trkpt lat="51.448672233835836" lon="16.960851218672158"><ele>89.66666666666667</ele><time>2026-04-08T07:50:52Z</time></trkpt><trkpt lat="51.44884196522723" lon="16.960735390902826"><ele>89.33333333333334</ele><time>2026-04-08T07:50:53Z</time></trkpt><trkpt lat="51.44901249081901" lon="16.960619830126742"><ele>89.0</ele><time>2026-04-08T07:50:54Z</time></trkpt><trkpt lat="51.449186194539266" lon="16.960503013744333"><ele>89.0</ele><time>2026-04-08T07:50:55Z</time></trkpt><trkpt lat="51.449353114982834" lon="16.960385193388245"><ele>89.0</ele><time>2026-04-08T07:50:56Z</time></trkpt><trkpt lat="51.449503771532044" lon="16.960287333688093"><ele>89.0</ele><time>2026-04-08T07:50:57Z</time></trkpt><trkpt lat="51.44965542122623" lon="16.960188153032107"><ele>89.0</ele><time>2026-04-08T07:50:58Z</time></trkpt><trkpt lat="51.449800572777434" lon="16.9600989775305"><ele>89.0</ele><time>2026-04-08T07:50:59Z</time></trkpt><trkpt lat="51.449930288077915" lon="16.96001660263016"><ele>89.0</ele><time>2026-04-08T07:51:00Z</time></trkpt><trkpt lat="51.45004662061948" lon="16.95992672217671"><ele>89.0</ele><time>2026-04-08T07:51:01Z</time></trkpt><trkpt lat="51.4501566906478" lon="16.959831830229476"><ele>89.0</ele><time>2026-04-08T07:51:02Z</time></trkpt><trkpt lat="51.45026686169921" lon="16.95972778825159"><ele>89.0</ele><time>2026-04-08T07:51:03Z</time></trkpt><trkpt lat="51.45036695750761" lon="16.959611806834758"><ele>89.0</ele><time>2026-04-08T07:51:04Z</time></trkpt><trkpt lat="51.4504662592261" lon="16.959481585312805"><ele>89.0</ele><time>2026-04-08T07:51:05Z</time></trkpt><trkpt lat="51.450560430190926" lon="16.959337125385556"><ele>89.0</ele><time>2026-04-08T07:51:06Z</time></trkpt><trkpt lat="51.45064758957507" lon="16.959158477962486"><ele>89.0</ele><time>2026-04-08T07:51:07Z</time></trkpt><trkpt lat="51.450731950649306" lon="16.9589727325062"><ele>89.0</ele><time>2026-04-08T07:51:08Z</time></trkpt><trkpt lat="51.45081762155695" lon="16.958791804446978"><ele>89.0</ele><time>2026-04-08T07:51:09Z</time></trkpt><trkpt lat="51.45090252024701" lon="16.958607709961672"><ele>89.0</ele><time>2026-04-08T07:51:10Z</time></trkpt><trkpt lat="51.45098088296365" lon="16.958430719572362"><ele>89.0</ele><time>2026-04-08T07:51:11Z</time></trkpt><trkpt lat="51.45105206242741" lon="16.958251619094277"><ele>89.0</ele><time>2026-04-08T07:51:12Z</time></trkpt><trkpt lat="51.45111305814688" lon="16.958078278616647"><ele>89.0</ele><time>2026-04-08T07:51:13Z</time></trkpt><trkpt lat="51.4511740236769" lon="16.95791002252133"><ele>89.2</ele><time>2026-04-08T07:51:14Z</time></trkpt><trkpt lat="51.45122926889034" lon="16.95774259323412"><ele>89.4</ele><time>2026-04-08T07:51:15Z</time></trkpt><trkpt lat="51.451275687731155" lon="16.957583673202592"><ele>89.6</ele><time>2026-04-08T07:51:16Z</time></trkpt><trkpt lat="51.45132451232223" lon="16.957437744010925"><ele>89.8</ele><time>2026-04-08T07:51:17Z</time></trkpt><trkpt lat="51.45136436315827" lon="16.957329285242533"><ele>90.0</ele><time>2026-04-08T07:51:18Z</time></trkpt><trkpt lat="51.45143589957825" lon="16.957197189958034"><ele>90.5</ele><time>2026-04-08T07:51:20Z</time></trkpt><trkpt lat="51.45157481612787" lon="16.957305827450423"><ele>91.0</ele><time>2026-04-08T07:51:22Z</time></trkpt><trkpt lat="51.451664777247956" lon="16.95731723192139"><ele>91.5</ele><time>2026-04-08T07:51:23Z</time></trkpt><trkpt lat="51.45176683622109" lon="16.957326709086747"><ele>92.0</ele><time>2026-04-08T07:51:24Z</time></trkpt><trkpt lat="51.45187667821507" lon="16.95733464946078"><ele>92.0</ele><time>2026-04-08T07:51:25Z</time></trkpt><trkpt lat="51.452016888746144" lon="16.95732989199315"><ele>92.0</ele><time>2026-04-08T07:51:26Z</time></trkpt><trkpt lat="51.45215722724858" lon="16.957328253034966"><ele>92.0</ele><time>2026-04-08T07:51:27Z</time></trkpt><trkpt lat="51.452313489346636" lon="16.957330170998816"><ele>92.0</ele><time>2026-04-08T07:51:28Z</time></trkpt><trkpt lat="51.4524821764886" lon="16.95732515266967"><ele>91.33333333333334</ele><time>2026-04-08T07:51:29Z</time></trkpt><trkpt lat="51.45264851206606" lon="16.957320479495824"><ele>90.66666666666667</ele><time>2026-04-08T07:51:30Z</time></trkpt><trkpt lat="51.45281627326189" lon="16.95732209895952"><ele>90.0</ele><time>2026-04-08T07:51:31Z</time></trkpt><trkpt lat="51.45297010986515" lon="16.95738429336277"><ele>90.0</ele><time>2026-04-08T07:51:32Z</time></trkpt><trkpt lat="51.4531321076167" lon="16.957428790510864"><ele>90.0</ele><time>2026-04-08T07:51:33Z</time></trkpt><trkpt lat="51.453295618153085" lon="16.95747836680952"><ele>90.0</ele><time>2026-04-08T07:51:34Z</time></trkpt><trkpt lat="51.4534531264193" lon="16.957491289183853"><ele>90.0</ele><time>2026-04-08T07:51:35Z</time></trkpt><trkpt lat="51.4535958955537" lon="16.957474385393397"><ele>90.0</ele><time>2026-04-08T07:51:36Z</time></trkpt><trkpt lat="51.45374353287217" lon="16.957429194883147"><ele>90.0</ele><time>2026-04-08T07:51:37Z</time></trkpt><trkpt lat="51.453893117195314" lon="16.957367997554172"><ele>90.0</ele><time>2026-04-08T07:51:38Z</time></trkpt><trkpt lat="51.45404188992747" lon="16.95733033063089"><ele>90.5</ele><time>2026-04-08T07:51:39Z</time></trkpt><trkpt lat="51.454177828812526" lon="16.95729123231112"><ele>91.0</ele><time>2026-04-08T07:51:40Z</time></trkpt><trkpt lat="51.454299493245706" lon="16.957259050425392"><ele>91.5</ele><time>2026-04-08T07:51:41Z</time></trkpt><trkpt lat="51.454411686239546" lon="16.957238942455497"><ele>92.0</ele><time>2026-04-08T07:51:42Z</time></trkpt><trkpt lat="51.45450644469393" lon="16.957194520841888"><ele>92.0</ele><time>2026-04-08T07:51:43Z</time></trkpt><trkpt lat="51.45459236028375" lon="16.95716483469345"><ele>92.0</ele><time>2026-04-08T07:51:44Z</time></trkpt><trkpt lat="51.454657920169005" lon="16.957142630692193"><ele>92.0</ele><time>2026-04-08T07:51:45Z</time></trkpt><trkpt lat="51.454756763067515" lon="16.957036597033444"><ele>92.0</ele><time>2026-04-08T07:51:47Z</time></trkpt><trkpt lat="51.454787332833554" lon="16.95692364125777"><ele>92.0</ele><time>2026-04-08T07:51:48Z</time></trkpt><trkpt lat="51.454784563563074" lon="16.956782763333784"><ele>92.0</ele><time>2026-04-08T07:51:49Z</time></trkpt><trkpt lat="51.45476324636753" lon="16.956627920410618"><ele>91.5</ele><time>2026-04-08T07:51:50Z</time></trkpt><trkpt lat="51.45473575809179" lon="16.95645996784461"><ele>91.0</ele><time>2026-04-08T07:51:51Z</time></trkpt><trkpt lat="51.45470760571352" lon="16.956272613115505"><ele>90.5</ele><time>2026-04-08T07:51:52Z</time></trkpt><trkpt lat="51.45468190627591" lon="16.956071798762192"><ele>90.0</ele><time>2026-04-08T07:51:53Z</time></trkpt><trkpt lat="51.45468382794087" lon="16.95586227291765"><ele>90.0</ele><time>2026-04-08T07:51:54Z</time></trkpt><trkpt lat="51.4546754135403" lon="16.955644667226412"><ele>90.0</ele><time>2026-04-08T07:51:55Z</time></trkpt><trkpt lat="51.454668580315776" lon="16.95540946002014"><ele>90.0</ele><time>2026-04-08T07:51:56Z</time></trkpt><trkpt lat="51.45465845022428" lon="16.955162319692494"><ele>90.0</ele><time>2026-04-08T07:51:57Z</time></trkpt><trkpt lat="51.454641536910394" lon="16.95490962128722"><ele>90.0</ele><time>2026-04-08T07:51:58Z</time></trkpt><trkpt lat="51.45462658637633" lon="16.954643139657254"><ele>90.0</ele><time>2026-04-08T07:51:59Z</time></trkpt><trkpt lat="51.4546081682678" lon="16.95436470216653"><ele>90.0</ele><time>2026-04-08T07:52:00Z</time></trkpt><trkpt lat="51.454597635293055" lon="16.954093390976066"><ele>90.0</ele><time>2026-04-08T07:52:01Z</time></trkpt><trkpt lat="51.45460400871169" lon="16.95382428822755"><ele>90.0</ele><time>2026-04-08T07:52:02Z</time></trkpt><trkpt lat="51.45460980130883" lon="16.95355406493617"><ele>90.0</ele><time>2026-04-08T07:52:03Z</time></trkpt><trkpt lat="51.454625472529976" lon="16.95328026639355"><ele>90.0</ele><time>2026-04-08T07:52:04Z</time></trkpt><trkpt lat="51.45463780355858" lon="16.95300300339529"><ele>90.0</ele><time>2026-04-08T07:52:05Z</time></trkpt><trkpt lat="51.45465695864796" lon="16.95274311895386"><ele>90.0</ele><time>2026-04-08T07:52:06Z</time></trkpt><trkpt lat="51.45466983243921" lon="16.952513933072993"><ele>90.0</ele><time>2026-04-08T07:52:07Z</time></trkpt><trkpt lat="51.45467656082697" lon="16.95230463098065"><ele>90.0</ele><time>2026-04-08T07:52:08Z</time></trkpt><trkpt lat="51.45468033823432" lon="16.952100351686205"><ele>90.0</ele><time>2026-04-08T07:52:09Z</time></trkpt><trkpt lat="51.45468887767146" lon="16.951893213665226"><ele>90.0</ele><time>2026-04-08T07:52:10Z</time></trkpt><trkpt lat="51.45469627320024" lon="16.95167624610446"><ele>90.0</ele><time>2026-04-08T07:52:11Z</time></trkpt><trkpt lat="51.45470490087357" lon="16.951447872251173"><ele>90.0</ele><time>2026-04-08T07:52:12Z</time></trkpt><trkpt lat="51.454711049367816" lon="16.951209844873723"><ele>90.0</ele><time>2026-04-08T07:52:13Z</time></trkpt><trkpt lat="51.45471364156017" lon="16.95097037587414"><ele>90.0</ele><time>2026-04-08T07:52:14Z</time></trkpt><trkpt lat="51.45470678455723" lon="16.950754836895143"><ele>90.0</ele><time>2026-04-08T07:52:15Z</time></trkpt><trkpt lat="51.45469907970609" lon="16.950547521050982"><ele>90.0</ele><time>2026-04-08T07:52:16Z</time></trkpt><trkpt lat="51.45470006093684" lon="16.950344319258804"><ele>90.0</ele><time>2026-04-08T07:52:17Z</time></trkpt><trkpt lat="51.45471540615554" lon="16.950133580351977"><ele>90.0</ele><time>2026-04-08T07:52:18Z</time></trkpt><trkpt lat="51.454757269730344" lon="16.949931182317073"><ele>90.0</ele><time>2026-04-08T07:52:19Z</time></trkpt><trkpt lat="51.4548129315662" lon="16.94973626365192"><ele>90.0</ele><time>2026-04-08T07:52:20Z</time></trkpt><trkpt lat="51.454885159245435" lon="16.949552830323906"><ele>90.0</ele><time>2026-04-08T07:52:21Z</time></trkpt><trkpt lat="51.45496851697353" lon="16.949368033869284"><ele>90.0</ele><time>2026-04-08T07:52:22Z</time></trkpt><trkpt lat="51.45505913189773" lon="16.949170904369684"><ele>90.0</ele><time>2026-04-08T07:52:23Z</time></trkpt><trkpt lat="51.455136536040214" lon="16.9489801247441"><ele>90.0</ele><time>2026-04-08T07:52:24Z</time></trkpt><trkpt lat="51.45520299312403" lon="16.94880321527801"><ele>90.0</ele><time>2026-04-08T07:52:25Z</time></trkpt><trkpt lat="51.455253437274244" lon="16.948598108525925"><ele>90.0</ele><time>2026-04-08T07:52:26Z</time></trkpt><trkpt lat="51.45529936169788" lon="16.948382193662557"><ele>90.0</ele><time>2026-04-08T07:52:27Z</time></trkpt><trkpt lat="51.455349840413106" lon="16.948171621387765"><ele>90.0</ele><time>2026-04-08T07:52:28Z</time></trkpt><trkpt lat="51.45539618594766" lon="16.947972416312528"><ele>90.0</ele><time>2026-04-08T07:52:29Z</time></trkpt><trkpt lat="51.455432564798926" lon="16.947801142836806"><ele>90.0</ele><time>2026-04-08T07:52:30Z</time></trkpt><trkpt lat="51.45547335304154" lon="16.94762036772994"><ele>90.0</ele><time>2026-04-08T07:52:31Z</time></trkpt><trkpt lat="51.45551977018722" lon="16.947453363483024"><ele>90.0</ele><time>2026-04-08T07:52:32Z</time></trkpt><trkpt lat="51.455577704358326" lon="16.94729082131"><ele>90.0</ele><time>2026-04-08T07:52:33Z</time></trkpt><trkpt lat="51.455643429867116" lon="16.947141062606256"><ele>90.0</ele><time>2026-04-08T07:52:34Z</time></trkpt><trkpt lat="51.45572895623502" lon="16.946995442715636"><ele>90.0</ele><time>2026-04-08T07:52:35Z</time></trkpt><trkpt lat="51.45581957226554" lon="16.946838298526643"><ele>90.0</ele><time>2026-04-08T07:52:36Z</time></trkpt><trkpt lat="51.455922893754575" lon="16.94669313091361"><ele>90.0</ele><time>2026-04-08T07:52:37Z</time></trkpt><trkpt lat="51.45603340500194" lon="16.94655557132914"><ele>90.0</ele><time>2026-04-08T07:52:38Z</time></trkpt><trkpt lat="51.456145293954634" lon="16.946426353619756"><ele>90.0</ele><time>2026-04-08T07:52:39Z</time></trkpt><trkpt lat="51.45626464714933" lon="16.946294566722884"><ele>90.0</ele><time>2026-04-08T07:52:40Z</time></trkpt><trkpt lat="51.45638794376949" lon="16.946176983189112"><ele>90.0</ele><time>2026-04-08T07:52:41Z</time></trkpt><trkpt lat="51.45651228196862" lon="16.946085809001286"><ele>90.0</ele><time>2026-04-08T07:52:42Z</time></trkpt><trkpt lat="51.45664168868938" lon="16.946013751359242"><ele>90.0</ele><time>2026-04-08T07:52:43Z</time></trkpt><trkpt lat="51.456776960703806" lon="16.94595216309339"><ele>90.0</ele><time>2026-04-08T07:52:44Z</time></trkpt><trkpt lat="51.45691152000242" lon="16.945886796379416"><ele>90.0</ele><time>2026-04-08T07:52:45Z</time></trkpt><trkpt lat="51.45704440602715" lon="16.945822797774266"><ele>90.0</ele><time>2026-04-08T07:52:46Z</time></trkpt><trkpt lat="51.45717831372404" lon="16.945754633841453"><ele>90.25</ele><time>2026-04-08T07:52:47Z</time></trkpt><trkpt lat="51.4573025776583" lon="16.9456910664622"><ele>90.5</ele><time>2026-04-08T07:52:48Z</time></trkpt><trkpt lat="51.457420702819576" lon="16.94564163950917"><ele>90.75</ele><time>2026-04-08T07:52:49Z</time></trkpt><trkpt lat="51.457543111540126" lon="16.945587372521942"><ele>91.0</ele><time>2026-04-08T07:52:50Z</time></trkpt><trkpt lat="51.45767816686092" lon="16.945522562945776"><ele>91.0</ele><time>2026-04-08T07:52:51Z</time></trkpt><trkpt lat="51.45782123102864" lon="16.945452871824134"><ele>91.0</ele><time>2026-04-08T07:52:52Z</time></trkpt><trkpt lat="51.457963849110506" lon="16.945363299406974"><ele>91.0</ele><time>2026-04-08T07:52:53Z</time></trkpt><trkpt lat="51.458112733710536" lon="16.94527781104367"><ele>90.33333333333333</ele><time>2026-04-08T07:52:54Z</time></trkpt><trkpt lat="51.45826180983936" lon="16.945185097545743"><ele>89.66666666666667</ele><time>2026-04-08T07:52:55Z</time></trkpt><trkpt lat="51.45841788125483" lon="16.945083533431458"><ele>89.0</ele><time>2026-04-08T07:52:56Z</time></trkpt><trkpt lat="51.45857804041471" lon="16.944969295264954"><ele>88.66666666666667</ele><time>2026-04-08T07:52:57Z</time></trkpt><trkpt lat="51.45874058739158" lon="16.94484561251419"><ele>88.33333333333333</ele><time>2026-04-08T07:52:58Z</time></trkpt><trkpt lat="51.4589017150057" lon="16.944722816755906"><ele>88.0</ele><time>2026-04-08T07:52:59Z</time></trkpt><trkpt lat="51.459063384415664" lon="16.944595711115785"><ele>88.0</ele><time>2026-04-08T07:53:00Z</time></trkpt><trkpt lat="51.45922814994927" lon="16.944460072345947"><ele>88.0</ele><time>2026-04-08T07:53:01Z</time></trkpt><trkpt lat="51.45939718352755" lon="16.944330922631732"><ele>88.0</ele><time>2026-04-08T07:53:02Z</time></trkpt><trkpt lat="51.45956922061989" lon="16.94422122776173"><ele>89.0</ele><time>2026-04-08T07:53:03Z</time></trkpt><trkpt lat="51.459743192786604" lon="16.944122248151203"><ele>90.0</ele><time>2026-04-08T07:53:04Z</time></trkpt><trkpt lat="51.459920630140054" lon="16.944029398614603"><ele>91.0</ele><time>2026-04-08T07:53:05Z</time></trkpt><trkpt lat="51.46009821586485" lon="16.943947182805672"><ele>91.0</ele><time>2026-04-08T07:53:06Z</time></trkpt><trkpt lat="51.46027864053267" lon="16.943872396171056"><ele>91.0</ele><time>2026-04-08T07:53:07Z</time></trkpt><trkpt lat="51.46045585363282" lon="16.94379970400562"><ele>91.0</ele><time>2026-04-08T07:53:08Z</time></trkpt><trkpt lat="51.46062434526953" lon="16.943730665536254"><ele>91.0</ele><time>2026-04-08T07:53:09Z</time></trkpt><trkpt lat="51.460791903534755" lon="16.943666511845223"><ele>91.0</ele><time>2026-04-08T07:53:10Z</time></trkpt><trkpt lat="51.46096148247573" lon="16.943602278866944"><ele>91.0</ele><time>2026-04-08T07:53:11Z</time></trkpt><trkpt lat="51.46113548869992" lon="16.94353070842705"><ele>91.0</ele><time>2026-04-08T07:53:12Z</time></trkpt><trkpt lat="51.461312420799516" lon="16.943456895187765"><ele>91.0</ele><time>2026-04-08T07:53:13Z</time></trkpt><trkpt lat="51.46148691889919" lon="16.943374321645383"><ele>91.0</ele><time>2026-04-08T07:53:14Z</time></trkpt><trkpt lat="51.46166363532743" lon="16.943286609521987"><ele>91.33333333333333</ele><time>2026-04-08T07:53:15Z</time></trkpt><trkpt lat="51.461842467150326" lon="16.943194008736484"><ele>91.66666666666667</ele><time>2026-04-08T07:53:16Z</time></trkpt><trkpt lat="51.462022201488885" lon="16.943099928458672"><ele>92.0</ele><time>2026-04-08T07:53:17Z</time></trkpt><trkpt lat="51.462205429031506" lon="16.943001789239542"><ele>92.0</ele><time>2026-04-08T07:53:18Z</time></trkpt><trkpt lat="51.46238930379602" lon="16.942907912847463"><ele>92.0</ele><time>2026-04-08T07:53:19Z</time></trkpt><trkpt lat="51.46257192453006" lon="16.94281656509268"><ele>92.0</ele><time>2026-04-08T07:53:20Z</time></trkpt><trkpt lat="51.46271938387518" lon="16.942761696051168"><ele>92.0</ele><time>2026-04-08T07:53:21Z</time></trkpt><trkpt lat="51.46288203242601" lon="16.942664796848206"><ele>92.0</ele><time>2026-04-08T07:53:22Z</time></trkpt><trkpt lat="51.46304154741466" lon="16.94259536490498"><ele>92.0</ele><time>2026-04-08T07:53:23Z</time></trkpt><trkpt lat="51.46319602780925" lon="16.94252603383975"><ele>92.0</ele><time>2026-04-08T07:53:24Z</time></trkpt><trkpt lat="51.4633549812721" lon="16.94246761565459"><ele>92.0</ele><time>2026-04-08T07:53:25Z</time></trkpt><trkpt lat="51.46351401770355" lon="16.94240376961918"><ele>92.0</ele><time>2026-04-08T07:53:26Z</time></trkpt><trkpt lat="51.463674144403974" lon="16.94234895766807"><ele>92.66666666666667</ele><time>2026-04-08T07:53:27Z</time></trkpt><trkpt lat="51.46383887709374" lon="16.942303782004497"><ele>93.33333333333333</ele><time>2026-04-08T07:53:28Z</time></trkpt><trkpt lat="51.46400922323634" lon="16.94225572274721"><ele>94.0</ele><time>2026-04-08T07:53:29Z</time></trkpt><trkpt lat="51.464177281798264" lon="16.94224342455077"><ele>94.0</ele><time>2026-04-08T07:53:30Z</time></trkpt><trkpt lat="51.46433979770175" lon="16.942188171884485"><ele>94.0</ele><time>2026-04-08T07:53:31Z</time></trkpt><trkpt lat="51.46448530680032" lon="16.942168566884867"><ele>94.0</ele><time>2026-04-08T07:53:32Z</time></trkpt><trkpt lat="51.46461702600524" lon="16.9421551798682"><ele>94.0</ele><time>2026-04-08T07:53:33Z</time></trkpt><trkpt lat="51.464729542190724" lon="16.94215529039441"><ele>93.66666666666666</ele><time>2026-04-08T07:53:34Z</time></trkpt><trkpt lat="51.4648251973634" lon="16.94214498998951"><ele>93.33333333333333</ele><time>2026-04-08T07:53:35Z</time></trkpt><trkpt lat="51.46490714595867" lon="16.942144847870285"><ele>93.0</ele><time>2026-04-08T07:53:36Z</time></trkpt><trkpt lat="51.46498118052701" lon="16.942160678709712"><ele>92.66666666666667</ele><time>2026-04-08T07:53:37Z</time></trkpt><trkpt lat="51.46506037025806" lon="16.94216727109884"><ele>92.33333333333334</ele><time>2026-04-08T07:53:38Z</time></trkpt><trkpt lat="51.46513691970879" lon="16.942174080651693"><ele>92.0</ele><time>2026-04-08T07:53:39Z</time></trkpt><trkpt lat="51.46520639300354" lon="16.942170450102807"><ele>92.0</ele><time>2026-04-08T07:53:40Z</time></trkpt><trkpt lat="51.46527515727417" lon="16.94217035190008"><ele>92.0</ele><time>2026-04-08T07:53:41Z</time></trkpt><trkpt lat="51.465353973377944" lon="16.9421767627185"><ele>92.0</ele><time>2026-04-08T07:53:42Z</time></trkpt><trkpt lat="51.465453130740336" lon="16.942200999984312"><ele>92.0</ele><time>2026-04-08T07:53:44Z</time></trkpt><trkpt lat="51.46553623115856" lon="16.94218208624548"><ele>92.0</ele><time>2026-04-08T07:53:46Z</time></trkpt><trkpt lat="51.4655555457946" lon="16.942015272882916"><ele>92.0</ele><time>2026-04-08T07:53:47Z</time></trkpt><trkpt lat="51.46556324131666" lon="16.941882963817662"><ele>91.25</ele><time>2026-04-08T07:53:48Z</time></trkpt><trkpt lat="51.46559697908237" lon="16.94172460585195"><ele>90.5</ele><time>2026-04-08T07:53:49Z</time></trkpt><trkpt lat="51.465632494413086" lon="16.941533766278873"><ele>89.75</ele><time>2026-04-08T07:53:50Z</time></trkpt><trkpt lat="51.46567094241075" lon="16.941326359647896"><ele>89.0</ele><time>2026-04-08T07:53:51Z</time></trkpt><trkpt lat="51.46570251349008" lon="16.941096820300466"><ele>89.66666666666667</ele><time>2026-04-08T07:53:52Z</time></trkpt><trkpt lat="51.46574240708201" lon="16.940858735654068"><ele>90.33333333333333</ele><time>2026-04-08T07:53:53Z</time></trkpt><trkpt lat="51.46579283397221" lon="16.94060888666449"><ele>91.0</ele><time>2026-04-08T07:53:54Z</time></trkpt><trkpt lat="51.465838565687505" lon="16.940350128040453"><ele>91.0</ele><time>2026-04-08T07:53:55Z</time></trkpt><trkpt lat="51.46588826831261" lon="16.94008161763286"><ele>91.0</ele><time>2026-04-08T07:53:56Z</time></trkpt><trkpt lat="51.465937989051696" lon="16.939808158269763"><ele>91.0</ele><time>2026-04-08T07:53:57Z</time></trkpt><trkpt lat="51.46598644868813" lon="16.93952294377666"><ele>91.0</ele><time>2026-04-08T07:53:58Z</time></trkpt><trkpt lat="51.46603770203145" lon="16.93924695958115"><ele>91.0</ele><time>2026-04-08T07:53:59Z</time></trkpt><trkpt lat="51.46608479280177" lon="16.93897676867272"><ele>91.0</ele><time>2026-04-08T07:54:00Z</time></trkpt><trkpt lat="51.46613474797062" lon="16.93869953173713"><ele>91.0</ele><time>2026-04-08T07:54:01Z</time></trkpt><trkpt lat="51.46618231938303" lon="16.938414480441615"><ele>91.0</ele><time>2026-04-08T07:54:02Z</time></trkpt><trkpt lat="51.466226941926415" lon="16.93811936135299"><ele>91.0</ele><time>2026-04-08T07:54:03Z</time></trkpt><trkpt lat="51.46627729298311" lon="16.9378272839607"><ele>90.33333333333333</ele><time>2026-04-08T07:54:04Z</time></trkpt><trkpt lat="51.466321800673455" lon="16.937548536819428"><ele>89.66666666666667</ele><time>2026-04-08T07:54:05Z</time></trkpt><trkpt lat="51.46636857054409" lon="16.93729694529057"><ele>89.0</ele><time>2026-04-08T07:54:06Z</time></trkpt><trkpt lat="51.466417652017704" lon="16.937057212181177"><ele>89.0</ele><time>2026-04-08T07:54:07Z</time></trkpt><trkpt lat="51.46645986328805" lon="16.93681370255472"><ele>89.0</ele><time>2026-04-08T07:54:08Z</time></trkpt><trkpt lat="51.466503783646615" lon="16.93657456323481"><ele>89.0</ele><time>2026-04-08T07:54:09Z</time></trkpt><trkpt lat="51.46654963953507" lon="16.936327673614795"><ele>89.33333333333334</ele><time>2026-04-08T07:54:10Z</time></trkpt><trkpt lat="51.46659577822151" lon="16.936070405733258"><ele>89.66666666666667</ele><time>2026-04-08T07:54:11Z</time></trkpt><trkpt lat="51.46663920101792" lon="16.935800590309896"><ele>90.0</ele><time>2026-04-08T07:54:12Z</time></trkpt><trkpt lat="51.46668372102928" lon="16.935544077771876"><ele>90.25</ele><time>2026-04-08T07:54:13Z</time></trkpt><trkpt lat="51.46672232818604" lon="16.935309626514275"><ele>90.5</ele><time>2026-04-08T07:54:14Z</time></trkpt><trkpt lat="51.46676129276737" lon="16.935091269468618"><ele>90.75</ele><time>2026-04-08T07:54:15Z</time></trkpt><trkpt lat="51.46680465465978" lon="16.93486582603951"><ele>91.0</ele><time>2026-04-08T07:54:16Z</time></trkpt><trkpt lat="51.46685774478956" lon="16.934650529634506"><ele>91.0</ele><time>2026-04-08T07:54:17Z</time></trkpt><trkpt lat="51.46692463122111" lon="16.934435553857732"><ele>91.0</ele><time>2026-04-08T07:54:18Z</time></trkpt><trkpt lat="51.467000889327274" lon="16.93420898667524"><ele>91.0</ele><time>2026-04-08T07:54:19Z</time></trkpt><trkpt lat="51.46707850036114" lon="16.93397330049063"><ele>90.66666666666666</ele><time>2026-04-08T07:54:20Z</time></trkpt><trkpt lat="51.467160836860714" lon="16.933730489078602"><ele>90.33333333333333</ele><time>2026-04-08T07:54:21Z</time></trkpt><trkpt lat="51.46724265704911" lon="16.93348033999756"><ele>90.0</ele><time>2026-04-08T07:54:22Z</time></trkpt><trkpt lat="51.46731710985735" lon="16.933229890874518"><ele>90.0</ele><time>2026-04-08T07:54:23Z</time></trkpt><trkpt lat="51.46738662379033" lon="16.93297354836146"><ele>90.0</ele><time>2026-04-08T07:54:24Z</time></trkpt><trkpt lat="51.46745443859364" lon="16.932711578250892"><ele>90.0</ele><time>2026-04-08T07:54:25Z</time></trkpt><trkpt lat="51.4675226322143" lon="16.932457387312116"><ele>90.33333333333333</ele><time>2026-04-08T07:54:26Z</time></trkpt><trkpt lat="51.467596916315316" lon="16.93222374105047"><ele>90.66666666666666</ele><time>2026-04-08T07:54:27Z</time></trkpt><trkpt lat="51.467663328790046" lon="16.931986861713874"><ele>91.0</ele><time>2026-04-08T07:54:28Z</time></trkpt><trkpt lat="51.46773429333016" lon="16.931766646339653"><ele>91.0</ele><time>2026-04-08T07:54:29Z</time></trkpt><trkpt lat="51.46780642553993" lon="16.9315454418459"><ele>91.0</ele><time>2026-04-08T07:54:30Z</time></trkpt><trkpt lat="51.46787964063025" lon="16.931316382409097"><ele>91.0</ele><time>2026-04-08T07:54:31Z</time></trkpt><trkpt lat="51.46796022459986" lon="16.931090544343903"><ele>90.33333333333333</ele><time>2026-04-08T07:54:32Z</time></trkpt><trkpt lat="51.468065707704014" lon="16.93089222333297"><ele>89.66666666666667</ele><time>2026-04-08T07:54:33Z</time></trkpt><trkpt lat="51.468170353343815" lon="16.93069449096298"><ele>89.0</ele><time>2026-04-08T07:54:34Z</time></trkpt><trkpt lat="51.468268178892075" lon="16.93048197851311"><ele>89.0</ele><time>2026-04-08T07:54:35Z</time></trkpt><trkpt lat="51.46835582217738" lon="16.93028206291507"><ele>89.0</ele><time>2026-04-08T07:54:36Z</time></trkpt><trkpt lat="51.468436349324776" lon="16.930100805204702"><ele>89.0</ele><time>2026-04-08T07:54:37Z</time></trkpt><trkpt lat="51.46848288121965" lon="16.92989331970402"><ele>89.0</ele><time>2026-04-08T07:54:38Z</time></trkpt><trkpt lat="51.468484087484825" lon="16.929653897693413"><ele>89.33333333333334</ele><time>2026-04-08T07:54:39Z</time></trkpt><trkpt lat="51.46847539960068" lon="16.929425973530854"><ele>89.66666666666667</ele><time>2026-04-08T07:54:40Z</time></trkpt><trkpt lat="51.46845171208849" lon="16.929174693354824"><ele>90.0</ele><time>2026-04-08T07:54:41Z</time></trkpt><trkpt lat="51.46843472718767" lon="16.92891708722779"><ele>90.0</ele><time>2026-04-08T07:54:42Z</time></trkpt><trkpt lat="51.46843336822766" lon="16.928639340568875"><ele>90.0</ele><time>2026-04-08T07:54:43Z</time></trkpt><trkpt lat="51.46845866146775" lon="16.928333102113804"><ele>90.0</ele><time>2026-04-08T07:54:44Z</time></trkpt><trkpt lat="51.46851520352684" lon="16.928011328776805"><ele>89.66666666666667</ele><time>2026-04-08T07:54:45Z</time></trkpt><trkpt lat="51.46856412563849" lon="16.927663233999063"><ele>89.33333333333334</ele><time>2026-04-08T07:54:46Z</time></trkpt><trkpt lat="51.468611952720536" lon="16.92732908585056"><ele>89.0</ele><time>2026-04-08T07:54:47Z</time></trkpt><trkpt lat="51.46866386141628" lon="16.927026916987085"><ele>89.0</ele><time>2026-04-08T07:54:48Z</time></trkpt><trkpt lat="51.468688646862994" lon="16.92673482101657"><ele>89.0</ele><time>2026-04-08T07:54:49Z</time></trkpt><trkpt lat="51.468722744946" lon="16.926469928763286"><ele>89.0</ele><time>2026-04-08T07:54:50Z</time></trkpt><trkpt lat="51.46876789851684" lon="16.92611877141975"><ele>88.0</ele><time>2026-04-08T07:54:51Z</time></trkpt><trkpt lat="51.468800495413205" lon="16.92574455897321"><ele>87.0</ele><time>2026-04-08T07:54:53Z</time></trkpt><trkpt lat="51.46884166167857" lon="16.925435881663493"><ele>86.0</ele><time>2026-04-08T07:54:54Z</time></trkpt><trkpt lat="51.46887823087002" lon="16.925125446796766"><ele>86.33333333333334</ele><time>2026-04-08T07:54:55Z</time></trkpt><trkpt lat="51.4689133792489" lon="16.924817868533445"><ele>86.66666666666667</ele><time>2026-04-08T07:54:56Z</time></trkpt><trkpt lat="51.468954569766524" lon="16.924515703974485"><ele>87.0</ele><time>2026-04-08T07:54:57Z</time></trkpt><trkpt lat="51.46899805812953" lon="16.92421901971911"><ele>87.33333333333333</ele><time>2026-04-08T07:54:58Z</time></trkpt><trkpt lat="51.46903758485282" lon="16.923925301495224"><ele>87.66666666666666</ele><time>2026-04-08T07:54:59Z</time></trkpt><trkpt lat="51.46906880627396" lon="16.923619018177696"><ele>88.0</ele><time>2026-04-08T07:55:00Z</time></trkpt><trkpt lat="51.46910452181073" lon="16.92331398063024"><ele>88.0</ele><time>2026-04-08T07:55:01Z</time></trkpt><trkpt lat="51.469137362884794" lon="16.923000569713047"><ele>88.0</ele><time>2026-04-08T07:55:02Z</time></trkpt><trkpt lat="51.469173030993936" lon="16.92269182684188"><ele>88.0</ele><time>2026-04-08T07:55:03Z</time></trkpt><trkpt lat="51.469208726583496" lon="16.9223846429363"><ele>88.0</ele><time>2026-04-08T07:55:04Z</time></trkpt><trkpt lat="51.46925157059621" lon="16.922069606644957"><ele>88.0</ele><time>2026-04-08T07:55:05Z</time></trkpt><trkpt lat="51.46928439832196" lon="16.92176599603777"><ele>88.0</ele><time>2026-04-08T07:55:06Z</time></trkpt><trkpt lat="51.46932059006814" lon="16.92146809269408"><ele>88.0</ele><time>2026-04-08T07:55:07Z</time></trkpt><trkpt lat="51.46935649279976" lon="16.921173103563227"><ele>88.0</ele><time>2026-04-08T07:55:08Z</time></trkpt><trkpt lat="51.46939454874738" lon="16.9208740079873"><ele>88.0</ele><time>2026-04-08T07:55:09Z</time></trkpt><trkpt lat="51.469430096077055" lon="16.920577382174493"><ele>87.66666666666666</ele><time>2026-04-08T07:55:10Z</time></trkpt><trkpt lat="51.469469432808346" lon="16.920276866612706"><ele>87.33333333333333</ele><time>2026-04-08T07:55:11Z</time></trkpt><trkpt lat="51.4695092073741" lon="16.919973453321163"><ele>87.0</ele><time>2026-04-08T07:55:12Z</time></trkpt><trkpt lat="51.469549737856575" lon="16.91968150143571"><ele>87.0</ele><time>2026-04-08T07:55:13Z</time></trkpt><trkpt lat="51.469590108357046" lon="16.919390657118875"><ele>87.0</ele><time>2026-04-08T07:55:14Z</time></trkpt><trkpt lat="51.46962392466584" lon="16.91910002677463"><ele>87.0</ele><time>2026-04-08T07:55:15Z</time></trkpt><trkpt lat="51.469660653313774" lon="16.918800849589772"><ele>87.33333333333333</ele><time>2026-04-08T07:55:16Z</time></trkpt><trkpt lat="51.46969661376088" lon="16.918503429788736"><ele>87.66666666666666</ele><time>2026-04-08T07:55:17Z</time></trkpt><trkpt lat="51.4697301362607" lon="16.91820249999799"><ele>88.0</ele><time>2026-04-08T07:55:18Z</time></trkpt><trkpt lat="51.469769673337794" lon="16.91790055658068"><ele>88.33333333333333</ele><time>2026-04-08T07:55:19Z</time></trkpt><trkpt lat="51.46980835138163" lon="16.917599891330198"><ele>88.66666666666667</ele><time>2026-04-08T07:55:20Z</time></trkpt><trkpt lat="51.469845529906195" lon="16.917299248543166"><ele>89.0</ele><time>2026-04-08T07:55:21Z</time></trkpt><trkpt lat="51.46988110259405" lon="16.917022672882535"><ele>89.33333333333334</ele><time>2026-04-08T07:55:22Z</time></trkpt><trkpt lat="51.46994910922585" lon="16.91678192963542"><ele>89.66666666666667</ele><time>2026-04-08T07:55:23Z</time></trkpt><trkpt lat="51.46999760159605" lon="16.916536395133033"><ele>90.0</ele><time>2026-04-08T07:55:24Z</time></trkpt><trkpt lat="51.470085729927135" lon="16.9163342569758"><ele>90.0</ele><time>2026-04-08T07:55:25Z</time></trkpt><trkpt lat="51.470179760152604" lon="16.916126480666172"><ele>90.0</ele><time>2026-04-08T07:55:26Z</time></trkpt><trkpt lat="51.47026110715444" lon="16.915953316489315"><ele>90.0</ele><time>2026-04-08T07:55:27Z</time></trkpt><trkpt lat="51.47030781223688" lon="16.91582934056244"><ele>90.0</ele><time>2026-04-08T07:55:28Z</time></trkpt><trkpt lat="51.470332284812976" lon="16.915667618528143"><ele>90.0</ele><time>2026-04-08T07:55:30Z</time></trkpt><trkpt lat="51.470357258836685" lon="16.91549598056361"><ele>90.0</ele><time>2026-04-08T07:55:35Z</time></trkpt><trkpt lat="51.4703798600829" lon="16.915352781018075"><ele>90.0</ele><time>2026-04-08T07:55:37Z</time></trkpt><trkpt lat="51.47040344362817" lon="16.9152248664974"><ele>90.0</ele><time>2026-04-08T07:55:41Z</time></trkpt><trkpt lat="51.47044674317584" lon="16.91502962530717"><ele>90.0</ele><time>2026-04-08T07:55:49Z</time></trkpt><trkpt lat="51.47046483672431" lon="16.914848541889945"><ele>89.75</ele><time>2026-04-08T07:55:50Z</time></trkpt><trkpt lat="51.470492224592434" lon="16.914645642531216"><ele>89.5</ele><time>2026-04-08T07:55:51Z</time></trkpt><trkpt lat="51.47051795874603" lon="16.914435589598437"><ele>89.25</ele><time>2026-04-08T07:55:52Z</time></trkpt><trkpt lat="51.47053495129209" lon="16.914226252291844"><ele>89.0</ele><time>2026-04-08T07:55:53Z</time></trkpt><trkpt lat="51.47053769154628" lon="16.914008892038023"><ele>89.0</ele><time>2026-04-08T07:55:54Z</time></trkpt><trkpt lat="51.47052386491462" lon="16.913772539139277"><ele>89.0</ele><time>2026-04-08T07:55:55Z</time></trkpt><trkpt lat="51.470489332507" lon="16.913538545085153"><ele>89.0</ele><time>2026-04-08T07:55:56Z</time></trkpt><trkpt lat="51.47044092271001" lon="16.913309281863864"><ele>89.0</ele><time>2026-04-08T07:55:57Z</time></trkpt><trkpt lat="51.47036879246023" lon="16.913085317317112"><ele>89.33333333333334</ele><time>2026-04-08T07:55:58Z</time></trkpt><trkpt lat="51.470290718501204" lon="16.912863397185095"><ele>89.66666666666667</ele><time>2026-04-08T07:55:59Z</time></trkpt><trkpt lat="51.470229382754276" lon="16.912639048320308"><ele>90.0</ele><time>2026-04-08T07:56:00Z</time></trkpt><trkpt lat="51.47018329026471" lon="16.912419582866015"><ele>90.0</ele><time>2026-04-08T07:56:01Z</time></trkpt><trkpt lat="51.470157189622334" lon="16.912200161182078"><ele>90.0</ele><time>2026-04-08T07:56:02Z</time></trkpt><trkpt lat="51.47013383152228" lon="16.911974744248514"><ele>90.0</ele><time>2026-04-08T07:56:03Z</time></trkpt><trkpt lat="51.470125091454435" lon="16.911753547056406"><ele>90.0</ele><time>2026-04-08T07:56:04Z</time></trkpt><trkpt lat="51.47012891290978" lon="16.911526503709435"><ele>90.0</ele><time>2026-04-08T07:56:05Z</time></trkpt><trkpt lat="51.47014217756205" lon="16.911314392210546"><ele>90.0</ele><time>2026-04-08T07:56:06Z</time></trkpt><trkpt lat="51.47016109419972" lon="16.911127328495855"><ele>90.0</ele><time>2026-04-08T07:56:07Z</time></trkpt><trkpt lat="51.47020050963998" lon="16.910975804047688"><ele>90.0</ele><time>2026-04-08T07:56:08Z</time></trkpt><trkpt lat="51.470263904185806" lon="16.910850033851005"><ele>90.0</ele><time>2026-04-08T07:56:09Z</time></trkpt><trkpt lat="51.47034378330381" lon="16.91074796688745"><ele>90.0</ele><time>2026-04-08T07:56:10Z</time></trkpt><trkpt lat="51.47043466273052" lon="16.910633355493022"><ele>90.0</ele><time>2026-04-08T07:56:11Z</time></trkpt><trkpt lat="51.470515492001134" lon="16.910509806560693"><ele>90.0</ele><time>2026-04-08T07:56:12Z</time></trkpt><trkpt lat="51.470585960478346" lon="16.91040350578636"><ele>90.0</ele><time>2026-04-08T07:56:13Z</time></trkpt><trkpt lat="51.470638714870866" lon="16.91029492003592"><ele>90.4</ele><time>2026-04-08T07:56:14Z</time></trkpt><trkpt lat="51.470679845498275" lon="16.91020357012512"><ele>90.8</ele><time>2026-04-08T07:56:15Z</time></trkpt><trkpt lat="51.470750649411805" lon="16.910066531848624"><ele>91.19999999999999</ele><time>2026-04-08T07:56:17Z</time></trkpt><trkpt lat="51.47077697919208" lon="16.909881118657285"><ele>91.6</ele><time>2026-04-08T07:56:19Z</time></trkpt><trkpt lat="51.47075915395844" lon="16.909756754630124"><ele>92.0</ele><time>2026-04-08T07:56:20Z</time></trkpt><trkpt lat="51.470773159287916" lon="16.90962279703147"><ele>92.0</ele><time>2026-04-08T07:56:21Z</time></trkpt><trkpt lat="51.47079896905436" lon="16.9094617817386"><ele>92.0</ele><time>2026-04-08T07:56:22Z</time></trkpt><trkpt lat="51.47082176048154" lon="16.90930351930607"><ele>92.0</ele><time>2026-04-08T07:56:23Z</time></trkpt><trkpt lat="51.47084350134497" lon="16.90917274679119"><ele>92.0</ele><time>2026-04-08T07:56:24Z</time></trkpt><trkpt lat="51.47085756462293" lon="16.90906291553453"><ele>92.0</ele><time>2026-04-08T07:56:25Z</time></trkpt><trkpt lat="51.470895666957546" lon="16.908896215510886"><ele>92.5</ele><time>2026-04-08T07:56:27Z</time></trkpt><trkpt lat="51.470924479554604" lon="16.908786848640514"><ele>93.0</ele><time>2026-04-08T07:56:33Z</time></trkpt><trkpt lat="51.470963834960806" lon="16.908641958118107"><ele>93.5</ele><time>2026-04-08T07:56:35Z</time></trkpt><trkpt lat="51.470995601090834" lon="16.908546615336913"><ele>94.0</ele><time>2026-04-08T07:56:37Z</time></trkpt><trkpt lat="51.47102938641318" lon="16.908459825528162"><ele>94.5</ele><time>2026-04-08T07:56:39Z</time></trkpt><trkpt lat="51.471122876559434" lon="16.908406557942794"><ele>95.0</ele><time>2026-04-08T07:56:43Z</time></trkpt><trkpt lat="51.47120805997382" lon="16.908445943440046"><ele>94.83333333333334</ele><time>2026-04-08T07:56:45Z</time></trkpt><trkpt lat="51.471298207560785" lon="16.908464406829495"><ele>94.66666666666667</ele><time>2026-04-08T07:56:48Z</time></trkpt><trkpt lat="51.47136670281701" lon="16.908489034221788"><ele>94.5</ele><time>2026-04-08T07:56:50Z</time></trkpt><trkpt lat="51.47143256754192" lon="16.90848448171314"><ele>94.33333333333333</ele><time>2026-04-08T07:56:52Z</time></trkpt><trkpt lat="51.47155503302853" lon="16.908502694064513"><ele>94.16666666666666</ele><time>2026-04-08T07:56:54Z</time></trkpt><trkpt lat="51.4716185765988" lon="16.90855041453815"><ele>94.0</ele><time>2026-04-08T07:56:55Z</time></trkpt><trkpt lat="51.4717169670371" lon="16.908565093788567"><ele>94.0</ele><time>2026-04-08T07:56:57Z</time></trkpt><trkpt lat="51.47178477961538" lon="16.908597093360967"><ele>94.0</ele><time>2026-04-08T07:56:59Z</time></trkpt><trkpt lat="51.47185217641727" lon="16.908632873706836"><ele>94.0</ele><time>2026-04-08T07:57:01Z</time></trkpt><trkpt lat="51.471953743324804" lon="16.908681693979887"><ele>94.0</ele><time>2026-04-08T07:57:04Z</time></trkpt><trkpt lat="51.47199355011495" lon="16.908520819434443"><ele>94.0</ele><time>2026-04-08T07:57:06Z</time></trkpt><trkpt lat="51.47202867196509" lon="16.908366733715173"><ele>94.2</ele><time>2026-04-08T07:57:10Z</time></trkpt><trkpt lat="51.47204979514982" lon="16.908185790690204"><ele>94.4</ele><time>2026-04-08T07:57:12Z</time></trkpt><trkpt lat="51.47205278727978" lon="16.9080444525885"><ele>94.6</ele><time>2026-04-08T07:57:14Z</time></trkpt><trkpt lat="51.47191089227464" lon="16.90799112707622"><ele>94.8</ele><time>2026-04-08T07:57:16Z</time></trkpt><trkpt lat="51.47184250175386" lon="16.90798491601599"><ele>95.0</ele><time>2026-04-08T07:57:18Z</time></trkpt><trkpt lat="51.47176124630678" lon="16.907949204211285"><ele>95.0</ele><time>2026-04-08T07:57:28Z</time></trkpt><trkpt lat="51.47166680615713" lon="16.90792017355602"><ele>95.0</ele><time>2026-04-08T07:57:30Z</time></trkpt><trkpt lat="51.47159895440504" lon="16.907882808769568"><ele>95.0</ele><time>2026-04-08T07:57:33Z</time></trkpt><trkpt lat="51.47151778079636" lon="16.907846196289583"><ele>95.0</ele><time>2026-04-08T07:57:35Z</time></trkpt><trkpt lat="51.47141574485574" lon="16.907806866789237"><ele>95.0</ele><time>2026-04-08T07:57:37Z</time></trkpt><trkpt lat="51.47129470528535" lon="16.907755136117757"><ele>95.0</ele><time>2026-04-08T07:57:39Z</time></trkpt><trkpt lat="51.4712269512497" lon="16.907724943176994"><ele>95.0</ele><time>2026-04-08T07:57:40Z</time></trkpt><trkpt lat="51.47115858671041" lon="16.907695511194518"><ele>95.0</ele><time>2026-04-08T07:57:41Z</time></trkpt><trkpt lat="51.47109311852973" lon="16.90766577723041"><ele>95.0</ele><time>2026-04-08T07:57:42Z</time></trkpt><trkpt lat="51.47101024344359" lon="16.907633565989535"><ele>95.0</ele><time>2026-04-08T07:57:44Z</time></trkpt><trkpt lat="51.47103689696649" lon="16.907492604688994"><ele>95.0</ele><time>2026-04-08T07:57:46Z</time></trkpt><trkpt lat="51.471059856525976" lon="16.907370877002176"><ele>94.66666666666667</ele><time>2026-04-08T07:57:47Z</time></trkpt><trkpt lat="51.47107961531499" lon="16.907264696433014"><ele>94.33333333333334</ele><time>2026-04-08T07:57:48Z</time></trkpt><trkpt lat="51.471094565465144" lon="16.90713522615865"><ele>94.0</ele><time>2026-04-08T07:57:49Z</time></trkpt><trkpt lat="51.471113320939665" lon="16.90701591891014"><ele>93.66666666666667</ele><time>2026-04-08T07:57:50Z</time></trkpt><trkpt lat="51.47114040628878" lon="16.90691765155335"><ele>93.33333333333333</ele><time>2026-04-08T07:57:51Z</time></trkpt><trkpt lat="51.47116737035095" lon="16.90676440403426"><ele>93.0</ele><time>2026-04-08T07:57:53Z</time></trkpt><trkpt lat="51.47117912926481" lon="16.906611519513064"><ele>92.60000000000001</ele><time>2026-04-08T07:57:59Z</time></trkpt><trkpt lat="51.47112882708705" lon="16.906429038627135"><ele>92.2</ele><time>2026-04-08T07:58:01Z</time></trkpt><trkpt lat="51.471150487740864" lon="16.906319423735262"><ele>91.8</ele><time>2026-04-08T07:58:02Z</time></trkpt><trkpt lat="51.47116886770127" lon="16.906161383493725"><ele>91.4</ele><time>2026-04-08T07:58:03Z</time></trkpt><trkpt lat="51.47120372490127" lon="16.905960567515073"><ele>91.0</ele><time>2026-04-08T07:58:04Z</time></trkpt><trkpt lat="51.471228689422446" lon="16.905745503650746"><ele>90.75</ele><time>2026-04-08T07:58:05Z</time></trkpt><trkpt lat="51.47125698989138" lon="16.90551928215334"><ele>90.5</ele><time>2026-04-08T07:58:06Z</time></trkpt><trkpt lat="51.47131538619261" lon="16.905321437807896"><ele>90.25</ele><time>2026-04-08T07:58:07Z</time></trkpt><trkpt lat="51.471367120704684" lon="16.905123324294355"><ele>90.0</ele><time>2026-04-08T07:58:08Z</time></trkpt><trkpt lat="51.47141725415374" lon="16.904916589751988"><ele>90.0</ele><time>2026-04-08T07:58:09Z</time></trkpt><trkpt lat="51.47149637658218" lon="16.904737869529615"><ele>90.0</ele><time>2026-04-08T07:58:10Z</time></trkpt><trkpt lat="51.47154792261113" lon="16.904562907074734"><ele>90.0</ele><time>2026-04-08T07:58:11Z</time></trkpt><trkpt lat="51.47160528878495" lon="16.904425483752657"><ele>90.0</ele><time>2026-04-08T07:58:12Z</time></trkpt><trkpt lat="51.47166072152289" lon="16.90426447567498"><ele>90.25</ele><time>2026-04-08T07:58:13Z</time></trkpt><trkpt lat="51.47172915790697" lon="16.904117549142956"><ele>90.5</ele><time>2026-04-08T07:58:14Z</time></trkpt><trkpt lat="51.47178420489043" lon="16.903943836344517"><ele>90.75</ele><time>2026-04-08T07:58:15Z</time></trkpt><trkpt lat="51.47184253594305" lon="16.90375511241168"><ele>91.0</ele><time>2026-04-08T07:58:16Z</time></trkpt><trkpt lat="51.47190235845407" lon="16.90356226585448"><ele>91.0</ele><time>2026-04-08T07:58:17Z</time></trkpt><trkpt lat="51.47196885152485" lon="16.903361418566035"><ele>91.0</ele><time>2026-04-08T07:58:18Z</time></trkpt><trkpt lat="51.47203043105588" lon="16.903158083368236"><ele>91.0</ele><time>2026-04-08T07:58:19Z</time></trkpt><trkpt lat="51.47209240487096" lon="16.902982133775986"><ele>91.0</ele><time>2026-04-08T07:58:20Z</time></trkpt><trkpt lat="51.47213678287119" lon="16.902832321898735"><ele>91.0</ele><time>2026-04-08T07:58:21Z</time></trkpt><trkpt lat="51.47217587633153" lon="16.902699418573174"><ele>91.0</ele><time>2026-04-08T07:58:22Z</time></trkpt><trkpt lat="51.47220749696581" lon="16.902588808085664"><ele>91.0</ele><time>2026-04-08T07:58:23Z</time></trkpt><trkpt lat="51.472232946362695" lon="16.902495294311972"><ele>91.0</ele><time>2026-04-08T07:58:24Z</time></trkpt><trkpt lat="51.47226424965478" lon="16.902406042481523"><ele>91.0</ele><time>2026-04-08T07:58:26Z</time></trkpt><trkpt lat="51.47229883466044" lon="16.90230116257762"><ele>91.0</ele><time>2026-04-08T07:58:28Z</time></trkpt><trkpt lat="51.47221075533384" lon="16.902198729233085"><ele>91.0</ele><time>2026-04-08T07:58:29Z</time></trkpt><trkpt lat="51.47215387542601" lon="16.902135256787716"><ele>91.0</ele><time>2026-04-08T07:58:30Z</time></trkpt><trkpt lat="51.47210367505988" lon="16.902069510189012"><ele>91.0</ele><time>2026-04-08T07:58:31Z</time></trkpt><trkpt lat="51.47202894931319" lon="16.901948129520576"><ele>91.0</ele><time>2026-04-08T07:58:33Z</time></trkpt><trkpt lat="51.471972763007244" lon="16.901823105110477"><ele>91.0</ele><time>2026-04-08T08:01:26Z</time></trkpt><trkpt lat="51.47191395574977" lon="16.901660583943713"><ele>90.5</ele><time>2026-04-08T08:01:28Z</time></trkpt><trkpt lat="51.47189064223102" lon="16.901477465604227"><ele>90.0</ele><time>2026-04-08T08:01:30Z</time></trkpt><trkpt lat="51.4718995740384" lon="16.901376650761634"><ele>89.5</ele><time>2026-04-08T08:01:31Z</time></trkpt><trkpt lat="51.47191562319972" lon="16.90125703140841"><ele>89.0</ele><time>2026-04-08T08:01:32Z</time></trkpt><trkpt lat="51.47194397116108" lon="16.901121523217494"><ele>88.5</ele><time>2026-04-08T08:01:33Z</time></trkpt><trkpt lat="51.472002290568085" lon="16.900996111529782"><ele>88.0</ele><time>2026-04-08T08:01:34Z</time></trkpt><trkpt lat="51.472075687462414" lon="16.900880057028463"><ele>88.25</ele><time>2026-04-08T08:01:35Z</time></trkpt><trkpt lat="51.47215928341462" lon="16.900772955436654"><ele>88.5</ele><time>2026-04-08T08:01:36Z</time></trkpt><trkpt lat="51.47225510549706" lon="16.90068615285247"><ele>88.75</ele><time>2026-04-08T08:01:37Z</time></trkpt><trkpt lat="51.47236907800994" lon="16.90061600683674"><ele>89.0</ele><time>2026-04-08T08:01:38Z</time></trkpt><trkpt lat="51.4724994561022" lon="16.900553737224122"><ele>89.0</ele><time>2026-04-08T08:01:39Z</time></trkpt><trkpt lat="51.472624159435924" lon="16.900531694803867"><ele>89.0</ele><time>2026-04-08T08:01:40Z</time></trkpt><trkpt lat="51.47273727506802" lon="16.900586808224066"><ele>89.0</ele><time>2026-04-08T08:01:41Z</time></trkpt><trkpt lat="51.47286175513231" lon="16.900598007725716"><ele>89.0</ele><time>2026-04-08T08:01:42Z</time></trkpt><trkpt lat="51.47299154516295" lon="16.900629334660014"><ele>88.75</ele><time>2026-04-08T08:01:43Z</time></trkpt><trkpt lat="51.4731274368758" lon="16.90066287651991"><ele>88.5</ele><time>2026-04-08T08:01:44Z</time></trkpt><trkpt lat="51.47327177963557" lon="16.90069740671557"><ele>88.25</ele><time>2026-04-08T08:01:45Z</time></trkpt><trkpt lat="51.473419060975075" lon="16.900731821772567"><ele>88.0</ele><time>2026-04-08T08:01:46Z</time></trkpt><trkpt lat="51.473567805124" lon="16.900815759297455"><ele>88.0</ele><time>2026-04-08T08:01:47Z</time></trkpt><trkpt lat="51.47371475434414" lon="16.90086306067845"><ele>88.0</ele><time>2026-04-08T08:01:48Z</time></trkpt><trkpt lat="51.473858510752095" lon="16.900898759570445"><ele>88.0</ele><time>2026-04-08T08:01:49Z</time></trkpt><trkpt lat="51.47399993824023" lon="16.900931931284916"><ele>88.0</ele><time>2026-04-08T08:01:50Z</time></trkpt><trkpt lat="51.47413028456859" lon="16.900962677572192"><ele>88.25</ele><time>2026-04-08T08:01:51Z</time></trkpt><trkpt lat="51.47425037042412" lon="16.90096931550296"><ele>88.5</ele><time>2026-04-08T08:01:52Z</time></trkpt><trkpt lat="51.47436495707057" lon="16.9010215276198"><ele>88.75</ele><time>2026-04-08T08:01:53Z</time></trkpt><trkpt lat="51.474476436672646" lon="16.901056993690485"><ele>89.0</ele><time>2026-04-08T08:01:54Z</time></trkpt><trkpt lat="51.47458020006908" lon="16.901104066289985"><ele>89.0</ele><time>2026-04-08T08:01:55Z</time></trkpt><trkpt lat="51.474681202334416" lon="16.901152276807892"><ele>89.0</ele><time>2026-04-08T08:01:56Z</time></trkpt><trkpt lat="51.47477464326737" lon="16.90118903344087"><ele>89.0</ele><time>2026-04-08T08:01:57Z</time></trkpt><trkpt lat="51.474861337783395" lon="16.901240117466287"><ele>89.0</ele><time>2026-04-08T08:01:58Z</time></trkpt><trkpt lat="51.47494873691914" lon="16.90125105849358"><ele>89.0</ele><time>2026-04-08T08:01:59Z</time></trkpt><trkpt lat="51.47503466015082" lon="16.901181299715237"><ele>89.0</ele><time>2026-04-08T08:02:00Z</time></trkpt><trkpt lat="51.475060046479456" lon="16.901036807688"><ele>89.0</ele><time>2026-04-08T08:02:01Z</time></trkpt><trkpt lat="51.47508512112953" lon="16.90090913794501"><ele>89.0</ele><time>2026-04-08T08:02:02Z</time></trkpt><trkpt lat="51.47511104326319" lon="16.900759682142652"><ele>89.0</ele><time>2026-04-08T08:02:03Z</time></trkpt><trkpt lat="51.475140730600096" lon="16.900579670722518"><ele>89.0</ele><time>2026-04-08T08:02:04Z</time></trkpt><trkpt lat="51.47517580381984" lon="16.90037749396007"><ele>89.0</ele><time>2026-04-08T08:02:05Z</time></trkpt><trkpt lat="51.475206580366255" lon="16.900159755688726"><ele>89.0</ele><time>2026-04-08T08:02:06Z</time></trkpt><trkpt lat="51.47524807927829" lon="16.89992404399271"><ele>89.0</ele><time>2026-04-08T08:02:07Z</time></trkpt><trkpt lat="51.4752921902894" lon="16.899677452658423"><ele>89.0</ele><time>2026-04-08T08:02:08Z</time></trkpt><trkpt lat="51.47533253594809" lon="16.899429372470376"><ele>89.0</ele><time>2026-04-08T08:02:09Z</time></trkpt><trkpt lat="51.475370900217236" lon="16.899180342238147"><ele>89.0</ele><time>2026-04-08T08:02:10Z</time></trkpt><trkpt lat="51.47540707886021" lon="16.898924286850033"><ele>89.0</ele><time>2026-04-08T08:02:11Z</time></trkpt><trkpt lat="51.47543339529711" lon="16.89865550898376"><ele>89.0</ele><time>2026-04-08T08:02:12Z</time></trkpt><trkpt lat="51.47545555286601" lon="16.89840110582794"><ele>89.0</ele><time>2026-04-08T08:02:13Z</time></trkpt><trkpt lat="51.47546270520269" lon="16.898142975149682"><ele>89.0</ele><time>2026-04-08T08:02:14Z</time></trkpt><trkpt lat="51.47546616364422" lon="16.897876747151408"><ele>89.0</ele><time>2026-04-08T08:02:15Z</time></trkpt><trkpt lat="51.47547270216074" lon="16.897624116701117"><ele>89.0</ele><time>2026-04-08T08:02:16Z</time></trkpt><trkpt lat="51.47550150546139" lon="16.89736992331771"><ele>89.0</ele><time>2026-04-08T08:02:17Z</time></trkpt><trkpt lat="51.47551651096904" lon="16.897170976167864"><ele>89.0</ele><time>2026-04-08T08:02:18Z</time></trkpt><trkpt lat="51.475590202534555" lon="16.896977970870715"><ele>89.0</ele><time>2026-04-08T08:02:19Z</time></trkpt><trkpt lat="51.47567557310561" lon="16.896821479931827"><ele>89.0</ele><time>2026-04-08T08:02:20Z</time></trkpt><trkpt lat="51.47575339509737" lon="16.896640675245333"><ele>89.0</ele><time>2026-04-08T08:02:21Z</time></trkpt><trkpt lat="51.475844560428264" lon="16.89645060742986"><ele>89.0</ele><time>2026-04-08T08:02:22Z</time></trkpt><trkpt lat="51.47593303496087" lon="16.89625363058147"><ele>89.0</ele><time>2026-04-08T08:02:23Z</time></trkpt><trkpt lat="51.47598673907888" lon="16.896020356981204"><ele>88.66666666666667</ele><time>2026-04-08T08:02:24Z</time></trkpt><trkpt lat="51.47604397961765" lon="16.895780743286686"><ele>88.33333333333333</ele><time>2026-04-08T08:02:25Z</time></trkpt><trkpt lat="51.47610832544549" lon="16.895538770899115"><ele>88.0</ele><time>2026-04-08T08:02:26Z</time></trkpt><trkpt lat="51.4761713488072" lon="16.89529252550371"><ele>87.66666666666666</ele><time>2026-04-08T08:02:27Z</time></trkpt><trkpt lat="51.47623447248137" lon="16.89503168235042"><ele>87.33333333333333</ele><time>2026-04-08T08:02:28Z</time></trkpt><trkpt lat="51.47629626918099" lon="16.894767486300122"><ele>87.0</ele><time>2026-04-08T08:02:29Z</time></trkpt><trkpt lat="51.47635449675827" lon="16.89450694996713"><ele>87.0</ele><time>2026-04-08T08:02:30Z</time></trkpt><trkpt lat="51.476412115679366" lon="16.894254739122577"><ele>87.0</ele><time>2026-04-08T08:02:31Z</time></trkpt><trkpt lat="51.47647213341891" lon="16.894019333358816"><ele>87.0</ele><time>2026-04-08T08:02:32Z</time></trkpt><trkpt lat="51.47653802801263" lon="16.89381170820406"><ele>87.0</ele><time>2026-04-08T08:02:33Z</time></trkpt><trkpt lat="51.476617611813886" lon="16.89362929135968"><ele>87.0</ele><time>2026-04-08T08:02:34Z</time></trkpt><trkpt lat="51.476707501395765" lon="16.893448562201232"><ele>87.0</ele><time>2026-04-08T08:02:35Z</time></trkpt><trkpt lat="51.47682992322902" lon="16.893302819664186"><ele>87.0</ele><time>2026-04-08T08:02:36Z</time></trkpt><trkpt lat="51.47696195338638" lon="16.89318192194946"><ele>87.33333333333333</ele><time>2026-04-08T08:02:37Z</time></trkpt><trkpt lat="51.477098977467875" lon="16.89307259136176"><ele>87.66666666666666</ele><time>2026-04-08T08:02:38Z</time></trkpt><trkpt lat="51.477244142481645" lon="16.89295994473722"><ele>88.0</ele><time>2026-04-08T08:02:39Z</time></trkpt><trkpt lat="51.47739038801817" lon="16.892849316834447"><ele>88.33333333333333</ele><time>2026-04-08T08:02:40Z</time></trkpt><trkpt lat="51.477545330937104" lon="16.892727238865728"><ele>88.66666666666667</ele><time>2026-04-08T08:02:41Z</time></trkpt><trkpt lat="51.477703708725656" lon="16.892594662773792"><ele>89.0</ele><time>2026-04-08T08:02:42Z</time></trkpt><trkpt lat="51.47785901598731" lon="16.892443939991708"><ele>88.33333333333334</ele><time>2026-04-08T08:02:43Z</time></trkpt><trkpt lat="51.4780069626791" lon="16.89227780938643"><ele>87.66666666666667</ele><time>2026-04-08T08:02:44Z</time></trkpt><trkpt lat="51.47813733376961" lon="16.892114440744848"><ele>87.0</ele><time>2026-04-08T08:02:45Z</time></trkpt><trkpt lat="51.478240872260756" lon="16.891944457311883"><ele>87.0</ele><time>2026-04-08T08:02:46Z</time></trkpt><trkpt lat="51.47832145327046" lon="16.891760166096162"><ele>87.0</ele><time>2026-04-08T08:02:47.001Z</time></trkpt><trkpt lat="51.47842197791798" lon="16.891562126297934"><ele>87.0</ele><time>2026-04-08T08:02:48.001Z</time></trkpt><trkpt lat="51.47850685422599" lon="16.891322413418862"><ele>87.33333333333333</ele><time>2026-04-08T08:02:49.001Z</time></trkpt><trkpt lat="51.47859625539994" lon="16.89109578919718"><ele>87.66666666666666</ele><time>2026-04-08T08:02:50.001Z</time></trkpt><trkpt lat="51.47869792882161" lon="16.8908747214113"><ele>88.0</ele><time>2026-04-08T08:02:51.001Z</time></trkpt><trkpt lat="51.4788039842951" lon="16.890650086191442"><ele>88.0</ele><time>2026-04-08T08:02:52.001Z</time></trkpt><trkpt lat="51.478906776822036" lon="16.890431443366413"><ele>88.0</ele><time>2026-04-08T08:02:53.001Z</time></trkpt><trkpt lat="51.47895092055937" lon="16.890191898500802"><ele>88.0</ele><time>2026-04-08T08:02:54.001Z</time></trkpt><trkpt lat="51.47903343395992" lon="16.88998373382714"><ele>88.33333333333333</ele><time>2026-04-08T08:02:55.001Z</time></trkpt><trkpt lat="51.479118643596614" lon="16.88977735552824"><ele>88.66666666666667</ele><time>2026-04-08T08:02:56.001Z</time></trkpt><trkpt lat="51.47921659299135" lon="16.889592271921845"><ele>89.0</ele><time>2026-04-08T08:02:57.001Z</time></trkpt><trkpt lat="51.47929888291149" lon="16.889364286341426"><ele>89.0</ele><time>2026-04-08T08:02:58.001Z</time></trkpt><trkpt lat="51.47938198345244" lon="16.88917966767488"><ele>89.0</ele><time>2026-04-08T08:02:59.001Z</time></trkpt><trkpt lat="51.479467153216845" lon="16.88901539666026"><ele>89.0</ele><time>2026-04-08T08:03:00.001Z</time></trkpt><trkpt lat="51.4795397247498" lon="16.888823338268566"><ele>89.0</ele><time>2026-04-08T08:03:01.001Z</time></trkpt><trkpt lat="51.479619820484764" lon="16.888631247456086"><ele>88.75</ele><time>2026-04-08T08:03:02.001Z</time></trkpt><trkpt lat="51.479694175072915" lon="16.888458668266704"><ele>88.5</ele><time>2026-04-08T08:03:03.001Z</time></trkpt><trkpt lat="51.47974173288036" lon="16.888267222928253"><ele>88.25</ele><time>2026-04-08T08:03:04.001Z</time></trkpt><trkpt lat="51.479789646788966" lon="16.88806854599137"><ele>88.0</ele><time>2026-04-08T08:03:05.001Z</time></trkpt><trkpt lat="51.47984748360301" lon="16.88787545165338"><ele>88.0</ele><time>2026-04-08T08:03:06.001Z</time></trkpt><trkpt lat="51.479917367032364" lon="16.887685473319845"><ele>88.0</ele><time>2026-04-08T08:03:07.001Z</time></trkpt><trkpt lat="51.47999428786311" lon="16.887503394189306"><ele>88.0</ele><time>2026-04-08T08:03:08.001Z</time></trkpt><trkpt lat="51.48006931075974" lon="16.88732186053376"><ele>88.0</ele><time>2026-04-08T08:03:09.001Z</time></trkpt><trkpt lat="51.48014085268701" lon="16.887131266801966"><ele>88.0</ele><time>2026-04-08T08:03:10.001Z</time></trkpt><trkpt lat="51.48019189749199" lon="16.886934510074486"><ele>88.0</ele><time>2026-04-08T08:03:11.001Z</time></trkpt><trkpt lat="51.480236120398835" lon="16.88672386250472"><ele>88.0</ele><time>2026-04-08T08:03:12.001Z</time></trkpt><trkpt lat="51.4802747476136" lon="16.886499807829058"><ele>88.0</ele><time>2026-04-08T08:03:13.001Z</time></trkpt><trkpt lat="51.48030883882118" lon="16.886256555644618"><ele>88.0</ele><time>2026-04-08T08:03:14.001Z</time></trkpt><trkpt lat="51.480346408491094" lon="16.886007665263506"><ele>88.0</ele><time>2026-04-08T08:03:15.001Z</time></trkpt><trkpt lat="51.480385045090436" lon="16.885740120827993"><ele>88.0</ele><time>2026-04-08T08:03:16.001Z</time></trkpt><trkpt lat="51.48041705937315" lon="16.885474632903474"><ele>87.75</ele><time>2026-04-08T08:03:17.001Z</time></trkpt><trkpt lat="51.480461206719205" lon="16.885226198367967"><ele>87.5</ele><time>2026-04-08T08:03:18.001Z</time></trkpt><trkpt lat="51.48048774717696" lon="16.884997583395663"><ele>87.25</ele><time>2026-04-08T08:03:19.001Z</time></trkpt><trkpt lat="51.48051092117619" lon="16.884809706645164"><ele>87.0</ele><time>2026-04-08T08:03:20.001Z</time></trkpt><trkpt lat="51.4805365619749" lon="16.88460213344288"><ele>87.0</ele><time>2026-04-08T08:03:21.001Z</time></trkpt><trkpt lat="51.48055771176979" lon="16.884378471348207"><ele>87.0</ele><time>2026-04-08T08:03:22.001Z</time></trkpt><trkpt lat="51.48059870659042" lon="16.88416832248254"><ele>87.0</ele><time>2026-04-08T08:03:23.001Z</time></trkpt><trkpt lat="51.48065684353224" lon="16.883946771073585"><ele>87.0</ele><time>2026-04-08T08:03:24.001Z</time></trkpt><trkpt lat="51.48071981647965" lon="16.883749154779014"><ele>87.66666666666667</ele><time>2026-04-08T08:03:25.001Z</time></trkpt><trkpt lat="51.48078947773623" lon="16.88354406920302"><ele>88.33333333333334</ele><time>2026-04-08T08:03:25.999Z</time></trkpt><trkpt lat="51.48087068676953" lon="16.88333981616717"><ele>89.0</ele><time>2026-04-08T08:03:26.999Z</time></trkpt><trkpt lat="51.48095734240568" lon="16.88312735623472"><ele>89.0</ele><time>2026-04-08T08:03:28Z</time></trkpt><trkpt lat="51.48103332748065" lon="16.882939793875572"><ele>89.0</ele><time>2026-04-08T08:03:29Z</time></trkpt><trkpt lat="51.48113295199715" lon="16.882770982240046"><ele>89.0</ele><time>2026-04-08T08:03:30Z</time></trkpt><trkpt lat="51.481219461350335" lon="16.882614124378666"><ele>89.0</ele><time>2026-04-08T08:03:31Z</time></trkpt><trkpt lat="51.481306233293815" lon="16.8824555323431"><ele>88.75</ele><time>2026-04-08T08:03:32Z</time></trkpt><trkpt lat="51.48138780409348" lon="16.88230095581479"><ele>88.5</ele><time>2026-04-08T08:03:33Z</time></trkpt><trkpt lat="51.48147694672006" lon="16.882190102384584"><ele>88.25</ele><time>2026-04-08T08:03:34Z</time></trkpt><trkpt lat="51.481574736584804" lon="16.88206853223195"><ele>88.0</ele><time>2026-04-08T08:03:35Z</time></trkpt><trkpt lat="51.48168727412493" lon="16.881938514877977"><ele>88.0</ele><time>2026-04-08T08:03:36Z</time></trkpt><trkpt lat="51.48179551237192" lon="16.881831269553988"><ele>88.0</ele><time>2026-04-08T08:03:37Z</time></trkpt><trkpt lat="51.48189536521444" lon="16.881751511305914"><ele>88.0</ele><time>2026-04-08T08:03:38Z</time></trkpt><trkpt lat="51.48201586229412" lon="16.88168380848784"><ele>88.0</ele><time>2026-04-08T08:03:39Z</time></trkpt><trkpt lat="51.482144882059146" lon="16.88162788322036"><ele>88.0</ele><time>2026-04-08T08:03:40Z</time></trkpt><trkpt lat="51.48227879992103" lon="16.881579646626204"><ele>88.0</ele><time>2026-04-08T08:03:41Z</time></trkpt><trkpt lat="51.48241017291255" lon="16.881520724427315"><ele>88.0</ele><time>2026-04-08T08:03:42Z</time></trkpt><trkpt lat="51.48256353211145" lon="16.881455964755244"><ele>88.0</ele><time>2026-04-08T08:03:43Z</time></trkpt><trkpt lat="51.482714687774425" lon="16.881396346690316"><ele>88.0</ele><time>2026-04-08T08:03:44Z</time></trkpt><trkpt lat="51.48285300962994" lon="16.881304973938928"><ele>88.0</ele><time>2026-04-08T08:03:45Z</time></trkpt><trkpt lat="51.482969195296626" lon="16.88118150341975"><ele>88.0</ele><time>2026-04-08T08:03:46Z</time></trkpt><trkpt lat="51.48306336380358" lon="16.8810335807548"><ele>88.0</ele><time>2026-04-08T08:03:47Z</time></trkpt><trkpt lat="51.48316823380612" lon="16.880894300361835"><ele>88.0</ele><time>2026-04-08T08:03:48Z</time></trkpt><trkpt lat="51.48326679621102" lon="16.880743175892633"><ele>88.0</ele><time>2026-04-08T08:03:49Z</time></trkpt><trkpt lat="51.48336974736235" lon="16.88059346569529"><ele>88.0</ele><time>2026-04-08T08:03:50Z</time></trkpt><trkpt lat="51.48348994177472" lon="16.88043565368059"><ele>88.0</ele><time>2026-04-08T08:03:51Z</time></trkpt><trkpt lat="51.48361437298954" lon="16.88027960712773"><ele>88.0</ele><time>2026-04-08T08:03:52Z</time></trkpt><trkpt lat="51.48372753730345" lon="16.880110474591824"><ele>88.0</ele><time>2026-04-08T08:03:53Z</time></trkpt><trkpt lat="51.48384356991329" lon="16.87992491393141"><ele>88.0</ele><time>2026-04-08T08:03:54Z</time></trkpt><trkpt lat="51.483977451670164" lon="16.879769650106095"><ele>87.75</ele><time>2026-04-08T08:03:55Z</time></trkpt><trkpt lat="51.484081343493116" lon="16.879567934651227"><ele>87.5</ele><time>2026-04-08T08:03:56Z</time></trkpt><trkpt lat="51.48417733397504" lon="16.879403019563306"><ele>87.25</ele><time>2026-04-08T08:03:57Z</time></trkpt><trkpt lat="51.48426106016909" lon="16.8792297168878"><ele>87.0</ele><time>2026-04-08T08:03:58Z</time></trkpt><trkpt lat="51.48434018066388" lon="16.879023726706436"><ele>87.0</ele><time>2026-04-08T08:03:59Z</time></trkpt><trkpt lat="51.484423303174296" lon="16.878802085432312"><ele>87.0</ele><time>2026-04-08T08:04:00Z</time></trkpt><trkpt lat="51.48451016671755" lon="16.87856442248212"><ele>87.0</ele><time>2026-04-08T08:04:01Z</time></trkpt><trkpt lat="51.4845794565943" lon="16.878330746118735"><ele>87.0</ele><time>2026-04-08T08:04:02Z</time></trkpt><trkpt lat="51.48463445444752" lon="16.878088309285783"><ele>87.0</ele><time>2026-04-08T08:04:03Z</time></trkpt><trkpt lat="51.4847093509232" lon="16.87785611072263"><ele>87.0</ele><time>2026-04-08T08:04:04Z</time></trkpt><trkpt lat="51.48477540328765" lon="16.877622281536766"><ele>87.33333333333333</ele><time>2026-04-08T08:04:05Z</time></trkpt><trkpt lat="51.48483676112422" lon="16.87736906397491"><ele>87.66666666666666</ele><time>2026-04-08T08:04:06Z</time></trkpt><trkpt lat="51.48490133401635" lon="16.87713757662934"><ele>88.0</ele><time>2026-04-08T08:04:07Z</time></trkpt><trkpt lat="51.48496165902447" lon="16.876904427298047"><ele>88.33333333333333</ele><time>2026-04-08T08:04:08Z</time></trkpt><trkpt lat="51.48500398719297" lon="16.876676858139277"><ele>88.66666666666667</ele><time>2026-04-08T08:04:09Z</time></trkpt><trkpt lat="51.48507302686691" lon="16.876449729041017"><ele>89.0</ele><time>2026-04-08T08:04:10Z</time></trkpt><trkpt lat="51.48512929918728" lon="16.876201041997472"><ele>89.0</ele><time>2026-04-08T08:04:11Z</time></trkpt><trkpt lat="51.48520126377407" lon="16.87598089191268"><ele>89.0</ele><time>2026-04-08T08:04:12Z</time></trkpt><trkpt lat="51.48527810412013" lon="16.87575564967652"><ele>89.0</ele><time>2026-04-08T08:04:13Z</time></trkpt><trkpt lat="51.485339238610464" lon="16.8755277751161"><ele>88.75</ele><time>2026-04-08T08:04:14Z</time></trkpt><trkpt lat="51.48539049462654" lon="16.87532979454293"><ele>88.5</ele><time>2026-04-08T08:04:15Z</time></trkpt><trkpt lat="51.48541283943535" lon="16.87511882948477"><ele>88.25</ele><time>2026-04-08T08:04:16Z</time></trkpt><trkpt lat="51.48543723908304" lon="16.874939693269724"><ele>88.0</ele><time>2026-04-08T08:04:17Z</time></trkpt><trkpt lat="51.48544835571741" lon="16.87478858735848"><ele>88.0</ele><time>2026-04-08T08:04:18Z</time></trkpt><trkpt lat="51.48546617294776" lon="16.874600694838154"><ele>88.0</ele><time>2026-04-08T08:04:19Z</time></trkpt><trkpt lat="51.485484451758424" lon="16.874401689331975"><ele>88.0</ele><time>2026-04-08T08:04:20Z</time></trkpt><trkpt lat="51.48548694778994" lon="16.874176891239056"><ele>88.0</ele><time>2026-04-08T08:04:21Z</time></trkpt><trkpt lat="51.48550540056879" lon="16.873957367984612"><ele>88.0</ele><time>2026-04-08T08:04:22Z</time></trkpt><trkpt lat="51.48552045916904" lon="16.873727357661362"><ele>88.0</ele><time>2026-04-08T08:04:23Z</time></trkpt><trkpt lat="51.485544637505" lon="16.873481954818224"><ele>88.0</ele><time>2026-04-08T08:04:24Z</time></trkpt><trkpt lat="51.48556021530351" lon="16.873232982953507"><ele>88.0</ele><time>2026-04-08T08:04:25Z</time></trkpt><trkpt lat="51.485591546679906" lon="16.872984512198578"><ele>88.0</ele><time>2026-04-08T08:04:26Z</time></trkpt><trkpt lat="51.485612649196035" lon="16.872746997601748"><ele>88.0</ele><time>2026-04-08T08:04:27Z</time></trkpt><trkpt lat="51.485630475419086" lon="16.8725523823393"><ele>88.0</ele><time>2026-04-08T08:04:28Z</time></trkpt><trkpt lat="51.48564922536323" lon="16.872354859236523"><ele>88.0</ele><time>2026-04-08T08:04:29Z</time></trkpt><trkpt lat="51.485670490907246" lon="16.87213087828714"><ele>88.0</ele><time>2026-04-08T08:04:30Z</time></trkpt><trkpt lat="51.48569310143896" lon="16.871892254441423"><ele>88.0</ele><time>2026-04-08T08:04:31Z</time></trkpt><trkpt lat="51.48570025476187" lon="16.871641302638597"><ele>88.0</ele><time>2026-04-08T08:04:32Z</time></trkpt><trkpt lat="51.485725662056524" lon="16.871393723244957"><ele>88.0</ele><time>2026-04-08T08:04:33Z</time></trkpt><trkpt lat="51.48576338892281" lon="16.87115318924785"><ele>88.0</ele><time>2026-04-08T08:04:34Z</time></trkpt><trkpt lat="51.48579036351729" lon="16.870911810878304"><ele>88.0</ele><time>2026-04-08T08:04:35Z</time></trkpt><trkpt lat="51.48581776743518" lon="16.870708390153816"><ele>88.0</ele><time>2026-04-08T08:04:36Z</time></trkpt><trkpt lat="51.485846062998796" lon="16.870506755838075"><ele>88.0</ele><time>2026-04-08T08:04:37Z</time></trkpt><trkpt lat="51.485859899969626" lon="16.87027679756172"><ele>88.0</ele><time>2026-04-08T08:04:38Z</time></trkpt><trkpt lat="51.48588600415419" lon="16.870031472357176"><ele>88.0</ele><time>2026-04-08T08:04:39Z</time></trkpt><trkpt lat="51.48593838985529" lon="16.869787091798738"><ele>88.5</ele><time>2026-04-08T08:04:40Z</time></trkpt><trkpt lat="51.48598603660757" lon="16.869575649422725"><ele>89.0</ele><time>2026-04-08T08:04:41Z</time></trkpt><trkpt lat="51.48602993049233" lon="16.869366869004363"><ele>89.5</ele><time>2026-04-08T08:04:42Z</time></trkpt><trkpt lat="51.48610871681124" lon="16.869185326206786"><ele>90.0</ele><time>2026-04-08T08:04:43Z</time></trkpt><trkpt lat="51.48619914783627" lon="16.868981102507487"><ele>89.25</ele><time>2026-04-08T08:04:44Z</time></trkpt><trkpt lat="51.48628562207053" lon="16.86882605524121"><ele>88.5</ele><time>2026-04-08T08:04:45Z</time></trkpt><trkpt lat="51.48635475933303" lon="16.86870690442906"><ele>87.75</ele><time>2026-04-08T08:04:46Z</time></trkpt><trkpt lat="51.486415721292154" lon="16.86860686864998"><ele>87.0</ele><time>2026-04-08T08:04:47Z</time></trkpt><trkpt lat="51.48650327423758" lon="16.868447128471267"><ele>88.25</ele><time>2026-04-08T08:04:48Z</time></trkpt><trkpt lat="51.486596201427645" lon="16.868339901695126"><ele>89.5</ele><time>2026-04-08T08:04:49Z</time></trkpt><trkpt lat="51.486684936738655" lon="16.868178508403098"><ele>90.75</ele><time>2026-04-08T08:04:50Z</time></trkpt><trkpt lat="51.48676525685955" lon="16.868038133230783"><ele>92.0</ele><time>2026-04-08T08:04:51Z</time></trkpt><trkpt lat="51.486851468637" lon="16.867886935187723"><ele>92.0</ele><time>2026-04-08T08:04:52Z</time></trkpt><trkpt lat="51.486908972956705" lon="16.867772877111477"><ele>92.0</ele><time>2026-04-08T08:04:53Z</time></trkpt><trkpt lat="51.48699569112481" lon="16.867616581695433"><ele>92.0</ele><time>2026-04-08T08:04:54Z</time></trkpt><trkpt lat="51.487071003690986" lon="16.86751507701166"><ele>92.0</ele><time>2026-04-08T08:04:55Z</time></trkpt><trkpt lat="51.487142986504665" lon="16.867351103662536"><ele>92.0</ele><time>2026-04-08T08:04:56Z</time></trkpt><trkpt lat="51.48723441023316" lon="16.86718534248548"><ele>90.5</ele><time>2026-04-08T08:04:57Z</time></trkpt><trkpt lat="51.48733201023762" lon="16.867012974584217"><ele>89.0</ele><time>2026-04-08T08:04:58Z</time></trkpt><trkpt lat="51.48744252216159" lon="16.866839506780686"><ele>87.5</ele><time>2026-04-08T08:04:59Z</time></trkpt><trkpt lat="51.487521206008225" lon="16.866697045272502"><ele>86.0</ele><time>2026-04-08T08:05:00Z</time></trkpt><trkpt lat="51.487566036358665" lon="16.866538837644363"><ele>86.0</ele><time>2026-04-08T08:05:01Z</time></trkpt><trkpt lat="51.487613193524865" lon="16.866372028577686"><ele>86.0</ele><time>2026-04-08T08:05:02Z</time></trkpt><trkpt lat="51.48767532499411" lon="16.86620050058374"><ele>86.0</ele><time>2026-04-08T08:05:03Z</time></trkpt><trkpt lat="51.487718215337196" lon="16.86599402198193"><ele>86.0</ele><time>2026-04-08T08:05:04Z</time></trkpt><trkpt lat="51.487742736359536" lon="16.865785686707333"><ele>86.0</ele><time>2026-04-08T08:05:05Z</time></trkpt><trkpt lat="51.487759948198295" lon="16.86556105650277"><ele>86.0</ele><time>2026-04-08T08:05:06Z</time></trkpt><trkpt lat="51.48779249043917" lon="16.865347180272778"><ele>86.0</ele><time>2026-04-08T08:05:07Z</time></trkpt><trkpt lat="51.48783701158253" lon="16.865137188090856"><ele>86.0</ele><time>2026-04-08T08:05:08Z</time></trkpt><trkpt lat="51.48790037468195" lon="16.864936819632756"><ele>86.0</ele><time>2026-04-08T08:05:09Z</time></trkpt><trkpt lat="51.487948211704335" lon="16.86473106273271"><ele>86.0</ele><time>2026-04-08T08:05:10Z</time></trkpt><trkpt lat="51.48799338585537" lon="16.86456221392121"><ele>86.0</ele><time>2026-04-08T08:05:11Z</time></trkpt><trkpt lat="51.488020710944795" lon="16.86441990328458"><ele>86.0</ele><time>2026-04-08T08:05:12Z</time></trkpt><trkpt lat="51.488039008029595" lon="16.864303282381364"><ele>86.0</ele><time>2026-04-08T08:05:13Z</time></trkpt><trkpt lat="51.48806492926469" lon="16.864188079802492"><ele>86.0</ele><time>2026-04-08T08:05:14Z</time></trkpt><trkpt lat="51.488093571324406" lon="16.864068009179217"><ele>86.0</ele><time>2026-04-08T08:05:15Z</time></trkpt><trkpt lat="51.48811862604369" lon="16.863943122243604"><ele>86.0</ele><time>2026-04-08T08:05:16Z</time></trkpt><trkpt lat="51.488136649132706" lon="16.86382608264887"><ele>86.0</ele><time>2026-04-08T08:05:17Z</time></trkpt><trkpt lat="51.4881517881052" lon="16.863709946563116"><ele>86.0</ele><time>2026-04-08T08:05:18Z</time></trkpt><trkpt lat="51.488172829001215" lon="16.863603932418382"><ele>86.0</ele><time>2026-04-08T08:05:19Z</time></trkpt><trkpt lat="51.48819580463793" lon="16.863486221791646"><ele>86.19999999999999</ele><time>2026-04-08T08:05:20Z</time></trkpt><trkpt lat="51.48821761577685" lon="16.8633616024444"><ele>86.39999999999999</ele><time>2026-04-08T08:05:21Z</time></trkpt><trkpt lat="51.48824197652802" lon="16.863225191762936"><ele>86.6</ele><time>2026-04-08T08:05:22Z</time></trkpt><trkpt lat="51.488266940933634" lon="16.86309420752672"><ele>86.8</ele><time>2026-04-08T08:05:23Z</time></trkpt><trkpt lat="51.488296216955035" lon="16.862941650983423"><ele>87.0</ele><time>2026-04-08T08:05:24Z</time></trkpt><trkpt lat="51.48833258456678" lon="16.862779409492383"><ele>86.75</ele><time>2026-04-08T08:05:25Z</time></trkpt><trkpt lat="51.48836207470924" lon="16.86259695832632"><ele>86.5</ele><time>2026-04-08T08:05:26Z</time></trkpt><trkpt lat="51.488399117386" lon="16.86240467442082"><ele>86.25</ele><time>2026-04-08T08:05:27Z</time></trkpt><trkpt lat="51.488434645178366" lon="16.86219049749645"><ele>86.0</ele><time>2026-04-08T08:05:28Z</time></trkpt><trkpt lat="51.48848173475396" lon="16.86198643582815"><ele>86.0</ele><time>2026-04-08T08:05:29Z</time></trkpt><trkpt lat="51.48852489946771" lon="16.861803186462424"><ele>86.0</ele><time>2026-04-08T08:05:30Z</time></trkpt><trkpt lat="51.488560622277035" lon="16.86161690211957"><ele>86.0</ele><time>2026-04-08T08:05:31.001Z</time></trkpt><trkpt lat="51.488599776052524" lon="16.861423155501203"><ele>86.0</ele><time>2026-04-08T08:05:31.999Z</time></trkpt><trkpt lat="51.48865616489881" lon="16.861210720548435"><ele>86.0</ele><time>2026-04-08T08:05:32.999Z</time></trkpt><trkpt lat="51.48870828360425" lon="16.860988933002737"><ele>86.0</ele><time>2026-04-08T08:05:34Z</time></trkpt><trkpt lat="51.48877377046856" lon="16.860774259833356"><ele>86.0</ele><time>2026-04-08T08:05:35Z</time></trkpt><trkpt lat="51.48883810970501" lon="16.860561197736285"><ele>86.0</ele><time>2026-04-08T08:05:36Z</time></trkpt><trkpt lat="51.48890683930446" lon="16.86034915927801"><ele>86.0</ele><time>2026-04-08T08:05:37Z</time></trkpt><trkpt lat="51.48898039011233" lon="16.860164879444874"><ele>86.0</ele><time>2026-04-08T08:05:38Z</time></trkpt><trkpt lat="51.48903537283603" lon="16.85999391081703"><ele>86.0</ele><time>2026-04-08T08:05:39Z</time></trkpt><trkpt lat="51.48909184584043" lon="16.85980236852209"><ele>86.0</ele><time>2026-04-08T08:05:40Z</time></trkpt><trkpt lat="51.489155539586925" lon="16.859599152470143"><ele>86.0</ele><time>2026-04-08T08:05:41Z</time></trkpt><trkpt lat="51.489213401977416" lon="16.85938188473281"><ele>86.0</ele><time>2026-04-08T08:05:42Z</time></trkpt><trkpt lat="51.48928319608476" lon="16.85915903496976"><ele>86.0</ele><time>2026-04-08T08:05:43Z</time></trkpt><trkpt lat="51.489365697324445" lon="16.85893676453844"><ele>86.0</ele><time>2026-04-08T08:05:44Z</time></trkpt><trkpt lat="51.48946080780533" lon="16.85877179179713"><ele>86.0</ele><time>2026-04-08T08:05:45Z</time></trkpt><trkpt lat="51.48953677114811" lon="16.858619542048267"><ele>86.0</ele><time>2026-04-08T08:05:46Z</time></trkpt><trkpt lat="51.489608088946625" lon="16.858467124553794"><ele>86.0</ele><time>2026-04-08T08:05:47Z</time></trkpt><trkpt lat="51.489666834863996" lon="16.858306332156033"><ele>85.75</ele><time>2026-04-08T08:05:48Z</time></trkpt><trkpt lat="51.48970995562041" lon="16.858147992434535"><ele>85.5</ele><time>2026-04-08T08:05:49Z</time></trkpt><trkpt lat="51.48975280835561" lon="16.8579880276138"><ele>85.25</ele><time>2026-04-08T08:05:50Z</time></trkpt><trkpt lat="51.4897999252553" lon="16.857802107146572"><ele>85.0</ele><time>2026-04-08T08:05:51Z</time></trkpt><trkpt lat="51.489848073497974" lon="16.85761695467131"><ele>85.0</ele><time>2026-04-08T08:05:52Z</time></trkpt><trkpt lat="51.489896346554325" lon="16.857418651511605"><ele>85.0</ele><time>2026-04-08T08:05:53Z</time></trkpt><trkpt lat="51.489942234858496" lon="16.857191498991707"><ele>85.0</ele><time>2026-04-08T08:05:54Z</time></trkpt><trkpt lat="51.489984645023206" lon="16.856966957885152"><ele>85.0</ele><time>2026-04-08T08:05:55Z</time></trkpt><trkpt lat="51.49003091191553" lon="16.856741733340783"><ele>85.33333333333333</ele><time>2026-04-08T08:05:56Z</time></trkpt><trkpt lat="51.49008913721059" lon="16.85650215234653"><ele>85.66666666666667</ele><time>2026-04-08T08:05:57Z</time></trkpt><trkpt lat="51.49015314260375" lon="16.85626469285863"><ele>86.0</ele><time>2026-04-08T08:05:58Z</time></trkpt><trkpt lat="51.49020668430202" lon="16.856018647703127"><ele>86.25</ele><time>2026-04-08T08:05:59Z</time></trkpt><trkpt lat="51.4902566013779" lon="16.855769188035786"><ele>86.5</ele><time>2026-04-08T08:06:00Z</time></trkpt><trkpt lat="51.49031056887803" lon="16.855556017352882"><ele>86.75</ele><time>2026-04-08T08:06:01Z</time></trkpt><trkpt lat="51.490364922102884" lon="16.855373344134183"><ele>87.0</ele><time>2026-04-08T08:06:02Z</time></trkpt><trkpt lat="51.49041813242096" lon="16.85518671967471"><ele>87.0</ele><time>2026-04-08T08:06:03Z</time></trkpt><trkpt lat="51.49046384520229" lon="16.85497262067922"><ele>87.0</ele><time>2026-04-08T08:06:04Z</time></trkpt><trkpt lat="51.490509990402394" lon="16.854761289994755"><ele>87.0</ele><time>2026-04-08T08:06:05Z</time></trkpt><trkpt lat="51.490562250799854" lon="16.854541304358655"><ele>87.0</ele><time>2026-04-08T08:06:06Z</time></trkpt><trkpt lat="51.490619006146325" lon="16.85434560622412"><ele>87.5</ele><time>2026-04-08T08:06:07Z</time></trkpt><trkpt lat="51.49067084082363" lon="16.85411701541029"><ele>88.0</ele><time>2026-04-08T08:06:08Z</time></trkpt><trkpt lat="51.490737480866485" lon="16.853931054422205"><ele>88.5</ele><time>2026-04-08T08:06:09Z</time></trkpt><trkpt lat="51.49081820654423" lon="16.853729477655325"><ele>89.0</ele><time>2026-04-08T08:06:10Z</time></trkpt><trkpt lat="51.49088083161629" lon="16.853541112435565"><ele>89.80000000000001</ele><time>2026-04-08T08:06:11Z</time></trkpt><trkpt lat="51.490944638986214" lon="16.85339823580155"><ele>90.60000000000001</ele><time>2026-04-08T08:06:12Z</time></trkpt><trkpt lat="51.490992036485174" lon="16.853218670168577"><ele>91.4</ele><time>2026-04-08T08:06:13Z</time></trkpt><trkpt lat="51.491030544992675" lon="16.85306572827098"><ele>92.2</ele><time>2026-04-08T08:06:14Z</time></trkpt><trkpt lat="51.49106721832942" lon="16.852911443601258"><ele>93.0</ele><time>2026-04-08T08:06:15Z</time></trkpt><trkpt lat="51.49109883491808" lon="16.852818090114113"><ele>93.0</ele><time>2026-04-08T08:06:16Z</time></trkpt><trkpt lat="51.4911555794359" lon="16.85275294060852"><ele>93.0</ele><time>2026-04-08T08:06:17Z</time></trkpt><trkpt lat="51.49122760404447" lon="16.852664287597463"><ele>93.0</ele><time>2026-04-08T08:06:18Z</time></trkpt><trkpt lat="51.4913083791687" lon="16.852596306732657"><ele>93.0</ele><time>2026-04-08T08:06:19Z</time></trkpt><trkpt lat="51.49136418838481" lon="16.85250608995637"><ele>93.0</ele><time>2026-04-08T08:06:20Z</time></trkpt><trkpt lat="51.49141845028505" lon="16.852354234798153"><ele>93.0</ele><time>2026-04-08T08:06:21Z</time></trkpt><trkpt lat="51.49149989328501" lon="16.852241423880965"><ele>92.5</ele><time>2026-04-08T08:06:22Z</time></trkpt><trkpt lat="51.49160230835585" lon="16.852153709177237"><ele>92.0</ele><time>2026-04-08T08:06:23Z</time></trkpt><trkpt lat="51.49170093851197" lon="16.852043069660375"><ele>91.5</ele><time>2026-04-08T08:06:24Z</time></trkpt><trkpt lat="51.49180546903718" lon="16.851914668386808"><ele>91.0</ele><time>2026-04-08T08:06:25Z</time></trkpt><trkpt lat="51.4918979759183" lon="16.851787776162844"><ele>90.25</ele><time>2026-04-08T08:06:26Z</time></trkpt><trkpt lat="51.49199799313821" lon="16.85167686839506"><ele>89.5</ele><time>2026-04-08T08:06:27Z</time></trkpt><trkpt lat="51.49209737331588" lon="16.851546641902853"><ele>88.75</ele><time>2026-04-08T08:06:28Z</time></trkpt><trkpt lat="51.492182181151094" lon="16.851415925754893"><ele>88.0</ele><time>2026-04-08T08:06:29Z</time></trkpt><trkpt lat="51.492261259980665" lon="16.851295204545465"><ele>88.0</ele><time>2026-04-08T08:06:30Z</time></trkpt><trkpt lat="51.49233705443162" lon="16.851220788564103"><ele>88.0</ele><time>2026-04-08T08:06:31Z</time></trkpt><trkpt lat="51.492375945283186" lon="16.851129838356695"><ele>88.0</ele><time>2026-04-08T08:06:33Z</time></trkpt><trkpt lat="51.492316417357806" lon="16.851040109169112"><ele>88.0</ele><time>2026-04-08T08:06:35Z</time></trkpt><trkpt lat="51.49225510644927" lon="16.851001302423864"><ele>88.0</ele><time>2026-04-08T08:06:36Z</time></trkpt><trkpt lat="51.4921780058056" lon="16.850964088338234"><ele>88.0</ele><time>2026-04-08T08:06:37Z</time></trkpt><trkpt lat="51.49209743253297" lon="16.850908886987956"><ele>89.5</ele><time>2026-04-08T08:06:38Z</time></trkpt><trkpt lat="51.49201448969787" lon="16.8508613249257"><ele>91.0</ele><time>2026-04-08T08:06:39Z</time></trkpt><trkpt lat="51.49192137951085" lon="16.850785288619235"><ele>92.5</ele><time>2026-04-08T08:06:40Z</time></trkpt><trkpt lat="51.49183274319212" lon="16.850723411664045"><ele>94.0</ele><time>2026-04-08T08:06:41Z</time></trkpt><trkpt lat="51.49176249424808" lon="16.85065295590925"><ele>95.50000000000001</ele><time>2026-04-08T08:06:42Z</time></trkpt><trkpt lat="51.49171059201566" lon="16.850582890703755"><ele>97.0</ele><time>2026-04-08T08:06:43Z</time></trkpt><trkpt lat="51.49167137519035" lon="16.850498762104984"><ele>97.0</ele><time>2026-04-08T08:06:44Z</time></trkpt><trkpt lat="51.49171714895891" lon="16.85028725106316"><ele>97.0</ele><time>2026-04-08T08:06:46Z</time></trkpt><trkpt lat="51.491776554382255" lon="16.85015874306919"><ele>97.0</ele><time>2026-04-08T08:06:47Z</time></trkpt><trkpt lat="51.491825657164064" lon="16.849998213434056"><ele>97.0</ele><time>2026-04-08T08:06:48Z</time></trkpt><trkpt lat="51.49186204297438" lon="16.849820884449915"><ele>97.0</ele><time>2026-04-08T08:06:49Z</time></trkpt><trkpt lat="51.491895060867165" lon="16.84963928540051"><ele>97.0</ele><time>2026-04-08T08:06:50Z</time></trkpt><trkpt lat="51.491951131217135" lon="16.849453144864246"><ele>97.0</ele><time>2026-04-08T08:06:51Z</time></trkpt><trkpt lat="51.492001745798134" lon="16.849290309211373"><ele>97.0</ele><time>2026-04-08T08:06:52Z</time></trkpt><trkpt lat="51.492055294331564" lon="16.84913843536108"><ele>96.0</ele><time>2026-04-08T08:06:53Z</time></trkpt><trkpt lat="51.492106037699465" lon="16.848976342086345"><ele>95.0</ele><time>2026-04-08T08:06:54Z</time></trkpt><trkpt lat="51.49214156460066" lon="16.84879910747999"><ele>94.0</ele><time>2026-04-08T08:06:55Z</time></trkpt><trkpt lat="51.492207348466884" lon="16.848632779044134"><ele>93.0</ele><time>2026-04-08T08:06:56Z</time></trkpt><trkpt lat="51.49228044974331" lon="16.848459579608395"><ele>93.0</ele><time>2026-04-08T08:06:57Z</time></trkpt><trkpt lat="51.49235891767742" lon="16.848299645639965"><ele>93.0</ele><time>2026-04-08T08:06:58Z</time></trkpt><trkpt lat="51.4924394647041" lon="16.848138015933866"><ele>93.0</ele><time>2026-04-08T08:06:59Z</time></trkpt><trkpt lat="51.49252923939066" lon="16.84798020934208"><ele>93.0</ele><time>2026-04-08T08:07:00Z</time></trkpt><trkpt lat="51.49262165061829" lon="16.847814891655638"><ele>93.0</ele><time>2026-04-08T08:07:01Z</time></trkpt><trkpt lat="51.492710968972126" lon="16.847640885228795"><ele>93.0</ele><time>2026-04-08T08:07:02Z</time></trkpt><trkpt lat="51.492799418270444" lon="16.847461369426878"><ele>93.0</ele><time>2026-04-08T08:07:03Z</time></trkpt><trkpt lat="51.492896113981686" lon="16.847290764880945"><ele>93.0</ele><time>2026-04-08T08:07:04Z</time></trkpt><trkpt lat="51.4929851247443" lon="16.847131239619905"><ele>92.0</ele><time>2026-04-08T08:07:05Z</time></trkpt><trkpt lat="51.49308167004343" lon="16.84698113504483"><ele>91.0</ele><time>2026-04-08T08:07:06Z</time></trkpt><trkpt lat="51.493155704951896" lon="16.846804569135717"><ele>90.0</ele><time>2026-04-08T08:07:07Z</time></trkpt><trkpt lat="51.49323643499458" lon="16.846631588776056"><ele>89.0</ele><time>2026-04-08T08:07:08Z</time></trkpt><trkpt lat="51.49332322919336" lon="16.846450479943687"><ele>89.0</ele><time>2026-04-08T08:07:09Z</time></trkpt><trkpt lat="51.493405923925586" lon="16.846274122261892"><ele>89.0</ele><time>2026-04-08T08:07:10Z</time></trkpt><trkpt lat="51.493494573916415" lon="16.846088360273527"><ele>89.0</ele><time>2026-04-08T08:07:11Z</time></trkpt><trkpt lat="51.493587211456" lon="16.845909188813685"><ele>89.0</ele><time>2026-04-08T08:07:12Z</time></trkpt><trkpt lat="51.493685692633726" lon="16.845726770123846"><ele>88.75</ele><time>2026-04-08T08:07:13Z</time></trkpt><trkpt lat="51.49377666516029" lon="16.845542853169164"><ele>88.5</ele><time>2026-04-08T08:07:14Z</time></trkpt><trkpt lat="51.49384288292756" lon="16.845372624721136"><ele>88.25</ele><time>2026-04-08T08:07:15Z</time></trkpt><trkpt lat="51.49391232203368" lon="16.845188407552573"><ele>88.0</ele><time>2026-04-08T08:07:16Z</time></trkpt><trkpt lat="51.49398274857028" lon="16.84499217021265"><ele>88.0</ele><time>2026-04-08T08:07:17Z</time></trkpt><trkpt lat="51.49404090512115" lon="16.844769890391007"><ele>88.0</ele><time>2026-04-08T08:07:18Z</time></trkpt><trkpt lat="51.4941084046515" lon="16.844540830452395"><ele>88.0</ele><time>2026-04-08T08:07:19Z</time></trkpt><trkpt lat="51.494175765896316" lon="16.844332521461716"><ele>88.66666666666666</ele><time>2026-04-08T08:07:20Z</time></trkpt><trkpt lat="51.49424012347402" lon="16.844107315591657"><ele>89.33333333333333</ele><time>2026-04-08T08:07:21Z</time></trkpt><trkpt lat="51.494309748203584" lon="16.843877045730842"><ele>90.0</ele><time>2026-04-08T08:07:22Z</time></trkpt><trkpt lat="51.49436624994054" lon="16.84364334326372"><ele>90.25</ele><time>2026-04-08T08:07:23Z</time></trkpt><trkpt lat="51.49442268327738" lon="16.843435962543264"><ele>90.5</ele><time>2026-04-08T08:07:24Z</time></trkpt><trkpt lat="51.494478554259274" lon="16.843238796001685"><ele>90.75</ele><time>2026-04-08T08:07:25Z</time></trkpt><trkpt lat="51.494540894779384" lon="16.843077065711572"><ele>91.0</ele><time>2026-04-08T08:07:26Z</time></trkpt><trkpt lat="51.494594788833666" lon="16.8429066923028"><ele>90.25</ele><time>2026-04-08T08:07:27Z</time></trkpt><trkpt lat="51.49465099573585" lon="16.8427545776816"><ele>89.5</ele><time>2026-04-08T08:07:28Z</time></trkpt><trkpt lat="51.49469606390738" lon="16.842588158489487"><ele>88.75</ele><time>2026-04-08T08:07:29Z</time></trkpt><trkpt lat="51.49474231655405" lon="16.8424328909502"><ele>88.0</ele><time>2026-04-08T08:07:30Z</time></trkpt><trkpt lat="51.494794230303576" lon="16.842248693902768"><ele>88.0</ele><time>2026-04-08T08:07:31Z</time></trkpt><trkpt lat="51.49484877977356" lon="16.842068710578168"><ele>88.0</ele><time>2026-04-08T08:07:32Z</time></trkpt><trkpt lat="51.494904959433136" lon="16.841890234370137"><ele>88.0</ele><time>2026-04-08T08:07:33Z</time></trkpt><trkpt lat="51.49495398751961" lon="16.84170292723794"><ele>88.0</ele><time>2026-04-08T08:07:34Z</time></trkpt><trkpt lat="51.495003502917115" lon="16.841519820342924"><ele>88.75</ele><time>2026-04-08T08:07:35Z</time></trkpt><trkpt lat="51.49505824180642" lon="16.841314197344328"><ele>89.5</ele><time>2026-04-08T08:07:36Z</time></trkpt><trkpt lat="51.49509824132368" lon="16.841097290477844"><ele>90.25</ele><time>2026-04-08T08:07:37Z</time></trkpt><trkpt lat="51.49515537355592" lon="16.840879331997204"><ele>91.0</ele><time>2026-04-08T08:07:38Z</time></trkpt><trkpt lat="51.495211551706696" lon="16.840676162410023"><ele>91.25</ele><time>2026-04-08T08:07:39Z</time></trkpt><trkpt lat="51.49528871802628" lon="16.840486722011306"><ele>91.5</ele><time>2026-04-08T08:07:40Z</time></trkpt><trkpt lat="51.49535202046623" lon="16.840281706257823"><ele>91.75</ele><time>2026-04-08T08:07:41Z</time></trkpt><trkpt lat="51.49540907625108" lon="16.840098491433334"><ele>92.0</ele><time>2026-04-08T08:07:42Z</time></trkpt><trkpt lat="51.495459462297156" lon="16.83993669326396"><ele>92.0</ele><time>2026-04-08T08:07:43Z</time></trkpt><trkpt lat="51.495518438910295" lon="16.839725673069463"><ele>92.0</ele><time>2026-04-08T08:07:44Z</time></trkpt><trkpt lat="51.49559675113171" lon="16.839507818449377"><ele>92.0</ele><time>2026-04-08T08:07:45Z</time></trkpt><trkpt lat="51.49565847235596" lon="16.839292648762388"><ele>92.0</ele><time>2026-04-08T08:07:46Z</time></trkpt><trkpt lat="51.495729200768764" lon="16.8391373303243"><ele>92.0</ele><time>2026-04-08T08:07:47Z</time></trkpt><trkpt lat="51.4957838218784" lon="16.838961781288603"><ele>92.0</ele><time>2026-04-08T08:07:48Z</time></trkpt><trkpt lat="51.495831182475996" lon="16.83879335986511"><ele>92.0</ele><time>2026-04-08T08:07:49Z</time></trkpt><trkpt lat="51.49587450184182" lon="16.838622670077214"><ele>92.0</ele><time>2026-04-08T08:07:50Z</time></trkpt><trkpt lat="51.49591762788109" lon="16.838430872445425"><ele>91.5</ele><time>2026-04-08T08:07:51Z</time></trkpt><trkpt lat="51.495969167909834" lon="16.838235197270834"><ele>91.0</ele><time>2026-04-08T08:07:52Z</time></trkpt><trkpt lat="51.496021095209315" lon="16.83803903380406"><ele>90.5</ele><time>2026-04-08T08:07:53Z</time></trkpt><trkpt lat="51.49604164102827" lon="16.837828334265282"><ele>90.0</ele><time>2026-04-08T08:07:54Z</time></trkpt><trkpt lat="51.49607041060195" lon="16.837621433262825"><ele>89.75</ele><time>2026-04-08T08:07:55Z</time></trkpt><trkpt lat="51.49611666770934" lon="16.83740988617658"><ele>89.5</ele><time>2026-04-08T08:07:56Z</time></trkpt><trkpt lat="51.49615270990143" lon="16.837177299587278"><ele>89.25</ele><time>2026-04-08T08:07:57Z</time></trkpt><trkpt lat="51.49618903964749" lon="16.836937545074797"><ele>89.0</ele><time>2026-04-08T08:07:58Z</time></trkpt><trkpt lat="51.49622584084537" lon="16.83669288132982"><ele>88.75</ele><time>2026-04-08T08:07:59Z</time></trkpt><trkpt lat="51.496239539454535" lon="16.836462786498345"><ele>88.5</ele><time>2026-04-08T08:08:00Z</time></trkpt><trkpt lat="51.49626812654452" lon="16.836262026718778"><ele>88.25</ele><time>2026-04-08T08:08:01Z</time></trkpt><trkpt lat="51.49630886021541" lon="16.836070888863805"><ele>88.0</ele><time>2026-04-08T08:08:02Z</time></trkpt><trkpt lat="51.49635611029606" lon="16.83588322296763"><ele>87.75</ele><time>2026-04-08T08:08:03Z</time></trkpt><trkpt lat="51.496423009651956" lon="16.835701638041666"><ele>87.5</ele><time>2026-04-08T08:08:04Z</time></trkpt><trkpt lat="51.496491289073994" lon="16.835512632098162"><ele>87.25</ele><time>2026-04-08T08:08:05Z</time></trkpt><trkpt lat="51.49656519857932" lon="16.835313571381455"><ele>87.0</ele><time>2026-04-08T08:08:06Z</time></trkpt><trkpt lat="51.49664128912874" lon="16.835110080674813"><ele>87.0</ele><time>2026-04-08T08:08:07Z</time></trkpt><trkpt lat="51.49671890673509" lon="16.83490036020205"><ele>87.0</ele><time>2026-04-08T08:08:08Z</time></trkpt><trkpt lat="51.49680114540543" lon="16.834676774597927"><ele>87.0</ele><time>2026-04-08T08:08:09Z</time></trkpt><trkpt lat="51.496882513005694" lon="16.83445555717468"><ele>87.0</ele><time>2026-04-08T08:08:10Z</time></trkpt><trkpt lat="51.496956018946996" lon="16.834209960269025"><ele>87.0</ele><time>2026-04-08T08:08:11Z</time></trkpt><trkpt lat="51.49704309042401" lon="16.83397015030058"><ele>87.0</ele><time>2026-04-08T08:08:12Z</time></trkpt><trkpt lat="51.49714956088536" lon="16.833746091559043"><ele>86.66666666666667</ele><time>2026-04-08T08:08:13Z</time></trkpt><trkpt lat="51.49723376233049" lon="16.833483866400435"><ele>86.33333333333334</ele><time>2026-04-08T08:08:14Z</time></trkpt><trkpt lat="51.497292924883396" lon="16.833214014409773"><ele>86.0</ele><time>2026-04-08T08:08:15Z</time></trkpt><trkpt lat="51.49734591495928" lon="16.832938798252098"><ele>86.0</ele><time>2026-04-08T08:08:16Z</time></trkpt><trkpt lat="51.49739654086962" lon="16.832653156548595"><ele>86.0</ele><time>2026-04-08T08:08:17Z</time></trkpt><trkpt lat="51.49742758755654" lon="16.832410251447865"><ele>86.0</ele><time>2026-04-08T08:08:18Z</time></trkpt><trkpt lat="51.4974754110518" lon="16.832164730889282"><ele>86.0</ele><time>2026-04-08T08:08:19Z</time></trkpt><trkpt lat="51.49752686604425" lon="16.831904210773576"><ele>86.0</ele><time>2026-04-08T08:08:20Z</time></trkpt><trkpt lat="51.49757583860311" lon="16.831645725015427"><ele>86.0</ele><time>2026-04-08T08:08:21Z</time></trkpt><trkpt lat="51.497626135183445" lon="16.83138481545022"><ele>86.33333333333334</ele><time>2026-04-08T08:08:22Z</time></trkpt><trkpt lat="51.4976836213116" lon="16.831116042342646"><ele>86.66666666666667</ele><time>2026-04-08T08:08:23Z</time></trkpt><trkpt lat="51.49775547739868" lon="16.830846347962673"><ele>87.0</ele><time>2026-04-08T08:08:24Z</time></trkpt><trkpt lat="51.4978253235836" lon="16.830604937838373"><ele>87.0</ele><time>2026-04-08T08:08:25Z</time></trkpt><trkpt lat="51.497901840182585" lon="16.830347012867016"><ele>87.0</ele><time>2026-04-08T08:08:26Z</time></trkpt><trkpt lat="51.49797655453005" lon="16.830106061227223"><ele>87.0</ele><time>2026-04-08T08:08:27Z</time></trkpt><trkpt lat="51.498055292718064" lon="16.82988228982932"><ele>87.0</ele><time>2026-04-08T08:08:28Z</time></trkpt><trkpt lat="51.49814095663274" lon="16.829676754716314"><ele>87.0</ele><time>2026-04-08T08:08:29Z</time></trkpt><trkpt lat="51.49822064024323" lon="16.829465830932115"><ele>87.0</ele><time>2026-04-08T08:08:30Z</time></trkpt><trkpt lat="51.498312760126204" lon="16.82924873070154"><ele>87.0</ele><time>2026-04-08T08:08:31Z</time></trkpt><trkpt lat="51.49840054271027" lon="16.8290250718696"><ele>87.0</ele><time>2026-04-08T08:08:32Z</time></trkpt><trkpt lat="51.498483587761115" lon="16.828786330603734"><ele>87.0</ele><time>2026-04-08T08:08:33Z</time></trkpt><trkpt lat="51.498567183254224" lon="16.828540299512333"><ele>87.0</ele><time>2026-04-08T08:08:34Z</time></trkpt><trkpt lat="51.49864962692116" lon="16.828283134673796"><ele>87.0</ele><time>2026-04-08T08:08:35Z</time></trkpt><trkpt lat="51.498732183340834" lon="16.828034636740146"><ele>87.0</ele><time>2026-04-08T08:08:36Z</time></trkpt><trkpt lat="51.4988160711234" lon="16.827776103005352"><ele>87.33333333333333</ele><time>2026-04-08T08:08:37Z</time></trkpt><trkpt lat="51.49890579680908" lon="16.827521200278646"><ele>87.66666666666666</ele><time>2026-04-08T08:08:38Z</time></trkpt><trkpt lat="51.49898890476075" lon="16.827262322654203"><ele>88.0</ele><time>2026-04-08T08:08:39Z</time></trkpt><trkpt lat="51.4990825377129" lon="16.82701329678509"><ele>88.0</ele><time>2026-04-08T08:08:40.001Z</time></trkpt><trkpt lat="51.49917775251355" lon="16.826783877847678"><ele>88.0</ele><time>2026-04-08T08:08:41.001Z</time></trkpt><trkpt lat="51.499264504240074" lon="16.82656825291143"><ele>88.0</ele><time>2026-04-08T08:08:42.001Z</time></trkpt><trkpt lat="51.49935695642269" lon="16.826338705888872"><ele>88.0</ele><time>2026-04-08T08:08:43.001Z</time></trkpt><trkpt lat="51.49944584020178" lon="16.82610669980647"><ele>88.0</ele><time>2026-04-08T08:08:44.001Z</time></trkpt><trkpt lat="51.49953524439674" lon="16.8258735694882"><ele>88.0</ele><time>2026-04-08T08:08:45.001Z</time></trkpt><trkpt lat="51.49962379407375" lon="16.82565035115434"><ele>87.75</ele><time>2026-04-08T08:08:46.001Z</time></trkpt><trkpt lat="51.499709103786806" lon="16.825457909323827"><ele>87.5</ele><time>2026-04-08T08:08:47.001Z</time></trkpt><trkpt lat="51.49978402955361" lon="16.82528139832954"><ele>87.25</ele><time>2026-04-08T08:08:48.001Z</time></trkpt><trkpt lat="51.499859025914226" lon="16.825139366585848"><ele>87.0</ele><time>2026-04-08T08:08:49.001Z</time></trkpt><trkpt lat="51.499949281827945" lon="16.825028976028197"><ele>87.33333333333333</ele><time>2026-04-08T08:08:50.001Z</time></trkpt><trkpt lat="51.50004094118254" lon="16.82495089103317"><ele>87.66666666666667</ele><time>2026-04-08T08:08:51.001Z</time></trkpt><trkpt lat="51.500133618579824" lon="16.82489401277141"><ele>88.0</ele><time>2026-04-08T08:08:52.001Z</time></trkpt><trkpt lat="51.50021482205455" lon="16.824849229458028"><ele>88.33333333333334</ele><time>2026-04-08T08:08:53.001Z</time></trkpt><trkpt lat="51.50026524955574" lon="16.824772927827745"><ele>88.66666666666667</ele><time>2026-04-08T08:08:54.001Z</time></trkpt><trkpt lat="51.5002823866879" lon="16.824647111139978"><ele>89.0</ele><time>2026-04-08T08:08:55.001Z</time></trkpt><trkpt lat="51.50030460979483" lon="16.824492746653636"><ele>89.0</ele><time>2026-04-08T08:08:56.001Z</time></trkpt><trkpt lat="51.50033385532223" lon="16.824321935483383"><ele>89.0</ele><time>2026-04-08T08:08:57.001Z</time></trkpt><trkpt lat="51.50037023939249" lon="16.824147966534493"><ele>89.0</ele><time>2026-04-08T08:08:58.001Z</time></trkpt><trkpt lat="51.50041620360113" lon="16.823970462631728"><ele>89.0</ele><time>2026-04-08T08:08:59.001Z</time></trkpt><trkpt lat="51.5004642716667" lon="16.823798885133577"><ele>89.0</ele><time>2026-04-08T08:09:00.001Z</time></trkpt><trkpt lat="51.50051585095056" lon="16.823628001503266"><ele>89.0</ele><time>2026-04-08T08:09:01.001Z</time></trkpt><trkpt lat="51.50055693434726" lon="16.823436592624333"><ele>89.0</ele><time>2026-04-08T08:09:02.001Z</time></trkpt><trkpt lat="51.500596074326836" lon="16.823234290713245"><ele>89.0</ele><time>2026-04-08T08:09:03.001Z</time></trkpt><trkpt lat="51.5006309242107" lon="16.823024236205924"><ele>88.75</ele><time>2026-04-08T08:09:04.001Z</time></trkpt><trkpt lat="51.50065968479346" lon="16.822802395206466"><ele>88.5</ele><time>2026-04-08T08:09:05.001Z</time></trkpt><trkpt lat="51.50067528534504" lon="16.822565859506092"><ele>88.25</ele><time>2026-04-08T08:09:06.001Z</time></trkpt><trkpt lat="51.5006839452853" lon="16.82232429121474"><ele>88.0</ele><time>2026-04-08T08:09:07.001Z</time></trkpt><trkpt lat="51.50069108561593" lon="16.822084546753302"><ele>88.0</ele><time>2026-04-08T08:09:08.001Z</time></trkpt><trkpt lat="51.50070881356226" lon="16.821849098077813"><ele>88.0</ele><time>2026-04-08T08:09:09.001Z</time></trkpt><trkpt lat="51.500732215772025" lon="16.8216090943673"><ele>88.0</ele><time>2026-04-08T08:09:10.001Z</time></trkpt><trkpt lat="51.50076716612736" lon="16.821367749732307"><ele>88.0</ele><time>2026-04-08T08:09:11.001Z</time></trkpt><trkpt lat="51.500817897254635" lon="16.821126885783805"><ele>88.0</ele><time>2026-04-08T08:09:12.001Z</time></trkpt><trkpt lat="51.50087107944611" lon="16.820887638145937"><ele>88.0</ele><time>2026-04-08T08:09:13.001Z</time></trkpt><trkpt lat="51.5009224625428" lon="16.82064135851592"><ele>88.0</ele><time>2026-04-08T08:09:14.001Z</time></trkpt><trkpt lat="51.50096904611403" lon="16.820391888915637"><ele>88.0</ele><time>2026-04-08T08:09:15.001Z</time></trkpt><trkpt lat="51.501011349561935" lon="16.820136647976813"><ele>88.0</ele><time>2026-04-08T08:09:16.001Z</time></trkpt><trkpt lat="51.501043447279415" lon="16.819880137159227"><ele>88.0</ele><time>2026-04-08T08:09:17.001Z</time></trkpt><trkpt lat="51.501071695303715" lon="16.819618514085793"><ele>88.0</ele><time>2026-04-08T08:09:18.001Z</time></trkpt><trkpt lat="51.5010904742788" lon="16.819346527825573"><ele>88.0</ele><time>2026-04-08T08:09:19.001Z</time></trkpt><trkpt lat="51.501099768391335" lon="16.819072390945276"><ele>87.66666666666666</ele><time>2026-04-08T08:09:20.001Z</time></trkpt><trkpt lat="51.50111191569839" lon="16.81879138947217"><ele>87.33333333333333</ele><time>2026-04-08T08:09:21.001Z</time></trkpt><trkpt lat="51.50111832976261" lon="16.818503476091472"><ele>87.0</ele><time>2026-04-08T08:09:22.001Z</time></trkpt><trkpt lat="51.50112449422918" lon="16.818211663327904"><ele>87.0</ele><time>2026-04-08T08:09:23.001Z</time></trkpt><trkpt lat="51.501127697773455" lon="16.817931457600345"><ele>87.0</ele><time>2026-04-08T08:09:24.001Z</time></trkpt><trkpt lat="51.50113407891806" lon="16.817675258318936"><ele>87.0</ele><time>2026-04-08T08:09:25.001Z</time></trkpt><trkpt lat="51.50114218102029" lon="16.817444373428337"><ele>87.0</ele><time>2026-04-08T08:09:26.001Z</time></trkpt><trkpt lat="51.501144910968776" lon="16.817234073218895"><ele>87.0</ele><time>2026-04-08T08:09:27.001Z</time></trkpt><trkpt lat="51.501150621015796" lon="16.81704223873198"><ele>87.0</ele><time>2026-04-08T08:09:28.001Z</time></trkpt><trkpt lat="51.501156994544985" lon="16.81685741156611"><ele>87.0</ele><time>2026-04-08T08:09:29.001Z</time></trkpt><trkpt lat="51.50116350924353" lon="16.816692707391297"><ele>87.39999999999999</ele><time>2026-04-08T08:09:30.001Z</time></trkpt><trkpt lat="51.50118203474132" lon="16.81655020349173"><ele>87.8</ele><time>2026-04-08T08:09:31.001Z</time></trkpt><trkpt lat="51.501213857964224" lon="16.81644407310104"><ele>88.2</ele><time>2026-04-08T08:09:32.001Z</time></trkpt><trkpt lat="51.50124493281466" lon="16.816294546754627"><ele>88.6</ele><time>2026-04-08T08:09:34.001Z</time></trkpt><trkpt lat="51.50137923131474" lon="16.816358900405273"><ele>89.0</ele><time>2026-04-08T08:09:35.001Z</time></trkpt><trkpt lat="51.501472554636585" lon="16.816351945772265"><ele>89.0</ele><time>2026-04-08T08:09:36.001Z</time></trkpt><trkpt lat="51.50157235167206" lon="16.816325503820455"><ele>89.0</ele><time>2026-04-08T08:09:37.001Z</time></trkpt><trkpt lat="51.50169092747004" lon="16.8163354623148"><ele>89.0</ele><time>2026-04-08T08:09:38.001Z</time></trkpt><trkpt lat="51.501813485184215" lon="16.816326211267413"><ele>89.0</ele><time>2026-04-08T08:09:39.001Z</time></trkpt><trkpt lat="51.50194061690579" lon="16.816316337720966"><ele>89.0</ele><time>2026-04-08T08:09:40.001Z</time></trkpt><trkpt lat="51.502075440383095" lon="16.816305113605807"><ele>89.0</ele><time>2026-04-08T08:09:41.001Z</time></trkpt><trkpt lat="51.50221740809412" lon="16.81626769191919"><ele>89.0</ele><time>2026-04-08T08:09:42.001Z</time></trkpt><trkpt lat="51.502367988283886" lon="16.81626176733233"><ele>89.0</ele><time>2026-04-08T08:09:43.001Z</time></trkpt><trkpt lat="51.50251980532688" lon="16.816247618913714"><ele>89.0</ele><time>2026-04-08T08:09:44.001Z</time></trkpt><trkpt lat="51.50267935475344" lon="16.81624612447913"><ele>89.0</ele><time>2026-04-08T08:09:45.001Z</time></trkpt><trkpt lat="51.502836106468955" lon="16.81621485899482"><ele>89.0</ele><time>2026-04-08T08:09:46.001Z</time></trkpt><trkpt lat="51.50299551945139" lon="16.81621296732722"><ele>88.66666666666667</ele><time>2026-04-08T08:09:47.001Z</time></trkpt><trkpt lat="51.50315743823215" lon="16.816184818932587"><ele>88.33333333333333</ele><time>2026-04-08T08:09:48.001Z</time></trkpt><trkpt lat="51.50331367075074" lon="16.816162469635564"><ele>88.0</ele><time>2026-04-08T08:09:49.001Z</time></trkpt><trkpt lat="51.50345192905351" lon="16.816159281678132"><ele>88.0</ele><time>2026-04-08T08:09:50.001Z</time></trkpt><trkpt lat="51.50358175887166" lon="16.816212029018153"><ele>88.0</ele><time>2026-04-08T08:09:51.001Z</time></trkpt><trkpt lat="51.50371011443619" lon="16.816300494856137"><ele>88.0</ele><time>2026-04-08T08:09:52.001Z</time></trkpt><trkpt lat="51.503851487252426" lon="16.81639897420964"><ele>88.0</ele><time>2026-04-08T08:09:53.001Z</time></trkpt><trkpt lat="51.50399229587401" lon="16.81650436064827"><ele>87.66666666666666</ele><time>2026-04-08T08:09:54.001Z</time></trkpt><trkpt lat="51.504139775136565" lon="16.81660575510818"><ele>87.33333333333333</ele><time>2026-04-08T08:09:55.001Z</time></trkpt><trkpt lat="51.504304897370766" lon="16.816714871200144"><ele>87.0</ele><time>2026-04-08T08:09:56Z</time></trkpt><trkpt lat="51.50445773126298" lon="16.81682544532423"><ele>87.0</ele><time>2026-04-08T08:09:57Z</time></trkpt><trkpt lat="51.504617978004475" lon="16.816945791659904"><ele>87.0</ele><time>2026-04-08T08:09:58Z</time></trkpt><trkpt lat="51.50478151805304" lon="16.817057746334402"><ele>87.0</ele><time>2026-04-08T08:09:59Z</time></trkpt><trkpt lat="51.50494916674549" lon="16.81717401071558"><ele>87.0</ele><time>2026-04-08T08:10:00Z</time></trkpt><trkpt lat="51.50511679721534" lon="16.817297882561476"><ele>87.0</ele><time>2026-04-08T08:10:01Z</time></trkpt><trkpt lat="51.505282585481794" lon="16.81742329782427"><ele>87.0</ele><time>2026-04-08T08:10:02Z</time></trkpt><trkpt lat="51.50544884116292" lon="16.81754682586976"><ele>86.66666666666667</ele><time>2026-04-08T08:10:03Z</time></trkpt><trkpt lat="51.50561947965252" lon="16.817671793070062"><ele>86.33333333333334</ele><time>2026-04-08T08:10:04Z</time></trkpt><trkpt lat="51.50579053238713" lon="16.81779801200033"><ele>86.0</ele><time>2026-04-08T08:10:05Z</time></trkpt><trkpt lat="51.505954224240995" lon="16.81794867083604"><ele>86.0</ele><time>2026-04-08T08:10:06Z</time></trkpt><trkpt lat="51.50612504877845" lon="16.818074942241978"><ele>86.0</ele><time>2026-04-08T08:10:07Z</time></trkpt><trkpt lat="51.506294473470746" lon="16.81819782520421"><ele>86.0</ele><time>2026-04-08T08:10:08Z</time></trkpt><trkpt lat="51.506467016870076" lon="16.818300347376304"><ele>86.33333333333334</ele><time>2026-04-08T08:10:09Z</time></trkpt><trkpt lat="51.50662695778382" lon="16.818426915041687"><ele>86.66666666666667</ele><time>2026-04-08T08:10:10Z</time></trkpt><trkpt lat="51.50679282942058" lon="16.81855043182148"><ele>87.0</ele><time>2026-04-08T08:10:11Z</time></trkpt><trkpt lat="51.506959832884185" lon="16.818667011626093"><ele>87.0</ele><time>2026-04-08T08:10:12Z</time></trkpt><trkpt lat="51.507114457569166" lon="16.818805627987786"><ele>87.0</ele><time>2026-04-08T08:10:13Z</time></trkpt><trkpt lat="51.50726153320474" lon="16.818940694842954"><ele>87.0</ele><time>2026-04-08T08:10:14Z</time></trkpt><trkpt lat="51.50742937717978" lon="16.81904431677403"><ele>87.0</ele><time>2026-04-08T08:10:15Z</time></trkpt><trkpt lat="51.50759853626598" lon="16.81916449939786"><ele>87.0</ele><time>2026-04-08T08:10:16Z</time></trkpt><trkpt lat="51.50775862467097" lon="16.81928141533365"><ele>87.0</ele><time>2026-04-08T08:10:17Z</time></trkpt><trkpt lat="51.50791977857847" lon="16.81940133650489"><ele>86.66666666666667</ele><time>2026-04-08T08:10:18Z</time></trkpt><trkpt lat="51.50808554016657" lon="16.819516132162605"><ele>86.33333333333334</ele><time>2026-04-08T08:10:19Z</time></trkpt><trkpt lat="51.50825079505305" lon="16.81963414907014"><ele>86.0</ele><time>2026-04-08T08:10:20Z</time></trkpt><trkpt lat="51.50841603668896" lon="16.819766778352776"><ele>86.0</ele><time>2026-04-08T08:10:21Z</time></trkpt><trkpt lat="51.50858642288892" lon="16.819895077647562"><ele>86.0</ele><time>2026-04-08T08:10:22Z</time></trkpt><trkpt lat="51.50875990775986" lon="16.82001930479356"><ele>86.0</ele><time>2026-04-08T08:10:23Z</time></trkpt><trkpt lat="51.50892971373691" lon="16.82014662438549"><ele>86.0</ele><time>2026-04-08T08:10:24Z</time></trkpt><trkpt lat="51.50909808148409" lon="16.820266712235885"><ele>86.0</ele><time>2026-04-08T08:10:25Z</time></trkpt><trkpt lat="51.509267231973354" lon="16.82039529817286"><ele>86.0</ele><time>2026-04-08T08:10:26Z</time></trkpt><trkpt lat="51.50942812552064" lon="16.820517890654607"><ele>86.0</ele><time>2026-04-08T08:10:27Z</time></trkpt><trkpt lat="51.50956573903466" lon="16.82064211416917"><ele>86.0</ele><time>2026-04-08T08:10:28Z</time></trkpt><trkpt lat="51.509698520418645" lon="16.820742107244985"><ele>86.0</ele><time>2026-04-08T08:10:29Z</time></trkpt><trkpt lat="51.50983061893277" lon="16.820805908546696"><ele>86.0</ele><time>2026-04-08T08:10:30Z</time></trkpt><trkpt lat="51.509937344918896" lon="16.82088549898324"><ele>86.0</ele><time>2026-04-08T08:10:31.001Z</time></trkpt><trkpt lat="51.510051068239804" lon="16.820925503012585"><ele>86.0</ele><time>2026-04-08T08:10:32.001Z</time></trkpt><trkpt lat="51.510168242210376" lon="16.820957516007372"><ele>86.0</ele><time>2026-04-08T08:10:33.001Z</time></trkpt><trkpt lat="51.510288972955784" lon="16.82095400619142"><ele>86.0</ele><time>2026-04-08T08:10:34.001Z</time></trkpt><trkpt lat="51.51040303584304" lon="16.820975265816195"><ele>86.0</ele><time>2026-04-08T08:10:35.001Z</time></trkpt><trkpt lat="51.51051942461978" lon="16.820954203037235"><ele>86.0</ele><time>2026-04-08T08:10:36.001Z</time></trkpt><trkpt lat="51.51062963500548" lon="16.82088322406745"><ele>86.0</ele><time>2026-04-08T08:10:37.001Z</time></trkpt><trkpt lat="51.51073523258296" lon="16.82081297374891"><ele>86.0</ele><time>2026-04-08T08:10:38.001Z</time></trkpt><trkpt lat="51.51083888564448" lon="16.820747557599482"><ele>86.0</ele><time>2026-04-08T08:10:39.001Z</time></trkpt><trkpt lat="51.510924888651935" lon="16.820665817299666"><ele>86.0</ele><time>2026-04-08T08:10:40.001Z</time></trkpt><trkpt lat="51.51100456163916" lon="16.82061230645172"><ele>86.0</ele><time>2026-04-08T08:10:41.001Z</time></trkpt><trkpt lat="51.511071715536" lon="16.820569682730785"><ele>86.0</ele><time>2026-04-08T08:10:42.001Z</time></trkpt><trkpt lat="51.51115292326607" lon="16.820510004787263"><ele>86.0</ele><time>2026-04-08T08:10:44.001Z</time></trkpt></trkseg><trkseg><trkpt lat="51.51119755935943" lon="16.820447960682046"><ele>85.8</ele><time>2026-04-08T08:30:19Z</time></trkpt><trkpt lat="51.5112877623284" lon="16.820392205773"><ele>85.6</ele><time>2026-04-08T08:30:26Z</time></trkpt><trkpt lat="51.51137101563305" lon="16.82033594715769"><ele>85.4</ele><time>2026-04-08T08:30:28Z</time></trkpt><trkpt lat="51.51144846805988" lon="16.820266947724143"><ele>85.2</ele><time>2026-04-08T08:30:31Z</time></trkpt><trkpt lat="51.5114856769601" lon="16.820157525577706"><ele>85.0</ele><time>2026-04-08T08:30:33Z</time></trkpt><trkpt lat="51.51144254767905" lon="16.820015767210194"><ele>85.0</ele><time>2026-04-08T08:30:35Z</time></trkpt><trkpt lat="51.51139598483255" lon="16.819938128246704"><ele>85.0</ele><time>2026-04-08T08:30:36Z</time></trkpt><trkpt lat="51.51132001746559" lon="16.819777993923704"><ele>85.0</ele><time>2026-04-08T08:30:37Z</time></trkpt><trkpt lat="51.5112610921732" lon="16.819620843848554"><ele>85.0</ele><time>2026-04-08T08:30:38Z</time></trkpt><trkpt lat="51.51119047339788" lon="16.819436272952686"><ele>85.0</ele><time>2026-04-08T08:30:39Z</time></trkpt><trkpt lat="51.511274811441574" lon="16.81917602598428"><ele>85.2</ele><time>2026-04-08T08:30:40Z</time></trkpt><trkpt lat="51.511241517170085" lon="16.819043519144873"><ele>85.4</ele><time>2026-04-08T08:30:41Z</time></trkpt><trkpt lat="51.51123192787973" lon="16.818927688858142"><ele>85.6</ele><time>2026-04-08T08:30:42Z</time></trkpt><trkpt lat="51.51123259537602" lon="16.818804645015025"><ele>85.8</ele><time>2026-04-08T08:30:43Z</time></trkpt><trkpt lat="51.51123332777548" lon="16.818631557805677"><ele>86.0</ele><time>2026-04-08T08:30:44Z</time></trkpt><trkpt lat="51.51124870719416" lon="16.818461945868002"><ele>86.0</ele><time>2026-04-08T08:30:45Z</time></trkpt><trkpt lat="51.51128083573446" lon="16.81836215366886"><ele>86.0</ele><time>2026-04-08T08:30:46Z</time></trkpt><trkpt lat="51.51129778111865" lon="16.818166987333804"><ele>86.0</ele><time>2026-04-08T08:30:47Z</time></trkpt><trkpt lat="51.511327033999095" lon="16.818075210150084"><ele>86.0</ele><time>2026-04-08T08:30:48Z</time></trkpt><trkpt lat="51.51076343555767" lon="16.817581577359075"><ele>86.0</ele><time>2026-04-08T08:30:49Z</time></trkpt><trkpt lat="51.51072408335009" lon="16.817391693561497"><ele>86.0</ele><time>2026-04-08T08:30:50Z</time></trkpt><trkpt lat="51.51069695693247" lon="16.81722418351994"><ele>86.0</ele><time>2026-04-08T08:30:51Z</time></trkpt><trkpt lat="51.510673354955266" lon="16.81708179929928"><ele>86.0</ele><time>2026-04-08T08:30:52Z</time></trkpt><trkpt lat="51.510653762938915" lon="16.816955594294214"><ele>86.0</ele><time>2026-04-08T08:30:53Z</time></trkpt><trkpt lat="51.510649335986216" lon="16.81684406450293"><ele>86.0</ele><time>2026-04-08T08:30:54Z</time></trkpt><trkpt lat="51.51065881768794" lon="16.81673284692996"><ele>86.0</ele><time>2026-04-08T08:30:55Z</time></trkpt><trkpt lat="51.51067574849872" lon="16.81661833593109"><ele>86.0</ele><time>2026-04-08T08:30:56Z</time></trkpt><trkpt lat="51.51068885495429" lon="16.81650646986329"><ele>86.0</ele><time>2026-04-08T08:30:57Z</time></trkpt><trkpt lat="51.51071010452114" lon="16.816377746711535"><ele>86.0</ele><time>2026-04-08T08:31:00Z</time></trkpt><trkpt lat="51.51073978615616" lon="16.816281586145884"><ele>86.0</ele><time>2026-04-08T08:31:02Z</time></trkpt><trkpt lat="51.5108337064768" lon="16.81624558950548"><ele>86.0</ele><time>2026-04-08T08:31:05Z</time></trkpt><trkpt lat="51.51095694318287" lon="16.81617969289069"><ele>86.0</ele><time>2026-04-08T08:31:07Z</time></trkpt><trkpt lat="51.511028083371464" lon="16.816179531304286"><ele>86.0</ele><time>2026-04-08T08:31:08Z</time></trkpt><trkpt lat="51.511093280736304" lon="16.816191794759575"><ele>86.0</ele><time>2026-04-08T08:31:09Z</time></trkpt><trkpt lat="51.51118200802851" lon="16.81625584788008"><ele>86.0</ele><time>2026-04-08T08:31:11Z</time></trkpt><trkpt lat="51.51126275318422" lon="16.816410449613166"><ele>86.0</ele><time>2026-04-08T08:31:13Z</time></trkpt><trkpt lat="51.51131152096567" lon="16.816494019136453"><ele>86.0</ele><time>2026-04-08T08:31:14Z</time></trkpt><trkpt lat="51.511319166072134" lon="16.81667944736256"><ele>86.0</ele><time>2026-04-08T08:31:16Z</time></trkpt><trkpt lat="51.511274829211025" lon="16.81682837184069"><ele>86.0</ele><time>2026-04-08T08:31:18Z</time></trkpt><trkpt lat="51.51123616265217" lon="16.816915177340437"><ele>86.0</ele><time>2026-04-08T08:31:19Z</time></trkpt><trkpt lat="51.51115934858913" lon="16.817089850700164"><ele>86.0</ele><time>2026-04-08T08:31:21Z</time></trkpt><trkpt lat="51.511111354077364" lon="16.81718684679828"><ele>86.0</ele><time>2026-04-08T08:31:22Z</time></trkpt><trkpt lat="51.51107526315062" lon="16.81728790985989"><ele>86.0</ele><time>2026-04-08T08:31:23Z</time></trkpt><trkpt lat="51.51103904060922" lon="16.817393544662167"><ele>86.0</ele><time>2026-04-08T08:31:25Z</time></trkpt><trkpt lat="51.51098760908339" lon="16.817456842588445"><ele>86.0</ele><time>2026-04-08T08:31:27Z</time></trkpt><trkpt lat="51.51092976428999" lon="16.817542874090446"><ele>86.0</ele><time>2026-04-08T08:31:29Z</time></trkpt><trkpt lat="51.51094788198126" lon="16.81769722345614"><ele>85.83333333333334</ele><time>2026-04-08T08:31:31Z</time></trkpt><trkpt lat="51.510992461094354" lon="16.817864330460825"><ele>85.66666666666667</ele><time>2026-04-08T08:31:33Z</time></trkpt><trkpt lat="51.511018033082635" lon="16.817957986315776"><ele>85.5</ele><time>2026-04-08T08:31:34Z</time></trkpt><trkpt lat="51.51104076895754" lon="16.818059432242656"><ele>85.33333333333333</ele><time>2026-04-08T08:31:35Z</time></trkpt><trkpt lat="51.511056740441305" lon="16.81815976491993"><ele>85.16666666666666</ele><time>2026-04-08T08:31:36Z</time></trkpt><trkpt lat="51.51109580294724" lon="16.8183040311262"><ele>85.0</ele><time>2026-04-08T08:31:38Z</time></trkpt><trkpt lat="51.511115872391166" lon="16.818419454113336"><ele>85.0</ele><time>2026-04-08T08:31:40Z</time></trkpt><trkpt lat="51.511193773686706" lon="16.818558918087398"><ele>85.0</ele><time>2026-04-08T08:31:44Z</time></trkpt><trkpt lat="51.51125930107444" lon="16.81847437940153"><ele>85.0</ele><time>2026-04-08T08:31:53Z</time></trkpt><trkpt lat="51.511202955528375" lon="16.818425177216767"><ele>85.0</ele><time>2026-04-08T08:31:54Z</time></trkpt><trkpt lat="51.51136399612149" lon="16.818323289509642"><ele>85.0</ele><time>2026-04-08T08:31:56Z</time></trkpt><trkpt lat="51.51144634526817" lon="16.818243482726604"><ele>85.33333333333333</ele><time>2026-04-08T08:31:58Z</time></trkpt><trkpt lat="51.511488673865486" lon="16.818160422243793"><ele>85.66666666666666</ele><time>2026-04-08T08:31:59Z</time></trkpt><trkpt lat="51.51152453744295" lon="16.818066478164177"><ele>86.0</ele><time>2026-04-08T08:32:00Z</time></trkpt><trkpt lat="51.511583337106046" lon="16.817961518762193"><ele>86.33333333333333</ele><time>2026-04-08T08:32:01Z</time></trkpt><trkpt lat="51.51162627115066" lon="16.81784199853124"><ele>86.66666666666667</ele><time>2026-04-08T08:32:02Z</time></trkpt><trkpt lat="51.511667977632946" lon="16.81765487371816"><ele>87.0</ele><time>2026-04-08T08:32:04Z</time></trkpt><trkpt lat="51.51170646832941" lon="16.81754812314705"><ele>87.0</ele><time>2026-04-08T08:32:05Z</time></trkpt><trkpt lat="51.51173898218895" lon="16.817448302544967"><ele>87.0</ele><time>2026-04-08T08:32:06Z</time></trkpt><trkpt lat="51.51176138185851" lon="16.817270470447365"><ele>87.0</ele><time>2026-04-08T08:32:08Z</time></trkpt><trkpt lat="51.511799825608506" lon="16.817184169992565"><ele>87.0</ele><time>2026-04-08T08:32:09Z</time></trkpt><trkpt lat="51.51184070265915" lon="16.81710540353444"><ele>87.0</ele><time>2026-04-08T08:32:10Z</time></trkpt><trkpt lat="51.511902959228365" lon="16.8169272084567"><ele>87.0</ele><time>2026-04-08T08:32:12Z</time></trkpt><trkpt lat="51.51193655084196" lon="16.81683225213654"><ele>86.8</ele><time>2026-04-08T08:32:13Z</time></trkpt><trkpt lat="51.511991278094726" lon="16.81664943627593"><ele>86.6</ele><time>2026-04-08T08:32:15Z</time></trkpt><trkpt lat="51.512007109940335" lon="16.816535272959747"><ele>86.39999999999999</ele><time>2026-04-08T08:32:16Z</time></trkpt><trkpt lat="51.51203330412631" lon="16.816418512007207"><ele>86.19999999999999</ele><time>2026-04-08T08:32:16.998Z</time></trkpt><trkpt lat="51.51208221154517" lon="16.81630178963647"><ele>86.0</ele><time>2026-04-08T08:32:17.998Z</time></trkpt><trkpt lat="51.512121488390896" lon="16.816156960305527"><ele>85.83333333333334</ele><time>2026-04-08T08:32:18.998Z</time></trkpt><trkpt lat="51.51215462754934" lon="16.816002394153788"><ele>85.66666666666667</ele><time>2026-04-08T08:32:19.998Z</time></trkpt><trkpt lat="51.5121812878736" lon="16.815872213777897"><ele>85.5</ele><time>2026-04-08T08:32:20.998Z</time></trkpt><trkpt lat="51.51221878784661" lon="16.81578076515298"><ele>85.33333333333333</ele><time>2026-04-08T08:32:21.998Z</time></trkpt><trkpt lat="51.512268368983435" lon="16.81569251652821"><ele>85.16666666666666</ele><time>2026-04-08T08:32:22.998Z</time></trkpt><trkpt lat="51.51232902066329" lon="16.815580636886413"><ele>85.0</ele><time>2026-04-08T08:32:23.998Z</time></trkpt><trkpt lat="51.51239195915901" lon="16.81545749357304"><ele>85.0</ele><time>2026-04-08T08:32:24.998Z</time></trkpt><trkpt lat="51.51247102078551" lon="16.815330762272637"><ele>85.0</ele><time>2026-04-08T08:32:25.998Z</time></trkpt><trkpt lat="51.512556581615215" lon="16.815205654155438"><ele>85.0</ele><time>2026-04-08T08:32:26.998Z</time></trkpt><trkpt lat="51.512636436603024" lon="16.81507231859956"><ele>85.0</ele><time>2026-04-08T08:32:27.998Z</time></trkpt><trkpt lat="51.512702423309825" lon="16.814946290267017"><ele>85.0</ele><time>2026-04-08T08:32:28.998Z</time></trkpt><trkpt lat="51.51277365552885" lon="16.81484942181818"><ele>85.0</ele><time>2026-04-08T08:32:29.998Z</time></trkpt><trkpt lat="51.512847812528655" lon="16.81474329325902"><ele>85.0</ele><time>2026-04-08T08:32:30.998Z</time></trkpt><trkpt lat="51.512912265098635" lon="16.814656492545645"><ele>85.0</ele><time>2026-04-08T08:32:31.998Z</time></trkpt><trkpt lat="51.51297492350008" lon="16.814560653664515"><ele>85.0</ele><time>2026-04-08T08:32:32.999Z</time></trkpt><trkpt lat="51.5130568410678" lon="16.814448240474373"><ele>85.0</ele><time>2026-04-08T08:32:33.999Z</time></trkpt><trkpt lat="51.513148503148926" lon="16.814350880462445"><ele>85.25</ele><time>2026-04-08T08:32:34.999Z</time></trkpt><trkpt lat="51.51324707609894" lon="16.814254153651756"><ele>85.5</ele><time>2026-04-08T08:32:35.999Z</time></trkpt><trkpt lat="51.51334628505785" lon="16.814156720669605"><ele>85.75</ele><time>2026-04-08T08:32:36.999Z</time></trkpt><trkpt lat="51.5134449390573" lon="16.814045721270848"><ele>86.0</ele><time>2026-04-08T08:32:37.999Z</time></trkpt><trkpt lat="51.51354639414297" lon="16.813921419084053"><ele>86.0</ele><time>2026-04-08T08:32:38.999Z</time></trkpt><trkpt lat="51.51365015173579" lon="16.813803875565373"><ele>86.0</ele><time>2026-04-08T08:32:39.999Z</time></trkpt><trkpt lat="51.51375333828516" lon="16.813703158116603"><ele>86.0</ele><time>2026-04-08T08:32:40.999Z</time></trkpt><trkpt lat="51.51386256515249" lon="16.81360203167064"><ele>86.0</ele><time>2026-04-08T08:32:41.999Z</time></trkpt><trkpt lat="51.513973421043275" lon="16.813481152613853"><ele>85.75</ele><time>2026-04-08T08:32:42.999Z</time></trkpt><trkpt lat="51.514092785706495" lon="16.813372242624332"><ele>85.5</ele><time>2026-04-08T08:32:43.999Z</time></trkpt><trkpt lat="51.51422025238898" lon="16.813257874544238"><ele>85.25</ele><time>2026-04-08T08:32:44.999Z</time></trkpt><trkpt lat="51.51434312595721" lon="16.81314610057514"><ele>85.0</ele><time>2026-04-08T08:32:45.999Z</time></trkpt><trkpt lat="51.51446613582521" lon="16.81302750209981"><ele>85.25</ele><time>2026-04-08T08:32:46.999Z</time></trkpt><trkpt lat="51.51458605952815" lon="16.812913755438306"><ele>85.5</ele><time>2026-04-08T08:32:47.999Z</time></trkpt><trkpt lat="51.514712804144544" lon="16.81281944957234"><ele>85.75</ele><time>2026-04-08T08:32:48.999Z</time></trkpt><trkpt lat="51.514838657911014" lon="16.812707768401694"><ele>86.0</ele><time>2026-04-08T08:32:49.999Z</time></trkpt><trkpt lat="51.5149647048995" lon="16.8126061233743"><ele>86.0</ele><time>2026-04-08T08:32:50.999Z</time></trkpt><trkpt lat="51.51509580559631" lon="16.81251712527696"><ele>86.0</ele><time>2026-04-08T08:32:51.999Z</time></trkpt><trkpt lat="51.51521195063195" lon="16.812432006359206"><ele>86.0</ele><time>2026-04-08T08:32:52.999Z</time></trkpt><trkpt lat="51.515316948145106" lon="16.81236421880045"><ele>86.0</ele><time>2026-04-08T08:32:53.999Z</time></trkpt><trkpt lat="51.51541684538331" lon="16.81227708526424"><ele>86.25</ele><time>2026-04-08T08:32:54.999Z</time></trkpt><trkpt lat="51.51552658069618" lon="16.812199226000235"><ele>86.5</ele><time>2026-04-08T08:32:55.999Z</time></trkpt><trkpt lat="51.51564465543612" lon="16.812122738246927"><ele>86.75</ele><time>2026-04-08T08:32:56.999Z</time></trkpt><trkpt lat="51.515766528385264" lon="16.81204544556669"><ele>87.0</ele><time>2026-04-08T08:32:57.999Z</time></trkpt><trkpt lat="51.51587544833881" lon="16.811974471869902"><ele>87.0</ele><time>2026-04-08T08:32:58.999Z</time></trkpt><trkpt lat="51.51597621395275" lon="16.81190353189933"><ele>87.0</ele><time>2026-04-08T08:32:59.999Z</time></trkpt><trkpt lat="51.5160888723117" lon="16.811833191869333"><ele>87.0</ele><time>2026-04-08T08:33:00.999Z</time></trkpt><trkpt lat="51.51621100285154" lon="16.811755445114148"><ele>87.0</ele><time>2026-04-08T08:33:01.999Z</time></trkpt><trkpt lat="51.51633275479484" lon="16.811687847364315"><ele>87.19999999999999</ele><time>2026-04-08T08:33:02.999Z</time></trkpt><trkpt lat="51.51644178024059" lon="16.81164282562039"><ele>87.4</ele><time>2026-04-08T08:33:03.999Z</time></trkpt><trkpt lat="51.51652376209914" lon="16.811594257389633"><ele>87.6</ele><time>2026-04-08T08:33:04.999Z</time></trkpt><trkpt lat="51.51659192496911" lon="16.811525648976236"><ele>87.80000000000001</ele><time>2026-04-08T08:33:05.999Z</time></trkpt><trkpt lat="51.51663058556032" lon="16.811342340754692"><ele>88.0</ele><time>2026-04-08T08:33:07.999Z</time></trkpt><trkpt lat="51.51662770851137" lon="16.81121297322474"><ele>88.0</ele><time>2026-04-08T08:33:08.999Z</time></trkpt><trkpt lat="51.51663056718847" lon="16.811065922547154"><ele>88.0</ele><time>2026-04-08T08:33:09.999Z</time></trkpt><trkpt lat="51.51665427247078" lon="16.810908335550554"><ele>88.0</ele><time>2026-04-08T08:33:10.999Z</time></trkpt><trkpt lat="51.51665411532087" lon="16.8107208708139"><ele>88.0</ele><time>2026-04-08T08:33:11.999Z</time></trkpt><trkpt lat="51.51667186977537" lon="16.81052853064795"><ele>88.0</ele><time>2026-04-08T08:33:12.999Z</time></trkpt><trkpt lat="51.51670679657931" lon="16.810326828225655"><ele>87.75</ele><time>2026-04-08T08:33:13.999Z</time></trkpt><trkpt lat="51.51672764963706" lon="16.810112180008293"><ele>87.5</ele><time>2026-04-08T08:33:14.999Z</time></trkpt><trkpt lat="51.51674874600929" lon="16.80989502785589"><ele>87.25</ele><time>2026-04-08T08:33:15.999Z</time></trkpt><trkpt lat="51.51675958060861" lon="16.809673856007088"><ele>87.0</ele><time>2026-04-08T08:33:16.999Z</time></trkpt><trkpt lat="51.51678086138858" lon="16.809441720034418"><ele>87.75</ele><time>2026-04-08T08:33:17.999Z</time></trkpt><trkpt lat="51.516803240487846" lon="16.80920829399517"><ele>88.5</ele><time>2026-04-08T08:33:18.999Z</time></trkpt><trkpt lat="51.51682976321126" lon="16.808973396443243"><ele>89.25</ele><time>2026-04-08T08:33:19.999Z</time></trkpt><trkpt lat="51.51687191716869" lon="16.80875384290768"><ele>90.0</ele><time>2026-04-08T08:33:20.999Z</time></trkpt><trkpt lat="51.51690156234465" lon="16.80854815507089"><ele>91.0</ele><time>2026-04-08T08:33:21.999Z</time></trkpt><trkpt lat="51.51697253224927" lon="16.808370764182733"><ele>92.0</ele><time>2026-04-08T08:33:22.999Z</time></trkpt><trkpt lat="51.51703675434615" lon="16.808177398620014"><ele>93.0</ele><time>2026-04-08T08:33:23.999Z</time></trkpt><trkpt lat="51.51710661779956" lon="16.80797419653462"><ele>94.0</ele><time>2026-04-08T08:33:24.999Z</time></trkpt><trkpt lat="51.51717209875078" lon="16.807747194041298"><ele>94.0</ele><time>2026-04-08T08:33:25.999Z</time></trkpt><trkpt lat="51.51724964693434" lon="16.807507406711174"><ele>94.0</ele><time>2026-04-08T08:33:26.999Z</time></trkpt><trkpt lat="51.517322583097965" lon="16.807262916953164"><ele>94.0</ele><time>2026-04-08T08:33:27.999Z</time></trkpt><trkpt lat="51.51740558965345" lon="16.807009110157573"><ele>94.33333333333333</ele><time>2026-04-08T08:33:28.999Z</time></trkpt><trkpt lat="51.51748068970817" lon="16.80675204279628"><ele>94.66666666666667</ele><time>2026-04-08T08:33:29.999Z</time></trkpt><trkpt lat="51.517573324588" lon="16.806513536643514"><ele>95.0</ele><time>2026-04-08T08:33:30.999Z</time></trkpt><trkpt lat="51.51765646751227" lon="16.80623971099442"><ele>96.66666666666667</ele><time>2026-04-08T08:33:31.999Z</time></trkpt><trkpt lat="51.51773731102301" lon="16.805969981157237"><ele>98.33333333333334</ele><time>2026-04-08T08:33:32.999Z</time></trkpt><trkpt lat="51.51781775381361" lon="16.805702769849383"><ele>100.0</ele><time>2026-04-08T08:33:33.999Z</time></trkpt><trkpt lat="51.5178928463235" lon="16.805451130875507"><ele>99.0</ele><time>2026-04-08T08:33:34.999Z</time></trkpt><trkpt lat="51.5179675554635" lon="16.805201503170228"><ele>98.0</ele><time>2026-04-08T08:33:35.999Z</time></trkpt><trkpt lat="51.51804415792957" lon="16.80494684480216"><ele>97.0</ele><time>2026-04-08T08:33:36.999Z</time></trkpt><trkpt lat="51.51811911418669" lon="16.804695479979596"><ele>97.0</ele><time>2026-04-08T08:33:37.999Z</time></trkpt><trkpt lat="51.51819249826406" lon="16.804449000514182"><ele>97.0</ele><time>2026-04-08T08:33:38.999Z</time></trkpt><trkpt lat="51.51826745652185" lon="16.80419983725024"><ele>97.0</ele><time>2026-04-08T08:33:39.999Z</time></trkpt><trkpt lat="51.51834199821546" lon="16.803950948631044"><ele>98.33333333333334</ele><time>2026-04-08T08:33:40.999Z</time></trkpt><trkpt lat="51.518416079623734" lon="16.8037032658366"><ele>99.66666666666666</ele><time>2026-04-08T08:33:41.999Z</time></trkpt><trkpt lat="51.51849579401985" lon="16.80343878558655"><ele>101.0</ele><time>2026-04-08T08:33:42.999Z</time></trkpt><trkpt lat="51.51857348529972" lon="16.803177772642144"><ele>101.0</ele><time>2026-04-08T08:33:43.999Z</time></trkpt><trkpt lat="51.518654657090444" lon="16.802906930119004"><ele>101.0</ele><time>2026-04-08T08:33:44.999Z</time></trkpt><trkpt lat="51.51873406371374" lon="16.802641457478494"><ele>101.0</ele><time>2026-04-08T08:33:45.999Z</time></trkpt><trkpt lat="51.51881600847338" lon="16.80236883537719"><ele>101.33333333333333</ele><time>2026-04-08T08:33:46.999Z</time></trkpt><trkpt lat="51.51889295700044" lon="16.8021091769407"><ele>101.66666666666666</ele><time>2026-04-08T08:33:48Z</time></trkpt><trkpt lat="51.51897171254096" lon="16.801846442957086"><ele>102.0</ele><time>2026-04-08T08:33:49Z</time></trkpt><trkpt lat="51.519047535765324" lon="16.801594907914165"><ele>102.0</ele><time>2026-04-08T08:33:50Z</time></trkpt><trkpt lat="51.51911143082651" lon="16.80133456676767"><ele>102.0</ele><time>2026-04-08T08:33:51Z</time></trkpt><trkpt lat="51.51918938595228" lon="16.80108973586988"><ele>102.0</ele><time>2026-04-08T08:33:52Z</time></trkpt><trkpt lat="51.5192610385255" lon="16.80084354193461"><ele>102.0</ele><time>2026-04-08T08:33:53Z</time></trkpt><trkpt lat="51.51933801614395" lon="16.80059478147991"><ele>102.0</ele><time>2026-04-08T08:33:54Z</time></trkpt><trkpt lat="51.51941978105545" lon="16.80034978844779"><ele>102.0</ele><time>2026-04-08T08:33:55Z</time></trkpt><trkpt lat="51.51949531105283" lon="16.80008891924155"><ele>102.0</ele><time>2026-04-08T08:33:56Z</time></trkpt><trkpt lat="51.51957269129752" lon="16.799827541514563"><ele>102.0</ele><time>2026-04-08T08:33:57Z</time></trkpt><trkpt lat="51.5196570635165" lon="16.799570828782144"><ele>102.0</ele><time>2026-04-08T08:33:58Z</time></trkpt><trkpt lat="51.519743512073035" lon="16.799310242049547"><ele>103.0</ele><time>2026-04-08T08:33:59Z</time></trkpt><trkpt lat="51.5198242055567" lon="16.799038933300423"><ele>104.0</ele><time>2026-04-08T08:34:00Z</time></trkpt><trkpt lat="51.519891841898854" lon="16.79877594756192"><ele>105.0</ele><time>2026-04-08T08:34:01Z</time></trkpt><trkpt lat="51.519961759078946" lon="16.798529349249904"><ele>105.66666666666666</ele><time>2026-04-08T08:34:02Z</time></trkpt><trkpt lat="51.52003514173897" lon="16.798276548953183"><ele>106.33333333333333</ele><time>2026-04-08T08:34:03Z</time></trkpt><trkpt lat="51.5201197743264" lon="16.798032207800816"><ele>107.0</ele><time>2026-04-08T08:34:04Z</time></trkpt><trkpt lat="51.52020035294943" lon="16.797775628038163"><ele>107.33333333333333</ele><time>2026-04-08T08:34:05Z</time></trkpt><trkpt lat="51.52027267178457" lon="16.797509125462557"><ele>107.66666666666666</ele><time>2026-04-08T08:34:06Z</time></trkpt><trkpt lat="51.520355548907126" lon="16.797246184479327"><ele>108.0</ele><time>2026-04-08T08:34:07Z</time></trkpt><trkpt lat="51.520420758810765" lon="16.796966725020877"><ele>106.66666666666666</ele><time>2026-04-08T08:34:08Z</time></trkpt><trkpt lat="51.52049937559526" lon="16.79669693295327"><ele>105.33333333333333</ele><time>2026-04-08T08:34:09Z</time></trkpt><trkpt lat="51.52057720668435" lon="16.796428936088468"><ele>104.0</ele><time>2026-04-08T08:34:10Z</time></trkpt><trkpt lat="51.52065801854577" lon="16.79615296295632"><ele>102.66666666666666</ele><time>2026-04-08T08:34:11Z</time></trkpt><trkpt lat="51.52073301847074" lon="16.795895252522943"><ele>101.33333333333334</ele><time>2026-04-08T08:34:12Z</time></trkpt><trkpt lat="51.520801208181965" lon="16.795659855413916"><ele>100.0</ele><time>2026-04-08T08:34:13Z</time></trkpt><trkpt lat="51.52087040212062" lon="16.79542149362321"><ele>100.0</ele><time>2026-04-08T08:34:14Z</time></trkpt><trkpt lat="51.52094167432366" lon="16.795176776039558"><ele>100.0</ele><time>2026-04-08T08:34:15Z</time></trkpt><trkpt lat="51.521018910308804" lon="16.794911466670424"><ele>100.0</ele><time>2026-04-08T08:34:16Z</time></trkpt><trkpt lat="51.52109767476237" lon="16.79464259735818"><ele>99.33333333333334</ele><time>2026-04-08T08:34:17Z</time></trkpt><trkpt lat="51.52117477505799" lon="16.79437936386918"><ele>98.66666666666666</ele><time>2026-04-08T08:34:18Z</time></trkpt><trkpt lat="51.5212538146647" lon="16.794107337561655"><ele>98.0</ele><time>2026-04-08T08:34:19Z</time></trkpt><trkpt lat="51.521369931076656" lon="16.793843281614908"><ele>98.0</ele><time>2026-04-08T08:34:20Z</time></trkpt><trkpt lat="51.52147138706131" lon="16.79358093793673"><ele>98.0</ele><time>2026-04-08T08:34:21Z</time></trkpt><trkpt lat="51.521582029378344" lon="16.793325918020216"><ele>98.0</ele><time>2026-04-08T08:34:22Z</time></trkpt><trkpt lat="51.52167445912013" lon="16.7930383942265"><ele>97.66666666666666</ele><time>2026-04-08T08:34:22.998Z</time></trkpt><trkpt lat="51.521762590998264" lon="16.79274449435921"><ele>97.33333333333334</ele><time>2026-04-08T08:34:23.998Z</time></trkpt><trkpt lat="51.52184919223765" lon="16.7924505421103"><ele>97.0</ele><time>2026-04-08T08:34:24.998Z</time></trkpt><trkpt lat="51.521920356898214" lon="16.79215377167428"><ele>96.66666666666667</ele><time>2026-04-08T08:34:25.998Z</time></trkpt><trkpt lat="51.52201958619459" lon="16.791866075005114"><ele>96.33333333333334</ele><time>2026-04-08T08:34:26.998Z</time></trkpt><trkpt lat="51.522107058182556" lon="16.791576649972537"><ele>96.0</ele><time>2026-04-08T08:34:27.998Z</time></trkpt><trkpt lat="51.522197237215714" lon="16.79129078873489"><ele>97.0</ele><time>2026-04-08T08:34:28.998Z</time></trkpt><trkpt lat="51.522288380140076" lon="16.79099809186875"><ele>98.0</ele><time>2026-04-08T08:34:29.998Z</time></trkpt><trkpt lat="51.5223770688888" lon="16.790710109282106"><ele>99.0</ele><time>2026-04-08T08:34:30.998Z</time></trkpt><trkpt lat="51.52246638682894" lon="16.790419085377362"><ele>100.0</ele><time>2026-04-08T08:34:31.998Z</time></trkpt><trkpt lat="51.522555346429186" lon="16.79012790711627"><ele>101.0</ele><time>2026-04-08T08:34:32.998Z</time></trkpt><trkpt lat="51.522642424309645" lon="16.789845160173563"><ele>102.0</ele><time>2026-04-08T08:34:33.998Z</time></trkpt><trkpt lat="51.52271632106087" lon="16.78955281731311"><ele>102.66666666666666</ele><time>2026-04-08T08:34:34.998Z</time></trkpt><trkpt lat="51.52280578386526" lon="16.789263533937696"><ele>103.33333333333333</ele><time>2026-04-08T08:34:35.999Z</time></trkpt><trkpt lat="51.52289251633355" lon="16.78897158073026"><ele>104.0</ele><time>2026-04-08T08:34:36.999Z</time></trkpt><trkpt lat="51.52298812986488" lon="16.788716092686155"><ele>105.0</ele><time>2026-04-08T08:34:37.999Z</time></trkpt><trkpt lat="51.523069430941014" lon="16.788446921227596"><ele>106.0</ele><time>2026-04-08T08:34:38.999Z</time></trkpt><trkpt lat="51.52315300376839" lon="16.788171592828984"><ele>107.0</ele><time>2026-04-08T08:34:39.999Z</time></trkpt><trkpt lat="51.52322488969761" lon="16.787876884293755"><ele>107.66666666666666</ele><time>2026-04-08T08:34:40.999Z</time></trkpt><trkpt lat="51.52332051433859" lon="16.7876135331326"><ele>108.33333333333334</ele><time>2026-04-08T08:34:41.999Z</time></trkpt><trkpt lat="51.523390491415824" lon="16.787322415485104"><ele>109.0</ele><time>2026-04-08T08:34:42.999Z</time></trkpt><trkpt lat="51.52347589325873" lon="16.787048702896367"><ele>108.0</ele><time>2026-04-08T08:34:43.999Z</time></trkpt><trkpt lat="51.523557946560956" lon="16.786789139425114"><ele>107.0</ele><time>2026-04-08T08:34:44.999Z</time></trkpt><trkpt lat="51.52363217947016" lon="16.786548909275336"><ele>106.0</ele><time>2026-04-08T08:34:45.999Z</time></trkpt><trkpt lat="51.52370291640601" lon="16.786306423648913"><ele>105.33333333333334</ele><time>2026-04-08T08:34:46.999Z</time></trkpt><trkpt lat="51.52377273554271" lon="16.78605308174863"><ele>104.66666666666666</ele><time>2026-04-08T08:34:47.999Z</time></trkpt><trkpt lat="51.52385219731412" lon="16.78579412952497"><ele>104.0</ele><time>2026-04-08T08:34:48.999Z</time></trkpt><trkpt lat="51.52392991704257" lon="16.785525940657173"><ele>103.0</ele><time>2026-04-08T08:34:49.999Z</time></trkpt><trkpt lat="51.52400485400549" lon="16.785261522790258"><ele>102.0</ele><time>2026-04-08T08:34:50.999Z</time></trkpt><trkpt lat="51.52407793755348" lon="16.78498402073568"><ele>101.0</ele><time>2026-04-08T08:34:51.999Z</time></trkpt><trkpt lat="51.524157117600794" lon="16.784716623337072"><ele>100.66666666666666</ele><time>2026-04-08T08:34:52.999Z</time></trkpt><trkpt lat="51.52423447892907" lon="16.784442007967865"><ele>100.33333333333334</ele><time>2026-04-08T08:34:53.999Z</time></trkpt><trkpt lat="51.52430968470557" lon="16.78415577517351"><ele>100.0</ele><time>2026-04-08T08:34:54.999Z</time></trkpt><trkpt lat="51.524408466250286" lon="16.783896096085495"><ele>99.66666666666667</ele><time>2026-04-08T08:34:55.999Z</time></trkpt><trkpt lat="51.52448430430587" lon="16.783606858038805"><ele>99.33333333333334</ele><time>2026-04-08T08:34:56.999Z</time></trkpt><trkpt lat="51.524570842929364" lon="16.783326204822192"><ele>99.0</ele><time>2026-04-08T08:34:57.999Z</time></trkpt><trkpt lat="51.52465017233763" lon="16.7830518382949"><ele>100.66666666666666</ele><time>2026-04-08T08:34:58.999Z</time></trkpt><trkpt lat="51.52475159877136" lon="16.78277607501759"><ele>102.33333333333333</ele><time>2026-04-08T08:34:59.999Z</time></trkpt><trkpt lat="51.52483838539057" lon="16.78249504304473"><ele>104.0</ele><time>2026-04-08T08:35:00.999Z</time></trkpt><trkpt lat="51.524926355180355" lon="16.782209342537197"><ele>104.0</ele><time>2026-04-08T08:35:01.999Z</time></trkpt><trkpt lat="51.52501523376629" lon="16.781916665137583"><ele>104.0</ele><time>2026-04-08T08:35:03Z</time></trkpt><trkpt lat="51.525088503391615" lon="16.78162034442639"><ele>104.0</ele><time>2026-04-08T08:35:04Z</time></trkpt><trkpt lat="51.525178325114666" lon="16.781340661391024"><ele>103.66666666666666</ele><time>2026-04-08T08:35:05Z</time></trkpt><trkpt lat="51.5252598974623" lon="16.781066136651788"><ele>103.33333333333334</ele><time>2026-04-08T08:35:06Z</time></trkpt><trkpt lat="51.52534351022415" lon="16.780801602010996"><ele>103.0</ele><time>2026-04-08T08:35:07Z</time></trkpt><trkpt lat="51.525421956598485" lon="16.78053658585233"><ele>103.0</ele><time>2026-04-08T08:35:08Z</time></trkpt><trkpt lat="51.52550150369119" lon="16.7802758582126"><ele>103.0</ele><time>2026-04-08T08:35:09Z</time></trkpt><trkpt lat="51.52558138758625" lon="16.780019467726127"><ele>103.0</ele><time>2026-04-08T08:35:10Z</time></trkpt><trkpt lat="51.525663829237686" lon="16.779768091817832"><ele>103.0</ele><time>2026-04-08T08:35:11Z</time></trkpt><trkpt lat="51.5257495877575" lon="16.779511849301095"><ele>103.0</ele><time>2026-04-08T08:35:12Z</time></trkpt><trkpt lat="51.525831756416686" lon="16.779267008240378"><ele>103.0</ele><time>2026-04-08T08:35:13Z</time></trkpt><trkpt lat="51.5259131173496" lon="16.779019066184944"><ele>102.0</ele><time>2026-04-08T08:35:14Z</time></trkpt><trkpt lat="51.52598834019323" lon="16.778788210811452"><ele>101.0</ele><time>2026-04-08T08:35:15Z</time></trkpt><trkpt lat="51.526056583269344" lon="16.778583382386937"><ele>100.0</ele><time>2026-04-08T08:35:16Z</time></trkpt><trkpt lat="51.52610386532643" lon="16.778389613110477"><ele>99.0</ele><time>2026-04-08T08:35:17Z</time></trkpt><trkpt lat="51.52615348145861" lon="16.778204947378534"><ele>99.0</ele><time>2026-04-08T08:35:18Z</time></trkpt><trkpt lat="51.52620148108699" lon="16.778012736494038"><ele>99.0</ele><time>2026-04-08T08:35:19Z</time></trkpt><trkpt lat="51.52623015480576" lon="16.777803370068195"><ele>99.0</ele><time>2026-04-08T08:35:20Z</time></trkpt><trkpt lat="51.52624159612769" lon="16.777589750607465"><ele>99.0</ele><time>2026-04-08T08:35:21Z</time></trkpt><trkpt lat="51.52623356895552" lon="16.777402134059347"><ele>98.0</ele><time>2026-04-08T08:35:22Z</time></trkpt><trkpt lat="51.52624327034689" lon="16.77721173912231"><ele>97.0</ele><time>2026-04-08T08:35:23Z</time></trkpt><trkpt lat="51.526264710045325" lon="16.77701185097473"><ele>96.0</ele><time>2026-04-08T08:35:24Z</time></trkpt><trkpt lat="51.526279288969185" lon="16.776786530164973"><ele>95.0</ele><time>2026-04-08T08:35:25Z</time></trkpt><trkpt lat="51.52630361008315" lon="16.77654558980703"><ele>93.5</ele><time>2026-04-08T08:35:26Z</time></trkpt><trkpt lat="51.526349781730076" lon="16.77632021651322"><ele>92.0</ele><time>2026-04-08T08:35:27Z</time></trkpt><trkpt lat="51.52637813817985" lon="16.77611441496453"><ele>90.5</ele><time>2026-04-08T08:35:28Z</time></trkpt><trkpt lat="51.526402445224136" lon="16.775936219473817"><ele>89.0</ele><time>2026-04-08T08:35:29Z</time></trkpt><trkpt lat="51.52642950947655" lon="16.775777787846536"><ele>88.6</ele><time>2026-04-08T08:35:30Z</time></trkpt><trkpt lat="51.526438471106765" lon="16.775644909821406"><ele>88.2</ele><time>2026-04-08T08:35:31Z</time></trkpt><trkpt lat="51.526475870695336" lon="16.77552748563061"><ele>87.8</ele><time>2026-04-08T08:35:33Z</time></trkpt><trkpt lat="51.52662460438162" lon="16.775631463459042"><ele>87.39999999999999</ele><time>2026-04-08T08:35:35Z</time></trkpt><trkpt lat="51.526717003859446" lon="16.775660778518493"><ele>87.0</ele><time>2026-04-08T08:35:36Z</time></trkpt><trkpt lat="51.52681409711709" lon="16.775691586277986"><ele>87.0</ele><time>2026-04-08T08:35:37Z</time></trkpt><trkpt lat="51.52693232527479" lon="16.775702464900945"><ele>87.0</ele><time>2026-04-08T08:35:38Z</time></trkpt><trkpt lat="51.527046135061155" lon="16.775761342171695"><ele>87.0</ele><time>2026-04-08T08:35:39Z</time></trkpt><trkpt lat="51.5271756599619" lon="16.77579232663104"><ele>87.0</ele><time>2026-04-08T08:35:40Z</time></trkpt><trkpt lat="51.52730833930806" lon="16.77583504115979"><ele>86.75</ele><time>2026-04-08T08:35:41Z</time></trkpt><trkpt lat="51.527447411444335" lon="16.775882693475953"><ele>86.5</ele><time>2026-04-08T08:35:42Z</time></trkpt><trkpt lat="51.52759255123567" lon="16.775929017450224"><ele>86.25</ele><time>2026-04-08T08:35:43Z</time></trkpt><trkpt lat="51.52773658676016" lon="16.77598563819498"><ele>86.0</ele><time>2026-04-08T08:35:44Z</time></trkpt><trkpt lat="51.527893735695265" lon="16.776022921800493"><ele>87.0</ele><time>2026-04-08T08:35:45Z</time></trkpt><trkpt lat="51.52804916076212" lon="16.776075821245534"><ele>88.0</ele><time>2026-04-08T08:35:46Z</time></trkpt><trkpt lat="51.52820523894053" lon="16.77613223182891"><ele>89.0</ele><time>2026-04-08T08:35:47Z</time></trkpt><trkpt lat="51.528356329505634" lon="16.77619420323287"><ele>89.0</ele><time>2026-04-08T08:35:48Z</time></trkpt><trkpt lat="51.52850444088145" lon="16.776234284755123"><ele>89.0</ele><time>2026-04-08T08:35:49Z</time></trkpt><trkpt lat="51.528642629944024" lon="16.77627784808087"><ele>89.0</ele><time>2026-04-08T08:35:50Z</time></trkpt><trkpt lat="51.528776093243465" lon="16.776324906764042"><ele>89.0</ele><time>2026-04-08T08:35:51Z</time></trkpt><trkpt lat="51.5288969873569" lon="16.776437362123776"><ele>89.25</ele><time>2026-04-08T08:35:52Z</time></trkpt><trkpt lat="51.52903540098148" lon="16.776495016347827"><ele>89.5</ele><time>2026-04-08T08:35:53Z</time></trkpt><trkpt lat="51.529162224968275" lon="16.77660686467489"><ele>89.75</ele><time>2026-04-08T08:35:54Z</time></trkpt><trkpt lat="51.529299556165654" lon="16.77664936094377"><ele>90.0</ele><time>2026-04-08T08:35:55Z</time></trkpt><trkpt lat="51.52944044271791" lon="16.776700043560837"><ele>89.0</ele><time>2026-04-08T08:35:56Z</time></trkpt><trkpt lat="51.529585569273934" lon="16.77670081881754"><ele>88.0</ele><time>2026-04-08T08:35:57Z</time></trkpt><trkpt lat="51.52973529475959" lon="16.776689240630954"><ele>87.0</ele><time>2026-04-08T08:35:58Z</time></trkpt><trkpt lat="51.52989274756969" lon="16.776676142658953"><ele>87.0</ele><time>2026-04-08T08:35:59Z</time></trkpt><trkpt lat="51.53005890977398" lon="16.776703442926888"><ele>87.0</ele><time>2026-04-08T08:36:00Z</time></trkpt><trkpt lat="51.53022186551499" lon="16.77675610275556"><ele>87.0</ele><time>2026-04-08T08:36:01Z</time></trkpt><trkpt lat="51.530380863157546" lon="16.776816596720188"><ele>86.66666666666667</ele><time>2026-04-08T08:36:02Z</time></trkpt><trkpt lat="51.53054357973071" lon="16.77688060762774"><ele>86.33333333333334</ele><time>2026-04-08T08:36:03Z</time></trkpt><trkpt lat="51.53071563784867" lon="16.776931835754308"><ele>86.0</ele><time>2026-04-08T08:36:04Z</time></trkpt><trkpt lat="51.53088766779512" lon="16.776996195942147"><ele>86.0</ele><time>2026-04-08T08:36:05Z</time></trkpt><trkpt lat="51.53104956469905" lon="16.777058747455804"><ele>86.0</ele><time>2026-04-08T08:36:06Z</time></trkpt><trkpt lat="51.53121906864577" lon="16.77710425731428"><ele>86.0</ele><time>2026-04-08T08:36:07Z</time></trkpt><trkpt lat="51.53138444980527" lon="16.77715226361148"><ele>86.0</ele><time>2026-04-08T08:36:08Z</time></trkpt><trkpt lat="51.531549770426324" lon="16.777203992222756"><ele>86.0</ele><time>2026-04-08T08:36:09Z</time></trkpt><trkpt lat="51.53172457409756" lon="16.777262311006936"><ele>86.0</ele><time>2026-04-08T08:36:10Z</time></trkpt><trkpt lat="51.53189500689469" lon="16.777316842829965"><ele>85.66666666666667</ele><time>2026-04-08T08:36:11Z</time></trkpt><trkpt lat="51.53206302971129" lon="16.77737257376864"><ele>85.33333333333333</ele><time>2026-04-08T08:36:12Z</time></trkpt><trkpt lat="51.5322310176496" lon="16.777432806218425"><ele>85.0</ele><time>2026-04-08T08:36:13Z</time></trkpt><trkpt lat="51.53239555054673" lon="16.777531775252424"><ele>85.0</ele><time>2026-04-08T08:36:14Z</time></trkpt><trkpt lat="51.53256711321554" lon="16.777590562486093"><ele>85.0</ele><time>2026-04-08T08:36:15Z</time></trkpt><trkpt lat="51.53273528231066" lon="16.77767472317413"><ele>85.0</ele><time>2026-04-08T08:36:16Z</time></trkpt><trkpt lat="51.5328985000695" lon="16.77776855055515"><ele>85.66666666666666</ele><time>2026-04-08T08:36:17Z</time></trkpt><trkpt lat="51.53306501931278" lon="16.777856232737594"><ele>86.33333333333333</ele><time>2026-04-08T08:36:18Z</time></trkpt><trkpt lat="51.53322539675526" lon="16.77793587341509"><ele>87.0</ele><time>2026-04-08T08:36:19Z</time></trkpt><trkpt lat="51.5333970574242" lon="16.778019276059577"><ele>87.0</ele><time>2026-04-08T08:36:20Z</time></trkpt><trkpt lat="51.53356356037326" lon="16.77809332646216"><ele>87.0</ele><time>2026-04-08T08:36:21Z</time></trkpt><trkpt lat="51.53370779947527" lon="16.778184940979102"><ele>87.0</ele><time>2026-04-08T08:36:22Z</time></trkpt><trkpt lat="51.53384970141219" lon="16.778255834711512"><ele>87.0</ele><time>2026-04-08T08:36:23Z</time></trkpt><trkpt lat="51.53398984525939" lon="16.778327576165324"><ele>87.0</ele><time>2026-04-08T08:36:24Z</time></trkpt><trkpt lat="51.534131964529564" lon="16.778395238002354"><ele>87.0</ele><time>2026-04-08T08:36:25Z</time></trkpt><trkpt lat="51.53426354470851" lon="16.778462988378024"><ele>87.0</ele><time>2026-04-08T08:36:26Z</time></trkpt><trkpt lat="51.53436615575883" lon="16.77852042850458"><ele>87.0</ele><time>2026-04-08T08:36:27.001Z</time></trkpt><trkpt lat="51.534440056773796" lon="16.778574378595028"><ele>87.0</ele><time>2026-04-08T08:36:28.001Z</time></trkpt><trkpt lat="51.534558024918496" lon="16.77850980517882"><ele>87.0</ele><time>2026-04-08T08:36:30Z</time></trkpt><trkpt lat="51.5346604593469" lon="16.77844588166346"><ele>87.0</ele><time>2026-04-08T08:36:32Z</time></trkpt><trkpt lat="51.53467869254129" lon="16.778215331291513"><ele>86.75</ele><time>2026-04-08T08:36:33Z</time></trkpt><trkpt lat="51.53469962446192" lon="16.778052881593734"><ele>86.5</ele><time>2026-04-08T08:36:34Z</time></trkpt><trkpt lat="51.53472926187604" lon="16.77787512678283"><ele>86.25</ele><time>2026-04-08T08:36:35Z</time></trkpt><trkpt lat="51.53477002958855" lon="16.7776852055077"><ele>86.0</ele><time>2026-04-08T08:36:36Z</time></trkpt><trkpt lat="51.5348168338747" lon="16.777483694329"><ele>86.0</ele><time>2026-04-08T08:36:37Z</time></trkpt><trkpt lat="51.53486359969609" lon="16.777270503527927"><ele>86.0</ele><time>2026-04-08T08:36:38Z</time></trkpt><trkpt lat="51.53490753448675" lon="16.777047708686805"><ele>86.0</ele><time>2026-04-08T08:36:39Z</time></trkpt><trkpt lat="51.53495667733975" lon="16.776816017174415"><ele>86.0</ele><time>2026-04-08T08:36:40Z</time></trkpt><trkpt lat="51.535011721453905" lon="16.77657891625997"><ele>86.33333333333334</ele><time>2026-04-08T08:36:41Z</time></trkpt><trkpt lat="51.535062473961545" lon="16.77633333576745"><ele>86.66666666666667</ele><time>2026-04-08T08:36:42Z</time></trkpt><trkpt lat="51.535114973692764" lon="16.776089622090044"><ele>87.0</ele><time>2026-04-08T08:36:43Z</time></trkpt><trkpt lat="51.53517482085179" lon="16.775829632151645"><ele>87.0</ele><time>2026-04-08T08:36:44Z</time></trkpt><trkpt lat="51.53523061998528" lon="16.775572264739157"><ele>87.0</ele><time>2026-04-08T08:36:45Z</time></trkpt><trkpt lat="51.53528657789625" lon="16.77531226534345"><ele>87.0</ele><time>2026-04-08T08:36:46Z</time></trkpt><trkpt lat="51.53534454948756" lon="16.775050394285095"><ele>86.0</ele><time>2026-04-08T08:36:47Z</time></trkpt><trkpt lat="51.5354072215463" lon="16.77478535455718"><ele>85.0</ele><time>2026-04-08T08:36:48Z</time></trkpt><trkpt lat="51.53546737765125" lon="16.7745158840122"><ele>84.0</ele><time>2026-04-08T08:36:49Z</time></trkpt><trkpt lat="51.53552485126291" lon="16.77424652885421"><ele>84.0</ele><time>2026-04-08T08:36:50Z</time></trkpt><trkpt lat="51.535585912302984" lon="16.77397760164072"><ele>84.0</ele><time>2026-04-08T08:36:51Z</time></trkpt><trkpt lat="51.53564594396192" lon="16.773707371171742"><ele>84.0</ele><time>2026-04-08T08:36:52Z</time></trkpt><trkpt lat="51.53570512426766" lon="16.773435804899925"><ele>85.0</ele><time>2026-04-08T08:36:53Z</time></trkpt><trkpt lat="51.535766951661614" lon="16.773167170291796"><ele>86.0</ele><time>2026-04-08T08:36:54Z</time></trkpt><trkpt lat="51.535825357163745" lon="16.772899049052025"><ele>87.0</ele><time>2026-04-08T08:36:55Z</time></trkpt><trkpt lat="51.53589037107126" lon="16.77264596447571"><ele>89.33333333333333</ele><time>2026-04-08T08:36:56Z</time></trkpt><trkpt lat="51.53598944800801" lon="16.77242146464288"><ele>91.66666666666666</ele><time>2026-04-08T08:36:57Z</time></trkpt><trkpt lat="51.53607111099235" lon="16.77217873144562"><ele>94.0</ele><time>2026-04-08T08:36:58Z</time></trkpt><trkpt lat="51.53617543644439" lon="16.771947247517602"><ele>95.66666666666666</ele><time>2026-04-08T08:36:59Z</time></trkpt><trkpt lat="51.53627997025278" lon="16.77171554753408"><ele>97.33333333333333</ele><time>2026-04-08T08:37:00Z</time></trkpt><trkpt lat="51.53639043518315" lon="16.771487213365962"><ele>99.0</ele><time>2026-04-08T08:37:01Z</time></trkpt><trkpt lat="51.536494590314994" lon="16.771254066757404"><ele>99.33333333333334</ele><time>2026-04-08T08:37:02Z</time></trkpt><trkpt lat="51.53660325644359" lon="16.77101943064213"><ele>99.66666666666667</ele><time>2026-04-08T08:37:03Z</time></trkpt><trkpt lat="51.53671302409009" lon="16.770782705706516"><ele>100.0</ele><time>2026-04-08T08:37:04Z</time></trkpt><trkpt lat="51.53682950032474" lon="16.770547879279974"><ele>100.0</ele><time>2026-04-08T08:37:05Z</time></trkpt><trkpt lat="51.53694196133827" lon="16.770302993308537"><ele>100.0</ele><time>2026-04-08T08:37:06Z</time></trkpt><trkpt lat="51.537055604752496" lon="16.770055236599422"><ele>100.0</ele><time>2026-04-08T08:37:07Z</time></trkpt><trkpt lat="51.53716663757636" lon="16.769812253250752"><ele>99.33333333333334</ele><time>2026-04-08T08:37:08Z</time></trkpt><trkpt lat="51.53727324172344" lon="16.769578485300976"><ele>98.66666666666666</ele><time>2026-04-08T08:37:09Z</time></trkpt><trkpt lat="51.537376888438224" lon="16.769351537997565"><ele>98.0</ele><time>2026-04-08T08:37:10Z</time></trkpt><trkpt lat="51.53748456913021" lon="16.769117519598403"><ele>96.33333333333333</ele><time>2026-04-08T08:37:11Z</time></trkpt><trkpt lat="51.53759110851352" lon="16.768889613754368"><ele>94.66666666666666</ele><time>2026-04-08T08:37:12Z</time></trkpt><trkpt lat="51.53769167349111" lon="16.76867723531583"><ele>93.0</ele><time>2026-04-08T08:37:13Z</time></trkpt><trkpt lat="51.537786275157586" lon="16.76848144945181"><ele>92.66666666666667</ele><time>2026-04-08T08:37:14Z</time></trkpt><trkpt lat="51.537887594507914" lon="16.76827460085757"><ele>92.33333333333334</ele><time>2026-04-08T08:37:15Z</time></trkpt><trkpt lat="51.5379892595237" lon="16.768071397876227"><ele>92.0</ele><time>2026-04-08T08:37:16Z</time></trkpt><trkpt lat="51.538096115291545" lon="16.767862175057495"><ele>91.66666666666667</ele><time>2026-04-08T08:37:17Z</time></trkpt><trkpt lat="51.53820368248133" lon="16.767659414934812"><ele>91.33333333333333</ele><time>2026-04-08T08:37:18Z</time></trkpt><trkpt lat="51.53831277810651" lon="16.7674621779303"><ele>91.0</ele><time>2026-04-08T08:37:19Z</time></trkpt><trkpt lat="51.53842145016492" lon="16.76727611425687"><ele>91.0</ele><time>2026-04-08T08:37:20Z</time></trkpt><trkpt lat="51.53853732977944" lon="16.767081409018093"><ele>91.0</ele><time>2026-04-08T08:37:21Z</time></trkpt><trkpt lat="51.53866058072946" lon="16.76687475005602"><ele>91.0</ele><time>2026-04-08T08:37:22Z</time></trkpt><trkpt lat="51.53878927511675" lon="16.76668731888418"><ele>90.66666666666666</ele><time>2026-04-08T08:37:23Z</time></trkpt><trkpt lat="51.538927946768915" lon="16.76650520180922"><ele>90.33333333333333</ele><time>2026-04-08T08:37:24Z</time></trkpt><trkpt lat="51.539060586681515" lon="16.766309588058647"><ele>90.0</ele><time>2026-04-08T08:37:25Z</time></trkpt><trkpt lat="51.539193178376685" lon="16.76610983692367"><ele>90.33333333333333</ele><time>2026-04-08T08:37:26Z</time></trkpt><trkpt lat="51.539323183105125" lon="16.765915537172187"><ele>90.66666666666666</ele><time>2026-04-08T08:37:27Z</time></trkpt><trkpt lat="51.53945868260632" lon="16.765713123742884"><ele>91.0</ele><time>2026-04-08T08:37:28Z</time></trkpt><trkpt lat="51.5395910359189" lon="16.76551422256651"><ele>91.0</ele><time>2026-04-08T08:37:29Z</time></trkpt><trkpt lat="51.53971497076013" lon="16.76532791307547"><ele>91.0</ele><time>2026-04-08T08:37:30Z</time></trkpt><trkpt lat="51.53982704867851" lon="16.765157334877188"><ele>91.0</ele><time>2026-04-08T08:37:31Z</time></trkpt><trkpt lat="51.5399184123688" lon="16.764976157769887"><ele>91.75</ele><time>2026-04-08T08:37:32Z</time></trkpt><trkpt lat="51.54001119090305" lon="16.764862052827407"><ele>92.5</ele><time>2026-04-08T08:37:33Z</time></trkpt><trkpt lat="51.54010476200352" lon="16.76470794281281"><ele>93.25</ele><time>2026-04-08T08:37:34Z</time></trkpt><trkpt lat="51.54019281785314" lon="16.764546373365906"><ele>94.0</ele><time>2026-04-08T08:37:35Z</time></trkpt><trkpt lat="51.54031301796847" lon="16.764373638965974"><ele>95.0</ele><time>2026-04-08T08:37:36Z</time></trkpt><trkpt lat="51.540414908735364" lon="16.764194574685106"><ele>96.0</ele><time>2026-04-08T08:37:37Z</time></trkpt><trkpt lat="51.540541444653876" lon="16.76401290864851"><ele>97.0</ele><time>2026-04-08T08:37:38Z</time></trkpt><trkpt lat="51.54065843328186" lon="16.763857716632597"><ele>97.0</ele><time>2026-04-08T08:37:39Z</time></trkpt><trkpt lat="51.54076303829687" lon="16.76369170766641"><ele>97.0</ele><time>2026-04-08T08:37:40.001Z</time></trkpt><trkpt lat="51.54085110144482" lon="16.76352674928606"><ele>97.0</ele><time>2026-04-08T08:37:41.001Z</time></trkpt><trkpt lat="51.54095857312226" lon="16.76336367925721"><ele>97.0</ele><time>2026-04-08T08:37:42.001Z</time></trkpt><trkpt lat="51.541062630024534" lon="16.76320098515205"><ele>97.25</ele><time>2026-04-08T08:37:43.001Z</time></trkpt><trkpt lat="51.54116464034882" lon="16.763037574880954"><ele>97.5</ele><time>2026-04-08T08:37:44.001Z</time></trkpt><trkpt lat="51.54125877890667" lon="16.76287895141768"><ele>97.75</ele><time>2026-04-08T08:37:45.001Z</time></trkpt><trkpt lat="51.541367082132346" lon="16.762711048223945"><ele>98.0</ele><time>2026-04-08T08:37:46.001Z</time></trkpt><trkpt lat="51.541477773709616" lon="16.762550112599953"><ele>97.0</ele><time>2026-04-08T08:37:47.001Z</time></trkpt><trkpt lat="51.541595530575016" lon="16.76240686324581"><ele>96.0</ele><time>2026-04-08T08:37:48.001Z</time></trkpt><trkpt lat="51.54170495306117" lon="16.762237378345397"><ele>95.0</ele><time>2026-04-08T08:37:49.001Z</time></trkpt><trkpt lat="51.541808888320624" lon="16.762053033513855"><ele>95.0</ele><time>2026-04-08T08:37:50.001Z</time></trkpt><trkpt lat="51.54190918967619" lon="16.761897347982885"><ele>95.0</ele><time>2026-04-08T08:37:51.001Z</time></trkpt><trkpt lat="51.542016578626786" lon="16.761725833311445"><ele>95.0</ele><time>2026-04-08T08:37:52.001Z</time></trkpt><trkpt lat="51.54212569444858" lon="16.761537679968978"><ele>94.33333333333334</ele><time>2026-04-08T08:37:53.001Z</time></trkpt><trkpt lat="51.542237099752946" lon="16.761349090362984"><ele>93.66666666666667</ele><time>2026-04-08T08:37:54.001Z</time></trkpt><trkpt lat="51.54236429877733" lon="16.761175804632533"><ele>93.0</ele><time>2026-04-08T08:37:55.001Z</time></trkpt><trkpt lat="51.54247729438747" lon="16.760961004923324"><ele>93.0</ele><time>2026-04-08T08:37:56.001Z</time></trkpt><trkpt lat="51.542608505322015" lon="16.760822956856213"><ele>93.0</ele><time>2026-04-08T08:37:57.001Z</time></trkpt><trkpt lat="51.54275495139807" lon="16.760740264526042"><ele>93.0</ele><time>2026-04-08T08:37:58.001Z</time></trkpt><trkpt lat="51.54293287601522" lon="16.760653726440705"><ele>92.33333333333333</ele><time>2026-04-08T08:37:59.001Z</time></trkpt><trkpt lat="51.54312690917704" lon="16.760557412936034"><ele>91.66666666666666</ele><time>2026-04-08T08:38:01.001Z</time></trkpt><trkpt lat="51.54328437019076" lon="16.76048516780021"><ele>91.0</ele><time>2026-04-08T08:38:02.001Z</time></trkpt><trkpt lat="51.54344332734826" lon="16.760414538252704"><ele>91.0</ele><time>2026-04-08T08:38:03.001Z</time></trkpt><trkpt lat="51.54361100126107" lon="16.760338521637657"><ele>91.0</ele><time>2026-04-08T08:38:04.001Z</time></trkpt><trkpt lat="51.54378231656315" lon="16.760260127095684"><ele>91.0</ele><time>2026-04-08T08:38:05.001Z</time></trkpt><trkpt lat="51.54395838843333" lon="16.760177717225805"><ele>90.0</ele><time>2026-04-08T08:38:06.001Z</time></trkpt><trkpt lat="51.54413596492524" lon="16.760094070468902"><ele>89.0</ele><time>2026-04-08T08:38:07.001Z</time></trkpt><trkpt lat="51.544317233825396" lon="16.760008686830314"><ele>88.0</ele><time>2026-04-08T08:38:08.001Z</time></trkpt><trkpt lat="51.54449803542365" lon="16.759923464784105"><ele>88.66666666666666</ele><time>2026-04-08T08:38:09.001Z</time></trkpt><trkpt lat="51.544678684364825" lon="16.759838379896383"><ele>89.33333333333333</ele><time>2026-04-08T08:38:10.001Z</time></trkpt><trkpt lat="51.54485633573197" lon="16.75975447840716"><ele>90.0</ele><time>2026-04-08T08:38:11.001Z</time></trkpt><trkpt lat="51.5450381256718" lon="16.75966816460115"><ele>90.0</ele><time>2026-04-08T08:38:12.001Z</time></trkpt><trkpt lat="51.54521595730096" lon="16.759584336813365"><ele>90.0</ele><time>2026-04-08T08:38:13.001Z</time></trkpt><trkpt lat="51.545387337937996" lon="16.759477883772128"><ele>90.0</ele><time>2026-04-08T08:38:14.001Z</time></trkpt><trkpt lat="51.54557711075324" lon="16.759416830874063"><ele>90.66666666666667</ele><time>2026-04-08T08:38:15.001Z</time></trkpt><trkpt lat="51.54575784863326" lon="16.759333321549676"><ele>91.33333333333334</ele><time>2026-04-08T08:38:16.001Z</time></trkpt><trkpt lat="51.54593717259091" lon="16.759250533094548"><ele>92.0</ele><time>2026-04-08T08:38:17.001Z</time></trkpt><trkpt lat="51.54611346871338" lon="16.759169656788274"><ele>91.33333333333334</ele><time>2026-04-08T08:38:18.001Z</time></trkpt><trkpt lat="51.54628903404846" lon="16.75908890735349"><ele>90.66666666666667</ele><time>2026-04-08T08:38:19.001Z</time></trkpt><trkpt lat="51.546457763155196" lon="16.75898580695412"><ele>90.0</ele><time>2026-04-08T08:38:20.001Z</time></trkpt><trkpt lat="51.54663377797473" lon="16.75890739915339"><ele>90.0</ele><time>2026-04-08T08:38:21.001Z</time></trkpt><trkpt lat="51.5468064717185" lon="16.758825356740005"><ele>90.0</ele><time>2026-04-08T08:38:22.001Z</time></trkpt><trkpt lat="51.54698566808885" lon="16.758769620757104"><ele>90.0</ele><time>2026-04-08T08:38:23.001Z</time></trkpt><trkpt lat="51.547162606140716" lon="16.75868886645709"><ele>90.0</ele><time>2026-04-08T08:38:24.001Z</time></trkpt><trkpt lat="51.54733575334005" lon="16.75858591986729"><ele>90.0</ele><time>2026-04-08T08:38:25.001Z</time></trkpt><trkpt lat="51.54752017900245" lon="16.75852706875257"><ele>90.0</ele><time>2026-04-08T08:38:26.001Z</time></trkpt><trkpt lat="51.5476963960361" lon="16.758420918657936"><ele>90.0</ele><time>2026-04-08T08:38:27.001Z</time></trkpt><trkpt lat="51.54787357362088" lon="16.75834041267175"><ele>90.0</ele><time>2026-04-08T08:38:28.001Z</time></trkpt><trkpt lat="51.5480595429649" lon="16.758259867171496"><ele>90.0</ele><time>2026-04-08T08:38:29.001Z</time></trkpt><trkpt lat="51.54824133919988" lon="16.758180719117952"><ele>90.33333333333333</ele><time>2026-04-08T08:38:30.001Z</time></trkpt><trkpt lat="51.54841851798563" lon="16.75809541033102"><ele>90.66666666666666</ele><time>2026-04-08T08:38:31.001Z</time></trkpt><trkpt lat="51.54860456251444" lon="16.75803177957682"><ele>91.0</ele><time>2026-04-08T08:38:32.001Z</time></trkpt><trkpt lat="51.54877937798911" lon="16.757952085193523"><ele>91.66666666666666</ele><time>2026-04-08T08:38:33.001Z</time></trkpt><trkpt lat="51.5489546838944" lon="16.757872497696102"><ele>92.33333333333333</ele><time>2026-04-08T08:38:34.001Z</time></trkpt><trkpt lat="51.54913563099409" lon="16.757790173491212"><ele>93.0</ele><time>2026-04-08T08:38:35Z</time></trkpt><trkpt lat="51.549317353383714" lon="16.75770658634424"><ele>93.33333333333333</ele><time>2026-04-08T08:38:36Z</time></trkpt><trkpt lat="51.549506007492155" lon="16.757620875090502"><ele>93.66666666666666</ele><time>2026-04-08T08:38:37Z</time></trkpt><trkpt lat="51.54968993045634" lon="16.757537924884662"><ele>94.0</ele><time>2026-04-08T08:38:38Z</time></trkpt><trkpt lat="51.549872087730655" lon="16.757453884535572"><ele>94.0</ele><time>2026-04-08T08:38:39Z</time></trkpt><trkpt lat="51.55003276638296" lon="16.75738116987139"><ele>94.0</ele><time>2026-04-08T08:38:40Z</time></trkpt><trkpt lat="51.550173327044064" lon="16.75731678529162"><ele>94.0</ele><time>2026-04-08T08:38:41Z</time></trkpt><trkpt lat="51.55034237157515" lon="16.75723994189033"><ele>93.0</ele><time>2026-04-08T08:38:42Z</time></trkpt><trkpt lat="51.55051566394538" lon="16.757160535080434"><ele>92.0</ele><time>2026-04-08T08:38:43Z</time></trkpt><trkpt lat="51.550685135095726" lon="16.7570800561216"><ele>91.0</ele><time>2026-04-08T08:38:44Z</time></trkpt><trkpt lat="51.55085489634594" lon="16.756996600509762"><ele>91.0</ele><time>2026-04-08T08:38:45Z</time></trkpt><trkpt lat="51.5510092495218" lon="16.756921984727988"><ele>91.0</ele><time>2026-04-08T08:38:46Z</time></trkpt><trkpt lat="51.55113076888338" lon="16.75685099297035"><ele>91.0</ele><time>2026-04-08T08:38:47Z</time></trkpt><trkpt lat="51.5512433383583" lon="16.75681721193916"><ele>91.0</ele><time>2026-04-08T08:38:48Z</time></trkpt><trkpt lat="51.55136099137337" lon="16.75680383823802"><ele>89.66666666666666</ele><time>2026-04-08T08:38:49Z</time></trkpt><trkpt lat="51.55151062899819" lon="16.756830421313047"><ele>88.33333333333333</ele><time>2026-04-08T08:38:50Z</time></trkpt><trkpt lat="51.5516719847086" lon="16.756842516110474"><ele>87.0</ele><time>2026-04-08T08:38:51Z</time></trkpt><trkpt lat="51.551827791568776" lon="16.756880189323358"><ele>87.0</ele><time>2026-04-08T08:38:52Z</time></trkpt><trkpt lat="51.55196659995269" lon="16.75690754128385"><ele>87.0</ele><time>2026-04-08T08:38:53Z</time></trkpt><trkpt lat="51.55209777354396" lon="16.7569288404814"><ele>87.0</ele><time>2026-04-08T08:38:54Z</time></trkpt><trkpt lat="51.55223627618889" lon="16.756951651743197"><ele>87.0</ele><time>2026-04-08T08:38:55Z</time></trkpt><trkpt lat="51.55236917912119" lon="16.75696511840039"><ele>87.0</ele><time>2026-04-08T08:38:56Z</time></trkpt><trkpt lat="51.5525045074479" lon="16.756986066562206"><ele>87.0</ele><time>2026-04-08T08:38:57Z</time></trkpt><trkpt lat="51.55263886103862" lon="16.757014025607578"><ele>87.0</ele><time>2026-04-08T08:38:58Z</time></trkpt><trkpt lat="51.5527809960213" lon="16.757050607005915"><ele>87.0</ele><time>2026-04-08T08:38:59Z</time></trkpt><trkpt lat="51.55293059684777" lon="16.757074144645937"><ele>87.66666666666667</ele><time>2026-04-08T08:39:00Z</time></trkpt><trkpt lat="51.55308342394558" lon="16.75709690175579"><ele>88.33333333333334</ele><time>2026-04-08T08:39:01Z</time></trkpt><trkpt lat="51.5532408805059" lon="16.7571208166999"><ele>89.0</ele><time>2026-04-08T08:39:02Z</time></trkpt><trkpt lat="51.5534021439335" lon="16.757162814028156"><ele>89.0</ele><time>2026-04-08T08:39:03Z</time></trkpt><trkpt lat="51.553554717776784" lon="16.757187640924307"><ele>89.0</ele><time>2026-04-08T08:39:04Z</time></trkpt><trkpt lat="51.55370457194965" lon="16.75716348418308"><ele>89.0</ele><time>2026-04-08T08:39:05Z</time></trkpt><trkpt lat="51.55386188440254" lon="16.757161364308512"><ele>88.75</ele><time>2026-04-08T08:39:06Z</time></trkpt><trkpt lat="51.55400411804003" lon="16.757144003764623"><ele>88.5</ele><time>2026-04-08T08:39:07Z</time></trkpt><trkpt lat="51.554151495648924" lon="16.757116400904366"><ele>88.25</ele><time>2026-04-08T08:39:08Z</time></trkpt><trkpt lat="51.554306293851305" lon="16.75708316300981"><ele>88.0</ele><time>2026-04-08T08:39:09Z</time></trkpt><trkpt lat="51.55446038428967" lon="16.757040837056717"><ele>87.5</ele><time>2026-04-08T08:39:10Z</time></trkpt><trkpt lat="51.55461144164118" lon="16.756975298306422"><ele>87.0</ele><time>2026-04-08T08:39:11Z</time></trkpt><trkpt lat="51.55475080694903" lon="16.75691342161569"><ele>86.5</ele><time>2026-04-08T08:39:12Z</time></trkpt><trkpt lat="51.554889780108" lon="16.75684546889931"><ele>86.0</ele><time>2026-04-08T08:39:13Z</time></trkpt><trkpt lat="51.55504317880484" lon="16.75675461374337"><ele>86.0</ele><time>2026-04-08T08:39:14Z</time></trkpt><trkpt lat="51.55520360527962" lon="16.756697161115593"><ele>86.0</ele><time>2026-04-08T08:39:15Z</time></trkpt><trkpt lat="51.555357141126684" lon="16.756586997739564"><ele>86.0</ele><time>2026-04-08T08:39:16Z</time></trkpt><trkpt lat="51.55551155801282" lon="16.75649848898662"><ele>86.0</ele><time>2026-04-08T08:39:17Z</time></trkpt><trkpt lat="51.55567312168886" lon="16.756409444832112"><ele>86.0</ele><time>2026-04-08T08:39:18Z</time></trkpt><trkpt lat="51.55582643931027" lon="16.756320357489958"><ele>86.0</ele><time>2026-04-08T08:39:19Z</time></trkpt><trkpt lat="51.555979339013504" lon="16.75621795320315"><ele>86.0</ele><time>2026-04-08T08:39:20Z</time></trkpt><trkpt lat="51.55613264817199" lon="16.75610726571219"><ele>86.0</ele><time>2026-04-08T08:39:21Z</time></trkpt><trkpt lat="51.556300617823744" lon="16.756009012512166"><ele>86.0</ele><time>2026-04-08T08:39:22Z</time></trkpt><trkpt lat="51.556447746724544" lon="16.755864559463244"><ele>86.33333333333334</ele><time>2026-04-08T08:39:23Z</time></trkpt><trkpt lat="51.556601835991486" lon="16.75573550035374"><ele>86.66666666666667</ele><time>2026-04-08T08:39:24Z</time></trkpt><trkpt lat="51.55675597358711" lon="16.75559119475871"><ele>87.0</ele><time>2026-04-08T08:39:25Z</time></trkpt><trkpt lat="51.55691149351588" lon="16.755448304809132"><ele>87.0</ele><time>2026-04-08T08:39:26Z</time></trkpt><trkpt lat="51.557063968928084" lon="16.755298157996737"><ele>87.0</ele><time>2026-04-08T08:39:27Z</time></trkpt><trkpt lat="51.55721512692252" lon="16.7551355277361"><ele>87.0</ele><time>2026-04-08T08:39:28Z</time></trkpt><trkpt lat="51.55736660065624" lon="16.75497747715144"><ele>87.33333333333333</ele><time>2026-04-08T08:39:29.001Z</time></trkpt><trkpt lat="51.5575141175492" lon="16.7548256272434"><ele>87.66666666666666</ele><time>2026-04-08T08:39:30.001Z</time></trkpt><trkpt lat="51.55766384899593" lon="16.75467277819971"><ele>88.0</ele><time>2026-04-08T08:39:31.001Z</time></trkpt><trkpt lat="51.55781161119346" lon="16.754510355325174"><ele>88.0</ele><time>2026-04-08T08:39:32.001Z</time></trkpt><trkpt lat="51.55795820879386" lon="16.754365583154588"><ele>88.0</ele><time>2026-04-08T08:39:33.001Z</time></trkpt><trkpt lat="51.558092590798445" lon="16.754226429536477"><ele>88.0</ele><time>2026-04-08T08:39:34.001Z</time></trkpt><trkpt lat="51.55822896566844" lon="16.754079030727567"><ele>88.0</ele><time>2026-04-08T08:39:35.001Z</time></trkpt><trkpt lat="51.558369956291386" lon="16.75393392065941"><ele>88.0</ele><time>2026-04-08T08:39:36.001Z</time></trkpt><trkpt lat="51.55851610559443" lon="16.75378410431885"><ele>88.0</ele><time>2026-04-08T08:39:37.001Z</time></trkpt><trkpt lat="51.55866841549158" lon="16.75362753994993"><ele>88.33333333333333</ele><time>2026-04-08T08:39:38.001Z</time></trkpt><trkpt lat="51.558817900023804" lon="16.753469561877758"><ele>88.66666666666667</ele><time>2026-04-08T08:39:39.001Z</time></trkpt><trkpt lat="51.55896671378" lon="16.753318981816175"><ele>89.0</ele><time>2026-04-08T08:39:40.001Z</time></trkpt><trkpt lat="51.559113196792275" lon="16.753168101133408"><ele>89.0</ele><time>2026-04-08T08:39:41.001Z</time></trkpt><trkpt lat="51.55926134637902" lon="16.753012258693655"><ele>89.0</ele><time>2026-04-08T08:39:42.001Z</time></trkpt><trkpt lat="51.55941502968943" lon="16.75285228138954"><ele>89.0</ele><time>2026-04-08T08:39:43.001Z</time></trkpt><trkpt lat="51.55956789584826" lon="16.75269147687947"><ele>89.0</ele><time>2026-04-08T08:39:44.001Z</time></trkpt><trkpt lat="51.55972187939619" lon="16.752533033533908"><ele>89.0</ele><time>2026-04-08T08:39:45.001Z</time></trkpt><trkpt lat="51.55987807582836" lon="16.75237138839545"><ele>89.0</ele><time>2026-04-08T08:39:46.001Z</time></trkpt><trkpt lat="51.56003440713048" lon="16.752201877905605"><ele>89.0</ele><time>2026-04-08T08:39:47.001Z</time></trkpt><trkpt lat="51.5601880274588" lon="16.752038073682975"><ele>89.0</ele><time>2026-04-08T08:39:48.001Z</time></trkpt><trkpt lat="51.56034000975639" lon="16.7518791599772"><ele>89.0</ele><time>2026-04-08T08:39:49.001Z</time></trkpt><trkpt lat="51.56048919415416" lon="16.75172088556143"><ele>90.0</ele><time>2026-04-08T08:39:50.001Z</time></trkpt><trkpt lat="51.56062664394526" lon="16.751578444990674"><ele>91.0</ele><time>2026-04-08T08:39:51.001Z</time></trkpt><trkpt lat="51.56074717408745" lon="16.751453328345047"><ele>92.0</ele><time>2026-04-08T08:39:52.001Z</time></trkpt><trkpt lat="51.56085627310189" lon="16.751344091646267"><ele>93.0</ele><time>2026-04-08T08:39:53.001Z</time></trkpt><trkpt lat="51.56095262634474" lon="16.751238263160822"><ele>93.0</ele><time>2026-04-08T08:39:54.001Z</time></trkpt><trkpt lat="51.56103005877782" lon="16.751144716622147"><ele>93.0</ele><time>2026-04-08T08:39:55.001Z</time></trkpt><trkpt lat="51.56110288519888" lon="16.7510541700973"><ele>93.0</ele><time>2026-04-08T08:39:56.001Z</time></trkpt><trkpt lat="51.56116363667505" lon="16.750967850104217"><ele>93.0</ele><time>2026-04-08T08:39:57.001Z</time></trkpt><trkpt lat="51.56121973981772" lon="16.75088675558253"><ele>93.0</ele><time>2026-04-08T08:39:58.001Z</time></trkpt><trkpt lat="51.56127423949312" lon="16.750804479630375"><ele>93.0</ele><time>2026-04-08T08:39:59.001Z</time></trkpt><trkpt lat="51.561322980604835" lon="16.75070775257403"><ele>93.0</ele><time>2026-04-08T08:40:00.001Z</time></trkpt><trkpt lat="51.561375509088755" lon="16.750584414112442"><ele>93.0</ele><time>2026-04-08T08:40:01.001Z</time></trkpt><trkpt lat="51.56141784749017" lon="16.75042783314121"><ele>93.0</ele><time>2026-04-08T08:40:02.001Z</time></trkpt><trkpt lat="51.5614484026016" lon="16.750261955815258"><ele>93.0</ele><time>2026-04-08T08:40:03.001Z</time></trkpt><trkpt lat="51.5614743338964" lon="16.750098076671488"><ele>93.0</ele><time>2026-04-08T08:40:04.001Z</time></trkpt><trkpt lat="51.56147466292977" lon="16.749912812954506"><ele>93.0</ele><time>2026-04-08T08:40:05.001Z</time></trkpt><trkpt lat="51.56145910043775" lon="16.749705479160404"><ele>93.0</ele><time>2026-04-08T08:40:06.001Z</time></trkpt><trkpt lat="51.56144030526465" lon="16.749496124480302"><ele>93.0</ele><time>2026-04-08T08:40:07.001Z</time></trkpt><trkpt lat="51.56142184000476" lon="16.74927364089312"><ele>93.0</ele><time>2026-04-08T08:40:08.001Z</time></trkpt><trkpt lat="51.56139823405725" lon="16.749033550023515"><ele>93.0</ele><time>2026-04-08T08:40:09.001Z</time></trkpt><trkpt lat="51.5613680427194" lon="16.74878778402838"><ele>93.0</ele><time>2026-04-08T08:40:10.001Z</time></trkpt><trkpt lat="51.56133635638017" lon="16.748554681575037"><ele>93.0</ele><time>2026-04-08T08:40:11.001Z</time></trkpt><trkpt lat="51.5612924344296" lon="16.74829936860458"><ele>93.0</ele><time>2026-04-08T08:40:12.001Z</time></trkpt><trkpt lat="51.56126416179828" lon="16.748048945162573"><ele>93.0</ele><time>2026-04-08T08:40:13.001Z</time></trkpt><trkpt lat="51.561228813120984" lon="16.74782035134001"><ele>93.0</ele><time>2026-04-08T08:40:14.001Z</time></trkpt><trkpt lat="51.561199307171556" lon="16.747585254769504"><ele>92.75</ele><time>2026-04-08T08:40:15.001Z</time></trkpt><trkpt lat="51.56116903509919" lon="16.74736179939644"><ele>92.5</ele><time>2026-04-08T08:40:16.001Z</time></trkpt><trkpt lat="51.56114758807745" lon="16.747113702587825"><ele>92.25</ele><time>2026-04-08T08:40:17.001Z</time></trkpt><trkpt lat="51.56112735897106" lon="16.74687605829881"><ele>92.0</ele><time>2026-04-08T08:40:18.001Z</time></trkpt><trkpt lat="51.56113141379263" lon="16.74664920426723"><ele>91.75</ele><time>2026-04-08T08:40:19.001Z</time></trkpt><trkpt lat="51.56114218548505" lon="16.746419009709022"><ele>91.5</ele><time>2026-04-08T08:40:20.001Z</time></trkpt><trkpt lat="51.56116049785468" lon="16.746185471627168"><ele>91.25</ele><time>2026-04-08T08:40:21.001Z</time></trkpt><trkpt lat="51.56118725337163" lon="16.745977267994416"><ele>91.0</ele><time>2026-04-08T08:40:22.001Z</time></trkpt><trkpt lat="51.56121364391708" lon="16.745791405055332"><ele>91.0</ele><time>2026-04-08T08:40:23.001Z</time></trkpt><trkpt lat="51.56124852611425" lon="16.745634597078848"><ele>91.0</ele><time>2026-04-08T08:40:24.001Z</time></trkpt><trkpt lat="51.56127180957058" lon="16.745454710909215"><ele>91.0</ele><time>2026-04-08T08:40:25.001Z</time></trkpt><trkpt lat="51.5613005418938" lon="16.745293227780074"><ele>91.0</ele><time>2026-04-08T08:40:26.001Z</time></trkpt><trkpt lat="51.56132849903138" lon="16.74516321849784"><ele>91.0</ele><time>2026-04-08T08:40:27.001Z</time></trkpt><trkpt lat="51.56134113781724" lon="16.745052864745027"><ele>91.4</ele><time>2026-04-08T08:40:28.001Z</time></trkpt><trkpt lat="51.56138971758675" lon="16.74493893525056"><ele>91.8</ele><time>2026-04-08T08:40:30.001Z</time></trkpt><trkpt lat="51.561523770541925" lon="16.74501936289599"><ele>92.2</ele><time>2026-04-08T08:40:32.001Z</time></trkpt><trkpt lat="51.56160903194683" lon="16.745033228325486"><ele>92.60000000000001</ele><time>2026-04-08T08:40:33.001Z</time></trkpt><trkpt lat="51.56171037974368" lon="16.745045988660543"><ele>93.0</ele><time>2026-04-08T08:40:34.001Z</time></trkpt><trkpt lat="51.56182717403376" lon="16.745038823483846"><ele>93.0</ele><time>2026-04-08T08:40:35.001Z</time></trkpt><trkpt lat="51.561944668074744" lon="16.74500834753071"><ele>93.0</ele><time>2026-04-08T08:40:36.001Z</time></trkpt><trkpt lat="51.562055513441294" lon="16.744997388035628"><ele>93.0</ele><time>2026-04-08T08:40:37.001Z</time></trkpt><trkpt lat="51.5621670567106" lon="16.744997762215075"><ele>93.0</ele><time>2026-04-08T08:40:38.001Z</time></trkpt><trkpt lat="51.56227503702842" lon="16.744982537695844"><ele>93.25</ele><time>2026-04-08T08:40:39.001Z</time></trkpt><trkpt lat="51.562382961814635" lon="16.74494015834352"><ele>93.5</ele><time>2026-04-08T08:40:40.001Z</time></trkpt><trkpt lat="51.562493168200994" lon="16.744925005152677"><ele>93.75</ele><time>2026-04-08T08:40:41.001Z</time></trkpt><trkpt lat="51.562604961848805" lon="16.74490793839769"><ele>94.0</ele><time>2026-04-08T08:40:42.001Z</time></trkpt><trkpt lat="51.5627259850387" lon="16.74489194125587"><ele>94.0</ele><time>2026-04-08T08:40:43.001Z</time></trkpt><trkpt lat="51.562846436983925" lon="16.744873344050383"><ele>94.0</ele><time>2026-04-08T08:40:44.001Z</time></trkpt><trkpt lat="51.56297992995753" lon="16.744856937470935"><ele>94.0</ele><time>2026-04-08T08:40:45.001Z</time></trkpt><trkpt lat="51.56311479909502" lon="16.74485342026323"><ele>94.0</ele><time>2026-04-08T08:40:46.001Z</time></trkpt><trkpt lat="51.56323330720838" lon="16.744834969156006"><ele>93.75</ele><time>2026-04-08T08:40:47.001Z</time></trkpt><trkpt lat="51.56335556762643" lon="16.744815933834854"><ele>93.5</ele><time>2026-04-08T08:40:48.001Z</time></trkpt><trkpt lat="51.56348996112233" lon="16.744811834222777"><ele>93.25</ele><time>2026-04-08T08:40:49.001Z</time></trkpt><trkpt lat="51.5636256678963" lon="16.744793601254734"><ele>93.0</ele><time>2026-04-08T08:40:50.001Z</time></trkpt><trkpt lat="51.56374389721752" lon="16.74479965284402"><ele>93.75</ele><time>2026-04-08T08:40:51.001Z</time></trkpt><trkpt lat="51.56384744733122" lon="16.744752929690186"><ele>94.5</ele><time>2026-04-08T08:40:52.001Z</time></trkpt><trkpt lat="51.56397235734547" lon="16.744718407417732"><ele>95.25</ele><time>2026-04-08T08:40:53.001Z</time></trkpt><trkpt lat="51.5641007779805" lon="16.744669882564757"><ele>96.0</ele><time>2026-04-08T08:40:54.001Z</time></trkpt><trkpt lat="51.564227461161224" lon="16.744652918469725"><ele>96.0</ele><time>2026-04-08T08:40:55.001Z</time></trkpt><trkpt lat="51.56435638758637" lon="16.744597297268164"><ele>96.0</ele><time>2026-04-08T08:40:56.001Z</time></trkpt><trkpt lat="51.564494848856846" lon="16.744594842826714"><ele>96.0</ele><time>2026-04-08T08:40:57.001Z</time></trkpt><trkpt lat="51.56462604016303" lon="16.74457607483372"><ele>96.0</ele><time>2026-04-08T08:40:58.001Z</time></trkpt><trkpt lat="51.56474204614299" lon="16.744581140608048"><ele>96.5</ele><time>2026-04-08T08:40:59.001Z</time></trkpt><trkpt lat="51.56486035601419" lon="16.744611309765318"><ele>97.0</ele><time>2026-04-08T08:41:00.001Z</time></trkpt><trkpt lat="51.5649858299523" lon="16.744605025417002"><ele>97.5</ele><time>2026-04-08T08:41:01.001Z</time></trkpt><trkpt lat="51.565115620008505" lon="16.744631008622346"><ele>98.0</ele><time>2026-04-08T08:41:02.001Z</time></trkpt><trkpt lat="51.56524333499894" lon="16.744620873614846"><ele>98.5</ele><time>2026-04-08T08:41:03.001Z</time></trkpt><trkpt lat="51.5653712199521" lon="16.74456813410919"><ele>99.0</ele><time>2026-04-08T08:41:04.001Z</time></trkpt><trkpt lat="51.56549233796834" lon="16.744498139396285"><ele>99.5</ele><time>2026-04-08T08:41:05.001Z</time></trkpt><trkpt lat="51.56560693323282" lon="16.74441783575011"><ele>100.0</ele><time>2026-04-08T08:41:06.001Z</time></trkpt><trkpt lat="51.565715013825645" lon="16.744415352906092"><ele>100.0</ele><time>2026-04-08T08:41:07.001Z</time></trkpt><trkpt lat="51.565814350216044" lon="16.744407278331874"><ele>100.0</ele><time>2026-04-08T08:41:08.001Z</time></trkpt><trkpt lat="51.56592965218934" lon="16.744401934422665"><ele>100.0</ele><time>2026-04-08T08:41:09.001Z</time></trkpt><trkpt lat="51.566054153637324" lon="16.74436777893737"><ele>100.0</ele><time>2026-04-08T08:41:10.001Z</time></trkpt><trkpt lat="51.56618730242855" lon="16.744355615070535"><ele>100.5</ele><time>2026-04-08T08:41:11.001Z</time></trkpt><trkpt lat="51.56632326498909" lon="16.74433474914496"><ele>101.0</ele><time>2026-04-08T08:41:12.001Z</time></trkpt><trkpt lat="51.56646125391941" lon="16.744317272973362"><ele>101.5</ele><time>2026-04-08T08:41:13.001Z</time></trkpt><trkpt lat="51.56659983567377" lon="16.744301703425055"><ele>102.0</ele><time>2026-04-08T08:41:14.001Z</time></trkpt><trkpt lat="51.56673987905277" lon="16.744291306020198"><ele>102.0</ele><time>2026-04-08T08:41:15.001Z</time></trkpt><trkpt lat="51.56687203969887" lon="16.744277245560966"><ele>102.0</ele><time>2026-04-08T08:41:16.001Z</time></trkpt><trkpt lat="51.56698503262063" lon="16.744278304269418"><ele>102.0</ele><time>2026-04-08T08:41:17.001Z</time></trkpt><trkpt lat="51.56710083985245" lon="16.744260310260913"><ele>102.0</ele><time>2026-04-08T08:41:18.001Z</time></trkpt><trkpt lat="51.567222926362724" lon="16.744240194534722"><ele>102.0</ele><time>2026-04-08T08:41:19.001Z</time></trkpt><trkpt lat="51.56734678827484" lon="16.744220995682497"><ele>102.0</ele><time>2026-04-08T08:41:20.001Z</time></trkpt><trkpt lat="51.56747022188698" lon="16.744203799973725"><ele>102.0</ele><time>2026-04-08T08:41:21.001Z</time></trkpt><trkpt lat="51.56758335777607" lon="16.744168425804574"><ele>102.0</ele><time>2026-04-08T08:41:22.001Z</time></trkpt><trkpt lat="51.567686411673364" lon="16.744135819353158"><ele>102.0</ele><time>2026-04-08T08:41:23.001Z</time></trkpt><trkpt lat="51.567796896427076" lon="16.744132804515516"><ele>102.0</ele><time>2026-04-08T08:41:24.001Z</time></trkpt><trkpt lat="51.56791660640893" lon="16.744102558518435"><ele>102.0</ele><time>2026-04-08T08:41:25.001Z</time></trkpt><trkpt lat="51.56803585973269" lon="16.74413522285701"><ele>102.0</ele><time>2026-04-08T08:41:26.001Z</time></trkpt><trkpt lat="51.5681607954829" lon="16.7441527927994"><ele>102.75</ele><time>2026-04-08T08:41:27.001Z</time></trkpt><trkpt lat="51.56829227674263" lon="16.744145904286235"><ele>103.5</ele><time>2026-04-08T08:41:28.001Z</time></trkpt><trkpt lat="51.56842025797191" lon="16.744165313952987"><ele>104.25</ele><time>2026-04-08T08:41:29.001Z</time></trkpt><trkpt lat="51.56854470787306" lon="16.744184766352912"><ele>105.0</ele><time>2026-04-08T08:41:30.001Z</time></trkpt><trkpt lat="51.568663978431495" lon="16.744202167409764"><ele>105.8</ele><time>2026-04-08T08:41:31.001Z</time></trkpt><trkpt lat="51.568773770094275" lon="16.744217341348634"><ele>106.6</ele><time>2026-04-08T08:41:32.001Z</time></trkpt><trkpt lat="51.568866870173" lon="16.74420431537526"><ele>107.4</ele><time>2026-04-08T08:41:33.001Z</time></trkpt><trkpt lat="51.56897001009383" lon="16.74416484306958"><ele>108.2</ele><time>2026-04-08T08:41:34.001Z</time></trkpt><trkpt lat="51.569076282638015" lon="16.744130211982636"><ele>109.0</ele><time>2026-04-08T08:41:35.001Z</time></trkpt><trkpt lat="51.56917230988888" lon="16.744009306203672"><ele>109.0</ele><time>2026-04-08T08:41:36.001Z</time></trkpt><trkpt lat="51.569258329344905" lon="16.743897297310987"><ele>109.0</ele><time>2026-04-08T08:41:37.001Z</time></trkpt><trkpt lat="51.56934573476108" lon="16.743805260698526"><ele>109.0</ele><time>2026-04-08T08:41:38.001Z</time></trkpt><trkpt lat="51.56943155722868" lon="16.743681337532625"><ele>109.0</ele><time>2026-04-08T08:41:39.001Z</time></trkpt><trkpt lat="51.56950768798379" lon="16.743600581330416"><ele>109.0</ele><time>2026-04-08T08:41:40.001Z</time></trkpt><trkpt lat="51.56958584427182" lon="16.743554481661057"><ele>109.4</ele><time>2026-04-08T08:41:41.001Z</time></trkpt><trkpt lat="51.56967645959531" lon="16.743528728923135"><ele>109.80000000000001</ele><time>2026-04-08T08:41:42.001Z</time></trkpt><trkpt lat="51.56976636751638" lon="16.743552749801832"><ele>110.19999999999999</ele><time>2026-04-08T08:41:43.001Z</time></trkpt><trkpt lat="51.569866285978236" lon="16.743580365994827"><ele>110.6</ele><time>2026-04-08T08:41:44.001Z</time></trkpt><trkpt lat="51.56997377134982" lon="16.74361945274213"><ele>111.0</ele><time>2026-04-08T08:41:45.001Z</time></trkpt><trkpt lat="51.570094604022394" lon="16.74366941897486"><ele>111.0</ele><time>2026-04-08T08:41:46.001Z</time></trkpt><trkpt lat="51.570216824825" lon="16.74370373732257"><ele>111.0</ele><time>2026-04-08T08:41:47.001Z</time></trkpt><trkpt lat="51.570346486010706" lon="16.743755985822805"><ele>111.0</ele><time>2026-04-08T08:41:48.001Z</time></trkpt><trkpt lat="51.5704753438209" lon="16.74381372409799"><ele>111.0</ele><time>2026-04-08T08:41:49.001Z</time></trkpt><trkpt lat="51.570606032538564" lon="16.743859304386582"><ele>111.25</ele><time>2026-04-08T08:41:50.001Z</time></trkpt><trkpt lat="51.57074828774064" lon="16.743903737107235"><ele>111.5</ele><time>2026-04-08T08:41:51.001Z</time></trkpt><trkpt lat="51.57088352032851" lon="16.743929082319976"><ele>111.75</ele><time>2026-04-08T08:41:52.001Z</time></trkpt><trkpt lat="51.571023761509345" lon="16.743916782857195"><ele>112.0</ele><time>2026-04-08T08:41:53.001Z</time></trkpt><trkpt lat="51.57117060413853" lon="16.74389214780371"><ele>113.0</ele><time>2026-04-08T08:41:54.001Z</time></trkpt><trkpt lat="51.57132423780156" lon="16.743859729187182"><ele>114.0</ele><time>2026-04-08T08:41:55.001Z</time></trkpt><trkpt lat="51.57147831073047" lon="16.743835309251878"><ele>115.0</ele><time>2026-04-08T08:41:56.001Z</time></trkpt><trkpt lat="51.57162071913982" lon="16.74381224975995"><ele>115.0</ele><time>2026-04-08T08:41:57.001Z</time></trkpt><trkpt lat="51.57174420110211" lon="16.743810271211107"><ele>115.0</ele><time>2026-04-08T08:41:58.001Z</time></trkpt><trkpt lat="51.5718560361828" lon="16.743797511616407"><ele>115.0</ele><time>2026-04-08T08:41:59.001Z</time></trkpt><trkpt lat="51.571964983295146" lon="16.743792982242226"><ele>115.0</ele><time>2026-04-08T08:42:00.001Z</time></trkpt><trkpt lat="51.572083784089834" lon="16.74381907638986"><ele>118.25</ele><time>2026-04-08T08:42:01.001Z</time></trkpt><trkpt lat="51.57218713564052" lon="16.743875575789108"><ele>121.5</ele><time>2026-04-08T08:42:02.001Z</time></trkpt><trkpt lat="51.572291925858956" lon="16.743913735110766"><ele>124.75</ele><time>2026-04-08T08:42:03.001Z</time></trkpt><trkpt lat="51.572282190733745" lon="16.74409919178761"><ele>128.0</ele><time>2026-04-08T08:42:04.001Z</time></trkpt><trkpt lat="51.57290429224922" lon="16.743679588357615"><ele>129.20000000000002</ele><time>2026-04-08T08:42:08.001Z</time></trkpt><trkpt lat="51.57302033239555" lon="16.743676298439738"><ele>130.4</ele><time>2026-04-08T08:42:09.001Z</time></trkpt><trkpt lat="51.57311879054006" lon="16.743662730423203"><ele>131.60000000000002</ele><time>2026-04-08T08:42:10.001Z</time></trkpt><trkpt lat="51.57319704913973" lon="16.743662650362943"><ele>132.8</ele><time>2026-04-08T08:42:11.001Z</time></trkpt><trkpt lat="51.57327457472275" lon="16.743658739146486"><ele>134.0</ele><time>2026-04-08T08:42:13.001Z</time></trkpt><trkpt lat="51.5733646235163" lon="16.743562826227162"><ele>134.2</ele><time>2026-04-08T08:42:15.001Z</time></trkpt><trkpt lat="51.57343985827435" lon="16.743501982567146"><ele>134.4</ele><time>2026-04-08T08:42:16.001Z</time></trkpt><trkpt lat="51.57352811307232" lon="16.743462688685945"><ele>134.6</ele><time>2026-04-08T08:42:17.001Z</time></trkpt><trkpt lat="51.57362417887078" lon="16.7434070965865"><ele>134.8</ele><time>2026-04-08T08:42:18.001Z</time></trkpt><trkpt lat="51.57372790096478" lon="16.743373402012455"><ele>135.0</ele><time>2026-04-08T08:42:19.001Z</time></trkpt><trkpt lat="51.57382884872632" lon="16.74333932211774"><ele>135.0</ele><time>2026-04-08T08:42:20.001Z</time></trkpt><trkpt lat="51.573925048653244" lon="16.743351019566184"><ele>135.0</ele><time>2026-04-08T08:42:21.001Z</time></trkpt><trkpt lat="51.57400785611793" lon="16.74335215835602"><ele>135.0</ele><time>2026-04-08T08:42:22.001Z</time></trkpt><trkpt lat="51.57409461151564" lon="16.743363214868076"><ele>135.0</ele><time>2026-04-08T08:42:23.001Z</time></trkpt><trkpt lat="51.574172663179766" lon="16.743360358313133"><ele>135.0</ele><time>2026-04-08T08:42:24.001Z</time></trkpt><trkpt lat="51.57425214691557" lon="16.743386865374365"><ele>135.0</ele><time>2026-04-08T08:42:25.001Z</time></trkpt><trkpt lat="51.5743530107223" lon="16.743393443978015"><ele>135.0</ele><time>2026-04-08T08:42:26.001Z</time></trkpt><trkpt lat="51.57442406187162" lon="16.743404744127222"><ele>135.0</ele><time>2026-04-08T08:42:27.001Z</time></trkpt><trkpt lat="51.57449357075287" lon="16.743415316770786"><ele>135.0</ele><time>2026-04-08T08:42:28.001Z</time></trkpt><trkpt lat="51.5745716887892" lon="16.743401858326514"><ele>135.0</ele><time>2026-04-08T08:42:29.001Z</time></trkpt><trkpt lat="51.574672775069445" lon="16.7433712312472"><ele>135.0</ele><time>2026-04-08T08:42:31.001Z</time></trkpt><trkpt lat="51.57479436207383" lon="16.743348944842143"><ele>135.0</ele><time>2026-04-08T08:42:34.001Z</time></trkpt><trkpt lat="51.5748757369548" lon="16.74328528209427"><ele>136.5</ele><time>2026-04-08T08:42:35.001Z</time></trkpt><trkpt lat="51.574963683033324" lon="16.743215840870096"><ele>138.0</ele><time>2026-04-08T08:42:36.001Z</time></trkpt><trkpt lat="51.57506455470395" lon="16.743135529663892"><ele>139.5</ele><time>2026-04-08T08:42:37.001Z</time></trkpt><trkpt lat="51.57517804417037" lon="16.743058228266896"><ele>141.0</ele><time>2026-04-08T08:42:38.001Z</time></trkpt><trkpt lat="51.57529195377769" lon="16.742978665527087"><ele>141.0</ele><time>2026-04-08T08:42:39.001Z</time></trkpt><trkpt lat="51.57541184460659" lon="16.742888739424135"><ele>141.0</ele><time>2026-04-08T08:42:40.001Z</time></trkpt><trkpt lat="51.575536772217575" lon="16.742805345401642"><ele>141.0</ele><time>2026-04-08T08:42:41.001Z</time></trkpt><trkpt lat="51.57565392013956" lon="16.742679600907042"><ele>141.0</ele><time>2026-04-08T08:42:42.001Z</time></trkpt><trkpt lat="51.57578674283849" lon="16.742554482750315"><ele>141.0</ele><time>2026-04-08T08:42:43.001Z</time></trkpt><trkpt lat="51.575901584613845" lon="16.742453170766524"><ele>141.0</ele><time>2026-04-08T08:42:44.001Z</time></trkpt><trkpt lat="51.576012312780634" lon="16.742374505383037"><ele>141.0</ele><time>2026-04-08T08:42:45.001Z</time></trkpt><trkpt lat="51.576098529338466" lon="16.742288843385193"><ele>141.0</ele><time>2026-04-08T08:42:46.001Z</time></trkpt><trkpt lat="51.57618126180136" lon="16.742229016662176"><ele>141.0</ele><time>2026-04-08T08:42:47.001Z</time></trkpt><trkpt lat="51.57624661292023" lon="16.742194731483593"><ele>140.8</ele><time>2026-04-08T08:42:48.001Z</time></trkpt><trkpt lat="51.5763026269622" lon="16.742050206393895"><ele>140.6</ele><time>2026-04-08T08:42:50.001Z</time></trkpt><trkpt lat="51.57631162631136" lon="16.741925659417117"><ele>140.4</ele><time>2026-04-08T08:42:51.001Z</time></trkpt><trkpt lat="51.576313149030355" lon="16.741781605818648"><ele>140.2</ele><time>2026-04-08T08:42:52.001Z</time></trkpt><trkpt lat="51.5763007727744" lon="16.74161480405722"><ele>140.0</ele><time>2026-04-08T08:42:53.001Z</time></trkpt><trkpt lat="51.576299380709386" lon="16.741458721353265"><ele>140.0</ele><time>2026-04-08T08:42:54.001Z</time></trkpt><trkpt lat="51.57631232715206" lon="16.741265146676728"><ele>140.0</ele><time>2026-04-08T08:42:55.001Z</time></trkpt><trkpt lat="51.57632982747739" lon="16.741070785865116"><ele>140.0</ele><time>2026-04-08T08:42:56.001Z</time></trkpt><trkpt lat="51.57632488835692" lon="16.74089648517235"><ele>140.0</ele><time>2026-04-08T08:42:57.001Z</time></trkpt><trkpt lat="51.57629182885634" lon="16.74076821129605"><ele>140.0</ele><time>2026-04-08T08:42:58.001Z</time></trkpt><trkpt lat="51.5762708335925" lon="16.740639981741026"><ele>139.83333333333331</ele><time>2026-04-08T08:42:59.001Z</time></trkpt><trkpt lat="51.5762310284474" lon="16.740506847266428"><ele>139.66666666666666</ele><time>2026-04-08T08:43:00.001Z</time></trkpt><trkpt lat="51.57619739498863" lon="16.740364246670453"><ele>139.5</ele><time>2026-04-08T08:43:01.001Z</time></trkpt><trkpt lat="51.57615768793517" lon="16.740275393416912"><ele>139.33333333333334</ele><time>2026-04-08T08:43:02.001Z</time></trkpt><trkpt lat="51.5761155192652" lon="16.740181546054874"><ele>139.16666666666669</ele><time>2026-04-08T08:43:03.001Z</time></trkpt><trkpt lat="51.57605579160399" lon="16.740078506445524"><ele>139.0</ele><time>2026-04-08T08:43:04.001Z</time></trkpt><trkpt lat="51.576027864020986" lon="16.73993517152075"><ele>137.75</ele><time>2026-04-08T08:43:05.001Z</time></trkpt><trkpt lat="51.57598989765393" lon="16.739769726072353"><ele>136.5</ele><time>2026-04-08T08:43:06.001Z</time></trkpt><trkpt lat="51.575961981020434" lon="16.73959225596719"><ele>135.25</ele><time>2026-04-08T08:43:07.001Z</time></trkpt><trkpt lat="51.57592426423285" lon="16.739419016628673"><ele>134.0</ele><time>2026-04-08T08:43:08.001Z</time></trkpt><trkpt lat="51.57587649610875" lon="16.739247764489566"><ele>133.25</ele><time>2026-04-08T08:43:09.001Z</time></trkpt><trkpt lat="51.57582811594529" lon="16.739092248420473"><ele>132.5</ele><time>2026-04-08T08:43:10.001Z</time></trkpt><trkpt lat="51.57577371564221" lon="16.738909456476367"><ele>131.75</ele><time>2026-04-08T08:43:11.001Z</time></trkpt><trkpt lat="51.57572755466151" lon="16.7387237707645"><ele>131.0</ele><time>2026-04-08T08:43:12.001Z</time></trkpt><trkpt lat="51.57566876479046" lon="16.738529959766932"><ele>130.75</ele><time>2026-04-08T08:43:13.001Z</time></trkpt><trkpt lat="51.575611045552996" lon="16.738313938039404"><ele>130.5</ele><time>2026-04-08T08:43:14.001Z</time></trkpt><trkpt lat="51.575559285885475" lon="16.738099301716524"><ele>130.25</ele><time>2026-04-08T08:43:15.001Z</time></trkpt><trkpt lat="51.57551824312167" lon="16.737925567546853"><ele>130.0</ele><time>2026-04-08T08:43:16.001Z</time></trkpt><trkpt lat="51.57550089386213" lon="16.73775736215326"><ele>130.0</ele><time>2026-04-08T08:43:17.001Z</time></trkpt><trkpt lat="51.57547520168919" lon="16.737608235784595"><ele>130.0</ele><time>2026-04-08T08:43:18.001Z</time></trkpt><trkpt lat="51.57544316610104" lon="16.737457371128347"><ele>130.0</ele><time>2026-04-08T08:43:19.001Z</time></trkpt><trkpt lat="51.5754308512904" lon="16.737290244615224"><ele>130.0</ele><time>2026-04-08T08:43:20.001Z</time></trkpt><trkpt lat="51.5754419931203" lon="16.737122930974525"><ele>130.0</ele><time>2026-04-08T08:43:21.001Z</time></trkpt><trkpt lat="51.57545141590894" lon="16.736946437017057"><ele>130.25</ele><time>2026-04-08T08:43:22.001Z</time></trkpt><trkpt lat="51.57541843063916" lon="16.73673345160656"><ele>130.5</ele><time>2026-04-08T08:43:23.001Z</time></trkpt><trkpt lat="51.5753807445509" lon="16.736515472963838"><ele>130.75</ele><time>2026-04-08T08:43:24.001Z</time></trkpt><trkpt lat="51.57534038811382" lon="16.736298987240428"><ele>131.0</ele><time>2026-04-08T08:43:25.001Z</time></trkpt><trkpt lat="51.57528865134636" lon="16.736065451843942"><ele>129.25</ele><time>2026-04-08T08:43:26.001Z</time></trkpt><trkpt lat="51.57523738369766" lon="16.735817823531708"><ele>127.5</ele><time>2026-04-08T08:43:27.001Z</time></trkpt><trkpt lat="51.57518818126612" lon="16.735613221660934"><ele>125.75</ele><time>2026-04-08T08:43:28.001Z</time></trkpt><trkpt lat="51.575153410695314" lon="16.735422150149077"><ele>124.0</ele><time>2026-04-08T08:43:29.001Z</time></trkpt><trkpt lat="51.57511569155535" lon="16.735273951589544"><ele>124.0</ele><time>2026-04-08T08:43:30.001Z</time></trkpt><trkpt lat="51.575058904652614" lon="16.735134810267834"><ele>124.0</ele><time>2026-04-08T08:43:31.001Z</time></trkpt><trkpt lat="51.57498228279358" lon="16.735001433582646"><ele>124.0</ele><time>2026-04-08T08:43:32.001Z</time></trkpt><trkpt lat="51.57487874631079" lon="16.73487092589914"><ele>124.0</ele><time>2026-04-08T08:43:33.001Z</time></trkpt><trkpt lat="51.57479980587966" lon="16.734722345549287"><ele>124.0</ele><time>2026-04-08T08:43:34.001Z</time></trkpt><trkpt lat="51.57472246206698" lon="16.734549575349842"><ele>124.0</ele><time>2026-04-08T08:43:35.001Z</time></trkpt><trkpt lat="51.57465103709764" lon="16.734345256191897"><ele>124.0</ele><time>2026-04-08T08:43:36.001Z</time></trkpt><trkpt lat="51.574574263448426" lon="16.734161076050853"><ele>124.0</ele><time>2026-04-08T08:43:37.001Z</time></trkpt><trkpt lat="51.5744822358131" lon="16.734034926435868"><ele>123.75</ele><time>2026-04-08T08:43:38.001Z</time></trkpt><trkpt lat="51.57439412807574" lon="16.733960509430823"><ele>123.5</ele><time>2026-04-08T08:43:39.001Z</time></trkpt><trkpt lat="51.57429593027472" lon="16.733861839880163"><ele>123.25</ele><time>2026-04-08T08:43:40.001Z</time></trkpt><trkpt lat="51.57420209332846" lon="16.733732100381765"><ele>123.0</ele><time>2026-04-08T08:43:41.001Z</time></trkpt><trkpt lat="51.57411489987041" lon="16.733597136126747"><ele>123.4</ele><time>2026-04-08T08:43:42.001Z</time></trkpt><trkpt lat="51.57405786804636" lon="16.733484971840067"><ele>123.80000000000001</ele><time>2026-04-08T08:43:43.001Z</time></trkpt><trkpt lat="51.574014394426825" lon="16.733370959827134"><ele>124.2</ele><time>2026-04-08T08:43:44.001Z</time></trkpt><trkpt lat="51.57394342374891" lon="16.733266172523376"><ele>124.6</ele><time>2026-04-08T08:43:45.001Z</time></trkpt><trkpt lat="51.57383768872201" lon="16.733170313621272"><ele>125.0</ele><time>2026-04-08T08:43:46.001Z</time></trkpt><trkpt lat="51.57373471872075" lon="16.733060671797816"><ele>124.2</ele><time>2026-04-08T08:43:47.001Z</time></trkpt><trkpt lat="51.57363376250811" lon="16.732953133981844"><ele>123.4</ele><time>2026-04-08T08:43:48.001Z</time></trkpt><trkpt lat="51.57356058105431" lon="16.732822045554776"><ele>122.6</ele><time>2026-04-08T08:43:49.001Z</time></trkpt><trkpt lat="51.57350260567084" lon="16.73268278131067"><ele>121.8</ele><time>2026-04-08T08:43:50.001Z</time></trkpt><trkpt lat="51.57344770616384" lon="16.7325244221511"><ele>121.0</ele><time>2026-04-08T08:43:51.001Z</time></trkpt><trkpt lat="51.573386142371795" lon="16.732350348120196"><ele>119.75</ele><time>2026-04-08T08:43:52.001Z</time></trkpt><trkpt lat="51.57332852700313" lon="16.73216893685786"><ele>118.5</ele><time>2026-04-08T08:43:53.001Z</time></trkpt><trkpt lat="51.5732624861584" lon="16.731976893417826"><ele>117.25</ele><time>2026-04-08T08:43:54.001Z</time></trkpt><trkpt lat="51.57318011135635" lon="16.73179005464194"><ele>116.0</ele><time>2026-04-08T08:43:55.001Z</time></trkpt><trkpt lat="51.57310069729428" lon="16.731617241951124"><ele>116.0</ele><time>2026-04-08T08:43:56.001Z</time></trkpt><trkpt lat="51.57301920720133" lon="16.73145339479192"><ele>116.0</ele><time>2026-04-08T08:43:57.001Z</time></trkpt><trkpt lat="51.57294711817885" lon="16.73127803891002"><ele>116.0</ele><time>2026-04-08T08:43:58.001Z</time></trkpt><trkpt lat="51.57290641644526" lon="16.731114582451998"><ele>116.0</ele><time>2026-04-08T08:43:59.001Z</time></trkpt><trkpt lat="51.57286843598283" lon="16.730930758328885"><ele>114.75</ele><time>2026-04-08T08:44:00.001Z</time></trkpt><trkpt lat="51.57284468973389" lon="16.73074151652153"><ele>113.5</ele><time>2026-04-08T08:44:01.001Z</time></trkpt><trkpt lat="51.572791482625014" lon="16.73056449474249"><ele>112.25</ele><time>2026-04-08T08:44:02.001Z</time></trkpt><trkpt lat="51.57273343660903" lon="16.73039971910599"><ele>111.0</ele><time>2026-04-08T08:44:03.001Z</time></trkpt><trkpt lat="51.57267338965668" lon="16.730237447207166"><ele>111.6</ele><time>2026-04-08T08:44:04.001Z</time></trkpt><trkpt lat="51.572646760165405" lon="16.730083562069613"><ele>112.19999999999999</ele><time>2026-04-08T08:44:05.001Z</time></trkpt><trkpt lat="51.572603101374554" lon="16.729949927669264"><ele>112.80000000000001</ele><time>2026-04-08T08:44:06.001Z</time></trkpt><trkpt lat="51.572535263918766" lon="16.72984138270204"><ele>113.4</ele><time>2026-04-08T08:44:07.001Z</time></trkpt><trkpt lat="51.57242839832945" lon="16.729758032027977"><ele>114.0</ele><time>2026-04-08T08:44:08.001Z</time></trkpt><trkpt lat="51.572317539669875" lon="16.729655199162323"><ele>114.0</ele><time>2026-04-08T08:44:09.001Z</time></trkpt><trkpt lat="51.57219522807171" lon="16.729554650148298"><ele>114.0</ele><time>2026-04-08T08:44:10.001Z</time></trkpt><trkpt lat="51.572068880286324" lon="16.729462581724942"><ele>114.0</ele><time>2026-04-08T08:44:11.001Z</time></trkpt><trkpt lat="51.57195267723976" lon="16.72933262544039"><ele>114.0</ele><time>2026-04-08T08:44:12.001Z</time></trkpt><trkpt lat="51.5718326288547" lon="16.729227975288886"><ele>112.80000000000001</ele><time>2026-04-08T08:44:13.001Z</time></trkpt><trkpt lat="51.571708080138585" lon="16.729171245042597"><ele>111.60000000000001</ele><time>2026-04-08T08:44:14.001Z</time></trkpt><trkpt lat="51.57160828586484" lon="16.729078993177676"><ele>110.4</ele><time>2026-04-08T08:44:15.001Z</time></trkpt><trkpt lat="51.57152388225828" lon="16.728989095904243"><ele>109.2</ele><time>2026-04-08T08:44:16.001Z</time></trkpt><trkpt lat="51.57145411335442" lon="16.72889191212549"><ele>108.0</ele><time>2026-04-08T08:44:17.001Z</time></trkpt><trkpt lat="51.57140919936309" lon="16.728782644274563"><ele>108.0</ele><time>2026-04-08T08:44:18.001Z</time></trkpt><trkpt lat="51.57133950590636" lon="16.728762424951913"><ele>108.0</ele><time>2026-04-08T08:44:19.001Z</time></trkpt><trkpt lat="51.57125617623362" lon="16.728835437474203"><ele>108.0</ele><time>2026-04-08T08:44:20.001Z</time></trkpt><trkpt lat="51.57121329416764" lon="16.72895475029209"><ele>108.0</ele><time>2026-04-08T08:44:21.001Z</time></trkpt><trkpt lat="51.57120112893973" lon="16.729118199233156"><ele>108.0</ele><time>2026-04-08T08:44:22.001Z</time></trkpt><trkpt lat="51.571149766023176" lon="16.729238327464696"><ele>108.0</ele><time>2026-04-08T08:44:23.001Z</time></trkpt><trkpt lat="51.57110279735346" lon="16.729385948659647"><ele>106.80000000000001</ele><time>2026-04-08T08:44:24.001Z</time></trkpt><trkpt lat="51.57104321763794" lon="16.729513614034378"><ele>105.60000000000001</ele><time>2026-04-08T08:44:25.001Z</time></trkpt><trkpt lat="51.570957357381296" lon="16.72959216989341"><ele>104.4</ele><time>2026-04-08T08:44:26.001Z</time></trkpt><trkpt lat="51.57086080660371" lon="16.729663031896308"><ele>103.19999999999999</ele><time>2026-04-08T08:44:27.001Z</time></trkpt><trkpt lat="51.57075101727699" lon="16.729743604128323"><ele>102.0</ele><time>2026-04-08T08:44:28.001Z</time></trkpt><trkpt lat="51.57063696517534" lon="16.729817623377333"><ele>102.0</ele><time>2026-04-08T08:44:29.001Z</time></trkpt><trkpt lat="51.570508371649616" lon="16.729896252513313"><ele>102.0</ele><time>2026-04-08T08:44:30.001Z</time></trkpt><trkpt lat="51.57037635248867" lon="16.729993821304145"><ele>102.0</ele><time>2026-04-08T08:44:31.001Z</time></trkpt><trkpt lat="51.570222609976035" lon="16.730055264010687"><ele>102.0</ele><time>2026-04-08T08:44:32.001Z</time></trkpt><trkpt lat="51.57007268300241" lon="16.730128296459494"><ele>101.75</ele><time>2026-04-08T08:44:33.001Z</time></trkpt><trkpt lat="51.56994266536734" lon="16.730169989273058"><ele>101.5</ele><time>2026-04-08T08:44:34.001Z</time></trkpt><trkpt lat="51.56981576182894" lon="16.730191646028846"><ele>101.25</ele><time>2026-04-08T08:44:35.001Z</time></trkpt><trkpt lat="51.569683056838834" lon="16.730208094991692"><ele>101.0</ele><time>2026-04-08T08:44:36.001Z</time></trkpt><trkpt lat="51.56955230149568" lon="16.73015877589577"><ele>101.0</ele><time>2026-04-08T08:44:37.001Z</time></trkpt><trkpt lat="51.569417606738426" lon="16.73012777731748"><ele>101.0</ele><time>2026-04-08T08:44:38.001Z</time></trkpt><trkpt lat="51.569280653106254" lon="16.730116897526806"><ele>101.0</ele><time>2026-04-08T08:44:39.001Z</time></trkpt><trkpt lat="51.569150666797704" lon="16.730084331545658"><ele>101.0</ele><time>2026-04-08T08:44:40.001Z</time></trkpt><trkpt lat="51.56902880467924" lon="16.73005369701344"><ele>101.0</ele><time>2026-04-08T08:44:41.001Z</time></trkpt><trkpt lat="51.568902470489704" lon="16.73005042746974"><ele>101.0</ele><time>2026-04-08T08:44:42.001Z</time></trkpt><trkpt lat="51.56877808389798" lon="16.730022082025794"><ele>101.0</ele><time>2026-04-08T08:44:43.001Z</time></trkpt><trkpt lat="51.568671003635174" lon="16.730006759807555"><ele>101.0</ele><time>2026-04-08T08:44:44.001Z</time></trkpt><trkpt lat="51.56856973504019" lon="16.729987245229157"><ele>101.0</ele><time>2026-04-08T08:44:45.001Z</time></trkpt><trkpt lat="51.56846955167061" lon="16.729947449598754"><ele>101.0</ele><time>2026-04-08T08:44:46.001Z</time></trkpt><trkpt lat="51.56837076687698" lon="16.729861840832037"><ele>101.0</ele><time>2026-04-08T08:44:47.001Z</time></trkpt><trkpt lat="51.56826192990929" lon="16.729812960407312"><ele>101.0</ele><time>2026-04-08T08:44:48.001Z</time></trkpt><trkpt lat="51.56817253914431" lon="16.72975457179505"><ele>101.0</ele><time>2026-04-08T08:44:49.001Z</time></trkpt><trkpt lat="51.56808886384367" lon="16.72972336777243"><ele>101.0</ele><time>2026-04-08T08:44:50.001Z</time></trkpt><trkpt lat="51.56802536651933" lon="16.72965768186592"><ele>101.0</ele><time>2026-04-08T08:44:51.001Z</time></trkpt><trkpt lat="51.567940580700224" lon="16.729565050510857"><ele>101.0</ele><time>2026-04-08T08:44:53Z</time></trkpt><trkpt lat="51.56796736092801" lon="16.72936925025902"><ele>101.0</ele><time>2026-04-08T08:44:55Z</time></trkpt><trkpt lat="51.56797402795258" lon="16.729248176750247"><ele>101.0</ele><time>2026-04-08T08:44:56Z</time></trkpt><trkpt lat="51.56800041859817" lon="16.72912599933443"><ele>102.0</ele><time>2026-04-08T08:44:57Z</time></trkpt><trkpt lat="51.568019461795174" lon="16.728992192410665"><ele>103.0</ele><time>2026-04-08T08:44:58Z</time></trkpt><trkpt lat="51.56802502488794" lon="16.728827579412627"><ele>104.0</ele><time>2026-04-08T08:44:59Z</time></trkpt><trkpt lat="51.56804466210299" lon="16.728638390255753"><ele>105.0</ele><time>2026-04-08T08:45:00Z</time></trkpt><trkpt lat="51.56806885495913" lon="16.728466217404485"><ele>106.0</ele><time>2026-04-08T08:45:01Z</time></trkpt><trkpt lat="51.5680984776062" lon="16.728294697140498"><ele>106.0</ele><time>2026-04-08T08:45:02Z</time></trkpt><trkpt lat="51.568118691327264" lon="16.728156086675124"><ele>106.0</ele><time>2026-04-08T08:45:03Z</time></trkpt><trkpt lat="51.568161977712585" lon="16.727998798547517"><ele>106.0</ele><time>2026-04-08T08:45:04Z</time></trkpt><trkpt lat="51.56819560425708" lon="16.727815319647526"><ele>106.0</ele><time>2026-04-08T08:45:05Z</time></trkpt><trkpt lat="51.56823323273507" lon="16.727621966601795"><ele>106.0</ele><time>2026-04-08T08:45:06Z</time></trkpt><trkpt lat="51.56827553460089" lon="16.72740772078078"><ele>105.5</ele><time>2026-04-08T08:45:07Z</time></trkpt><trkpt lat="51.568317519128996" lon="16.7271988159765"><ele>105.0</ele><time>2026-04-08T08:45:08Z</time></trkpt><trkpt lat="51.56833985625565" lon="16.727014916725647"><ele>104.5</ele><time>2026-04-08T08:45:09Z</time></trkpt><trkpt lat="51.5683732844474" lon="16.726884834305682"><ele>104.0</ele><time>2026-04-08T08:45:10Z</time></trkpt><trkpt lat="51.568403702507396" lon="16.726692928543933"><ele>103.75</ele><time>2026-04-08T08:45:11Z</time></trkpt><trkpt lat="51.56843743757225" lon="16.726486223398872"><ele>103.5</ele><time>2026-04-08T08:45:12Z</time></trkpt><trkpt lat="51.56846855924927" lon="16.726286024148898"><ele>103.25</ele><time>2026-04-08T08:45:13Z</time></trkpt><trkpt lat="51.56851375560269" lon="16.726098389005497"><ele>103.0</ele><time>2026-04-08T08:45:14Z</time></trkpt><trkpt lat="51.568552470990376" lon="16.725888145254125"><ele>102.75</ele><time>2026-04-08T08:45:15Z</time></trkpt><trkpt lat="51.56859070755203" lon="16.725691877900417"><ele>102.5</ele><time>2026-04-08T08:45:16Z</time></trkpt><trkpt lat="51.56862197175505" lon="16.72550256263776"><ele>102.25</ele><time>2026-04-08T08:45:17Z</time></trkpt><trkpt lat="51.5686600513956" lon="16.725325375298638"><ele>102.0</ele><time>2026-04-08T08:45:18Z</time></trkpt><trkpt lat="51.5686956884936" lon="16.72516529156862"><ele>102.19999999999999</ele><time>2026-04-08T08:45:19Z</time></trkpt><trkpt lat="51.56872576546919" lon="16.725017991311496"><ele>102.4</ele><time>2026-04-08T08:45:20Z</time></trkpt><trkpt lat="51.56876203776855" lon="16.72485372131259"><ele>102.6</ele><time>2026-04-08T08:45:21Z</time></trkpt><trkpt lat="51.568795376386575" lon="16.724684524676633"><ele>102.80000000000001</ele><time>2026-04-08T08:45:22Z</time></trkpt><trkpt lat="51.56882158258368" lon="16.724529167929806"><ele>103.0</ele><time>2026-04-08T08:45:23Z</time></trkpt><trkpt lat="51.56884750726348" lon="16.724395030405223"><ele>103.0</ele><time>2026-04-08T08:45:24Z</time></trkpt><trkpt lat="51.56886962178884" lon="16.724274215377907"><ele>103.0</ele><time>2026-04-08T08:45:25Z</time></trkpt><trkpt lat="51.56888688702698" lon="16.724172670497026"><ele>103.0</ele><time>2026-04-08T08:45:26Z</time></trkpt><trkpt lat="51.568852047158735" lon="16.72397788358296"><ele>103.0</ele><time>2026-04-08T08:45:28Z</time></trkpt><trkpt lat="51.56886566412531" lon="16.723746475528777"><ele>103.0</ele><time>2026-04-08T08:45:30Z</time></trkpt><trkpt lat="51.568870867830896" lon="16.723577452310018"><ele>102.4</ele><time>2026-04-08T08:45:31Z</time></trkpt><trkpt lat="51.56889978897848" lon="16.72339409250061"><ele>101.80000000000001</ele><time>2026-04-08T08:45:32Z</time></trkpt><trkpt lat="51.56892624105852" lon="16.723234104712578"><ele>101.2</ele><time>2026-04-08T08:45:33Z</time></trkpt><trkpt lat="51.568941170107614" lon="16.723111417836233"><ele>100.6</ele><time>2026-04-08T08:45:34Z</time></trkpt><trkpt lat="51.56896008118684" lon="16.723007403545072"><ele>100.0</ele><time>2026-04-08T08:45:35Z</time></trkpt><trkpt lat="51.568991029153054" lon="16.722875293257776"><ele>100.00000000000001</ele><time>2026-04-08T08:45:36Z</time></trkpt><trkpt lat="51.56899383853436" lon="16.722742986564977"><ele>100.0</ele><time>2026-04-08T08:45:37Z</time></trkpt><trkpt lat="51.5690100884936" lon="16.722586892530817"><ele>100.0</ele><time>2026-04-08T08:45:38Z</time></trkpt><trkpt lat="51.569062941150314" lon="16.72244833458096"><ele>100.0</ele><time>2026-04-08T08:45:39Z</time></trkpt><trkpt lat="51.569072459810386" lon="16.72231399836559"><ele>100.00000000000001</ele><time>2026-04-08T08:45:40Z</time></trkpt><trkpt lat="51.56905791673111" lon="16.72220128150499"><ele>100.0</ele><time>2026-04-08T08:45:41Z</time></trkpt><trkpt lat="51.56903288864582" lon="16.72208374703578"><ele>99.8</ele><time>2026-04-08T08:45:42Z</time></trkpt><trkpt lat="51.56899819729815" lon="16.721950180800913"><ele>99.6</ele><time>2026-04-08T08:45:43Z</time></trkpt><trkpt lat="51.568928162535755" lon="16.721837081018894"><ele>99.4</ele><time>2026-04-08T08:45:44Z</time></trkpt><trkpt lat="51.56887188937352" lon="16.721698440278054"><ele>99.2</ele><time>2026-04-08T08:45:45Z</time></trkpt><trkpt lat="51.56878539484146" lon="16.721591010680978"><ele>99.0</ele><time>2026-04-08T08:45:46Z</time></trkpt><trkpt lat="51.56870644843788" lon="16.72145039493063"><ele>98.5</ele><time>2026-04-08T08:45:47Z</time></trkpt><trkpt lat="51.568632617523825" lon="16.721283972184803"><ele>98.0</ele><time>2026-04-08T08:45:48Z</time></trkpt><trkpt lat="51.56855170284393" lon="16.721092627610208"><ele>97.5</ele><time>2026-04-08T08:45:49Z</time></trkpt><trkpt lat="51.56847165315277" lon="16.720950681216955"><ele>97.0</ele><time>2026-04-08T08:45:50Z</time></trkpt><trkpt lat="51.568400888198454" lon="16.72083595588664"><ele>96.83333333333334</ele><time>2026-04-08T08:45:51Z</time></trkpt><trkpt lat="51.56834986102251" lon="16.720731588082476"><ele>96.66666666666667</ele><time>2026-04-08T08:45:52Z</time></trkpt><trkpt lat="51.56829695056825" lon="16.720608523238806"><ele>96.5</ele><time>2026-04-08T08:45:53Z</time></trkpt><trkpt lat="51.56825071371332" lon="16.720466535016143"><ele>96.33333333333334</ele><time>2026-04-08T08:45:54Z</time></trkpt><trkpt lat="51.56819114361944" lon="16.720357442665343"><ele>96.16666666666667</ele><time>2026-04-08T08:45:55Z</time></trkpt><trkpt lat="51.56813112578219" lon="16.720291574683916"><ele>96.0</ele><time>2026-04-08T08:45:56Z</time></trkpt><trkpt lat="51.56807985145029" lon="16.72018397538171"><ele>96.0</ele><time>2026-04-08T08:45:57Z</time></trkpt><trkpt lat="51.568036621105406" lon="16.720081168474902"><ele>96.0</ele><time>2026-04-08T08:45:58Z</time></trkpt><trkpt lat="51.56800912870735" lon="16.719958523282394"><ele>96.0</ele><time>2026-04-08T08:45:59Z</time></trkpt><trkpt lat="51.56797561493054" lon="16.719841191914163"><ele>96.0</ele><time>2026-04-08T08:46:00Z</time></trkpt><trkpt lat="51.567920385017786" lon="16.719697071410764"><ele>96.0</ele><time>2026-04-08T08:46:01Z</time></trkpt><trkpt lat="51.56784992912077" lon="16.719537586531047"><ele>96.25</ele><time>2026-04-08T08:46:02Z</time></trkpt><trkpt lat="51.567790287109986" lon="16.71938224289678"><ele>96.5</ele><time>2026-04-08T08:46:03Z</time></trkpt><trkpt lat="51.56774051766565" lon="16.71924419321074"><ele>96.75</ele><time>2026-04-08T08:46:04Z</time></trkpt><trkpt lat="51.5676746080503" lon="16.71908297163117"><ele>97.0</ele><time>2026-04-08T08:46:05Z</time></trkpt><trkpt lat="51.56760947939858" lon="16.718909149041007"><ele>97.0</ele><time>2026-04-08T08:46:06Z</time></trkpt><trkpt lat="51.5675339893363" lon="16.718745961020698"><ele>97.0</ele><time>2026-04-08T08:46:07Z</time></trkpt><trkpt lat="51.56743769377463" lon="16.718597235776738"><ele>97.0</ele><time>2026-04-08T08:46:08Z</time></trkpt><trkpt lat="51.56736044084048" lon="16.71844586833529"><ele>97.0</ele><time>2026-04-08T08:46:09Z</time></trkpt><trkpt lat="51.567286564328136" lon="16.718298453365453"><ele>96.5</ele><time>2026-04-08T08:46:10Z</time></trkpt><trkpt lat="51.567209034556214" lon="16.718139095298625"><ele>96.0</ele><time>2026-04-08T08:46:11Z</time></trkpt><trkpt lat="51.5671346548709" lon="16.717951634071742"><ele>95.5</ele><time>2026-04-08T08:46:12Z</time></trkpt><trkpt lat="51.567052002698496" lon="16.717743416793947"><ele>95.0</ele><time>2026-04-08T08:46:13Z</time></trkpt><trkpt lat="51.56696349669083" lon="16.717547171787118"><ele>94.75</ele><time>2026-04-08T08:46:14Z</time></trkpt><trkpt lat="51.56688604165166" lon="16.717371352360416"><ele>94.5</ele><time>2026-04-08T08:46:15Z</time></trkpt><trkpt lat="51.56682651422688" lon="16.71720948117277"><ele>94.25</ele><time>2026-04-08T08:46:16Z</time></trkpt><trkpt lat="51.56676423534233" lon="16.717041728330635"><ele>94.0</ele><time>2026-04-08T08:46:17Z</time></trkpt><trkpt lat="51.5666843655418" lon="16.716873947810534"><ele>93.75</ele><time>2026-04-08T08:46:18Z</time></trkpt><trkpt lat="51.566593023227156" lon="16.716700688014708"><ele>93.5</ele><time>2026-04-08T08:46:19Z</time></trkpt><trkpt lat="51.566516713949106" lon="16.71649366577829"><ele>93.25</ele><time>2026-04-08T08:46:20Z</time></trkpt><trkpt lat="51.56643604706379" lon="16.716296906923247"><ele>93.0</ele><time>2026-04-08T08:46:21Z</time></trkpt><trkpt lat="51.56636387220136" lon="16.716126094872582"><ele>92.75</ele><time>2026-04-08T08:46:22.001Z</time></trkpt><trkpt lat="51.56629754891985" lon="16.715981521644466"><ele>92.5</ele><time>2026-04-08T08:46:23.001Z</time></trkpt><trkpt lat="51.56624907956703" lon="16.715830751614458"><ele>92.25</ele><time>2026-04-08T08:46:24.001Z</time></trkpt><trkpt lat="51.56621223183258" lon="16.715653474677882"><ele>92.0</ele><time>2026-04-08T08:46:25.001Z</time></trkpt><trkpt lat="51.56618200333511" lon="16.715458782250806"><ele>92.0</ele><time>2026-04-08T08:46:26.001Z</time></trkpt><trkpt lat="51.56616325349722" lon="16.715259354196284"><ele>92.0</ele><time>2026-04-08T08:46:27.001Z</time></trkpt><trkpt lat="51.56615094475282" lon="16.715041853563815"><ele>92.0</ele><time>2026-04-08T08:46:28.001Z</time></trkpt><trkpt lat="51.566152371744806" lon="16.71483087810213"><ele>92.0</ele><time>2026-04-08T08:46:29.001Z</time></trkpt><trkpt lat="51.56617160435278" lon="16.714645784955255"><ele>92.0</ele><time>2026-04-08T08:46:30.001Z</time></trkpt><trkpt lat="51.566202662820004" lon="16.71448913743682"><ele>92.0</ele><time>2026-04-08T08:46:31.001Z</time></trkpt><trkpt lat="51.56619476565524" lon="16.714315469586893"><ele>92.0</ele><time>2026-04-08T08:46:32.001Z</time></trkpt><trkpt lat="51.56616126144645" lon="16.714147270667326"><ele>92.0</ele><time>2026-04-08T08:46:33.001Z</time></trkpt><trkpt lat="51.56617247382508" lon="16.713959996168914"><ele>92.0</ele><time>2026-04-08T08:46:34.001Z</time></trkpt><trkpt lat="51.56617702324985" lon="16.71375491597988"><ele>92.25</ele><time>2026-04-08T08:46:35.001Z</time></trkpt><trkpt lat="51.56616383543153" lon="16.713534718639977"><ele>92.5</ele><time>2026-04-08T08:46:36.001Z</time></trkpt><trkpt lat="51.566164971482884" lon="16.713303070906647"><ele>92.75</ele><time>2026-04-08T08:46:37.001Z</time></trkpt><trkpt lat="51.566163795496166" lon="16.713069372358042"><ele>93.0</ele><time>2026-04-08T08:46:38.001Z</time></trkpt><trkpt lat="51.566165077883824" lon="16.71282879011769"><ele>93.5</ele><time>2026-04-08T08:46:39.001Z</time></trkpt><trkpt lat="51.56616406945573" lon="16.71259722638441"><ele>94.0</ele><time>2026-04-08T08:46:40.001Z</time></trkpt><trkpt lat="51.56616497226044" lon="16.712364599306593"><ele>94.5</ele><time>2026-04-08T08:46:41.001Z</time></trkpt><trkpt lat="51.5661667013821" lon="16.71212829105314"><ele>95.0</ele><time>2026-04-08T08:46:42.001Z</time></trkpt><trkpt lat="51.56618198548389" lon="16.711889621735445"><ele>95.25</ele><time>2026-04-08T08:46:43.001Z</time></trkpt><trkpt lat="51.56617189021274" lon="16.711647846561696"><ele>95.5</ele><time>2026-04-08T08:46:44.001Z</time></trkpt><trkpt lat="51.56618423748295" lon="16.711411260804823"><ele>95.75</ele><time>2026-04-08T08:46:45.001Z</time></trkpt><trkpt lat="51.5661955451807" lon="16.711179190162976"><ele>96.0</ele><time>2026-04-08T08:46:46.001Z</time></trkpt><trkpt lat="51.56620423978292" lon="16.71093825721102"><ele>96.0</ele><time>2026-04-08T08:46:47.001Z</time></trkpt><trkpt lat="51.5662004666077" lon="16.71068687901548"><ele>96.0</ele><time>2026-04-08T08:46:48.001Z</time></trkpt><trkpt lat="51.56619573626967" lon="16.710434965372528"><ele>96.0</ele><time>2026-04-08T08:46:49.001Z</time></trkpt><trkpt lat="51.56619429876051" lon="16.710184180409062"><ele>96.66666666666666</ele><time>2026-04-08T08:46:50.001Z</time></trkpt><trkpt lat="51.56622209351699" lon="16.709927812535337"><ele>97.33333333333333</ele><time>2026-04-08T08:46:51.001Z</time></trkpt><trkpt lat="51.56621677722691" lon="16.709664760680145"><ele>98.0</ele><time>2026-04-08T08:46:52.001Z</time></trkpt><trkpt lat="51.566238500033194" lon="16.70941411653044"><ele>98.25</ele><time>2026-04-08T08:46:53.001Z</time></trkpt><trkpt lat="51.56622806919293" lon="16.7091907785903"><ele>98.5</ele><time>2026-04-08T08:46:54.001Z</time></trkpt><trkpt lat="51.5662297477747" lon="16.708985000358904"><ele>98.75</ele><time>2026-04-08T08:46:55.001Z</time></trkpt><trkpt lat="51.56622388569719" lon="16.708787919217144"><ele>99.0</ele><time>2026-04-08T08:46:56.001Z</time></trkpt><trkpt lat="51.56623480666215" lon="16.708603047316696"><ele>99.0</ele><time>2026-04-08T08:46:57.001Z</time></trkpt><trkpt lat="51.566230582237225" lon="16.708443359481684"><ele>99.0</ele><time>2026-04-08T08:46:58.001Z</time></trkpt><trkpt lat="51.566240845572366" lon="16.7082732435597"><ele>99.0</ele><time>2026-04-08T08:46:59.001Z</time></trkpt><trkpt lat="51.56624439977996" lon="16.708103331242448"><ele>99.0</ele><time>2026-04-08T08:47:00.001Z</time></trkpt><trkpt lat="51.56626811872576" lon="16.707942011759446"><ele>99.0</ele><time>2026-04-08T08:47:01.001Z</time></trkpt><trkpt lat="51.5662814268594" lon="16.70777342069565"><ele>98.6</ele><time>2026-04-08T08:47:02.001Z</time></trkpt><trkpt lat="51.56629896052963" lon="16.707594177249838"><ele>98.2</ele><time>2026-04-08T08:47:03.001Z</time></trkpt><trkpt lat="51.56630509822423" lon="16.707425847165723"><ele>97.8</ele><time>2026-04-08T08:47:04.001Z</time></trkpt><trkpt lat="51.566321468413676" lon="16.707281808145147"><ele>97.39999999999999</ele><time>2026-04-08T08:47:05.001Z</time></trkpt><trkpt lat="51.566351181490944" lon="16.707137340756635"><ele>97.0</ele><time>2026-04-08T08:47:06.001Z</time></trkpt><trkpt lat="51.566352935836306" lon="16.70697922617101"><ele>96.6</ele><time>2026-04-08T08:47:07.001Z</time></trkpt><trkpt lat="51.566371472571966" lon="16.706819433115285"><ele>96.19999999999999</ele><time>2026-04-08T08:47:08.001Z</time></trkpt><trkpt lat="51.56640563281299" lon="16.706649664921013"><ele>95.8</ele><time>2026-04-08T08:47:09Z</time></trkpt><trkpt lat="51.56643480129171" lon="16.706472840971454"><ele>95.4</ele><time>2026-04-08T08:47:10Z</time></trkpt><trkpt lat="51.566472130623" lon="16.706295938620503"><ele>95.0</ele><time>2026-04-08T08:47:11Z</time></trkpt><trkpt lat="51.56650787505157" lon="16.70615096871612"><ele>95.0</ele><time>2026-04-08T08:47:12Z</time></trkpt><trkpt lat="51.566549701986375" lon="16.70599030003515"><ele>95.0</ele><time>2026-04-08T08:47:13Z</time></trkpt><trkpt lat="51.56657791384988" lon="16.705843207946508"><ele>95.0</ele><time>2026-04-08T08:47:14Z</time></trkpt><trkpt lat="51.56661718989531" lon="16.70570228220452"><ele>95.0</ele><time>2026-04-08T08:47:15Z</time></trkpt><trkpt lat="51.566653977593795" lon="16.705549833683673"><ele>95.0</ele><time>2026-04-08T08:47:16Z</time></trkpt><trkpt lat="51.56669271714749" lon="16.705397832425355"><ele>94.75</ele><time>2026-04-08T08:47:17Z</time></trkpt><trkpt lat="51.56673773696418" lon="16.705238834915075"><ele>94.5</ele><time>2026-04-08T08:47:18Z</time></trkpt><trkpt lat="51.5667849213984" lon="16.705058985449533"><ele>94.25</ele><time>2026-04-08T08:47:19Z</time></trkpt><trkpt lat="51.56683683408016" lon="16.70488184589498"><ele>94.0</ele><time>2026-04-08T08:47:20Z</time></trkpt><trkpt lat="51.566886962886095" lon="16.704691706379677"><ele>94.0</ele><time>2026-04-08T08:47:21Z</time></trkpt><trkpt lat="51.5669474828659" lon="16.704486398463597"><ele>94.0</ele><time>2026-04-08T08:47:22Z</time></trkpt><trkpt lat="51.56700477843013" lon="16.70427484872549"><ele>94.0</ele><time>2026-04-08T08:47:23Z</time></trkpt><trkpt lat="51.56706157006734" lon="16.704067213555113"><ele>94.0</ele><time>2026-04-08T08:47:24Z</time></trkpt><trkpt lat="51.56711567461621" lon="16.703877190470738"><ele>94.0</ele><time>2026-04-08T08:47:25Z</time></trkpt><trkpt lat="51.567184591780595" lon="16.703696747731264"><ele>94.0</ele><time>2026-04-08T08:47:26Z</time></trkpt><trkpt lat="51.5672232932963" lon="16.7035024201971"><ele>94.0</ele><time>2026-04-08T08:47:27Z</time></trkpt><trkpt lat="51.56728751751012" lon="16.703331096979472"><ele>94.0</ele><time>2026-04-08T08:47:28Z</time></trkpt><trkpt lat="51.56732156242043" lon="16.703158856839504"><ele>93.75</ele><time>2026-04-08T08:47:29Z</time></trkpt><trkpt lat="51.56736638142277" lon="16.70299300941118"><ele>93.5</ele><time>2026-04-08T08:47:30Z</time></trkpt><trkpt lat="51.567415010285565" lon="16.702821944776414"><ele>93.25</ele><time>2026-04-08T08:47:31Z</time></trkpt><trkpt lat="51.567464676458336" lon="16.702646364954894"><ele>93.0</ele><time>2026-04-08T08:47:32Z</time></trkpt><trkpt lat="51.56751784459325" lon="16.702455239254096"><ele>93.0</ele><time>2026-04-08T08:47:33Z</time></trkpt><trkpt lat="51.56756357035292" lon="16.70227058437966"><ele>93.0</ele><time>2026-04-08T08:47:34Z</time></trkpt><trkpt lat="51.56760189005405" lon="16.702081318437603"><ele>93.0</ele><time>2026-04-08T08:47:35Z</time></trkpt><trkpt lat="51.56762658397757" lon="16.701886505511023"><ele>93.0</ele><time>2026-04-08T08:47:36Z</time></trkpt><trkpt lat="51.56763024054734" lon="16.70168568056784"><ele>92.75</ele><time>2026-04-08T08:47:37Z</time></trkpt><trkpt lat="51.56763141243522" lon="16.70148749447467"><ele>92.5</ele><time>2026-04-08T08:47:38Z</time></trkpt><trkpt lat="51.56763528885338" lon="16.701284426171057"><ele>92.25</ele><time>2026-04-08T08:47:39Z</time></trkpt><trkpt lat="51.56762641436721" lon="16.701080420480697"><ele>92.0</ele><time>2026-04-08T08:47:40Z</time></trkpt><trkpt lat="51.567619850817096" lon="16.70087496145058"><ele>92.0</ele><time>2026-04-08T08:47:41Z</time></trkpt><trkpt lat="51.56761726185518" lon="16.700662974389278"><ele>92.0</ele><time>2026-04-08T08:47:42Z</time></trkpt><trkpt lat="51.567611504653314" lon="16.700447827262842"><ele>92.0</ele><time>2026-04-08T08:47:43Z</time></trkpt><trkpt lat="51.567609697522784" lon="16.700228452528503"><ele>92.0</ele><time>2026-04-08T08:47:44Z</time></trkpt><trkpt lat="51.56760579143765" lon="16.70002207618999"><ele>92.0</ele><time>2026-04-08T08:47:45Z</time></trkpt><trkpt lat="51.5676047969487" lon="16.699822121952387"><ele>92.0</ele><time>2026-04-08T08:47:46Z</time></trkpt><trkpt lat="51.56760237672104" lon="16.699631327184917"><ele>92.0</ele><time>2026-04-08T08:47:47Z</time></trkpt><trkpt lat="51.567605525982216" lon="16.69944034074594"><ele>92.0</ele><time>2026-04-08T08:47:48Z</time></trkpt><trkpt lat="51.567609094239785" lon="16.699251234514264"><ele>92.0</ele><time>2026-04-08T08:47:49Z</time></trkpt><trkpt lat="51.56761112530834" lon="16.69906987920133"><ele>92.0</ele><time>2026-04-08T08:47:50Z</time></trkpt><trkpt lat="51.56761227070502" lon="16.698912251995967"><ele>92.0</ele><time>2026-04-08T08:47:51Z</time></trkpt><trkpt lat="51.567612073194454" lon="16.698764105431973"><ele>92.0</ele><time>2026-04-08T08:47:52Z</time></trkpt><trkpt lat="51.56761287930513" lon="16.69863419298611"><ele>92.0</ele><time>2026-04-08T08:47:53Z</time></trkpt><trkpt lat="51.56761046339364" lon="16.698511804810337"><ele>92.0</ele><time>2026-04-08T08:47:54Z</time></trkpt><trkpt lat="51.56762386428869" lon="16.69835781182489"><ele>92.0</ele><time>2026-04-08T08:47:56Z</time></trkpt><trkpt lat="51.56763148028915" lon="16.69825446024312"><ele>92.0</ele><time>2026-04-08T08:48:16.001Z</time></trkpt><trkpt lat="51.567609176134376" lon="16.69807280306793"><ele>92.0</ele><time>2026-04-08T08:48:19.001Z</time></trkpt><trkpt lat="51.56755006293253" lon="16.697954480462943"><ele>92.0</ele><time>2026-04-08T08:48:21.001Z</time></trkpt><trkpt lat="51.56749853570117" lon="16.697823652913726"><ele>91.6</ele><time>2026-04-08T08:48:23.001Z</time></trkpt><trkpt lat="51.56745389590794" lon="16.697675550469096"><ele>91.19999999999999</ele><time>2026-04-08T08:48:25.001Z</time></trkpt><trkpt lat="51.56740825906412" lon="16.697499663949646"><ele>90.8</ele><time>2026-04-08T08:48:27.001Z</time></trkpt><trkpt lat="51.567382073926446" lon="16.697396544708393"><ele>90.4</ele><time>2026-04-08T08:48:28.001Z</time></trkpt><trkpt lat="51.567349156464324" lon="16.697269767081135"><ele>90.0</ele><time>2026-04-08T08:48:29.001Z</time></trkpt><trkpt lat="51.56731066641908" lon="16.697116455569166"><ele>90.0</ele><time>2026-04-08T08:48:30.001Z</time></trkpt><trkpt lat="51.56726873191694" lon="16.69696873405121"><ele>90.0</ele><time>2026-04-08T08:48:31.001Z</time></trkpt><trkpt lat="51.56723066994618" lon="16.696824476535937"><ele>90.0</ele><time>2026-04-08T08:48:32.001Z</time></trkpt><trkpt lat="51.56719044404939" lon="16.696682472080035"><ele>90.0</ele><time>2026-04-08T08:48:33.001Z</time></trkpt><trkpt lat="51.567150346301155" lon="16.696537880343445"><ele>90.0</ele><time>2026-04-08T08:48:34.001Z</time></trkpt><trkpt lat="51.567112041854784" lon="16.696403110078688"><ele>90.0</ele><time>2026-04-08T08:48:35.001Z</time></trkpt><trkpt lat="51.56707111158965" lon="16.696271434284434"><ele>90.0</ele><time>2026-04-08T08:48:36.001Z</time></trkpt><trkpt lat="51.567026599435316" lon="16.696144096311496"><ele>90.0</ele><time>2026-04-08T08:48:37.001Z</time></trkpt><trkpt lat="51.566982150391894" lon="16.69601777248479"><ele>90.0</ele><time>2026-04-08T08:48:38.001Z</time></trkpt><trkpt lat="51.56693812089865" lon="16.69589434264135"><ele>90.0</ele><time>2026-04-08T08:48:39.001Z</time></trkpt><trkpt lat="51.56689413980756" lon="16.695785400521036"><ele>90.0</ele><time>2026-04-08T08:48:40.001Z</time></trkpt><trkpt lat="51.56685469472056" lon="16.69566719310917"><ele>89.85714285714285</ele><time>2026-04-08T08:48:41.001Z</time></trkpt><trkpt lat="51.566818993280876" lon="16.695555808074726"><ele>89.71428571428572</ele><time>2026-04-08T08:48:42.001Z</time></trkpt><trkpt lat="51.566782542126454" lon="16.695444295807295"><ele>89.57142857142857</ele><time>2026-04-08T08:48:43.001Z</time></trkpt><trkpt lat="51.566746698362245" lon="16.69533903293472"><ele>89.42857142857142</ele><time>2026-04-08T08:48:44.001Z</time></trkpt><trkpt lat="51.566713091517336" lon="16.695230674560644"><ele>89.28571428571428</ele><time>2026-04-08T08:48:45.001Z</time></trkpt><trkpt lat="51.566676510785165" lon="16.6951337066604"><ele>89.14285714285714</ele><time>2026-04-08T08:48:46.001Z</time></trkpt><trkpt lat="51.566619675568205" lon="16.695067079488318"><ele>89.0</ele><time>2026-04-08T08:48:47.001Z</time></trkpt><trkpt lat="51.56655826191709" lon="16.695038618076833"><ele>89.0</ele><time>2026-04-08T08:48:48.001Z</time></trkpt><trkpt lat="51.566490997281896" lon="16.695038694462195"><ele>89.0</ele><time>2026-04-08T08:48:49.001Z</time></trkpt><trkpt lat="51.56641181305718" lon="16.695038339246285"><ele>89.0</ele><time>2026-04-08T08:48:50.001Z</time></trkpt><trkpt lat="51.566322589123516" lon="16.695029805248833"><ele>89.0</ele><time>2026-04-08T08:48:51.001Z</time></trkpt><trkpt lat="51.56623420638696" lon="16.695015049298778"><ele>89.0</ele><time>2026-04-08T08:48:52.001Z</time></trkpt><trkpt lat="51.56614669249036" lon="16.694997651811704"><ele>89.0</ele><time>2026-04-08T08:48:53.001Z</time></trkpt><trkpt lat="51.56605964525584" lon="16.694979365049832"><ele>88.6</ele><time>2026-04-08T08:48:54.001Z</time></trkpt><trkpt lat="51.56596593280023" lon="16.694953735308463"><ele>88.2</ele><time>2026-04-08T08:48:55.001Z</time></trkpt><trkpt lat="51.56587155879967" lon="16.694932983082428"><ele>87.8</ele><time>2026-04-08T08:48:56.001Z</time></trkpt><trkpt lat="51.56577851484975" lon="16.694910830281238"><ele>87.39999999999999</ele><time>2026-04-08T08:48:57.001Z</time></trkpt><trkpt lat="51.56568360344371" lon="16.694874384294366"><ele>87.0</ele><time>2026-04-08T08:48:58.001Z</time></trkpt><trkpt lat="51.56559049111239" lon="16.69483144156938"><ele>87.0</ele><time>2026-04-08T08:48:59.001Z</time></trkpt><trkpt lat="51.56549690512129" lon="16.694774157433535"><ele>87.0</ele><time>2026-04-08T08:49:00.001Z</time></trkpt><trkpt lat="51.56540671392256" lon="16.694705279728314"><ele>87.0</ele><time>2026-04-08T08:49:01.001Z</time></trkpt><trkpt lat="51.5653162183337" lon="16.69461861617638"><ele>87.0</ele><time>2026-04-08T08:49:02.001Z</time></trkpt><trkpt lat="51.56524437475933" lon="16.694489608744842"><ele>87.0</ele><time>2026-04-08T08:49:03.001Z</time></trkpt><trkpt lat="51.56515645136764" lon="16.69438909709414"><ele>87.0</ele><time>2026-04-08T08:49:04.001Z</time></trkpt><trkpt lat="51.56508906275376" lon="16.694256885737776"><ele>87.0</ele><time>2026-04-08T08:49:05.001Z</time></trkpt><trkpt lat="51.565030353251515" lon="16.694131912843478"><ele>87.0</ele><time>2026-04-08T08:49:06.001Z</time></trkpt><trkpt lat="51.564975530289104" lon="16.694015833936117"><ele>87.0</ele><time>2026-04-08T08:49:07.001Z</time></trkpt><trkpt lat="51.56494106817797" lon="16.69389892465887"><ele>87.0</ele><time>2026-04-08T08:49:08.001Z</time></trkpt><trkpt lat="51.56493511191804" lon="16.69379250729918"><ele>87.0</ele><time>2026-04-08T08:49:09.001Z</time></trkpt><trkpt lat="51.56502356684446" lon="16.693653287169866"><ele>87.0</ele><time>2026-04-08T08:49:11.001Z</time></trkpt><trkpt lat="51.56505609737545" lon="16.69355071488202"><ele>87.0</ele><time>2026-04-08T08:49:12.001Z</time></trkpt><trkpt lat="51.56510388703358" lon="16.693455863199066"><ele>87.0</ele><time>2026-04-08T08:49:13.001Z</time></trkpt><trkpt lat="51.56514924355309" lon="16.69334827122251"><ele>87.0</ele><time>2026-04-08T08:49:14.001Z</time></trkpt><trkpt lat="51.56520033479925" lon="16.693236734078873"><ele>87.0</ele><time>2026-04-08T08:49:15.001Z</time></trkpt><trkpt lat="51.56525770990731" lon="16.693116590868673"><ele>87.0</ele><time>2026-04-08T08:49:16.001Z</time></trkpt><trkpt lat="51.565320367637696" lon="16.692984467185866"><ele>87.0</ele><time>2026-04-08T08:49:17.001Z</time></trkpt><trkpt lat="51.565377640077976" lon="16.692847873241345"><ele>87.0</ele><time>2026-04-08T08:49:18.001Z</time></trkpt><trkpt lat="51.56542385643322" lon="16.692692078806193"><ele>87.0</ele><time>2026-04-08T08:49:19.001Z</time></trkpt><trkpt lat="51.56546536791707" lon="16.69254652246558"><ele>87.0</ele><time>2026-04-08T08:49:20.001Z</time></trkpt><trkpt lat="51.56549434037073" lon="16.692395654320446"><ele>87.0</ele><time>2026-04-08T08:49:21.001Z</time></trkpt><trkpt lat="51.565511371216644" lon="16.69224972730719"><ele>87.0</ele><time>2026-04-08T08:49:22.001Z</time></trkpt><trkpt lat="51.56551975518797" lon="16.69209966366149"><ele>87.0</ele><time>2026-04-08T08:49:23.001Z</time></trkpt><trkpt lat="51.56553007782305" lon="16.691943238357585"><ele>87.0</ele><time>2026-04-08T08:49:24.001Z</time></trkpt><trkpt lat="51.565549495172554" lon="16.691800308095328"><ele>87.0</ele><time>2026-04-08T08:49:25.001Z</time></trkpt><trkpt lat="51.56557511538972" lon="16.691655026087545"><ele>87.0</ele><time>2026-04-08T08:49:26.001Z</time></trkpt><trkpt lat="51.56558609006968" lon="16.6915038881247"><ele>87.0</ele><time>2026-04-08T08:49:27.001Z</time></trkpt><trkpt lat="51.56560620780629" lon="16.69134113155854"><ele>87.0</ele><time>2026-04-08T08:49:28.001Z</time></trkpt><trkpt lat="51.56565040363483" lon="16.691184328823596"><ele>87.0</ele><time>2026-04-08T08:49:29.001Z</time></trkpt><trkpt lat="51.56568371953348" lon="16.69102136312076"><ele>87.0</ele><time>2026-04-08T08:49:30.001Z</time></trkpt><trkpt lat="51.56571330348808" lon="16.690850401906175"><ele>87.0</ele><time>2026-04-08T08:49:31Z</time></trkpt><trkpt lat="51.56575450952772" lon="16.690652628679334"><ele>87.33333333333333</ele><time>2026-04-08T08:49:32Z</time></trkpt><trkpt lat="51.56579613435997" lon="16.69043431579934"><ele>87.66666666666666</ele><time>2026-04-08T08:49:33Z</time></trkpt><trkpt lat="51.56584635414807" lon="16.690197912034915"><ele>88.0</ele><time>2026-04-08T08:49:34Z</time></trkpt><trkpt lat="51.56590648549159" lon="16.689953636248756"><ele>87.33333333333333</ele><time>2026-04-08T08:49:35Z</time></trkpt><trkpt lat="51.565965116553386" lon="16.689700016846825"><ele>86.66666666666667</ele><time>2026-04-08T08:49:36Z</time></trkpt><trkpt lat="51.56602533405238" lon="16.689435799032772"><ele>86.0</ele><time>2026-04-08T08:49:37Z</time></trkpt><trkpt lat="51.56609070545148" lon="16.68916179007709"><ele>86.0</ele><time>2026-04-08T08:49:38Z</time></trkpt><trkpt lat="51.5661558900894" lon="16.688885860641758"><ele>86.0</ele><time>2026-04-08T08:49:39Z</time></trkpt><trkpt lat="51.56623512836514" lon="16.688609043508386"><ele>86.0</ele><time>2026-04-08T08:49:40Z</time></trkpt><trkpt lat="51.56631559816771" lon="16.688340259644033"><ele>86.0</ele><time>2026-04-08T08:49:41Z</time></trkpt><trkpt lat="51.56640607723345" lon="16.688082736576586"><ele>86.0</ele><time>2026-04-08T08:49:42Z</time></trkpt><trkpt lat="51.56649676418581" lon="16.68782159280266"><ele>86.0</ele><time>2026-04-08T08:49:43Z</time></trkpt><trkpt lat="51.56659650626719" lon="16.68756230338604"><ele>85.66666666666667</ele><time>2026-04-08T08:49:44Z</time></trkpt><trkpt lat="51.56670252680714" lon="16.68730302551886"><ele>85.33333333333333</ele><time>2026-04-08T08:49:45Z</time></trkpt><trkpt lat="51.566806515475996" lon="16.68705001197016"><ele>85.0</ele><time>2026-04-08T08:49:46Z</time></trkpt><trkpt lat="51.56691209497229" lon="16.686801395597534"><ele>85.0</ele><time>2026-04-08T08:49:47Z</time></trkpt><trkpt lat="51.56701472373052" lon="16.686554026677932"><ele>85.0</ele><time>2026-04-08T08:49:48Z</time></trkpt><trkpt lat="51.56711827254202" lon="16.686296872914983"><ele>85.0</ele><time>2026-04-08T08:49:49Z</time></trkpt><trkpt lat="51.56722327151856" lon="16.686036335255046"><ele>85.0</ele><time>2026-04-08T08:49:50Z</time></trkpt><trkpt lat="51.567329567755486" lon="16.685778634717238"><ele>85.0</ele><time>2026-04-08T08:49:51Z</time></trkpt><trkpt lat="51.56742960655134" lon="16.685520482681657"><ele>85.0</ele><time>2026-04-08T08:49:52Z</time></trkpt><trkpt lat="51.56753350755724" lon="16.685258796662"><ele>85.0</ele><time>2026-04-08T08:49:53Z</time></trkpt><trkpt lat="51.56764038389003" lon="16.684991629321047"><ele>85.0</ele><time>2026-04-08T08:49:54Z</time></trkpt><trkpt lat="51.56776144809651" lon="16.684738646368995"><ele>85.0</ele><time>2026-04-08T08:49:55Z</time></trkpt><trkpt lat="51.56786889136424" lon="16.68447893288901"><ele>85.0</ele><time>2026-04-08T08:49:56Z</time></trkpt><trkpt lat="51.56797949715785" lon="16.684212435722515"><ele>85.0</ele><time>2026-04-08T08:49:57Z</time></trkpt><trkpt lat="51.568071982722934" lon="16.683932718278307"><ele>85.0</ele><time>2026-04-08T08:49:58Z</time></trkpt><trkpt lat="51.568195368750764" lon="16.68367682218535"><ele>85.33333333333333</ele><time>2026-04-08T08:49:59Z</time></trkpt><trkpt lat="51.56829862106654" lon="16.68340248670843"><ele>85.66666666666667</ele><time>2026-04-08T08:50:00Z</time></trkpt><trkpt lat="51.56841108284966" lon="16.683142543419493"><ele>86.0</ele><time>2026-04-08T08:50:01Z</time></trkpt><trkpt lat="51.56850163053435" lon="16.682908490192514"><ele>86.0</ele><time>2026-04-08T08:50:02Z</time></trkpt><trkpt lat="51.568606661417846" lon="16.682646706199947"><ele>86.0</ele><time>2026-04-08T08:50:03Z</time></trkpt><trkpt lat="51.56870866994476" lon="16.682382941772328"><ele>86.0</ele><time>2026-04-08T08:50:04Z</time></trkpt><trkpt lat="51.568813803738756" lon="16.68211876689351"><ele>85.66666666666667</ele><time>2026-04-08T08:50:05Z</time></trkpt><trkpt lat="51.56891604980631" lon="16.68185896338965"><ele>85.33333333333333</ele><time>2026-04-08T08:50:06Z</time></trkpt><trkpt lat="51.569034470249825" lon="16.6816124083287"><ele>85.0</ele><time>2026-04-08T08:50:07Z</time></trkpt><trkpt lat="51.5691392513575" lon="16.681349070314084"><ele>85.33333333333333</ele><time>2026-04-08T08:50:08Z</time></trkpt><trkpt lat="51.56923216636228" lon="16.681072435655544"><ele>85.66666666666667</ele><time>2026-04-08T08:50:09Z</time></trkpt><trkpt lat="51.56933611730642" lon="16.68080733011402"><ele>86.0</ele><time>2026-04-08T08:50:10Z</time></trkpt><trkpt lat="51.56943682633682" lon="16.680551986694148"><ele>86.33333333333334</ele><time>2026-04-08T08:50:11Z</time></trkpt><trkpt lat="51.569537062947155" lon="16.68030430714979"><ele>86.66666666666667</ele><time>2026-04-08T08:50:12.001Z</time></trkpt><trkpt lat="51.56963220237816" lon="16.680078089903745"><ele>87.0</ele><time>2026-04-08T08:50:13.001Z</time></trkpt><trkpt lat="51.569712281857775" lon="16.679875798176717"><ele>87.0</ele><time>2026-04-08T08:50:14.001Z</time></trkpt><trkpt lat="51.56979329334811" lon="16.679676669933976"><ele>87.0</ele><time>2026-04-08T08:50:15.001Z</time></trkpt><trkpt lat="51.569901743267586" lon="16.67948975756594"><ele>87.0</ele><time>2026-04-08T08:50:16.001Z</time></trkpt><trkpt lat="51.57000264961521" lon="16.679281577664305"><ele>87.0</ele><time>2026-04-08T08:50:17.001Z</time></trkpt><trkpt lat="51.57010885036092" lon="16.679069725769402"><ele>87.0</ele><time>2026-04-08T08:50:18.001Z</time></trkpt><trkpt lat="51.570222778089835" lon="16.67884685704975"><ele>87.0</ele><time>2026-04-08T08:50:19.001Z</time></trkpt><trkpt lat="51.57033532307024" lon="16.678629052604965"><ele>86.33333333333333</ele><time>2026-04-08T08:50:20.001Z</time></trkpt><trkpt lat="51.570451289588114" lon="16.678408037807227"><ele>85.66666666666666</ele><time>2026-04-08T08:50:21.001Z</time></trkpt><trkpt lat="51.570564547345995" lon="16.67816885177994"><ele>85.0</ele><time>2026-04-08T08:50:22.001Z</time></trkpt><trkpt lat="51.570691243033814" lon="16.677949497525212"><ele>85.0</ele><time>2026-04-08T08:50:23.001Z</time></trkpt><trkpt lat="51.57081574326014" lon="16.677721413105385"><ele>85.0</ele><time>2026-04-08T08:50:24.001Z</time></trkpt><trkpt lat="51.5709363845452" lon="16.677480527709726"><ele>85.0</ele><time>2026-04-08T08:50:25.001Z</time></trkpt><trkpt lat="51.57105962357481" lon="16.67723882790771"><ele>85.0</ele><time>2026-04-08T08:50:26.001Z</time></trkpt><trkpt lat="51.571174396230695" lon="16.676993487685444"><ele>85.0</ele><time>2026-04-08T08:50:27.001Z</time></trkpt><trkpt lat="51.57126964967948" lon="16.67673989335505"><ele>85.0</ele><time>2026-04-08T08:50:28.001Z</time></trkpt><trkpt lat="51.57136694567479" lon="16.6764866726366"><ele>85.0</ele><time>2026-04-08T08:50:29.001Z</time></trkpt><trkpt lat="51.5714590891006" lon="16.676225003296768"><ele>85.0</ele><time>2026-04-08T08:50:30.001Z</time></trkpt><trkpt lat="51.57155290222781" lon="16.675959689638127"><ele>85.0</ele><time>2026-04-08T08:50:31.001Z</time></trkpt><trkpt lat="51.57164353150848" lon="16.675696686584224"><ele>85.0</ele><time>2026-04-08T08:50:32.001Z</time></trkpt><trkpt lat="51.57173624988265" lon="16.675428686772783"><ele>85.0</ele><time>2026-04-08T08:50:33.001Z</time></trkpt><trkpt lat="51.571832543738566" lon="16.675160170312633"><ele>85.0</ele><time>2026-04-08T08:50:34.001Z</time></trkpt><trkpt lat="51.57192752352811" lon="16.674898300400827"><ele>85.0</ele><time>2026-04-08T08:50:35.001Z</time></trkpt><trkpt lat="51.57202762533691" lon="16.67463924945667"><ele>85.0</ele><time>2026-04-08T08:50:36.001Z</time></trkpt><trkpt lat="51.5721196177695" lon="16.674387131939124"><ele>85.0</ele><time>2026-04-08T08:50:37.001Z</time></trkpt><trkpt lat="51.572206190623724" lon="16.674132256329177"><ele>85.0</ele><time>2026-04-08T08:50:38.001Z</time></trkpt><trkpt lat="51.572295795061414" lon="16.67388827940405"><ele>85.0</ele><time>2026-04-08T08:50:39.001Z</time></trkpt><trkpt lat="51.57238552747433" lon="16.673634193297563"><ele>85.0</ele><time>2026-04-08T08:50:40.001Z</time></trkpt><trkpt lat="51.57247835433513" lon="16.673377685230655"><ele>85.33333333333333</ele><time>2026-04-08T08:50:41.001Z</time></trkpt><trkpt lat="51.57257480044433" lon="16.67312117806345"><ele>85.66666666666667</ele><time>2026-04-08T08:50:42.001Z</time></trkpt><trkpt lat="51.57267034407812" lon="16.672872004026235"><ele>86.0</ele><time>2026-04-08T08:50:43.001Z</time></trkpt><trkpt lat="51.57276318666206" lon="16.67262653804115"><ele>86.0</ele><time>2026-04-08T08:50:44.001Z</time></trkpt><trkpt lat="51.572879590834596" lon="16.67240605565315"><ele>86.0</ele><time>2026-04-08T08:50:45.001Z</time></trkpt><trkpt lat="51.57299304634912" lon="16.672168885196857"><ele>86.0</ele><time>2026-04-08T08:50:46.001Z</time></trkpt><trkpt lat="51.57310859442111" lon="16.671931828700473"><ele>86.0</ele><time>2026-04-08T08:50:47.001Z</time></trkpt><trkpt lat="51.57322455790609" lon="16.671699271038584"><ele>86.0</ele><time>2026-04-08T08:50:48.001Z</time></trkpt><trkpt lat="51.57334405879653" lon="16.671467754958393"><ele>86.0</ele><time>2026-04-08T08:50:49.001Z</time></trkpt><trkpt lat="51.573470394201834" lon="16.671241540017288"><ele>86.0</ele><time>2026-04-08T08:50:50.001Z</time></trkpt><trkpt lat="51.57360216528183" lon="16.671027797112885"><ele>86.0</ele><time>2026-04-08T08:50:51.001Z</time></trkpt><trkpt lat="51.57373070458003" lon="16.67081397065303"><ele>86.0</ele><time>2026-04-08T08:50:52.001Z</time></trkpt><trkpt lat="51.57386110833782" lon="16.670596299128867"><ele>86.0</ele><time>2026-04-08T08:50:53.001Z</time></trkpt><trkpt lat="51.57398992452975" lon="16.670381805752143"><ele>86.0</ele><time>2026-04-08T08:50:54.001Z</time></trkpt><trkpt lat="51.574119369947894" lon="16.670166264627095"><ele>86.0</ele><time>2026-04-08T08:50:55.001Z</time></trkpt><trkpt lat="51.57425091393457" lon="16.669947039460297"><ele>86.0</ele><time>2026-04-08T08:50:56.001Z</time></trkpt><trkpt lat="51.57437906984928" lon="16.669732863425647"><ele>86.0</ele><time>2026-04-08T08:50:57.001Z</time></trkpt><trkpt lat="51.57450013035122" lon="16.66950028428074"><ele>86.0</ele><time>2026-04-08T08:50:58.001Z</time></trkpt><trkpt lat="51.57463335688473" lon="16.669281896819687"><ele>86.0</ele><time>2026-04-08T08:50:59.001Z</time></trkpt><trkpt lat="51.574767166237116" lon="16.669060143252477"><ele>86.0</ele><time>2026-04-08T08:51:00.001Z</time></trkpt><trkpt lat="51.5748969919634" lon="16.668852384101513"><ele>86.0</ele><time>2026-04-08T08:51:01.001Z</time></trkpt><trkpt lat="51.57502425262867" lon="16.668635013331393"><ele>86.0</ele><time>2026-04-08T08:51:02.001Z</time></trkpt><trkpt lat="51.57515884795814" lon="16.668413607055555"><ele>86.0</ele><time>2026-04-08T08:51:03.001Z</time></trkpt><trkpt lat="51.57528260144605" lon="16.668201488943577"><ele>86.0</ele><time>2026-04-08T08:51:04.001Z</time></trkpt><trkpt lat="51.57540723550089" lon="16.66799501235465"><ele>86.0</ele><time>2026-04-08T08:51:05.001Z</time></trkpt><trkpt lat="51.57552979586772" lon="16.66778947271869"><ele>86.0</ele><time>2026-04-08T08:51:06.001Z</time></trkpt><trkpt lat="51.57565590506262" lon="16.66759109141172"><ele>86.0</ele><time>2026-04-08T08:51:07.001Z</time></trkpt><trkpt lat="51.57577434716328" lon="16.667390096633277"><ele>86.0</ele><time>2026-04-08T08:51:08.001Z</time></trkpt><trkpt lat="51.575895304080056" lon="16.667186478477394"><ele>86.0</ele><time>2026-04-08T08:51:09.001Z</time></trkpt><trkpt lat="51.57603109551747" lon="16.666995722568608"><ele>86.0</ele><time>2026-04-08T08:51:10.001Z</time></trkpt><trkpt lat="51.57614189285601" lon="16.66677607036448"><ele>86.0</ele><time>2026-04-08T08:51:11Z</time></trkpt><trkpt lat="51.57625971829132" lon="16.666572971321"><ele>86.0</ele><time>2026-04-08T08:51:12Z</time></trkpt><trkpt lat="51.57638263196364" lon="16.66638219061979"><ele>86.0</ele><time>2026-04-08T08:51:13Z</time></trkpt><trkpt lat="51.57650073565295" lon="16.666184223887658"><ele>85.66666666666667</ele><time>2026-04-08T08:51:14Z</time></trkpt><trkpt lat="51.5766180808401" lon="16.665984987277298"><ele>85.33333333333333</ele><time>2026-04-08T08:51:15Z</time></trkpt><trkpt lat="51.576739901360234" lon="16.665789381338353"><ele>85.0</ele><time>2026-04-08T08:51:16Z</time></trkpt><trkpt lat="51.576864048848" lon="16.66559646937999"><ele>85.0</ele><time>2026-04-08T08:51:17Z</time></trkpt><trkpt lat="51.576987170533435" lon="16.66540098631107"><ele>85.0</ele><time>2026-04-08T08:51:18Z</time></trkpt><trkpt lat="51.57711059573102" lon="16.665208039054537"><ele>85.0</ele><time>2026-04-08T08:51:19Z</time></trkpt><trkpt lat="51.577234952670466" lon="16.665019769127635"><ele>85.0</ele><time>2026-04-08T08:51:20Z</time></trkpt><trkpt lat="51.57737253036527" lon="16.66485185433246"><ele>85.0</ele><time>2026-04-08T08:51:21Z</time></trkpt><trkpt lat="51.57751027799535" lon="16.66467919874226"><ele>85.0</ele><time>2026-04-08T08:51:22Z</time></trkpt><trkpt lat="51.577650741910446" lon="16.664519163227773"><ele>84.66666666666666</ele><time>2026-04-08T08:51:23Z</time></trkpt><trkpt lat="51.57779520530799" lon="16.66436341332573"><ele>84.33333333333333</ele><time>2026-04-08T08:51:24Z</time></trkpt><trkpt lat="51.577937827914916" lon="16.664199931609602"><ele>84.0</ele><time>2026-04-08T08:51:25Z</time></trkpt><trkpt lat="51.578082130432236" lon="16.664041184589873"><ele>84.66666666666667</ele><time>2026-04-08T08:51:26Z</time></trkpt><trkpt lat="51.5782232564244" lon="16.66387876410887"><ele>85.33333333333334</ele><time>2026-04-08T08:51:27Z</time></trkpt><trkpt lat="51.57836529650868" lon="16.663707686725978"><ele>86.0</ele><time>2026-04-08T08:51:28Z</time></trkpt><trkpt lat="51.57851015673882" lon="16.663539289154507"><ele>86.0</ele><time>2026-04-08T08:51:29Z</time></trkpt><trkpt lat="51.57865111171167" lon="16.66337247531791"><ele>86.0</ele><time>2026-04-08T08:51:30Z</time></trkpt><trkpt lat="51.57878994840329" lon="16.66320392983097"><ele>86.0</ele><time>2026-04-08T08:51:31Z</time></trkpt><trkpt lat="51.57892537234698" lon="16.663021897976233"><ele>86.33333333333334</ele><time>2026-04-08T08:51:32Z</time></trkpt><trkpt lat="51.579055255526896" lon="16.6628362056791"><ele>86.66666666666667</ele><time>2026-04-08T08:51:33Z</time></trkpt><trkpt lat="51.57917627453578" lon="16.662662387675088"><ele>87.0</ele><time>2026-04-08T08:51:34Z</time></trkpt><trkpt lat="51.5792899813561" lon="16.662487909416615"><ele>87.0</ele><time>2026-04-08T08:51:35Z</time></trkpt><trkpt lat="51.57940658960632" lon="16.662314457545033"><ele>87.0</ele><time>2026-04-08T08:51:36Z</time></trkpt><trkpt lat="51.57951690273871" lon="16.66213689199741"><ele>87.0</ele><time>2026-04-08T08:51:37Z</time></trkpt><trkpt lat="51.57962613177502" lon="16.661956769484206"><ele>86.66666666666667</ele><time>2026-04-08T08:51:38Z</time></trkpt><trkpt lat="51.57974485736393" lon="16.661781855741165"><ele>86.33333333333334</ele><time>2026-04-08T08:51:39Z</time></trkpt><trkpt lat="51.579858045319206" lon="16.66161619821694"><ele>86.0</ele><time>2026-04-08T08:51:40Z</time></trkpt><trkpt lat="51.57996823673397" lon="16.66144099105583"><ele>86.0</ele><time>2026-04-08T08:51:41Z</time></trkpt><trkpt lat="51.58008177445924" lon="16.661257397788564"><ele>86.0</ele><time>2026-04-08T08:51:42Z</time></trkpt><trkpt lat="51.58020216959745" lon="16.661073543035364"><ele>86.0</ele><time>2026-04-08T08:51:43Z</time></trkpt><trkpt lat="51.580322260194585" lon="16.66089506867905"><ele>86.33333333333334</ele><time>2026-04-08T08:51:44Z</time></trkpt><trkpt lat="51.580437003838846" lon="16.660702034402433"><ele>86.66666666666667</ele><time>2026-04-08T08:51:45Z</time></trkpt><trkpt lat="51.580558033171044" lon="16.66051122475252"><ele>87.0</ele><time>2026-04-08T08:51:46Z</time></trkpt><trkpt lat="51.580681060010264" lon="16.660316046290145"><ele>87.0</ele><time>2026-04-08T08:51:47Z</time></trkpt><trkpt lat="51.58080890219031" lon="16.6601161822822"><ele>87.0</ele><time>2026-04-08T08:51:48Z</time></trkpt><trkpt lat="51.580934332248155" lon="16.659921715969684"><ele>87.0</ele><time>2026-04-08T08:51:49Z</time></trkpt><trkpt lat="51.58106023380034" lon="16.659727668927157"><ele>87.0</ele><time>2026-04-08T08:51:50Z</time></trkpt><trkpt lat="51.5811864164484" lon="16.659529912437783"><ele>87.0</ele><time>2026-04-08T08:51:51Z</time></trkpt><trkpt lat="51.581322643348805" lon="16.659349937696483"><ele>87.0</ele><time>2026-04-08T08:51:52Z</time></trkpt><trkpt lat="51.58144903562869" lon="16.65915138949852"><ele>87.0</ele><time>2026-04-08T08:51:53Z</time></trkpt><trkpt lat="51.581567429341014" lon="16.658944561932145"><ele>87.0</ele><time>2026-04-08T08:51:54Z</time></trkpt><trkpt lat="51.58169781640621" lon="16.65874658341409"><ele>87.0</ele><time>2026-04-08T08:51:55Z</time></trkpt><trkpt lat="51.581819140459295" lon="16.65854335496963"><ele>86.66666666666667</ele><time>2026-04-08T08:51:56Z</time></trkpt><trkpt lat="51.5819445779882" lon="16.658348352700433"><ele>86.33333333333334</ele><time>2026-04-08T08:51:57Z</time></trkpt><trkpt lat="51.58206947711058" lon="16.658148468530868"><ele>86.0</ele><time>2026-04-08T08:51:58Z</time></trkpt><trkpt lat="51.58219914335444" lon="16.657947431232223"><ele>86.0</ele><time>2026-04-08T08:51:59Z</time></trkpt><trkpt lat="51.58232778961549" lon="16.657745298281526"><ele>86.0</ele><time>2026-04-08T08:52:00Z</time></trkpt><trkpt lat="51.58245801675959" lon="16.657545905699084"><ele>86.0</ele><time>2026-04-08T08:52:01Z</time></trkpt><trkpt lat="51.58258815281244" lon="16.6573490064051"><ele>86.0</ele><time>2026-04-08T08:52:02Z</time></trkpt><trkpt lat="51.582718644890605" lon="16.657149855436295"><ele>86.0</ele><time>2026-04-08T08:52:03Z</time></trkpt><trkpt lat="51.58284903753194" lon="16.656943946339304"><ele>86.0</ele><time>2026-04-08T08:52:04Z</time></trkpt><trkpt lat="51.582975581781604" lon="16.656745163369347"><ele>86.33333333333334</ele><time>2026-04-08T08:52:05Z</time></trkpt><trkpt lat="51.58311390146504" lon="16.656562615024146"><ele>86.66666666666667</ele><time>2026-04-08T08:52:06Z</time></trkpt><trkpt lat="51.583240889545266" lon="16.65636654651425"><ele>87.0</ele><time>2026-04-08T08:52:07Z</time></trkpt><trkpt lat="51.583365147052405" lon="16.656175409380698"><ele>87.0</ele><time>2026-04-08T08:52:08Z</time></trkpt><trkpt lat="51.583481485056616" lon="16.655961312760137"><ele>87.0</ele><time>2026-04-08T08:52:09Z</time></trkpt><trkpt lat="51.58361109575508" lon="16.655763323376238"><ele>87.0</ele><time>2026-04-08T08:52:10Z</time></trkpt><trkpt lat="51.58373787963919" lon="16.655553864064867"><ele>87.0</ele><time>2026-04-08T08:52:11Z</time></trkpt><trkpt lat="51.58387018826665" lon="16.655355895763332"><ele>87.0</ele><time>2026-04-08T08:52:12Z</time></trkpt><trkpt lat="51.58398479607372" lon="16.655139020981473"><ele>87.0</ele><time>2026-04-08T08:52:13Z</time></trkpt><trkpt lat="51.584082635337374" lon="16.654901865102275"><ele>86.66666666666667</ele><time>2026-04-08T08:52:14Z</time></trkpt><trkpt lat="51.58418512777983" lon="16.65468411875143"><ele>86.33333333333334</ele><time>2026-04-08T08:52:15Z</time></trkpt><trkpt lat="51.58428177729142" lon="16.654465699768682"><ele>86.0</ele><time>2026-04-08T08:52:16Z</time></trkpt><trkpt lat="51.584379130285335" lon="16.65423632370127"><ele>86.0</ele><time>2026-04-08T08:52:17Z</time></trkpt><trkpt lat="51.584471738739836" lon="16.654005700036013"><ele>86.0</ele><time>2026-04-08T08:52:18Z</time></trkpt><trkpt lat="51.58455815739795" lon="16.65376153481107"><ele>86.0</ele><time>2026-04-08T08:52:19Z</time></trkpt><trkpt lat="51.584642077512605" lon="16.653524556366943"><ele>86.0</ele><time>2026-04-08T08:52:20Z</time></trkpt><trkpt lat="51.58471706557885" lon="16.653279852067072"><ele>86.0</ele><time>2026-04-08T08:52:21Z</time></trkpt><trkpt lat="51.58480838998603" lon="16.653042988297955"><ele>86.0</ele><time>2026-04-08T08:52:22Z</time></trkpt><trkpt lat="51.58489100933532" lon="16.65279407353703"><ele>86.0</ele><time>2026-04-08T08:52:23Z</time></trkpt><trkpt lat="51.58497312536598" lon="16.652545391675364"><ele>86.0</ele><time>2026-04-08T08:52:24Z</time></trkpt><trkpt lat="51.58505395611659" lon="16.65229844630328"><ele>86.0</ele><time>2026-04-08T08:52:25Z</time></trkpt><trkpt lat="51.58511781285596" lon="16.652046663772825"><ele>86.33333333333334</ele><time>2026-04-08T08:52:26Z</time></trkpt><trkpt lat="51.585197530126514" lon="16.65180495511738"><ele>86.66666666666667</ele><time>2026-04-08T08:52:27Z</time></trkpt><trkpt lat="51.58527409119251" lon="16.651551760099803"><ele>87.0</ele><time>2026-04-08T08:52:28Z</time></trkpt><trkpt lat="51.585351589082144" lon="16.651297741965976"><ele>86.66666666666667</ele><time>2026-04-08T08:52:29Z</time></trkpt><trkpt lat="51.58543726009154" lon="16.6510469567979"><ele>86.33333333333334</ele><time>2026-04-08T08:52:30Z</time></trkpt><trkpt lat="51.58551152393814" lon="16.650820628449708"><ele>86.0</ele><time>2026-04-08T08:52:31Z</time></trkpt><trkpt lat="51.585596299392584" lon="16.650613732349118"><ele>86.0</ele><time>2026-04-08T08:52:32Z</time></trkpt><trkpt lat="51.58565354953608" lon="16.65038136378337"><ele>86.0</ele><time>2026-04-08T08:52:33Z</time></trkpt><trkpt lat="51.58572459623266" lon="16.65014997541407"><ele>86.0</ele><time>2026-04-08T08:52:34Z</time></trkpt><trkpt lat="51.585814534791346" lon="16.64994066509909"><ele>86.0</ele><time>2026-04-08T08:52:35Z</time></trkpt><trkpt lat="51.585900583883124" lon="16.649728315599024"><ele>86.0</ele><time>2026-04-08T08:52:36Z</time></trkpt><trkpt lat="51.58599998804982" lon="16.649525919579105"><ele>86.0</ele><time>2026-04-08T08:52:37Z</time></trkpt><trkpt lat="51.586105948156245" lon="16.649331733170314"><ele>86.0</ele><time>2026-04-08T08:52:38Z</time></trkpt><trkpt lat="51.5862177117125" lon="16.649137512892608"><ele>86.0</ele><time>2026-04-08T08:52:39Z</time></trkpt><trkpt lat="51.58632106317102" lon="16.648937982252388"><ele>86.0</ele><time>2026-04-08T08:52:40Z</time></trkpt><trkpt lat="51.58643580840574" lon="16.648756986793366"><ele>85.66666666666667</ele><time>2026-04-08T08:52:41Z</time></trkpt><trkpt lat="51.5865577382217" lon="16.64857550851362"><ele>85.33333333333333</ele><time>2026-04-08T08:52:42Z</time></trkpt><trkpt lat="51.58667917263324" lon="16.64838792295664"><ele>85.0</ele><time>2026-04-08T08:52:43Z</time></trkpt><trkpt lat="51.58679230262769" lon="16.648200401960217"><ele>85.0</ele><time>2026-04-08T08:52:44Z</time></trkpt><trkpt lat="51.58691410284408" lon="16.648008059837178"><ele>85.0</ele><time>2026-04-08T08:52:45Z</time></trkpt><trkpt lat="51.58703512412469" lon="16.647814325272655"><ele>85.0</ele><time>2026-04-08T08:52:46Z</time></trkpt><trkpt lat="51.58715647385644" lon="16.647626958910475"><ele>85.33333333333333</ele><time>2026-04-08T08:52:47Z</time></trkpt><trkpt lat="51.58727987983355" lon="16.647436563749068"><ele>85.66666666666667</ele><time>2026-04-08T08:52:48Z</time></trkpt><trkpt lat="51.58740456873529" lon="16.64724000587618"><ele>86.0</ele><time>2026-04-08T08:52:49Z</time></trkpt><trkpt lat="51.587529740896876" lon="16.64703574791225"><ele>86.0</ele><time>2026-04-08T08:52:50Z</time></trkpt><trkpt lat="51.58765374831982" lon="16.64682850861647"><ele>86.0</ele><time>2026-04-08T08:52:51Z</time></trkpt><trkpt lat="51.58778512855568" lon="16.64661971351009"><ele>86.0</ele><time>2026-04-08T08:52:52Z</time></trkpt><trkpt lat="51.58791615592531" lon="16.646412718593158"><ele>86.0</ele><time>2026-04-08T08:52:53Z</time></trkpt><trkpt lat="51.58805169038458" lon="16.64620620515573"><ele>86.0</ele><time>2026-04-08T08:52:54Z</time></trkpt><trkpt lat="51.588176929221284" lon="16.645996262053007"><ele>86.0</ele><time>2026-04-08T08:52:55Z</time></trkpt><trkpt lat="51.588300127310546" lon="16.645787870220932"><ele>86.0</ele><time>2026-04-08T08:52:56Z</time></trkpt><trkpt lat="51.588414792474445" lon="16.64557439702771"><ele>86.0</ele><time>2026-04-08T08:52:57Z</time></trkpt><trkpt lat="51.5885247265442" lon="16.64536307712828"><ele>86.0</ele><time>2026-04-08T08:52:58Z</time></trkpt><trkpt lat="51.588634107790845" lon="16.645146779630345"><ele>86.0</ele><time>2026-04-08T08:52:59Z</time></trkpt><trkpt lat="51.58873967565428" lon="16.644926329289657"><ele>86.0</ele><time>2026-04-08T08:53:00Z</time></trkpt><trkpt lat="51.58884217004341" lon="16.6447081943246"><ele>86.0</ele><time>2026-04-08T08:53:01Z</time></trkpt><trkpt lat="51.58894375042998" lon="16.644487937817217"><ele>86.33333333333334</ele><time>2026-04-08T08:53:02Z</time></trkpt><trkpt lat="51.58905086976822" lon="16.64426821117416"><ele>86.66666666666667</ele><time>2026-04-08T08:53:03Z</time></trkpt><trkpt lat="51.589157793472964" lon="16.644040681361325"><ele>87.0</ele><time>2026-04-08T08:53:04Z</time></trkpt><trkpt lat="51.589266258122635" lon="16.643812043923123"><ele>87.0</ele><time>2026-04-08T08:53:05Z</time></trkpt><trkpt lat="51.589370473733254" lon="16.64358597521485"><ele>87.0</ele><time>2026-04-08T08:53:06Z</time></trkpt><trkpt lat="51.58948488682661" lon="16.643355974758617"><ele>87.0</ele><time>2026-04-08T08:53:07Z</time></trkpt><trkpt lat="51.58959084656506" lon="16.64311842586811"><ele>87.0</ele><time>2026-04-08T08:53:08Z</time></trkpt><trkpt lat="51.58969467268809" lon="16.64289160138823"><ele>87.0</ele><time>2026-04-08T08:53:09Z</time></trkpt><trkpt lat="51.58981285971866" lon="16.642694617324324"><ele>87.0</ele><time>2026-04-08T08:53:10Z</time></trkpt><trkpt lat="51.589923057419945" lon="16.642471861466245"><ele>86.66666666666667</ele><time>2026-04-08T08:53:11Z</time></trkpt><trkpt lat="51.59003082683754" lon="16.64224524408745"><ele>86.33333333333334</ele><time>2026-04-08T08:53:12Z</time></trkpt><trkpt lat="51.59014014529042" lon="16.642007405277987"><ele>86.0</ele><time>2026-04-08T08:53:13Z</time></trkpt><trkpt lat="51.59024108557933" lon="16.64175441089065"><ele>86.0</ele><time>2026-04-08T08:53:14Z</time></trkpt><trkpt lat="51.59035212622506" lon="16.64152226495407"><ele>86.0</ele><time>2026-04-08T08:53:15Z</time></trkpt><trkpt lat="51.59046187845276" lon="16.641286563474367"><ele>86.0</ele><time>2026-04-08T08:53:16Z</time></trkpt><trkpt lat="51.59057465827529" lon="16.641046982740086"><ele>86.33333333333334</ele><time>2026-04-08T08:53:16.999Z</time></trkpt><trkpt lat="51.59069306068283" lon="16.640810301889143"><ele>86.66666666666667</ele><time>2026-04-08T08:53:17.999Z</time></trkpt><trkpt lat="51.59080197566891" lon="16.64057655895129"><ele>87.0</ele><time>2026-04-08T08:53:18.999Z</time></trkpt><trkpt lat="51.59091145813742" lon="16.64033889415332"><ele>87.0</ele><time>2026-04-08T08:53:19.999Z</time></trkpt><trkpt lat="51.59102088645172" lon="16.640098776939087"><ele>87.0</ele><time>2026-04-08T08:53:20.999Z</time></trkpt><trkpt lat="51.59114625098367" lon="16.639879317014458"><ele>87.0</ele><time>2026-04-08T08:53:22Z</time></trkpt><trkpt lat="51.5912606077325" lon="16.639639595724503"><ele>86.33333333333333</ele><time>2026-04-08T08:53:23Z</time></trkpt><trkpt lat="51.59136378607881" lon="16.63939095443633"><ele>85.66666666666666</ele><time>2026-04-08T08:53:24Z</time></trkpt><trkpt lat="51.59147783339205" lon="16.639147948525775"><ele>85.0</ele><time>2026-04-08T08:53:25Z</time></trkpt><trkpt lat="51.59159421425852" lon="16.638913105369575"><ele>85.0</ele><time>2026-04-08T08:53:26Z</time></trkpt><trkpt lat="51.591705968122916" lon="16.638671640524333"><ele>85.0</ele><time>2026-04-08T08:53:27Z</time></trkpt><trkpt lat="51.59181703565279" lon="16.63842565826151"><ele>85.0</ele><time>2026-04-08T08:53:28Z</time></trkpt><trkpt lat="51.59193279509222" lon="16.63818977814706"><ele>85.33333333333333</ele><time>2026-04-08T08:53:29Z</time></trkpt><trkpt lat="51.59204944180111" lon="16.637954186142366"><ele>85.66666666666667</ele><time>2026-04-08T08:53:30Z</time></trkpt><trkpt lat="51.59216682464853" lon="16.637710625920754"><ele>86.0</ele><time>2026-04-08T08:53:31Z</time></trkpt><trkpt lat="51.59228263731592" lon="16.637468365802896"><ele>86.0</ele><time>2026-04-08T08:53:32Z</time></trkpt><trkpt lat="51.592401113711745" lon="16.637223540052723"><ele>86.0</ele><time>2026-04-08T08:53:33Z</time></trkpt><trkpt lat="51.592515431274435" lon="16.636977699439434"><ele>86.0</ele><time>2026-04-08T08:53:34Z</time></trkpt><trkpt lat="51.5926296914415" lon="16.636735888292197"><ele>86.0</ele><time>2026-04-08T08:53:35Z</time></trkpt><trkpt lat="51.592746300602364" lon="16.636497329087934"><ele>86.0</ele><time>2026-04-08T08:53:36Z</time></trkpt><trkpt lat="51.59286181783494" lon="16.63625276547676"><ele>86.0</ele><time>2026-04-08T08:53:37Z</time></trkpt><trkpt lat="51.59298148619851" lon="16.63601824748091"><ele>86.0</ele><time>2026-04-08T08:53:38Z</time></trkpt><trkpt lat="51.59309914874128" lon="16.63577525928831"><ele>86.0</ele><time>2026-04-08T08:53:39Z</time></trkpt><trkpt lat="51.59320908394308" lon="16.63554221736547"><ele>86.0</ele><time>2026-04-08T08:53:40Z</time></trkpt><trkpt lat="51.59331689582408" lon="16.635320755245463"><ele>86.33333333333334</ele><time>2026-04-08T08:53:41Z</time></trkpt><trkpt lat="51.59340957877801" lon="16.6351049923315"><ele>86.66666666666667</ele><time>2026-04-08T08:53:42Z</time></trkpt><trkpt lat="51.59351087586782" lon="16.6348957667179"><ele>87.0</ele><time>2026-04-08T08:53:43Z</time></trkpt><trkpt lat="51.59361940344888" lon="16.634686857265716"><ele>87.0</ele><time>2026-04-08T08:53:44Z</time></trkpt><trkpt lat="51.593718460377744" lon="16.6344697674719"><ele>87.0</ele><time>2026-04-08T08:53:45Z</time></trkpt><trkpt lat="51.59382076891877" lon="16.634261453972325"><ele>87.0</ele><time>2026-04-08T08:53:46Z</time></trkpt><trkpt lat="51.593919805434" lon="16.634052200001005"><ele>87.0</ele><time>2026-04-08T08:53:47Z</time></trkpt><trkpt lat="51.59402102828572" lon="16.633840539298053"><ele>87.0</ele><time>2026-04-08T08:53:48Z</time></trkpt><trkpt lat="51.59412873695263" lon="16.633631410248956"><ele>87.0</ele><time>2026-04-08T08:53:49Z</time></trkpt><trkpt lat="51.59422910312102" lon="16.63341733439945"><ele>87.0</ele><time>2026-04-08T08:53:50Z</time></trkpt><trkpt lat="51.59433467544303" lon="16.633216735593084"><ele>87.0</ele><time>2026-04-08T08:53:51Z</time></trkpt><trkpt lat="51.594435768317204" lon="16.63300897975243"><ele>87.0</ele><time>2026-04-08T08:53:52Z</time></trkpt><trkpt lat="51.594528875947134" lon="16.63279391413121"><ele>88.5</ele><time>2026-04-08T08:53:53Z</time></trkpt><trkpt lat="51.5946148286454" lon="16.632597645393044"><ele>90.0</ele><time>2026-04-08T08:53:54Z</time></trkpt><trkpt lat="51.594708786208614" lon="16.632410711572295"><ele>91.5</ele><time>2026-04-08T08:53:55Z</time></trkpt><trkpt lat="51.59479632658137" lon="16.632215382558574"><ele>93.0</ele><time>2026-04-08T08:53:56Z</time></trkpt><trkpt lat="51.594891774711954" lon="16.63203386018576"><ele>92.0</ele><time>2026-04-08T08:53:57Z</time></trkpt><trkpt lat="51.59498126431026" lon="16.631836869563546"><ele>91.0</ele><time>2026-04-08T08:53:58Z</time></trkpt><trkpt lat="51.59507341878366" lon="16.631630418823597"><ele>90.0</ele><time>2026-04-08T08:53:59Z</time></trkpt><trkpt lat="51.59516602400728" lon="16.631418234346185"><ele>90.0</ele><time>2026-04-08T08:54:00Z</time></trkpt><trkpt lat="51.59527030683247" lon="16.631212367962615"><ele>90.0</ele><time>2026-04-08T08:54:01Z</time></trkpt><trkpt lat="51.595389780295" lon="16.631042511767934"><ele>90.0</ele><time>2026-04-08T08:54:02Z</time></trkpt><trkpt lat="51.59549918621398" lon="16.630866315930238"><ele>90.5</ele><time>2026-04-08T08:54:03Z</time></trkpt><trkpt lat="51.595603589071544" lon="16.630710404294042"><ele>91.0</ele><time>2026-04-08T08:54:04Z</time></trkpt><trkpt lat="51.595708831242284" lon="16.63056860365168"><ele>91.5</ele><time>2026-04-08T08:54:05Z</time></trkpt><trkpt lat="51.59580078050806" lon="16.630431433100078"><ele>92.0</ele><time>2026-04-08T08:54:06Z</time></trkpt><trkpt lat="51.59589197032698" lon="16.630325084679257"><ele>91.25</ele><time>2026-04-08T08:54:07Z</time></trkpt><trkpt lat="51.59597964694249" lon="16.630202804937035"><ele>90.5</ele><time>2026-04-08T08:54:08Z</time></trkpt><trkpt lat="51.59605537682142" lon="16.63005663175922"><ele>89.75</ele><time>2026-04-08T08:54:09Z</time></trkpt><trkpt lat="51.59613237710574" lon="16.629895449632812"><ele>89.0</ele><time>2026-04-08T08:54:10Z</time></trkpt><trkpt lat="51.5961886774254" lon="16.629716445659472"><ele>88.5</ele><time>2026-04-08T08:54:11Z</time></trkpt><trkpt lat="51.59623621643976" lon="16.629538986951086"><ele>88.0</ele><time>2026-04-08T08:54:12Z</time></trkpt><trkpt lat="51.59628367019682" lon="16.62933997279059"><ele>87.5</ele><time>2026-04-08T08:54:13Z</time></trkpt><trkpt lat="51.59632324976748" lon="16.629135250873468"><ele>87.0</ele><time>2026-04-08T08:54:14Z</time></trkpt><trkpt lat="51.596358668199805" lon="16.628926189029045"><ele>87.0</ele><time>2026-04-08T08:54:15Z</time></trkpt><trkpt lat="51.59640387901761" lon="16.62869716256213"><ele>87.0</ele><time>2026-04-08T08:54:16Z</time></trkpt><trkpt lat="51.596444984180735" lon="16.628503200742845"><ele>87.0</ele><time>2026-04-08T08:54:17Z</time></trkpt><trkpt lat="51.59648545112073" lon="16.628302968558955"><ele>87.0</ele><time>2026-04-08T08:54:18Z</time></trkpt><trkpt lat="51.59651862703605" lon="16.628097859001343"><ele>86.75</ele><time>2026-04-08T08:54:19Z</time></trkpt><trkpt lat="51.596540399371065" lon="16.62789087264529"><ele>86.5</ele><time>2026-04-08T08:54:20Z</time></trkpt><trkpt lat="51.596552064463495" lon="16.627677748293618"><ele>86.25</ele><time>2026-04-08T08:54:21Z</time></trkpt><trkpt lat="51.59655822097963" lon="16.627462617317285"><ele>86.0</ele><time>2026-04-08T08:54:22Z</time></trkpt><trkpt lat="51.59655459997196" lon="16.627262833964743"><ele>86.0</ele><time>2026-04-08T08:54:23Z</time></trkpt><trkpt lat="51.59654996264952" lon="16.627066880102927"><ele>86.0</ele><time>2026-04-08T08:54:24Z</time></trkpt><trkpt lat="51.59654122132282" lon="16.6268619396103"><ele>86.0</ele><time>2026-04-08T08:54:25Z</time></trkpt><trkpt lat="51.59654276531317" lon="16.626638813683968"><ele>86.0</ele><time>2026-04-08T08:54:26Z</time></trkpt><trkpt lat="51.59654946560432" lon="16.626420050643695"><ele>86.25</ele><time>2026-04-08T08:54:27Z</time></trkpt><trkpt lat="51.59656371326608" lon="16.626193034964793"><ele>86.5</ele><time>2026-04-08T08:54:28Z</time></trkpt><trkpt lat="51.59658313693487" lon="16.625955474631148"><ele>86.75</ele><time>2026-04-08T08:54:29Z</time></trkpt><trkpt lat="51.59660764197235" lon="16.625718351539206"><ele>87.0</ele><time>2026-04-08T08:54:30Z</time></trkpt><trkpt lat="51.596626926301916" lon="16.625490111387506"><ele>86.75</ele><time>2026-04-08T08:54:31Z</time></trkpt><trkpt lat="51.59665558403346" lon="16.625293345389597"><ele>86.5</ele><time>2026-04-08T08:54:32Z</time></trkpt><trkpt lat="51.59668014015972" lon="16.62511265971146"><ele>86.25</ele><time>2026-04-08T08:54:33Z</time></trkpt><trkpt lat="51.5967292588657" lon="16.624945897110237"><ele>86.0</ele><time>2026-04-08T08:54:34Z</time></trkpt><trkpt lat="51.59676984673888" lon="16.62476430387439"><ele>86.0</ele><time>2026-04-08T08:54:35Z</time></trkpt><trkpt lat="51.596813070608086" lon="16.624579051982497"><ele>86.0</ele><time>2026-04-08T08:54:36Z</time></trkpt><trkpt lat="51.59685834464962" lon="16.6243891477455"><ele>86.0</ele><time>2026-04-08T08:54:37Z</time></trkpt><trkpt lat="51.59690340933986" lon="16.624200556773342"><ele>86.0</ele><time>2026-04-08T08:54:38Z</time></trkpt><trkpt lat="51.59693656142213" lon="16.62399386508138"><ele>86.25</ele><time>2026-04-08T08:54:39Z</time></trkpt><trkpt lat="51.596973591932496" lon="16.62379571438699"><ele>86.5</ele><time>2026-04-08T08:54:40Z</time></trkpt><trkpt lat="51.59701638562228" lon="16.623615770677663"><ele>86.75</ele><time>2026-04-08T08:54:41Z</time></trkpt><trkpt lat="51.59705772817033" lon="16.623421422122593"><ele>87.0</ele><time>2026-04-08T08:54:42Z</time></trkpt><trkpt lat="51.59708035367991" lon="16.623214650858184"><ele>87.25</ele><time>2026-04-08T08:54:43Z</time></trkpt><trkpt lat="51.59712024716296" lon="16.623022138783735"><ele>87.5</ele><time>2026-04-08T08:54:44Z</time></trkpt><trkpt lat="51.5971710829784" lon="16.622836243601927"><ele>87.75</ele><time>2026-04-08T08:54:45Z</time></trkpt><trkpt lat="51.597204632750426" lon="16.62264371722259"><ele>88.0</ele><time>2026-04-08T08:54:46Z</time></trkpt><trkpt lat="51.5972412127141" lon="16.62246434370767"><ele>88.0</ele><time>2026-04-08T08:54:47Z</time></trkpt><trkpt lat="51.59726979470493" lon="16.622295248396984"><ele>88.0</ele><time>2026-04-08T08:54:48Z</time></trkpt><trkpt lat="51.59732280919609" lon="16.622164280960373"><ele>88.0</ele><time>2026-04-08T08:54:49Z</time></trkpt><trkpt lat="51.59738390866114" lon="16.622081127104856"><ele>88.0</ele><time>2026-04-08T08:54:50Z</time></trkpt><trkpt lat="51.59745058615203" lon="16.622041724018104"><ele>88.0</ele><time>2026-04-08T08:54:51Z</time></trkpt><trkpt lat="51.597524347124775" lon="16.62201252788906"><ele>88.0</ele><time>2026-04-08T08:54:52Z</time></trkpt><trkpt lat="51.59761815719879" lon="16.621962598920472"><ele>88.0</ele><time>2026-04-08T08:54:53Z</time></trkpt><trkpt lat="51.59772615520559" lon="16.62192298388603"><ele>88.0</ele><time>2026-04-08T08:54:54Z</time></trkpt><trkpt lat="51.59783586919389" lon="16.621870596806772"><ele>88.0</ele><time>2026-04-08T08:54:55Z</time></trkpt><trkpt lat="51.59795081783046" lon="16.621813763901642"><ele>88.0</ele><time>2026-04-08T08:54:56Z</time></trkpt><trkpt lat="51.598069052985565" lon="16.621749688201337"><ele>87.75</ele><time>2026-04-08T08:54:57Z</time></trkpt><trkpt lat="51.59819263966478" lon="16.62167834871703"><ele>87.5</ele><time>2026-04-08T08:54:58Z</time></trkpt><trkpt lat="51.59831211450864" lon="16.62161589148049"><ele>87.25</ele><time>2026-04-08T08:54:59Z</time></trkpt><trkpt lat="51.598409187990754" lon="16.62154162682466"><ele>87.0</ele><time>2026-04-08T08:55:00Z</time></trkpt><trkpt lat="51.59849214316314" lon="16.621435542108472"><ele>87.0</ele><time>2026-04-08T08:55:01Z</time></trkpt><trkpt lat="51.59855599112031" lon="16.62130623863115"><ele>87.0</ele><time>2026-04-08T08:55:02Z</time></trkpt><trkpt lat="51.59860594634195" lon="16.621163404038068"><ele>87.0</ele><time>2026-04-08T08:55:03Z</time></trkpt><trkpt lat="51.59863288108871" lon="16.620990784719364"><ele>87.0</ele><time>2026-04-08T08:55:04Z</time></trkpt><trkpt lat="51.59863663976711" lon="16.620809798579888"><ele>87.0</ele><time>2026-04-08T08:55:05Z</time></trkpt><trkpt lat="51.5986330922097" lon="16.6206204572155"><ele>87.25</ele><time>2026-04-08T08:55:06Z</time></trkpt><trkpt lat="51.59863337490366" lon="16.62041597791219"><ele>87.5</ele><time>2026-04-08T08:55:07Z</time></trkpt><trkpt lat="51.59863101217868" lon="16.620199415642272"><ele>87.75</ele><time>2026-04-08T08:55:08Z</time></trkpt><trkpt lat="51.59863310208761" lon="16.61997680614"><ele>88.0</ele><time>2026-04-08T08:55:09Z</time></trkpt><trkpt lat="51.59861285853492" lon="16.61976035040718"><ele>88.0</ele><time>2026-04-08T08:55:10Z</time></trkpt><trkpt lat="51.59856980328561" lon="16.61955370491411"><ele>88.0</ele><time>2026-04-08T08:55:11Z</time></trkpt><trkpt lat="51.59851863828979" lon="16.619344579580552"><ele>88.0</ele><time>2026-04-08T08:55:12Z</time></trkpt><trkpt lat="51.598459008187405" lon="16.61912726033269"><ele>88.0</ele><time>2026-04-08T08:55:13Z</time></trkpt><trkpt lat="51.59840339979562" lon="16.618900382932004"><ele>87.75</ele><time>2026-04-08T08:55:14Z</time></trkpt><trkpt lat="51.59833751519974" lon="16.618688576690925"><ele>87.5</ele><time>2026-04-08T08:55:15Z</time></trkpt><trkpt lat="51.59827851810908" lon="16.61850568626728"><ele>87.25</ele><time>2026-04-08T08:55:16Z</time></trkpt><trkpt lat="51.59821937913314" lon="16.618349081377175"><ele>87.0</ele><time>2026-04-08T08:55:17Z</time></trkpt><trkpt lat="51.59815114564784" lon="16.618223265992896"><ele>87.0</ele><time>2026-04-08T08:55:18Z</time></trkpt><trkpt lat="51.598096262451726" lon="16.618098792517646"><ele>87.0</ele><time>2026-04-08T08:55:19Z</time></trkpt><trkpt lat="51.598061221593454" lon="16.617966020068803"><ele>87.0</ele><time>2026-04-08T08:55:20Z</time></trkpt><trkpt lat="51.59802766405467" lon="16.617834509405796"><ele>87.0</ele><time>2026-04-08T08:55:21Z</time></trkpt><trkpt lat="51.59799546667349" lon="16.617692876905966"><ele>87.0</ele><time>2026-04-08T08:55:22Z</time></trkpt><trkpt lat="51.597967946702205" lon="16.61754883017562"><ele>87.0</ele><time>2026-04-08T08:55:22.999Z</time></trkpt><trkpt lat="51.59794671808126" lon="16.617392971468337"><ele>87.0</ele><time>2026-04-08T08:55:23.999Z</time></trkpt><trkpt lat="51.5979108073539" lon="16.617241699427602"><ele>87.0</ele><time>2026-04-08T08:55:24.999Z</time></trkpt><trkpt lat="51.59789772884558" lon="16.617057557702168"><ele>87.0</ele><time>2026-04-08T08:55:25.999Z</time></trkpt><trkpt lat="51.59787298559477" lon="16.61685741130849"><ele>87.0</ele><time>2026-04-08T08:55:26.999Z</time></trkpt><trkpt lat="51.59784713893114" lon="16.61663933062609"><ele>86.75</ele><time>2026-04-08T08:55:27.999Z</time></trkpt><trkpt lat="51.59781500582071" lon="16.61641805848189"><ele>86.5</ele><time>2026-04-08T08:55:28.999Z</time></trkpt><trkpt lat="51.59777890080655" lon="16.61618464869191"><ele>86.25</ele><time>2026-04-08T08:55:29.999Z</time></trkpt><trkpt lat="51.59774031917827" lon="16.61594537549807"><ele>86.0</ele><time>2026-04-08T08:55:30.999Z</time></trkpt><trkpt lat="51.59770692276648" lon="16.6157005131727"><ele>86.0</ele><time>2026-04-08T08:55:31.999Z</time></trkpt><trkpt lat="51.597677296733494" lon="16.615447909833616"><ele>86.0</ele><time>2026-04-08T08:55:32.999Z</time></trkpt><trkpt lat="51.597641833235016" lon="16.61518508634328"><ele>86.0</ele><time>2026-04-08T08:55:33.999Z</time></trkpt><trkpt lat="51.597609603307994" lon="16.614928105079095"><ele>86.25</ele><time>2026-04-08T08:55:35Z</time></trkpt><trkpt lat="51.597575388830684" lon="16.614694848567737"><ele>86.5</ele><time>2026-04-08T08:55:36Z</time></trkpt><trkpt lat="51.597545185819456" lon="16.61448333303312"><ele>86.75</ele><time>2026-04-08T08:55:37Z</time></trkpt><trkpt lat="51.597519291189904" lon="16.61426117673358"><ele>87.0</ele><time>2026-04-08T08:55:38Z</time></trkpt><trkpt lat="51.59748875063" lon="16.61402748868479"><ele>87.0</ele><time>2026-04-08T08:55:39Z</time></trkpt><trkpt lat="51.59744585756491" lon="16.61378881789349"><ele>87.0</ele><time>2026-04-08T08:55:40Z</time></trkpt><trkpt lat="51.59739407857542" lon="16.613564670599562"><ele>87.0</ele><time>2026-04-08T08:55:41Z</time></trkpt><trkpt lat="51.597330381957256" lon="16.61334869569333"><ele>87.0</ele><time>2026-04-08T08:55:42Z</time></trkpt><trkpt lat="51.5972556056058" lon="16.613156995549932"><ele>87.0</ele><time>2026-04-08T08:55:43Z</time></trkpt><trkpt lat="51.59715971090546" lon="16.612976027065308"><ele>87.0</ele><time>2026-04-08T08:55:44Z</time></trkpt><trkpt lat="51.5970713296218" lon="16.61280957972451"><ele>87.0</ele><time>2026-04-08T08:55:45Z</time></trkpt><trkpt lat="51.596984495023605" lon="16.6126206484515"><ele>86.83333333333333</ele><time>2026-04-08T08:55:46Z</time></trkpt><trkpt lat="51.59695264470324" lon="16.612423834475315"><ele>86.66666666666667</ele><time>2026-04-08T08:55:47Z</time></trkpt><trkpt lat="51.59692252481606" lon="16.61226342890315"><ele>86.5</ele><time>2026-04-08T08:55:48Z</time></trkpt><trkpt lat="51.59690079011248" lon="16.61214007385976"><ele>86.33333333333334</ele><time>2026-04-08T08:55:49Z</time></trkpt><trkpt lat="51.59688009097055" lon="16.61203625809973"><ele>86.16666666666667</ele><time>2026-04-08T08:55:50Z</time></trkpt><trkpt lat="51.59687507833358" lon="16.61193295973275"><ele>86.0</ele><time>2026-04-08T08:55:53Z</time></trkpt><trkpt lat="51.59681662212861" lon="16.61188304330949"><ele>86.0</ele><time>2026-04-08T09:04:33Z</time></trkpt><trkpt lat="51.59682166572714" lon="16.611778044957493"><ele>86.0</ele><time>2026-04-08T09:04:46Z</time></trkpt><trkpt lat="51.596836742437794" lon="16.611610665457633"><ele>86.0</ele><time>2026-04-08T09:04:48Z</time></trkpt><trkpt lat="51.596835108231005" lon="16.611404348884214"><ele>86.0</ele><time>2026-04-08T09:04:50Z</time></trkpt><trkpt lat="51.59686002131864" lon="16.6112737988768"><ele>86.0</ele><time>2026-04-08T09:04:51Z</time></trkpt><trkpt lat="51.59689822107178" lon="16.611135203615024"><ele>85.75</ele><time>2026-04-08T09:04:52Z</time></trkpt><trkpt lat="51.59695226266123" lon="16.610967650910535"><ele>85.5</ele><time>2026-04-08T09:04:53Z</time></trkpt><trkpt lat="51.59700021299734" lon="16.610789802404543"><ele>85.25</ele><time>2026-04-08T09:04:54Z</time></trkpt><trkpt lat="51.59703648810499" lon="16.610591676565548"><ele>85.0</ele><time>2026-04-08T09:04:55Z</time></trkpt><trkpt lat="51.59708784967013" lon="16.61039437212345"><ele>85.25</ele><time>2026-04-08T09:04:56Z</time></trkpt><trkpt lat="51.59713533607445" lon="16.610195226100508"><ele>85.5</ele><time>2026-04-08T09:04:57Z</time></trkpt><trkpt lat="51.59719813946778" lon="16.60999535671724"><ele>85.75</ele><time>2026-04-08T09:04:58Z</time></trkpt><trkpt lat="51.59724519471357" lon="16.60978705432161"><ele>86.0</ele><time>2026-04-08T09:04:59Z</time></trkpt><trkpt lat="51.59729206297464" lon="16.6095848073451"><ele>86.25</ele><time>2026-04-08T09:05:00Z</time></trkpt><trkpt lat="51.59733823134778" lon="16.609381324812105"><ele>86.5</ele><time>2026-04-08T09:05:01Z</time></trkpt><trkpt lat="51.59738547893996" lon="16.609171752915184"><ele>86.75</ele><time>2026-04-08T09:05:02Z</time></trkpt><trkpt lat="51.59743328910312" lon="16.608956375366812"><ele>87.0</ele><time>2026-04-08T09:05:03Z</time></trkpt><trkpt lat="51.597483820932176" lon="16.60873746099881"><ele>86.66666666666667</ele><time>2026-04-08T09:05:04Z</time></trkpt><trkpt lat="51.597533770369076" lon="16.60851823889313"><ele>86.33333333333334</ele><time>2026-04-08T09:05:05Z</time></trkpt><trkpt lat="51.597593899922686" lon="16.608293549934874"><ele>86.0</ele><time>2026-04-08T09:05:06Z</time></trkpt><trkpt lat="51.597652938221565" lon="16.608060775966802"><ele>86.0</ele><time>2026-04-08T09:05:07Z</time></trkpt><trkpt lat="51.597709573614054" lon="16.60782142701818"><ele>86.0</ele><time>2026-04-08T09:05:08Z</time></trkpt><trkpt lat="51.597763596620865" lon="16.607574307680828"><ele>86.0</ele><time>2026-04-08T09:05:09Z</time></trkpt><trkpt lat="51.597835615155915" lon="16.607326505074493"><ele>86.33333333333334</ele><time>2026-04-08T09:05:10Z</time></trkpt><trkpt lat="51.59789706071561" lon="16.607071670790255"><ele>86.66666666666667</ele><time>2026-04-08T09:05:11Z</time></trkpt><trkpt lat="51.597959371004" lon="16.60680783673533"><ele>87.0</ele><time>2026-04-08T09:05:12Z</time></trkpt><trkpt lat="51.598024341211556" lon="16.60653010694471"><ele>87.0</ele><time>2026-04-08T09:05:13Z</time></trkpt><trkpt lat="51.598090549517735" lon="16.606245037511755"><ele>87.0</ele><time>2026-04-08T09:05:14Z</time></trkpt><trkpt lat="51.59815326803022" lon="16.605977081102232"><ele>87.0</ele><time>2026-04-08T09:05:15Z</time></trkpt><trkpt lat="51.59821157184762" lon="16.605735709801408"><ele>87.0</ele><time>2026-04-08T09:05:16Z</time></trkpt><trkpt lat="51.5982715625525" lon="16.605488497100005"><ele>87.0</ele><time>2026-04-08T09:05:17Z</time></trkpt><trkpt lat="51.598319693733195" lon="16.605233799501892"><ele>87.0</ele><time>2026-04-08T09:05:18Z</time></trkpt><trkpt lat="51.598398546834446" lon="16.60501234896895"><ele>86.75</ele><time>2026-04-08T09:05:19Z</time></trkpt><trkpt lat="51.598461425689926" lon="16.60480481628829"><ele>86.5</ele><time>2026-04-08T09:05:20Z</time></trkpt><trkpt lat="51.598527401728916" lon="16.604586703972963"><ele>86.25</ele><time>2026-04-08T09:05:21Z</time></trkpt><trkpt lat="51.5985720815966" lon="16.60436112682756"><ele>86.0</ele><time>2026-04-08T09:05:22Z</time></trkpt><trkpt lat="51.5986137226686" lon="16.604152056924136"><ele>86.0</ele><time>2026-04-08T09:05:23Z</time></trkpt><trkpt lat="51.59863730671904" lon="16.6039331306449"><ele>86.0</ele><time>2026-04-08T09:05:24Z</time></trkpt><trkpt lat="51.59865731852836" lon="16.603716878381576"><ele>86.0</ele><time>2026-04-08T09:05:25Z</time></trkpt><trkpt lat="51.598662197223355" lon="16.603486357145965"><ele>86.0</ele><time>2026-04-08T09:05:26Z</time></trkpt><trkpt lat="51.59867050776572" lon="16.603246409961166"><ele>86.75</ele><time>2026-04-08T09:05:27Z</time></trkpt><trkpt lat="51.598689097180745" lon="16.603016235378597"><ele>87.5</ele><time>2026-04-08T09:05:28Z</time></trkpt><trkpt lat="51.5987128499387" lon="16.602773240880502"><ele>88.25</ele><time>2026-04-08T09:05:29Z</time></trkpt><trkpt lat="51.598741199575656" lon="16.602534115953357"><ele>89.0</ele><time>2026-04-08T09:05:30Z</time></trkpt><trkpt lat="51.5987761531846" lon="16.602274239191935"><ele>89.33333333333334</ele><time>2026-04-08T09:05:31Z</time></trkpt><trkpt lat="51.59881400383731" lon="16.602013817442007"><ele>89.66666666666667</ele><time>2026-04-08T09:05:32Z</time></trkpt><trkpt lat="51.598857956564494" lon="16.60174085822779"><ele>90.0</ele><time>2026-04-08T09:05:33Z</time></trkpt><trkpt lat="51.598905583357464" lon="16.601478229462575"><ele>90.0</ele><time>2026-04-08T09:05:34Z</time></trkpt><trkpt lat="51.59896549840314" lon="16.601222604187733"><ele>90.0</ele><time>2026-04-08T09:05:35Z</time></trkpt><trkpt lat="51.599032803428436" lon="16.600979616786447"><ele>90.0</ele><time>2026-04-08T09:05:36Z</time></trkpt><trkpt lat="51.599107070830264" lon="16.60074989417441"><ele>89.66666666666667</ele><time>2026-04-08T09:05:37Z</time></trkpt><trkpt lat="51.59918676794669" lon="16.600524091340933"><ele>89.33333333333334</ele><time>2026-04-08T09:05:38Z</time></trkpt><trkpt lat="51.59927706948323" lon="16.600287836011216"><ele>89.0</ele><time>2026-04-08T09:05:39Z</time></trkpt><trkpt lat="51.59936909538243" lon="16.600041595484537"><ele>89.0</ele><time>2026-04-08T09:05:40Z</time></trkpt><trkpt lat="51.59944447990082" lon="16.599792887612256"><ele>89.0</ele><time>2026-04-08T09:05:41Z</time></trkpt><trkpt lat="51.59953568710705" lon="16.599574899264525"><ele>89.0</ele><time>2026-04-08T09:05:42Z</time></trkpt><trkpt lat="51.59959758971857" lon="16.59933280518832"><ele>88.75</ele><time>2026-04-08T09:05:43Z</time></trkpt><trkpt lat="51.59964920247454" lon="16.599105423425218"><ele>88.5</ele><time>2026-04-08T09:05:44Z</time></trkpt><trkpt lat="51.59970147550472" lon="16.598888035566706"><ele>88.25</ele><time>2026-04-08T09:05:45Z</time></trkpt><trkpt lat="51.599765311856046" lon="16.5986832468179"><ele>88.0</ele><time>2026-04-08T09:05:46Z</time></trkpt><trkpt lat="51.59983792899237" lon="16.59851898595421"><ele>87.4</ele><time>2026-04-08T09:05:47Z</time></trkpt><trkpt lat="51.59990909527072" lon="16.598370780965436"><ele>86.80000000000001</ele><time>2026-04-08T09:05:48Z</time></trkpt><trkpt lat="51.59997597446654" lon="16.598221232332953"><ele>86.2</ele><time>2026-04-08T09:05:49Z</time></trkpt><trkpt lat="51.60003154292434" lon="16.598081091540987"><ele>85.6</ele><time>2026-04-08T09:05:50Z</time></trkpt><trkpt lat="51.60006806547107" lon="16.597951665074014"><ele>85.0</ele><time>2026-04-08T09:05:51Z</time></trkpt><trkpt lat="51.60011023583071" lon="16.597874312322983"><ele>85.0</ele><time>2026-04-08T09:05:52Z</time></trkpt><trkpt lat="51.6002115173101" lon="16.597945974484198"><ele>85.0</ele><time>2026-04-08T09:05:52.999Z</time></trkpt><trkpt lat="51.60036261329538" lon="16.597990037307657"><ele>85.0</ele><time>2026-04-08T09:05:54.999Z</time></trkpt><trkpt lat="51.60046926181539" lon="16.598012827828995"><ele>85.0</ele><time>2026-04-08T09:05:55.999Z</time></trkpt><trkpt lat="51.600591082855836" lon="16.59805801277703"><ele>85.5</ele><time>2026-04-08T09:05:56.999Z</time></trkpt><trkpt lat="51.60072291194055" lon="16.598100907986954"><ele>86.0</ele><time>2026-04-08T09:05:57.999Z</time></trkpt><trkpt lat="51.60086476242962" lon="16.59814600310669"><ele>86.5</ele><time>2026-04-08T09:05:58.999Z</time></trkpt><trkpt lat="51.60101137722272" lon="16.598190715910867"><ele>87.0</ele><time>2026-04-08T09:05:59.999Z</time></trkpt><trkpt lat="51.60115373505032" lon="16.598239040601428"><ele>87.25</ele><time>2026-04-08T09:06:00.999Z</time></trkpt><trkpt lat="51.60129182042671" lon="16.598302377815255"><ele>87.5</ele><time>2026-04-08T09:06:01.999Z</time></trkpt><trkpt lat="51.60143266855087" lon="16.598378789397593"><ele>87.75</ele><time>2026-04-08T09:06:02.999Z</time></trkpt><trkpt lat="51.60156876851726" lon="16.59845304670831"><ele>88.0</ele><time>2026-04-08T09:06:03.999Z</time></trkpt><trkpt lat="51.60170792629292" lon="16.598525645290394"><ele>88.0</ele><time>2026-04-08T09:06:04.999Z</time></trkpt><trkpt lat="51.60183703060305" lon="16.59858462141833"><ele>88.0</ele><time>2026-04-08T09:06:05.999Z</time></trkpt><trkpt lat="51.601971775341205" lon="16.598639448595907"><ele>88.0</ele><time>2026-04-08T09:06:06.999Z</time></trkpt><trkpt lat="51.602103328579076" lon="16.598684237493266"><ele>88.0</ele><time>2026-04-08T09:06:07.999Z</time></trkpt><trkpt lat="51.60223914061009" lon="16.598712811908268"><ele>88.25</ele><time>2026-04-08T09:06:08.999Z</time></trkpt><trkpt lat="51.602355758653026" lon="16.59875740899048"><ele>88.5</ele><time>2026-04-08T09:06:09.999Z</time></trkpt><trkpt lat="51.602465205421964" lon="16.598827022571186"><ele>88.75</ele><time>2026-04-08T09:06:10.999Z</time></trkpt><trkpt lat="51.602581556142" lon="16.598873201425146"><ele>89.0</ele><time>2026-04-08T09:06:11.999Z</time></trkpt><trkpt lat="51.6027011105877" lon="16.598921317926724"><ele>89.0</ele><time>2026-04-08T09:06:12.999Z</time></trkpt><trkpt lat="51.60280901029215" lon="16.598964743785892"><ele>89.0</ele><time>2026-04-08T09:06:13.999Z</time></trkpt><trkpt lat="51.602915370143" lon="16.59900754991838"><ele>89.0</ele><time>2026-04-08T09:06:14.999Z</time></trkpt><trkpt lat="51.60303207559396" lon="16.59905512794268"><ele>89.0</ele><time>2026-04-08T09:06:15.999Z</time></trkpt><trkpt lat="51.60314699824762" lon="16.599100678994365"><ele>89.5</ele><time>2026-04-08T09:06:16.999Z</time></trkpt><trkpt lat="51.603269848611" lon="16.599143367828805"><ele>90.0</ele><time>2026-04-08T09:06:17.999Z</time></trkpt><trkpt lat="51.60339599054599" lon="16.599153988449764"><ele>90.5</ele><time>2026-04-08T09:06:18.999Z</time></trkpt><trkpt lat="51.60352218588749" lon="16.599190011499644"><ele>91.0</ele><time>2026-04-08T09:06:19.999Z</time></trkpt><trkpt lat="51.60365288980981" lon="16.59923842839275"><ele>91.75</ele><time>2026-04-08T09:06:21Z</time></trkpt><trkpt lat="51.60378369519204" lon="16.599276806233412"><ele>92.5</ele><time>2026-04-08T09:06:22Z</time></trkpt><trkpt lat="51.60391234692426" lon="16.599330530096363"><ele>93.25</ele><time>2026-04-08T09:06:23Z</time></trkpt><trkpt lat="51.60403013254308" lon="16.599382931118303"><ele>94.0</ele><time>2026-04-08T09:06:24Z</time></trkpt><trkpt lat="51.60415510925528" lon="16.599435053087117"><ele>94.0</ele><time>2026-04-08T09:06:25Z</time></trkpt><trkpt lat="51.604277627330525" lon="16.59947555956835"><ele>94.0</ele><time>2026-04-08T09:06:26Z</time></trkpt><trkpt lat="51.6043993518163" lon="16.59952271156576"><ele>94.0</ele><time>2026-04-08T09:06:27Z</time></trkpt><trkpt lat="51.604523120096495" lon="16.599603123562385"><ele>94.0</ele><time>2026-04-08T09:06:28Z</time></trkpt><trkpt lat="51.6046493504336" lon="16.599658559733115"><ele>95.0</ele><time>2026-04-08T09:06:29Z</time></trkpt><trkpt lat="51.60478517709859" lon="16.599692088106725"><ele>96.0</ele><time>2026-04-08T09:06:30Z</time></trkpt><trkpt lat="51.60491551498446" lon="16.59974852554067"><ele>97.0</ele><time>2026-04-08T09:06:31Z</time></trkpt><trkpt lat="51.605044413142984" lon="16.59980763000814"><ele>98.0</ele><time>2026-04-08T09:06:32Z</time></trkpt><trkpt lat="51.60517375891052" lon="16.599859489478906"><ele>98.0</ele><time>2026-04-08T09:06:33Z</time></trkpt><trkpt lat="51.605299290163295" lon="16.599907349087214"><ele>98.0</ele><time>2026-04-08T09:06:34Z</time></trkpt><trkpt lat="51.605403262321786" lon="16.599975520488613"><ele>98.0</ele><time>2026-04-08T09:06:35Z</time></trkpt><trkpt lat="51.60551940771783" lon="16.600030767022396"><ele>98.0</ele><time>2026-04-08T09:06:36Z</time></trkpt><trkpt lat="51.605632497147695" lon="16.600092054417512"><ele>98.5</ele><time>2026-04-08T09:06:37Z</time></trkpt><trkpt lat="51.60573989647875" lon="16.600162287866493"><ele>99.0</ele><time>2026-04-08T09:06:38Z</time></trkpt><trkpt lat="51.605842231521514" lon="16.60028650371133"><ele>99.5</ele><time>2026-04-08T09:06:39Z</time></trkpt><trkpt lat="51.60595642712235" lon="16.6003639900353"><ele>100.0</ele><time>2026-04-08T09:06:40Z</time></trkpt><trkpt lat="51.606079721083844" lon="16.600423466256906"><ele>101.0</ele><time>2026-04-08T09:06:41Z</time></trkpt><trkpt lat="51.606203917259236" lon="16.600456311128713"><ele>102.0</ele><time>2026-04-08T09:06:42Z</time></trkpt><trkpt lat="51.6063365729598" lon="16.600508646478048"><ele>103.0</ele><time>2026-04-08T09:06:43Z</time></trkpt><trkpt lat="51.60647219250723" lon="16.60056580668182"><ele>104.0</ele><time>2026-04-08T09:06:44Z</time></trkpt><trkpt lat="51.60660846371803" lon="16.600626973842925"><ele>104.0</ele><time>2026-04-08T09:06:45Z</time></trkpt><trkpt lat="51.606736142358166" lon="16.60068915668245"><ele>104.0</ele><time>2026-04-08T09:06:46Z</time></trkpt><trkpt lat="51.60684213518271" lon="16.600740885562068"><ele>104.0</ele><time>2026-04-08T09:06:47Z</time></trkpt><trkpt lat="51.60695673599832" lon="16.600806410242757"><ele>104.0</ele><time>2026-04-08T09:06:48Z</time></trkpt><trkpt lat="51.607080639219376" lon="16.600860000852016"><ele>104.25</ele><time>2026-04-08T09:06:49Z</time></trkpt><trkpt lat="51.60720212282444" lon="16.600928334918233"><ele>104.5</ele><time>2026-04-08T09:06:50Z</time></trkpt><trkpt lat="51.607303945239124" lon="16.601003237015526"><ele>104.75</ele><time>2026-04-08T09:06:51Z</time></trkpt><trkpt lat="51.6074104098904" lon="16.60108345699708"><ele>105.0</ele><time>2026-04-08T09:06:52Z</time></trkpt><trkpt lat="51.60752126410921" lon="16.60113607297697"><ele>105.0</ele><time>2026-04-08T09:06:53Z</time></trkpt><trkpt lat="51.60763748833352" lon="16.601191284171737"><ele>105.0</ele><time>2026-04-08T09:06:54Z</time></trkpt><trkpt lat="51.607752808892315" lon="16.601264266647167"><ele>105.0</ele><time>2026-04-08T09:06:55Z</time></trkpt><trkpt lat="51.60787788478622" lon="16.601319846925332"><ele>105.0</ele><time>2026-04-08T09:06:56Z</time></trkpt><trkpt lat="51.60799382415945" lon="16.601400025717634"><ele>105.25</ele><time>2026-04-08T09:06:57Z</time></trkpt><trkpt lat="51.60810317975332" lon="16.60146455585903"><ele>105.5</ele><time>2026-04-08T09:06:58Z</time></trkpt><trkpt lat="51.60822077526706" lon="16.60151852598862"><ele>105.75</ele><time>2026-04-08T09:06:59Z</time></trkpt><trkpt lat="51.60833914134111" lon="16.601576334078914"><ele>106.0</ele><time>2026-04-08T09:07:00Z</time></trkpt><trkpt lat="51.60845137467035" lon="16.601623775463874"><ele>106.0</ele><time>2026-04-08T09:07:01Z</time></trkpt><trkpt lat="51.608566870022464" lon="16.601660934948825"><ele>106.0</ele><time>2026-04-08T09:07:02Z</time></trkpt><trkpt lat="51.60869229861246" lon="16.60167577599585"><ele>106.0</ele><time>2026-04-08T09:07:03Z</time></trkpt><trkpt lat="51.60883590638559" lon="16.60168057768456"><ele>106.0</ele><time>2026-04-08T09:07:04Z</time></trkpt><trkpt lat="51.608954247086395" lon="16.60163638510163"><ele>106.0</ele><time>2026-04-08T09:07:05Z</time></trkpt><trkpt lat="51.60908126585937" lon="16.601640597866666"><ele>106.0</ele><time>2026-04-08T09:07:06Z</time></trkpt><trkpt lat="51.60920965879267" lon="16.60159917667723"><ele>106.0</ele><time>2026-04-08T09:07:07Z</time></trkpt><trkpt lat="51.609344712626" lon="16.60157939013073"><ele>106.0</ele><time>2026-04-08T09:07:08Z</time></trkpt><trkpt lat="51.60947773254841" lon="16.601549185700858"><ele>106.25</ele><time>2026-04-08T09:07:09Z</time></trkpt><trkpt lat="51.60960992227402" lon="16.60152094004924"><ele>106.5</ele><time>2026-04-08T09:07:10Z</time></trkpt><trkpt lat="51.609742269391624" lon="16.60150779842881"><ele>106.75</ele><time>2026-04-08T09:07:11Z</time></trkpt><trkpt lat="51.60987691995495" lon="16.601467939561317"><ele>107.0</ele><time>2026-04-08T09:07:12Z</time></trkpt><trkpt lat="51.61000745555507" lon="16.60144756744439"><ele>107.0</ele><time>2026-04-08T09:07:13Z</time></trkpt><trkpt lat="51.610144886281574" lon="16.601445871396653"><ele>107.0</ele><time>2026-04-08T09:07:14Z</time></trkpt><trkpt lat="51.61028451187339" lon="16.601398154899456"><ele>107.0</ele><time>2026-04-08T09:07:15Z</time></trkpt><trkpt lat="51.610427828914396" lon="16.601372534943486"><ele>107.0</ele><time>2026-04-08T09:07:16Z</time></trkpt><trkpt lat="51.610566912221394" lon="16.601374563097895"><ele>107.75</ele><time>2026-04-08T09:07:17Z</time></trkpt><trkpt lat="51.61070222774499" lon="16.601351587772964"><ele>108.5</ele><time>2026-04-08T09:07:18Z</time></trkpt><trkpt lat="51.6108430751452" lon="16.601327510137608"><ele>109.25</ele><time>2026-04-08T09:07:19Z</time></trkpt><trkpt lat="51.61098095703315" lon="16.601278423430077"><ele>110.0</ele><time>2026-04-08T09:07:20Z</time></trkpt><trkpt lat="51.61112234238924" lon="16.601257041544"><ele>111.25</ele><time>2026-04-08T09:07:20.999Z</time></trkpt><trkpt lat="51.61125975163623" lon="16.601234637074494"><ele>112.5</ele><time>2026-04-08T09:07:21.999Z</time></trkpt><trkpt lat="51.611393844981365" lon="16.601202443966557"><ele>113.75</ele><time>2026-04-08T09:07:22.999Z</time></trkpt><trkpt lat="51.61152878161173" lon="16.60117406881034"><ele>115.0</ele><time>2026-04-08T09:07:23.999Z</time></trkpt><trkpt lat="51.61166494503166" lon="16.601159564274674"><ele>115.0</ele><time>2026-04-08T09:07:24.999Z</time></trkpt><trkpt lat="51.61180149421587" lon="16.60113375158776"><ele>115.0</ele><time>2026-04-08T09:07:25.999Z</time></trkpt><trkpt lat="51.611943469867995" lon="16.601140032128633"><ele>115.0</ele><time>2026-04-08T09:07:27Z</time></trkpt><trkpt lat="51.61208258041976" lon="16.60112820919057"><ele>115.0</ele><time>2026-04-08T09:07:27.999Z</time></trkpt><trkpt lat="51.61222542864602" lon="16.601116632252687"><ele>117.33333333333334</ele><time>2026-04-08T09:07:28.999Z</time></trkpt><trkpt lat="51.61236682487671" lon="16.601103434727726"><ele>119.66666666666666</ele><time>2026-04-08T09:07:29.999Z</time></trkpt><trkpt lat="51.612522569430304" lon="16.60108147912252"><ele>122.0</ele><time>2026-04-08T09:07:30.999Z</time></trkpt><trkpt lat="51.61267256233008" lon="16.60104605944853"><ele>122.0</ele><time>2026-04-08T09:07:31.999Z</time></trkpt><trkpt lat="51.61280998999111" lon="16.601012463027978"><ele>122.0</ele><time>2026-04-08T09:07:32.999Z</time></trkpt><trkpt lat="51.61294612810624" lon="16.6009877550371"><ele>122.0</ele><time>2026-04-08T09:07:33.999Z</time></trkpt><trkpt lat="51.6130936591704" lon="16.600982805839614"><ele>122.0</ele><time>2026-04-08T09:07:34.999Z</time></trkpt><trkpt lat="51.613234382951184" lon="16.600989792758384"><ele>121.25</ele><time>2026-04-08T09:07:35.999Z</time></trkpt><trkpt lat="51.613368058451584" lon="16.601004095322743"><ele>120.5</ele><time>2026-04-08T09:07:36.999Z</time></trkpt><trkpt lat="51.613482142735904" lon="16.6010221580627"><ele>119.75</ele><time>2026-04-08T09:07:37.999Z</time></trkpt><trkpt lat="51.613593641775765" lon="16.601046780102894"><ele>119.0</ele><time>2026-04-08T09:07:38.999Z</time></trkpt><trkpt lat="51.61370616636408" lon="16.601081177564947"><ele>119.0</ele><time>2026-04-08T09:07:39.999Z</time></trkpt><trkpt lat="51.61380591593327" lon="16.601129021791444"><ele>119.0</ele><time>2026-04-08T09:07:40.999Z</time></trkpt><trkpt lat="51.61391688706885" lon="16.601211768169133"><ele>119.0</ele><time>2026-04-08T09:07:41.999Z</time></trkpt><trkpt lat="51.61404384612319" lon="16.60128479015699"><ele>119.0</ele><time>2026-04-08T09:07:42.999Z</time></trkpt><trkpt lat="51.61418031959567" lon="16.6013939956618"><ele>119.25</ele><time>2026-04-08T09:07:43.999Z</time></trkpt><trkpt lat="51.61431141615919" lon="16.601443004188656"><ele>119.5</ele><time>2026-04-08T09:07:44.999Z</time></trkpt><trkpt lat="51.61443212910803" lon="16.601503361905337"><ele>119.75</ele><time>2026-04-08T09:07:45.999Z</time></trkpt><trkpt lat="51.614549953389144" lon="16.601556673723483"><ele>120.0</ele><time>2026-04-08T09:07:46.999Z</time></trkpt><trkpt lat="51.614672521319655" lon="16.60161669936199"><ele>120.0</ele><time>2026-04-08T09:07:47.999Z</time></trkpt><trkpt lat="51.61479634397246" lon="16.601698881534702"><ele>120.0</ele><time>2026-04-08T09:07:48.999Z</time></trkpt><trkpt lat="51.61491758580732" lon="16.60173314806018"><ele>120.0</ele><time>2026-04-08T09:07:49.999Z</time></trkpt><trkpt lat="51.615032001827295" lon="16.601786868472374"><ele>120.0</ele><time>2026-04-08T09:07:50.999Z</time></trkpt><trkpt lat="51.61513235045034" lon="16.601835682058894"><ele>120.0</ele><time>2026-04-08T09:07:51.999Z</time></trkpt><trkpt lat="51.6152311492203" lon="16.601886933570352"><ele>120.0</ele><time>2026-04-08T09:07:52.999Z</time></trkpt><trkpt lat="51.615344762682646" lon="16.601940907942"><ele>120.0</ele><time>2026-04-08T09:07:53.999Z</time></trkpt><trkpt lat="51.615469593069164" lon="16.60198751074408"><ele>120.0</ele><time>2026-04-08T09:07:54.999Z</time></trkpt><trkpt lat="51.615599096408374" lon="16.602033285826682"><ele>121.66666666666666</ele><time>2026-04-08T09:07:55.999Z</time></trkpt><trkpt lat="51.615766413203204" lon="16.60212907408199"><ele>123.33333333333333</ele><time>2026-04-08T09:07:56.999Z</time></trkpt><trkpt lat="51.61592095333592" lon="16.60220895730269"><ele>125.0</ele><time>2026-04-08T09:07:57.999Z</time></trkpt><trkpt lat="51.61606749718917" lon="16.60228605701776"><ele>125.0</ele><time>2026-04-08T09:07:58.999Z</time></trkpt><trkpt lat="51.616192285630596" lon="16.60235390655448"><ele>125.0</ele><time>2026-04-08T09:07:59.999Z</time></trkpt><trkpt lat="51.61630258200247" lon="16.602413876521393"><ele>125.0</ele><time>2026-04-08T09:08:00.999Z</time></trkpt><trkpt lat="51.616408448834406" lon="16.60245299009101"><ele>125.0</ele><time>2026-04-08T09:08:01.999Z</time></trkpt><trkpt lat="51.616484936378136" lon="16.602512723742834"><ele>125.0</ele><time>2026-04-08T09:08:02.999Z</time></trkpt><trkpt lat="51.616584443618706" lon="16.602542700534634"><ele>125.0</ele><time>2026-04-08T09:08:04.999Z</time></trkpt><trkpt lat="51.61664428982916" lon="16.60259755072108"><ele>125.0</ele><time>2026-04-08T09:08:33Z</time></trkpt><trkpt lat="51.616723082529354" lon="16.60262108489599"><ele>125.0</ele><time>2026-04-08T09:08:34Z</time></trkpt><trkpt lat="51.61681796823156" lon="16.602666720522937"><ele>125.0</ele><time>2026-04-08T09:08:35Z</time></trkpt><trkpt lat="51.61692928644479" lon="16.602717460367824"><ele>125.0</ele><time>2026-04-08T09:08:36Z</time></trkpt><trkpt lat="51.6170540038896" lon="16.602768851153623"><ele>125.0</ele><time>2026-04-08T09:08:37Z</time></trkpt><trkpt lat="51.617193795228125" lon="16.602823115396024"><ele>125.0</ele><time>2026-04-08T09:08:38Z</time></trkpt><trkpt lat="51.61733817249924" lon="16.60286738168075"><ele>125.0</ele><time>2026-04-08T09:08:39Z</time></trkpt><trkpt lat="51.61748387652148" lon="16.60294748857243"><ele>125.0</ele><time>2026-04-08T09:08:40Z</time></trkpt><trkpt lat="51.617631603564945" lon="16.603022359558665"><ele>125.25</ele><time>2026-04-08T09:08:41Z</time></trkpt><trkpt lat="51.61774731836741" lon="16.603068617309113"><ele>125.5</ele><time>2026-04-08T09:08:42Z</time></trkpt><trkpt lat="51.61785904673903" lon="16.603148963839484"><ele>125.75</ele><time>2026-04-08T09:08:43Z</time></trkpt><trkpt lat="51.61798477580839" lon="16.60321314836712"><ele>126.0</ele><time>2026-04-08T09:08:44Z</time></trkpt><trkpt lat="51.61810334352228" lon="16.603281420849445"><ele>126.0</ele><time>2026-04-08T09:08:45Z</time></trkpt><trkpt lat="51.618219312117844" lon="16.60335025555291"><ele>126.0</ele><time>2026-04-08T09:08:46Z</time></trkpt><trkpt lat="51.61831973157292" lon="16.60340986104302"><ele>126.0</ele><time>2026-04-08T09:08:47Z</time></trkpt><trkpt lat="51.61842101537308" lon="16.603469979555694"><ele>126.0</ele><time>2026-04-08T09:08:48Z</time></trkpt><trkpt lat="51.61855621162449" lon="16.603451989616108"><ele>126.5</ele><time>2026-04-08T09:08:49Z</time></trkpt><trkpt lat="51.61867183467767" lon="16.603501951273707"><ele>127.0</ele><time>2026-04-08T09:08:50Z</time></trkpt><trkpt lat="51.618808288113875" lon="16.60355208859618"><ele>127.5</ele><time>2026-04-08T09:08:51Z</time></trkpt><trkpt lat="51.618944643130476" lon="16.603611568746786"><ele>128.0</ele><time>2026-04-08T09:08:52Z</time></trkpt><trkpt lat="51.61908661836502" lon="16.603681205699136"><ele>128.0</ele><time>2026-04-08T09:08:53Z</time></trkpt><trkpt lat="51.61923067579858" lon="16.603753410617614"><ele>128.0</ele><time>2026-04-08T09:08:54Z</time></trkpt><trkpt lat="51.619366295013556" lon="16.60379605572929"><ele>128.0</ele><time>2026-04-08T09:08:55Z</time></trkpt><trkpt lat="51.619502120624155" lon="16.603842207532104"><ele>128.0</ele><time>2026-04-08T09:08:56Z</time></trkpt><trkpt lat="51.61964897341665" lon="16.603896602478965"><ele>128.0</ele><time>2026-04-08T09:08:57Z</time></trkpt><trkpt lat="51.61974999631975" lon="16.603942098787115"><ele>128.0</ele><time>2026-04-08T09:08:58Z</time></trkpt><trkpt lat="51.6198555369135" lon="16.603967515208982"><ele>128.0</ele><time>2026-04-08T09:08:59Z</time></trkpt><trkpt lat="51.61997338535745" lon="16.60401184157924"><ele>128.0</ele><time>2026-04-08T09:09:00Z</time></trkpt><trkpt lat="51.62008816287696" lon="16.604026591028784"><ele>128.0</ele><time>2026-04-08T09:09:01Z</time></trkpt><trkpt lat="51.620204660838674" lon="16.60403590944769"><ele>128.0</ele><time>2026-04-08T09:09:02Z</time></trkpt><trkpt lat="51.62034775915775" lon="16.604039976649812"><ele>128.0</ele><time>2026-04-08T09:09:03Z</time></trkpt><trkpt lat="51.62047970613263" lon="16.60404261660681"><ele>128.0</ele><time>2026-04-08T09:09:04Z</time></trkpt><trkpt lat="51.62061128843543" lon="16.604039982712006"><ele>128.0</ele><time>2026-04-08T09:09:05Z</time></trkpt><trkpt lat="51.62073529122634" lon="16.60402117834846"><ele>128.0</ele><time>2026-04-08T09:09:06Z</time></trkpt><trkpt lat="51.620870780931334" lon="16.604026567642656"><ele>128.0</ele><time>2026-04-08T09:09:07Z</time></trkpt><trkpt lat="51.62099958034317" lon="16.60404546113715"><ele>128.0</ele><time>2026-04-08T09:09:08Z</time></trkpt><trkpt lat="51.62112452345097" lon="16.604029866471585"><ele>128.0</ele><time>2026-04-08T09:09:09Z</time></trkpt><trkpt lat="51.62124444996118" lon="16.604023281249674"><ele>128.75</ele><time>2026-04-08T09:09:10Z</time></trkpt><trkpt lat="51.62137503334075" lon="16.604023358198763"><ele>129.5</ele><time>2026-04-08T09:09:11Z</time></trkpt><trkpt lat="51.62149834785754" lon="16.604026978255128"><ele>130.25</ele><time>2026-04-08T09:09:12Z</time></trkpt><trkpt lat="51.62161513462198" lon="16.6040512532847"><ele>131.0</ele><time>2026-04-08T09:09:13Z</time></trkpt><trkpt lat="51.62172822297632" lon="16.6040625210769"><ele>131.0</ele><time>2026-04-08T09:09:14Z</time></trkpt><trkpt lat="51.62184134337875" lon="16.604045057762654"><ele>131.0</ele><time>2026-04-08T09:09:15Z</time></trkpt><trkpt lat="51.62194247352933" lon="16.60404564224106"><ele>131.0</ele><time>2026-04-08T09:09:16Z</time></trkpt><trkpt lat="51.62203298781948" lon="16.604002844877"><ele>131.0</ele><time>2026-04-08T09:09:17Z</time></trkpt><trkpt lat="51.62212923152374" lon="16.603958902052018"><ele>131.0</ele><time>2026-04-08T09:09:18Z</time></trkpt><trkpt lat="51.622233886580666" lon="16.60395292460509"><ele>130.4</ele><time>2026-04-08T09:09:19Z</time></trkpt><trkpt lat="51.6223328629354" lon="16.603943423859185"><ele>129.8</ele><time>2026-04-08T09:09:20Z</time></trkpt><trkpt lat="51.62243020885926" lon="16.60394285105383"><ele>129.20000000000002</ele><time>2026-04-08T09:09:21Z</time></trkpt><trkpt lat="51.62251350405215" lon="16.603943375128623"><ele>128.6</ele><time>2026-04-08T09:09:22Z</time></trkpt><trkpt lat="51.622607957706315" lon="16.603951451355282"><ele>128.0</ele><time>2026-04-08T09:09:23Z</time></trkpt><trkpt lat="51.62269483599716" lon="16.603936659042684"><ele>128.0</ele><time>2026-04-08T09:09:24Z</time></trkpt><trkpt lat="51.62278819932297" lon="16.60394494937341"><ele>128.0</ele><time>2026-04-08T09:09:25Z</time></trkpt><trkpt lat="51.6228787842088" lon="16.60392160841936"><ele>128.0</ele><time>2026-04-08T09:09:26Z</time></trkpt><trkpt lat="51.622975495665926" lon="16.60388727279353"><ele>128.0</ele><time>2026-04-08T09:09:27Z</time></trkpt><trkpt lat="51.62307567512418" lon="16.603876752947556"><ele>128.0</ele><time>2026-04-08T09:09:28Z</time></trkpt><trkpt lat="51.62317758956155" lon="16.60389113422119"><ele>126.2</ele><time>2026-04-08T09:09:29Z</time></trkpt><trkpt lat="51.62327232253392" lon="16.60393358954726"><ele>124.4</ele><time>2026-04-08T09:09:30Z</time></trkpt><trkpt lat="51.623379882820515" lon="16.6039509214621"><ele>122.60000000000001</ele><time>2026-04-08T09:09:31Z</time></trkpt><trkpt lat="51.6234918071181" lon="16.603973100718022"><ele>120.80000000000001</ele><time>2026-04-08T09:09:32Z</time></trkpt><trkpt lat="51.62361533039615" lon="16.604010267755218"><ele>119.0</ele><time>2026-04-08T09:09:33Z</time></trkpt><trkpt lat="51.62372791202732" lon="16.604045582239415"><ele>118.80000000000001</ele><time>2026-04-08T09:09:34Z</time></trkpt><trkpt lat="51.62381889167319" lon="16.604068704405808"><ele>118.60000000000001</ele><time>2026-04-08T09:09:35Z</time></trkpt><trkpt lat="51.62390931514584" lon="16.604108717635906"><ele>118.4</ele><time>2026-04-08T09:09:36Z</time></trkpt><trkpt lat="51.62401416367235" lon="16.604154486231653"><ele>118.2</ele><time>2026-04-08T09:09:37Z</time></trkpt><trkpt lat="51.62412362546256" lon="16.604196046994144"><ele>118.0</ele><time>2026-04-08T09:09:38Z</time></trkpt><trkpt lat="51.62423098570844" lon="16.604253523912543"><ele>118.0</ele><time>2026-04-08T09:09:39Z</time></trkpt><trkpt lat="51.62434666744065" lon="16.604289050477323"><ele>118.0</ele><time>2026-04-08T09:09:40Z</time></trkpt><trkpt lat="51.62446252239138" lon="16.604341600856177"><ele>118.0</ele><time>2026-04-08T09:09:41Z</time></trkpt><trkpt lat="51.62458632431709" lon="16.60438819937297"><ele>118.0</ele><time>2026-04-08T09:09:42Z</time></trkpt><trkpt lat="51.6247072022661" lon="16.6044205510999"><ele>117.80000000000001</ele><time>2026-04-08T09:09:43Z</time></trkpt><trkpt lat="51.62481487094592" lon="16.60446309858185"><ele>117.60000000000001</ele><time>2026-04-08T09:09:44Z</time></trkpt><trkpt lat="51.6249168273948" lon="16.604492788454706"><ele>117.39999999999999</ele><time>2026-04-08T09:09:45Z</time></trkpt><trkpt lat="51.625019868113455" lon="16.604514445393693"><ele>117.19999999999999</ele><time>2026-04-08T09:09:46Z</time></trkpt><trkpt lat="51.625115654081405" lon="16.604527158145"><ele>117.0</ele><time>2026-04-08T09:09:47Z</time></trkpt><trkpt lat="51.62521136072328" lon="16.604538940896152"><ele>117.0</ele><time>2026-04-08T09:09:48Z</time></trkpt><trkpt lat="51.625307482042956" lon="16.604567817083495"><ele>116.99999999999999</ele><time>2026-04-08T09:09:49Z</time></trkpt><trkpt lat="51.62539851446011" lon="16.604602378101053"><ele>116.99999999999999</ele><time>2026-04-08T09:09:50Z</time></trkpt><trkpt lat="51.625483658499945" lon="16.604636552212096"><ele>117.0</ele><time>2026-04-08T09:09:51Z</time></trkpt><trkpt lat="51.62556937912543" lon="16.60468014079776"><ele>117.0</ele><time>2026-04-08T09:09:52Z</time></trkpt><trkpt lat="51.62565500257146" lon="16.60471648512621"><ele>117.0</ele><time>2026-04-08T09:09:53Z</time></trkpt><trkpt lat="51.625742404523464" lon="16.60475907884196"><ele>116.99999999999999</ele><time>2026-04-08T09:09:54Z</time></trkpt><trkpt lat="51.625837059794144" lon="16.604798195128865"><ele>116.99999999999999</ele><time>2026-04-08T09:09:55Z</time></trkpt><trkpt lat="51.62593311389922" lon="16.60482686033891"><ele>117.0</ele><time>2026-04-08T09:09:56Z</time></trkpt><trkpt lat="51.62601714700715" lon="16.604868103318008"><ele>117.0</ele><time>2026-04-08T09:09:57Z</time></trkpt><trkpt lat="51.62609715439009" lon="16.604910017806993"><ele>117.0</ele><time>2026-04-08T09:09:58Z</time></trkpt><trkpt lat="51.62616290131349" lon="16.604951418682166"><ele>116.99999999999999</ele><time>2026-04-08T09:09:59Z</time></trkpt><trkpt lat="51.626271557648835" lon="16.605044751897506"><ele>116.99999999999999</ele><time>2026-04-08T09:10:01Z</time></trkpt><trkpt lat="51.62635254835694" lon="16.605197271783666"><ele>117.0</ele><time>2026-04-08T09:10:03Z</time></trkpt><trkpt lat="51.62638917026233" lon="16.605336347309642"><ele>117.0</ele><time>2026-04-08T09:10:05Z</time></trkpt><trkpt lat="51.62645339457128" lon="16.605338127729848"><ele>117.16666666666667</ele><time>2026-04-08T09:10:22Z</time></trkpt><trkpt lat="51.626462567431076" lon="16.605211283375997"><ele>117.33333333333334</ele><time>2026-04-08T09:10:24Z</time></trkpt><trkpt lat="51.62642668098431" lon="16.60511870163863"><ele>117.5</ele><time>2026-04-08T09:10:25Z</time></trkpt><trkpt lat="51.62639025185744" lon="16.60501297617067"><ele>117.66666666666667</ele><time>2026-04-08T09:10:26Z</time></trkpt><trkpt lat="51.62637366003074" lon="16.60490193524186"><ele>117.83333333333334</ele><time>2026-04-08T09:10:27Z</time></trkpt><trkpt lat="51.62638503071897" lon="16.60477204097526"><ele>118.0</ele><time>2026-04-08T09:10:28Z</time></trkpt><trkpt lat="51.626383366019084" lon="16.604625434830638"><ele>117.80000000000001</ele><time>2026-04-08T09:10:29Z</time></trkpt><trkpt lat="51.62638515083287" lon="16.604460474901312"><ele>117.60000000000001</ele><time>2026-04-08T09:10:30Z</time></trkpt><trkpt lat="51.62638719361424" lon="16.604285712495972"><ele>117.39999999999999</ele><time>2026-04-08T09:10:31Z</time></trkpt><trkpt lat="51.626382422827184" lon="16.604104929528017"><ele>117.19999999999999</ele><time>2026-04-08T09:10:32Z</time></trkpt><trkpt lat="51.626383765407134" lon="16.603923862849186"><ele>117.0</ele><time>2026-04-08T09:10:33Z</time></trkpt><trkpt lat="51.626389097462706" lon="16.603738920216202"><ele>117.25</ele><time>2026-04-08T09:10:34Z</time></trkpt><trkpt lat="51.62638114871493" lon="16.60355539355349"><ele>117.5</ele><time>2026-04-08T09:10:35Z</time></trkpt><trkpt lat="51.62637770185211" lon="16.603359869215453"><ele>117.75</ele><time>2026-04-08T09:10:36Z</time></trkpt><trkpt lat="51.62637776369151" lon="16.603162518637905"><ele>118.0</ele><time>2026-04-08T09:10:37Z</time></trkpt><trkpt lat="51.62638547164896" lon="16.602954324387703"><ele>118.0</ele><time>2026-04-08T09:10:38Z</time></trkpt><trkpt lat="51.626378503477405" lon="16.602741053337688"><ele>118.0</ele><time>2026-04-08T09:10:39Z</time></trkpt><trkpt lat="51.62637568076468" lon="16.602536538266307"><ele>118.0</ele><time>2026-04-08T09:10:40Z</time></trkpt><trkpt lat="51.626377696258245" lon="16.602332304709428"><ele>118.0</ele><time>2026-04-08T09:10:41Z</time></trkpt><trkpt lat="51.62638150409325" lon="16.60214266205993"><ele>118.16666666666667</ele><time>2026-04-08T09:10:42Z</time></trkpt><trkpt lat="51.626388289727686" lon="16.601987575349288"><ele>118.33333333333334</ele><time>2026-04-08T09:10:43Z</time></trkpt><trkpt lat="51.62639009695114" lon="16.6018747449017"><ele>118.5</ele><time>2026-04-08T09:10:44Z</time></trkpt><trkpt lat="51.62644734413492" lon="16.601742027692566"><ele>118.66666666666666</ele><time>2026-04-08T09:10:46Z</time></trkpt><trkpt lat="51.626547189936" lon="16.60175416788917"><ele>118.83333333333333</ele><time>2026-04-08T09:10:48Z</time></trkpt><trkpt lat="51.62662795048967" lon="16.60174070747537"><ele>119.0</ele><time>2026-04-08T09:10:49Z</time></trkpt><trkpt lat="51.626725986486775" lon="16.601714233043452"><ele>119.0</ele><time>2026-04-08T09:10:50Z</time></trkpt><trkpt lat="51.62683007355568" lon="16.601685868529874"><ele>119.0</ele><time>2026-04-08T09:10:51Z</time></trkpt><trkpt lat="51.62693397514263" lon="16.601655032006132"><ele>119.0</ele><time>2026-04-08T09:10:52Z</time></trkpt><trkpt lat="51.62701423169971" lon="16.60161234328689"><ele>119.0</ele><time>2026-04-08T09:10:53Z</time></trkpt><trkpt lat="51.627103080059285" lon="16.601579710713395"><ele>119.0</ele><time>2026-04-08T09:10:55Z</time></trkpt><trkpt lat="51.62716958588583" lon="16.601537889836813"><ele>118.99999999999999</ele><time>2026-04-08T09:11:11Z</time></trkpt><trkpt lat="51.627240679297834" lon="16.60152607958837"><ele>119.0</ele><time>2026-04-08T09:11:12Z</time></trkpt><trkpt lat="51.62733192119896" lon="16.601501737090572"><ele>119.0</ele><time>2026-04-08T09:11:13Z</time></trkpt><trkpt lat="51.62741536399" lon="16.601435981273127"><ele>119.0</ele><time>2026-04-08T09:11:14Z</time></trkpt><trkpt lat="51.62748099490204" lon="16.601327315115018"><ele>118.99999999999999</ele><time>2026-04-08T09:11:15Z</time></trkpt><trkpt lat="51.627550099045784" lon="16.60124572112658"><ele>119.0</ele><time>2026-04-08T09:11:16Z</time></trkpt><trkpt lat="51.627631744842475" lon="16.60120341925344"><ele>119.0</ele><time>2026-04-08T09:11:17Z</time></trkpt><trkpt lat="51.62771923289511" lon="16.601195181029965"><ele>119.0</ele><time>2026-04-08T09:11:18Z</time></trkpt><trkpt lat="51.62781758391422" lon="16.601211957461015"><ele>119.0</ele><time>2026-04-08T09:11:19Z</time></trkpt><trkpt lat="51.62792841007388" lon="16.601215720921846"><ele>119.0</ele><time>2026-04-08T09:11:20Z</time></trkpt><trkpt lat="51.628051170983" lon="16.601218105451668"><ele>119.0</ele><time>2026-04-08T09:11:21Z</time></trkpt><trkpt lat="51.62817924471357" lon="16.601211098200437"><ele>119.0</ele><time>2026-04-08T09:11:22Z</time></trkpt><trkpt lat="51.62831151827249" lon="16.60122639215581"><ele>119.0</ele><time>2026-04-08T09:11:23Z</time></trkpt><trkpt lat="51.6284460950331" lon="16.601220638999603"><ele>119.0</ele><time>2026-04-08T09:11:24Z</time></trkpt><trkpt lat="51.6285721754915" lon="16.601222906147587"><ele>119.0</ele><time>2026-04-08T09:11:25Z</time></trkpt><trkpt lat="51.628689519103624" lon="16.601244275070666"><ele>119.25</ele><time>2026-04-08T09:11:26Z</time></trkpt><trkpt lat="51.62881402285028" lon="16.601237513771455"><ele>119.5</ele><time>2026-04-08T09:11:27Z</time></trkpt><trkpt lat="51.628944065135954" lon="16.60124276056098"><ele>119.75</ele><time>2026-04-08T09:11:28Z</time></trkpt><trkpt lat="51.629074582752814" lon="16.601229406248038"><ele>120.0</ele><time>2026-04-08T09:11:29Z</time></trkpt><trkpt lat="51.629205182480874" lon="16.601236071532014"><ele>120.0</ele><time>2026-04-08T09:11:30Z</time></trkpt><trkpt lat="51.6293296821666" lon="16.601222569015267"><ele>120.0</ele><time>2026-04-08T09:11:31Z</time></trkpt><trkpt lat="51.6294591908211" lon="16.60119615784723"><ele>120.0</ele><time>2026-04-08T09:11:32Z</time></trkpt><trkpt lat="51.62959819716341" lon="16.60116657663599"><ele>120.0</ele><time>2026-04-08T09:11:33Z</time></trkpt><trkpt lat="51.62974557515165" lon="16.6011191679445"><ele>120.0</ele><time>2026-04-08T09:11:34Z</time></trkpt><trkpt lat="51.62988262087341" lon="16.601044509210297"><ele>120.0</ele><time>2026-04-08T09:11:35Z</time></trkpt><trkpt lat="51.630009939529074" lon="16.600942622045746"><ele>120.0</ele><time>2026-04-08T09:11:36Z</time></trkpt><trkpt lat="51.63014062222787" lon="16.60083671842256"><ele>120.0</ele><time>2026-04-08T09:11:37Z</time></trkpt><trkpt lat="51.63026595240155" lon="16.600718458940783"><ele>120.25</ele><time>2026-04-08T09:11:38Z</time></trkpt><trkpt lat="51.63038805306663" lon="16.60063577010006"><ele>120.5</ele><time>2026-04-08T09:11:39Z</time></trkpt><trkpt lat="51.630508299542534" lon="16.600564468604357"><ele>120.75</ele><time>2026-04-08T09:11:40Z</time></trkpt><trkpt lat="51.63062951662197" lon="16.60050037183356"><ele>121.0</ele><time>2026-04-08T09:11:41Z</time></trkpt><trkpt lat="51.630748554567894" lon="16.600450426573342"><ele>121.0</ele><time>2026-04-08T09:11:42Z</time></trkpt><trkpt lat="51.630867691740406" lon="16.6003928220187"><ele>121.0</ele><time>2026-04-08T09:11:43Z</time></trkpt><trkpt lat="51.631003483457995" lon="16.60035892560756"><ele>121.0</ele><time>2026-04-08T09:11:44Z</time></trkpt><trkpt lat="51.631145364876225" lon="16.600322422737722"><ele>121.0</ele><time>2026-04-08T09:11:45Z</time></trkpt><trkpt lat="51.63129517084802" lon="16.600262732585346"><ele>121.0</ele><time>2026-04-08T09:11:46Z</time></trkpt><trkpt lat="51.631431823558295" lon="16.600228017149114"><ele>121.0</ele><time>2026-04-08T09:11:47Z</time></trkpt><trkpt lat="51.63154842363828" lon="16.60020130062822"><ele>121.0</ele><time>2026-04-08T09:11:48Z</time></trkpt><trkpt lat="51.63165596118549" lon="16.600187637621616"><ele>121.0</ele><time>2026-04-08T09:11:49Z</time></trkpt><trkpt lat="51.63176659054394" lon="16.600164511647275"><ele>121.0</ele><time>2026-04-08T09:11:50Z</time></trkpt><trkpt lat="51.63188562563863" lon="16.60012889487061"><ele>121.0</ele><time>2026-04-08T09:11:51Z</time></trkpt><trkpt lat="51.6320050485999" lon="16.600084225281158"><ele>121.0</ele><time>2026-04-08T09:11:52Z</time></trkpt><trkpt lat="51.63212969063582" lon="16.600028232865093"><ele>121.0</ele><time>2026-04-08T09:11:53Z</time></trkpt><trkpt lat="51.63225702488625" lon="16.59996444602842"><ele>121.0</ele><time>2026-04-08T09:11:54Z</time></trkpt><trkpt lat="51.632387808183985" lon="16.59990808227586"><ele>121.0</ele><time>2026-04-08T09:11:55Z</time></trkpt><trkpt lat="51.63251991418807" lon="16.59985330377559"><ele>121.0</ele><time>2026-04-08T09:11:56Z</time></trkpt><trkpt lat="51.632654204672036" lon="16.599795551601503"><ele>121.0</ele><time>2026-04-08T09:11:57Z</time></trkpt><trkpt lat="51.632792378745584" lon="16.599737300878687"><ele>121.25</ele><time>2026-04-08T09:11:58Z</time></trkpt><trkpt lat="51.632930378795066" lon="16.599692839191956"><ele>121.5</ele><time>2026-04-08T09:11:59Z</time></trkpt><trkpt lat="51.63307607671625" lon="16.59964483061909"><ele>121.75</ele><time>2026-04-08T09:12:00Z</time></trkpt><trkpt lat="51.63321758141615" lon="16.59957940542261"><ele>122.0</ele><time>2026-04-08T09:12:01Z</time></trkpt><trkpt lat="51.63335750732554" lon="16.59955572329003"><ele>122.0</ele><time>2026-04-08T09:12:02Z</time></trkpt><trkpt lat="51.63348093406138" lon="16.59952248330868"><ele>122.0</ele><time>2026-04-08T09:12:03Z</time></trkpt><trkpt lat="51.633613509345" lon="16.599506553122257"><ele>122.0</ele><time>2026-04-08T09:12:04Z</time></trkpt><trkpt lat="51.63374622494018" lon="16.59949104203212"><ele>122.0</ele><time>2026-04-08T09:12:05Z</time></trkpt><trkpt lat="51.63389133922762" lon="16.59947825110183"><ele>122.0</ele><time>2026-04-08T09:12:06Z</time></trkpt><trkpt lat="51.63403530973309" lon="16.599466460523917"><ele>122.0</ele><time>2026-04-08T09:12:07Z</time></trkpt><trkpt lat="51.634184238107885" lon="16.599446648340457"><ele>122.0</ele><time>2026-04-08T09:12:08Z</time></trkpt><trkpt lat="51.6343334435314" lon="16.599420410808243"><ele>122.0</ele><time>2026-04-08T09:12:09Z</time></trkpt><trkpt lat="51.63447724042855" lon="16.59940552804975"><ele>122.25</ele><time>2026-04-08T09:12:10Z</time></trkpt><trkpt lat="51.634625007749754" lon="16.599388258131356"><ele>122.5</ele><time>2026-04-08T09:12:11.001Z</time></trkpt><trkpt lat="51.634772945763075" lon="16.599368515124663"><ele>122.75</ele><time>2026-04-08T09:12:12.001Z</time></trkpt><trkpt lat="51.63490991507118" lon="16.599351827165567"><ele>123.0</ele><time>2026-04-08T09:12:13.001Z</time></trkpt><trkpt lat="51.63504797586053" lon="16.599326377637933"><ele>123.0</ele><time>2026-04-08T09:12:14.001Z</time></trkpt><trkpt lat="51.63519277584366" lon="16.59929998803698"><ele>123.0</ele><time>2026-04-08T09:12:15.001Z</time></trkpt><trkpt lat="51.63532512817602" lon="16.599268497098493"><ele>123.0</ele><time>2026-04-08T09:12:16Z</time></trkpt><trkpt lat="51.63544199867189" lon="16.599239181232676"><ele>123.0</ele><time>2026-04-08T09:12:17Z</time></trkpt><trkpt lat="51.635550225117946" lon="16.599214213654022"><ele>123.5</ele><time>2026-04-08T09:12:18Z</time></trkpt><trkpt lat="51.63566181891687" lon="16.599194716693763"><ele>124.0</ele><time>2026-04-08T09:12:19Z</time></trkpt><trkpt lat="51.63577556788754" lon="16.5991899880961"><ele>124.5</ele><time>2026-04-08T09:12:20Z</time></trkpt><trkpt lat="51.63589487205083" lon="16.599185508176326"><ele>125.0</ele><time>2026-04-08T09:12:21Z</time></trkpt><trkpt lat="51.636020183478934" lon="16.59917825966398"><ele>124.75</ele><time>2026-04-08T09:12:22Z</time></trkpt><trkpt lat="51.63614903548788" lon="16.59918635261315"><ele>124.5</ele><time>2026-04-08T09:12:23Z</time></trkpt><trkpt lat="51.636273247400965" lon="16.599203391492683"><ele>124.25</ele><time>2026-04-08T09:12:24Z</time></trkpt><trkpt lat="51.6363774673933" lon="16.599212421354043"><ele>124.0</ele><time>2026-04-08T09:12:25Z</time></trkpt><trkpt lat="51.63647386157206" lon="16.599200458219737"><ele>124.0</ele><time>2026-04-08T09:12:26Z</time></trkpt><trkpt lat="51.636576984616084" lon="16.59918870994129"><ele>124.0</ele><time>2026-04-08T09:12:27Z</time></trkpt><trkpt lat="51.63667766420384" lon="16.599183045835982"><ele>124.0</ele><time>2026-04-08T09:12:28Z</time></trkpt><trkpt lat="51.63678421393349" lon="16.599206406036465"><ele>124.0</ele><time>2026-04-08T09:12:29Z</time></trkpt><trkpt lat="51.63689990587279" lon="16.59922218635105"><ele>124.0</ele><time>2026-04-08T09:12:30Z</time></trkpt><trkpt lat="51.63702901499615" lon="16.599219478912744"><ele>123.80000000000001</ele><time>2026-04-08T09:12:31Z</time></trkpt><trkpt lat="51.637156707529606" lon="16.59920102800444"><ele>123.60000000000001</ele><time>2026-04-08T09:12:32Z</time></trkpt><trkpt lat="51.63726353272474" lon="16.599174945391738"><ele>123.4</ele><time>2026-04-08T09:12:33Z</time></trkpt><trkpt lat="51.63734954215106" lon="16.599161036519025"><ele>123.2</ele><time>2026-04-08T09:12:34Z</time></trkpt><trkpt lat="51.63742439807624" lon="16.59914284005192"><ele>123.0</ele><time>2026-04-08T09:12:35Z</time></trkpt><trkpt lat="51.63750723874198" lon="16.599033266249613"><ele>123.0</ele><time>2026-04-08T09:12:37Z</time></trkpt><trkpt lat="51.63753813547064" lon="16.59893123446826"><ele>123.00000000000001</ele><time>2026-04-08T09:12:38Z</time></trkpt><trkpt lat="51.63759134153224" lon="16.59881187580486"><ele>123.00000000000001</ele><time>2026-04-08T09:12:39Z</time></trkpt><trkpt lat="51.63760815359306" lon="16.598654103271375"><ele>123.0</ele><time>2026-04-08T09:12:40Z</time></trkpt><trkpt lat="51.63761899402862" lon="16.59847885172488"><ele>123.0</ele><time>2026-04-08T09:12:41Z</time></trkpt><trkpt lat="51.637626309942796" lon="16.598288323171133"><ele>123.0</ele><time>2026-04-08T09:12:42Z</time></trkpt><trkpt lat="51.63761406671369" lon="16.598078990032064"><ele>123.0</ele><time>2026-04-08T09:12:43Z</time></trkpt><trkpt lat="51.637623314502754" lon="16.597846693039042"><ele>123.0</ele><time>2026-04-08T09:12:44Z</time></trkpt><trkpt lat="51.637632418726966" lon="16.597599917264258"><ele>123.0</ele><time>2026-04-08T09:12:45Z</time></trkpt><trkpt lat="51.63764475725978" lon="16.597340779824584"><ele>123.0</ele><time>2026-04-08T09:12:46Z</time></trkpt><trkpt lat="51.63765361687212" lon="16.59707118897104"><ele>123.0</ele><time>2026-04-08T09:12:47Z</time></trkpt><trkpt lat="51.637661845180574" lon="16.596822005559698"><ele>123.0</ele><time>2026-04-08T09:12:48Z</time></trkpt><trkpt lat="51.63765651194126" lon="16.5966078923375"><ele>122.5</ele><time>2026-04-08T09:12:49Z</time></trkpt><trkpt lat="51.63765086027731" lon="16.596405845955022"><ele>122.0</ele><time>2026-04-08T09:12:50Z</time></trkpt><trkpt lat="51.637642697122374" lon="16.596193701395205"><ele>121.5</ele><time>2026-04-08T09:12:51Z</time></trkpt><trkpt lat="51.63764022927926" lon="16.596001692276314"><ele>121.0</ele><time>2026-04-08T09:12:52Z</time></trkpt><trkpt lat="51.637640570130614" lon="16.59584351979416"><ele>121.19999999999999</ele><time>2026-04-08T09:12:53Z</time></trkpt><trkpt lat="51.6376389126087" lon="16.595705426874133"><ele>121.39999999999999</ele><time>2026-04-08T09:12:54Z</time></trkpt><trkpt lat="51.63764061246302" lon="16.595579667412732"><ele>121.6</ele><time>2026-04-08T09:12:56Z</time></trkpt><trkpt lat="51.63775875423314" lon="16.595636521269007"><ele>121.8</ele><time>2026-04-08T09:12:58Z</time></trkpt><trkpt lat="51.63789624854689" lon="16.59561743468518"><ele>122.0</ele><time>2026-04-08T09:13:00Z</time></trkpt><trkpt lat="51.63798961634721" lon="16.59560371301512"><ele>122.0</ele><time>2026-04-08T09:13:01Z</time></trkpt><trkpt lat="51.638098777825164" lon="16.59559868155524"><ele>121.99999999999999</ele><time>2026-04-08T09:13:02Z</time></trkpt><trkpt lat="51.63821039056431" lon="16.595618556561288"><ele>121.99999999999999</ele><time>2026-04-08T09:13:03Z</time></trkpt><trkpt lat="51.63829768311363" lon="16.595557082186073"><ele>122.0</ele><time>2026-04-08T09:13:04Z</time></trkpt><trkpt lat="51.63836015172782" lon="16.59548303044246"><ele>122.0</ele><time>2026-04-08T09:13:05Z</time></trkpt><trkpt lat="51.638415440273185" lon="16.595374807274535"><ele>121.39999999999999</ele><time>2026-04-08T09:13:06Z</time></trkpt><trkpt lat="51.638479885630026" lon="16.595270475291816"><ele>120.79999999999998</ele><time>2026-04-08T09:13:07Z</time></trkpt><trkpt lat="51.63854669959639" lon="16.5951611967618"><ele>120.2</ele><time>2026-04-08T09:13:08Z</time></trkpt><trkpt lat="51.63862845605198" lon="16.595094045041673"><ele>119.6</ele><time>2026-04-08T09:13:09Z</time></trkpt><trkpt lat="51.63871917409346" lon="16.59503134251608"><ele>119.0</ele><time>2026-04-08T09:13:10Z</time></trkpt><trkpt lat="51.63881691307616" lon="16.59497930997947"><ele>118.75</ele><time>2026-04-08T09:13:11Z</time></trkpt><trkpt lat="51.63892731142601" lon="16.594934109178585"><ele>118.5</ele><time>2026-04-08T09:13:12Z</time></trkpt><trkpt lat="51.6390463049353" lon="16.594902464818155"><ele>118.25</ele><time>2026-04-08T09:13:13Z</time></trkpt><trkpt lat="51.63916813819117" lon="16.59484346688626"><ele>118.0</ele><time>2026-04-08T09:13:14Z</time></trkpt><trkpt lat="51.63930213369023" lon="16.59481229096747"><ele>118.0</ele><time>2026-04-08T09:13:15Z</time></trkpt><trkpt lat="51.63944185992065" lon="16.594771042277653"><ele>118.0</ele><time>2026-04-08T09:13:16Z</time></trkpt><trkpt lat="51.639590132403356" lon="16.59475643628736"><ele>118.0</ele><time>2026-04-08T09:13:17Z</time></trkpt><trkpt lat="51.63972197604799" lon="16.59472183991183"><ele>118.0</ele><time>2026-04-08T09:13:18Z</time></trkpt><trkpt lat="51.639845619578026" lon="16.59468939528303"><ele>118.0</ele><time>2026-04-08T09:13:19Z</time></trkpt><trkpt lat="51.6399810441581" lon="16.594627787207934"><ele>118.0</ele><time>2026-04-08T09:13:20Z</time></trkpt><trkpt lat="51.64012552631197" lon="16.5945892673002"><ele>118.0</ele><time>2026-04-08T09:13:21Z</time></trkpt><trkpt lat="51.64027207016476" lon="16.594554167917728"><ele>118.0</ele><time>2026-04-08T09:13:22Z</time></trkpt><trkpt lat="51.64041674630174" lon="16.594539529022114"><ele>117.5</ele><time>2026-04-08T09:13:23Z</time></trkpt><trkpt lat="51.64055320242404" lon="16.594503722312865"><ele>117.0</ele><time>2026-04-08T09:13:24Z</time></trkpt><trkpt lat="51.640696511272445" lon="16.594447130253265"><ele>116.5</ele><time>2026-04-08T09:13:25Z</time></trkpt><trkpt lat="51.640843992222976" lon="16.594410913545758"><ele>116.0</ele><time>2026-04-08T09:13:26Z</time></trkpt><trkpt lat="51.64098097534802" lon="16.59437328722662"><ele>116.0</ele><time>2026-04-08T09:13:27Z</time></trkpt><trkpt lat="51.641103919495784" lon="16.59435710458016"><ele>116.0</ele><time>2026-04-08T09:13:28Z</time></trkpt><trkpt lat="51.64121797038691" lon="16.594329530328274"><ele>116.0</ele><time>2026-04-08T09:13:29Z</time></trkpt><trkpt lat="51.641326966401216" lon="16.59430885767226"><ele>116.0</ele><time>2026-04-08T09:13:30Z</time></trkpt><trkpt lat="51.641441192295176" lon="16.594269993826334"><ele>115.5</ele><time>2026-04-08T09:13:31Z</time></trkpt><trkpt lat="51.64156241074676" lon="16.59424984047526"><ele>115.0</ele><time>2026-04-08T09:13:32Z</time></trkpt><trkpt lat="51.64169344142046" lon="16.594214508777167"><ele>114.5</ele><time>2026-04-08T09:13:33Z</time></trkpt><trkpt lat="51.64182114148172" lon="16.594202467207"><ele>114.0</ele><time>2026-04-08T09:13:34Z</time></trkpt><trkpt lat="51.641934632409516" lon="16.5941558089269"><ele>113.5</ele><time>2026-04-08T09:13:35Z</time></trkpt><trkpt lat="51.64204243552372" lon="16.594129618332584"><ele>113.0</ele><time>2026-04-08T09:13:36Z</time></trkpt><trkpt lat="51.642150500118824" lon="16.594095156121412"><ele>112.5</ele><time>2026-04-08T09:13:37Z</time></trkpt><trkpt lat="51.642266500842766" lon="16.594060644850256"><ele>112.0</ele><time>2026-04-08T09:13:38Z</time></trkpt><trkpt lat="51.64238624442265" lon="16.594024868617108"><ele>112.0</ele><time>2026-04-08T09:13:39Z</time></trkpt><trkpt lat="51.642509710548715" lon="16.594000091990967"><ele>112.0</ele><time>2026-04-08T09:13:40Z</time></trkpt><trkpt lat="51.64263258423958" lon="16.593961192451847"><ele>112.0</ele><time>2026-04-08T09:13:41Z</time></trkpt><trkpt lat="51.64275814845669" lon="16.593960606301124"><ele>112.0</ele><time>2026-04-08T09:13:42Z</time></trkpt><trkpt lat="51.64288445369711" lon="16.593916346266617"><ele>111.75</ele><time>2026-04-08T09:13:43Z</time></trkpt><trkpt lat="51.64302173056139" lon="16.59392546871398"><ele>111.5</ele><time>2026-04-08T09:13:44Z</time></trkpt><trkpt lat="51.64315683111514" lon="16.59392102409483"><ele>111.25</ele><time>2026-04-08T09:13:45Z</time></trkpt><trkpt lat="51.64329631197633" lon="16.593924256956537"><ele>111.0</ele><time>2026-04-08T09:13:46Z</time></trkpt><trkpt lat="51.643430932825446" lon="16.593933490989453"><ele>111.0</ele><time>2026-04-08T09:13:47Z</time></trkpt><trkpt lat="51.64356502159796" lon="16.593950299389178"><ele>111.0</ele><time>2026-04-08T09:13:48Z</time></trkpt><trkpt lat="51.64370588328962" lon="16.59396661203488"><ele>111.0</ele><time>2026-04-08T09:13:49Z</time></trkpt><trkpt lat="51.643849565363" lon="16.59397757638075"><ele>111.0</ele><time>2026-04-08T09:13:50Z</time></trkpt><trkpt lat="51.64399814039556" lon="16.59398688394424"><ele>111.33333333333334</ele><time>2026-04-08T09:13:51Z</time></trkpt><trkpt lat="51.64414540681425" lon="16.593995888163978"><ele>111.66666666666667</ele><time>2026-04-08T09:13:52Z</time></trkpt><trkpt lat="51.64429540511194" lon="16.59400621272112"><ele>112.0</ele><time>2026-04-08T09:13:53Z</time></trkpt><trkpt lat="51.64445401125069" lon="16.594019801886407"><ele>112.66666666666667</ele><time>2026-04-08T09:13:54Z</time></trkpt><trkpt lat="51.64461203527663" lon="16.594039090641594"><ele>113.33333333333334</ele><time>2026-04-08T09:13:55Z</time></trkpt><trkpt lat="51.64477479132467" lon="16.59403555495301"><ele>114.0</ele><time>2026-04-08T09:13:56Z</time></trkpt><trkpt lat="51.64493475501927" lon="16.59405767844164"><ele>114.0</ele><time>2026-04-08T09:13:57Z</time></trkpt><trkpt lat="51.64508498304173" lon="16.594104793871892"><ele>114.0</ele><time>2026-04-08T09:13:58Z</time></trkpt><trkpt lat="51.64524516024002" lon="16.59413429959705"><ele>114.0</ele><time>2026-04-08T09:13:59Z</time></trkpt><trkpt lat="51.64540829593826" lon="16.59416125458786"><ele>114.33333333333334</ele><time>2026-04-08T09:14:00Z</time></trkpt><trkpt lat="51.645568933289475" lon="16.594186195681775"><ele>114.66666666666667</ele><time>2026-04-08T09:14:01Z</time></trkpt><trkpt lat="51.64572815572199" lon="16.59421856817694"><ele>115.0</ele><time>2026-04-08T09:14:02Z</time></trkpt><trkpt lat="51.64588948079444" lon="16.59425920855622"><ele>115.0</ele><time>2026-04-08T09:14:03Z</time></trkpt><trkpt lat="51.64605510630005" lon="16.59430256360488"><ele>115.0</ele><time>2026-04-08T09:14:04Z</time></trkpt><trkpt lat="51.646215692234726" lon="16.59434462848877"><ele>115.0</ele><time>2026-04-08T09:14:05Z</time></trkpt><trkpt lat="51.64635942607742" lon="16.594382281995443"><ele>115.0</ele><time>2026-04-08T09:14:06Z</time></trkpt><trkpt lat="51.64649657910764" lon="16.594418208610563"><ele>115.0</ele><time>2026-04-08T09:14:07Z</time></trkpt><trkpt lat="51.64664347470364" lon="16.59445682256575"><ele>115.0</ele><time>2026-04-08T09:14:08Z</time></trkpt><trkpt lat="51.646796943164425" lon="16.594496957131277"><ele>115.0</ele><time>2026-04-08T09:14:09Z</time></trkpt><trkpt lat="51.64695490642662" lon="16.594538141141232"><ele>115.66666666666667</ele><time>2026-04-08T09:14:10Z</time></trkpt><trkpt lat="51.647114036509066" lon="16.59458025445224"><ele>116.33333333333334</ele><time>2026-04-08T09:14:11Z</time></trkpt><trkpt lat="51.647280928584614" lon="16.594606649722813"><ele>117.0</ele><time>2026-04-08T09:14:12Z</time></trkpt><trkpt lat="51.64744510242736" lon="16.59467309433371"><ele>117.0</ele><time>2026-04-08T09:14:13Z</time></trkpt><trkpt lat="51.64761283238126" lon="16.594710064556434"><ele>117.0</ele><time>2026-04-08T09:14:14Z</time></trkpt><trkpt lat="51.64777534561791" lon="16.5947528623638"><ele>117.0</ele><time>2026-04-08T09:14:15Z</time></trkpt><trkpt lat="51.6479392231294" lon="16.5948333697308"><ele>117.0</ele><time>2026-04-08T09:14:16Z</time></trkpt><trkpt lat="51.6480823713827" lon="16.594853955650013"><ele>117.0</ele><time>2026-04-08T09:14:17.001Z</time></trkpt><trkpt lat="51.648217912164014" lon="16.594916352877146"><ele>117.0</ele><time>2026-04-08T09:14:18.001Z</time></trkpt><trkpt lat="51.6483650699858" lon="16.594960170948372"><ele>117.0</ele><time>2026-04-08T09:14:19.001Z</time></trkpt><trkpt lat="51.64851364189446" lon="16.595004074728188"><ele>117.33333333333334</ele><time>2026-04-08T09:14:20.001Z</time></trkpt><trkpt lat="51.64866838869267" lon="16.59504851119829"><ele>117.66666666666667</ele><time>2026-04-08T09:14:21.001Z</time></trkpt><trkpt lat="51.64881795382671" lon="16.59509127002058"><ele>118.0</ele><time>2026-04-08T09:14:22.001Z</time></trkpt><trkpt lat="51.64897125315698" lon="16.59513185950285"><ele>118.0</ele><time>2026-04-08T09:14:23.001Z</time></trkpt><trkpt lat="51.64911054093648" lon="16.595144379071257"><ele>118.0</ele><time>2026-04-08T09:14:24.001Z</time></trkpt><trkpt lat="51.649241481840015" lon="16.59519644005785"><ele>118.0</ele><time>2026-04-08T09:14:25.001Z</time></trkpt><trkpt lat="51.64937852375894" lon="16.595226888991753"><ele>118.0</ele><time>2026-04-08T09:14:26.001Z</time></trkpt><trkpt lat="51.649509090265404" lon="16.595253600029455"><ele>118.0</ele><time>2026-04-08T09:14:27.001Z</time></trkpt><trkpt lat="51.6496333123186" lon="16.595278710270453"><ele>118.0</ele><time>2026-04-08T09:14:28.001Z</time></trkpt><trkpt lat="51.64975291740463" lon="16.595277597846447"><ele>118.0</ele><time>2026-04-08T09:14:29.001Z</time></trkpt><trkpt lat="51.6498628943857" lon="16.595322800484098"><ele>118.0</ele><time>2026-04-08T09:14:30.001Z</time></trkpt><trkpt lat="51.64996606125711" lon="16.59531717255849"><ele>118.2</ele><time>2026-04-08T09:14:31.001Z</time></trkpt><trkpt lat="51.65005648058441" lon="16.595356330962588"><ele>118.4</ele><time>2026-04-08T09:14:32.001Z</time></trkpt><trkpt lat="51.650152477557086" lon="16.595375912147663"><ele>118.60000000000001</ele><time>2026-04-08T09:14:33.001Z</time></trkpt><trkpt lat="51.65025220663864" lon="16.595404325303836"><ele>118.80000000000001</ele><time>2026-04-08T09:14:34.001Z</time></trkpt><trkpt lat="51.65036726487758" lon="16.595415330279835"><ele>119.0</ele><time>2026-04-08T09:14:35.001Z</time></trkpt><trkpt lat="51.650493771413025" lon="16.59542111962275"><ele>119.0</ele><time>2026-04-08T09:14:36.001Z</time></trkpt><trkpt lat="51.650623406955525" lon="16.595462021848324"><ele>119.0</ele><time>2026-04-08T09:14:37.001Z</time></trkpt><trkpt lat="51.65074774070699" lon="16.59548492620692"><ele>119.0</ele><time>2026-04-08T09:14:38.001Z</time></trkpt><trkpt lat="51.650872147204815" lon="16.595508408836032"><ele>119.0</ele><time>2026-04-08T09:14:39.001Z</time></trkpt><trkpt lat="51.65099235892764" lon="16.595532001685523"><ele>118.99999999999999</ele><time>2026-04-08T09:14:40Z</time></trkpt><trkpt lat="51.651093605753175" lon="16.595525611418704"><ele>119.0</ele><time>2026-04-08T09:14:41Z</time></trkpt><trkpt lat="51.65118982834401" lon="16.595545308910474"><ele>119.0</ele><time>2026-04-08T09:14:42Z</time></trkpt><trkpt lat="51.65128349462972" lon="16.59558913213099"><ele>119.0</ele><time>2026-04-08T09:14:43Z</time></trkpt><trkpt lat="51.651363805180516" lon="16.59560653311898"><ele>118.99999999999999</ele><time>2026-04-08T09:14:44Z</time></trkpt><trkpt lat="51.6514283129972" lon="16.595600540822783"><ele>119.0</ele><time>2026-04-08T09:14:45Z</time></trkpt><trkpt lat="51.65149275978682" lon="16.595664165125314"><ele>118.80000000000001</ele><time>2026-04-08T09:14:47Z</time></trkpt><trkpt lat="51.65158599325371" lon="16.59569977523642"><ele>118.60000000000001</ele><time>2026-04-08T09:14:50Z</time></trkpt><trkpt lat="51.6516634521826" lon="16.59556287944659"><ele>118.4</ele><time>2026-04-08T09:14:51Z</time></trkpt><trkpt lat="51.65173393742429" lon="16.595472586947015"><ele>118.2</ele><time>2026-04-08T09:14:52Z</time></trkpt><trkpt lat="51.65181877597245" lon="16.595369924254292"><ele>118.0</ele><time>2026-04-08T09:14:53Z</time></trkpt><trkpt lat="51.65191730357858" lon="16.595264095524488"><ele>117.5</ele><time>2026-04-08T09:14:54Z</time></trkpt><trkpt lat="51.65202118354227" lon="16.595142730935102"><ele>117.0</ele><time>2026-04-08T09:14:55Z</time></trkpt><trkpt lat="51.65213008795721" lon="16.59500523783524"><ele>116.5</ele><time>2026-04-08T09:14:56Z</time></trkpt><trkpt lat="51.652246248864635" lon="16.594862524674397"><ele>116.0</ele><time>2026-04-08T09:14:57Z</time></trkpt><trkpt lat="51.652367995494245" lon="16.59471638889352"><ele>116.0</ele><time>2026-04-08T09:14:58Z</time></trkpt><trkpt lat="51.65249309957773" lon="16.594582816036613"><ele>116.0</ele><time>2026-04-08T09:14:59Z</time></trkpt><trkpt lat="51.65262719963764" lon="16.59447560580307"><ele>116.0</ele><time>2026-04-08T09:15:00Z</time></trkpt><trkpt lat="51.65278438658074" lon="16.594420193810606"><ele>115.66666666666666</ele><time>2026-04-08T09:15:01Z</time></trkpt><trkpt lat="51.65292989206038" lon="16.594349507102635"><ele>115.33333333333334</ele><time>2026-04-08T09:15:02Z</time></trkpt><trkpt lat="51.653066301470915" lon="16.59426788057319"><ele>115.0</ele><time>2026-04-08T09:15:03Z</time></trkpt><trkpt lat="51.653216337821675" lon="16.594180417191478"><ele>115.0</ele><time>2026-04-08T09:15:04Z</time></trkpt><trkpt lat="51.65337589915023" lon="16.594106018259513"><ele>115.0</ele><time>2026-04-08T09:15:05Z</time></trkpt><trkpt lat="51.653520826343815" lon="16.593993664879264"><ele>115.0</ele><time>2026-04-08T09:15:06Z</time></trkpt><trkpt lat="51.653653378477486" lon="16.593852249069943"><ele>114.75</ele><time>2026-04-08T09:15:07Z</time></trkpt><trkpt lat="51.65378028147406" lon="16.593732958174957"><ele>114.5</ele><time>2026-04-08T09:15:08Z</time></trkpt><trkpt lat="51.65389077251228" lon="16.593632488981783"><ele>114.25</ele><time>2026-04-08T09:15:09Z</time></trkpt><trkpt lat="51.653995197988216" lon="16.5935366367883"><ele>114.0</ele><time>2026-04-08T09:15:10Z</time></trkpt><trkpt lat="51.654100288435394" lon="16.59347065984924"><ele>113.83333333333333</ele><time>2026-04-08T09:15:11Z</time></trkpt><trkpt lat="51.65420583593764" lon="16.593442917888996"><ele>113.66666666666666</ele><time>2026-04-08T09:15:12Z</time></trkpt><trkpt lat="51.654303005977994" lon="16.59344378703009"><ele>113.5</ele><time>2026-04-08T09:15:13Z</time></trkpt><trkpt lat="51.65438711824837" lon="16.593452661375515"><ele>113.33333333333333</ele><time>2026-04-08T09:15:14Z</time></trkpt><trkpt lat="51.65445408274104" lon="16.593461030471378"><ele>113.16666666666666</ele><time>2026-04-08T09:15:15Z</time></trkpt><trkpt lat="51.654543842297166" lon="16.593473774796504"><ele>113.0</ele><time>2026-04-08T09:15:17Z</time></trkpt><trkpt lat="51.65462672487095" lon="16.59348232872955"><ele>113.49999999999999</ele><time>2026-04-08T09:15:30Z</time></trkpt><trkpt lat="51.654698214118426" lon="16.593487282806922"><ele>114.0</ele><time>2026-04-08T09:15:38Z</time></trkpt><trkpt lat="51.6548184274759" lon="16.593500961340247"><ele>114.5</ele><time>2026-04-08T09:15:40Z</time></trkpt><trkpt lat="51.65488720548949" lon="16.593533068649364"><ele>115.0</ele><time>2026-04-08T09:15:55Z</time></trkpt><trkpt lat="51.654954327807005" lon="16.593516983428962"><ele>115.49999999999999</ele><time>2026-04-08T09:16:00Z</time></trkpt><trkpt lat="51.65506266853216" lon="16.59355426253628"><ele>116.0</ele><time>2026-04-08T09:16:02Z</time></trkpt><trkpt lat="51.655115221970156" lon="16.59334932112558"><ele>116.0</ele><time>2026-04-08T09:16:03Z</time></trkpt><trkpt lat="51.65513380718928" lon="16.593201288673743"><ele>116.0</ele><time>2026-04-08T09:16:04Z</time></trkpt><trkpt lat="51.6551502508679" lon="16.593025706130614"><ele>116.0</ele><time>2026-04-08T09:16:05Z</time></trkpt><trkpt lat="51.655182119743905" lon="16.592827787984305"><ele>116.0</ele><time>2026-04-08T09:16:06Z</time></trkpt><trkpt lat="51.655222745851994" lon="16.592613486864135"><ele>116.0</ele><time>2026-04-08T09:16:07Z</time></trkpt><trkpt lat="51.65529434165419" lon="16.59239368790412"><ele>116.0</ele><time>2026-04-08T09:16:08Z</time></trkpt><trkpt lat="51.65538405599773" lon="16.592182991863186"><ele>116.0</ele><time>2026-04-08T09:16:09Z</time></trkpt><trkpt lat="51.65549005534524" lon="16.59200537585131"><ele>116.0</ele><time>2026-04-08T09:16:10Z</time></trkpt><trkpt lat="51.655601868396836" lon="16.591854911892117"><ele>116.0</ele><time>2026-04-08T09:16:11Z</time></trkpt><trkpt lat="51.65572947443827" lon="16.59171889804642"><ele>116.0</ele><time>2026-04-08T09:16:12Z</time></trkpt><trkpt lat="51.6558644384692" lon="16.59157411551667"><ele>116.0</ele><time>2026-04-08T09:16:13Z</time></trkpt><trkpt lat="51.656007751389794" lon="16.59142243925529"><ele>116.0</ele><time>2026-04-08T09:16:14Z</time></trkpt><trkpt lat="51.656157012694685" lon="16.59126434693956"><ele>116.0</ele><time>2026-04-08T09:16:15Z</time></trkpt><trkpt lat="51.65629966795646" lon="16.591082805595835"><ele>114.66666666666666</ele><time>2026-04-08T09:16:16Z</time></trkpt><trkpt lat="51.65645962892722" lon="16.590948149594198"><ele>113.33333333333334</ele><time>2026-04-08T09:16:17Z</time></trkpt><trkpt lat="51.65661161093208" lon="16.590791959501775"><ele>112.0</ele><time>2026-04-08T09:16:18Z</time></trkpt><trkpt lat="51.65676189982148" lon="16.590635182277083"><ele>112.0</ele><time>2026-04-08T09:16:19Z</time></trkpt><trkpt lat="51.65691056637294" lon="16.590476573796675"><ele>112.0</ele><time>2026-04-08T09:16:20Z</time></trkpt><trkpt lat="51.657056308432615" lon="16.590312879040095"><ele>112.0</ele><time>2026-04-08T09:16:21Z</time></trkpt><trkpt lat="51.65719836413395" lon="16.59012877683732"><ele>110.66666666666667</ele><time>2026-04-08T09:16:22Z</time></trkpt><trkpt lat="51.657323191615546" lon="16.58992302649999"><ele>109.33333333333334</ele><time>2026-04-08T09:16:23.001Z</time></trkpt><trkpt lat="51.65744152857379" lon="16.58970481246532"><ele>108.0</ele><time>2026-04-08T09:16:24.001Z</time></trkpt><trkpt lat="51.65753990529874" lon="16.589449877863682"><ele>107.0</ele><time>2026-04-08T09:16:25.001Z</time></trkpt><trkpt lat="51.65764162018001" lon="16.58920653046601"><ele>106.0</ele><time>2026-04-08T09:16:26.001Z</time></trkpt><trkpt lat="51.65774276004287" lon="16.58900262552582"><ele>105.0</ele><time>2026-04-08T09:16:27.001Z</time></trkpt><trkpt lat="51.657827586094726" lon="16.588741459620778"><ele>104.33333333333334</ele><time>2026-04-08T09:16:28.001Z</time></trkpt><trkpt lat="51.657908815451634" lon="16.588470763287283"><ele>103.66666666666667</ele><time>2026-04-08T09:16:29.001Z</time></trkpt><trkpt lat="51.65799481128477" lon="16.588205835506564"><ele>103.0</ele><time>2026-04-08T09:16:30.001Z</time></trkpt><trkpt lat="51.65808293835948" lon="16.587943681599832"><ele>103.0</ele><time>2026-04-08T09:16:31.001Z</time></trkpt><trkpt lat="51.65817176475126" lon="16.587681502204315"><ele>103.0</ele><time>2026-04-08T09:16:32.001Z</time></trkpt><trkpt lat="51.65825868132888" lon="16.58741709414891"><ele>103.0</ele><time>2026-04-08T09:16:33.001Z</time></trkpt><trkpt lat="51.658345678810655" lon="16.58715476020969"><ele>103.0</ele><time>2026-04-08T09:16:34.001Z</time></trkpt><trkpt lat="51.65843015212946" lon="16.586890466833857"><ele>103.0</ele><time>2026-04-08T09:16:35.001Z</time></trkpt><trkpt lat="51.658515134580256" lon="16.586629711543175"><ele>103.0</ele><time>2026-04-08T09:16:36.001Z</time></trkpt><trkpt lat="51.65860307242437" lon="16.586364557846387"><ele>102.33333333333334</ele><time>2026-04-08T09:16:37.001Z</time></trkpt><trkpt lat="51.65870568006987" lon="16.586118278748582"><ele>101.66666666666666</ele><time>2026-04-08T09:16:38.001Z</time></trkpt><trkpt lat="51.6587842971523" lon="16.585843065106154"><ele>101.0</ele><time>2026-04-08T09:16:39.001Z</time></trkpt><trkpt lat="51.65887331089544" lon="16.585579865989924"><ele>101.0</ele><time>2026-04-08T09:16:40.001Z</time></trkpt><trkpt lat="51.65896438881158" lon="16.58531582581125"><ele>101.0</ele><time>2026-04-08T09:16:41.001Z</time></trkpt><trkpt lat="51.65905644131165" lon="16.585041213617473"><ele>101.0</ele><time>2026-04-08T09:16:42.001Z</time></trkpt><trkpt lat="51.65915104297317" lon="16.58477738746453"><ele>101.0</ele><time>2026-04-08T09:16:43Z</time></trkpt><trkpt lat="51.65924624846048" lon="16.584506392037188"><ele>101.0</ele><time>2026-04-08T09:16:44Z</time></trkpt><trkpt lat="51.659338623711406" lon="16.584230994232712"><ele>101.0</ele><time>2026-04-08T09:16:45Z</time></trkpt><trkpt lat="51.65943152300761" lon="16.583954961107043"><ele>100.66666666666666</ele><time>2026-04-08T09:16:46Z</time></trkpt><trkpt lat="51.659525957770306" lon="16.583677132200403"><ele>100.33333333333334</ele><time>2026-04-08T09:16:47Z</time></trkpt><trkpt lat="51.65962088422667" lon="16.583400298763802"><ele>100.0</ele><time>2026-04-08T09:16:48Z</time></trkpt><trkpt lat="51.65971455003917" lon="16.583121332409966"><ele>100.0</ele><time>2026-04-08T09:16:49Z</time></trkpt><trkpt lat="51.65982181531232" lon="16.5828562546508"><ele>100.0</ele><time>2026-04-08T09:16:50Z</time></trkpt><trkpt lat="51.659904757452715" lon="16.582561085178245"><ele>100.0</ele><time>2026-04-08T09:16:51Z</time></trkpt><trkpt lat="51.660000199155114" lon="16.582280670977692"><ele>99.66666666666667</ele><time>2026-04-08T09:16:52Z</time></trkpt><trkpt lat="51.66011138325717" lon="16.582008128405224"><ele>99.33333333333334</ele><time>2026-04-08T09:16:53Z</time></trkpt><trkpt lat="51.660207752955515" lon="16.581724067823643"><ele>99.0</ele><time>2026-04-08T09:16:54Z</time></trkpt><trkpt lat="51.66030390727759" lon="16.581440861536375"><ele>98.66666666666666</ele><time>2026-04-08T09:16:55Z</time></trkpt><trkpt lat="51.66040062423753" lon="16.581156405501762"><ele>98.33333333333333</ele><time>2026-04-08T09:16:56Z</time></trkpt><trkpt lat="51.66049724234753" lon="16.580878421633408"><ele>98.0</ele><time>2026-04-08T09:16:57Z</time></trkpt><trkpt lat="51.66059333820362" lon="16.580600443162574"><ele>98.33333333333333</ele><time>2026-04-08T09:16:58Z</time></trkpt><trkpt lat="51.66068281118199" lon="16.580328090821553"><ele>98.66666666666666</ele><time>2026-04-08T09:16:59Z</time></trkpt><trkpt lat="51.66075877387092" lon="16.580033342060254"><ele>99.0</ele><time>2026-04-08T09:17:00Z</time></trkpt><trkpt lat="51.6608424811763" lon="16.579751270849474"><ele>98.66666666666666</ele><time>2026-04-08T09:17:01Z</time></trkpt><trkpt lat="51.66091469891098" lon="16.57945839709077"><ele>98.33333333333333</ele><time>2026-04-08T09:17:02Z</time></trkpt><trkpt lat="51.660979450434844" lon="16.579154451809867"><ele>98.0</ele><time>2026-04-08T09:17:03Z</time></trkpt><trkpt lat="51.661033877366556" lon="16.57884988432759"><ele>98.0</ele><time>2026-04-08T09:17:04Z</time></trkpt><trkpt lat="51.66108002928212" lon="16.578544028523122"><ele>98.0</ele><time>2026-04-08T09:17:05Z</time></trkpt><trkpt lat="51.66111640139757" lon="16.578237316483268"><ele>98.0</ele><time>2026-04-08T09:17:06Z</time></trkpt><trkpt lat="51.66114072701073" lon="16.57792512798508"><ele>98.0</ele><time>2026-04-08T09:17:07Z</time></trkpt><trkpt lat="51.66116235967045" lon="16.577605751717208"><ele>98.0</ele><time>2026-04-08T09:17:08Z</time></trkpt><trkpt lat="51.66118323465584" lon="16.577293650647007"><ele>98.0</ele><time>2026-04-08T09:17:09Z</time></trkpt><trkpt lat="51.66120261897855" lon="16.57697668652163"><ele>98.0</ele><time>2026-04-08T09:17:10Z</time></trkpt><trkpt lat="51.66122132839259" lon="16.576663597665167"><ele>98.0</ele><time>2026-04-08T09:17:11Z</time></trkpt><trkpt lat="51.66123978399513" lon="16.57634852918839"><ele>98.0</ele><time>2026-04-08T09:17:12Z</time></trkpt><trkpt lat="51.66126436302255" lon="16.576020821565418"><ele>98.0</ele><time>2026-04-08T09:17:13Z</time></trkpt><trkpt lat="51.66128667349961" lon="16.575695470256854"><ele>98.0</ele><time>2026-04-08T09:17:14Z</time></trkpt><trkpt lat="51.66130684012262" lon="16.575375268132127"><ele>98.0</ele><time>2026-04-08T09:17:15Z</time></trkpt><trkpt lat="51.66132604182624" lon="16.575064511507588"><ele>98.0</ele><time>2026-04-08T09:17:16Z</time></trkpt><trkpt lat="51.6613425970589" lon="16.574752204756987"><ele>98.0</ele><time>2026-04-08T09:17:17Z</time></trkpt><trkpt lat="51.66136318482442" lon="16.57445403949116"><ele>98.0</ele><time>2026-04-08T09:17:18Z</time></trkpt><trkpt lat="51.66138507407749" lon="16.574156278247706"><ele>97.66666666666666</ele><time>2026-04-08T09:17:19Z</time></trkpt><trkpt lat="51.66140286861159" lon="16.573854591583565"><ele>97.33333333333334</ele><time>2026-04-08T09:17:20Z</time></trkpt><trkpt lat="51.66142894425553" lon="16.573550754577617"><ele>97.0</ele><time>2026-04-08T09:17:21Z</time></trkpt><trkpt lat="51.66146426509282" lon="16.573251164750527"><ele>96.33333333333334</ele><time>2026-04-08T09:17:22Z</time></trkpt><trkpt lat="51.66149886590535" lon="16.572949517919984"><ele>95.66666666666667</ele><time>2026-04-08T09:17:23Z</time></trkpt><trkpt lat="51.66153563403541" lon="16.57265312855946"><ele>95.0</ele><time>2026-04-08T09:17:24Z</time></trkpt><trkpt lat="51.66159954418716" lon="16.572365847136666"><ele>94.66666666666667</ele><time>2026-04-08T09:17:25Z</time></trkpt><trkpt lat="51.66165449643309" lon="16.572074135239795"><ele>94.33333333333333</ele><time>2026-04-08T09:17:26Z</time></trkpt><trkpt lat="51.66171054706031" lon="16.57179995794894"><ele>94.0</ele><time>2026-04-08T09:17:27Z</time></trkpt><trkpt lat="51.66175796185772" lon="16.571538015427528"><ele>94.0</ele><time>2026-04-08T09:17:28Z</time></trkpt><trkpt lat="51.66182096235204" lon="16.571290600727654"><ele>94.0</ele><time>2026-04-08T09:17:29Z</time></trkpt><trkpt lat="51.661884472654776" lon="16.57103700384384"><ele>94.0</ele><time>2026-04-08T09:17:30Z</time></trkpt><trkpt lat="51.6619452126546" lon="16.57078991746795"><ele>93.75</ele><time>2026-04-08T09:17:31Z</time></trkpt><trkpt lat="51.66200366261243" lon="16.570553453656643"><ele>93.5</ele><time>2026-04-08T09:17:32Z</time></trkpt><trkpt lat="51.66205608951494" lon="16.57033653535654"><ele>93.25</ele><time>2026-04-08T09:17:33Z</time></trkpt><trkpt lat="51.66210489755716" lon="16.570137608089425"><ele>93.0</ele><time>2026-04-08T09:17:34Z</time></trkpt><trkpt lat="51.66215521452296" lon="16.569937440604107"><ele>93.0</ele><time>2026-04-08T09:17:35Z</time></trkpt><trkpt lat="51.6622054031102" lon="16.56973713329772"><ele>93.0</ele><time>2026-04-08T09:17:36Z</time></trkpt><trkpt lat="51.66225827532027" lon="16.56953529342003"><ele>93.0</ele><time>2026-04-08T09:17:37Z</time></trkpt><trkpt lat="51.66230931083555" lon="16.56932543488344"><ele>93.0</ele><time>2026-04-08T09:17:38Z</time></trkpt><trkpt lat="51.66235688675411" lon="16.569117019750568"><ele>93.0</ele><time>2026-04-08T09:17:39Z</time></trkpt><trkpt lat="51.66239821466494" lon="16.56893531917486"><ele>93.0</ele><time>2026-04-08T09:17:40Z</time></trkpt><trkpt lat="51.662440308879944" lon="16.568774841351836"><ele>93.0</ele><time>2026-04-08T09:17:41Z</time></trkpt><trkpt lat="51.662478633179006" lon="16.56862947632826"><ele>93.0</ele><time>2026-04-08T09:17:42Z</time></trkpt><trkpt lat="51.662512084706144" lon="16.568489822267157"><ele>93.0</ele><time>2026-04-08T09:17:43Z</time></trkpt><trkpt lat="51.66254760783289" lon="16.56835864381125"><ele>93.0</ele><time>2026-04-08T09:17:44Z</time></trkpt><trkpt lat="51.662574701197116" lon="16.56823644373436"><ele>93.0</ele><time>2026-04-08T09:17:45Z</time></trkpt><trkpt lat="51.66260052442045" lon="16.568122321968573"><ele>93.0</ele><time>2026-04-08T09:17:46Z</time></trkpt><trkpt lat="51.6626239694029" lon="16.568017833138708"><ele>93.0</ele><time>2026-04-08T09:17:47Z</time></trkpt><trkpt lat="51.662650037460715" lon="16.567897809259524"><ele>93.0</ele><time>2026-04-08T09:17:48Z</time></trkpt><trkpt lat="51.662682516709324" lon="16.567761753070407"><ele>93.0</ele><time>2026-04-08T09:17:49Z</time></trkpt><trkpt lat="51.66271717327758" lon="16.567611797068647"><ele>93.0</ele><time>2026-04-08T09:17:50Z</time></trkpt><trkpt lat="51.66274885570729" lon="16.567474697881025"><ele>93.0</ele><time>2026-04-08T09:17:51Z</time></trkpt><trkpt lat="51.66277936590689" lon="16.567340137624566"><ele>93.0</ele><time>2026-04-08T09:17:52Z</time></trkpt><trkpt lat="51.66282315542714" lon="16.567216970954618"><ele>93.0</ele><time>2026-04-08T09:17:53Z</time></trkpt><trkpt lat="51.66284049155253" lon="16.567078217035277"><ele>93.0</ele><time>2026-04-08T09:17:55Z</time></trkpt><trkpt lat="51.662665976730715" lon="16.566958216426546"><ele>93.0</ele><time>2026-04-08T09:17:56Z</time></trkpt><trkpt lat="51.66254309344154" lon="16.566960011226723"><ele>93.0</ele><time>2026-04-08T09:17:58Z</time></trkpt><trkpt lat="51.662463488647404" lon="16.567023393572743"><ele>93.0</ele><time>2026-04-08T09:18:00Z</time></trkpt><trkpt lat="51.66241375007507" lon="16.567137687007186"><ele>93.0</ele><time>2026-04-08T09:18:03Z</time></trkpt><trkpt lat="51.662373161503396" lon="16.567218939641393"><ele>93.0</ele><time>2026-04-08T09:18:07Z</time></trkpt><trkpt lat="51.662407263761125" lon="16.567038049601468"><ele>93.0</ele><time>2026-04-08T09:18:23Z</time></trkpt><trkpt lat="51.66236537223663" lon="16.567115436476836"><ele>93.0</ele><time>2026-04-08T09:18:38Z</time></trkpt></trkseg><trkseg><trkpt lat="51.66240071450255" lon="16.567686486813695"><ele>93.0</ele><time>2026-04-08T09:46:42Z</time></trkpt><trkpt lat="51.662466194892644" lon="16.56782386685729"><ele>93.0</ele><time>2026-04-08T09:46:47Z</time></trkpt><trkpt lat="51.66253245302627" lon="16.56787956985752"><ele>93.0</ele><time>2026-04-08T09:46:48Z</time></trkpt><trkpt lat="51.66259417658514" lon="16.5679161579276"><ele>93.0</ele><time>2026-04-08T09:46:50Z</time></trkpt><trkpt lat="51.662694761586074" lon="16.56778948062339"><ele>93.0</ele><time>2026-04-08T09:46:52Z</time></trkpt><trkpt lat="51.662708736668336" lon="16.567689685680723"><ele>93.0</ele><time>2026-04-08T09:46:53Z</time></trkpt><trkpt lat="51.66273080508197" lon="16.567551589060624"><ele>93.0</ele><time>2026-04-08T09:46:54Z</time></trkpt><trkpt lat="51.66277286762977" lon="16.567425272026252"><ele>93.0</ele><time>2026-04-08T09:46:55Z</time></trkpt><trkpt lat="51.66280349566342" lon="16.567298820248155"><ele>93.0</ele><time>2026-04-08T09:46:56Z</time></trkpt><trkpt lat="51.662829620701274" lon="16.567190054392402"><ele>93.0</ele><time>2026-04-08T09:46:57Z</time></trkpt><trkpt lat="51.66286824176893" lon="16.567029268740896"><ele>93.0</ele><time>2026-04-08T09:46:59Z</time></trkpt><trkpt lat="51.66290979181998" lon="16.566854138942766"><ele>92.66666666666667</ele><time>2026-04-08T09:47:01Z</time></trkpt><trkpt lat="51.66294608144894" lon="16.566696637898755"><ele>92.33333333333333</ele><time>2026-04-08T09:47:03Z</time></trkpt><trkpt lat="51.66298951819525" lon="16.566506555608218"><ele>92.0</ele><time>2026-04-08T09:47:05Z</time></trkpt><trkpt lat="51.66301265889305" lon="16.566404830601126"><ele>91.66666666666666</ele><time>2026-04-08T09:47:06Z</time></trkpt><trkpt lat="51.66303668615952" lon="16.566299269269596"><ele>91.33333333333333</ele><time>2026-04-08T09:47:07Z</time></trkpt><trkpt lat="51.66306236461769" lon="16.566186452859217"><ele>91.0</ele><time>2026-04-08T09:47:08Z</time></trkpt><trkpt lat="51.66308886765964" lon="16.56607001402254"><ele>91.0</ele><time>2026-04-08T09:47:09Z</time></trkpt><trkpt lat="51.66311844333956" lon="16.56594007572956"><ele>91.0</ele><time>2026-04-08T09:47:10Z</time></trkpt><trkpt lat="51.663151742006626" lon="16.565795188590727"><ele>91.0</ele><time>2026-04-08T09:47:11Z</time></trkpt><trkpt lat="51.66318962641854" lon="16.565631369400872"><ele>91.0</ele><time>2026-04-08T09:47:12Z</time></trkpt><trkpt lat="51.663217977377585" lon="16.565506451515056"><ele>91.0</ele><time>2026-04-08T09:47:13Z</time></trkpt><trkpt lat="51.663242208055244" lon="16.56539989814953"><ele>91.0</ele><time>2026-04-08T09:47:14Z</time></trkpt><trkpt lat="51.66326922556994" lon="16.565280711427175"><ele>91.19999999999999</ele><time>2026-04-08T09:47:15Z</time></trkpt><trkpt lat="51.663295449103366" lon="16.565162846249745"><ele>91.39999999999999</ele><time>2026-04-08T09:47:16Z</time></trkpt><trkpt lat="51.663325252887994" lon="16.565028890319255"><ele>91.6</ele><time>2026-04-08T09:47:17Z</time></trkpt><trkpt lat="51.66335581548083" lon="16.564889551514504"><ele>91.8</ele><time>2026-04-08T09:47:17.999Z</time></trkpt><trkpt lat="51.66338646373954" lon="16.56475251406502"><ele>92.0</ele><time>2026-04-08T09:47:18.999Z</time></trkpt><trkpt lat="51.664980222469346" lon="16.556120866170975"><ele>90.8</ele><time>2026-04-08T09:48:19.999Z</time></trkpt><trkpt lat="51.66501609503361" lon="16.555978481142706"><ele>89.6</ele><time>2026-04-08T09:48:22.999Z</time></trkpt><trkpt lat="51.66503317340011" lon="16.555851742641785"><ele>88.39999999999999</ele><time>2026-04-08T09:48:24.999Z</time></trkpt><trkpt lat="51.66493208274095" lon="16.555774085300488"><ele>87.19999999999999</ele><time>2026-04-08T09:48:25.999Z</time></trkpt><trkpt lat="51.664885898769505" lon="16.555704607263518"><ele>86.0</ele><time>2026-04-08T09:48:26.999Z</time></trkpt><trkpt lat="51.66492114304463" lon="16.555493884573988"><ele>86.19999999999999</ele><time>2026-04-08T09:48:28.999Z</time></trkpt><trkpt lat="51.66488634919842" lon="16.555321338706452"><ele>86.39999999999999</ele><time>2026-04-08T09:48:30.999Z</time></trkpt><trkpt lat="51.66488629226953" lon="16.555196303778324"><ele>86.6</ele><time>2026-04-08T09:48:32.999Z</time></trkpt><trkpt lat="51.66487178981136" lon="16.555090880765025"><ele>86.8</ele><time>2026-04-08T09:48:34.999Z</time></trkpt><trkpt lat="51.66484104328808" lon="16.554947860406283"><ele>87.0</ele><time>2026-04-08T09:48:36.999Z</time></trkpt><trkpt lat="51.664815546014225" lon="16.554789677451804"><ele>87.0</ele><time>2026-04-08T09:48:38.999Z</time></trkpt><trkpt lat="51.664798303748036" lon="16.55460832234529"><ele>87.0</ele><time>2026-04-08T09:48:40.999Z</time></trkpt><trkpt lat="51.664773194684216" lon="16.55443059860231"><ele>87.0</ele><time>2026-04-08T09:48:42.999Z</time></trkpt><trkpt lat="51.66474413425673" lon="16.554230180257175"><ele>87.0</ele><time>2026-04-08T09:48:44.999Z</time></trkpt><trkpt lat="51.66472882039445" lon="16.554116503578268"><ele>87.0</ele><time>2026-04-08T09:48:45.999Z</time></trkpt><trkpt lat="51.66471535190143" lon="16.55400208452754"><ele>87.0</ele><time>2026-04-08T09:48:46.999Z</time></trkpt><trkpt lat="51.66469862235828" lon="16.55388658626065"><ele>87.0</ele><time>2026-04-08T09:48:47.999Z</time></trkpt><trkpt lat="51.664685180271" lon="16.55377064924149"><ele>87.0</ele><time>2026-04-08T09:48:48.999Z</time></trkpt><trkpt lat="51.66467687587309" lon="16.553642594714816"><ele>87.0</ele><time>2026-04-08T09:48:49.999Z</time></trkpt><trkpt lat="51.66465653949758" lon="16.553510894485413"><ele>87.0</ele><time>2026-04-08T09:48:50.999Z</time></trkpt><trkpt lat="51.66463977451069" lon="16.55336329974152"><ele>87.0</ele><time>2026-04-08T09:48:51.999Z</time></trkpt><trkpt lat="51.66462132004451" lon="16.5532178516599"><ele>87.0</ele><time>2026-04-08T09:48:52.999Z</time></trkpt><trkpt lat="51.664600411697066" lon="16.553077218565704"><ele>87.0</ele><time>2026-04-08T09:48:53.999Z</time></trkpt><trkpt lat="51.664578911678504" lon="16.552957973081792"><ele>87.0</ele><time>2026-04-08T09:48:54.999Z</time></trkpt><trkpt lat="51.66456102504159" lon="16.55276573896206"><ele>87.0</ele><time>2026-04-08T09:48:56.999Z</time></trkpt><trkpt lat="51.66454530202762" lon="16.55262840254955"><ele>87.0</ele><time>2026-04-08T09:48:58.999Z</time></trkpt><trkpt lat="51.66456572851207" lon="16.55247357400042"><ele>86.83333333333333</ele><time>2026-04-08T09:49:00.999Z</time></trkpt><trkpt lat="51.66459774177625" lon="16.55237365889269"><ele>86.66666666666667</ele><time>2026-04-08T09:49:01.999Z</time></trkpt><trkpt lat="51.66460002734715" lon="16.552220934020394"><ele>86.5</ele><time>2026-04-08T09:49:02.999Z</time></trkpt><trkpt lat="51.66459524146064" lon="16.552069216868396"><ele>86.33333333333334</ele><time>2026-04-08T09:49:03.999Z</time></trkpt><trkpt lat="51.664591727771885" lon="16.55193351934173"><ele>86.16666666666667</ele><time>2026-04-08T09:49:04.999Z</time></trkpt><trkpt lat="51.66458585704814" lon="16.55181321042236"><ele>86.0</ele><time>2026-04-08T09:49:05.999Z</time></trkpt><trkpt lat="51.66458295491442" lon="16.55163385871372"><ele>86.0</ele><time>2026-04-08T09:49:07.999Z</time></trkpt><trkpt lat="51.664583434900564" lon="16.55148618311872"><ele>86.0</ele><time>2026-04-08T09:49:09.999Z</time></trkpt><trkpt lat="51.6645866943068" lon="16.551358381069885"><ele>86.0</ele><time>2026-04-08T09:49:11.999Z</time></trkpt><trkpt lat="51.664441110904285" lon="16.551304326146592"><ele>86.0</ele><time>2026-04-08T09:49:12.999Z</time></trkpt><trkpt lat="51.66435985283211" lon="16.551289748247296"><ele>86.0</ele><time>2026-04-08T09:49:13.999Z</time></trkpt><trkpt lat="51.66426880635172" lon="16.55129355840206"><ele>86.0</ele><time>2026-04-08T09:49:14.999Z</time></trkpt><trkpt lat="51.66416970238485" lon="16.551279462648658"><ele>86.0</ele><time>2026-04-08T09:49:15.999Z</time></trkpt><trkpt lat="51.664081192030224" lon="16.551194752999763"><ele>86.0</ele><time>2026-04-08T09:49:16.999Z</time></trkpt><trkpt lat="51.66400270228617" lon="16.551097279033918"><ele>86.0</ele><time>2026-04-08T09:49:17.999Z</time></trkpt><trkpt lat="51.66391324672871" lon="16.550988703005405"><ele>86.0</ele><time>2026-04-08T09:49:18.999Z</time></trkpt><trkpt lat="51.662272326692914" lon="16.550365228503605"><ele>85.8</ele><time>2026-04-08T09:50:19.999Z</time></trkpt><trkpt lat="51.66217035327102" lon="16.550348878065133"><ele>85.6</ele><time>2026-04-08T09:50:46.999Z</time></trkpt><trkpt lat="51.662054088161256" lon="16.550317904196067"><ele>85.4</ele><time>2026-04-08T09:50:48.999Z</time></trkpt><trkpt lat="51.66198021804262" lon="16.550293387326597"><ele>85.2</ele><time>2026-04-08T09:50:49.999Z</time></trkpt><trkpt lat="51.6618921136238" lon="16.550290012421954"><ele>85.0</ele><time>2026-04-08T09:50:50.999Z</time></trkpt><trkpt lat="51.661803786396675" lon="16.550251875122413"><ele>85.0</ele><time>2026-04-08T09:50:51.999Z</time></trkpt><trkpt lat="51.66171114803487" lon="16.550203049318643"><ele>85.0</ele><time>2026-04-08T09:50:52.999Z</time></trkpt><trkpt lat="51.66160584077584" lon="16.55019937987923"><ele>85.0</ele><time>2026-04-08T09:50:53.999Z</time></trkpt><trkpt lat="51.66149506857491" lon="16.550151585952822"><ele>85.0</ele><time>2026-04-08T09:50:54.999Z</time></trkpt><trkpt lat="51.66137241955744" lon="16.550120610537835"><ele>85.0</ele><time>2026-04-08T09:50:55.999Z</time></trkpt><trkpt lat="51.66124957183842" lon="16.550107078539497"><ele>85.0</ele><time>2026-04-08T09:50:56.999Z</time></trkpt><trkpt lat="51.66113871771464" lon="16.55008165360252"><ele>85.0</ele><time>2026-04-08T09:50:57.999Z</time></trkpt><trkpt lat="51.661028792083954" lon="16.55005974625234"><ele>85.0</ele><time>2026-04-08T09:50:58.999Z</time></trkpt><trkpt lat="51.660922756687654" lon="16.550006794967885"><ele>85.0</ele><time>2026-04-08T09:50:59.999Z</time></trkpt><trkpt lat="51.66081149614939" lon="16.54997863346917"><ele>85.0</ele><time>2026-04-08T09:51:00.999Z</time></trkpt><trkpt lat="51.660705194784136" lon="16.54997631182162"><ele>84.75</ele><time>2026-04-08T09:51:01.999Z</time></trkpt><trkpt lat="51.66060186133514" lon="16.54993539777673"><ele>84.5</ele><time>2026-04-08T09:51:02.999Z</time></trkpt><trkpt lat="51.66049022535131" lon="16.549918386132383"><ele>84.25</ele><time>2026-04-08T09:51:03.999Z</time></trkpt><trkpt lat="51.66037594589891" lon="16.54988992586142"><ele>84.0</ele><time>2026-04-08T09:51:04.999Z</time></trkpt><trkpt lat="51.66025679499944" lon="16.549858182911493"><ele>83.75</ele><time>2026-04-08T09:51:05.999Z</time></trkpt><trkpt lat="51.6601295714879" lon="16.549819765139322"><ele>83.5</ele><time>2026-04-08T09:51:06.999Z</time></trkpt><trkpt lat="51.659996193990146" lon="16.549792896822623"><ele>83.25</ele><time>2026-04-08T09:51:07.999Z</time></trkpt><trkpt lat="51.65986471078648" lon="16.549773478666577"><ele>83.0</ele><time>2026-04-08T09:51:08.999Z</time></trkpt><trkpt lat="51.659735963081026" lon="16.54974948228716"><ele>83.0</ele><time>2026-04-08T09:51:09.999Z</time></trkpt><trkpt lat="51.65960713619512" lon="16.54971852177267"><ele>83.0</ele><time>2026-04-08T09:51:10.999Z</time></trkpt><trkpt lat="51.659486039522484" lon="16.5496868064764"><ele>83.0</ele><time>2026-04-08T09:51:11.999Z</time></trkpt><trkpt lat="51.65937136752727" lon="16.54967543975411"><ele>83.0</ele><time>2026-04-08T09:51:12.999Z</time></trkpt><trkpt lat="51.65926378180569" lon="16.549661411275324"><ele>83.60000000000001</ele><time>2026-04-08T09:51:13.999Z</time></trkpt><trkpt lat="51.65917126378107" lon="16.549635214060864"><ele>84.2</ele><time>2026-04-08T09:51:14.999Z</time></trkpt><trkpt lat="51.65910154537748" lon="16.549613751564387"><ele>84.8</ele><time>2026-04-08T09:51:15.999Z</time></trkpt><trkpt lat="51.659038633267514" lon="16.549496648461087"><ele>85.4</ele><time>2026-04-08T09:51:17.999Z</time></trkpt><trkpt lat="51.65904558306143" lon="16.549388690489067"><ele>86.0</ele><time>2026-04-08T09:51:18.999Z</time></trkpt><trkpt lat="51.65179475884816" lon="16.54971394597502"><ele>86.0</ele><time>2026-04-08T09:52:19.999Z</time></trkpt><trkpt lat="51.65163531588466" lon="16.549719970190502"><ele>86.0</ele><time>2026-04-08T09:52:20.999Z</time></trkpt><trkpt lat="51.65148932322198" lon="16.549740212718632"><ele>86.0</ele><time>2026-04-08T09:52:21.999Z</time></trkpt><trkpt lat="51.65133033300484" lon="16.54977426326418"><ele>86.0</ele><time>2026-04-08T09:52:22.999Z</time></trkpt><trkpt lat="51.651190212353846" lon="16.549787780969556"><ele>86.0</ele><time>2026-04-08T09:52:23.999Z</time></trkpt><trkpt lat="51.65105816164804" lon="16.549798737291503"><ele>86.0</ele><time>2026-04-08T09:52:24.999Z</time></trkpt><trkpt lat="51.65092519113088" lon="16.549806189033394"><ele>86.0</ele><time>2026-04-08T09:52:25.999Z</time></trkpt><trkpt lat="51.65079231059127" lon="16.549812141465377"><ele>86.0</ele><time>2026-04-08T09:52:26.999Z</time></trkpt><trkpt lat="51.650662491411495" lon="16.549815502839202"><ele>86.0</ele><time>2026-04-08T09:52:27.999Z</time></trkpt><trkpt lat="51.65053608994423" lon="16.54980513496324"><ele>86.0</ele><time>2026-04-08T09:52:28.999Z</time></trkpt><trkpt lat="51.65041794708727" lon="16.5497637058619"><ele>86.0</ele><time>2026-04-08T09:52:29.999Z</time></trkpt><trkpt lat="51.65028178142923" lon="16.549709563914412"><ele>86.0</ele><time>2026-04-08T09:52:30.999Z</time></trkpt><trkpt lat="51.65016305392259" lon="16.54965485902544"><ele>86.0</ele><time>2026-04-08T09:52:31.999Z</time></trkpt><trkpt lat="51.65003147302305" lon="16.549604745437865"><ele>86.0</ele><time>2026-04-08T09:52:32.999Z</time></trkpt><trkpt lat="51.64990650464477" lon="16.549589759013163"><ele>86.0</ele><time>2026-04-08T09:52:33.999Z</time></trkpt><trkpt lat="51.64977778990919" lon="16.54958846411307"><ele>86.0</ele><time>2026-04-08T09:52:34.999Z</time></trkpt><trkpt lat="51.64963302754098" lon="16.549569924982126"><ele>86.0</ele><time>2026-04-08T09:52:35.999Z</time></trkpt><trkpt lat="51.64949389373768" lon="16.549551983400292"><ele>86.0</ele><time>2026-04-08T09:52:36.999Z</time></trkpt><trkpt lat="51.64935361386015" lon="16.54953281244305"><ele>86.0</ele><time>2026-04-08T09:52:37.999Z</time></trkpt><trkpt lat="51.64921311508316" lon="16.54950523722453"><ele>86.25</ele><time>2026-04-08T09:52:38.999Z</time></trkpt><trkpt lat="51.649068497909695" lon="16.549493858550928"><ele>86.5</ele><time>2026-04-08T09:52:39.999Z</time></trkpt><trkpt lat="51.6489310259392" lon="16.549487254697116"><ele>86.75</ele><time>2026-04-08T09:52:40.999Z</time></trkpt><trkpt lat="51.64880464679169" lon="16.5494873388798"><ele>87.0</ele><time>2026-04-08T09:52:41.999Z</time></trkpt><trkpt lat="51.64867721256655" lon="16.549500678395297"><ele>87.25</ele><time>2026-04-08T09:52:42.999Z</time></trkpt><trkpt lat="51.64853298189354" lon="16.549515609518096"><ele>87.5</ele><time>2026-04-08T09:52:43.999Z</time></trkpt><trkpt lat="51.64838329861558" lon="16.54952991014655"><ele>87.75</ele><time>2026-04-08T09:52:44.999Z</time></trkpt><trkpt lat="51.64823818842091" lon="16.54951626565047"><ele>88.0</ele><time>2026-04-08T09:52:45.999Z</time></trkpt><trkpt lat="51.64808354589366" lon="16.549499917920414"><ele>88.0</ele><time>2026-04-08T09:52:46.999Z</time></trkpt><trkpt lat="51.64793460858918" lon="16.54947974841761"><ele>88.0</ele><time>2026-04-08T09:52:47.999Z</time></trkpt><trkpt lat="51.64779683837702" lon="16.549477952438263"><ele>88.0</ele><time>2026-04-08T09:52:48.999Z</time></trkpt><trkpt lat="51.64768203253431" lon="16.54945572097608"><ele>88.0</ele><time>2026-04-08T09:52:49.999Z</time></trkpt><trkpt lat="51.64758146624044" lon="16.54941975979208"><ele>88.4</ele><time>2026-04-08T09:52:50.999Z</time></trkpt><trkpt lat="51.647482170008686" lon="16.549391195985983"><ele>88.80000000000001</ele><time>2026-04-08T09:52:51.999Z</time></trkpt><trkpt lat="51.64736678786765" lon="16.549367260340134"><ele>89.2</ele><time>2026-04-08T09:52:52.999Z</time></trkpt><trkpt lat="51.64725530117386" lon="16.54932377120486"><ele>89.6</ele><time>2026-04-08T09:52:53.999Z</time></trkpt><trkpt lat="51.64714716670238" lon="16.549293891511915"><ele>90.0</ele><time>2026-04-08T09:52:54.999Z</time></trkpt><trkpt lat="51.647023217599326" lon="16.549275584465992"><ele>90.25</ele><time>2026-04-08T09:52:55.999Z</time></trkpt><trkpt lat="51.646903459395396" lon="16.549306374049795"><ele>90.5</ele><time>2026-04-08T09:52:56.999Z</time></trkpt><trkpt lat="51.64677245946749" lon="16.5493045284544"><ele>90.75</ele><time>2026-04-08T09:52:57.999Z</time></trkpt><trkpt lat="51.646658306061376" lon="16.54932719215504"><ele>91.0</ele><time>2026-04-08T09:52:58.999Z</time></trkpt><trkpt lat="51.64653764124901" lon="16.54931433570613"><ele>91.0</ele><time>2026-04-08T09:52:59.999Z</time></trkpt><trkpt lat="51.646426775636456" lon="16.549315034523108"><ele>91.0</ele><time>2026-04-08T09:53:00.999Z</time></trkpt><trkpt lat="51.64629519082243" lon="16.549321476663597"><ele>91.0</ele><time>2026-04-08T09:53:01.999Z</time></trkpt><trkpt lat="51.646169866169295" lon="16.549325496466807"><ele>91.0</ele><time>2026-04-08T09:53:03Z</time></trkpt><trkpt lat="51.64603677651709" lon="16.549328602932427"><ele>90.5</ele><time>2026-04-08T09:53:04Z</time></trkpt><trkpt lat="51.64590386543905" lon="16.54932309285536"><ele>90.0</ele><time>2026-04-08T09:53:05Z</time></trkpt><trkpt lat="51.6457669269986" lon="16.549320570240504"><ele>89.5</ele><time>2026-04-08T09:53:06Z</time></trkpt><trkpt lat="51.645654168591214" lon="16.54930939594438"><ele>89.0</ele><time>2026-04-08T09:53:07Z</time></trkpt><trkpt lat="51.645547775458965" lon="16.549321314991307"><ele>89.0</ele><time>2026-04-08T09:53:08Z</time></trkpt><trkpt lat="51.64545748377505" lon="16.54928476233257"><ele>89.0</ele><time>2026-04-08T09:53:09Z</time></trkpt><trkpt lat="51.64537584900399" lon="16.549208688165123"><ele>89.0</ele><time>2026-04-08T09:53:10Z</time></trkpt><trkpt lat="51.64527421892556" lon="16.54913862615564"><ele>89.0</ele><time>2026-04-08T09:53:11Z</time></trkpt><trkpt lat="51.645153825254184" lon="16.54909890557157"><ele>89.0</ele><time>2026-04-08T09:53:12Z</time></trkpt><trkpt lat="51.64505366147113" lon="16.549070895885198"><ele>89.25</ele><time>2026-04-08T09:53:13Z</time></trkpt><trkpt lat="51.644921963467425" lon="16.549067980585225"><ele>89.5</ele><time>2026-04-08T09:53:14Z</time></trkpt><trkpt lat="51.644793597833946" lon="16.54909955159027"><ele>89.75</ele><time>2026-04-08T09:53:15Z</time></trkpt><trkpt lat="51.64463901532122" lon="16.549139564330357"><ele>90.0</ele><time>2026-04-08T09:53:16Z</time></trkpt><trkpt lat="51.64449951271877" lon="16.549184258620745"><ele>89.33333333333333</ele><time>2026-04-08T09:53:17Z</time></trkpt><trkpt lat="51.644391033304686" lon="16.549212755382804"><ele>88.66666666666666</ele><time>2026-04-08T09:53:18Z</time></trkpt><trkpt lat="51.644292921432935" lon="16.54926183757914"><ele>88.0</ele><time>2026-04-08T09:53:19Z</time></trkpt><trkpt lat="51.63845416708444" lon="16.54581941132048"><ele>89.5</ele><time>2026-04-08T09:54:21.999Z</time></trkpt><trkpt lat="51.638432896601024" lon="16.545588052626137"><ele>91.0</ele><time>2026-04-08T09:54:22.999Z</time></trkpt><trkpt lat="51.638419960103086" lon="16.545360071704863"><ele>92.5</ele><time>2026-04-08T09:54:23.999Z</time></trkpt><trkpt lat="51.63840760555045" lon="16.545131122647287"><ele>94.0</ele><time>2026-04-08T09:54:24.999Z</time></trkpt><trkpt lat="51.63840482401151" lon="16.544909029981746"><ele>94.33333333333333</ele><time>2026-04-08T09:54:25.999Z</time></trkpt><trkpt lat="51.638370355349515" lon="16.54468474630957"><ele>94.66666666666667</ele><time>2026-04-08T09:54:26.999Z</time></trkpt><trkpt lat="51.638299895524206" lon="16.544454465019957"><ele>95.0</ele><time>2026-04-08T09:54:27.999Z</time></trkpt><trkpt lat="51.638214347550374" lon="16.544249865100213"><ele>94.33333333333334</ele><time>2026-04-08T09:54:28.999Z</time></trkpt><trkpt lat="51.63811137433053" lon="16.54402879715029"><ele>93.66666666666667</ele><time>2026-04-08T09:54:29.999Z</time></trkpt><trkpt lat="51.63800324075651" lon="16.54382333140358"><ele>93.0</ele><time>2026-04-08T09:54:30.999Z</time></trkpt><trkpt lat="51.63790943685797" lon="16.543612115313415"><ele>92.33333333333333</ele><time>2026-04-08T09:54:31.999Z</time></trkpt><trkpt lat="51.63787923583212" lon="16.543374576431074"><ele>91.66666666666666</ele><time>2026-04-08T09:54:32.999Z</time></trkpt><trkpt lat="51.6378505775137" lon="16.543118904696787"><ele>91.0</ele><time>2026-04-08T09:54:33.999Z</time></trkpt><trkpt lat="51.63782082541844" lon="16.542861021477275"><ele>91.0</ele><time>2026-04-08T09:54:34.999Z</time></trkpt><trkpt lat="51.637779166473265" lon="16.542642440232946"><ele>91.0</ele><time>2026-04-08T09:54:35.999Z</time></trkpt><trkpt lat="51.637686904633014" lon="16.542430793683966"><ele>91.0</ele><time>2026-04-08T09:54:36.999Z</time></trkpt><trkpt lat="51.63758052441819" lon="16.54227443710131"><ele>91.0</ele><time>2026-04-08T09:54:37.999Z</time></trkpt><trkpt lat="51.63752692365257" lon="16.54208980291413"><ele>91.4</ele><time>2026-04-08T09:54:38.999Z</time></trkpt><trkpt lat="51.63747799884221" lon="16.541923283621458"><ele>91.8</ele><time>2026-04-08T09:54:39.999Z</time></trkpt><trkpt lat="51.63745662479009" lon="16.54177853211381"><ele>92.2</ele><time>2026-04-08T09:54:40.999Z</time></trkpt><trkpt lat="51.63745737711151" lon="16.541646318747294"><ele>92.60000000000001</ele><time>2026-04-08T09:54:41.999Z</time></trkpt><trkpt lat="51.63747409582013" lon="16.54152238245343"><ele>93.0</ele><time>2026-04-08T09:54:42.999Z</time></trkpt><trkpt lat="51.637490412136664" lon="16.541384345957816"><ele>93.0</ele><time>2026-04-08T09:54:43.999Z</time></trkpt><trkpt lat="51.637503330823094" lon="16.541279119281274"><ele>93.0</ele><time>2026-04-08T09:54:44.999Z</time></trkpt><trkpt lat="51.63751537142754" lon="16.541174882053305"><ele>93.0</ele><time>2026-04-08T09:54:45.999Z</time></trkpt><trkpt lat="51.63737720198073" lon="16.54096733519151"><ele>93.0</ele><time>2026-04-08T09:54:47.999Z</time></trkpt><trkpt lat="51.637285835831065" lon="16.54085987059603"><ele>93.0</ele><time>2026-04-08T09:54:48.999Z</time></trkpt><trkpt lat="51.63718255807511" lon="16.54075167270851"><ele>93.0</ele><time>2026-04-08T09:54:50Z</time></trkpt><trkpt lat="51.637063320037" lon="16.540669751981454"><ele>93.0</ele><time>2026-04-08T09:54:51Z</time></trkpt><trkpt lat="51.63692348074281" lon="16.54065309751478"><ele>93.0</ele><time>2026-04-08T09:54:52Z</time></trkpt><trkpt lat="51.63677689670043" lon="16.540621884189814"><ele>93.0</ele><time>2026-04-08T09:54:53Z</time></trkpt><trkpt lat="51.636629951821845" lon="16.54060703629021"><ele>93.0</ele><time>2026-04-08T09:54:54Z</time></trkpt><trkpt lat="51.636505963067385" lon="16.54055252672363"><ele>93.0</ele><time>2026-04-08T09:54:55Z</time></trkpt><trkpt lat="51.63640172870327" lon="16.540473155976667"><ele>93.0</ele><time>2026-04-08T09:54:56Z</time></trkpt><trkpt lat="51.63633634502287" lon="16.54038080123836"><ele>93.0</ele><time>2026-04-08T09:54:57Z</time></trkpt><trkpt lat="51.63628470663202" lon="16.54029534031273"><ele>93.0</ele><time>2026-04-08T09:54:58Z</time></trkpt><trkpt lat="51.63622154045987" lon="16.54015520352342"><ele>93.0</ele><time>2026-04-08T09:54:59Z</time></trkpt><trkpt lat="51.63614499018598" lon="16.53999010127249"><ele>93.0</ele><time>2026-04-08T09:55:00Z</time></trkpt><trkpt lat="51.63604523968821" lon="16.53984780500191"><ele>93.0</ele><time>2026-04-08T09:55:01Z</time></trkpt><trkpt lat="51.635954105635044" lon="16.539760399861805"><ele>93.0</ele><time>2026-04-08T09:55:02Z</time></trkpt><trkpt lat="51.63580774538116" lon="16.539698382818653"><ele>93.0</ele><time>2026-04-08T09:55:03Z</time></trkpt><trkpt lat="51.635681039942575" lon="16.539610856935468"><ele>93.0</ele><time>2026-04-08T09:55:04Z</time></trkpt><trkpt lat="51.63557327537035" lon="16.53949319424629"><ele>93.0</ele><time>2026-04-08T09:55:05Z</time></trkpt><trkpt lat="51.63550825387418" lon="16.539371212669867"><ele>93.0</ele><time>2026-04-08T09:55:06Z</time></trkpt><trkpt lat="51.63548226803017" lon="16.53924867336968"><ele>93.0</ele><time>2026-04-08T09:55:07Z</time></trkpt><trkpt lat="51.63545484719192" lon="16.53911577916885"><ele>93.33333333333333</ele><time>2026-04-08T09:55:08Z</time></trkpt><trkpt lat="51.63542085049908" lon="16.538954805542783"><ele>93.66666666666666</ele><time>2026-04-08T09:55:09Z</time></trkpt><trkpt lat="51.63535221748974" lon="16.53876696837701"><ele>94.0</ele><time>2026-04-08T09:55:10Z</time></trkpt><trkpt lat="51.635210176679344" lon="16.538402544503114"><ele>94.5</ele><time>2026-04-08T09:55:12Z</time></trkpt><trkpt lat="51.63518105428802" lon="16.538212296622422"><ele>95.0</ele><time>2026-04-08T09:55:13Z</time></trkpt><trkpt lat="51.63514529334363" lon="16.53802148412739"><ele>95.5</ele><time>2026-04-08T09:55:14Z</time></trkpt><trkpt lat="51.63508924253583" lon="16.53779024288555"><ele>96.0</ele><time>2026-04-08T09:55:15Z</time></trkpt><trkpt lat="51.635047772921595" lon="16.537557920732493"><ele>96.66666666666666</ele><time>2026-04-08T09:55:16Z</time></trkpt><trkpt lat="51.63500721731336" lon="16.537314223005183"><ele>97.33333333333333</ele><time>2026-04-08T09:55:17Z</time></trkpt><trkpt lat="51.634948544218204" lon="16.53707941218272"><ele>98.0</ele><time>2026-04-08T09:55:18Z</time></trkpt><trkpt lat="51.63487575889636" lon="16.53684793303848"><ele>97.0</ele><time>2026-04-08T09:55:19Z</time></trkpt><trkpt lat="51.63042273787921" lon="16.529819417724763"><ele>98.0</ele><time>2026-04-08T09:56:20Z</time></trkpt><trkpt lat="51.630264990409216" lon="16.529757497417748"><ele>99.0</ele><time>2026-04-08T09:56:21Z</time></trkpt><trkpt lat="51.63010410290385" lon="16.529702003020784"><ele>100.0</ele><time>2026-04-08T09:56:22Z</time></trkpt><trkpt lat="51.62993661246267" lon="16.529643408414277"><ele>100.0</ele><time>2026-04-08T09:56:23Z</time></trkpt><trkpt lat="51.629754874654886" lon="16.529614263418154"><ele>100.0</ele><time>2026-04-08T09:56:24Z</time></trkpt><trkpt lat="51.629568463530475" lon="16.52957591087764"><ele>100.0</ele><time>2026-04-08T09:56:25Z</time></trkpt><trkpt lat="51.629379451413755" lon="16.529525126295205"><ele>101.0</ele><time>2026-04-08T09:56:26Z</time></trkpt><trkpt lat="51.629190499847475" lon="16.529475534068805"><ele>102.0</ele><time>2026-04-08T09:56:27Z</time></trkpt><trkpt lat="51.628996040043944" lon="16.52942606952319"><ele>103.0</ele><time>2026-04-08T09:56:28Z</time></trkpt><trkpt lat="51.62881790719737" lon="16.529377544212362"><ele>103.0</ele><time>2026-04-08T09:56:29Z</time></trkpt><trkpt lat="51.62865725419088" lon="16.529337204997415"><ele>103.0</ele><time>2026-04-08T09:56:30Z</time></trkpt><trkpt lat="51.6285044152479" lon="16.529298562355685"><ele>103.0</ele><time>2026-04-08T09:56:31Z</time></trkpt><trkpt lat="51.62837257420362" lon="16.529259260819014"><ele>102.75</ele><time>2026-04-08T09:56:32Z</time></trkpt><trkpt lat="51.62824155279478" lon="16.529218405911053"><ele>102.5</ele><time>2026-04-08T09:56:33Z</time></trkpt><trkpt lat="51.62810355291516" lon="16.529176038812327"><ele>102.25</ele><time>2026-04-08T09:56:34Z</time></trkpt><trkpt lat="51.62796667249511" lon="16.52912689358384"><ele>102.0</ele><time>2026-04-08T09:56:35Z</time></trkpt><trkpt lat="51.62782845346193" lon="16.52908848124851"><ele>101.0</ele><time>2026-04-08T09:56:36Z</time></trkpt><trkpt lat="51.6276977772529" lon="16.529052154622565"><ele>100.0</ele><time>2026-04-08T09:56:37Z</time></trkpt><trkpt lat="51.62758235898775" lon="16.528992752971387"><ele>99.0</ele><time>2026-04-08T09:56:38Z</time></trkpt><trkpt lat="51.627459817779574" lon="16.528919241625786"><ele>98.0</ele><time>2026-04-08T09:56:39Z</time></trkpt><trkpt lat="51.62735632721275" lon="16.528845682447308"><ele>98.0</ele><time>2026-04-08T09:56:40Z</time></trkpt><trkpt lat="51.627258853655846" lon="16.528799057046232"><ele>98.0</ele><time>2026-04-08T09:56:41Z</time></trkpt><trkpt lat="51.62718707419141" lon="16.52873092617162"><ele>98.0</ele><time>2026-04-08T09:56:42Z</time></trkpt><trkpt lat="51.62711516364726" lon="16.52869483556075"><ele>98.0</ele><time>2026-04-08T09:56:43Z</time></trkpt><trkpt lat="51.62701791018407" lon="16.52869883778974"><ele>98.0</ele><time>2026-04-08T09:56:44Z</time></trkpt><trkpt lat="51.62690831183062" lon="16.528635115564935"><ele>96.0</ele><time>2026-04-08T09:56:45Z</time></trkpt><trkpt lat="51.62678664592309" lon="16.528592508670634"><ele>94.0</ele><time>2026-04-08T09:56:46Z</time></trkpt><trkpt lat="51.626656213152685" lon="16.52854586252823"><ele>92.0</ele><time>2026-04-08T09:56:47Z</time></trkpt><trkpt lat="51.62652703431003" lon="16.528498161144185"><ele>90.0</ele><time>2026-04-08T09:56:48Z</time></trkpt><trkpt lat="51.62642060196233" lon="16.528458859309303"><ele>90.0</ele><time>2026-04-08T09:56:49Z</time></trkpt><trkpt lat="51.62633065021463" lon="16.528425145352976"><ele>90.0</ele><time>2026-04-08T09:56:50Z</time></trkpt><trkpt lat="51.6262467394592" lon="16.528391907240653"><ele>90.0</ele><time>2026-04-08T09:56:51Z</time></trkpt><trkpt lat="51.626154003771404" lon="16.528369355550012"><ele>90.0</ele><time>2026-04-08T09:56:52Z</time></trkpt><trkpt lat="51.62605666649332" lon="16.528329289179002"><ele>90.0</ele><time>2026-04-08T09:56:53Z</time></trkpt><trkpt lat="51.62595646262254" lon="16.528271538352822"><ele>90.0</ele><time>2026-04-08T09:56:54Z</time></trkpt><trkpt lat="51.625883297849875" lon="16.528164147421837"><ele>90.0</ele><time>2026-04-08T09:56:55Z</time></trkpt><trkpt lat="51.62583024873101" lon="16.52807008837826"><ele>90.0</ele><time>2026-04-08T09:56:56Z</time></trkpt><trkpt lat="51.62577169496421" lon="16.52797537975294"><ele>90.0</ele><time>2026-04-08T09:56:57Z</time></trkpt><trkpt lat="51.62568557357245" lon="16.52787214480863"><ele>90.0</ele><time>2026-04-08T09:56:58Z</time></trkpt><trkpt lat="51.62561981356006" lon="16.52772629869911"><ele>90.2</ele><time>2026-04-08T09:56:59Z</time></trkpt><trkpt lat="51.6255499607309" lon="16.527607270848524"><ele>90.4</ele><time>2026-04-08T09:57:00Z</time></trkpt><trkpt lat="51.625478965551764" lon="16.52752368715023"><ele>90.6</ele><time>2026-04-08T09:57:01Z</time></trkpt><trkpt lat="51.6254151231563" lon="16.527409482777035"><ele>90.8</ele><time>2026-04-08T09:57:02Z</time></trkpt><trkpt lat="51.625354372631705" lon="16.527288356001794"><ele>91.0</ele><time>2026-04-08T09:57:03Z</time></trkpt><trkpt lat="51.62530038836169" lon="16.527188408715123"><ele>91.6</ele><time>2026-04-08T09:57:04Z</time></trkpt><trkpt lat="51.62525845562733" lon="16.527083539339994"><ele>92.19999999999999</ele><time>2026-04-08T09:57:05Z</time></trkpt><trkpt lat="51.62514233031511" lon="16.526959332958196"><ele>92.80000000000001</ele><time>2026-04-08T09:57:07Z</time></trkpt><trkpt lat="51.62506290527535" lon="16.52690451494873"><ele>93.4</ele><time>2026-04-08T09:57:08Z</time></trkpt><trkpt lat="51.624982314613874" lon="16.52681018719462"><ele>94.0</ele><time>2026-04-08T09:57:09Z</time></trkpt><trkpt lat="51.624896638160344" lon="16.526681725087116"><ele>94.0</ele><time>2026-04-08T09:57:10Z</time></trkpt><trkpt lat="51.624810522203745" lon="16.526559521823955"><ele>94.0</ele><time>2026-04-08T09:57:11Z</time></trkpt><trkpt lat="51.624713441786795" lon="16.526419560460788"><ele>94.0</ele><time>2026-04-08T09:57:12Z</time></trkpt><trkpt lat="51.62461063690119" lon="16.52627749038981"><ele>94.0</ele><time>2026-04-08T09:57:13Z</time></trkpt><trkpt lat="51.624499452535645" lon="16.526134063766246"><ele>95.66666666666666</ele><time>2026-04-08T09:57:14Z</time></trkpt><trkpt lat="51.62438223478714" lon="16.525981894370588"><ele>97.33333333333333</ele><time>2026-04-08T09:57:15Z</time></trkpt><trkpt lat="51.62425845653519" lon="16.525808913848223"><ele>99.0</ele><time>2026-04-08T09:57:16Z</time></trkpt><trkpt lat="51.624141568533645" lon="16.525636193410666"><ele>99.0</ele><time>2026-04-08T09:57:17Z</time></trkpt><trkpt lat="51.624044879406945" lon="16.52546989175"><ele>99.0</ele><time>2026-04-08T09:57:18Z</time></trkpt><trkpt lat="51.62393281946257" lon="16.525337431756306"><ele>99.0</ele><time>2026-04-08T09:57:19Z</time></trkpt><trkpt lat="51.6236082588493" lon="16.524876974270217"><ele>98.25</ele><time>2026-04-08T09:57:22Z</time></trkpt><trkpt lat="51.62350653263084" lon="16.524719722513943"><ele>97.5</ele><time>2026-04-08T09:57:23Z</time></trkpt><trkpt lat="51.62340464369708" lon="16.52459732248468"><ele>96.75</ele><time>2026-04-08T09:57:24Z</time></trkpt><trkpt lat="51.62330994332603" lon="16.524456255518366"><ele>96.0</ele><time>2026-04-08T09:57:25Z</time></trkpt><trkpt lat="51.6232143188413" lon="16.52433280918283"><ele>94.75</ele><time>2026-04-08T09:57:26Z</time></trkpt><trkpt lat="51.62310618816605" lon="16.524228234730533"><ele>93.5</ele><time>2026-04-08T09:57:27Z</time></trkpt><trkpt lat="51.62300775379181" lon="16.524098990205346"><ele>92.25</ele><time>2026-04-08T09:57:28Z</time></trkpt><trkpt lat="51.622907256164545" lon="16.523954354975444"><ele>91.0</ele><time>2026-04-08T09:57:29Z</time></trkpt><trkpt lat="51.62279813166028" lon="16.52380175675183"><ele>90.66666666666666</ele><time>2026-04-08T09:57:30Z</time></trkpt><trkpt lat="51.62268992953973" lon="16.5236398823401"><ele>90.33333333333333</ele><time>2026-04-08T09:57:31Z</time></trkpt><trkpt lat="51.62258276242013" lon="16.523480686954382"><ele>90.0</ele><time>2026-04-08T09:57:32Z</time></trkpt><trkpt lat="51.62246533893167" lon="16.523314854187607"><ele>90.0</ele><time>2026-04-08T09:57:33Z</time></trkpt><trkpt lat="51.62234801141751" lon="16.523147222459937"><ele>90.0</ele><time>2026-04-08T09:57:34Z</time></trkpt><trkpt lat="51.622236375430354" lon="16.522993866340162"><ele>90.0</ele><time>2026-04-08T09:57:35Z</time></trkpt><trkpt lat="51.62211726553511" lon="16.522835369948105"><ele>90.0</ele><time>2026-04-08T09:57:36Z</time></trkpt><trkpt lat="51.62199932706944" lon="16.52266804282184"><ele>90.0</ele><time>2026-04-08T09:57:37Z</time></trkpt><trkpt lat="51.62188351477382" lon="16.522502277156338"><ele>90.0</ele><time>2026-04-08T09:57:38Z</time></trkpt><trkpt lat="51.62177513487387" lon="16.522335057196077"><ele>90.0</ele><time>2026-04-08T09:57:39Z</time></trkpt><trkpt lat="51.62165082303169" lon="16.522171978320632"><ele>90.0</ele><time>2026-04-08T09:57:40Z</time></trkpt><trkpt lat="51.62153119838642" lon="16.522003557936507"><ele>90.0</ele><time>2026-04-08T09:57:41Z</time></trkpt><trkpt lat="51.62140854206341" lon="16.52182815227264"><ele>90.0</ele><time>2026-04-08T09:57:42Z</time></trkpt><trkpt lat="51.621277431330824" lon="16.521646918089374"><ele>90.0</ele><time>2026-04-08T09:57:43Z</time></trkpt><trkpt lat="51.62115444240327" lon="16.521472918775117"><ele>90.0</ele><time>2026-04-08T09:57:44Z</time></trkpt><trkpt lat="51.62102671242114" lon="16.521287897101505"><ele>90.0</ele><time>2026-04-08T09:57:45Z</time></trkpt><trkpt lat="51.620893254411136" lon="16.52110293692764"><ele>90.0</ele><time>2026-04-08T09:57:46Z</time></trkpt><trkpt lat="51.620758560542356" lon="16.52092666968053"><ele>90.0</ele><time>2026-04-08T09:57:47Z</time></trkpt><trkpt lat="51.62063085887227" lon="16.520746653189242"><ele>90.0</ele><time>2026-04-08T09:57:48Z</time></trkpt><trkpt lat="51.62050515007686" lon="16.520561131625687"><ele>90.0</ele><time>2026-04-08T09:57:49Z</time></trkpt><trkpt lat="51.62038230446751" lon="16.520381873733076"><ele>90.0</ele><time>2026-04-08T09:57:50Z</time></trkpt><trkpt lat="51.62025345436917" lon="16.520210672890812"><ele>90.5</ele><time>2026-04-08T09:57:51Z</time></trkpt><trkpt lat="51.62013128135177" lon="16.520060852745175"><ele>91.0</ele><time>2026-04-08T09:57:52Z</time></trkpt><trkpt lat="51.620018926422105" lon="16.519920121665614"><ele>91.5</ele><time>2026-04-08T09:57:53Z</time></trkpt><trkpt lat="51.61991572918429" lon="16.519752075661163"><ele>92.0</ele><time>2026-04-08T09:57:54Z</time></trkpt><trkpt lat="51.61980207685562" lon="16.519597334943278"><ele>92.0</ele><time>2026-04-08T09:57:55Z</time></trkpt><trkpt lat="51.61967427668653" lon="16.519444448775953"><ele>92.0</ele><time>2026-04-08T09:57:56Z</time></trkpt><trkpt lat="51.61955365736866" lon="16.519277656633363"><ele>92.0</ele><time>2026-04-08T09:57:57Z</time></trkpt><trkpt lat="51.619436485704995" lon="16.519102729675772"><ele>92.0</ele><time>2026-04-08T09:57:58Z</time></trkpt><trkpt lat="51.61932138737091" lon="16.518938408491824"><ele>92.0</ele><time>2026-04-08T09:57:59Z</time></trkpt><trkpt lat="51.61921230158684" lon="16.518779757418233"><ele>92.0</ele><time>2026-04-08T09:58:00Z</time></trkpt><trkpt lat="51.6191170468247" lon="16.518570416153413"><ele>92.25</ele><time>2026-04-08T09:58:01Z</time></trkpt><trkpt lat="51.61899948433226" lon="16.51840376531463"><ele>92.5</ele><time>2026-04-08T09:58:02Z</time></trkpt><trkpt lat="51.61888435059919" lon="16.51824212413129"><ele>92.75</ele><time>2026-04-08T09:58:03Z</time></trkpt><trkpt lat="51.61878039422298" lon="16.51809679572302"><ele>93.0</ele><time>2026-04-08T09:58:04Z</time></trkpt><trkpt lat="51.61869358668645" lon="16.517975406941357"><ele>93.0</ele><time>2026-04-08T09:58:05Z</time></trkpt><trkpt lat="51.61859819951248" lon="16.517870587014812"><ele>93.0</ele><time>2026-04-08T09:58:06Z</time></trkpt><trkpt lat="51.61849739425449" lon="16.51773398235614"><ele>93.0</ele><time>2026-04-08T09:58:07Z</time></trkpt><trkpt lat="51.61839866828098" lon="16.5175860228657"><ele>93.0</ele><time>2026-04-08T09:58:08Z</time></trkpt><trkpt lat="51.61828942543364" lon="16.517442475544684"><ele>93.0</ele><time>2026-04-08T09:58:09Z</time></trkpt><trkpt lat="51.61818921122714" lon="16.517305182360094"><ele>93.0</ele><time>2026-04-08T09:58:10Z</time></trkpt><trkpt lat="51.61810249445109" lon="16.517183828552074"><ele>93.0</ele><time>2026-04-08T09:58:11Z</time></trkpt><trkpt lat="51.61803551088115" lon="16.517063877718446"><ele>93.0</ele><time>2026-04-08T09:58:12Z</time></trkpt><trkpt lat="51.61796879659253" lon="16.51696233935022"><ele>93.0</ele><time>2026-04-08T09:58:13Z</time></trkpt><trkpt lat="51.617907559101354" lon="16.516869073032083"><ele>93.5</ele><time>2026-04-08T09:58:14Z</time></trkpt><trkpt lat="51.61786063223983" lon="16.516797602708458"><ele>94.0</ele><time>2026-04-08T09:58:15Z</time></trkpt><trkpt lat="51.617802388322026" lon="16.51670888878164"><ele>94.5</ele><time>2026-04-08T09:58:17Z</time></trkpt><trkpt lat="51.61786598022269" lon="16.516558626661833"><ele>95.0</ele><time>2026-04-08T09:58:19Z</time></trkpt><trkpt lat="51.617087915414565" lon="16.51456314086101"><ele>95.4</ele><time>2026-04-08T09:59:20Z</time></trkpt><trkpt lat="51.61700127965883" lon="16.514532651481026"><ele>95.8</ele><time>2026-04-08T09:59:21Z</time></trkpt><trkpt lat="51.616923183434395" lon="16.514482569593387"><ele>96.19999999999999</ele><time>2026-04-08T09:59:22Z</time></trkpt><trkpt lat="51.61684033102031" lon="16.51442047811021"><ele>96.6</ele><time>2026-04-08T09:59:23Z</time></trkpt><trkpt lat="51.61675466740084" lon="16.51434467240661"><ele>97.0</ele><time>2026-04-08T09:59:24Z</time></trkpt><trkpt lat="51.61666066531396" lon="16.51427606399184"><ele>97.0</ele><time>2026-04-08T09:59:25Z</time></trkpt><trkpt lat="51.61656497700019" lon="16.514196086017606"><ele>97.0</ele><time>2026-04-08T09:59:26Z</time></trkpt><trkpt lat="51.61647472167736" lon="16.514099686515856"><ele>97.0</ele><time>2026-04-08T09:59:27Z</time></trkpt><trkpt lat="51.6163856620732" lon="16.514021858531844"><ele>97.0</ele><time>2026-04-08T09:59:28Z</time></trkpt><trkpt lat="51.61630104144877" lon="16.51394858049864"><ele>97.0</ele><time>2026-04-08T09:59:29Z</time></trkpt><trkpt lat="51.61622875878357" lon="16.51387787497191"><ele>97.00000000000001</ele><time>2026-04-08T09:59:30Z</time></trkpt><trkpt lat="51.61615953784959" lon="16.5138149286474"><ele>97.0</ele><time>2026-04-08T09:59:31Z</time></trkpt><trkpt lat="51.616101630556585" lon="16.513737630300923"><ele>97.0</ele><time>2026-04-08T09:59:32Z</time></trkpt><trkpt lat="51.61605891660993" lon="16.51365186123727"><ele>97.0</ele><time>2026-04-08T09:59:33Z</time></trkpt><trkpt lat="51.616017949264446" lon="16.51353273094418"><ele>97.00000000000001</ele><time>2026-04-08T09:59:34Z</time></trkpt><trkpt lat="51.61599838787674" lon="16.513399782291003"><ele>97.0</ele><time>2026-04-08T09:59:35Z</time></trkpt><trkpt lat="51.6160252236778" lon="16.513271171564757"><ele>96.0</ele><time>2026-04-08T09:59:36Z</time></trkpt><trkpt lat="51.616036988843874" lon="16.513141884717726"><ele>95.0</ele><time>2026-04-08T09:59:37Z</time></trkpt><trkpt lat="51.61605008068844" lon="16.513003438718254"><ele>94.0</ele><time>2026-04-08T09:59:38Z</time></trkpt><trkpt lat="51.61605109084908" lon="16.512830220285036"><ele>93.0</ele><time>2026-04-08T09:59:39Z</time></trkpt><trkpt lat="51.616076320253825" lon="16.512647163853615"><ele>92.0</ele><time>2026-04-08T09:59:40Z</time></trkpt><trkpt lat="51.616087688648804" lon="16.512447494107995"><ele>91.5</ele><time>2026-04-08T09:59:41Z</time></trkpt><trkpt lat="51.61609773072602" lon="16.512236760863942"><ele>91.0</ele><time>2026-04-08T09:59:42Z</time></trkpt><trkpt lat="51.616123683440044" lon="16.512036488762465"><ele>90.5</ele><time>2026-04-08T09:59:43Z</time></trkpt><trkpt lat="51.61613751001371" lon="16.511847167551526"><ele>90.0</ele><time>2026-04-08T09:59:44Z</time></trkpt><trkpt lat="51.61614845969086" lon="16.51168447575652"><ele>90.6</ele><time>2026-04-08T09:59:45Z</time></trkpt><trkpt lat="51.61616627204655" lon="16.511512950913644"><ele>91.2</ele><time>2026-04-08T09:59:46Z</time></trkpt><trkpt lat="51.616203517615716" lon="16.511338305747426"><ele>91.80000000000001</ele><time>2026-04-08T09:59:47Z</time></trkpt><trkpt lat="51.61623269566129" lon="16.51116141654625"><ele>92.4</ele><time>2026-04-08T09:59:48Z</time></trkpt><trkpt lat="51.61625892675702" lon="16.51100881747101"><ele>93.0</ele><time>2026-04-08T09:59:49Z</time></trkpt><trkpt lat="51.6162811859609" lon="16.510878333816418"><ele>93.0</ele><time>2026-04-08T09:59:50Z</time></trkpt><trkpt lat="51.616288745653314" lon="16.51075376903491"><ele>93.0</ele><time>2026-04-08T09:59:51Z</time></trkpt><trkpt lat="51.616284803579155" lon="16.510578134258147"><ele>93.0</ele><time>2026-04-08T09:59:53Z</time></trkpt><trkpt lat="51.616237855919856" lon="16.510503630386555"><ele>93.0</ele><time>2026-04-08T09:59:54Z</time></trkpt><trkpt lat="51.61616515444737" lon="16.510428450956624"><ele>93.0</ele><time>2026-04-08T09:59:55Z</time></trkpt><trkpt lat="51.616078520598165" lon="16.510352005890386"><ele>93.0</ele><time>2026-04-08T09:59:56Z</time></trkpt><trkpt lat="51.615975399911896" lon="16.51025056574708"><ele>91.0</ele><time>2026-04-08T09:59:57Z</time></trkpt><trkpt lat="51.61586041163641" lon="16.51014393573008"><ele>89.0</ele><time>2026-04-08T09:59:58Z</time></trkpt><trkpt lat="51.61574266365911" lon="16.510020889294992"><ele>87.0</ele><time>2026-04-08T09:59:59Z</time></trkpt><trkpt lat="51.61561124628191" lon="16.509898539847345"><ele>85.0</ele><time>2026-04-08T10:00:00Z</time></trkpt><trkpt lat="51.61547721338026" lon="16.50977346267119"><ele>85.0</ele><time>2026-04-08T10:00:01Z</time></trkpt><trkpt lat="51.615330052975224" lon="16.50964042872007"><ele>85.0</ele><time>2026-04-08T10:00:02Z</time></trkpt><trkpt lat="51.615192733228234" lon="16.50948546873561"><ele>85.0</ele><time>2026-04-08T10:00:03Z</time></trkpt><trkpt lat="51.61505947521406" lon="16.509362212083627"><ele>85.5</ele><time>2026-04-08T10:00:04Z</time></trkpt><trkpt lat="51.61493391091162" lon="16.509224143262866"><ele>86.0</ele><time>2026-04-08T10:00:05Z</time></trkpt><trkpt lat="51.61482140402998" lon="16.50907168982769"><ele>86.5</ele><time>2026-04-08T10:00:06Z</time></trkpt><trkpt lat="51.61471731967219" lon="16.508905953320696"><ele>87.0</ele><time>2026-04-08T10:00:07Z</time></trkpt><trkpt lat="51.61460854055135" lon="16.50875284644045"><ele>86.75</ele><time>2026-04-08T10:00:08Z</time></trkpt><trkpt lat="51.61452416209264" lon="16.50856272117828"><ele>86.5</ele><time>2026-04-08T10:00:09Z</time></trkpt><trkpt lat="51.61446904453102" lon="16.508341788457997"><ele>86.25</ele><time>2026-04-08T10:00:10Z</time></trkpt><trkpt lat="51.61440440916195" lon="16.50812644580675"><ele>86.0</ele><time>2026-04-08T10:00:11Z</time></trkpt><trkpt lat="51.614337162564055" lon="16.50789869337732"><ele>85.66666666666667</ele><time>2026-04-08T10:00:12Z</time></trkpt><trkpt lat="51.614263088662746" lon="16.507668579163994"><ele>85.33333333333333</ele><time>2026-04-08T10:00:13Z</time></trkpt><trkpt lat="51.61418646386415" lon="16.507442603533878"><ele>85.0</ele><time>2026-04-08T10:00:14Z</time></trkpt><trkpt lat="51.614107492762905" lon="16.507196476341527"><ele>85.0</ele><time>2026-04-08T10:00:15Z</time></trkpt><trkpt lat="51.614017297830486" lon="16.50695621359136"><ele>85.0</ele><time>2026-04-08T10:00:16Z</time></trkpt><trkpt lat="51.61393829583329" lon="16.506701713521082"><ele>85.0</ele><time>2026-04-08T10:00:17Z</time></trkpt><trkpt lat="51.61385656464176" lon="16.50645447770322"><ele>87.0</ele><time>2026-04-08T10:00:18Z</time></trkpt><trkpt lat="51.61376914870017" lon="16.506206581357894"><ele>89.0</ele><time>2026-04-08T10:00:19Z</time></trkpt><trkpt lat="51.60973954100442" lon="16.49768804480607"><ele>89.80000000000001</ele><time>2026-04-08T10:01:20Z</time></trkpt><trkpt lat="51.6097127539488" lon="16.497539068019805"><ele>90.60000000000001</ele><time>2026-04-08T10:01:21Z</time></trkpt><trkpt lat="51.60967840979253" lon="16.497387992805237"><ele>91.4</ele><time>2026-04-08T10:01:22Z</time></trkpt><trkpt lat="51.60963808233582" lon="16.497234755570084"><ele>92.2</ele><time>2026-04-08T10:01:23Z</time></trkpt><trkpt lat="51.6095975730002" lon="16.497076169091134"><ele>93.0</ele><time>2026-04-08T10:01:24Z</time></trkpt><trkpt lat="51.60955751966624" lon="16.49690755317647"><ele>93.0</ele><time>2026-04-08T10:01:25Z</time></trkpt><trkpt lat="51.60951198208322" lon="16.496722975273705"><ele>93.0</ele><time>2026-04-08T10:01:26Z</time></trkpt><trkpt lat="51.609448625014124" lon="16.496544552938403"><ele>93.0</ele><time>2026-04-08T10:01:27Z</time></trkpt><trkpt lat="51.60940068316978" lon="16.496349593439735"><ele>93.0</ele><time>2026-04-08T10:01:28Z</time></trkpt><trkpt lat="51.60935893102554" lon="16.496138930206836"><ele>92.75</ele><time>2026-04-08T10:01:29Z</time></trkpt><trkpt lat="51.60930713938046" lon="16.495945228423587"><ele>92.5</ele><time>2026-04-08T10:01:30Z</time></trkpt><trkpt lat="51.60925098124812" lon="16.495745705399"><ele>92.25</ele><time>2026-04-08T10:01:31Z</time></trkpt><trkpt lat="51.609200361263646" lon="16.495539635657327"><ele>92.0</ele><time>2026-04-08T10:01:32Z</time></trkpt><trkpt lat="51.609115417139336" lon="16.495316569218346"><ele>92.0</ele><time>2026-04-08T10:01:33Z</time></trkpt><trkpt lat="51.609056011273914" lon="16.495099351437045"><ele>92.0</ele><time>2026-04-08T10:01:34Z</time></trkpt><trkpt lat="51.60902204723126" lon="16.494888607264333"><ele>92.0</ele><time>2026-04-08T10:01:35Z</time></trkpt><trkpt lat="51.60898909932157" lon="16.494694868433925"><ele>92.0</ele><time>2026-04-08T10:01:36Z</time></trkpt><trkpt lat="51.608921539565124" lon="16.49451687035027"><ele>91.5</ele><time>2026-04-08T10:01:37Z</time></trkpt><trkpt lat="51.60887599843431" lon="16.49434341301589"><ele>91.0</ele><time>2026-04-08T10:01:38Z</time></trkpt><trkpt lat="51.60882980128133" lon="16.494169962845223"><ele>90.5</ele><time>2026-04-08T10:01:39Z</time></trkpt><trkpt lat="51.608781631255816" lon="16.49400435863708"><ele>90.0</ele><time>2026-04-08T10:01:40Z</time></trkpt><trkpt lat="51.608743186713234" lon="16.493834425666854"><ele>89.75</ele><time>2026-04-08T10:01:41Z</time></trkpt><trkpt lat="51.60870265935404" lon="16.493668122155086"><ele>89.5</ele><time>2026-04-08T10:01:42Z</time></trkpt><trkpt lat="51.60865330385752" lon="16.49350296805362"><ele>89.25</ele><time>2026-04-08T10:01:43Z</time></trkpt><trkpt lat="51.608605266182515" lon="16.493328602417563"><ele>89.0</ele><time>2026-04-08T10:01:44Z</time></trkpt><trkpt lat="51.60855831202769" lon="16.4931523473235"><ele>89.0</ele><time>2026-04-08T10:01:45Z</time></trkpt><trkpt lat="51.60849196073402" lon="16.492973703291383"><ele>89.0</ele><time>2026-04-08T10:01:46Z</time></trkpt><trkpt lat="51.60843636327631" lon="16.492764175193532"><ele>89.0</ele><time>2026-04-08T10:01:47Z</time></trkpt><trkpt lat="51.608387183169626" lon="16.49253831095338"><ele>89.0</ele><time>2026-04-08T10:01:48Z</time></trkpt><trkpt lat="51.608331509056214" lon="16.4923100941006"><ele>89.25</ele><time>2026-04-08T10:01:49Z</time></trkpt><trkpt lat="51.60827007664934" lon="16.492073434224135"><ele>89.5</ele><time>2026-04-08T10:01:50Z</time></trkpt><trkpt lat="51.608203806927925" lon="16.491858808929727"><ele>89.75</ele><time>2026-04-08T10:01:51Z</time></trkpt><trkpt lat="51.608147229239115" lon="16.491676903839206"><ele>90.0</ele><time>2026-04-08T10:01:52Z</time></trkpt><trkpt lat="51.60811174574112" lon="16.491502022283843"><ele>90.0</ele><time>2026-04-08T10:01:53Z</time></trkpt><trkpt lat="51.60808246172313" lon="16.49130434710516"><ele>90.0</ele><time>2026-04-08T10:01:54Z</time></trkpt><trkpt lat="51.60801567365156" lon="16.491110633232104"><ele>90.0</ele><time>2026-04-08T10:01:55Z</time></trkpt><trkpt lat="51.60796041336566" lon="16.490893252393057"><ele>90.0</ele><time>2026-04-08T10:01:56Z</time></trkpt><trkpt lat="51.607903282310644" lon="16.49068512536384"><ele>90.5</ele><time>2026-04-08T10:01:57Z</time></trkpt><trkpt lat="51.60784570127127" lon="16.490469794207478"><ele>91.0</ele><time>2026-04-08T10:01:58Z</time></trkpt><trkpt lat="51.607787932878495" lon="16.490267477307174"><ele>91.5</ele><time>2026-04-08T10:01:59Z</time></trkpt><trkpt lat="51.607740254948645" lon="16.49008070799247"><ele>92.0</ele><time>2026-04-08T10:02:00Z</time></trkpt><trkpt lat="51.60769246309617" lon="16.489898882997878"><ele>91.0</ele><time>2026-04-08T10:02:01Z</time></trkpt><trkpt lat="51.60765005767421" lon="16.489715335932818"><ele>90.0</ele><time>2026-04-08T10:02:02Z</time></trkpt><trkpt lat="51.607595121813596" lon="16.489555578324502"><ele>89.0</ele><time>2026-04-08T10:02:03Z</time></trkpt><trkpt lat="51.60755747634179" lon="16.489383293202113"><ele>88.0</ele><time>2026-04-08T10:02:04Z</time></trkpt><trkpt lat="51.60751504721174" lon="16.489199907924707"><ele>87.60000000000001</ele><time>2026-04-08T10:02:05Z</time></trkpt><trkpt lat="51.607469014378474" lon="16.489011546037084"><ele>87.2</ele><time>2026-04-08T10:02:06Z</time></trkpt><trkpt lat="51.607433890710475" lon="16.488863787338566"><ele>86.8</ele><time>2026-04-08T10:02:07Z</time></trkpt><trkpt lat="51.60738884008051" lon="16.488714941024142"><ele>86.4</ele><time>2026-04-08T10:02:08Z</time></trkpt><trkpt lat="51.607351654752506" lon="16.48856493500867"><ele>86.0</ele><time>2026-04-08T10:02:09Z</time></trkpt><trkpt lat="51.60730716994912" lon="16.488386692672574"><ele>85.75</ele><time>2026-04-08T10:02:10Z</time></trkpt><trkpt lat="51.607267450856206" lon="16.488186014542222"><ele>85.5</ele><time>2026-04-08T10:02:11Z</time></trkpt><trkpt lat="51.607227853575175" lon="16.487975662996348"><ele>85.25</ele><time>2026-04-08T10:02:12Z</time></trkpt><trkpt lat="51.6072032183111" lon="16.487761795185566"><ele>85.0</ele><time>2026-04-08T10:02:13Z</time></trkpt><trkpt lat="51.607164359912204" lon="16.487544778727763"><ele>85.0</ele><time>2026-04-08T10:02:14Z</time></trkpt><trkpt lat="51.60711965771528" lon="16.487308806772557"><ele>85.0</ele><time>2026-04-08T10:02:15Z</time></trkpt><trkpt lat="51.607074811803656" lon="16.48708708662857"><ele>85.0</ele><time>2026-04-08T10:02:16Z</time></trkpt><trkpt lat="51.607024161600954" lon="16.486918373835348"><ele>85.0</ele><time>2026-04-08T10:02:17Z</time></trkpt><trkpt lat="51.60697395525212" lon="16.48676502053043"><ele>89.5</ele><time>2026-04-08T10:02:18Z</time></trkpt><trkpt lat="51.60692839393032" lon="16.48661685322722"><ele>94.0</ele><time>2026-04-08T10:02:19Z</time></trkpt><trkpt lat="51.60300592190997" lon="16.47467335498755"><ele>94.75</ele><time>2026-04-08T10:03:20Z</time></trkpt><trkpt lat="51.60295952579465" lon="16.474453410094622"><ele>95.5</ele><time>2026-04-08T10:03:21Z</time></trkpt><trkpt lat="51.60290946576309" lon="16.474231581608255"><ele>96.25</ele><time>2026-04-08T10:03:22Z</time></trkpt><trkpt lat="51.602859600611566" lon="16.474007712652366"><ele>97.0</ele><time>2026-04-08T10:03:23Z</time></trkpt><trkpt lat="51.60282391715282" lon="16.47380935236986"><ele>96.6</ele><time>2026-04-08T10:03:24Z</time></trkpt><trkpt lat="51.60279789749981" lon="16.473645511192405"><ele>96.19999999999999</ele><time>2026-04-08T10:03:25Z</time></trkpt><trkpt lat="51.60277003968363" lon="16.47347789192629"><ele>95.8</ele><time>2026-04-08T10:03:26Z</time></trkpt><trkpt lat="51.60273734055063" lon="16.47334085518229"><ele>95.4</ele><time>2026-04-08T10:03:27Z</time></trkpt><trkpt lat="51.6026958167741" lon="16.473194550941834"><ele>95.0</ele><time>2026-04-08T10:03:28Z</time></trkpt><trkpt lat="51.602646252111136" lon="16.473032076023415"><ele>95.25</ele><time>2026-04-08T10:03:29Z</time></trkpt><trkpt lat="51.60261517825065" lon="16.47285224051957"><ele>95.5</ele><time>2026-04-08T10:03:30Z</time></trkpt><trkpt lat="51.60257841877281" lon="16.472677506404782"><ele>95.75</ele><time>2026-04-08T10:03:31Z</time></trkpt><trkpt lat="51.6025422988231" lon="16.47249462417102"><ele>96.0</ele><time>2026-04-08T10:03:32Z</time></trkpt><trkpt lat="51.602508703250294" lon="16.472311055070115"><ele>96.0</ele><time>2026-04-08T10:03:33Z</time></trkpt><trkpt lat="51.60246870675908" lon="16.47212969593405"><ele>96.0</ele><time>2026-04-08T10:03:34Z</time></trkpt><trkpt lat="51.60243274623374" lon="16.471936541974483"><ele>96.0</ele><time>2026-04-08T10:03:35Z</time></trkpt><trkpt lat="51.6023982673155" lon="16.471734653678183"><ele>96.0</ele><time>2026-04-08T10:03:36Z</time></trkpt><trkpt lat="51.60237029982371" lon="16.471530628583626"><ele>96.4</ele><time>2026-04-08T10:03:37Z</time></trkpt><trkpt lat="51.60233834095787" lon="16.471332899938258"><ele>96.8</ele><time>2026-04-08T10:03:38Z</time></trkpt><trkpt lat="51.60230367187464" lon="16.471165417430388"><ele>97.2</ele><time>2026-04-08T10:03:39Z</time></trkpt><trkpt lat="51.60227288315456" lon="16.471004550491568"><ele>97.60000000000001</ele><time>2026-04-08T10:03:40Z</time></trkpt><trkpt lat="51.60224264748283" lon="16.47083876572034"><ele>98.0</ele><time>2026-04-08T10:03:41Z</time></trkpt><trkpt lat="51.60221441274315" lon="16.470665835808074"><ele>98.0</ele><time>2026-04-08T10:03:42Z</time></trkpt><trkpt lat="51.602172811067184" lon="16.470483234349786"><ele>98.0</ele><time>2026-04-08T10:03:43Z</time></trkpt><trkpt lat="51.60215071587762" lon="16.470282914224054"><ele>98.0</ele><time>2026-04-08T10:03:44Z</time></trkpt><trkpt lat="51.60211425188809" lon="16.47008425788646"><ele>98.0</ele><time>2026-04-08T10:03:45Z</time></trkpt><trkpt lat="51.60209006769024" lon="16.469917153844765"><ele>97.80000000000001</ele><time>2026-04-08T10:03:46Z</time></trkpt><trkpt lat="51.60206839514042" lon="16.469776355873826"><ele>97.6</ele><time>2026-04-08T10:03:47Z</time></trkpt><trkpt lat="51.60205590243872" lon="16.46966236292299"><ele>97.4</ele><time>2026-04-08T10:03:48Z</time></trkpt><trkpt lat="51.60202039973106" lon="16.469497297905413"><ele>97.19999999999999</ele><time>2026-04-08T10:03:49Z</time></trkpt><trkpt lat="51.60198698035863" lon="16.469322172127796"><ele>97.0</ele><time>2026-04-08T10:03:50Z</time></trkpt><trkpt lat="51.60193774501383" lon="16.469132417767682"><ele>97.0</ele><time>2026-04-08T10:03:51Z</time></trkpt><trkpt lat="51.60189803636918" lon="16.468916613165902"><ele>97.0</ele><time>2026-04-08T10:03:52Z</time></trkpt><trkpt lat="51.60183671412256" lon="16.46872882978841"><ele>97.0</ele><time>2026-04-08T10:03:53Z</time></trkpt><trkpt lat="51.601791232050275" lon="16.468551344959494"><ele>97.0</ele><time>2026-04-08T10:03:54Z</time></trkpt><trkpt lat="51.60177223522578" lon="16.46835251499839"><ele>96.5</ele><time>2026-04-08T10:03:55Z</time></trkpt><trkpt lat="51.60173772665171" lon="16.468155965275148"><ele>96.0</ele><time>2026-04-08T10:03:56Z</time></trkpt><trkpt lat="51.60170992520967" lon="16.46797934682496"><ele>95.5</ele><time>2026-04-08T10:03:57Z</time></trkpt><trkpt lat="51.601678017988554" lon="16.467811202438764"><ele>95.0</ele><time>2026-04-08T10:03:58Z</time></trkpt><trkpt lat="51.60164839744594" lon="16.46762190681641"><ele>95.0</ele><time>2026-04-08T10:03:59Z</time></trkpt><trkpt lat="51.6016056260759" lon="16.467415115703197"><ele>95.0</ele><time>2026-04-08T10:04:00Z</time></trkpt><trkpt lat="51.601556138040245" lon="16.46721648662301"><ele>95.0</ele><time>2026-04-08T10:04:01Z</time></trkpt><trkpt lat="51.601503469491604" lon="16.46700737730641"><ele>95.0</ele><time>2026-04-08T10:04:02Z</time></trkpt><trkpt lat="51.601476756626404" lon="16.46680368687692"><ele>95.0</ele><time>2026-04-08T10:04:03Z</time></trkpt><trkpt lat="51.601461261258116" lon="16.46658943553341"><ele>95.0</ele><time>2026-04-08T10:04:04Z</time></trkpt><trkpt lat="51.60144906371586" lon="16.466364431830634"><ele>95.0</ele><time>2026-04-08T10:04:05Z</time></trkpt><trkpt lat="51.60142478347168" lon="16.466114181155667"><ele>95.0</ele><time>2026-04-08T10:04:06Z</time></trkpt><trkpt lat="51.601415912069236" lon="16.465866516145624"><ele>95.33333333333334</ele><time>2026-04-08T10:04:07Z</time></trkpt><trkpt lat="51.601405606639794" lon="16.465612807770846"><ele>95.66666666666667</ele><time>2026-04-08T10:04:08Z</time></trkpt><trkpt lat="51.60138676532372" lon="16.465362733083488"><ele>96.0</ele><time>2026-04-08T10:04:09Z</time></trkpt><trkpt lat="51.60137239956928" lon="16.46511785100915"><ele>96.0</ele><time>2026-04-08T10:04:10Z</time></trkpt><trkpt lat="51.601358241214" lon="16.46485890504996"><ele>96.0</ele><time>2026-04-08T10:04:11Z</time></trkpt><trkpt lat="51.601336466543344" lon="16.464601488007347"><ele>96.0</ele><time>2026-04-08T10:04:12Z</time></trkpt><trkpt lat="51.6013146165674" lon="16.464335915125076"><ele>95.5</ele><time>2026-04-08T10:04:13Z</time></trkpt><trkpt lat="51.60132226251918" lon="16.464091462964397"><ele>95.0</ele><time>2026-04-08T10:04:14Z</time></trkpt><trkpt lat="51.601314844564435" lon="16.463867180536756"><ele>94.5</ele><time>2026-04-08T10:04:15Z</time></trkpt><trkpt lat="51.60129124464306" lon="16.463661314470425"><ele>94.0</ele><time>2026-04-08T10:04:16Z</time></trkpt><trkpt lat="51.601274405180305" lon="16.463461343710843"><ele>93.66666666666666</ele><time>2026-04-08T10:04:17Z</time></trkpt><trkpt lat="51.60126928942558" lon="16.46326993349594"><ele>93.33333333333333</ele><time>2026-04-08T10:04:18Z</time></trkpt><trkpt lat="51.60125971007223" lon="16.46306841871836"><ele>93.0</ele><time>2026-04-08T10:04:19Z</time></trkpt><trkpt lat="51.601821889510326" lon="16.45231846849732"><ele>82.0</ele><time>2026-04-08T10:05:20Z</time></trkpt><trkpt lat="51.607284084933205" lon="16.453700136997934"><ele>82.0</ele><time>2026-04-08T10:07:20Z</time></trkpt><trkpt lat="51.607394580438346" lon="16.453711525605936"><ele>82.0</ele><time>2026-04-08T10:07:21Z</time></trkpt><trkpt lat="51.607518974994285" lon="16.453710235196898"><ele>82.0</ele><time>2026-04-08T10:07:22Z</time></trkpt><trkpt lat="51.60761703516028" lon="16.453729143346166"><ele>82.0</ele><time>2026-04-08T10:07:23Z</time></trkpt><trkpt lat="51.607730575780906" lon="16.45374667520217"><ele>82.0</ele><time>2026-04-08T10:07:24Z</time></trkpt><trkpt lat="51.607843789909" lon="16.453768915583478"><ele>82.0</ele><time>2026-04-08T10:07:25Z</time></trkpt><trkpt lat="51.60796418513026" lon="16.45379005678367"><ele>82.0</ele><time>2026-04-08T10:07:26Z</time></trkpt><trkpt lat="51.60807369413394" lon="16.45381396929763"><ele>82.0</ele><time>2026-04-08T10:07:27Z</time></trkpt><trkpt lat="51.60816884927157" lon="16.453823544865344"><ele>82.0</ele><time>2026-04-08T10:07:28Z</time></trkpt><trkpt lat="51.60825234238183" lon="16.453835984474487"><ele>82.0</ele><time>2026-04-08T10:07:29Z</time></trkpt><trkpt lat="51.60833781138555" lon="16.453854712553564"><ele>82.0</ele><time>2026-04-08T10:07:30Z</time></trkpt><trkpt lat="51.60841605228271" lon="16.453869412683094"><ele>82.0</ele><time>2026-04-08T10:07:31Z</time></trkpt><trkpt lat="51.60847890173329" lon="16.45385943979124"><ele>82.0</ele><time>2026-04-08T10:07:32Z</time></trkpt><trkpt lat="51.608572068731" lon="16.453887997650423"><ele>82.0</ele><time>2026-04-08T10:07:34Z</time></trkpt><trkpt lat="51.608692723457004" lon="16.453920418488394"><ele>82.0</ele><time>2026-04-08T10:07:36Z</time></trkpt><trkpt lat="51.60881822424585" lon="16.453940406643845"><ele>82.0</ele><time>2026-04-08T10:07:38Z</time></trkpt><trkpt lat="51.60888428078802" lon="16.453959825211093"><ele>82.0</ele><time>2026-04-08T10:07:39Z</time></trkpt><trkpt lat="51.608970021514594" lon="16.45395333677807"><ele>82.0</ele><time>2026-04-08T10:07:40Z</time></trkpt><trkpt lat="51.60905985714554" lon="16.453972542423735"><ele>82.0</ele><time>2026-04-08T10:07:41Z</time></trkpt><trkpt lat="51.60913912292215" lon="16.453984006720166"><ele>82.0</ele><time>2026-04-08T10:07:42Z</time></trkpt><trkpt lat="51.6092155696943" lon="16.45395682023871"><ele>82.0</ele><time>2026-04-08T10:07:43Z</time></trkpt><trkpt lat="51.60928591152858" lon="16.453940982854803"><ele>82.0</ele><time>2026-04-08T10:07:44Z</time></trkpt><trkpt lat="51.609359253085465" lon="16.453931980976055"><ele>82.0</ele><time>2026-04-08T10:07:45Z</time></trkpt><trkpt lat="51.60943875854763" lon="16.45395029527052"><ele>82.0</ele><time>2026-04-08T10:07:46Z</time></trkpt><trkpt lat="51.60952181217331" lon="16.453973868385074"><ele>82.0</ele><time>2026-04-08T10:07:47Z</time></trkpt><trkpt lat="51.609603738909215" lon="16.454012605748066"><ele>82.0</ele><time>2026-04-08T10:07:48Z</time></trkpt><trkpt lat="51.609687926493216" lon="16.454063876634716"><ele>82.0</ele><time>2026-04-08T10:07:49Z</time></trkpt><trkpt lat="51.60976393656432" lon="16.45411352250666"><ele>82.39999999999999</ele><time>2026-04-08T10:07:50Z</time></trkpt><trkpt lat="51.60985168907166" lon="16.454140665351357"><ele>82.8</ele><time>2026-04-08T10:07:51Z</time></trkpt><trkpt lat="51.60995190029505" lon="16.454152175776432"><ele>83.2</ele><time>2026-04-08T10:07:52Z</time></trkpt><trkpt lat="51.610050026630994" lon="16.454156307257932"><ele>83.6</ele><time>2026-04-08T10:07:53Z</time></trkpt><trkpt lat="51.61014757104831" lon="16.454138015080346"><ele>84.0</ele><time>2026-04-08T10:07:54Z</time></trkpt><trkpt lat="51.610249486658425" lon="16.454105133527595"><ele>84.6</ele><time>2026-04-08T10:07:55Z</time></trkpt><trkpt lat="51.61035500626403" lon="16.454081209824224"><ele>85.2</ele><time>2026-04-08T10:07:56Z</time></trkpt><trkpt lat="51.61046386863627" lon="16.454072299972633"><ele>85.8</ele><time>2026-04-08T10:07:57Z</time></trkpt><trkpt lat="51.61057408846805" lon="16.45404083306418"><ele>86.39999999999999</ele><time>2026-04-08T10:07:58Z</time></trkpt><trkpt lat="51.61069306491727" lon="16.454001016799058"><ele>87.0</ele><time>2026-04-08T10:07:59Z</time></trkpt><trkpt lat="51.610818025280516" lon="16.4539450923198"><ele>87.0</ele><time>2026-04-08T10:08:00Z</time></trkpt><trkpt lat="51.61094424214271" lon="16.453889486430846"><ele>87.0</ele><time>2026-04-08T10:08:01Z</time></trkpt><trkpt lat="51.61106364692765" lon="16.45382914949093"><ele>87.0</ele><time>2026-04-08T10:08:02Z</time></trkpt><trkpt lat="51.61117983185724" lon="16.453771658585445"><ele>87.0</ele><time>2026-04-08T10:08:03Z</time></trkpt><trkpt lat="51.611281953096935" lon="16.453707268479118"><ele>86.39999999999999</ele><time>2026-04-08T10:08:04Z</time></trkpt><trkpt lat="51.61138167232853" lon="16.453662665265444"><ele>85.8</ele><time>2026-04-08T10:08:05Z</time></trkpt><trkpt lat="51.6114765908212" lon="16.45363853793729"><ele>85.2</ele><time>2026-04-08T10:08:06Z</time></trkpt><trkpt lat="51.611569758804464" lon="16.45362714827187"><ele>84.6</ele><time>2026-04-08T10:08:07Z</time></trkpt><trkpt lat="51.611662625037035" lon="16.45361748352606"><ele>84.0</ele><time>2026-04-08T10:08:08Z</time></trkpt><trkpt lat="51.611755008119836" lon="16.453592029025575"><ele>84.0</ele><time>2026-04-08T10:08:09Z</time></trkpt><trkpt lat="51.61184079957871" lon="16.453550517792852"><ele>84.0</ele><time>2026-04-08T10:08:10Z</time></trkpt><trkpt lat="51.61192915562905" lon="16.453505089248385"><ele>84.0</ele><time>2026-04-08T10:08:11Z</time></trkpt><trkpt lat="51.61201771348344" lon="16.453433860946312"><ele>84.0</ele><time>2026-04-08T10:08:12Z</time></trkpt><trkpt lat="51.612117405989856" lon="16.45337864403377"><ele>84.0</ele><time>2026-04-08T10:08:13Z</time></trkpt><trkpt lat="51.61221527928008" lon="16.453344868411577"><ele>84.0</ele><time>2026-04-08T10:08:14Z</time></trkpt><trkpt lat="51.6123107339054" lon="16.453315129589594"><ele>84.0</ele><time>2026-04-08T10:08:15Z</time></trkpt><trkpt lat="51.61238341856172" lon="16.45328674198488"><ele>84.0</ele><time>2026-04-08T10:08:16Z</time></trkpt><trkpt lat="51.612454284545755" lon="16.453225790101712"><ele>84.0</ele><time>2026-04-08T10:08:17Z</time></trkpt><trkpt lat="51.61253920415396" lon="16.453190111479945"><ele>84.0</ele><time>2026-04-08T10:08:18Z</time></trkpt><trkpt lat="51.61261814520053" lon="16.453159350512447"><ele>84.0</ele><time>2026-04-08T10:08:19Z</time></trkpt><trkpt lat="51.61613193570725" lon="16.442260609121803"><ele>85.2</ele><time>2026-04-08T10:09:20Z</time></trkpt><trkpt lat="51.61616207584248" lon="16.442142747515845"><ele>86.4</ele><time>2026-04-08T10:09:21Z</time></trkpt><trkpt lat="51.616195938512554" lon="16.442019924219625"><ele>87.6</ele><time>2026-04-08T10:09:22Z</time></trkpt><trkpt lat="51.616237992235405" lon="16.441879270198058"><ele>88.8</ele><time>2026-04-08T10:09:23Z</time></trkpt><trkpt lat="51.61627777859936" lon="16.441732059144247"><ele>90.0</ele><time>2026-04-08T10:09:24Z</time></trkpt><trkpt lat="51.61632700302839" lon="16.441564214576168"><ele>90.0</ele><time>2026-04-08T10:09:25Z</time></trkpt><trkpt lat="51.616376233631264" lon="16.441398869162562"><ele>90.0</ele><time>2026-04-08T10:09:26Z</time></trkpt><trkpt lat="51.61642414378711" lon="16.44123027201809"><ele>90.0</ele><time>2026-04-08T10:09:27Z</time></trkpt><trkpt lat="51.61646970443902" lon="16.441060172261867"><ele>90.0</ele><time>2026-04-08T10:09:28Z</time></trkpt><trkpt lat="51.61652191715886" lon="16.44090508021858"><ele>89.6</ele><time>2026-04-08T10:09:29Z</time></trkpt><trkpt lat="51.61656814749517" lon="16.44075860038334"><ele>89.2</ele><time>2026-04-08T10:09:30Z</time></trkpt><trkpt lat="51.61661539262631" lon="16.440619335728595"><ele>88.80000000000001</ele><time>2026-04-08T10:09:31Z</time></trkpt><trkpt lat="51.6166640006587" lon="16.44046790889495"><ele>88.4</ele><time>2026-04-08T10:09:32Z</time></trkpt><trkpt lat="51.616710390154545" lon="16.440313064749382"><ele>88.0</ele><time>2026-04-08T10:09:33Z</time></trkpt><trkpt lat="51.61676297956665" lon="16.440154874397873"><ele>88.4</ele><time>2026-04-08T10:09:34Z</time></trkpt><trkpt lat="51.61682072946803" lon="16.439996461783764"><ele>88.80000000000001</ele><time>2026-04-08T10:09:35Z</time></trkpt><trkpt lat="51.616875095283625" lon="16.439837655159568"><ele>89.2</ele><time>2026-04-08T10:09:36Z</time></trkpt><trkpt lat="51.616933195750086" lon="16.43969063662564"><ele>89.6</ele><time>2026-04-08T10:09:37Z</time></trkpt><trkpt lat="51.616965776756416" lon="16.43954618949131"><ele>90.0</ele><time>2026-04-08T10:09:38Z</time></trkpt><trkpt lat="51.61700912744267" lon="16.439389590634946"><ele>90.0</ele><time>2026-04-08T10:09:39Z</time></trkpt><trkpt lat="51.61704449162509" lon="16.439229729041504"><ele>90.0</ele><time>2026-04-08T10:09:40Z</time></trkpt><trkpt lat="51.617082481470405" lon="16.43908444986736"><ele>90.0</ele><time>2026-04-08T10:09:41Z</time></trkpt><trkpt lat="51.61712562571698" lon="16.438951980003853"><ele>90.0</ele><time>2026-04-08T10:09:42Z</time></trkpt><trkpt lat="51.61716901910838" lon="16.438810798207918"><ele>90.0</ele><time>2026-04-08T10:09:43Z</time></trkpt><trkpt lat="51.617215077505534" lon="16.438672410023614"><ele>89.2</ele><time>2026-04-08T10:09:44Z</time></trkpt><trkpt lat="51.61726475265448" lon="16.438540148609107"><ele>88.4</ele><time>2026-04-08T10:09:45Z</time></trkpt><trkpt lat="51.61732240636079" lon="16.43842991990036"><ele>87.6</ele><time>2026-04-08T10:09:46Z</time></trkpt><trkpt lat="51.61739248834181" lon="16.438324559919334"><ele>86.8</ele><time>2026-04-08T10:09:47Z</time></trkpt><trkpt lat="51.6174734070106" lon="16.438212860231282"><ele>86.0</ele><time>2026-04-08T10:09:48Z</time></trkpt><trkpt lat="51.61755799321316" lon="16.438091689534232"><ele>86.5</ele><time>2026-04-08T10:09:49Z</time></trkpt><trkpt lat="51.61765514459375" lon="16.437956202370735"><ele>87.0</ele><time>2026-04-08T10:09:50Z</time></trkpt><trkpt lat="51.61775666121635" lon="16.437805470513908"><ele>87.5</ele><time>2026-04-08T10:09:51Z</time></trkpt><trkpt lat="51.61786634822408" lon="16.437658889381424"><ele>88.0</ele><time>2026-04-08T10:09:52Z</time></trkpt><trkpt lat="51.61797772148552" lon="16.43755249032289"><ele>88.0</ele><time>2026-04-08T10:09:53Z</time></trkpt><trkpt lat="51.61809008324613" lon="16.43744473984955"><ele>88.0</ele><time>2026-04-08T10:09:54Z</time></trkpt><trkpt lat="51.61821214684513" lon="16.437307182384053"><ele>88.0</ele><time>2026-04-08T10:09:55Z</time></trkpt><trkpt lat="51.61833551735075" lon="16.43718405877312"><ele>88.0</ele><time>2026-04-08T10:09:56Z</time></trkpt><trkpt lat="51.61843984519263" lon="16.437074656544578"><ele>88.25</ele><time>2026-04-08T10:09:57Z</time></trkpt><trkpt lat="51.61854700668288" lon="16.436967959147882"><ele>88.5</ele><time>2026-04-08T10:09:58Z</time></trkpt><trkpt lat="51.618647982611655" lon="16.43683707580585"><ele>88.75</ele><time>2026-04-08T10:09:59Z</time></trkpt><trkpt lat="51.61875071201092" lon="16.436722599879694"><ele>89.0</ele><time>2026-04-08T10:10:00Z</time></trkpt><trkpt lat="51.61885324724565" lon="16.43661447614608"><ele>89.0</ele><time>2026-04-08T10:10:01Z</time></trkpt><trkpt lat="51.6189528251141" lon="16.43649782231223"><ele>89.0</ele><time>2026-04-08T10:10:02Z</time></trkpt><trkpt lat="51.61905661320873" lon="16.43637785298173"><ele>89.0</ele><time>2026-04-08T10:10:03Z</time></trkpt><trkpt lat="51.61916667507057" lon="16.43625298387177"><ele>89.0</ele><time>2026-04-08T10:10:04Z</time></trkpt><trkpt lat="51.61928270462488" lon="16.436144544145762"><ele>88.75</ele><time>2026-04-08T10:10:05Z</time></trkpt><trkpt lat="51.61939119470825" lon="16.436008195302232"><ele>88.5</ele><time>2026-04-08T10:10:06Z</time></trkpt><trkpt lat="51.619494468156624" lon="16.435887370844753"><ele>88.25</ele><time>2026-04-08T10:10:07Z</time></trkpt><trkpt lat="51.619576597288216" lon="16.435775761060402"><ele>88.0</ele><time>2026-04-08T10:10:08Z</time></trkpt><trkpt lat="51.619663508961246" lon="16.43567199644281"><ele>88.0</ele><time>2026-04-08T10:10:09Z</time></trkpt><trkpt lat="51.61975590597755" lon="16.435575708178277"><ele>88.0</ele><time>2026-04-08T10:10:10Z</time></trkpt><trkpt lat="51.61984769902311" lon="16.435482591761712"><ele>88.0</ele><time>2026-04-08T10:10:11Z</time></trkpt><trkpt lat="51.61993591049571" lon="16.435418154326086"><ele>88.0</ele><time>2026-04-08T10:10:12Z</time></trkpt><trkpt lat="51.620021663193185" lon="16.43539809727672"><ele>88.0</ele><time>2026-04-08T10:10:13Z</time></trkpt><trkpt lat="51.62011078396619" lon="16.43538302325346"><ele>87.60000000000001</ele><time>2026-04-08T10:10:14Z</time></trkpt><trkpt lat="51.62021499049369" lon="16.435374525897135"><ele>87.2</ele><time>2026-04-08T10:10:15Z</time></trkpt><trkpt lat="51.620320605193925" lon="16.435346595273426"><ele>86.8</ele><time>2026-04-08T10:10:16Z</time></trkpt><trkpt lat="51.620427115171964" lon="16.435322425416327"><ele>86.4</ele><time>2026-04-08T10:10:17Z</time></trkpt><trkpt lat="51.620531109959536" lon="16.435298365377832"><ele>86.0</ele><time>2026-04-08T10:10:18Z</time></trkpt><trkpt lat="51.620639217352824" lon="16.43525572628934"><ele>85.0</ele><time>2026-04-08T10:10:19Z</time></trkpt><trkpt lat="51.62499227067977" lon="16.436736083114443"><ele>85.0</ele><time>2026-04-08T10:11:20Z</time></trkpt><trkpt lat="51.62504911173479" lon="16.43679018765413"><ele>85.0</ele><time>2026-04-08T10:11:23Z</time></trkpt><trkpt lat="51.62509699866137" lon="16.436553123403247"><ele>85.0</ele><time>2026-04-08T10:11:25Z</time></trkpt><trkpt lat="51.62504266880809" lon="16.436324403054698"><ele>85.0</ele><time>2026-04-08T10:11:27Z</time></trkpt><trkpt lat="51.625018093946444" lon="16.436164200299007"><ele>85.25</ele><time>2026-04-08T10:11:28Z</time></trkpt><trkpt lat="51.62498917781125" lon="16.4359900674469"><ele>85.5</ele><time>2026-04-08T10:11:29Z</time></trkpt><trkpt lat="51.62497298242114" lon="16.43579035467482"><ele>85.75</ele><time>2026-04-08T10:11:30Z</time></trkpt><trkpt lat="51.62493951103959" lon="16.43557830554368"><ele>86.0</ele><time>2026-04-08T10:11:31Z</time></trkpt><trkpt lat="51.62490385456519" lon="16.435356453949904"><ele>86.0</ele><time>2026-04-08T10:11:32Z</time></trkpt><trkpt lat="51.62487211284307" lon="16.435142114381968"><ele>86.0</ele><time>2026-04-08T10:11:33Z</time></trkpt><trkpt lat="51.624845022901305" lon="16.43496034325054"><ele>86.0</ele><time>2026-04-08T10:11:34Z</time></trkpt><trkpt lat="51.6248190029163" lon="16.43478812223668"><ele>86.0</ele><time>2026-04-08T10:11:35Z</time></trkpt><trkpt lat="51.624783412310734" lon="16.43461682234433"><ele>86.5</ele><time>2026-04-08T10:11:36Z</time></trkpt><trkpt lat="51.624754477895436" lon="16.434424437938574"><ele>87.0</ele><time>2026-04-08T10:11:37Z</time></trkpt><trkpt lat="51.624725242401794" lon="16.43423838079955"><ele>87.5</ele><time>2026-04-08T10:11:38Z</time></trkpt><trkpt lat="51.624698108913655" lon="16.43405876713618"><ele>88.0</ele><time>2026-04-08T10:11:39Z</time></trkpt><trkpt lat="51.62467105460095" lon="16.43388680891831"><ele>88.5</ele><time>2026-04-08T10:11:40Z</time></trkpt><trkpt lat="51.62464529945263" lon="16.43372109809916"><ele>89.0</ele><time>2026-04-08T10:11:41Z</time></trkpt><trkpt lat="51.62462700541483" lon="16.43352999179117"><ele>89.5</ele><time>2026-04-08T10:11:42Z</time></trkpt><trkpt lat="51.624595923160356" lon="16.433326433681426"><ele>90.0</ele><time>2026-04-08T10:11:43Z</time></trkpt><trkpt lat="51.624564177051376" lon="16.43311684396222"><ele>90.33333333333333</ele><time>2026-04-08T10:11:44Z</time></trkpt><trkpt lat="51.6245286026988" lon="16.432890754243015"><ele>90.66666666666666</ele><time>2026-04-08T10:11:45Z</time></trkpt><trkpt lat="51.62449382527952" lon="16.43264347189767"><ele>91.0</ele><time>2026-04-08T10:11:46Z</time></trkpt><trkpt lat="51.62445581877823" lon="16.43239462596804"><ele>89.33333333333333</ele><time>2026-04-08T10:11:47Z</time></trkpt><trkpt lat="51.62441939032666" lon="16.432136368808212"><ele>87.66666666666667</ele><time>2026-04-08T10:11:48Z</time></trkpt><trkpt lat="51.62437964342242" lon="16.43187536045488"><ele>86.0</ele><time>2026-04-08T10:11:49Z</time></trkpt><trkpt lat="51.62433633224112" lon="16.43160186155679"><ele>86.0</ele><time>2026-04-08T10:11:50Z</time></trkpt><trkpt lat="51.62429498823031" lon="16.431325823656074"><ele>86.0</ele><time>2026-04-08T10:11:51Z</time></trkpt><trkpt lat="51.62425941837802" lon="16.431055312301137"><ele>86.0</ele><time>2026-04-08T10:11:52Z</time></trkpt><trkpt lat="51.624222570562914" lon="16.43079330018602"><ele>85.0</ele><time>2026-04-08T10:11:53Z</time></trkpt><trkpt lat="51.62418931432268" lon="16.430553207829036"><ele>84.0</ele><time>2026-04-08T10:11:54Z</time></trkpt><trkpt lat="51.624151961629934" lon="16.43031502998448"><ele>83.0</ele><time>2026-04-08T10:11:55Z</time></trkpt><trkpt lat="51.62410588207351" lon="16.430071532144023"><ele>82.33333333333334</ele><time>2026-04-08T10:11:56Z</time></trkpt><trkpt lat="51.62404285168581" lon="16.429824332525403"><ele>81.66666666666667</ele><time>2026-04-08T10:11:57Z</time></trkpt><trkpt lat="51.62397006448952" lon="16.42958307155703"><ele>81.0</ele><time>2026-04-08T10:11:58Z</time></trkpt><trkpt lat="51.62388803794401" lon="16.429333149306604"><ele>81.0</ele><time>2026-04-08T10:11:59Z</time></trkpt><trkpt lat="51.623828486585694" lon="16.429081262142535"><ele>81.0</ele><time>2026-04-08T10:12:00Z</time></trkpt><trkpt lat="51.623765940349486" lon="16.42886277296047"><ele>81.0</ele><time>2026-04-08T10:12:01Z</time></trkpt><trkpt lat="51.62370294405214" lon="16.428669280618944"><ele>81.0</ele><time>2026-04-08T10:12:02Z</time></trkpt><trkpt lat="51.6236734154689" lon="16.428475728131573"><ele>81.0</ele><time>2026-04-08T10:12:03Z</time></trkpt><trkpt lat="51.62364751222143" lon="16.42829217246994"><ele>81.0</ele><time>2026-04-08T10:12:04Z</time></trkpt><trkpt lat="51.62364530238868" lon="16.42810819738056"><ele>81.0</ele><time>2026-04-08T10:12:05Z</time></trkpt><trkpt lat="51.623671096888145" lon="16.42792296624161"><ele>81.0</ele><time>2026-04-08T10:12:06Z</time></trkpt><trkpt lat="51.62371141991788" lon="16.42773707888792"><ele>81.0</ele><time>2026-04-08T10:12:07Z</time></trkpt><trkpt lat="51.62376277848555" lon="16.42754275108332"><ele>81.0</ele><time>2026-04-08T10:12:08Z</time></trkpt><trkpt lat="51.62381819857607" lon="16.427338528598835"><ele>81.0</ele><time>2026-04-08T10:12:09Z</time></trkpt><trkpt lat="51.623877569591215" lon="16.427125183039493"><ele>81.0</ele><time>2026-04-08T10:12:10Z</time></trkpt><trkpt lat="51.62393860945956" lon="16.426906195451036"><ele>81.0</ele><time>2026-04-08T10:12:11Z</time></trkpt><trkpt lat="51.624002144812266" lon="16.426678779217475"><ele>81.0</ele><time>2026-04-08T10:12:12Z</time></trkpt><trkpt lat="51.62405860930307" lon="16.426439681309198"><ele>81.0</ele><time>2026-04-08T10:12:13Z</time></trkpt><trkpt lat="51.624120593286385" lon="16.42621079904718"><ele>81.0</ele><time>2026-04-08T10:12:14Z</time></trkpt><trkpt lat="51.624183366188824" lon="16.42597525046808"><ele>81.0</ele><time>2026-04-08T10:12:15Z</time></trkpt><trkpt lat="51.62425058917389" lon="16.425730679452936"><ele>81.0</ele><time>2026-04-08T10:12:16Z</time></trkpt><trkpt lat="51.62431990249632" lon="16.42548588063684"><ele>81.0</ele><time>2026-04-08T10:12:17Z</time></trkpt><trkpt lat="51.62438581843068" lon="16.425246510179328"><ele>81.0</ele><time>2026-04-08T10:12:18Z</time></trkpt><trkpt lat="51.62446477172425" lon="16.425024369831444"><ele>82.0</ele><time>2026-04-08T10:12:19Z</time></trkpt><trkpt lat="51.62521637389503" lon="16.414071957001486"><ele>82.0</ele><time>2026-04-08T10:13:20Z</time></trkpt><trkpt lat="51.625115884437946" lon="16.41409528128518"><ele>82.0</ele><time>2026-04-08T10:13:21Z</time></trkpt><trkpt lat="51.625014058437145" lon="16.414107627064798"><ele>82.0</ele><time>2026-04-08T10:13:22Z</time></trkpt><trkpt lat="51.624912160359585" lon="16.41408938737742"><ele>82.0</ele><time>2026-04-08T10:13:23Z</time></trkpt><trkpt lat="51.624820756907894" lon="16.41404700549957"><ele>82.0</ele><time>2026-04-08T10:13:24Z</time></trkpt><trkpt lat="51.6247130498555" lon="16.414202857601353"><ele>82.0</ele><time>2026-04-08T10:13:25Z</time></trkpt><trkpt lat="51.62463606416177" lon="16.414282552115825"><ele>82.0</ele><time>2026-04-08T10:13:26Z</time></trkpt><trkpt lat="51.6245663388826" lon="16.41438943965238"><ele>82.0</ele><time>2026-04-08T10:13:27Z</time></trkpt><trkpt lat="51.624488698679436" lon="16.414481787207556"><ele>82.0</ele><time>2026-04-08T10:13:28Z</time></trkpt><trkpt lat="51.624404031167984" lon="16.414528507656687"><ele>82.0</ele><time>2026-04-08T10:13:29Z</time></trkpt><trkpt lat="51.62430824788602" lon="16.414549256847103"><ele>81.8</ele><time>2026-04-08T10:13:30Z</time></trkpt><trkpt lat="51.624211342625856" lon="16.41456966129115"><ele>81.6</ele><time>2026-04-08T10:13:31Z</time></trkpt><trkpt lat="51.624114018639844" lon="16.414601844064062"><ele>81.39999999999999</ele><time>2026-04-08T10:13:32Z</time></trkpt><trkpt lat="51.62401777645532" lon="16.414647696536147"><ele>81.19999999999999</ele><time>2026-04-08T10:13:33Z</time></trkpt><trkpt lat="51.62391588631211" lon="16.414693593293578"><ele>81.0</ele><time>2026-04-08T10:13:34Z</time></trkpt><trkpt lat="51.62381058971807" lon="16.414732293477226"><ele>81.0</ele><time>2026-04-08T10:13:35Z</time></trkpt><trkpt lat="51.623706332735196" lon="16.414765974123124"><ele>81.0</ele><time>2026-04-08T10:13:36Z</time></trkpt><trkpt lat="51.62359488720138" lon="16.41480620166329"><ele>81.0</ele><time>2026-04-08T10:13:37Z</time></trkpt><trkpt lat="51.62348753240287" lon="16.41482395402428"><ele>81.0</ele><time>2026-04-08T10:13:38Z</time></trkpt><trkpt lat="51.62338366983884" lon="16.41483210742721"><ele>81.0</ele><time>2026-04-08T10:13:39Z</time></trkpt><trkpt lat="51.62329404174566" lon="16.41482876604067"><ele>81.0</ele><time>2026-04-08T10:13:40Z</time></trkpt><trkpt lat="51.623217424562206" lon="16.41485148859625"><ele>81.0</ele><time>2026-04-08T10:13:41Z</time></trkpt><trkpt lat="51.62314672203821" lon="16.414908736819548"><ele>81.0</ele><time>2026-04-08T10:13:42Z</time></trkpt><trkpt lat="51.623080780031266" lon="16.414986868244366"><ele>81.0</ele><time>2026-04-08T10:13:43Z</time></trkpt><trkpt lat="51.62300562574412" lon="16.415081357549994"><ele>81.0</ele><time>2026-04-08T10:13:44Z</time></trkpt><trkpt lat="51.622917361268726" lon="16.41514800573745"><ele>81.0</ele><time>2026-04-08T10:13:45Z</time></trkpt><trkpt lat="51.62282042009792" lon="16.415201087052875"><ele>80.75</ele><time>2026-04-08T10:13:46Z</time></trkpt><trkpt lat="51.622711005219614" lon="16.415263566723738"><ele>80.5</ele><time>2026-04-08T10:13:47Z</time></trkpt><trkpt lat="51.62259556315243" lon="16.41532948807258"><ele>80.25</ele><time>2026-04-08T10:13:48Z</time></trkpt><trkpt lat="51.62247773575876" lon="16.41539905764715"><ele>80.0</ele><time>2026-04-08T10:13:49Z</time></trkpt><trkpt lat="51.62234725549153" lon="16.415445840690595"><ele>80.0</ele><time>2026-04-08T10:13:50Z</time></trkpt><trkpt lat="51.622215852082675" lon="16.41548837962976"><ele>80.0</ele><time>2026-04-08T10:13:51Z</time></trkpt><trkpt lat="51.6221081841832" lon="16.41551222787028"><ele>80.0</ele><time>2026-04-08T10:13:52Z</time></trkpt><trkpt lat="51.62200557427079" lon="16.415556147831936"><ele>80.0</ele><time>2026-04-08T10:13:53Z</time></trkpt><trkpt lat="51.621893664891346" lon="16.415579039875247"><ele>80.0</ele><time>2026-04-08T10:13:54Z</time></trkpt><trkpt lat="51.62177084388242" lon="16.415606040217554"><ele>80.0</ele><time>2026-04-08T10:13:55Z</time></trkpt><trkpt lat="51.621655613776085" lon="16.415643851342857"><ele>80.0</ele><time>2026-04-08T10:13:56Z</time></trkpt><trkpt lat="51.621555529581414" lon="16.415678172855674"><ele>80.0</ele><time>2026-04-08T10:13:57Z</time></trkpt><trkpt lat="51.621458773937334" lon="16.415684155055345"><ele>80.0</ele><time>2026-04-08T10:13:58Z</time></trkpt><trkpt lat="51.621354664383986" lon="16.415670314161947"><ele>80.0</ele><time>2026-04-08T10:13:59Z</time></trkpt><trkpt lat="51.62125063517169" lon="16.41565783112056"><ele>80.0</ele><time>2026-04-08T10:14:00Z</time></trkpt><trkpt lat="51.621152043213286" lon="16.41565341274547"><ele>80.0</ele><time>2026-04-08T10:14:01Z</time></trkpt><trkpt lat="51.621049315956135" lon="16.415663501595475"><ele>80.0</ele><time>2026-04-08T10:14:02Z</time></trkpt><trkpt lat="51.620946901045215" lon="16.41566756875568"><ele>80.0</ele><time>2026-04-08T10:14:03Z</time></trkpt><trkpt lat="51.6208457196224" lon="16.41563771930986"><ele>80.2</ele><time>2026-04-08T10:14:04Z</time></trkpt><trkpt lat="51.620739548277896" lon="16.415634578742367"><ele>80.4</ele><time>2026-04-08T10:14:05Z</time></trkpt><trkpt lat="51.62063186877909" lon="16.4156384182407"><ele>80.6</ele><time>2026-04-08T10:14:06Z</time></trkpt><trkpt lat="51.620519184985845" lon="16.415640576566314"><ele>80.8</ele><time>2026-04-08T10:14:07Z</time></trkpt><trkpt lat="51.62040246100718" lon="16.415648327913797"><ele>81.0</ele><time>2026-04-08T10:14:08Z</time></trkpt><trkpt lat="51.62028470236487" lon="16.415625602942917"><ele>81.0</ele><time>2026-04-08T10:14:09Z</time></trkpt><trkpt lat="51.620155550018985" lon="16.41561788818655"><ele>81.0</ele><time>2026-04-08T10:14:10Z</time></trkpt><trkpt lat="51.620016983091126" lon="16.41561387149685"><ele>81.0</ele><time>2026-04-08T10:14:11Z</time></trkpt><trkpt lat="51.61988864180023" lon="16.41559771808862"><ele>81.0</ele><time>2026-04-08T10:14:12Z</time></trkpt><trkpt lat="51.61976833729163" lon="16.41560393232015"><ele>81.0</ele><time>2026-04-08T10:14:13Z</time></trkpt><trkpt lat="51.619640135190124" lon="16.415602697063843"><ele>81.0</ele><time>2026-04-08T10:14:14Z</time></trkpt><trkpt lat="51.619500391808366" lon="16.415607190571873"><ele>81.0</ele><time>2026-04-08T10:14:15Z</time></trkpt><trkpt lat="51.61935158406548" lon="16.415594265081705"><ele>81.0</ele><time>2026-04-08T10:14:16Z</time></trkpt><trkpt lat="51.61920062858826" lon="16.415582472571764"><ele>81.0</ele><time>2026-04-08T10:14:17Z</time></trkpt><trkpt lat="51.619063892215735" lon="16.41559103316722"><ele>81.0</ele><time>2026-04-08T10:14:18Z</time></trkpt><trkpt lat="51.61893652656501" lon="16.415597000644137"><ele>81.0</ele><time>2026-04-08T10:14:19Z</time></trkpt><trkpt lat="51.61108908649286" lon="16.415399473566683"><ele>81.19999999999999</ele><time>2026-04-08T10:15:20Z</time></trkpt><trkpt lat="51.61107190346394" lon="16.41528876846293"><ele>81.39999999999999</ele><time>2026-04-08T10:15:21Z</time></trkpt><trkpt lat="51.611053863788406" lon="16.415165080054756"><ele>81.6</ele><time>2026-04-08T10:15:22Z</time></trkpt><trkpt lat="51.61102624360282" lon="16.415021176470113"><ele>81.8</ele><time>2026-04-08T10:15:23Z</time></trkpt><trkpt lat="51.61098735359133" lon="16.414866316465645"><ele>82.0</ele><time>2026-04-08T10:15:24Z</time></trkpt><trkpt lat="51.61094073067341" lon="16.414689901198077"><ele>82.0</ele><time>2026-04-08T10:15:25Z</time></trkpt><trkpt lat="51.61089069254082" lon="16.414496475688974"><ele>82.0</ele><time>2026-04-08T10:15:26Z</time></trkpt><trkpt lat="51.61084186659717" lon="16.41432588966095"><ele>82.0</ele><time>2026-04-08T10:15:27Z</time></trkpt><trkpt lat="51.61079629510586" lon="16.414194307923683"><ele>82.0</ele><time>2026-04-08T10:15:28Z</time></trkpt><trkpt lat="51.61075426308721" lon="16.41406930843144"><ele>82.0</ele><time>2026-04-08T10:15:29Z</time></trkpt><trkpt lat="51.61070508135989" lon="16.413965988628213"><ele>82.0</ele><time>2026-04-08T10:15:30Z</time></trkpt><trkpt lat="51.610664777723734" lon="16.41388059448863"><ele>82.0</ele><time>2026-04-08T10:15:31Z</time></trkpt><trkpt lat="51.61062603505864" lon="16.41372641644883"><ele>82.0</ele><time>2026-04-08T10:15:33Z</time></trkpt><trkpt lat="51.61053587182733" lon="16.413608442785964"><ele>82.0</ele><time>2026-04-08T10:15:35Z</time></trkpt><trkpt lat="51.61047508906321" lon="16.413523021732427"><ele>82.0</ele><time>2026-04-08T10:15:36Z</time></trkpt><trkpt lat="51.610401725075214" lon="16.413413770297684"><ele>82.0</ele><time>2026-04-08T10:15:37Z</time></trkpt><trkpt lat="51.61031448913392" lon="16.413312918932746"><ele>82.0</ele><time>2026-04-08T10:15:38Z</time></trkpt><trkpt lat="51.61024630784792" lon="16.413209735133165"><ele>82.0</ele><time>2026-04-08T10:15:39Z</time></trkpt><trkpt lat="51.61020051055397" lon="16.413111883335787"><ele>82.0</ele><time>2026-04-08T10:15:40Z</time></trkpt><trkpt lat="51.610139261756075" lon="16.413025312272687"><ele>82.0</ele><time>2026-04-08T10:15:41Z</time></trkpt><trkpt lat="51.61006765286697" lon="16.412927835140962"><ele>82.0</ele><time>2026-04-08T10:15:42Z</time></trkpt><trkpt lat="51.609991320930014" lon="16.412820408855936"><ele>82.0</ele><time>2026-04-08T10:15:43Z</time></trkpt><trkpt lat="51.609906645731606" lon="16.41270268539834"><ele>82.0</ele><time>2026-04-08T10:15:44Z</time></trkpt><trkpt lat="51.60982301827007" lon="16.412562523349028"><ele>82.0</ele><time>2026-04-08T10:15:45Z</time></trkpt><trkpt lat="51.60971303093274" lon="16.412441701245616"><ele>82.0</ele><time>2026-04-08T10:15:46Z</time></trkpt><trkpt lat="51.609607803830876" lon="16.412309545397356"><ele>82.0</ele><time>2026-04-08T10:15:47Z</time></trkpt><trkpt lat="51.60950026150179" lon="16.41217527610498"><ele>82.0</ele><time>2026-04-08T10:15:48Z</time></trkpt><trkpt lat="51.609396926957025" lon="16.41204041270915"><ele>82.0</ele><time>2026-04-08T10:15:49Z</time></trkpt><trkpt lat="51.609298217199566" lon="16.411912045796488"><ele>82.25</ele><time>2026-04-08T10:15:50Z</time></trkpt><trkpt lat="51.60919788033906" lon="16.411796884076715"><ele>82.5</ele><time>2026-04-08T10:15:51Z</time></trkpt><trkpt lat="51.60909975071639" lon="16.411679109413512"><ele>82.75</ele><time>2026-04-08T10:15:52Z</time></trkpt><trkpt lat="51.60900197351747" lon="16.411560393522983"><ele>83.0</ele><time>2026-04-08T10:15:53Z</time></trkpt><trkpt lat="51.608896110652005" lon="16.41143924087372"><ele>83.0</ele><time>2026-04-08T10:15:54Z</time></trkpt><trkpt lat="51.60878889115278" lon="16.41131262107077"><ele>83.0</ele><time>2026-04-08T10:15:55Z</time></trkpt><trkpt lat="51.608678271702125" lon="16.41117949496652"><ele>83.0</ele><time>2026-04-08T10:15:56Z</time></trkpt><trkpt lat="51.60856281905416" lon="16.411047004083056"><ele>83.0</ele><time>2026-04-08T10:15:57Z</time></trkpt><trkpt lat="51.60844749232961" lon="16.41090888110666"><ele>83.25</ele><time>2026-04-08T10:15:58Z</time></trkpt><trkpt lat="51.608333065284135" lon="16.41075691663113"><ele>83.5</ele><time>2026-04-08T10:15:59Z</time></trkpt><trkpt lat="51.608208727022635" lon="16.4106180339114"><ele>83.75</ele><time>2026-04-08T10:16:00Z</time></trkpt><trkpt lat="51.60809222175209" lon="16.410473848079704"><ele>84.0</ele><time>2026-04-08T10:16:01Z</time></trkpt><trkpt lat="51.6079922163336" lon="16.410339591624012"><ele>84.25</ele><time>2026-04-08T10:16:02Z</time></trkpt><trkpt lat="51.60789938329347" lon="16.410206226729006"><ele>84.5</ele><time>2026-04-08T10:16:03Z</time></trkpt><trkpt lat="51.60783608095834" lon="16.41002708129261"><ele>84.75</ele><time>2026-04-08T10:16:04Z</time></trkpt><trkpt lat="51.60777022953252" lon="16.40984845350969"><ele>85.0</ele><time>2026-04-08T10:16:05Z</time></trkpt><trkpt lat="51.6077202038716" lon="16.409657224183686"><ele>84.5</ele><time>2026-04-08T10:16:06Z</time></trkpt><trkpt lat="51.60768521680963" lon="16.409454907310366"><ele>84.0</ele><time>2026-04-08T10:16:07Z</time></trkpt><trkpt lat="51.60766048334115" lon="16.409243453120922"><ele>83.5</ele><time>2026-04-08T10:16:08Z</time></trkpt><trkpt lat="51.60763704387913" lon="16.409053223140518"><ele>83.0</ele><time>2026-04-08T10:16:09Z</time></trkpt><trkpt lat="51.60759859088068" lon="16.40888412750731"><ele>83.0</ele><time>2026-04-08T10:16:10Z</time></trkpt><trkpt lat="51.60755677053348" lon="16.40872213904372"><ele>83.0</ele><time>2026-04-08T10:16:11Z</time></trkpt><trkpt lat="51.60749535468917" lon="16.408572601801133"><ele>83.0</ele><time>2026-04-08T10:16:12Z</time></trkpt><trkpt lat="51.60741709922139" lon="16.408445874960712"><ele>83.0</ele><time>2026-04-08T10:16:13Z</time></trkpt><trkpt lat="51.60732934246814" lon="16.408324926276507"><ele>83.0</ele><time>2026-04-08T10:16:14Z</time></trkpt><trkpt lat="51.607225441022834" lon="16.408211615666314"><ele>83.0</ele><time>2026-04-08T10:16:15Z</time></trkpt><trkpt lat="51.60711957484211" lon="16.408093197570864"><ele>83.0</ele><time>2026-04-08T10:16:16Z</time></trkpt><trkpt lat="51.60701097527897" lon="16.407965595998434"><ele>83.0</ele><time>2026-04-08T10:16:17Z</time></trkpt><trkpt lat="51.606906271356756" lon="16.4078216467497"><ele>83.0</ele><time>2026-04-08T10:16:18Z</time></trkpt><trkpt lat="51.60678656493068" lon="16.407684665130144"><ele>82.0</ele><time>2026-04-08T10:16:19Z</time></trkpt><trkpt lat="51.60721894194211" lon="16.39880241391245"><ele>82.0</ele><time>2026-04-08T10:17:20Z</time></trkpt><trkpt lat="51.6072354040233" lon="16.398614072214798"><ele>82.0</ele><time>2026-04-08T10:17:21Z</time></trkpt><trkpt lat="51.60725618986861" lon="16.398411743783118"><ele>82.0</ele><time>2026-04-08T10:17:22Z</time></trkpt><trkpt lat="51.607279037768244" lon="16.398232744206847"><ele>82.0</ele><time>2026-04-08T10:17:23Z</time></trkpt><trkpt lat="51.60731200795063" lon="16.398089796791126"><ele>82.0</ele><time>2026-04-08T10:17:24Z</time></trkpt><trkpt lat="51.60728902985514" lon="16.397951279127753"><ele>82.0</ele><time>2026-04-08T10:17:25Z</time></trkpt><trkpt lat="51.60727837734692" lon="16.39783283921031"><ele>82.0</ele><time>2026-04-08T10:17:26Z</time></trkpt><trkpt lat="51.607352970731746" lon="16.397691081728617"><ele>82.0</ele><time>2026-04-08T10:17:27Z</time></trkpt><trkpt lat="51.607387199737936" lon="16.397529721706476"><ele>82.0</ele><time>2026-04-08T10:17:28Z</time></trkpt><trkpt lat="51.607405030244735" lon="16.397356765100074"><ele>82.0</ele><time>2026-04-08T10:17:29Z</time></trkpt><trkpt lat="51.60741852441232" lon="16.397198931846958"><ele>82.0</ele><time>2026-04-08T10:17:30Z</time></trkpt><trkpt lat="51.607436312410584" lon="16.3970773668128"><ele>82.0</ele><time>2026-04-08T10:17:31Z</time></trkpt><trkpt lat="51.6074451693376" lon="16.396937450826847"><ele>82.0</ele><time>2026-04-08T10:17:32Z</time></trkpt><trkpt lat="51.60746324981675" lon="16.396804478310276"><ele>82.0</ele><time>2026-04-08T10:17:33Z</time></trkpt><trkpt lat="51.60747295064461" lon="16.39666450339818"><ele>82.0</ele><time>2026-04-08T10:17:34Z</time></trkpt><trkpt lat="51.60750741096623" lon="16.396480540341287"><ele>81.85714285714285</ele><time>2026-04-08T10:17:36Z</time></trkpt><trkpt lat="51.607526123194994" lon="16.396381932027754"><ele>81.71428571428571</ele><time>2026-04-08T10:17:37Z</time></trkpt><trkpt lat="51.60752918065983" lon="16.396272106995067"><ele>81.57142857142857</ele><time>2026-04-08T10:17:38Z</time></trkpt><trkpt lat="51.607529083062374" lon="16.39615743859574"><ele>81.42857142857142</ele><time>2026-04-08T10:17:39Z</time></trkpt><trkpt lat="51.607542980503624" lon="16.396053827829572"><ele>81.28571428571428</ele><time>2026-04-08T10:17:40Z</time></trkpt><trkpt lat="51.607567549802326" lon="16.395941506708105"><ele>81.14285714285714</ele><time>2026-04-08T10:17:41Z</time></trkpt><trkpt lat="51.60758583075735" lon="16.395805566202743"><ele>81.0</ele><time>2026-04-08T10:17:42Z</time></trkpt><trkpt lat="51.6075990700999" lon="16.39566465657609"><ele>81.0</ele><time>2026-04-08T10:17:43Z</time></trkpt><trkpt lat="51.60761966030733" lon="16.395534406411798"><ele>81.0</ele><time>2026-04-08T10:17:44Z</time></trkpt><trkpt lat="51.6076534779907" lon="16.395428917657394"><ele>81.0</ele><time>2026-04-08T10:17:45Z</time></trkpt><trkpt lat="51.6077042049168" lon="16.395344447332388"><ele>81.0</ele><time>2026-04-08T10:17:46Z</time></trkpt><trkpt lat="51.6077717718722" lon="16.3952951369459"><ele>81.0</ele><time>2026-04-08T10:17:47Z</time></trkpt><trkpt lat="51.60784352278923" lon="16.395280777867896"><ele>81.0</ele><time>2026-04-08T10:17:48Z</time></trkpt><trkpt lat="51.60792368700128" lon="16.39525447864137"><ele>80.83333333333333</ele><time>2026-04-08T10:17:49Z</time></trkpt><trkpt lat="51.607983667721406" lon="16.39519611038845"><ele>80.66666666666667</ele><time>2026-04-08T10:17:50Z</time></trkpt><trkpt lat="51.60803140912731" lon="16.395117318330943"><ele>80.5</ele><time>2026-04-08T10:17:51Z</time></trkpt><trkpt lat="51.608096588336515" lon="16.395078435447243"><ele>80.33333333333334</ele><time>2026-04-08T10:17:52Z</time></trkpt><trkpt lat="51.60818191469161" lon="16.39501380744603"><ele>80.16666666666667</ele><time>2026-04-08T10:17:53Z</time></trkpt><trkpt lat="51.608284490427806" lon="16.394938912731366"><ele>80.0</ele><time>2026-04-08T10:17:54Z</time></trkpt><trkpt lat="51.60839881208616" lon="16.394861169185837"><ele>80.0</ele><time>2026-04-08T10:17:55Z</time></trkpt><trkpt lat="51.60853012534379" lon="16.394791974049514"><ele>80.0</ele><time>2026-04-08T10:17:56Z</time></trkpt><trkpt lat="51.608663263981256" lon="16.39472106163748"><ele>80.0</ele><time>2026-04-08T10:17:57Z</time></trkpt><trkpt lat="51.608804741597176" lon="16.394646201496865"><ele>80.0</ele><time>2026-04-08T10:17:58Z</time></trkpt><trkpt lat="51.60895161074538" lon="16.39457397524505"><ele>79.66666666666667</ele><time>2026-04-08T10:17:59Z</time></trkpt><trkpt lat="51.60910199333191" lon="16.394494940714345"><ele>79.33333333333333</ele><time>2026-04-08T10:18:00Z</time></trkpt><trkpt lat="51.609253571001915" lon="16.394419116100046"><ele>79.0</ele><time>2026-04-08T10:18:01Z</time></trkpt><trkpt lat="51.60940366231626" lon="16.394328241207003"><ele>80.0</ele><time>2026-04-08T10:18:02Z</time></trkpt><trkpt lat="51.60954125216958" lon="16.394236221181533"><ele>81.0</ele><time>2026-04-08T10:18:03Z</time></trkpt><trkpt lat="51.609679733828216" lon="16.394136434568832"><ele>82.0</ele><time>2026-04-08T10:18:04Z</time></trkpt><trkpt lat="51.60981793231389" lon="16.39403675079896"><ele>82.0</ele><time>2026-04-08T10:18:05Z</time></trkpt><trkpt lat="51.609940477416586" lon="16.39390971602033"><ele>82.0</ele><time>2026-04-08T10:18:06Z</time></trkpt><trkpt lat="51.610068210844624" lon="16.393767445359956"><ele>82.0</ele><time>2026-04-08T10:18:07Z</time></trkpt><trkpt lat="51.61018854495208" lon="16.39360310243269"><ele>81.33333333333333</ele><time>2026-04-08T10:18:08Z</time></trkpt><trkpt lat="51.61031602188894" lon="16.393454913640735"><ele>80.66666666666667</ele><time>2026-04-08T10:18:09Z</time></trkpt><trkpt lat="51.610446915281074" lon="16.393317273314395"><ele>80.0</ele><time>2026-04-08T10:18:10Z</time></trkpt><trkpt lat="51.61058031487057" lon="16.39317948175336"><ele>80.0</ele><time>2026-04-08T10:18:11Z</time></trkpt><trkpt lat="51.61071061763051" lon="16.39303365413386"><ele>80.0</ele><time>2026-04-08T10:18:12Z</time></trkpt><trkpt lat="51.61084941733282" lon="16.392893453304183"><ele>80.0</ele><time>2026-04-08T10:18:13Z</time></trkpt><trkpt lat="51.61099370695346" lon="16.39276475410509"><ele>79.75</ele><time>2026-04-08T10:18:14Z</time></trkpt><trkpt lat="51.61109789808845" lon="16.392624587318434"><ele>79.5</ele><time>2026-04-08T10:18:15Z</time></trkpt><trkpt lat="51.61118207913219" lon="16.392466764631642"><ele>79.25</ele><time>2026-04-08T10:18:16Z</time></trkpt><trkpt lat="51.61128008400867" lon="16.39229125912304"><ele>79.0</ele><time>2026-04-08T10:18:17Z</time></trkpt><trkpt lat="51.61139709711525" lon="16.39210863223992"><ele>80.0</ele><time>2026-04-08T10:18:18Z</time></trkpt><trkpt lat="51.61151371159915" lon="16.391937093895123"><ele>81.0</ele><time>2026-04-08T10:18:19Z</time></trkpt><trkpt lat="51.61500607587641" lon="16.380228694252505"><ele>82.0</ele><time>2026-04-08T10:19:20Z</time></trkpt><trkpt lat="51.6149987840055" lon="16.380055777915047"><ele>83.0</ele><time>2026-04-08T10:19:21Z</time></trkpt><trkpt lat="51.614981394826536" lon="16.379848651754845"><ele>84.0</ele><time>2026-04-08T10:19:22Z</time></trkpt><trkpt lat="51.61495726873683" lon="16.379623109691945"><ele>85.0</ele><time>2026-04-08T10:19:23Z</time></trkpt><trkpt lat="51.614929646175774" lon="16.379387955763168"><ele>85.0</ele><time>2026-04-08T10:19:24Z</time></trkpt><trkpt lat="51.614902195758674" lon="16.37915722150786"><ele>85.0</ele><time>2026-04-08T10:19:25Z</time></trkpt><trkpt lat="51.61488822234355" lon="16.37895162791305"><ele>85.0</ele><time>2026-04-08T10:19:26Z</time></trkpt><trkpt lat="51.61488617712621" lon="16.37875595535755"><ele>85.0</ele><time>2026-04-08T10:19:27Z</time></trkpt><trkpt lat="51.61487576964806" lon="16.378548466142846"><ele>84.5</ele><time>2026-04-08T10:19:28Z</time></trkpt><trkpt lat="51.61484441070638" lon="16.378336933586613"><ele>84.0</ele><time>2026-04-08T10:19:29Z</time></trkpt><trkpt lat="51.61480529708887" lon="16.378130904486515"><ele>83.5</ele><time>2026-04-08T10:19:30Z</time></trkpt><trkpt lat="51.61475981777723" lon="16.377953198761528"><ele>83.0</ele><time>2026-04-08T10:19:31Z</time></trkpt><trkpt lat="51.614718146055395" lon="16.377775442310742"><ele>83.0</ele><time>2026-04-08T10:19:32Z</time></trkpt><trkpt lat="51.614682487520405" lon="16.377567125261066"><ele>83.0</ele><time>2026-04-08T10:19:33Z</time></trkpt><trkpt lat="51.614651232514376" lon="16.37734114928015"><ele>83.0</ele><time>2026-04-08T10:19:34Z</time></trkpt><trkpt lat="51.614607654426464" lon="16.377110998930565"><ele>83.0</ele><time>2026-04-08T10:19:35Z</time></trkpt><trkpt lat="51.61455187710463" lon="16.376886184713435"><ele>82.75</ele><time>2026-04-08T10:19:36Z</time></trkpt><trkpt lat="51.61451095393338" lon="16.376681255649324"><ele>82.5</ele><time>2026-04-08T10:19:37Z</time></trkpt><trkpt lat="51.61447798794541" lon="16.376493867783275"><ele>82.25</ele><time>2026-04-08T10:19:38Z</time></trkpt><trkpt lat="51.61445815881134" lon="16.376325368906247"><ele>82.0</ele><time>2026-04-08T10:19:39Z</time></trkpt><trkpt lat="51.61443592158706" lon="16.37613879361214"><ele>82.0</ele><time>2026-04-08T10:19:40Z</time></trkpt><trkpt lat="51.61438823090183" lon="16.37594830162888"><ele>82.0</ele><time>2026-04-08T10:19:41Z</time></trkpt><trkpt lat="51.61431768874154" lon="16.3757635400754"><ele>82.0</ele><time>2026-04-08T10:19:42Z</time></trkpt><trkpt lat="51.61425460491688" lon="16.37556661713382"><ele>82.0</ele><time>2026-04-08T10:19:43Z</time></trkpt><trkpt lat="51.61418034017219" lon="16.375354683943897"><ele>83.25</ele><time>2026-04-08T10:19:44Z</time></trkpt><trkpt lat="51.61409072463371" lon="16.375137061587782"><ele>84.5</ele><time>2026-04-08T10:19:45Z</time></trkpt><trkpt lat="51.614007798710894" lon="16.37493772764172"><ele>85.75</ele><time>2026-04-08T10:19:46Z</time></trkpt><trkpt lat="51.613933440210005" lon="16.374775100720917"><ele>87.0</ele><time>2026-04-08T10:19:47Z</time></trkpt><trkpt lat="51.613858460792386" lon="16.37460428709732"><ele>88.0</ele><time>2026-04-08T10:19:48Z</time></trkpt><trkpt lat="51.613794638055126" lon="16.374415819907245"><ele>89.0</ele><time>2026-04-08T10:19:49Z</time></trkpt><trkpt lat="51.61374156202036" lon="16.374216442819847"><ele>90.0</ele><time>2026-04-08T10:19:50Z</time></trkpt><trkpt lat="51.61367518394879" lon="16.374039316146288"><ele>91.0</ele><time>2026-04-08T10:19:51Z</time></trkpt><trkpt lat="51.613587986209886" lon="16.373872674893722"><ele>89.5</ele><time>2026-04-08T10:19:52Z</time></trkpt><trkpt lat="51.613492870414" lon="16.3736881872523"><ele>88.0</ele><time>2026-04-08T10:19:53Z</time></trkpt><trkpt lat="51.61339953027489" lon="16.37350114224108"><ele>86.5</ele><time>2026-04-08T10:19:54Z</time></trkpt><trkpt lat="51.61330454845137" lon="16.373311645496674"><ele>85.0</ele><time>2026-04-08T10:19:55Z</time></trkpt><trkpt lat="51.61320837450437" lon="16.37312824656148"><ele>86.25</ele><time>2026-04-08T10:19:56Z</time></trkpt><trkpt lat="51.613118925759764" lon="16.372964055334748"><ele>87.5</ele><time>2026-04-08T10:19:57Z</time></trkpt><trkpt lat="51.6130340159824" lon="16.37281127392404"><ele>88.75</ele><time>2026-04-08T10:19:58Z</time></trkpt><trkpt lat="51.6129641056959" lon="16.37265490735596"><ele>90.0</ele><time>2026-04-08T10:19:59Z</time></trkpt><trkpt lat="51.612889934781144" lon="16.37249099335647"><ele>88.0</ele><time>2026-04-08T10:20:00Z</time></trkpt><trkpt lat="51.61281241599727" lon="16.372331481617465"><ele>86.0</ele><time>2026-04-08T10:20:01Z</time></trkpt><trkpt lat="51.61274289994346" lon="16.372177002500443"><ele>84.0</ele><time>2026-04-08T10:20:01.999Z</time></trkpt><trkpt lat="51.61264703448152" lon="16.372030684381123"><ele>82.0</ele><time>2026-04-08T10:20:02.999Z</time></trkpt><trkpt lat="51.612564573458634" lon="16.371894855456784"><ele>82.0</ele><time>2026-04-08T10:20:03.999Z</time></trkpt><trkpt lat="51.61249181755587" lon="16.371750026080925"><ele>82.0</ele><time>2026-04-08T10:20:04.999Z</time></trkpt><trkpt lat="51.61241060808039" lon="16.371599249848867"><ele>82.0</ele><time>2026-04-08T10:20:05.999Z</time></trkpt><trkpt lat="51.61233630182203" lon="16.37144611729905"><ele>82.0</ele><time>2026-04-08T10:20:06.999Z</time></trkpt><trkpt lat="51.61227409069808" lon="16.371296377175238"><ele>82.0</ele><time>2026-04-08T10:20:07.999Z</time></trkpt><trkpt lat="51.612225637040936" lon="16.37116906241065"><ele>82.0</ele><time>2026-04-08T10:20:08.999Z</time></trkpt><trkpt lat="51.61219336948533" lon="16.37102957155276"><ele>82.0</ele><time>2026-04-08T10:20:09.999Z</time></trkpt><trkpt lat="51.61216036290557" lon="16.37089166711143"><ele>82.0</ele><time>2026-04-08T10:20:10.999Z</time></trkpt><trkpt lat="51.612143491767384" lon="16.370739688645653"><ele>82.0</ele><time>2026-04-08T10:20:11.999Z</time></trkpt><trkpt lat="51.61212699252848" lon="16.37056690134128"><ele>82.16666666666666</ele><time>2026-04-08T10:20:12.999Z</time></trkpt><trkpt lat="51.61209679468244" lon="16.370413142518174"><ele>82.33333333333333</ele><time>2026-04-08T10:20:13.999Z</time></trkpt><trkpt lat="51.612078655245796" lon="16.370282914359745"><ele>82.5</ele><time>2026-04-08T10:20:14.999Z</time></trkpt><trkpt lat="51.6120789712177" lon="16.370166800445563"><ele>82.66666666666667</ele><time>2026-04-08T10:20:15.999Z</time></trkpt><trkpt lat="51.61203986255296" lon="16.370009813089982"><ele>82.83333333333334</ele><time>2026-04-08T10:20:17.999Z</time></trkpt><trkpt lat="51.611968159030724" lon="16.369979338790877"><ele>83.0</ele><time>2026-04-08T10:20:19Z</time></trkpt><trkpt lat="51.610714112737604" lon="16.36031873386149"><ele>83.0</ele><time>2026-04-08T10:21:20Z</time></trkpt><trkpt lat="51.61075410942113" lon="16.360145322857676"><ele>83.0</ele><time>2026-04-08T10:21:21Z</time></trkpt><trkpt lat="51.610787111238466" lon="16.359966821549857"><ele>83.0</ele><time>2026-04-08T10:21:22Z</time></trkpt><trkpt lat="51.610824161454076" lon="16.359784810325053"><ele>83.0</ele><time>2026-04-08T10:21:23Z</time></trkpt><trkpt lat="51.61085828349948" lon="16.359594699981734"><ele>83.0</ele><time>2026-04-08T10:21:24Z</time></trkpt><trkpt lat="51.61089705296387" lon="16.35941363368301"><ele>83.0</ele><time>2026-04-08T10:21:25Z</time></trkpt><trkpt lat="51.61095146798087" lon="16.359250113553163"><ele>83.0</ele><time>2026-04-08T10:21:26Z</time></trkpt><trkpt lat="51.611019390588204" lon="16.359090086927853"><ele>83.0</ele><time>2026-04-08T10:21:27Z</time></trkpt><trkpt lat="51.61110231261544" lon="16.35895412281166"><ele>82.75</ele><time>2026-04-08T10:21:28Z</time></trkpt><trkpt lat="51.6111908336614" lon="16.35880511843806"><ele>82.5</ele><time>2026-04-08T10:21:29Z</time></trkpt><trkpt lat="51.61128349297977" lon="16.35864839506969"><ele>82.25</ele><time>2026-04-08T10:21:30Z</time></trkpt><trkpt lat="51.6113719873303" lon="16.358493715258785"><ele>82.0</ele><time>2026-04-08T10:21:31Z</time></trkpt><trkpt lat="51.611439534689644" lon="16.358366276999625"><ele>82.0</ele><time>2026-04-08T10:21:32Z</time></trkpt><trkpt lat="51.61148968641872" lon="16.35824431226974"><ele>82.0</ele><time>2026-04-08T10:21:33Z</time></trkpt><trkpt lat="51.611536768390174" lon="16.358110275819623"><ele>82.0</ele><time>2026-04-08T10:21:34Z</time></trkpt><trkpt lat="51.61159640830622" lon="16.35796492561842"><ele>82.0</ele><time>2026-04-08T10:21:35Z</time></trkpt><trkpt lat="51.61166233882871" lon="16.35781587051893"><ele>82.0</ele><time>2026-04-08T10:21:36Z</time></trkpt><trkpt lat="51.61172647259811" lon="16.357666795566118"><ele>82.0</ele><time>2026-04-08T10:21:37Z</time></trkpt><trkpt lat="51.61179049229172" lon="16.357497659622794"><ele>82.0</ele><time>2026-04-08T10:21:38Z</time></trkpt><trkpt lat="51.611849195448464" lon="16.357314461747098"><ele>82.0</ele><time>2026-04-08T10:21:39Z</time></trkpt><trkpt lat="51.61190625640542" lon="16.357141764092816"><ele>82.0</ele><time>2026-04-08T10:21:40Z</time></trkpt><trkpt lat="51.611955179872474" lon="16.356993055103594"><ele>81.8</ele><time>2026-04-08T10:21:41Z</time></trkpt><trkpt lat="51.61199377774662" lon="16.35686184626747"><ele>81.6</ele><time>2026-04-08T10:21:42Z</time></trkpt><trkpt lat="51.61203068583205" lon="16.356719661085403"><ele>81.39999999999999</ele><time>2026-04-08T10:21:43Z</time></trkpt><trkpt lat="51.6120706535903" lon="16.35654300972138"><ele>81.19999999999999</ele><time>2026-04-08T10:21:44Z</time></trkpt><trkpt lat="51.612112059530205" lon="16.35634691246281"><ele>81.0</ele><time>2026-04-08T10:21:45Z</time></trkpt><trkpt lat="51.61214187818679" lon="16.35613586643676"><ele>81.0</ele><time>2026-04-08T10:21:46Z</time></trkpt><trkpt lat="51.61217010237068" lon="16.355910750387814"><ele>81.0</ele><time>2026-04-08T10:21:47Z</time></trkpt><trkpt lat="51.61220675319675" lon="16.35566920760969"><ele>81.0</ele><time>2026-04-08T10:21:48Z</time></trkpt><trkpt lat="51.612227837868495" lon="16.355422328898207"><ele>82.0</ele><time>2026-04-08T10:21:49Z</time></trkpt><trkpt lat="51.61226032099869" lon="16.35515614651728"><ele>83.0</ele><time>2026-04-08T10:21:50Z</time></trkpt><trkpt lat="51.612297147665366" lon="16.35492079612196"><ele>84.0</ele><time>2026-04-08T10:21:51Z</time></trkpt><trkpt lat="51.61232791294467" lon="16.354719569444455"><ele>85.0</ele><time>2026-04-08T10:21:52Z</time></trkpt><trkpt lat="51.612377410643155" lon="16.35438441083469"><ele>85.4</ele><time>2026-04-08T10:21:54Z</time></trkpt><trkpt lat="51.61241590071441" lon="16.3542499881968"><ele>85.8</ele><time>2026-04-08T10:21:55Z</time></trkpt><trkpt lat="51.61247455571351" lon="16.354124166544192"><ele>86.19999999999999</ele><time>2026-04-08T10:21:56Z</time></trkpt><trkpt lat="51.6125399809705" lon="16.35398000407081"><ele>86.6</ele><time>2026-04-08T10:21:57Z</time></trkpt><trkpt lat="51.61262044631193" lon="16.353826961956972"><ele>87.0</ele><time>2026-04-08T10:21:58Z</time></trkpt><trkpt lat="51.612701254102085" lon="16.35364975930754"><ele>87.0</ele><time>2026-04-08T10:21:59Z</time></trkpt><trkpt lat="51.61281476911053" lon="16.353507004308636"><ele>87.0</ele><time>2026-04-08T10:22:00Z</time></trkpt><trkpt lat="51.61292822837869" lon="16.353378928523053"><ele>87.0</ele><time>2026-04-08T10:22:01Z</time></trkpt><trkpt lat="51.61305924867713" lon="16.353266158255224"><ele>87.0</ele><time>2026-04-08T10:22:02Z</time></trkpt><trkpt lat="51.61317407084576" lon="16.353132229408704"><ele>87.66666666666667</ele><time>2026-04-08T10:22:03Z</time></trkpt><trkpt lat="51.61329781425593" lon="16.352982749812714"><ele>88.33333333333334</ele><time>2026-04-08T10:22:04Z</time></trkpt><trkpt lat="51.61343444573865" lon="16.352860253655887"><ele>89.0</ele><time>2026-04-08T10:22:05Z</time></trkpt><trkpt lat="51.61357321958671" lon="16.352728213519292"><ele>89.25</ele><time>2026-04-08T10:22:06Z</time></trkpt><trkpt lat="51.613700957481456" lon="16.3525905381183"><ele>89.5</ele><time>2026-04-08T10:22:07Z</time></trkpt><trkpt lat="51.61381732548494" lon="16.352471433217023"><ele>89.75</ele><time>2026-04-08T10:22:08Z</time></trkpt><trkpt lat="51.613939308842625" lon="16.352345523814215"><ele>90.0</ele><time>2026-04-08T10:22:09Z</time></trkpt><trkpt lat="51.61407158983572" lon="16.352209908533787"><ele>89.0</ele><time>2026-04-08T10:22:10Z</time></trkpt><trkpt lat="51.614203534951656" lon="16.352069478595727"><ele>88.0</ele><time>2026-04-08T10:22:11Z</time></trkpt><trkpt lat="51.61434636571773" lon="16.35193150783041"><ele>87.0</ele><time>2026-04-08T10:22:12Z</time></trkpt><trkpt lat="51.61446967278595" lon="16.351803592784677"><ele>86.75</ele><time>2026-04-08T10:22:13Z</time></trkpt><trkpt lat="51.614583276044634" lon="16.351671468989924"><ele>86.5</ele><time>2026-04-08T10:22:14Z</time></trkpt><trkpt lat="51.614699529723545" lon="16.351551160941856"><ele>86.25</ele><time>2026-04-08T10:22:15Z</time></trkpt><trkpt lat="51.614818637408206" lon="16.351430210698435"><ele>86.0</ele><time>2026-04-08T10:22:16Z</time></trkpt><trkpt lat="51.614942356213156" lon="16.351301706147645"><ele>84.0</ele><time>2026-04-08T10:22:17Z</time></trkpt><trkpt lat="51.615062907342484" lon="16.351189973185328"><ele>84.0</ele><time>2026-04-08T10:22:18Z</time></trkpt><trkpt lat="51.61517665747241" lon="16.351089404658666"><ele>84.0</ele><time>2026-04-08T10:22:19Z</time></trkpt></trkseg><trkseg><trkpt lat="51.61703790924471" lon="16.3471432459315"><ele>80.33333333333334</ele><time>2026-04-08T10:48:22Z</time></trkpt><trkpt lat="51.617078661003646" lon="16.34726435116682"><ele>80.66666666666667</ele><time>2026-04-08T10:48:24Z</time></trkpt><trkpt lat="51.6171160566257" lon="16.347350626180443"><ele>81.0</ele><time>2026-04-08T10:48:25Z</time></trkpt><trkpt lat="51.61715423616741" lon="16.347471027872256"><ele>81.33333333333333</ele><time>2026-04-08T10:48:26Z</time></trkpt><trkpt lat="51.61719035870109" lon="16.34763570393085"><ele>81.66666666666666</ele><time>2026-04-08T10:48:27Z</time></trkpt><trkpt lat="51.617210247612235" lon="16.347791628582378"><ele>82.0</ele><time>2026-04-08T10:48:28Z</time></trkpt><trkpt lat="51.61723307415633" lon="16.347910845228917"><ele>82.0</ele><time>2026-04-08T10:48:29Z</time></trkpt><trkpt lat="51.61724458192486" lon="16.34804185691636"><ele>82.0</ele><time>2026-04-08T10:48:30Z</time></trkpt><trkpt lat="51.61725482020137" lon="16.34817896291494"><ele>82.0</ele><time>2026-04-08T10:48:31.001Z</time></trkpt><trkpt lat="51.617264548492685" lon="16.34831025524603"><ele>82.0</ele><time>2026-04-08T10:48:32.001Z</time></trkpt><trkpt lat="51.617288413796544" lon="16.348418456106064"><ele>82.0</ele><time>2026-04-08T10:48:33.001Z</time></trkpt><trkpt lat="51.617319816866726" lon="16.34851762986036"><ele>82.0</ele><time>2026-04-08T10:48:34.001Z</time></trkpt><trkpt lat="51.617348796571505" lon="16.348664044310745"><ele>82.19999999999999</ele><time>2026-04-08T10:48:36.001Z</time></trkpt><trkpt lat="51.617427249888166" lon="16.34878536068817"><ele>82.4</ele><time>2026-04-08T10:48:38.001Z</time></trkpt><trkpt lat="51.61749965012866" lon="16.348826678000606"><ele>82.6</ele><time>2026-04-08T10:48:40.001Z</time></trkpt><trkpt lat="51.61758492822124" lon="16.348743342914403"><ele>82.80000000000001</ele><time>2026-04-08T10:48:42.001Z</time></trkpt><trkpt lat="51.61768959826352" lon="16.348621945261197"><ele>83.0</ele><time>2026-04-08T10:48:44.001Z</time></trkpt><trkpt lat="51.61778165080071" lon="16.348544475440395"><ele>82.5</ele><time>2026-04-08T10:48:45.001Z</time></trkpt><trkpt lat="51.617892294648016" lon="16.34846349885226"><ele>82.0</ele><time>2026-04-08T10:48:46.001Z</time></trkpt><trkpt lat="51.61800811192992" lon="16.34835121599834"><ele>81.5</ele><time>2026-04-08T10:48:46.999Z</time></trkpt><trkpt lat="51.61812739169075" lon="16.348230956106622"><ele>81.0</ele><time>2026-04-08T10:48:47.999Z</time></trkpt><trkpt lat="51.61824845387784" lon="16.34810388474011"><ele>81.0</ele><time>2026-04-08T10:48:48.999Z</time></trkpt><trkpt lat="51.61836651638616" lon="16.347973173780616"><ele>81.0</ele><time>2026-04-08T10:48:49.999Z</time></trkpt><trkpt lat="51.61848478216036" lon="16.347865209291385"><ele>81.0</ele><time>2026-04-08T10:48:50.999Z</time></trkpt><trkpt lat="51.618595913158615" lon="16.34775323462019"><ele>81.0</ele><time>2026-04-08T10:48:51.999Z</time></trkpt><trkpt lat="51.61870442178199" lon="16.34763675634214"><ele>80.5</ele><time>2026-04-08T10:48:52.999Z</time></trkpt><trkpt lat="51.61882098236676" lon="16.34752249572161"><ele>80.0</ele><time>2026-04-08T10:48:53.999Z</time></trkpt><trkpt lat="51.618923750227474" lon="16.34741789214411"><ele>79.5</ele><time>2026-04-08T10:48:54.999Z</time></trkpt><trkpt lat="51.61900991664613" lon="16.34733760955733"><ele>79.0</ele><time>2026-04-08T10:48:55.999Z</time></trkpt><trkpt lat="51.61909801964676" lon="16.347243358428162"><ele>79.0</ele><time>2026-04-08T10:48:56.999Z</time></trkpt><trkpt lat="51.619198329716845" lon="16.347141338974577"><ele>79.0</ele><time>2026-04-08T10:48:57.999Z</time></trkpt><trkpt lat="51.61930206594245" lon="16.34703424688742"><ele>79.0</ele><time>2026-04-08T10:48:58.999Z</time></trkpt><trkpt lat="51.619392515161444" lon="16.346937201258925"><ele>79.0</ele><time>2026-04-08T10:48:59.999Z</time></trkpt><trkpt lat="51.61946476740422" lon="16.346851690177203"><ele>79.0</ele><time>2026-04-08T10:49:00.999Z</time></trkpt><trkpt lat="51.61953467199565" lon="16.346777987075466"><ele>78.75</ele><time>2026-04-08T10:49:01.999Z</time></trkpt><trkpt lat="51.619614349815265" lon="16.346682670216595"><ele>78.5</ele><time>2026-04-08T10:49:02.999Z</time></trkpt><trkpt lat="51.619701395539806" lon="16.34656946523448"><ele>78.25</ele><time>2026-04-08T10:49:03.999Z</time></trkpt><trkpt lat="51.619800297903815" lon="16.34646087381139"><ele>78.0</ele><time>2026-04-08T10:49:04.999Z</time></trkpt><trkpt lat="51.619908357355506" lon="16.346363222051405"><ele>78.0</ele><time>2026-04-08T10:49:05.999Z</time></trkpt><trkpt lat="51.62003170885877" lon="16.346271025322924"><ele>78.0</ele><time>2026-04-08T10:49:06.999Z</time></trkpt><trkpt lat="51.620160910202685" lon="16.34615504371538"><ele>78.0</ele><time>2026-04-08T10:49:07.999Z</time></trkpt><trkpt lat="51.620284578428986" lon="16.346019067681308"><ele>78.0</ele><time>2026-04-08T10:49:08.999Z</time></trkpt><trkpt lat="51.620397632277594" lon="16.345902841969444"><ele>78.25</ele><time>2026-04-08T10:49:09.999Z</time></trkpt><trkpt lat="51.62051227136231" lon="16.34578335518095"><ele>78.5</ele><time>2026-04-08T10:49:10.999Z</time></trkpt><trkpt lat="51.620624766230975" lon="16.345658721028208"><ele>78.75</ele><time>2026-04-08T10:49:11.999Z</time></trkpt><trkpt lat="51.62074894559656" lon="16.34553829659344"><ele>79.0</ele><time>2026-04-08T10:49:13Z</time></trkpt><trkpt lat="51.62088152201228" lon="16.345417105245406"><ele>79.33333333333333</ele><time>2026-04-08T10:49:14Z</time></trkpt><trkpt lat="51.621014605771336" lon="16.345280869656026"><ele>79.66666666666667</ele><time>2026-04-08T10:49:15Z</time></trkpt><trkpt lat="51.62114593051534" lon="16.34515353172872"><ele>80.0</ele><time>2026-04-08T10:49:16Z</time></trkpt><trkpt lat="51.6212741020617" lon="16.34503111174081"><ele>80.0</ele><time>2026-04-08T10:49:17Z</time></trkpt><trkpt lat="51.62140337938548" lon="16.344920229590134"><ele>80.0</ele><time>2026-04-08T10:49:18Z</time></trkpt><trkpt lat="51.62152893882013" lon="16.344821681318265"><ele>80.0</ele><time>2026-04-08T10:49:19Z</time></trkpt><trkpt lat="51.621660410809596" lon="16.344724283399625"><ele>80.0</ele><time>2026-04-08T10:49:20Z</time></trkpt><trkpt lat="51.62179711603686" lon="16.344628347707804"><ele>79.66666666666667</ele><time>2026-04-08T10:49:21Z</time></trkpt><trkpt lat="51.621930990660935" lon="16.34452773093261"><ele>79.33333333333333</ele><time>2026-04-08T10:49:22Z</time></trkpt><trkpt lat="51.62206665471223" lon="16.344427075616043"><ele>79.0</ele><time>2026-04-08T10:49:23Z</time></trkpt><trkpt lat="51.62220501840038" lon="16.344319737476347"><ele>78.75</ele><time>2026-04-08T10:49:24Z</time></trkpt><trkpt lat="51.62234581743897" lon="16.344233625356317"><ele>78.5</ele><time>2026-04-08T10:49:25Z</time></trkpt><trkpt lat="51.622482525687694" lon="16.34414314283648"><ele>78.25</ele><time>2026-04-08T10:49:26Z</time></trkpt><trkpt lat="51.62261566892453" lon="16.344055821797596"><ele>78.0</ele><time>2026-04-08T10:49:27Z</time></trkpt><trkpt lat="51.62274071143956" lon="16.343971180901022"><ele>78.0</ele><time>2026-04-08T10:49:28Z</time></trkpt><trkpt lat="51.62286959208415" lon="16.343889725717965"><ele>78.0</ele><time>2026-04-08T10:49:29Z</time></trkpt><trkpt lat="51.62300111231683" lon="16.343806914617645"><ele>78.0</ele><time>2026-04-08T10:49:30Z</time></trkpt><trkpt lat="51.623131738344185" lon="16.343720394606386"><ele>78.0</ele><time>2026-04-08T10:49:31Z</time></trkpt><trkpt lat="51.623257331428604" lon="16.343641644376913"><ele>78.0</ele><time>2026-04-08T10:49:32Z</time></trkpt><trkpt lat="51.62338324723822" lon="16.343563745849874"><ele>78.0</ele><time>2026-04-08T10:49:33Z</time></trkpt><trkpt lat="51.62350437291908" lon="16.343491129691166"><ele>78.0</ele><time>2026-04-08T10:49:34Z</time></trkpt><trkpt lat="51.623629778500785" lon="16.343416620124028"><ele>78.0</ele><time>2026-04-08T10:49:35Z</time></trkpt><trkpt lat="51.62375432606087" lon="16.3433404524181"><ele>78.0</ele><time>2026-04-08T10:49:36Z</time></trkpt><trkpt lat="51.62386886722916" lon="16.343272912471747"><ele>78.0</ele><time>2026-04-08T10:49:37Z</time></trkpt><trkpt lat="51.623971358979965" lon="16.343201366670055"><ele>78.0</ele><time>2026-04-08T10:49:38Z</time></trkpt><trkpt lat="51.62406533499183" lon="16.343124565513286"><ele>78.0</ele><time>2026-04-08T10:49:39Z</time></trkpt><trkpt lat="51.6241655031742" lon="16.34305915893475"><ele>78.0</ele><time>2026-04-08T10:49:40Z</time></trkpt><trkpt lat="51.62427305577474" lon="16.34302142559335"><ele>78.0</ele><time>2026-04-08T10:49:41Z</time></trkpt><trkpt lat="51.62438976120328" lon="16.34298374820286"><ele>78.0</ele><time>2026-04-08T10:49:42Z</time></trkpt><trkpt lat="51.62451373948857" lon="16.34293946026539"><ele>78.0</ele><time>2026-04-08T10:49:43Z</time></trkpt><trkpt lat="51.6246434664335" lon="16.34288749150606"><ele>78.0</ele><time>2026-04-08T10:49:44Z</time></trkpt><trkpt lat="51.62477748714213" lon="16.34282984219527"><ele>78.5</ele><time>2026-04-08T10:49:45Z</time></trkpt><trkpt lat="51.62491310588817" lon="16.34275204954112"><ele>79.0</ele><time>2026-04-08T10:49:46Z</time></trkpt><trkpt lat="51.62505165569866" lon="16.342685441417142"><ele>79.5</ele><time>2026-04-08T10:49:47Z</time></trkpt><trkpt lat="51.625194912276754" lon="16.342626993248945"><ele>80.0</ele><time>2026-04-08T10:49:48Z</time></trkpt><trkpt lat="51.625348197693974" lon="16.34256327972833"><ele>80.0</ele><time>2026-04-08T10:49:49Z</time></trkpt><trkpt lat="51.625503028858176" lon="16.3425046982147"><ele>80.0</ele><time>2026-04-08T10:49:50Z</time></trkpt><trkpt lat="51.62565079027291" lon="16.34245958381917"><ele>80.0</ele><time>2026-04-08T10:49:51Z</time></trkpt><trkpt lat="51.62580236021001" lon="16.342409448502114"><ele>80.0</ele><time>2026-04-08T10:49:52Z</time></trkpt><trkpt lat="51.62595569595787" lon="16.342363130983163"><ele>80.0</ele><time>2026-04-08T10:49:53Z</time></trkpt><trkpt lat="51.62610219539758" lon="16.342309471760352"><ele>80.0</ele><time>2026-04-08T10:49:54Z</time></trkpt><trkpt lat="51.626227009134645" lon="16.34226606618938"><ele>80.0</ele><time>2026-04-08T10:49:55Z</time></trkpt><trkpt lat="51.626342077107225" lon="16.34222585212737"><ele>80.75</ele><time>2026-04-08T10:49:56Z</time></trkpt><trkpt lat="51.626459787276076" lon="16.342191868406076"><ele>81.5</ele><time>2026-04-08T10:49:57Z</time></trkpt><trkpt lat="51.626584445754766" lon="16.342154077571504"><ele>82.25</ele><time>2026-04-08T10:49:58Z</time></trkpt><trkpt lat="51.62671262126362" lon="16.34211003479407"><ele>83.0</ele><time>2026-04-08T10:49:59Z</time></trkpt><trkpt lat="51.626843134896625" lon="16.342070115642823"><ele>83.0</ele><time>2026-04-08T10:50:00Z</time></trkpt><trkpt lat="51.626970704088414" lon="16.342047439268516"><ele>83.0</ele><time>2026-04-08T10:50:01Z</time></trkpt><trkpt lat="51.62709978471172" lon="16.342017391727467"><ele>83.0</ele><time>2026-04-08T10:50:02Z</time></trkpt><trkpt lat="51.62722681388641" lon="16.341980474991693"><ele>83.0</ele><time>2026-04-08T10:50:03Z</time></trkpt><trkpt lat="51.627348936510494" lon="16.34194762548683"><ele>82.5</ele><time>2026-04-08T10:50:04Z</time></trkpt><trkpt lat="51.627471383036536" lon="16.34192063725458"><ele>82.0</ele><time>2026-04-08T10:50:05Z</time></trkpt><trkpt lat="51.62758938969916" lon="16.341894630581645"><ele>81.5</ele><time>2026-04-08T10:50:06Z</time></trkpt><trkpt lat="51.627707058659" lon="16.341873225179146"><ele>81.0</ele><time>2026-04-08T10:50:07Z</time></trkpt><trkpt lat="51.627823664739616" lon="16.341852387483396"><ele>80.75</ele><time>2026-04-08T10:50:08Z</time></trkpt><trkpt lat="51.62793696019843" lon="16.341837317785004"><ele>80.5</ele><time>2026-04-08T10:50:09Z</time></trkpt><trkpt lat="51.62805743628774" lon="16.341811707233923"><ele>80.25</ele><time>2026-04-08T10:50:10Z</time></trkpt><trkpt lat="51.62818054283145" lon="16.341775640363654"><ele>80.0</ele><time>2026-04-08T10:50:11Z</time></trkpt><trkpt lat="51.628302297842865" lon="16.34175541993212"><ele>80.0</ele><time>2026-04-08T10:50:12Z</time></trkpt><trkpt lat="51.62842249708359" lon="16.341732621018327"><ele>80.0</ele><time>2026-04-08T10:50:13Z</time></trkpt><trkpt lat="51.62854320285874" lon="16.341703076032577"><ele>80.0</ele><time>2026-04-08T10:50:14Z</time></trkpt><trkpt lat="51.62866609202806" lon="16.341678954614586"><ele>80.0</ele><time>2026-04-08T10:50:15Z</time></trkpt><trkpt lat="51.62878836528839" lon="16.34165392097185"><ele>80.0</ele><time>2026-04-08T10:50:16Z</time></trkpt><trkpt lat="51.62891372612081" lon="16.34163086897991"><ele>80.0</ele><time>2026-04-08T10:50:17Z</time></trkpt><trkpt lat="51.6290403177872" lon="16.34160145665592"><ele>80.0</ele><time>2026-04-08T10:50:18Z</time></trkpt><trkpt lat="51.629166412412175" lon="16.341578340387407"><ele>80.0</ele><time>2026-04-08T10:50:19Z</time></trkpt><trkpt lat="51.62929332466502" lon="16.34154765538344"><ele>80.0</ele><time>2026-04-08T10:50:20Z</time></trkpt><trkpt lat="51.629419455505776" lon="16.341523306567474"><ele>80.0</ele><time>2026-04-08T10:50:21Z</time></trkpt><trkpt lat="51.62954332961873" lon="16.341498521472868"><ele>80.0</ele><time>2026-04-08T10:50:22Z</time></trkpt><trkpt lat="51.629669422479026" lon="16.341474591325742"><ele>80.0</ele><time>2026-04-08T10:50:23Z</time></trkpt><trkpt lat="51.629793348212104" lon="16.341440892764346"><ele>80.2</ele><time>2026-04-08T10:50:24Z</time></trkpt><trkpt lat="51.62991433626644" lon="16.3414205183033"><ele>80.4</ele><time>2026-04-08T10:50:25Z</time></trkpt><trkpt lat="51.63002808058484" lon="16.34139163554237"><ele>80.6</ele><time>2026-04-08T10:50:26Z</time></trkpt><trkpt lat="51.63012403537413" lon="16.34136746012096"><ele>80.8</ele><time>2026-04-08T10:50:27Z</time></trkpt><trkpt lat="51.630223004086105" lon="16.341350497141626"><ele>81.0</ele><time>2026-04-08T10:50:28Z</time></trkpt><trkpt lat="51.63032058201549" lon="16.341328909532102"><ele>81.0</ele><time>2026-04-08T10:50:29Z</time></trkpt><trkpt lat="51.63041648635637" lon="16.3413098948514"><ele>81.0</ele><time>2026-04-08T10:50:30Z</time></trkpt><trkpt lat="51.63049543717995" lon="16.341311666586613"><ele>81.0</ele><time>2026-04-08T10:50:31Z</time></trkpt><trkpt lat="51.630563260847566" lon="16.34133400823773"><ele>81.0</ele><time>2026-04-08T10:50:32Z</time></trkpt><trkpt lat="51.63066107901864" lon="16.34132159460098"><ele>81.0</ele><time>2026-04-08T10:50:34Z</time></trkpt><trkpt lat="51.630734889459006" lon="16.34119258411894"><ele>81.0</ele><time>2026-04-08T10:50:36Z</time></trkpt><trkpt lat="51.63080627284996" lon="16.341168718591337"><ele>81.0</ele><time>2026-04-08T10:50:37Z</time></trkpt><trkpt lat="51.63089358774265" lon="16.341143610888047"><ele>81.0</ele><time>2026-04-08T10:50:38Z</time></trkpt><trkpt lat="51.63100246066941" lon="16.34112391581605"><ele>81.0</ele><time>2026-04-08T10:50:39Z</time></trkpt><trkpt lat="51.631125344374276" lon="16.341092802752026"><ele>81.0</ele><time>2026-04-08T10:50:40Z</time></trkpt><trkpt lat="51.63125360685004" lon="16.34105652384689"><ele>80.75</ele><time>2026-04-08T10:50:41Z</time></trkpt><trkpt lat="51.63138535262201" lon="16.341010487743233"><ele>80.5</ele><time>2026-04-08T10:50:42Z</time></trkpt><trkpt lat="51.63151831645964" lon="16.340964645574456"><ele>80.25</ele><time>2026-04-08T10:50:43Z</time></trkpt><trkpt lat="51.63165610485897" lon="16.340920227186494"><ele>80.0</ele><time>2026-04-08T10:50:44Z</time></trkpt><trkpt lat="51.63179396524434" lon="16.340875216428184"><ele>80.0</ele><time>2026-04-08T10:50:45Z</time></trkpt><trkpt lat="51.631936606297245" lon="16.340831931022862"><ele>80.0</ele><time>2026-04-08T10:50:46Z</time></trkpt><trkpt lat="51.63207975968466" lon="16.34077933771391"><ele>80.0</ele><time>2026-04-08T10:50:47Z</time></trkpt><trkpt lat="51.63222720136166" lon="16.340735819182655"><ele>80.0</ele><time>2026-04-08T10:50:48Z</time></trkpt><trkpt lat="51.632377579551815" lon="16.340683261391383"><ele>80.0</ele><time>2026-04-08T10:50:49Z</time></trkpt><trkpt lat="51.6325270798634" lon="16.340641496369145"><ele>80.0</ele><time>2026-04-08T10:50:50Z</time></trkpt><trkpt lat="51.632681042533925" lon="16.340599137160684"><ele>80.0</ele><time>2026-04-08T10:50:51Z</time></trkpt><trkpt lat="51.63283362708702" lon="16.34054442974033"><ele>80.0</ele><time>2026-04-08T10:50:52Z</time></trkpt><trkpt lat="51.632993953149835" lon="16.340480315045237"><ele>80.0</ele><time>2026-04-08T10:50:52.997Z</time></trkpt><trkpt lat="51.63315531146774" lon="16.34042361643503"><ele>80.0</ele><time>2026-04-08T10:50:53.997Z</time></trkpt><trkpt lat="51.63331056773539" lon="16.340375608577855"><ele>80.0</ele><time>2026-04-08T10:50:54.998Z</time></trkpt><trkpt lat="51.63346583680865" lon="16.34032131757146"><ele>80.0</ele><time>2026-04-08T10:50:55.998Z</time></trkpt><trkpt lat="51.63362394756977" lon="16.340270080903817"><ele>80.0</ele><time>2026-04-08T10:50:56.998Z</time></trkpt><trkpt lat="51.633780275380985" lon="16.340216522756144"><ele>80.0</ele><time>2026-04-08T10:50:57.998Z</time></trkpt><trkpt lat="51.63393357715987" lon="16.340171079368158"><ele>80.0</ele><time>2026-04-08T10:50:58.998Z</time></trkpt><trkpt lat="51.63408868429922" lon="16.340132580499713"><ele>80.0</ele><time>2026-04-08T10:50:59.998Z</time></trkpt><trkpt lat="51.63423861219954" lon="16.34009070282499"><ele>80.0</ele><time>2026-04-08T10:51:00.998Z</time></trkpt><trkpt lat="51.63438426766292" lon="16.3400410557702"><ele>80.0</ele><time>2026-04-08T10:51:01.998Z</time></trkpt><trkpt lat="51.63452027962742" lon="16.339990627741187"><ele>80.0</ele><time>2026-04-08T10:51:02.998Z</time></trkpt><trkpt lat="51.63464239413176" lon="16.33993356489922"><ele>80.0</ele><time>2026-04-08T10:51:03.998Z</time></trkpt><trkpt lat="51.634746203454995" lon="16.339882726552677"><ele>80.6</ele><time>2026-04-08T10:51:04.998Z</time></trkpt><trkpt lat="51.63484651201096" lon="16.33983544487293"><ele>81.2</ele><time>2026-04-08T10:51:05.998Z</time></trkpt><trkpt lat="51.63493298173923" lon="16.33980516944119"><ele>81.80000000000001</ele><time>2026-04-08T10:51:06.998Z</time></trkpt><trkpt lat="51.6350380757101" lon="16.33977530274772"><ele>82.4</ele><time>2026-04-08T10:51:07.998Z</time></trkpt><trkpt lat="51.63516220543119" lon="16.339750047407335"><ele>83.0</ele><time>2026-04-08T10:51:08.998Z</time></trkpt><trkpt lat="51.63529487112984" lon="16.339718866986917"><ele>83.25</ele><time>2026-04-08T10:51:09.998Z</time></trkpt><trkpt lat="51.63542915612509" lon="16.33966973243028"><ele>83.5</ele><time>2026-04-08T10:51:10.998Z</time></trkpt><trkpt lat="51.635567908989884" lon="16.33962476168214"><ele>83.75</ele><time>2026-04-08T10:51:11.998Z</time></trkpt><trkpt lat="51.63570974700133" lon="16.33957639391302"><ele>84.0</ele><time>2026-04-08T10:51:12.999Z</time></trkpt><trkpt lat="51.63585520458397" lon="16.339544173692165"><ele>84.0</ele><time>2026-04-08T10:51:13.999Z</time></trkpt><trkpt lat="51.63599790476569" lon="16.339492605398316"><ele>84.0</ele><time>2026-04-08T10:51:14.999Z</time></trkpt><trkpt lat="51.63613994629134" lon="16.339441337017856"><ele>84.0</ele><time>2026-04-08T10:51:15.999Z</time></trkpt><trkpt lat="51.63628639531329" lon="16.339391426409538"><ele>84.0</ele><time>2026-04-08T10:51:16.999Z</time></trkpt><trkpt lat="51.636433621925406" lon="16.33933411118405"><ele>84.0</ele><time>2026-04-08T10:51:17.999Z</time></trkpt><trkpt lat="51.63658641767241" lon="16.339295322728532"><ele>84.0</ele><time>2026-04-08T10:51:18.999Z</time></trkpt><trkpt lat="51.636730784541136" lon="16.33925201409204"><ele>84.0</ele><time>2026-04-08T10:51:19.999Z</time></trkpt><trkpt lat="51.636865094035684" lon="16.339200404672905"><ele>84.0</ele><time>2026-04-08T10:51:20.999Z</time></trkpt><trkpt lat="51.637008685278836" lon="16.33916324715384"><ele>83.0</ele><time>2026-04-08T10:51:21.999Z</time></trkpt><trkpt lat="51.63715189649275" lon="16.33912613224069"><ele>82.0</ele><time>2026-04-08T10:51:22.999Z</time></trkpt><trkpt lat="51.63728870343738" lon="16.33909919748035"><ele>81.0</ele><time>2026-04-08T10:51:23.999Z</time></trkpt><trkpt lat="51.637419409253" lon="16.339100425363828"><ele>80.0</ele><time>2026-04-08T10:51:24.999Z</time></trkpt><trkpt lat="51.63754679081865" lon="16.33913828092349"><ele>80.0</ele><time>2026-04-08T10:51:25.999Z</time></trkpt><trkpt lat="51.63767112538662" lon="16.33919511592538"><ele>80.0</ele><time>2026-04-08T10:51:26.999Z</time></trkpt><trkpt lat="51.637793651009325" lon="16.339262931041905"><ele>80.0</ele><time>2026-04-08T10:51:27.999Z</time></trkpt><trkpt lat="51.63792182875867" lon="16.33935363203211"><ele>80.0</ele><time>2026-04-08T10:51:28.999Z</time></trkpt><trkpt lat="51.63805838325992" lon="16.339441172274412"><ele>79.66666666666667</ele><time>2026-04-08T10:51:29.999Z</time></trkpt><trkpt lat="51.63819645472994" lon="16.339529631275177"><ele>79.33333333333333</ele><time>2026-04-08T10:51:30.999Z</time></trkpt><trkpt lat="51.638339469249736" lon="16.339606794650926"><ele>79.0</ele><time>2026-04-08T10:51:31.999Z</time></trkpt><trkpt lat="51.638485686195885" lon="16.33967307740708"><ele>79.25</ele><time>2026-04-08T10:51:32.999Z</time></trkpt><trkpt lat="51.638629699190936" lon="16.339729723150228"><ele>79.5</ele><time>2026-04-08T10:51:33.999Z</time></trkpt><trkpt lat="51.638760196712695" lon="16.33977265852689"><ele>79.75</ele><time>2026-04-08T10:51:34.999Z</time></trkpt><trkpt lat="51.63888434363308" lon="16.339796354296297"><ele>80.0</ele><time>2026-04-08T10:51:35.999Z</time></trkpt><trkpt lat="51.639005363680305" lon="16.339806126317825"><ele>80.0</ele><time>2026-04-08T10:51:36.999Z</time></trkpt><trkpt lat="51.639116484958905" lon="16.339790871358815"><ele>80.0</ele><time>2026-04-08T10:51:37.999Z</time></trkpt><trkpt lat="51.639234586475304" lon="16.339788335283863"><ele>80.0</ele><time>2026-04-08T10:51:38.999Z</time></trkpt><trkpt lat="51.63936581559159" lon="16.339802824664144"><ele>80.0</ele><time>2026-04-08T10:51:39.999Z</time></trkpt><trkpt lat="51.63950206984041" lon="16.339821778693416"><ele>79.75</ele><time>2026-04-08T10:51:40.999Z</time></trkpt><trkpt lat="51.63963761044079" lon="16.339816306139543"><ele>79.5</ele><time>2026-04-08T10:51:41.999Z</time></trkpt><trkpt lat="51.639771942496445" lon="16.339802903541"><ele>79.25</ele><time>2026-04-08T10:51:42.999Z</time></trkpt><trkpt lat="51.6399017510499" lon="16.339774036012464"><ele>79.0</ele><time>2026-04-08T10:51:44Z</time></trkpt><trkpt lat="51.6400391727192" lon="16.33974151288591"><ele>79.0</ele><time>2026-04-08T10:51:45Z</time></trkpt><trkpt lat="51.64018011254334" lon="16.33970982119611"><ele>79.0</ele><time>2026-04-08T10:51:46Z</time></trkpt><trkpt lat="51.6403231756526" lon="16.339678515723875"><ele>79.0</ele><time>2026-04-08T10:51:47Z</time></trkpt><trkpt lat="51.64046857180951" lon="16.339642973038742"><ele>79.0</ele><time>2026-04-08T10:51:48Z</time></trkpt><trkpt lat="51.640611943628905" lon="16.3395904473415"><ele>79.0</ele><time>2026-04-08T10:51:49Z</time></trkpt><trkpt lat="51.640757384225445" lon="16.339542156255373"><ele>79.0</ele><time>2026-04-08T10:51:50Z</time></trkpt><trkpt lat="51.640896934642946" lon="16.33948738628962"><ele>79.0</ele><time>2026-04-08T10:51:51Z</time></trkpt><trkpt lat="51.641028300530294" lon="16.339421347970877"><ele>79.0</ele><time>2026-04-08T10:51:52Z</time></trkpt><trkpt lat="51.64116787527703" lon="16.339358998785645"><ele>79.66666666666666</ele><time>2026-04-08T10:51:53Z</time></trkpt><trkpt lat="51.641313008907275" lon="16.339284802402315"><ele>80.33333333333333</ele><time>2026-04-08T10:51:54Z</time></trkpt><trkpt lat="51.641456093047225" lon="16.339202324098423"><ele>81.0</ele><time>2026-04-08T10:51:55Z</time></trkpt><trkpt lat="51.641600642096215" lon="16.33910868409394"><ele>81.0</ele><time>2026-04-08T10:51:56Z</time></trkpt><trkpt lat="51.64174534588281" lon="16.33901858722618"><ele>81.0</ele><time>2026-04-08T10:51:57Z</time></trkpt><trkpt lat="51.641890112665415" lon="16.338927357621618"><ele>81.0</ele><time>2026-04-08T10:51:58Z</time></trkpt><trkpt lat="51.642038476520234" lon="16.338822628571382"><ele>80.33333333333333</ele><time>2026-04-08T10:51:59Z</time></trkpt><trkpt lat="51.64217980880363" lon="16.338720910050622"><ele>79.66666666666666</ele><time>2026-04-08T10:52:00Z</time></trkpt><trkpt lat="51.64232004378645" lon="16.338618734867936"><ele>79.0</ele><time>2026-04-08T10:52:01Z</time></trkpt><trkpt lat="51.642453927331964" lon="16.338506278051316"><ele>79.0</ele><time>2026-04-08T10:52:02Z</time></trkpt><trkpt lat="51.642587457773836" lon="16.338409087933762"><ele>79.0</ele><time>2026-04-08T10:52:03Z</time></trkpt><trkpt lat="51.64269932020851" lon="16.33829694759323"><ele>79.0</ele><time>2026-04-08T10:52:04Z</time></trkpt><trkpt lat="51.64281205154799" lon="16.338206361619804"><ele>79.0</ele><time>2026-04-08T10:52:05Z</time></trkpt><trkpt lat="51.642919690633754" lon="16.338078859600806"><ele>79.33333333333333</ele><time>2026-04-08T10:52:06Z</time></trkpt><trkpt lat="51.64303054027937" lon="16.33796477315581"><ele>79.66666666666667</ele><time>2026-04-08T10:52:07Z</time></trkpt><trkpt lat="51.64327393967237" lon="16.33773014019314"><ele>80.0</ele><time>2026-04-08T10:52:09Z</time></trkpt><trkpt lat="51.643391508510746" lon="16.337597601547177"><ele>80.0</ele><time>2026-04-08T10:52:10Z</time></trkpt><trkpt lat="51.64350961705018" lon="16.337472251203877"><ele>80.0</ele><time>2026-04-08T10:52:11Z</time></trkpt><trkpt lat="51.643635378707856" lon="16.337312184637952"><ele>80.0</ele><time>2026-04-08T10:52:12Z</time></trkpt><trkpt lat="51.64375323658807" lon="16.337186460423208"><ele>80.0</ele><time>2026-04-08T10:52:13Z</time></trkpt><trkpt lat="51.64387706896195" lon="16.33705464782237"><ele>80.33333333333334</ele><time>2026-04-08T10:52:14Z</time></trkpt><trkpt lat="51.64400330168644" lon="16.336921524216052"><ele>80.66666666666667</ele><time>2026-04-08T10:52:15Z</time></trkpt><trkpt lat="51.6441319346963" lon="16.33677929247217"><ele>81.0</ele><time>2026-04-08T10:52:16Z</time></trkpt><trkpt lat="51.644263571872436" lon="16.336630419049225"><ele>81.0</ele><time>2026-04-08T10:52:17Z</time></trkpt><trkpt lat="51.64439759218302" lon="16.3364829242936"><ele>81.0</ele><time>2026-04-08T10:52:18Z</time></trkpt><trkpt lat="51.64452218794127" lon="16.336353005819394"><ele>81.0</ele><time>2026-04-08T10:52:19Z</time></trkpt><trkpt lat="51.64464748001561" lon="16.336217527630403"><ele>80.33333333333333</ele><time>2026-04-08T10:52:20Z</time></trkpt><trkpt lat="51.644772543260885" lon="16.336084041679023"><ele>79.66666666666666</ele><time>2026-04-08T10:52:21Z</time></trkpt><trkpt lat="51.644898889463" lon="16.33594023734771"><ele>79.0</ele><time>2026-04-08T10:52:22Z</time></trkpt><trkpt lat="51.64501989933412" lon="16.33580021522057"><ele>79.0</ele><time>2026-04-08T10:52:23Z</time></trkpt><trkpt lat="51.64513058411965" lon="16.33566801347158"><ele>79.0</ele><time>2026-04-08T10:52:24Z</time></trkpt><trkpt lat="51.64523553627687" lon="16.335570114019728"><ele>79.0</ele><time>2026-04-08T10:52:25Z</time></trkpt><trkpt lat="51.64533428459532" lon="16.33545618616721"><ele>79.0</ele><time>2026-04-08T10:52:26Z</time></trkpt><trkpt lat="51.64545684513054" lon="16.335411119349395"><ele>79.0</ele><time>2026-04-08T10:52:27Z</time></trkpt><trkpt lat="51.645546381732736" lon="16.335309351039452"><ele>79.0</ele><time>2026-04-08T10:52:28Z</time></trkpt><trkpt lat="51.64563208606656" lon="16.335215443116468"><ele>79.0</ele><time>2026-04-08T10:52:29Z</time></trkpt><trkpt lat="51.645727475500024" lon="16.335111872199327"><ele>79.0</ele><time>2026-04-08T10:52:30Z</time></trkpt><trkpt lat="51.645832897516414" lon="16.33499740820857"><ele>79.0</ele><time>2026-04-08T10:52:31Z</time></trkpt><trkpt lat="51.645946323947854" lon="16.33486010118673"><ele>79.0</ele><time>2026-04-08T10:52:32Z</time></trkpt><trkpt lat="51.64606878608601" lon="16.334741146109074"><ele>79.0</ele><time>2026-04-08T10:52:33Z</time></trkpt><trkpt lat="51.646187277939504" lon="16.334612206121477"><ele>79.0</ele><time>2026-04-08T10:52:34Z</time></trkpt><trkpt lat="51.64630176658774" lon="16.33445569057919"><ele>79.66666666666666</ele><time>2026-04-08T10:52:35Z</time></trkpt><trkpt lat="51.64642994534802" lon="16.334325380314333"><ele>80.33333333333333</ele><time>2026-04-08T10:52:36Z</time></trkpt><trkpt lat="51.646560795281815" lon="16.334180276633198"><ele>81.0</ele><time>2026-04-08T10:52:37Z</time></trkpt><trkpt lat="51.646698368413915" lon="16.33403176409266"><ele>80.66666666666667</ele><time>2026-04-08T10:52:38Z</time></trkpt><trkpt lat="51.64683189956018" lon="16.333880165482764"><ele>80.33333333333334</ele><time>2026-04-08T10:52:39Z</time></trkpt><trkpt lat="51.646978084133686" lon="16.33374957873627"><ele>80.0</ele><time>2026-04-08T10:52:40Z</time></trkpt><trkpt lat="51.64711250997432" lon="16.333601550015313"><ele>79.66666666666667</ele><time>2026-04-08T10:52:41Z</time></trkpt><trkpt lat="51.64724554153619" lon="16.333455050503517"><ele>79.33333333333333</ele><time>2026-04-08T10:52:42Z</time></trkpt><trkpt lat="51.64738243469951" lon="16.333304437398933"><ele>79.0</ele><time>2026-04-08T10:52:43Z</time></trkpt><trkpt lat="51.64752341134164" lon="16.333149154066113"><ele>79.0</ele><time>2026-04-08T10:52:44Z</time></trkpt><trkpt lat="51.64765465904071" lon="16.333002383842715"><ele>79.0</ele><time>2026-04-08T10:52:45Z</time></trkpt><trkpt lat="51.64778336403461" lon="16.332855808570837"><ele>79.0</ele><time>2026-04-08T10:52:46Z</time></trkpt><trkpt lat="51.6479030688333" lon="16.33271237030986"><ele>79.0</ele><time>2026-04-08T10:52:47Z</time></trkpt><trkpt lat="51.648014638443456" lon="16.332569911014186"><ele>79.0</ele><time>2026-04-08T10:52:48Z</time></trkpt><trkpt lat="51.64811233094216" lon="16.332428555261206"><ele>79.0</ele><time>2026-04-08T10:52:49.001Z</time></trkpt><trkpt lat="51.648209228941276" lon="16.332264591927338"><ele>79.0</ele><time>2026-04-08T10:52:50.001Z</time></trkpt><trkpt lat="51.64830175519979" lon="16.332094144562568"><ele>79.33333333333333</ele><time>2026-04-08T10:52:51.001Z</time></trkpt><trkpt lat="51.648391692229346" lon="16.331910237391856"><ele>79.66666666666667</ele><time>2026-04-08T10:52:52.001Z</time></trkpt><trkpt lat="51.64847982681645" lon="16.331718209391493"><ele>80.0</ele><time>2026-04-08T10:52:53.001Z</time></trkpt><trkpt lat="51.64857126726893" lon="16.331507714965593"><ele>80.66666666666667</ele><time>2026-04-08T10:52:54.001Z</time></trkpt><trkpt lat="51.64865692991492" lon="16.33128501805935"><ele>81.33333333333333</ele><time>2026-04-08T10:52:55.001Z</time></trkpt><trkpt lat="51.64873843774779" lon="16.33105622602264"><ele>82.0</ele><time>2026-04-08T10:52:56.001Z</time></trkpt><trkpt lat="51.64882576420881" lon="16.33080959475561"><ele>82.0</ele><time>2026-04-08T10:52:57.001Z</time></trkpt><trkpt lat="51.64891052621711" lon="16.33056561344493"><ele>82.0</ele><time>2026-04-08T10:52:58.001Z</time></trkpt><trkpt lat="51.64899446837256" lon="16.330321750873825"><ele>82.0</ele><time>2026-04-08T10:52:58.999Z</time></trkpt><trkpt lat="51.649074279788266" lon="16.33008831017867"><ele>81.66666666666666</ele><time>2026-04-08T10:52:59.999Z</time></trkpt><trkpt lat="51.649149717704134" lon="16.329863879012347"><ele>81.33333333333333</ele><time>2026-04-08T10:53:00.999Z</time></trkpt><trkpt lat="51.64923269920597" lon="16.329617296984225"><ele>81.0</ele><time>2026-04-08T10:53:01.999Z</time></trkpt><trkpt lat="51.64931174070937" lon="16.329384075073076"><ele>81.0</ele><time>2026-04-08T10:53:02.999Z</time></trkpt><trkpt lat="51.64939108370905" lon="16.329149453270038"><ele>81.0</ele><time>2026-04-08T10:53:03.999Z</time></trkpt><trkpt lat="51.64947322960719" lon="16.32890660106466"><ele>81.0</ele><time>2026-04-08T10:53:04.999Z</time></trkpt><trkpt lat="51.649555567257345" lon="16.328663348841562"><ele>81.0</ele><time>2026-04-08T10:53:05.999Z</time></trkpt><trkpt lat="51.649635173612225" lon="16.328427732262895"><ele>81.0</ele><time>2026-04-08T10:53:06.999Z</time></trkpt><trkpt lat="51.649716518746196" lon="16.328187968782768"><ele>81.0</ele><time>2026-04-08T10:53:07.999Z</time></trkpt><trkpt lat="51.64979725194944" lon="16.32795073126431"><ele>80.33333333333333</ele><time>2026-04-08T10:53:08.999Z</time></trkpt><trkpt lat="51.64987935700352" lon="16.327709599913547"><ele>79.66666666666666</ele><time>2026-04-08T10:53:09.999Z</time></trkpt><trkpt lat="51.64995833538818" lon="16.32747659226375"><ele>79.0</ele><time>2026-04-08T10:53:10.999Z</time></trkpt><trkpt lat="51.65003448201091" lon="16.32724856721279"><ele>78.66666666666666</ele><time>2026-04-08T10:53:11.999Z</time></trkpt><trkpt lat="51.65010586952407" lon="16.327029243464157"><ele>78.33333333333333</ele><time>2026-04-08T10:53:12.999Z</time></trkpt><trkpt lat="51.650177185151826" lon="16.32682307953998"><ele>78.0</ele><time>2026-04-08T10:53:13.999Z</time></trkpt><trkpt lat="51.65025984049856" lon="16.326622165780556"><ele>78.0</ele><time>2026-04-08T10:53:15Z</time></trkpt><trkpt lat="51.650348366311" lon="16.326424025319373"><ele>78.0</ele><time>2026-04-08T10:53:16Z</time></trkpt><trkpt lat="51.6504418378179" lon="16.32622625895669"><ele>78.0</ele><time>2026-04-08T10:53:17Z</time></trkpt><trkpt lat="51.65053878204572" lon="16.32603130108413"><ele>78.0</ele><time>2026-04-08T10:53:18Z</time></trkpt><trkpt lat="51.6506386758413" lon="16.325838503777415"><ele>78.0</ele><time>2026-04-08T10:53:19Z</time></trkpt><trkpt lat="51.65074263124886" lon="16.325647678287915"><ele>78.0</ele><time>2026-04-08T10:53:20Z</time></trkpt><trkpt lat="51.65085216408709" lon="16.32546901168818"><ele>78.0</ele><time>2026-04-08T10:53:21Z</time></trkpt><trkpt lat="51.650977120691145" lon="16.32530606238527"><ele>78.0</ele><time>2026-04-08T10:53:22Z</time></trkpt><trkpt lat="51.65110219264712" lon="16.32514621250277"><ele>78.0</ele><time>2026-04-08T10:53:23Z</time></trkpt><trkpt lat="51.6512267694631" lon="16.32498541546729"><ele>78.0</ele><time>2026-04-08T10:53:24Z</time></trkpt><trkpt lat="51.65135343138922" lon="16.324821927130195"><ele>78.0</ele><time>2026-04-08T10:53:25Z</time></trkpt><trkpt lat="51.65148202067601" lon="16.324656398170543"><ele>78.0</ele><time>2026-04-08T10:53:26Z</time></trkpt><trkpt lat="51.65161321572382" lon="16.324488596747113"><ele>78.0</ele><time>2026-04-08T10:53:27Z</time></trkpt><trkpt lat="51.65174215008663" lon="16.32432363538713"><ele>78.0</ele><time>2026-04-08T10:53:28Z</time></trkpt><trkpt lat="51.65186738752903" lon="16.32416169598125"><ele>78.0</ele><time>2026-04-08T10:53:29Z</time></trkpt><trkpt lat="51.65199263295586" lon="16.324001795600083"><ele>78.0</ele><time>2026-04-08T10:53:30Z</time></trkpt><trkpt lat="51.65211154135265" lon="16.323848694384253"><ele>78.0</ele><time>2026-04-08T10:53:31Z</time></trkpt><trkpt lat="51.652235253533256" lon="16.32368913822952"><ele>78.0</ele><time>2026-04-08T10:53:32Z</time></trkpt><trkpt lat="51.65235651943358" lon="16.32353195685401"><ele>78.0</ele><time>2026-04-08T10:53:33Z</time></trkpt><trkpt lat="51.6524808003727" lon="16.323372293059435"><ele>78.0</ele><time>2026-04-08T10:53:34Z</time></trkpt><trkpt lat="51.65260555874359" lon="16.323211750200567"><ele>78.0</ele><time>2026-04-08T10:53:35Z</time></trkpt><trkpt lat="51.65272755376884" lon="16.32305411669421"><ele>78.0</ele><time>2026-04-08T10:53:36Z</time></trkpt><trkpt lat="51.6528495353773" lon="16.32289657892453"><ele>78.0</ele><time>2026-04-08T10:53:37Z</time></trkpt><trkpt lat="51.652975233994596" lon="16.32273463588487"><ele>78.0</ele><time>2026-04-08T10:53:38Z</time></trkpt><trkpt lat="51.65310619828368" lon="16.32256627554683"><ele>78.0</ele><time>2026-04-08T10:53:39Z</time></trkpt><trkpt lat="51.65324066747546" lon="16.322393499476373"><ele>78.0</ele><time>2026-04-08T10:53:40Z</time></trkpt><trkpt lat="51.65337107048536" lon="16.322227589357716"><ele>78.0</ele><time>2026-04-08T10:53:41Z</time></trkpt><trkpt lat="51.65348590412062" lon="16.322080018628366"><ele>77.75</ele><time>2026-04-08T10:53:42Z</time></trkpt><trkpt lat="51.65359035433896" lon="16.321946653863332"><ele>77.5</ele><time>2026-04-08T10:53:43Z</time></trkpt><trkpt lat="51.65369876139818" lon="16.321805260356502"><ele>77.25</ele><time>2026-04-08T10:53:44Z</time></trkpt><trkpt lat="51.65380980594795" lon="16.321659593362995"><ele>77.0</ele><time>2026-04-08T10:53:45Z</time></trkpt><trkpt lat="51.65391895921489" lon="16.321512469824672"><ele>77.75</ele><time>2026-04-08T10:53:46Z</time></trkpt><trkpt lat="51.65402544980597" lon="16.321362046565742"><ele>78.5</ele><time>2026-04-08T10:53:47Z</time></trkpt><trkpt lat="51.65412755056138" lon="16.321206839628083"><ele>79.25</ele><time>2026-04-08T10:53:48Z</time></trkpt><trkpt lat="51.65422441400056" lon="16.32106800387199"><ele>80.0</ele><time>2026-04-08T10:53:49Z</time></trkpt><trkpt lat="51.65431748227629" lon="16.32095659637899"><ele>80.0</ele><time>2026-04-08T10:53:50Z</time></trkpt><trkpt lat="51.65440597552993" lon="16.32086961579986"><ele>80.0</ele><time>2026-04-08T10:53:51Z</time></trkpt><trkpt lat="51.6545111557576" lon="16.32077295212406"><ele>80.0</ele><time>2026-04-08T10:53:52Z</time></trkpt><trkpt lat="51.65462563854163" lon="16.320649093971547"><ele>80.0</ele><time>2026-04-08T10:53:53Z</time></trkpt><trkpt lat="51.65471449426489" lon="16.32049684041238"><ele>79.75</ele><time>2026-04-08T10:53:54Z</time></trkpt><trkpt lat="51.65481517912215" lon="16.320371324319886"><ele>79.5</ele><time>2026-04-08T10:53:55Z</time></trkpt><trkpt lat="51.65492637468579" lon="16.320231273552444"><ele>79.25</ele><time>2026-04-08T10:53:56Z</time></trkpt><trkpt lat="51.65504789934435" lon="16.32009997787349"><ele>79.0</ele><time>2026-04-08T10:53:57Z</time></trkpt><trkpt lat="51.65516474935798" lon="16.319951278026934"><ele>79.0</ele><time>2026-04-08T10:53:58Z</time></trkpt><trkpt lat="51.655272224637216" lon="16.31978355084185"><ele>79.0</ele><time>2026-04-08T10:53:59Z</time></trkpt><trkpt lat="51.65538890765122" lon="16.31963649972386"><ele>79.0</ele><time>2026-04-08T10:54:00Z</time></trkpt><trkpt lat="51.65550363362672" lon="16.31948820831356"><ele>79.0</ele><time>2026-04-08T10:54:01.001Z</time></trkpt><trkpt lat="51.65563328612434" lon="16.319356429663646"><ele>78.66666666666666</ele><time>2026-04-08T10:54:02.001Z</time></trkpt><trkpt lat="51.65575780414867" lon="16.31919746346815"><ele>78.33333333333333</ele><time>2026-04-08T10:54:03.001Z</time></trkpt><trkpt lat="51.65588591145299" lon="16.319032998425808"><ele>78.0</ele><time>2026-04-08T10:54:04.001Z</time></trkpt><trkpt lat="51.65601315563228" lon="16.31887017010082"><ele>78.0</ele><time>2026-04-08T10:54:05.001Z</time></trkpt><trkpt lat="51.656141999420285" lon="16.31870646202642"><ele>78.0</ele><time>2026-04-08T10:54:06.001Z</time></trkpt><trkpt lat="51.65626914162377" lon="16.318543715083813"><ele>78.0</ele><time>2026-04-08T10:54:07.001Z</time></trkpt><trkpt lat="51.656397113712636" lon="16.31837921893582"><ele>78.0</ele><time>2026-04-08T10:54:08.001Z</time></trkpt><trkpt lat="51.6565258449891" lon="16.318214441997043"><ele>78.0</ele><time>2026-04-08T10:54:09.001Z</time></trkpt><trkpt lat="51.65665385633371" lon="16.31805291412212"><ele>78.0</ele><time>2026-04-08T10:54:10.001Z</time></trkpt><trkpt lat="51.656780034899946" lon="16.31789444865614"><ele>77.75</ele><time>2026-04-08T10:54:11.001Z</time></trkpt><trkpt lat="51.656894658623706" lon="16.31772849401006"><ele>77.5</ele><time>2026-04-08T10:54:12.001Z</time></trkpt><trkpt lat="51.65698095534041" lon="16.317564816223353"><ele>77.25</ele><time>2026-04-08T10:54:13.001Z</time></trkpt><trkpt lat="51.65706811982799" lon="16.3174275984917"><ele>77.0</ele><time>2026-04-08T10:54:14.001Z</time></trkpt><trkpt lat="51.65715186748533" lon="16.3173104845931"><ele>77.5</ele><time>2026-04-08T10:54:15.001Z</time></trkpt><trkpt lat="51.657232371810146" lon="16.317175235696944"><ele>78.0</ele><time>2026-04-08T10:54:16.001Z</time></trkpt><trkpt lat="51.65732817275941" lon="16.31700970787895"><ele>78.5</ele><time>2026-04-08T10:54:17.001Z</time></trkpt><trkpt lat="51.65739871589582" lon="16.316849985462593"><ele>79.0</ele><time>2026-04-08T10:54:18.001Z</time></trkpt><trkpt lat="51.65747978836671" lon="16.316698775563285"><ele>79.0</ele><time>2026-04-08T10:54:19.001Z</time></trkpt><trkpt lat="51.657561113181636" lon="16.316539602556844"><ele>79.0</ele><time>2026-04-08T10:54:20.001Z</time></trkpt><trkpt lat="51.65763952197121" lon="16.31637015415276"><ele>79.0</ele><time>2026-04-08T10:54:21.001Z</time></trkpt><trkpt lat="51.65770832198456" lon="16.316199801740872"><ele>79.0</ele><time>2026-04-08T10:54:22.001Z</time></trkpt><trkpt lat="51.657789958580416" lon="16.31599621501574"><ele>78.66666666666666</ele><time>2026-04-08T10:54:23.001Z</time></trkpt><trkpt lat="51.65786744517305" lon="16.315796165836254"><ele>78.33333333333333</ele><time>2026-04-08T10:54:24.001Z</time></trkpt><trkpt lat="51.65794870212771" lon="16.315584026985594"><ele>78.0</ele><time>2026-04-08T10:54:25.001Z</time></trkpt><trkpt lat="51.65803036643769" lon="16.315371605769506"><ele>78.0</ele><time>2026-04-08T10:54:26.001Z</time></trkpt><trkpt lat="51.65810670784094" lon="16.31513941155429"><ele>78.0</ele><time>2026-04-08T10:54:27.001Z</time></trkpt><trkpt lat="51.65817458572025" lon="16.314907965834944"><ele>78.0</ele><time>2026-04-08T10:54:28.001Z</time></trkpt><trkpt lat="51.65823566414144" lon="16.314680661515418"><ele>77.66666666666667</ele><time>2026-04-08T10:54:29.001Z</time></trkpt><trkpt lat="51.65831723676546" lon="16.314452173390013"><ele>77.33333333333334</ele><time>2026-04-08T10:54:30.001Z</time></trkpt><trkpt lat="51.658387090757834" lon="16.31421796324052"><ele>77.0</ele><time>2026-04-08T10:54:31.001Z</time></trkpt><trkpt lat="51.658456195913864" lon="16.313982467902882"><ele>77.0</ele><time>2026-04-08T10:54:32.001Z</time></trkpt><trkpt lat="51.65852791146827" lon="16.31373642294602"><ele>77.0</ele><time>2026-04-08T10:54:33.001Z</time></trkpt><trkpt lat="51.65860139863498" lon="16.31348360740525"><ele>77.0</ele><time>2026-04-08T10:54:34.001Z</time></trkpt><trkpt lat="51.65867394255513" lon="16.31323039740821"><ele>77.0</ele><time>2026-04-08T10:54:35.001Z</time></trkpt><trkpt lat="51.65874481464493" lon="16.31298329085423"><ele>77.0</ele><time>2026-04-08T10:54:36.001Z</time></trkpt><trkpt lat="51.65881745831302" lon="16.31273129578941"><ele>77.0</ele><time>2026-04-08T10:54:37.001Z</time></trkpt><trkpt lat="51.658883230837354" lon="16.312499916592838"><ele>77.0</ele><time>2026-04-08T10:54:38.001Z</time></trkpt><trkpt lat="51.65894747791907" lon="16.31227243418387"><ele>77.0</ele><time>2026-04-08T10:54:39.001Z</time></trkpt><trkpt lat="51.65900758843715" lon="16.312059729441955"><ele>77.0</ele><time>2026-04-08T10:54:40.001Z</time></trkpt><trkpt lat="51.65906683647648" lon="16.31184578342527"><ele>77.0</ele><time>2026-04-08T10:54:41.001Z</time></trkpt><trkpt lat="51.65912089250993" lon="16.3116410302453"><ele>77.0</ele><time>2026-04-08T10:54:42.001Z</time></trkpt><trkpt lat="51.65915417376204" lon="16.31144606028027"><ele>77.0</ele><time>2026-04-08T10:54:43.001Z</time></trkpt><trkpt lat="51.65919544924001" lon="16.311279239476836"><ele>77.0</ele><time>2026-04-08T10:54:44.001Z</time></trkpt><trkpt lat="51.65924964775958" lon="16.31112930244951"><ele>77.0</ele><time>2026-04-08T10:54:45.001Z</time></trkpt><trkpt lat="51.659292043921866" lon="16.310982978142285"><ele>77.0</ele><time>2026-04-08T10:54:46.001Z</time></trkpt><trkpt lat="51.659339795757575" lon="16.310834188594256"><ele>77.25</ele><time>2026-04-08T10:54:47.001Z</time></trkpt><trkpt lat="51.65938907577385" lon="16.310662802558245"><ele>77.5</ele><time>2026-04-08T10:54:48.001Z</time></trkpt><trkpt lat="51.65945425766547" lon="16.3104750568933"><ele>77.75</ele><time>2026-04-08T10:54:49.001Z</time></trkpt><trkpt lat="51.659513706480624" lon="16.310273135716194"><ele>78.0</ele><time>2026-04-08T10:54:50.001Z</time></trkpt><trkpt lat="51.65957731413734" lon="16.310057728296385"><ele>78.0</ele><time>2026-04-08T10:54:51.001Z</time></trkpt><trkpt lat="51.65964158863129" lon="16.309833084353496"><ele>78.0</ele><time>2026-04-08T10:54:52.001Z</time></trkpt><trkpt lat="51.659723964138635" lon="16.309610478644657"><ele>78.0</ele><time>2026-04-08T10:54:53.001Z</time></trkpt><trkpt lat="51.659778983649076" lon="16.309361696265793"><ele>78.33333333333333</ele><time>2026-04-08T10:54:54.001Z</time></trkpt><trkpt lat="51.65984938916284" lon="16.30912546217094"><ele>78.66666666666666</ele><time>2026-04-08T10:54:55.001Z</time></trkpt><trkpt lat="51.65991725254463" lon="16.30887423927373"><ele>79.0</ele><time>2026-04-08T10:54:56.001Z</time></trkpt><trkpt lat="51.65997603331242" lon="16.308646679396656"><ele>79.25</ele><time>2026-04-08T10:54:57.001Z</time></trkpt><trkpt lat="51.66003879414599" lon="16.30845958563972"><ele>79.5</ele><time>2026-04-08T10:54:58.001Z</time></trkpt><trkpt lat="51.66009267185743" lon="16.308290475391903"><ele>79.75</ele><time>2026-04-08T10:54:59.001Z</time></trkpt><trkpt lat="51.660158148564584" lon="16.30815452227128"><ele>80.0</ele><time>2026-04-08T10:55:00.001Z</time></trkpt><trkpt lat="51.66022005694933" lon="16.308021046923177"><ele>80.0</ele><time>2026-04-08T10:55:01.001Z</time></trkpt><trkpt lat="51.66028306902746" lon="16.30788644392111"><ele>80.0</ele><time>2026-04-08T10:55:02.001Z</time></trkpt><trkpt lat="51.660337611846145" lon="16.307766175224785"><ele>80.0</ele><time>2026-04-08T10:55:03.002Z</time></trkpt><trkpt lat="51.66038037789211" lon="16.30765190322735"><ele>80.0</ele><time>2026-04-08T10:55:04.002Z</time></trkpt><trkpt lat="51.66041130621482" lon="16.30756176935603"><ele>80.0</ele><time>2026-04-08T10:55:05.001Z</time></trkpt><trkpt lat="51.660464618665515" lon="16.307481741595"><ele>80.0</ele><time>2026-04-08T10:55:07.001Z</time></trkpt><trkpt lat="51.66054903223354" lon="16.30737731337597"><ele>80.0</ele><time>2026-04-08T10:55:09.001Z</time></trkpt><trkpt lat="51.66061984053799" lon="16.307309176254186"><ele>80.0</ele><time>2026-04-08T10:55:10.001Z</time></trkpt><trkpt lat="51.6607093185201" lon="16.307235144374697"><ele>80.0</ele><time>2026-04-08T10:55:11.001Z</time></trkpt><trkpt lat="51.66080980256837" lon="16.307157014406137"><ele>80.0</ele><time>2026-04-08T10:55:12.001Z</time></trkpt><trkpt lat="51.6609131789908" lon="16.30704918632259"><ele>80.0</ele><time>2026-04-08T10:55:13.001Z</time></trkpt><trkpt lat="51.66102457510991" lon="16.306955135395892"><ele>79.75</ele><time>2026-04-08T10:55:14.001Z</time></trkpt><trkpt lat="51.66113957937754" lon="16.306853711468886"><ele>79.5</ele><time>2026-04-08T10:55:15.001Z</time></trkpt><trkpt lat="51.661246027637105" lon="16.30674850958641"><ele>79.25</ele><time>2026-04-08T10:55:16.001Z</time></trkpt><trkpt lat="51.661346379469045" lon="16.30664792503088"><ele>79.0</ele><time>2026-04-08T10:55:17.001Z</time></trkpt><trkpt lat="51.66142827699881" lon="16.306556351788714"><ele>79.0</ele><time>2026-04-08T10:55:18.001Z</time></trkpt><trkpt lat="51.66149537139778" lon="16.306438804432194"><ele>79.0</ele><time>2026-04-08T10:55:19.001Z</time></trkpt><trkpt lat="51.661574422954835" lon="16.30632279356487"><ele>79.0</ele><time>2026-04-08T10:55:20.001Z</time></trkpt><trkpt lat="51.66164528031623" lon="16.30618037165565"><ele>79.0</ele><time>2026-04-08T10:55:21.001Z</time></trkpt><trkpt lat="51.661719096155956" lon="16.30602839556227"><ele>79.0</ele><time>2026-04-08T10:55:22.001Z</time></trkpt><trkpt lat="51.661809429318616" lon="16.305883610137894"><ele>78.75</ele><time>2026-04-08T10:55:23.001Z</time></trkpt><trkpt lat="51.66187897596572" lon="16.305702066970255"><ele>78.5</ele><time>2026-04-08T10:55:24.001Z</time></trkpt><trkpt lat="51.6619606426461" lon="16.305525845099435"><ele>78.25</ele><time>2026-04-08T10:55:25.001Z</time></trkpt><trkpt lat="51.66204165176442" lon="16.305331649510677"><ele>78.0</ele><time>2026-04-08T10:55:26.001Z</time></trkpt><trkpt lat="51.662119346580816" lon="16.305138734767898"><ele>78.0</ele><time>2026-04-08T10:55:27.001Z</time></trkpt><trkpt lat="51.662202209489784" lon="16.304944536870032"><ele>78.0</ele><time>2026-04-08T10:55:28.001Z</time></trkpt><trkpt lat="51.6622885314141" lon="16.30475143943287"><ele>78.0</ele><time>2026-04-08T10:55:29.001Z</time></trkpt><trkpt lat="51.66236923887297" lon="16.304557916319524"><ele>78.0</ele><time>2026-04-08T10:55:30.001Z</time></trkpt><trkpt lat="51.66244592094212" lon="16.304364723852963"><ele>78.0</ele><time>2026-04-08T10:55:31.001Z</time></trkpt><trkpt lat="51.66252849266096" lon="16.304168273331566"><ele>78.0</ele><time>2026-04-08T10:55:32.001Z</time></trkpt><trkpt lat="51.66262437655229" lon="16.303988019612127"><ele>78.0</ele><time>2026-04-08T10:55:33.001Z</time></trkpt><trkpt lat="51.662711404365076" lon="16.3037881961806"><ele>78.0</ele><time>2026-04-08T10:55:34.001Z</time></trkpt><trkpt lat="51.66280103941478" lon="16.303578217041277"><ele>78.0</ele><time>2026-04-08T10:55:35.001Z</time></trkpt><trkpt lat="51.662892529399784" lon="16.303364979595308"><ele>78.0</ele><time>2026-04-08T10:55:36.001Z</time></trkpt><trkpt lat="51.662985091337035" lon="16.303147367135246"><ele>78.0</ele><time>2026-04-08T10:55:37.001Z</time></trkpt><trkpt lat="51.66307953968877" lon="16.302924635062887"><ele>78.0</ele><time>2026-04-08T10:55:38.001Z</time></trkpt><trkpt lat="51.66317369845169" lon="16.302701082009804"><ele>78.0</ele><time>2026-04-08T10:55:39.001Z</time></trkpt><trkpt lat="51.66326275009771" lon="16.302489805457874"><ele>78.0</ele><time>2026-04-08T10:55:40.001Z</time></trkpt><trkpt lat="51.663340463834395" lon="16.302305882889844"><ele>78.0</ele><time>2026-04-08T10:55:41.001Z</time></trkpt><trkpt lat="51.66341303192327" lon="16.30213472332981"><ele>78.0</ele><time>2026-04-08T10:55:42.001Z</time></trkpt><trkpt lat="51.66348636499416" lon="16.301962068181226"><ele>78.0</ele><time>2026-04-08T10:55:43.001Z</time></trkpt><trkpt lat="51.663552995865174" lon="16.301766277134714"><ele>78.0</ele><time>2026-04-08T10:55:44.001Z</time></trkpt><trkpt lat="51.66364309902156" lon="16.301587320308737"><ele>78.33333333333333</ele><time>2026-04-08T10:55:45.001Z</time></trkpt><trkpt lat="51.66372504524622" lon="16.301387785911295"><ele>78.66666666666666</ele><time>2026-04-08T10:55:46.001Z</time></trkpt><trkpt lat="51.66381038566614" lon="16.301179435961092"><ele>79.0</ele><time>2026-04-08T10:55:47.001Z</time></trkpt><trkpt lat="51.66388680168891" lon="16.30095770872622"><ele>79.0</ele><time>2026-04-08T10:55:48.001Z</time></trkpt><trkpt lat="51.66396062026366" lon="16.30076575786998"><ele>79.0</ele><time>2026-04-08T10:55:49.001Z</time></trkpt><trkpt lat="51.664034964114244" lon="16.30062163482057"><ele>79.0</ele><time>2026-04-08T10:55:50.001Z</time></trkpt><trkpt lat="51.664088621014486" lon="16.300440764534386"><ele>79.0</ele><time>2026-04-08T10:55:51.001Z</time></trkpt><trkpt lat="51.664157164316165" lon="16.30026426778387"><ele>78.75</ele><time>2026-04-08T10:55:52.001Z</time></trkpt><trkpt lat="51.66423136230367" lon="16.300080412000437"><ele>78.5</ele><time>2026-04-08T10:55:53.001Z</time></trkpt><trkpt lat="51.66430600839341" lon="16.29988451847307"><ele>78.25</ele><time>2026-04-08T10:55:54.001Z</time></trkpt><trkpt lat="51.66439605948718" lon="16.299695269051153"><ele>78.0</ele><time>2026-04-08T10:55:55.001Z</time></trkpt><trkpt lat="51.664457586568155" lon="16.299482966534367"><ele>78.0</ele><time>2026-04-08T10:55:56.001Z</time></trkpt><trkpt lat="51.66453388524049" lon="16.29928340577321"><ele>78.0</ele><time>2026-04-08T10:55:57.001Z</time></trkpt><trkpt lat="51.66461190773527" lon="16.299082101482096"><ele>78.0</ele><time>2026-04-08T10:55:58.001Z</time></trkpt><trkpt lat="51.66468440872501" lon="16.29887561223814"><ele>78.0</ele><time>2026-04-08T10:55:59.001Z</time></trkpt><trkpt lat="51.66474013027261" lon="16.298651008206832"><ele>78.0</ele><time>2026-04-08T10:56:00.001Z</time></trkpt><trkpt lat="51.66480777061825" lon="16.298428414340144"><ele>78.0</ele><time>2026-04-08T10:56:01.001Z</time></trkpt><trkpt lat="51.66487153838136" lon="16.29820457857295"><ele>78.0</ele><time>2026-04-08T10:56:02.001Z</time></trkpt><trkpt lat="51.66493340934939" lon="16.297979830974118"><ele>78.66666666666667</ele><time>2026-04-08T10:56:03.001Z</time></trkpt><trkpt lat="51.66499310354687" lon="16.297754272720066"><ele>79.33333333333334</ele><time>2026-04-08T10:56:04.001Z</time></trkpt><trkpt lat="51.665049609568214" lon="16.29751934241932"><ele>80.0</ele><time>2026-04-08T10:56:05.001Z</time></trkpt><trkpt lat="51.665103759286836" lon="16.29726415186829"><ele>79.33333333333334</ele><time>2026-04-08T10:56:06.001Z</time></trkpt><trkpt lat="51.66515651006677" lon="16.297019385954833"><ele>78.66666666666667</ele><time>2026-04-08T10:56:07.001Z</time></trkpt><trkpt lat="51.66522196186809" lon="16.29679916145776"><ele>78.0</ele><time>2026-04-08T10:56:08.001Z</time></trkpt><trkpt lat="51.66527268837867" lon="16.296565710584936"><ele>77.33333333333333</ele><time>2026-04-08T10:56:09.001Z</time></trkpt><trkpt lat="51.66532153370676" lon="16.29632794887916"><ele>76.66666666666666</ele><time>2026-04-08T10:56:10.001Z</time></trkpt><trkpt lat="51.66536797305455" lon="16.296088629865448"><ele>76.0</ele><time>2026-04-08T10:56:11.001Z</time></trkpt><trkpt lat="51.66540988775022" lon="16.29585588307533"><ele>76.0</ele><time>2026-04-08T10:56:12.001Z</time></trkpt><trkpt lat="51.665445432343766" lon="16.295645632735848"><ele>76.0</ele><time>2026-04-08T10:56:13.001Z</time></trkpt><trkpt lat="51.66547416531461" lon="16.295463356595967"><ele>76.0</ele><time>2026-04-08T10:56:14.001Z</time></trkpt><trkpt lat="51.665494872905995" lon="16.295275395155638"><ele>76.0</ele><time>2026-04-08T10:56:15.001Z</time></trkpt><trkpt lat="51.665513005780205" lon="16.295074566318156"><ele>76.25</ele><time>2026-04-08T10:56:16.001Z</time></trkpt><trkpt lat="51.66554130449474" lon="16.294875190601143"><ele>76.5</ele><time>2026-04-08T10:56:17.001Z</time></trkpt><trkpt lat="51.66555731073724" lon="16.294663233451157"><ele>76.75</ele><time>2026-04-08T10:56:18.001Z</time></trkpt><trkpt lat="51.66557990349597" lon="16.294451814128116"><ele>77.0</ele><time>2026-04-08T10:56:19.001Z</time></trkpt><trkpt lat="51.66561566997608" lon="16.2942475986122"><ele>77.25</ele><time>2026-04-08T10:56:20.001Z</time></trkpt><trkpt lat="51.665647073686316" lon="16.294040218963048"><ele>77.5</ele><time>2026-04-08T10:56:21.001Z</time></trkpt><trkpt lat="51.6656787968361" lon="16.293849860339076"><ele>77.75</ele><time>2026-04-08T10:56:22.001Z</time></trkpt><trkpt lat="51.665693711967506" lon="16.29366874393813"><ele>78.0</ele><time>2026-04-08T10:56:23.001Z</time></trkpt><trkpt lat="51.66572609338402" lon="16.293456078487146"><ele>78.0</ele><time>2026-04-08T10:56:24.001Z</time></trkpt><trkpt lat="51.66576562312808" lon="16.293228016882345"><ele>78.0</ele><time>2026-04-08T10:56:25.001Z</time></trkpt><trkpt lat="51.665801495703384" lon="16.29298343185559"><ele>78.0</ele><time>2026-04-08T10:56:26.001Z</time></trkpt><trkpt lat="51.665837841204" lon="16.292743736669323"><ele>78.0</ele><time>2026-04-08T10:56:27.001Z</time></trkpt><trkpt lat="51.665869095760954" lon="16.292495428820832"><ele>78.0</ele><time>2026-04-08T10:56:28.001Z</time></trkpt><trkpt lat="51.66591830022681" lon="16.292251077911374"><ele>78.0</ele><time>2026-04-08T10:56:29.001Z</time></trkpt><trkpt lat="51.66593587643466" lon="16.291996376763088"><ele>78.0</ele><time>2026-04-08T10:56:30.001Z</time></trkpt><trkpt lat="51.66596684072425" lon="16.29176842611717"><ele>78.0</ele><time>2026-04-08T10:56:31.001Z</time></trkpt><trkpt lat="51.66599672235054" lon="16.291561522127456"><ele>78.0</ele><time>2026-04-08T10:56:32.001Z</time></trkpt><trkpt lat="51.66601005801034" lon="16.291347771218195"><ele>78.0</ele><time>2026-04-08T10:56:33.001Z</time></trkpt><trkpt lat="51.66602077837134" lon="16.29111373676997"><ele>78.33333333333333</ele><time>2026-04-08T10:56:34.001Z</time></trkpt><trkpt lat="51.666053727995276" lon="16.290865295805695"><ele>78.66666666666666</ele><time>2026-04-08T10:56:35.001Z</time></trkpt><trkpt lat="51.66605702620058" lon="16.290608933686478"><ele>79.0</ele><time>2026-04-08T10:56:36.001Z</time></trkpt><trkpt lat="51.6660718816519" lon="16.290356224615227"><ele>79.0</ele><time>2026-04-08T10:56:37.001Z</time></trkpt><trkpt lat="51.666103121300395" lon="16.29009855123924"><ele>79.0</ele><time>2026-04-08T10:56:38.001Z</time></trkpt><trkpt lat="51.66611873087206" lon="16.289843847513033"><ele>79.0</ele><time>2026-04-08T10:56:39.001Z</time></trkpt><trkpt lat="51.66613482519492" lon="16.289589498733882"><ele>78.66666666666666</ele><time>2026-04-08T10:56:40.001Z</time></trkpt><trkpt lat="51.66613666642316" lon="16.289326056194966"><ele>78.33333333333333</ele><time>2026-04-08T10:56:41.002Z</time></trkpt><trkpt lat="51.66616899742498" lon="16.289079625450494"><ele>78.0</ele><time>2026-04-08T10:56:42.002Z</time></trkpt><trkpt lat="51.666185124158936" lon="16.288846184386827"><ele>78.25</ele><time>2026-04-08T10:56:43.002Z</time></trkpt><trkpt lat="51.66620201989505" lon="16.288601611454805"><ele>78.5</ele><time>2026-04-08T10:56:44.002Z</time></trkpt><trkpt lat="51.66621763388051" lon="16.288373512236614"><ele>78.75</ele><time>2026-04-08T10:56:45.002Z</time></trkpt><trkpt lat="51.6662197396873" lon="16.288126923585487"><ele>79.0</ele><time>2026-04-08T10:56:46.002Z</time></trkpt><trkpt lat="51.666255749823584" lon="16.28787954483459"><ele>79.0</ele><time>2026-04-08T10:56:47.002Z</time></trkpt><trkpt lat="51.66626997065877" lon="16.287659427732212"><ele>79.0</ele><time>2026-04-08T10:56:48.002Z</time></trkpt><trkpt lat="51.66626965249696" lon="16.287471941269242"><ele>79.0</ele><time>2026-04-08T10:56:49.002Z</time></trkpt><trkpt lat="51.66629669906255" lon="16.28728444322891"><ele>79.0</ele><time>2026-04-08T10:56:50.002Z</time></trkpt><trkpt lat="51.66636178578517" lon="16.287116846140837"><ele>79.25</ele><time>2026-04-08T10:56:51.002Z</time></trkpt><trkpt lat="51.66643243833445" lon="16.286967170534673"><ele>79.5</ele><time>2026-04-08T10:56:52.002Z</time></trkpt><trkpt lat="51.66650763700375" lon="16.286841241314587"><ele>79.75</ele><time>2026-04-08T10:56:53.002Z</time></trkpt><trkpt lat="51.66659126316247" lon="16.286707952390877"><ele>80.0</ele><time>2026-04-08T10:56:54.002Z</time></trkpt><trkpt lat="51.66668188787971" lon="16.286561847075685"><ele>80.0</ele><time>2026-04-08T10:56:55.002Z</time></trkpt><trkpt lat="51.666785299623925" lon="16.28643674886063"><ele>80.0</ele><time>2026-04-08T10:56:56.002Z</time></trkpt><trkpt lat="51.66687079016025" lon="16.286304669413674"><ele>80.0</ele><time>2026-04-08T10:56:57.002Z</time></trkpt><trkpt lat="51.66691359004237" lon="16.286156106478135"><ele>80.0</ele><time>2026-04-08T10:56:58.002Z</time></trkpt><trkpt lat="51.666967664696315" lon="16.286020820872547"><ele>80.0</ele><time>2026-04-08T10:56:59.002Z</time></trkpt><trkpt lat="51.66701544201483" lon="16.28582127944627"><ele>79.5</ele><time>2026-04-08T10:57:00.002Z</time></trkpt><trkpt lat="51.66706604370219" lon="16.285611086817436"><ele>79.0</ele><time>2026-04-08T10:57:01.002Z</time></trkpt><trkpt lat="51.66714230780922" lon="16.285406493517982"><ele>78.5</ele><time>2026-04-08T10:57:02.002Z</time></trkpt><trkpt lat="51.66720163770166" lon="16.285183076256892"><ele>78.0</ele><time>2026-04-08T10:57:03.002Z</time></trkpt><trkpt lat="51.66728749363624" lon="16.284975469244188"><ele>78.33333333333333</ele><time>2026-04-08T10:57:04.002Z</time></trkpt><trkpt lat="51.667364346968064" lon="16.28474691366446"><ele>78.66666666666666</ele><time>2026-04-08T10:57:05.002Z</time></trkpt><trkpt lat="51.667437766767875" lon="16.284507420115748"><ele>79.0</ele><time>2026-04-08T10:57:06.002Z</time></trkpt><trkpt lat="51.66748824508477" lon="16.28426103795649"><ele>79.0</ele><time>2026-04-08T10:57:07.002Z</time></trkpt><trkpt lat="51.66755490814632" lon="16.28406667796331"><ele>79.0</ele><time>2026-04-08T10:57:08.002Z</time></trkpt><trkpt lat="51.66765305649246" lon="16.283917983038542"><ele>79.0</ele><time>2026-04-08T10:57:09.002Z</time></trkpt><trkpt lat="51.66774749364379" lon="16.283752942226354"><ele>79.0</ele><time>2026-04-08T10:57:10.002Z</time></trkpt><trkpt lat="51.66785095134028" lon="16.283580119485062"><ele>79.33333333333333</ele><time>2026-04-08T10:57:11.001Z</time></trkpt><trkpt lat="51.66795369603874" lon="16.283408612553945"><ele>79.66666666666667</ele><time>2026-04-08T10:57:12.001Z</time></trkpt><trkpt lat="51.66806058394842" lon="16.283226282255153"><ele>80.0</ele><time>2026-04-08T10:57:13.001Z</time></trkpt><trkpt lat="51.66816291635952" lon="16.283045319986556"><ele>80.0</ele><time>2026-04-08T10:57:14.001Z</time></trkpt><trkpt lat="51.668268991240595" lon="16.282856273702958"><ele>80.0</ele><time>2026-04-08T10:57:15.001Z</time></trkpt><trkpt lat="51.66837923560308" lon="16.282661467864028"><ele>80.0</ele><time>2026-04-08T10:57:16.001Z</time></trkpt><trkpt lat="51.66848723473595" lon="16.28247260608601"><ele>80.0</ele><time>2026-04-08T10:57:17.001Z</time></trkpt><trkpt lat="51.6685994928096" lon="16.282277303794924"><ele>80.0</ele><time>2026-04-08T10:57:18.001Z</time></trkpt><trkpt lat="51.66871541508147" lon="16.282075626556185"><ele>80.0</ele><time>2026-04-08T10:57:19.001Z</time></trkpt><trkpt lat="51.66882634423448" lon="16.28188263617286"><ele>79.66666666666667</ele><time>2026-04-08T10:57:20.001Z</time></trkpt><trkpt lat="51.668938624782605" lon="16.28168888706204"><ele>79.33333333333333</ele><time>2026-04-08T10:57:21.001Z</time></trkpt><trkpt lat="51.66905069364473" lon="16.28149847157734"><ele>79.0</ele><time>2026-04-08T10:57:22.001Z</time></trkpt><trkpt lat="51.669162703701375" lon="16.281313875170508"><ele>80.0</ele><time>2026-04-08T10:57:23.001Z</time></trkpt><trkpt lat="51.66928126552869" lon="16.2811190904068"><ele>81.0</ele><time>2026-04-08T10:57:24.001Z</time></trkpt><trkpt lat="51.66939584979636" lon="16.28092826265277"><ele>82.0</ele><time>2026-04-08T10:57:25.001Z</time></trkpt><trkpt lat="51.66950943134259" lon="16.280735973859194"><ele>81.0</ele><time>2026-04-08T10:57:26.001Z</time></trkpt><trkpt lat="51.669614044627615" lon="16.280555369028168"><ele>80.0</ele><time>2026-04-08T10:57:27.001Z</time></trkpt><trkpt lat="51.66971984366628" lon="16.280371377662828"><ele>79.0</ele><time>2026-04-08T10:57:28.001Z</time></trkpt><trkpt lat="51.66983151048356" lon="16.28017689705848"><ele>79.0</ele><time>2026-04-08T10:57:29.001Z</time></trkpt><trkpt lat="51.66994073040749" lon="16.279985752768958"><ele>79.0</ele><time>2026-04-08T10:57:30.001Z</time></trkpt><trkpt lat="51.67005985292934" lon="16.279777276915713"><ele>79.0</ele><time>2026-04-08T10:57:31.001Z</time></trkpt><trkpt lat="51.670175481302984" lon="16.279574887034496"><ele>78.33333333333333</ele><time>2026-04-08T10:57:32.001Z</time></trkpt><trkpt lat="51.67029778610972" lon="16.279360809056232"><ele>77.66666666666667</ele><time>2026-04-08T10:57:33.001Z</time></trkpt><trkpt lat="51.670419977169416" lon="16.279147507550633"><ele>77.0</ele><time>2026-04-08T10:57:34.001Z</time></trkpt><trkpt lat="51.670537754322304" lon="16.278942219963604"><ele>77.66666666666667</ele><time>2026-04-08T10:57:35.001Z</time></trkpt><trkpt lat="51.67065607288981" lon="16.27873594117184"><ele>78.33333333333333</ele><time>2026-04-08T10:57:36.001Z</time></trkpt><trkpt lat="51.670780930964504" lon="16.278517439403487"><ele>79.0</ele><time>2026-04-08T10:57:37.001Z</time></trkpt><trkpt lat="51.67089575809827" lon="16.278317261717792"><ele>79.0</ele><time>2026-04-08T10:57:38.001Z</time></trkpt><trkpt lat="51.670994380522714" lon="16.278145366455263"><ele>79.0</ele><time>2026-04-08T10:57:39.001Z</time></trkpt><trkpt lat="51.671091357527395" lon="16.277976161219645"><ele>79.0</ele><time>2026-04-08T10:57:40.001Z</time></trkpt><trkpt lat="51.67118959603778" lon="16.277805914827496"><ele>79.0</ele><time>2026-04-08T10:57:41.001Z</time></trkpt><trkpt lat="51.67128593980169" lon="16.277639334518387"><ele>79.0</ele><time>2026-04-08T10:57:42.001Z</time></trkpt><trkpt lat="51.67136787663172" lon="16.277497984138446"><ele>79.0</ele><time>2026-04-08T10:57:43.001Z</time></trkpt><trkpt lat="51.671441760417444" lon="16.277373198319"><ele>79.0</ele><time>2026-04-08T10:57:44.001Z</time></trkpt><trkpt lat="51.67152564391233" lon="16.27723421312877"><ele>79.0</ele><time>2026-04-08T10:57:45.001Z</time></trkpt><trkpt lat="51.67161769065298" lon="16.277087183849588"><ele>79.0</ele><time>2026-04-08T10:57:46.001Z</time></trkpt><trkpt lat="51.671723217927635" lon="16.27689590957535"><ele>79.0</ele><time>2026-04-08T10:57:47.001Z</time></trkpt><trkpt lat="51.67182512529752" lon="16.276699589885226"><ele>79.0</ele><time>2026-04-08T10:57:48.001Z</time></trkpt><trkpt lat="51.6719292901305" lon="16.276508405353564"><ele>78.66666666666666</ele><time>2026-04-08T10:57:49.001Z</time></trkpt><trkpt lat="51.67204104304648" lon="16.276333185451332"><ele>78.33333333333333</ele><time>2026-04-08T10:57:50.001Z</time></trkpt><trkpt lat="51.672154694793136" lon="16.276130247497935"><ele>78.0</ele><time>2026-04-08T10:57:51.001Z</time></trkpt><trkpt lat="51.6722578233152" lon="16.275931645395502"><ele>78.0</ele><time>2026-04-08T10:57:52.001Z</time></trkpt><trkpt lat="51.67237562860922" lon="16.275755030774146"><ele>78.0</ele><time>2026-04-08T10:57:53.001Z</time></trkpt><trkpt lat="51.6724831434068" lon="16.275567159102735"><ele>78.0</ele><time>2026-04-08T10:57:54.001Z</time></trkpt><trkpt lat="51.672586458333505" lon="16.275373908273796"><ele>78.0</ele><time>2026-04-08T10:57:55.001Z</time></trkpt><trkpt lat="51.67269522076768" lon="16.275197781574725"><ele>78.0</ele><time>2026-04-08T10:57:56.001Z</time></trkpt><trkpt lat="51.672806120635585" lon="16.27500548948509"><ele>78.0</ele><time>2026-04-08T10:57:57.001Z</time></trkpt><trkpt lat="51.67291358844957" lon="16.274819786835565"><ele>78.0</ele><time>2026-04-08T10:57:58.001Z</time></trkpt><trkpt lat="51.67302225317164" lon="16.274631698072774"><ele>78.0</ele><time>2026-04-08T10:57:59.001Z</time></trkpt><trkpt lat="51.673128096028336" lon="16.274448540991635"><ele>78.0</ele><time>2026-04-08T10:58:00.001Z</time></trkpt><trkpt lat="51.67323300086098" lon="16.274261067206876"><ele>78.0</ele><time>2026-04-08T10:58:01.001Z</time></trkpt><trkpt lat="51.67333629777047" lon="16.274079697687892"><ele>78.0</ele><time>2026-04-08T10:58:02.001Z</time></trkpt><trkpt lat="51.67344411447258" lon="16.273907012265493"><ele>78.0</ele><time>2026-04-08T10:58:03.001Z</time></trkpt><trkpt lat="51.673544493859715" lon="16.27372207619882"><ele>77.33333333333333</ele><time>2026-04-08T10:58:04.001Z</time></trkpt><trkpt lat="51.67365164338745" lon="16.27354064111645"><ele>76.66666666666666</ele><time>2026-04-08T10:58:05.001Z</time></trkpt><trkpt lat="51.67376053179628" lon="16.273361909796545"><ele>76.0</ele><time>2026-04-08T10:58:06.001Z</time></trkpt><trkpt lat="51.67386722839865" lon="16.273174958533133"><ele>76.33333333333333</ele><time>2026-04-08T10:58:07.001Z</time></trkpt><trkpt lat="51.673969608569756" lon="16.272991984848325"><ele>76.66666666666667</ele><time>2026-04-08T10:58:08.001Z</time></trkpt><trkpt lat="51.674071665348535" lon="16.272816447914405"><ele>77.0</ele><time>2026-04-08T10:58:09.001Z</time></trkpt><trkpt lat="51.6741794085235" lon="16.272619789853906"><ele>77.0</ele><time>2026-04-08T10:58:10.001Z</time></trkpt><trkpt lat="51.67428831587166" lon="16.272433043303156"><ele>77.0</ele><time>2026-04-08T10:58:11.001Z</time></trkpt><trkpt lat="51.674400681572315" lon="16.272245060450267"><ele>77.0</ele><time>2026-04-08T10:58:12.001Z</time></trkpt><trkpt lat="51.674508930862935" lon="16.272052859139045"><ele>77.66666666666667</ele><time>2026-04-08T10:58:13.001Z</time></trkpt><trkpt lat="51.67462862284565" lon="16.27187449478075"><ele>78.33333333333333</ele><time>2026-04-08T10:58:14.001Z</time></trkpt><trkpt lat="51.67473974873289" lon="16.271683454783876"><ele>79.0</ele><time>2026-04-08T10:58:15.001Z</time></trkpt><trkpt lat="51.67484809823558" lon="16.271490338699767"><ele>79.66666666666666</ele><time>2026-04-08T10:58:16.001Z</time></trkpt><trkpt lat="51.674962319822065" lon="16.27130392008882"><ele>80.33333333333333</ele><time>2026-04-08T10:58:17.001Z</time></trkpt><trkpt lat="51.67506780973855" lon="16.27111085689845"><ele>81.0</ele><time>2026-04-08T10:58:18.001Z</time></trkpt><trkpt lat="51.67517201232655" lon="16.270910455696427"><ele>81.0</ele><time>2026-04-08T10:58:19.001Z</time></trkpt><trkpt lat="51.675271680161494" lon="16.27073692965346"><ele>81.0</ele><time>2026-04-08T10:58:20.001Z</time></trkpt><trkpt lat="51.67536011949609" lon="16.27058283642247"><ele>81.0</ele><time>2026-04-08T10:58:21.001Z</time></trkpt><trkpt lat="51.67544484734611" lon="16.270449441783896"><ele>81.0</ele><time>2026-04-08T10:58:22.001Z</time></trkpt><trkpt lat="51.675543678522246" lon="16.27030753712901"><ele>81.0</ele><time>2026-04-08T10:58:23.001Z</time></trkpt><trkpt lat="51.67563197869455" lon="16.2701593957271"><ele>81.0</ele><time>2026-04-08T10:58:24.001Z</time></trkpt><trkpt lat="51.67571063206816" lon="16.269994443521977"><ele>81.0</ele><time>2026-04-08T10:58:25.001Z</time></trkpt><trkpt lat="51.67581379248696" lon="16.26982651474839"><ele>81.0</ele><time>2026-04-08T10:58:26.001Z</time></trkpt><trkpt lat="51.67592418818335" lon="16.2696680696185"><ele>80.75</ele><time>2026-04-08T10:58:27.001Z</time></trkpt><trkpt lat="51.67602020632497" lon="16.269467582448183"><ele>80.5</ele><time>2026-04-08T10:58:28.001Z</time></trkpt><trkpt lat="51.67613741442794" lon="16.26931103541342"><ele>80.25</ele><time>2026-04-08T10:58:29.001Z</time></trkpt><trkpt lat="51.676218199363724" lon="16.269151035501185"><ele>80.0</ele><time>2026-04-08T10:58:30.001Z</time></trkpt><trkpt lat="51.676327430955176" lon="16.269036104778536"><ele>79.66666666666667</ele><time>2026-04-08T10:58:31.001Z</time></trkpt><trkpt lat="51.676439808430196" lon="16.268898385051024"><ele>79.33333333333333</ele><time>2026-04-08T10:58:32.001Z</time></trkpt><trkpt lat="51.676568107527416" lon="16.268759808189245"><ele>79.0</ele><time>2026-04-08T10:58:33.001Z</time></trkpt><trkpt lat="51.67670113526672" lon="16.268622269955905"><ele>79.0</ele><time>2026-04-08T10:58:34.001Z</time></trkpt><trkpt lat="51.67683462645287" lon="16.26851034730238"><ele>79.0</ele><time>2026-04-08T10:58:35.001Z</time></trkpt><trkpt lat="51.67695734657625" lon="16.26840701332372"><ele>79.0</ele><time>2026-04-08T10:58:36.001Z</time></trkpt><trkpt lat="51.677061603277494" lon="16.268338222913325"><ele>79.0</ele><time>2026-04-08T10:58:37.001Z</time></trkpt><trkpt lat="51.67717514733885" lon="16.268305534867363"><ele>79.0</ele><time>2026-04-08T10:58:38.001Z</time></trkpt><trkpt lat="51.67729027882505" lon="16.268298643223986"><ele>79.0</ele><time>2026-04-08T10:58:39.001Z</time></trkpt><trkpt lat="51.67741883978479" lon="16.26831062369004"><ele>79.0</ele><time>2026-04-08T10:58:40.001Z</time></trkpt><trkpt lat="51.67755613665186" lon="16.26832718958045"><ele>79.0</ele><time>2026-04-08T10:58:41.001Z</time></trkpt><trkpt lat="51.67769705268135" lon="16.268353020423806"><ele>78.66666666666666</ele><time>2026-04-08T10:58:42.001Z</time></trkpt><trkpt lat="51.67784966903768" lon="16.268381976888953"><ele>78.33333333333333</ele><time>2026-04-08T10:58:43.001Z</time></trkpt><trkpt lat="51.67800719521732" lon="16.268414628949614"><ele>78.0</ele><time>2026-04-08T10:58:44.001Z</time></trkpt><trkpt lat="51.67817623411976" lon="16.268423792818254"><ele>78.0</ele><time>2026-04-08T10:58:45.001Z</time></trkpt><trkpt lat="51.67833686018123" lon="16.268456799038656"><ele>78.0</ele><time>2026-04-08T10:58:46.001Z</time></trkpt><trkpt lat="51.67849868419465" lon="16.268504264588817"><ele>78.0</ele><time>2026-04-08T10:58:47.001Z</time></trkpt><trkpt lat="51.67867020029023" lon="16.268511776689994"><ele>77.66666666666667</ele><time>2026-04-08T10:58:48.001Z</time></trkpt><trkpt lat="51.67884442619635" lon="16.268543257718576"><ele>77.33333333333334</ele><time>2026-04-08T10:58:49.001Z</time></trkpt><trkpt lat="51.67901483390902" lon="16.268600608864208"><ele>77.0</ele><time>2026-04-08T10:58:50.002Z</time></trkpt><trkpt lat="51.679191849251815" lon="16.268635355087095"><ele>77.0</ele><time>2026-04-08T10:58:51.002Z</time></trkpt><trkpt lat="51.67937137719858" lon="16.26866973354552"><ele>77.0</ele><time>2026-04-08T10:58:52.002Z</time></trkpt><trkpt lat="51.67954829052872" lon="16.268704673469593"><ele>77.0</ele><time>2026-04-08T10:58:53.002Z</time></trkpt><trkpt lat="51.67973209445453" lon="16.268737212532105"><ele>77.0</ele><time>2026-04-08T10:58:54.002Z</time></trkpt><trkpt lat="51.67990477411039" lon="16.268743430521766"><ele>77.0</ele><time>2026-04-08T10:58:55.002Z</time></trkpt><trkpt lat="51.680064507400445" lon="16.268796911476475"><ele>77.0</ele><time>2026-04-08T10:58:56.002Z</time></trkpt><trkpt lat="51.68021210142433" lon="16.26882617237306"><ele>77.33333333333334</ele><time>2026-04-08T10:58:57.002Z</time></trkpt><trkpt lat="51.680353760395946" lon="16.26883890394379"><ele>77.66666666666667</ele><time>2026-04-08T10:58:58.002Z</time></trkpt><trkpt lat="51.680507926977846" lon="16.268874441639483"><ele>78.0</ele><time>2026-04-08T10:58:59.002Z</time></trkpt><trkpt lat="51.6806608189132" lon="16.268916686520818"><ele>78.0</ele><time>2026-04-08T10:59:00.002Z</time></trkpt><trkpt lat="51.68082333359738" lon="16.268921328232576"><ele>78.0</ele><time>2026-04-08T10:59:01.002Z</time></trkpt><trkpt lat="51.680976533372615" lon="16.26894366520349"><ele>78.0</ele><time>2026-04-08T10:59:02.002Z</time></trkpt><trkpt lat="51.68112821713116" lon="16.268970461642958"><ele>78.25</ele><time>2026-04-08T10:59:03.002Z</time></trkpt><trkpt lat="51.68128057079313" lon="16.269004905277203"><ele>78.5</ele><time>2026-04-08T10:59:04.002Z</time></trkpt><trkpt lat="51.68141530728989" lon="16.26905315358071"><ele>78.75</ele><time>2026-04-08T10:59:05.002Z</time></trkpt><trkpt lat="51.68154689396429" lon="16.269081111641036"><ele>79.0</ele><time>2026-04-08T10:59:06.002Z</time></trkpt><trkpt lat="51.681687713285314" lon="16.26908292413006"><ele>79.0</ele><time>2026-04-08T10:59:07.002Z</time></trkpt><trkpt lat="51.68181141592531" lon="16.26913131998996"><ele>79.0</ele><time>2026-04-08T10:59:08.002Z</time></trkpt><trkpt lat="51.68194624688021" lon="16.26915612727259"><ele>79.0</ele><time>2026-04-08T10:59:09.002Z</time></trkpt><trkpt lat="51.68208493147336" lon="16.26918145503891"><ele>79.0</ele><time>2026-04-08T10:59:10.002Z</time></trkpt><trkpt lat="51.68221959994548" lon="16.269206049313745"><ele>79.0</ele><time>2026-04-08T10:59:11.002Z</time></trkpt><trkpt lat="51.68236026849482" lon="16.26923173941933"><ele>79.0</ele><time>2026-04-08T10:59:12.002Z</time></trkpt><trkpt lat="51.682494048362926" lon="16.269229343466684"><ele>79.0</ele><time>2026-04-08T10:59:13.002Z</time></trkpt><trkpt lat="51.68260690860469" lon="16.269276827487914"><ele>79.0</ele><time>2026-04-08T10:59:14.002Z</time></trkpt><trkpt lat="51.682709011414815" lon="16.269280346919203"><ele>79.4</ele><time>2026-04-08T10:59:15.002Z</time></trkpt><trkpt lat="51.68279447908683" lon="16.269290700382957"><ele>79.80000000000001</ele><time>2026-04-08T10:59:16.002Z</time></trkpt><trkpt lat="51.682867263052415" lon="16.26929299828397"><ele>80.19999999999999</ele><time>2026-04-08T10:59:17.001Z</time></trkpt><trkpt lat="51.68293216787047" lon="16.269290954535844"><ele>80.6</ele><time>2026-04-08T10:59:18.001Z</time></trkpt><trkpt lat="51.683017535555734" lon="16.269300907250333"><ele>81.0</ele><time>2026-04-08T10:59:20.001Z</time></trkpt><trkpt lat="51.68306191977319" lon="16.269077627668086"><ele>81.0</ele><time>2026-04-08T10:59:22.001Z</time></trkpt><trkpt lat="51.68307646639043" lon="16.268948755573906"><ele>81.0</ele><time>2026-04-08T10:59:23.001Z</time></trkpt><trkpt lat="51.68308521725158" lon="16.268795120999105"><ele>81.0</ele><time>2026-04-08T10:59:24.001Z</time></trkpt><trkpt lat="51.6831005856341" lon="16.26862174870404"><ele>81.0</ele><time>2026-04-08T10:59:25.001Z</time></trkpt><trkpt lat="51.68311605697045" lon="16.268431272896372"><ele>81.0</ele><time>2026-04-08T10:59:26.001Z</time></trkpt><trkpt lat="51.683134950449315" lon="16.268227344134424"><ele>79.5</ele><time>2026-04-08T10:59:27.001Z</time></trkpt><trkpt lat="51.68315225776179" lon="16.26800750098147"><ele>78.0</ele><time>2026-04-08T10:59:28.001Z</time></trkpt><trkpt lat="51.68316959283924" lon="16.26778352036101"><ele>76.5</ele><time>2026-04-08T10:59:29.001Z</time></trkpt><trkpt lat="51.68319263846858" lon="16.267552139558482"><ele>75.0</ele><time>2026-04-08T10:59:30.001Z</time></trkpt><trkpt lat="51.68321783166668" lon="16.267313660572952"><ele>75.0</ele><time>2026-04-08T10:59:31.001Z</time></trkpt><trkpt lat="51.683247910791" lon="16.267076958730456"><ele>75.0</ele><time>2026-04-08T10:59:32.001Z</time></trkpt><trkpt lat="51.68330174506524" lon="16.26686490779031"><ele>75.0</ele><time>2026-04-08T10:59:33.001Z</time></trkpt><trkpt lat="51.68336010235521" lon="16.266649181711692"><ele>75.0</ele><time>2026-04-08T10:59:34.001Z</time></trkpt><trkpt lat="51.68342976042992" lon="16.266441106006713"><ele>75.25</ele><time>2026-04-08T10:59:35.001Z</time></trkpt><trkpt lat="51.683506824737435" lon="16.26623786137646"><ele>75.5</ele><time>2026-04-08T10:59:36.001Z</time></trkpt><trkpt lat="51.683588483926144" lon="16.266044199741458"><ele>75.75</ele><time>2026-04-08T10:59:37.001Z</time></trkpt><trkpt lat="51.68367906276754" lon="16.265861719925955"><ele>76.0</ele><time>2026-04-08T10:59:38.001Z</time></trkpt><trkpt lat="51.68377571316709" lon="16.265691184449544"><ele>76.25</ele><time>2026-04-08T10:59:39.001Z</time></trkpt><trkpt lat="51.683882068820544" lon="16.265526652333943"><ele>76.5</ele><time>2026-04-08T10:59:40.001Z</time></trkpt><trkpt lat="51.68398822291792" lon="16.26537238803095"><ele>76.75</ele><time>2026-04-08T10:59:41.001Z</time></trkpt><trkpt lat="51.68411736628611" lon="16.265260398579276"><ele>77.0</ele><time>2026-04-08T10:59:42.001Z</time></trkpt><trkpt lat="51.684239062480856" lon="16.26511409212033"><ele>77.0</ele><time>2026-04-08T10:59:43.001Z</time></trkpt><trkpt lat="51.684375727425575" lon="16.265004318664648"><ele>77.0</ele><time>2026-04-08T10:59:44.001Z</time></trkpt><trkpt lat="51.68451441662241" lon="16.264901988917945"><ele>77.0</ele><time>2026-04-08T10:59:45.001Z</time></trkpt><trkpt lat="51.68465700264513" lon="16.264816083600383"><ele>76.66666666666667</ele><time>2026-04-08T10:59:46.001Z</time></trkpt><trkpt lat="51.684801855143654" lon="16.264745140984477"><ele>76.33333333333333</ele><time>2026-04-08T10:59:47.001Z</time></trkpt><trkpt lat="51.68495082674451" lon="16.26469925873873"><ele>76.0</ele><time>2026-04-08T10:59:48.001Z</time></trkpt><trkpt lat="51.685108520021686" lon="16.264668403644567"><ele>76.0</ele><time>2026-04-08T10:59:49.001Z</time></trkpt><trkpt lat="51.68525769476053" lon="16.26465019352703"><ele>76.0</ele><time>2026-04-08T10:59:50.001Z</time></trkpt><trkpt lat="51.685400791641065" lon="16.264623469324754"><ele>76.0</ele><time>2026-04-08T10:59:51.001Z</time></trkpt><trkpt lat="51.68554525819523" lon="16.264590506715283"><ele>76.0</ele><time>2026-04-08T10:59:52.001Z</time></trkpt><trkpt lat="51.68568618537031" lon="16.26455625374862"><ele>75.75</ele><time>2026-04-08T10:59:53.001Z</time></trkpt><trkpt lat="51.685826569488526" lon="16.264525086805453"><ele>75.5</ele><time>2026-04-08T10:59:54.001Z</time></trkpt><trkpt lat="51.6859652371729" lon="16.26448994039596"><ele>75.25</ele><time>2026-04-08T10:59:55.001Z</time></trkpt><trkpt lat="51.68610443057546" lon="16.264460457459762"><ele>75.0</ele><time>2026-04-08T10:59:56.001Z</time></trkpt><trkpt lat="51.686239062656334" lon="16.26442751918266"><ele>75.5</ele><time>2026-04-08T10:59:57.001Z</time></trkpt><trkpt lat="51.686370327863955" lon="16.264391575970613"><ele>76.0</ele><time>2026-04-08T10:59:58.001Z</time></trkpt><trkpt lat="51.68650430543447" lon="16.264365698715302"><ele>76.5</ele><time>2026-04-08T10:59:59.001Z</time></trkpt><trkpt lat="51.6866430673741" lon="16.264345457975566"><ele>77.0</ele><time>2026-04-08T11:00:00.001Z</time></trkpt><trkpt lat="51.68677125430199" lon="16.26435106890885"><ele>77.0</ele><time>2026-04-08T11:00:01.001Z</time></trkpt><trkpt lat="51.686885600117854" lon="16.26436835526933"><ele>77.0</ele><time>2026-04-08T11:00:02.001Z</time></trkpt><trkpt lat="51.68699629672011" lon="16.264387867584453"><ele>77.0</ele><time>2026-04-08T11:00:03.001Z</time></trkpt><trkpt lat="51.687098107171146" lon="16.264399548521826"><ele>77.0</ele><time>2026-04-08T11:00:04.001Z</time></trkpt><trkpt lat="51.68719648867001" lon="16.26440095605371"><ele>77.0</ele><time>2026-04-08T11:00:05.001Z</time></trkpt><trkpt lat="51.6872946251575" lon="16.264407244172975"><ele>78.0</ele><time>2026-04-08T11:00:06.001Z</time></trkpt><trkpt lat="51.68739519063771" lon="16.26437489265115"><ele>79.0</ele><time>2026-04-08T11:00:07.001Z</time></trkpt><trkpt lat="51.687489877216564" lon="16.26433387177521"><ele>80.0</ele><time>2026-04-08T11:00:08.001Z</time></trkpt><trkpt lat="51.68757849559363" lon="16.26425478301494"><ele>81.0</ele><time>2026-04-08T11:00:09.001Z</time></trkpt><trkpt lat="51.68766236771101" lon="16.264178655374526"><ele>82.0</ele><time>2026-04-08T11:00:10.001Z</time></trkpt><trkpt lat="51.687727895810255" lon="16.2641176776283"><ele>82.5</ele><time>2026-04-08T11:00:11.001Z</time></trkpt><trkpt lat="51.68780095912356" lon="16.264122129937604"><ele>83.0</ele><time>2026-04-08T11:00:12.001Z</time></trkpt><trkpt lat="51.68784798864669" lon="16.264197283507652"><ele>83.5</ele><time>2026-04-08T11:00:13.001Z</time></trkpt><trkpt lat="51.68791033823705" lon="16.264273224906805"><ele>84.0</ele><time>2026-04-08T11:00:14.001Z</time></trkpt><trkpt lat="51.687991342194465" lon="16.264369775049634"><ele>84.5</ele><time>2026-04-08T11:00:15.001Z</time></trkpt><trkpt lat="51.68806431193202" lon="16.26447388685174"><ele>85.0</ele><time>2026-04-08T11:00:16.001Z</time></trkpt><trkpt lat="51.688153293141816" lon="16.264515072335815"><ele>85.0</ele><time>2026-04-08T11:00:17.001Z</time></trkpt><trkpt lat="51.688259992308026" lon="16.26450641542758"><ele>85.0</ele><time>2026-04-08T11:00:18.001Z</time></trkpt><trkpt lat="51.68835916208553" lon="16.264467935037587"><ele>85.0</ele><time>2026-04-08T11:00:19.001Z</time></trkpt><trkpt lat="51.688488733055905" lon="16.264418969641422"><ele>85.0</ele><time>2026-04-08T11:00:20.001Z</time></trkpt><trkpt lat="51.688627335067835" lon="16.264381460575354"><ele>85.33333333333333</ele><time>2026-04-08T11:00:21.001Z</time></trkpt><trkpt lat="51.68887029218885" lon="16.264376271089105"><ele>85.66666666666667</ele><time>2026-04-08T11:00:23.001Z</time></trkpt><trkpt lat="51.68896868848814" lon="16.26445285790907"><ele>86.0</ele><time>2026-04-08T11:00:24.001Z</time></trkpt><trkpt lat="51.68906168110999" lon="16.264516102583666"><ele>86.0</ele><time>2026-04-08T11:00:25.001Z</time></trkpt><trkpt lat="51.689171972078" lon="16.264594717338376"><ele>86.0</ele><time>2026-04-08T11:00:26.001Z</time></trkpt><trkpt lat="51.68927555364214" lon="16.264704670431335"><ele>86.0</ele><time>2026-04-08T11:00:27.001Z</time></trkpt><trkpt lat="51.68937609003115" lon="16.264825296158513"><ele>86.0</ele><time>2026-04-08T11:00:28.001Z</time></trkpt><trkpt lat="51.689472422182874" lon="16.26494746582158"><ele>86.0</ele><time>2026-04-08T11:00:29.001Z</time></trkpt><trkpt lat="51.689569463362005" lon="16.265070375815323"><ele>86.0</ele><time>2026-04-08T11:00:30.001Z</time></trkpt><trkpt lat="51.68967595302498" lon="16.26519218079919"><ele>86.0</ele><time>2026-04-08T11:00:31.001Z</time></trkpt><trkpt lat="51.68978129249027" lon="16.265309900375108"><ele>86.0</ele><time>2026-04-08T11:00:32.001Z</time></trkpt><trkpt lat="51.68989896810912" lon="16.265390632655304"><ele>86.0</ele><time>2026-04-08T11:00:33.001Z</time></trkpt><trkpt lat="51.69002004424947" lon="16.265437217765253"><ele>86.0</ele><time>2026-04-08T11:00:34.001Z</time></trkpt><trkpt lat="51.69014345987514" lon="16.265445670182277"><ele>86.0</ele><time>2026-04-08T11:00:35.001Z</time></trkpt><trkpt lat="51.690268977206" lon="16.26545699895621"><ele>86.0</ele><time>2026-04-08T11:00:36.001Z</time></trkpt><trkpt lat="51.69039496605314" lon="16.265456655658088"><ele>85.75</ele><time>2026-04-08T11:00:37.001Z</time></trkpt><trkpt lat="51.690521274431624" lon="16.26544685779868"><ele>85.5</ele><time>2026-04-08T11:00:38.001Z</time></trkpt><trkpt lat="51.69064412436116" lon="16.26542627422547"><ele>85.25</ele><time>2026-04-08T11:00:39.001Z</time></trkpt><trkpt lat="51.69075769321851" lon="16.265398880153757"><ele>85.0</ele><time>2026-04-08T11:00:40.001Z</time></trkpt><trkpt lat="51.69087203427929" lon="16.26536133533047"><ele>85.0</ele><time>2026-04-08T11:00:41.001Z</time></trkpt><trkpt lat="51.69098000111492" lon="16.265331052685028"><ele>85.0</ele><time>2026-04-08T11:00:42.001Z</time></trkpt><trkpt lat="51.691079183955196" lon="16.265309399828116"><ele>85.0</ele><time>2026-04-08T11:00:43.001Z</time></trkpt><trkpt lat="51.69116327193899" lon="16.265293932518148"><ele>85.0</ele><time>2026-04-08T11:00:44.001Z</time></trkpt><trkpt lat="51.69124698728849" lon="16.265310937719"><ele>85.0</ele><time>2026-04-08T11:00:46.001Z</time></trkpt><trkpt lat="51.69112502894157" lon="16.265291067322888"><ele>85.0</ele><time>2026-04-08T11:00:52.001Z</time></trkpt><trkpt lat="51.691062368186536" lon="16.265312966957712"><ele>85.0</ele><time>2026-04-08T11:00:53.001Z</time></trkpt><trkpt lat="51.69099911049892" lon="16.265318948892645"><ele>85.0</ele><time>2026-04-08T11:00:54.001Z</time></trkpt><trkpt lat="51.69095782532" lon="16.26519115149791"><ele>85.0</ele><time>2026-04-08T11:00:56.001Z</time></trkpt><trkpt lat="51.69096449746263" lon="16.265085927855136"><ele>85.0</ele><time>2026-04-08T11:00:57.001Z</time></trkpt><trkpt lat="51.6910263681441" lon="16.26497373562264"><ele>85.0</ele><time>2026-04-08T11:00:58.001Z</time></trkpt><trkpt lat="51.69102935355691" lon="16.264839192900173"><ele>85.0</ele><time>2026-04-08T11:00:59.001Z</time></trkpt><trkpt lat="51.691032692918995" lon="16.264688698869364"><ele>85.0</ele><time>2026-04-08T11:01:00.001Z</time></trkpt><trkpt lat="51.6910227143049" lon="16.264532602051133"><ele>85.0</ele><time>2026-04-08T11:01:01.001Z</time></trkpt><trkpt lat="51.69104021188896" lon="16.26434984369354"><ele>85.0</ele><time>2026-04-08T11:01:02.001Z</time></trkpt><trkpt lat="51.6910292489406" lon="16.26415354428666"><ele>85.0</ele><time>2026-04-08T11:01:03.001Z</time></trkpt><trkpt lat="51.69103652408972" lon="16.26395798379688"><ele>85.0</ele><time>2026-04-08T11:01:04.001Z</time></trkpt><trkpt lat="51.691067854964466" lon="16.263770309445547"><ele>85.0</ele><time>2026-04-08T11:01:05.001Z</time></trkpt><trkpt lat="51.691069850047775" lon="16.263587513454464"><ele>85.0</ele><time>2026-04-08T11:01:06.001Z</time></trkpt><trkpt lat="51.69107948152289" lon="16.26338673525184"><ele>85.0</ele><time>2026-04-08T11:01:07.001Z</time></trkpt><trkpt lat="51.6910816232194" lon="16.263171161565246"><ele>85.0</ele><time>2026-04-08T11:01:08.001Z</time></trkpt><trkpt lat="51.691089970048914" lon="16.26295969225395"><ele>85.0</ele><time>2026-04-08T11:01:09.001Z</time></trkpt><trkpt lat="51.691094803493456" lon="16.262736564375945"><ele>85.0</ele><time>2026-04-08T11:01:10.001Z</time></trkpt><trkpt lat="51.69109859747458" lon="16.26251300798834"><ele>85.0</ele><time>2026-04-08T11:01:11.001Z</time></trkpt><trkpt lat="51.691101611850385" lon="16.26228219812621"><ele>85.0</ele><time>2026-04-08T11:01:12.001Z</time></trkpt><trkpt lat="51.69110220546053" lon="16.262036121139406"><ele>85.0</ele><time>2026-04-08T11:01:13.001Z</time></trkpt><trkpt lat="51.69109691534144" lon="16.261773373896965"><ele>85.0</ele><time>2026-04-08T11:01:14.001Z</time></trkpt><trkpt lat="51.691090012079485" lon="16.26150587302511"><ele>84.66666666666666</ele><time>2026-04-08T11:01:15.001Z</time></trkpt><trkpt lat="51.691099442120944" lon="16.261215201950417"><ele>84.33333333333333</ele><time>2026-04-08T11:01:16.001Z</time></trkpt><trkpt lat="51.691091230953646" lon="16.260930720919628"><ele>84.0</ele><time>2026-04-08T11:01:17.001Z</time></trkpt><trkpt lat="51.69108128554212" lon="16.260654220863355"><ele>84.0</ele><time>2026-04-08T11:01:18.001Z</time></trkpt><trkpt lat="51.69106976532542" lon="16.260397951372543"><ele>84.0</ele><time>2026-04-08T11:01:19.001Z</time></trkpt><trkpt lat="51.69105895920178" lon="16.260159874465092"><ele>84.0</ele><time>2026-04-08T11:01:20.001Z</time></trkpt><trkpt lat="51.69104444501943" lon="16.25990833148291"><ele>84.0</ele><time>2026-04-08T11:01:21.001Z</time></trkpt><trkpt lat="51.691036494859034" lon="16.259656139064848"><ele>84.0</ele><time>2026-04-08T11:01:22.001Z</time></trkpt><trkpt lat="51.691015236625525" lon="16.259409471728517"><ele>84.0</ele><time>2026-04-08T11:01:23.001Z</time></trkpt><trkpt lat="51.691025314714445" lon="16.25917106096426"><ele>84.0</ele><time>2026-04-08T11:01:24.001Z</time></trkpt><trkpt lat="51.691011648097216" lon="16.25895693022027"><ele>84.0</ele><time>2026-04-08T11:01:25.001Z</time></trkpt><trkpt lat="51.69103029539869" lon="16.25873291750687"><ele>84.0</ele><time>2026-04-08T11:01:26.001Z</time></trkpt><trkpt lat="51.69100651625653" lon="16.258493059120898"><ele>84.0</ele><time>2026-04-08T11:01:27.001Z</time></trkpt><trkpt lat="51.690990950662716" lon="16.258239785499544"><ele>84.0</ele><time>2026-04-08T11:01:28.001Z</time></trkpt><trkpt lat="51.69097977525027" lon="16.25798534919681"><ele>84.0</ele><time>2026-04-08T11:01:29.001Z</time></trkpt><trkpt lat="51.69097880912428" lon="16.25773160239339"><ele>84.0</ele><time>2026-04-08T11:01:30.001Z</time></trkpt><trkpt lat="51.69098173834747" lon="16.257496160906353"><ele>83.75</ele><time>2026-04-08T11:01:31.001Z</time></trkpt><trkpt lat="51.690967357479565" lon="16.257273686256287"><ele>83.5</ele><time>2026-04-08T11:01:32.001Z</time></trkpt><trkpt lat="51.69097365081215" lon="16.257051791642063"><ele>83.25</ele><time>2026-04-08T11:01:33.001Z</time></trkpt><trkpt lat="51.69096739368999" lon="16.25684043993814"><ele>83.0</ele><time>2026-04-08T11:01:34.001Z</time></trkpt><trkpt lat="51.690949163288074" lon="16.256632642008377"><ele>82.75</ele><time>2026-04-08T11:01:35.001Z</time></trkpt><trkpt lat="51.69094159334951" lon="16.256423437777308"><ele>82.5</ele><time>2026-04-08T11:01:36.001Z</time></trkpt><trkpt lat="51.69093187228401" lon="16.256208661146328"><ele>82.25</ele><time>2026-04-08T11:01:37.001Z</time></trkpt><trkpt lat="51.69092452372075" lon="16.25599705401337"><ele>82.0</ele><time>2026-04-08T11:01:38.001Z</time></trkpt><trkpt lat="51.69091628080271" lon="16.25578575977433"><ele>82.25</ele><time>2026-04-08T11:01:39.001Z</time></trkpt><trkpt lat="51.690912753644994" lon="16.25558848280192"><ele>82.5</ele><time>2026-04-08T11:01:40.001Z</time></trkpt><trkpt lat="51.690902669247635" lon="16.255397985141908"><ele>82.75</ele><time>2026-04-08T11:01:41.001Z</time></trkpt><trkpt lat="51.69090000484003" lon="16.25521955196745"><ele>83.0</ele><time>2026-04-08T11:01:42.001Z</time></trkpt><trkpt lat="51.6908918038161" lon="16.25503839030182"><ele>83.0</ele><time>2026-04-08T11:01:43.001Z</time></trkpt><trkpt lat="51.69089581409384" lon="16.254860469615753"><ele>83.0</ele><time>2026-04-08T11:01:44.001Z</time></trkpt><trkpt lat="51.69087519677074" lon="16.254685545323948"><ele>83.0</ele><time>2026-04-08T11:01:45.001Z</time></trkpt><trkpt lat="51.69086788542255" lon="16.25450176934388"><ele>83.0</ele><time>2026-04-08T11:01:46.001Z</time></trkpt><trkpt lat="51.69086439300961" lon="16.254307395512157"><ele>83.25</ele><time>2026-04-08T11:01:47.001Z</time></trkpt><trkpt lat="51.6908710932008" lon="16.25410413544931"><ele>83.5</ele><time>2026-04-08T11:01:48.001Z</time></trkpt><trkpt lat="51.69085594859139" lon="16.253883692533858"><ele>83.75</ele><time>2026-04-08T11:01:49.001Z</time></trkpt><trkpt lat="51.690847264460736" lon="16.253657391136212"><ele>84.0</ele><time>2026-04-08T11:01:50.001Z</time></trkpt><trkpt lat="51.69084519042369" lon="16.25342207959574"><ele>84.0</ele><time>2026-04-08T11:01:51.001Z</time></trkpt><trkpt lat="51.69085666687219" lon="16.25322506756847"><ele>84.0</ele><time>2026-04-08T11:01:52.001Z</time></trkpt><trkpt lat="51.690838783566534" lon="16.25301855449978"><ele>84.0</ele><time>2026-04-08T11:01:53.001Z</time></trkpt><trkpt lat="51.69083768431482" lon="16.252790738063567"><ele>84.0</ele><time>2026-04-08T11:01:54.001Z</time></trkpt><trkpt lat="51.69082879475616" lon="16.25254676000789"><ele>83.66666666666667</ele><time>2026-04-08T11:01:55.001Z</time></trkpt><trkpt lat="51.690821251201214" lon="16.25228710467883"><ele>83.33333333333334</ele><time>2026-04-08T11:01:56.001Z</time></trkpt><trkpt lat="51.690815613789916" lon="16.252035327946892"><ele>83.0</ele><time>2026-04-08T11:01:57.001Z</time></trkpt><trkpt lat="51.69080859591357" lon="16.251810248630953"><ele>83.0</ele><time>2026-04-08T11:01:58.001Z</time></trkpt><trkpt lat="51.69080420741022" lon="16.251610330082393"><ele>83.0</ele><time>2026-04-08T11:01:59.001Z</time></trkpt><trkpt lat="51.690789405096545" lon="16.251409610131862"><ele>83.0</ele><time>2026-04-08T11:02:00.001Z</time></trkpt><trkpt lat="51.69078351218788" lon="16.251206435813238"><ele>83.0</ele><time>2026-04-08T11:02:01.001Z</time></trkpt><trkpt lat="51.690804074461276" lon="16.251006886125516"><ele>83.25</ele><time>2026-04-08T11:02:02.001Z</time></trkpt><trkpt lat="51.69082373010085" lon="16.250796251281855"><ele>83.5</ele><time>2026-04-08T11:02:03.001Z</time></trkpt><trkpt lat="51.690828496691275" lon="16.250559295589905"><ele>83.75</ele><time>2026-04-08T11:02:04.001Z</time></trkpt><trkpt lat="51.690860058687626" lon="16.250331060801958"><ele>84.0</ele><time>2026-04-08T11:02:05.001Z</time></trkpt><trkpt lat="51.69088063522171" lon="16.250115515202374"><ele>84.25</ele><time>2026-04-08T11:02:06.001Z</time></trkpt><trkpt lat="51.69090384865699" lon="16.249910180124758"><ele>84.5</ele><time>2026-04-08T11:02:07.001Z</time></trkpt><trkpt lat="51.690915235867344" lon="16.24970675867118"><ele>84.75</ele><time>2026-04-08T11:02:08.001Z</time></trkpt><trkpt lat="51.69094752931333" lon="16.249486534816988"><ele>85.0</ele><time>2026-04-08T11:02:09.001Z</time></trkpt><trkpt lat="51.69098745140619" lon="16.24926471071833"><ele>85.25</ele><time>2026-04-08T11:02:10.001Z</time></trkpt><trkpt lat="51.69101761457836" lon="16.249043623703646"><ele>85.5</ele><time>2026-04-08T11:02:11.001Z</time></trkpt><trkpt lat="51.69104515483778" lon="16.24884448302871"><ele>85.75</ele><time>2026-04-08T11:02:12.001Z</time></trkpt><trkpt lat="51.69105782984857" lon="16.24864115308927"><ele>86.0</ele><time>2026-04-08T11:02:13.001Z</time></trkpt><trkpt lat="51.691082533719445" lon="16.2484568859746"><ele>85.25</ele><time>2026-04-08T11:02:14.001Z</time></trkpt><trkpt lat="51.69112214133106" lon="16.248273522087032"><ele>84.5</ele><time>2026-04-08T11:02:15.001Z</time></trkpt><trkpt lat="51.691143822519656" lon="16.248103090389158"><ele>83.75</ele><time>2026-04-08T11:02:16.001Z</time></trkpt><trkpt lat="51.69116697297556" lon="16.247919847372586"><ele>83.0</ele><time>2026-04-08T11:02:17.001Z</time></trkpt><trkpt lat="51.69117515205091" lon="16.247731441815887"><ele>83.0</ele><time>2026-04-08T11:02:18.001Z</time></trkpt><trkpt lat="51.691207115925685" lon="16.247553468828876"><ele>83.0</ele><time>2026-04-08T11:02:19.001Z</time></trkpt><trkpt lat="51.69122035931043" lon="16.247373182072028"><ele>83.0</ele><time>2026-04-08T11:02:20.001Z</time></trkpt><trkpt lat="51.69124259302344" lon="16.247181658059237"><ele>83.0</ele><time>2026-04-08T11:02:21.001Z</time></trkpt><trkpt lat="51.691270926307546" lon="16.24698778616034"><ele>83.0</ele><time>2026-04-08T11:02:22.001Z</time></trkpt><trkpt lat="51.691285684099746" lon="16.246789264354216"><ele>83.0</ele><time>2026-04-08T11:02:23.001Z</time></trkpt><trkpt lat="51.69129658899148" lon="16.246603113668694"><ele>83.0</ele><time>2026-04-08T11:02:24.001Z</time></trkpt><trkpt lat="51.69132345918202" lon="16.24640295750638"><ele>83.0</ele><time>2026-04-08T11:02:25.001Z</time></trkpt><trkpt lat="51.691349157079685" lon="16.246206561131252"><ele>83.5</ele><time>2026-04-08T11:02:26.001Z</time></trkpt><trkpt lat="51.69136700193696" lon="16.246002997212127"><ele>84.0</ele><time>2026-04-08T11:02:27.001Z</time></trkpt><trkpt lat="51.69139869208595" lon="16.245817083830786"><ele>84.5</ele><time>2026-04-08T11:02:28.001Z</time></trkpt><trkpt lat="51.69143682728156" lon="16.245629954446166"><ele>85.0</ele><time>2026-04-08T11:02:29.001Z</time></trkpt><trkpt lat="51.69146526021372" lon="16.24543760429059"><ele>85.5</ele><time>2026-04-08T11:02:30.001Z</time></trkpt><trkpt lat="51.691477682071834" lon="16.24525201880284"><ele>86.0</ele><time>2026-04-08T11:02:31.001Z</time></trkpt><trkpt lat="51.691505183761144" lon="16.245076987593183"><ele>86.5</ele><time>2026-04-08T11:02:32.001Z</time></trkpt><trkpt lat="51.69152978865794" lon="16.24489435324858"><ele>87.0</ele><time>2026-04-08T11:02:33.001Z</time></trkpt><trkpt lat="51.69154767555651" lon="16.244709225867503"><ele>87.5</ele><time>2026-04-08T11:02:34.001Z</time></trkpt><trkpt lat="51.69156211203227" lon="16.244540091922737"><ele>88.0</ele><time>2026-04-08T11:02:35.001Z</time></trkpt><trkpt lat="51.6915808753236" lon="16.24435712166469"><ele>88.5</ele><time>2026-04-08T11:02:36.001Z</time></trkpt><trkpt lat="51.69159551056446" lon="16.24417650256885"><ele>89.0</ele><time>2026-04-08T11:02:37.001Z</time></trkpt><trkpt lat="51.691613490560236" lon="16.243991600292855"><ele>89.25</ele><time>2026-04-08T11:02:38.001Z</time></trkpt><trkpt lat="51.69163292869155" lon="16.243797473843845"><ele>89.5</ele><time>2026-04-08T11:02:39.001Z</time></trkpt><trkpt lat="51.69165429674993" lon="16.24359365124702"><ele>89.75</ele><time>2026-04-08T11:02:40.001Z</time></trkpt><trkpt lat="51.6916937417473" lon="16.24338734265407"><ele>90.0</ele><time>2026-04-08T11:02:41.001Z</time></trkpt><trkpt lat="51.69172017651468" lon="16.2431978424728"><ele>90.25</ele><time>2026-04-08T11:02:42.001Z</time></trkpt><trkpt lat="51.69174735066903" lon="16.24300437389605"><ele>90.5</ele><time>2026-04-08T11:02:43.001Z</time></trkpt><trkpt lat="51.69177541224057" lon="16.242816430877433"><ele>90.75</ele><time>2026-04-08T11:02:44.001Z</time></trkpt><trkpt lat="51.69180488341552" lon="16.242632171327212"><ele>91.0</ele><time>2026-04-08T11:02:45.001Z</time></trkpt><trkpt lat="51.69183440568938" lon="16.242460521350743"><ele>91.25</ele><time>2026-04-08T11:02:46.001Z</time></trkpt><trkpt lat="51.69187071066316" lon="16.242275263682654"><ele>91.5</ele><time>2026-04-08T11:02:47.001Z</time></trkpt><trkpt lat="51.69190892998398" lon="16.24209717829944"><ele>91.75</ele><time>2026-04-08T11:02:48.001Z</time></trkpt><trkpt lat="51.691945121118266" lon="16.241939216296707"><ele>92.0</ele><time>2026-04-08T11:02:49.001Z</time></trkpt><trkpt lat="51.69197584923613" lon="16.24177222405337"><ele>90.8</ele><time>2026-04-08T11:02:50.001Z</time></trkpt><trkpt lat="51.692012405384105" lon="16.24162557766927"><ele>89.6</ele><time>2026-04-08T11:02:51.001Z</time></trkpt><trkpt lat="51.692058098773956" lon="16.241483468557064"><ele>88.39999999999999</ele><time>2026-04-08T11:02:52.001Z</time></trkpt><trkpt lat="51.69210087692549" lon="16.24133439966345"><ele>87.19999999999999</ele><time>2026-04-08T11:02:53.001Z</time></trkpt><trkpt lat="51.69214489179726" lon="16.24118951846562"><ele>86.0</ele><time>2026-04-08T11:02:54.001Z</time></trkpt><trkpt lat="51.692173718074265" lon="16.241064269573215"><ele>86.0</ele><time>2026-04-08T11:02:55.001Z</time></trkpt><trkpt lat="51.69220359738352" lon="16.2409654791698"><ele>86.0</ele><time>2026-04-08T11:02:56.001Z</time></trkpt><trkpt lat="51.69228411248713" lon="16.240860569516656"><ele>86.0</ele><time>2026-04-08T11:02:58.001Z</time></trkpt><trkpt lat="51.692334804971736" lon="16.240728440175864"><ele>86.0</ele><time>2026-04-08T11:03:00.001Z</time></trkpt><trkpt lat="51.69229462466094" lon="16.24063665825042"><ele>86.0</ele><time>2026-04-08T11:03:01.001Z</time></trkpt><trkpt lat="51.692356472954756" lon="16.240479599276696"><ele>86.33333333333334</ele><time>2026-04-08T11:03:03.001Z</time></trkpt><trkpt lat="51.69241717735895" lon="16.24034160700485"><ele>86.66666666666667</ele><time>2026-04-08T11:03:05.001Z</time></trkpt><trkpt lat="51.692459645837744" lon="16.240244931844597"><ele>87.0</ele><time>2026-04-08T11:03:06.001Z</time></trkpt><trkpt lat="51.692850204933094" lon="16.240384017821352"><ele>85.6</ele><time>2026-04-08T11:03:07.001Z</time></trkpt><trkpt lat="51.69293184904413" lon="16.240293026746773"><ele>84.19999999999999</ele><time>2026-04-08T11:03:08.001Z</time></trkpt><trkpt lat="51.693019099702745" lon="16.24020329212416"><ele>82.8</ele><time>2026-04-08T11:03:09.001Z</time></trkpt><trkpt lat="51.693102350969625" lon="16.240123187173666"><ele>81.4</ele><time>2026-04-08T11:03:10.001Z</time></trkpt><trkpt lat="51.69318786975844" lon="16.24006103460891"><ele>80.0</ele><time>2026-04-08T11:03:11.001Z</time></trkpt><trkpt lat="51.69326705037726" lon="16.239999985710988"><ele>80.0</ele><time>2026-04-08T11:03:12.001Z</time></trkpt><trkpt lat="51.693337839490574" lon="16.239929818612513"><ele>80.0</ele><time>2026-04-08T11:03:13.001Z</time></trkpt><trkpt lat="51.69342249734521" lon="16.23987794163843"><ele>80.0</ele><time>2026-04-08T11:03:14.001Z</time></trkpt><trkpt lat="51.69351024754681" lon="16.239812226939794"><ele>80.0</ele><time>2026-04-08T11:03:15.001Z</time></trkpt><trkpt lat="51.693610479545804" lon="16.239740126530712"><ele>80.0</ele><time>2026-04-08T11:03:16.001Z</time></trkpt><trkpt lat="51.69372082882352" lon="16.239654188984318"><ele>80.25</ele><time>2026-04-08T11:03:17.001Z</time></trkpt><trkpt lat="51.69384155555654" lon="16.239572110164833"><ele>80.5</ele><time>2026-04-08T11:03:18.001Z</time></trkpt><trkpt lat="51.69395217437137" lon="16.239479027018863"><ele>80.75</ele><time>2026-04-08T11:03:19.001Z</time></trkpt><trkpt lat="51.694063349235975" lon="16.239390015787293"><ele>81.0</ele><time>2026-04-08T11:03:20.001Z</time></trkpt><trkpt lat="51.694178377747754" lon="16.23929734406182"><ele>81.0</ele><time>2026-04-08T11:03:21.001Z</time></trkpt><trkpt lat="51.694292451855965" lon="16.239217200129783"><ele>81.0</ele><time>2026-04-08T11:03:22.001Z</time></trkpt><trkpt lat="51.69439737010407" lon="16.23911725900794"><ele>81.0</ele><time>2026-04-08T11:03:23.001Z</time></trkpt><trkpt lat="51.694498196425414" lon="16.239028773784806"><ele>81.0</ele><time>2026-04-08T11:03:24.001Z</time></trkpt><trkpt lat="51.6945995740977" lon="16.238961935451062"><ele>80.6</ele><time>2026-04-08T11:03:25.001Z</time></trkpt><trkpt lat="51.69470860270803" lon="16.238911333225644"><ele>80.19999999999999</ele><time>2026-04-08T11:03:26.001Z</time></trkpt><trkpt lat="51.69481065859238" lon="16.23885604645711"><ele>79.80000000000001</ele><time>2026-04-08T11:03:27.001Z</time></trkpt><trkpt lat="51.69491478968742" lon="16.238812604475314"><ele>79.4</ele><time>2026-04-08T11:03:28.001Z</time></trkpt><trkpt lat="51.6950157209669" lon="16.238766957261348"><ele>79.0</ele><time>2026-04-08T11:03:29Z</time></trkpt><trkpt lat="51.695128433061285" lon="16.238724339914445"><ele>79.0</ele><time>2026-04-08T11:03:29.999Z</time></trkpt><trkpt lat="51.69524213076386" lon="16.238666887226607"><ele>79.0</ele><time>2026-04-08T11:03:31Z</time></trkpt><trkpt lat="51.69535344888056" lon="16.238603299534887"><ele>79.0</ele><time>2026-04-08T11:03:32Z</time></trkpt><trkpt lat="51.69545896244062" lon="16.238547955297822"><ele>79.0</ele><time>2026-04-08T11:03:32.999Z</time></trkpt><trkpt lat="51.695562518675814" lon="16.238491808844863"><ele>79.0</ele><time>2026-04-08T11:03:34Z</time></trkpt><trkpt lat="51.69567259736363" lon="16.238436504969837"><ele>79.0</ele><time>2026-04-08T11:03:35Z</time></trkpt><trkpt lat="51.695793917519474" lon="16.23838063764723"><ele>79.0</ele><time>2026-04-08T11:03:36Z</time></trkpt><trkpt lat="51.695916954303726" lon="16.238318051264148"><ele>79.0</ele><time>2026-04-08T11:03:37Z</time></trkpt><trkpt lat="51.696027809035236" lon="16.238257837162468"><ele>79.0</ele><time>2026-04-08T11:03:38Z</time></trkpt><trkpt lat="51.69613207108185" lon="16.238199287914863"><ele>79.0</ele><time>2026-04-08T11:03:39Z</time></trkpt><trkpt lat="51.69623966133528" lon="16.23814799856249"><ele>79.0</ele><time>2026-04-08T11:03:40Z</time></trkpt><trkpt lat="51.69635565783432" lon="16.238090329792232"><ele>79.0</ele><time>2026-04-08T11:03:41Z</time></trkpt><trkpt lat="51.696471692086455" lon="16.238042056272164"><ele>79.25</ele><time>2026-04-08T11:03:42Z</time></trkpt><trkpt lat="51.69659160677787" lon="16.23799266060264"><ele>79.5</ele><time>2026-04-08T11:03:43Z</time></trkpt><trkpt lat="51.696706482926814" lon="16.237965365856915"><ele>79.75</ele><time>2026-04-08T11:03:44Z</time></trkpt><trkpt lat="51.696815547669566" lon="16.237932242477164"><ele>80.0</ele><time>2026-04-08T11:03:45Z</time></trkpt><trkpt lat="51.69691411734033" lon="16.237868543926417"><ele>79.5</ele><time>2026-04-08T11:03:46Z</time></trkpt><trkpt lat="51.697019814593396" lon="16.23780600274855"><ele>79.0</ele><time>2026-04-08T11:03:47Z</time></trkpt><trkpt lat="51.697122075206195" lon="16.23775967326504"><ele>78.5</ele><time>2026-04-08T11:03:48Z</time></trkpt><trkpt lat="51.69723334418576" lon="16.237706987687485"><ele>78.0</ele><time>2026-04-08T11:03:49Z</time></trkpt><trkpt lat="51.697360332813254" lon="16.23764088626049"><ele>78.0</ele><time>2026-04-08T11:03:50Z</time></trkpt><trkpt lat="51.69748340106158" lon="16.237553741818708"><ele>78.0</ele><time>2026-04-08T11:03:51Z</time></trkpt><trkpt lat="51.697606033446895" lon="16.237455414499205"><ele>78.0</ele><time>2026-04-08T11:03:52Z</time></trkpt><trkpt lat="51.697730573768844" lon="16.23734025557502"><ele>78.0</ele><time>2026-04-08T11:03:53Z</time></trkpt><trkpt lat="51.69784278218763" lon="16.237242628357034"><ele>78.0</ele><time>2026-04-08T11:03:54Z</time></trkpt><trkpt lat="51.69793623144287" lon="16.237118270680938"><ele>78.0</ele><time>2026-04-08T11:03:55Z</time></trkpt><trkpt lat="51.698023023999035" lon="16.237004409140333"><ele>78.0</ele><time>2026-04-08T11:03:56Z</time></trkpt><trkpt lat="51.698099243968365" lon="16.23686570338197"><ele>78.0</ele><time>2026-04-08T11:03:57Z</time></trkpt><trkpt lat="51.698169541457446" lon="16.236729694130755"><ele>78.0</ele><time>2026-04-08T11:03:58Z</time></trkpt><trkpt lat="51.69824902599413" lon="16.23658188537496"><ele>78.0</ele><time>2026-04-08T11:03:59Z</time></trkpt><trkpt lat="51.69833189058441" lon="16.236412126533963"><ele>78.0</ele><time>2026-04-08T11:04:00Z</time></trkpt><trkpt lat="51.69842602345953" lon="16.236239821384558"><ele>78.0</ele><time>2026-04-08T11:04:01Z</time></trkpt><trkpt lat="51.69850723106195" lon="16.23607325113971"><ele>78.0</ele><time>2026-04-08T11:04:02Z</time></trkpt><trkpt lat="51.69857772015511" lon="16.235927967929662"><ele>78.0</ele><time>2026-04-08T11:04:03Z</time></trkpt><trkpt lat="51.69864243754882" lon="16.23578254925095"><ele>78.0</ele><time>2026-04-08T11:04:04Z</time></trkpt><trkpt lat="51.6987058703432" lon="16.23564323967293"><ele>78.0</ele><time>2026-04-08T11:04:05Z</time></trkpt><trkpt lat="51.69876486239411" lon="16.235514523518948"><ele>78.0</ele><time>2026-04-08T11:04:06Z</time></trkpt><trkpt lat="51.69882069246671" lon="16.235392368809208"><ele>78.0</ele><time>2026-04-08T11:04:07Z</time></trkpt><trkpt lat="51.69887213073879" lon="16.235268401674272"><ele>78.0</ele><time>2026-04-08T11:04:08Z</time></trkpt><trkpt lat="51.69892642869748" lon="16.235132955248247"><ele>78.0</ele><time>2026-04-08T11:04:09Z</time></trkpt><trkpt lat="51.69898418272867" lon="16.234992303668818"><ele>78.0</ele><time>2026-04-08T11:04:10Z</time></trkpt><trkpt lat="51.69904187225395" lon="16.23485144595892"><ele>78.0</ele><time>2026-04-08T11:04:11Z</time></trkpt><trkpt lat="51.699101521535155" lon="16.234709046759875"><ele>78.0</ele><time>2026-04-08T11:04:12Z</time></trkpt><trkpt lat="51.69916031964221" lon="16.23457263798687"><ele>78.0</ele><time>2026-04-08T11:04:13Z</time></trkpt><trkpt lat="51.69922651192555" lon="16.23444819377496"><ele>78.0</ele><time>2026-04-08T11:04:14Z</time></trkpt><trkpt lat="51.69929986140751" lon="16.234338478012006"><ele>78.0</ele><time>2026-04-08T11:04:15Z</time></trkpt><trkpt lat="51.69938192563264" lon="16.23424936376837"><ele>78.0</ele><time>2026-04-08T11:04:16Z</time></trkpt><trkpt lat="51.69946115773727" lon="16.234160544556598"><ele>78.0</ele><time>2026-04-08T11:04:17Z</time></trkpt><trkpt lat="51.69953595917796" lon="16.23405258036125"><ele>78.0</ele><time>2026-04-08T11:04:18Z</time></trkpt><trkpt lat="51.69960504628694" lon="16.233928368218866"><ele>78.0</ele><time>2026-04-08T11:04:19Z</time></trkpt><trkpt lat="51.69966717245595" lon="16.233804551965857"><ele>78.0</ele><time>2026-04-08T11:04:20Z</time></trkpt><trkpt lat="51.69974699023486" lon="16.233683575375395"><ele>78.0</ele><time>2026-04-08T11:04:21Z</time></trkpt><trkpt lat="51.699829544314646" lon="16.233579900953938"><ele>78.4</ele><time>2026-04-08T11:04:22Z</time></trkpt><trkpt lat="51.69990461983886" lon="16.233473372113284"><ele>78.8</ele><time>2026-04-08T11:04:23Z</time></trkpt><trkpt lat="51.6999865120515" lon="16.2333645776064"><ele>79.2</ele><time>2026-04-08T11:04:24Z</time></trkpt><trkpt lat="51.700071354180096" lon="16.23323863370823"><ele>79.6</ele><time>2026-04-08T11:04:25Z</time></trkpt><trkpt lat="51.70014331885626" lon="16.233143339573516"><ele>80.0</ele><time>2026-04-08T11:04:26Z</time></trkpt><trkpt lat="51.70019979581461" lon="16.233038557854986"><ele>80.8</ele><time>2026-04-08T11:04:27Z</time></trkpt><trkpt lat="51.70027909363902" lon="16.232966292471357"><ele>81.6</ele><time>2026-04-08T11:04:28Z</time></trkpt><trkpt lat="51.70036892370267" lon="16.232917081559226"><ele>82.4</ele><time>2026-04-08T11:04:29Z</time></trkpt><trkpt lat="51.700464600154035" lon="16.232912074840655"><ele>83.2</ele><time>2026-04-08T11:04:30Z</time></trkpt><trkpt lat="51.70056289326566" lon="16.232915554125967"><ele>84.0</ele><time>2026-04-08T11:04:31Z</time></trkpt><trkpt lat="51.700671865173085" lon="16.232923018457587"><ele>84.0</ele><time>2026-04-08T11:04:32Z</time></trkpt><trkpt lat="51.70077670170291" lon="16.232950196959912"><ele>84.0</ele><time>2026-04-08T11:04:33Z</time></trkpt><trkpt lat="51.70086096035368" lon="16.23300066029537"><ele>84.0</ele><time>2026-04-08T11:04:34Z</time></trkpt><trkpt lat="51.70093095668904" lon="16.2330890093747"><ele>84.0</ele><time>2026-04-08T11:04:35Z</time></trkpt><trkpt lat="51.701014343234064" lon="16.233198777801686"><ele>84.0</ele><time>2026-04-08T11:04:36Z</time></trkpt><trkpt lat="51.70110021387678" lon="16.233309226030304"><ele>83.75</ele><time>2026-04-08T11:04:37Z</time></trkpt><trkpt lat="51.70120346229608" lon="16.233415198744183"><ele>83.5</ele><time>2026-04-08T11:04:38Z</time></trkpt><trkpt lat="51.70130835033185" lon="16.23352087026106"><ele>83.25</ele><time>2026-04-08T11:04:39Z</time></trkpt><trkpt lat="51.701427137197044" lon="16.23364541783623"><ele>83.0</ele><time>2026-04-08T11:04:40Z</time></trkpt><trkpt lat="51.70153038466888" lon="16.23375639737398"><ele>83.0</ele><time>2026-04-08T11:04:41Z</time></trkpt><trkpt lat="51.70163053711228" lon="16.233854167962846"><ele>83.0</ele><time>2026-04-08T11:04:42Z</time></trkpt><trkpt lat="51.70173933815721" lon="16.233954936534676"><ele>83.0</ele><time>2026-04-08T11:04:43Z</time></trkpt><trkpt lat="51.701832779066464" lon="16.234026198258313"><ele>83.0</ele><time>2026-04-08T11:04:44Z</time></trkpt><trkpt lat="51.70191046468282" lon="16.234115872452982"><ele>83.0</ele><time>2026-04-08T11:04:45Z</time></trkpt><trkpt lat="51.70198741888851" lon="16.234195053985925"><ele>83.0</ele><time>2026-04-08T11:04:46Z</time></trkpt><trkpt lat="51.702082802150045" lon="16.23426818227458"><ele>83.0</ele><time>2026-04-08T11:04:47Z</time></trkpt><trkpt lat="51.702188835369604" lon="16.23434662033051"><ele>83.0</ele><time>2026-04-08T11:04:48Z</time></trkpt><trkpt lat="51.70229740205805" lon="16.234451565953417"><ele>83.0</ele><time>2026-04-08T11:04:49Z</time></trkpt><trkpt lat="51.7024035319567" lon="16.234576208504965"><ele>83.0</ele><time>2026-04-08T11:04:50Z</time></trkpt><trkpt lat="51.70251506127838" lon="16.234705334741363"><ele>83.0</ele><time>2026-04-08T11:04:51Z</time></trkpt><trkpt lat="51.70263506522076" lon="16.234829745241264"><ele>83.0</ele><time>2026-04-08T11:04:52Z</time></trkpt><trkpt lat="51.7027408266394" lon="16.234950477559728"><ele>83.0</ele><time>2026-04-08T11:04:53Z</time></trkpt><trkpt lat="51.70282722162482" lon="16.235058505553724"><ele>81.0</ele><time>2026-04-08T11:04:54Z</time></trkpt><trkpt lat="51.702930412833375" lon="16.235179407136496"><ele>79.0</ele><time>2026-04-08T11:04:55Z</time></trkpt><trkpt lat="51.70302739399924" lon="16.235325720887037"><ele>77.0</ele><time>2026-04-08T11:04:56Z</time></trkpt><trkpt lat="51.70313365459203" lon="16.235485603544703"><ele>75.0</ele><time>2026-04-08T11:04:57Z</time></trkpt><trkpt lat="51.703255107523994" lon="16.23563472031916"><ele>75.33333333333333</ele><time>2026-04-08T11:04:58Z</time></trkpt><trkpt lat="51.70338271113773" lon="16.23578248610072"><ele>75.66666666666666</ele><time>2026-04-08T11:04:59Z</time></trkpt><trkpt lat="51.70350812181885" lon="16.235931450070694"><ele>76.0</ele><time>2026-04-08T11:05:00Z</time></trkpt><trkpt lat="51.70362662649241" lon="16.2360648226333"><ele>76.0</ele><time>2026-04-08T11:05:01Z</time></trkpt><trkpt lat="51.70372906986749" lon="16.23617037457854"><ele>76.0</ele><time>2026-04-08T11:05:02Z</time></trkpt><trkpt lat="51.70381124237553" lon="16.236273510593193"><ele>76.0</ele><time>2026-04-08T11:05:03Z</time></trkpt><trkpt lat="51.70389049325916" lon="16.2363771941268"><ele>76.0</ele><time>2026-04-08T11:05:04Z</time></trkpt><trkpt lat="51.70396807834613" lon="16.236479608758174"><ele>76.0</ele><time>2026-04-08T11:05:05Z</time></trkpt><trkpt lat="51.70405347408059" lon="16.236572054827697"><ele>76.0</ele><time>2026-04-08T11:05:06Z</time></trkpt><trkpt lat="51.704145834084265" lon="16.23667169734679"><ele>76.0</ele><time>2026-04-08T11:05:07Z</time></trkpt><trkpt lat="51.70422863668516" lon="16.23678116076115"><ele>76.0</ele><time>2026-04-08T11:05:08Z</time></trkpt><trkpt lat="51.704313695236685" lon="16.23688635878103"><ele>76.0</ele><time>2026-04-08T11:05:09Z</time></trkpt><trkpt lat="51.70440777812994" lon="16.23698207996221"><ele>76.0</ele><time>2026-04-08T11:05:10Z</time></trkpt><trkpt lat="51.70450217251104" lon="16.237093231960028"><ele>76.25</ele><time>2026-04-08T11:05:11Z</time></trkpt><trkpt lat="51.704610593420576" lon="16.237204307787604"><ele>76.5</ele><time>2026-04-08T11:05:12Z</time></trkpt><trkpt lat="51.70471891596181" lon="16.237291011896563"><ele>76.75</ele><time>2026-04-08T11:05:13Z</time></trkpt><trkpt lat="51.704828267726086" lon="16.2373738779056"><ele>77.0</ele><time>2026-04-08T11:05:14Z</time></trkpt><trkpt lat="51.704945921694936" lon="16.237483776722602"><ele>77.0</ele><time>2026-04-08T11:05:15Z</time></trkpt><trkpt lat="51.70505944110386" lon="16.237577466382593"><ele>77.0</ele><time>2026-04-08T11:05:16Z</time></trkpt><trkpt lat="51.705141625168245" lon="16.23766603549407"><ele>77.0</ele><time>2026-04-08T11:05:17Z</time></trkpt><trkpt lat="51.70520615487483" lon="16.237720895214512"><ele>77.0</ele><time>2026-04-08T11:05:18Z</time></trkpt><trkpt lat="51.70528779427056" lon="16.237804418872578"><ele>77.0</ele><time>2026-04-08T11:05:20Z</time></trkpt><trkpt lat="51.7053492521849" lon="16.237840370863555"><ele>76.75</ele><time>2026-04-08T11:05:34.001Z</time></trkpt><trkpt lat="51.70554575626092" lon="16.237925266705272"><ele>76.5</ele><time>2026-04-08T11:05:46.999Z</time></trkpt><trkpt lat="51.705589820953755" lon="16.23800183461672"><ele>76.25</ele><time>2026-04-08T11:05:47.999Z</time></trkpt><trkpt lat="51.70568248442733" lon="16.238137665521243"><ele>76.0</ele><time>2026-04-08T11:05:49.999Z</time></trkpt><trkpt lat="51.70574097078215" lon="16.23822550799489"><ele>75.75</ele><time>2026-04-08T11:05:50.999Z</time></trkpt><trkpt lat="51.70581386959267" lon="16.23833472048084"><ele>75.5</ele><time>2026-04-08T11:05:51.999Z</time></trkpt><trkpt lat="51.70593451945" lon="16.23850167058536"><ele>75.25</ele><time>2026-04-08T11:05:52.999Z</time></trkpt><trkpt lat="51.70599978380208" lon="16.238635256047903"><ele>75.0</ele><time>2026-04-08T11:05:53.999Z</time></trkpt><trkpt lat="51.706062714507446" lon="16.23875894140689"><ele>75.33333333333333</ele><time>2026-04-08T11:05:54.999Z</time></trkpt><trkpt lat="51.7061203504681" lon="16.238870716545133"><ele>75.66666666666667</ele><time>2026-04-08T11:05:55.999Z</time></trkpt><trkpt lat="51.706173426040344" lon="16.238972481316807"><ele>76.0</ele><time>2026-04-08T11:05:56.999Z</time></trkpt><trkpt lat="51.70622813349887" lon="16.239077272082497"><ele>76.33333333333334</ele><time>2026-04-08T11:05:57.999Z</time></trkpt><trkpt lat="51.70628288173305" lon="16.23918320095707"><ele>76.66666666666667</ele><time>2026-04-08T11:05:58.999Z</time></trkpt><trkpt lat="51.70633649488897" lon="16.239286933844454"><ele>77.0</ele><time>2026-04-08T11:05:59.999Z</time></trkpt><trkpt lat="51.70639208280304" lon="16.239394597245553"><ele>77.33333333333334</ele><time>2026-04-08T11:06:00.999Z</time></trkpt><trkpt lat="51.70644459846425" lon="16.239496814047698"><ele>77.66666666666667</ele><time>2026-04-08T11:06:01.999Z</time></trkpt><trkpt lat="51.70649660314473" lon="16.239598036227658"><ele>78.0</ele><time>2026-04-08T11:06:02.999Z</time></trkpt><trkpt lat="51.7065477433397" lon="16.23969720443719"><ele>78.33333333333333</ele><time>2026-04-08T11:06:03.999Z</time></trkpt><trkpt lat="51.70660301586074" lon="16.239803124108406"><ele>78.66666666666666</ele><time>2026-04-08T11:06:04.999Z</time></trkpt><trkpt lat="51.70665669123278" lon="16.239907690504122"><ele>79.0</ele><time>2026-04-08T11:06:05.999Z</time></trkpt><trkpt lat="51.706398745489864" lon="16.240440912830497"><ele>79.0</ele><time>2026-04-08T11:06:06.999Z</time></trkpt><trkpt lat="51.70645793896487" lon="16.24055148864031"><ele>79.0</ele><time>2026-04-08T11:06:07.999Z</time></trkpt><trkpt lat="51.70650698820342" lon="16.24065026642432"><ele>79.0</ele><time>2026-04-08T11:06:08.999Z</time></trkpt><trkpt lat="51.70659253882403" lon="16.240761205576156"><ele>79.0</ele><time>2026-04-08T11:06:10.999Z</time></trkpt><trkpt lat="51.7066622515027" lon="16.240690279196823"><ele>79.0</ele><time>2026-04-08T11:06:12.999Z</time></trkpt><trkpt lat="51.7066986348402" lon="16.240520779619604"><ele>79.00000000000001</ele><time>2026-04-08T11:06:15Z</time></trkpt><trkpt lat="51.70672178460293" lon="16.24042279601917"><ele>79.0</ele><time>2026-04-08T11:06:17Z</time></trkpt><trkpt lat="51.70674464001292" lon="16.240325073163646"><ele>79.0</ele><time>2026-04-08T11:06:24Z</time></trkpt><trkpt lat="51.70677974402724" lon="16.240225393367894"><ele>79.0</ele><time>2026-04-08T11:06:28Z</time></trkpt><trkpt lat="51.70679587062922" lon="16.240126458347223"><ele>79.0</ele><time>2026-04-08T11:06:35Z</time></trkpt><trkpt lat="51.706825947106964" lon="16.240027839420733"><ele>79.00000000000001</ele><time>2026-04-08T11:06:36Z</time></trkpt><trkpt lat="51.706838897443745" lon="16.239899465900617"><ele>79.0</ele><time>2026-04-08T11:06:37Z</time></trkpt><trkpt lat="51.70688205499343" lon="16.239779489928257"><ele>78.66666666666666</ele><time>2026-04-08T11:06:38Z</time></trkpt><trkpt lat="51.70691488042959" lon="16.239649469040174"><ele>78.33333333333333</ele><time>2026-04-08T11:06:39Z</time></trkpt><trkpt lat="51.70693031932038" lon="16.23954269271775"><ele>78.0</ele><time>2026-04-08T11:06:40Z</time></trkpt><trkpt lat="51.70697710584113" lon="16.239389924199735"><ele>77.66666666666667</ele><time>2026-04-08T11:06:42Z</time></trkpt><trkpt lat="51.707059546264986" lon="16.239284526407793"><ele>77.33333333333334</ele><time>2026-04-08T11:06:44Z</time></trkpt><trkpt lat="51.70712487509623" lon="16.239286201874712"><ele>77.0</ele><time>2026-04-08T11:06:45Z</time></trkpt><trkpt lat="51.70719420884875" lon="16.239329853337487"><ele>77.0</ele><time>2026-04-08T11:06:46Z</time></trkpt><trkpt lat="51.70726649841465" lon="16.239385151729017"><ele>77.0</ele><time>2026-04-08T11:06:47Z</time></trkpt><trkpt lat="51.70733662234356" lon="16.23943958001739"><ele>77.0</ele><time>2026-04-08T11:06:48Z</time></trkpt><trkpt lat="51.70742660057618" lon="16.23948447866355"><ele>77.0</ele><time>2026-04-08T11:06:49Z</time></trkpt><trkpt lat="51.70751123816554" lon="16.239530525154716"><ele>77.0</ele><time>2026-04-08T11:06:50Z</time></trkpt><trkpt lat="51.707591503474475" lon="16.239592508949567"><ele>77.0</ele><time>2026-04-08T11:06:51Z</time></trkpt><trkpt lat="51.70766917281145" lon="16.239656618859666"><ele>76.8</ele><time>2026-04-08T11:06:52Z</time></trkpt><trkpt lat="51.70776003035147" lon="16.239718085050757"><ele>76.6</ele><time>2026-04-08T11:06:53Z</time></trkpt><trkpt lat="51.70785982309376" lon="16.2397779198188"><ele>76.39999999999999</ele><time>2026-04-08T11:06:54Z</time></trkpt><trkpt lat="51.7079635650578" lon="16.23984389550039"><ele>76.2</ele><time>2026-04-08T11:06:55Z</time></trkpt><trkpt lat="51.70805185892784" lon="16.239914203251505"><ele>76.0</ele><time>2026-04-08T11:06:56Z</time></trkpt><trkpt lat="51.70815574375152" lon="16.239981581072215"><ele>76.0</ele><time>2026-04-08T11:06:57Z</time></trkpt><trkpt lat="51.70826356388895" lon="16.240050573661744"><ele>76.0</ele><time>2026-04-08T11:06:58Z</time></trkpt><trkpt lat="51.708373902765764" lon="16.240124934815615"><ele>76.0</ele><time>2026-04-08T11:06:59Z</time></trkpt><trkpt lat="51.708484133002464" lon="16.24019936550782"><ele>76.0</ele><time>2026-04-08T11:07:00Z</time></trkpt><trkpt lat="51.708595767799146" lon="16.240277944275267"><ele>76.5</ele><time>2026-04-08T11:07:01Z</time></trkpt><trkpt lat="51.70870777327006" lon="16.240356646940892"><ele>77.0</ele><time>2026-04-08T11:07:02Z</time></trkpt><trkpt lat="51.70881932942316" lon="16.240427559733487"><ele>77.5</ele><time>2026-04-08T11:07:03Z</time></trkpt><trkpt lat="51.70893329061699" lon="16.240493346818905"><ele>78.0</ele><time>2026-04-08T11:07:04Z</time></trkpt><trkpt lat="51.70904743689917" lon="16.240571884764464"><ele>78.0</ele><time>2026-04-08T11:07:05Z</time></trkpt><trkpt lat="51.70916235082675" lon="16.240646272282603"><ele>78.0</ele><time>2026-04-08T11:07:06Z</time></trkpt><trkpt lat="51.70927389630816" lon="16.240722503443408"><ele>78.0</ele><time>2026-04-08T11:07:07Z</time></trkpt><trkpt lat="51.7093861446945" lon="16.240801937975935"><ele>78.0</ele><time>2026-04-08T11:07:08Z</time></trkpt><trkpt lat="51.70950238169845" lon="16.2408819510071"><ele>78.0</ele><time>2026-04-08T11:07:09Z</time></trkpt><trkpt lat="51.70961483815395" lon="16.24096034288233"><ele>78.0</ele><time>2026-04-08T11:07:10Z</time></trkpt><trkpt lat="51.70984273215627" lon="16.241113708989527"><ele>78.0</ele><time>2026-04-08T11:07:12Z</time></trkpt><trkpt lat="51.70995591137753" lon="16.241192532482362"><ele>78.0</ele><time>2026-04-08T11:07:13Z</time></trkpt><trkpt lat="51.71007583063239" lon="16.241260042143754"><ele>78.0</ele><time>2026-04-08T11:07:14Z</time></trkpt><trkpt lat="51.71017925980334" lon="16.24133386675657"><ele>78.0</ele><time>2026-04-08T11:07:15Z</time></trkpt><trkpt lat="51.7102936291161" lon="16.24140589681096"><ele>78.0</ele><time>2026-04-08T11:07:16Z</time></trkpt><trkpt lat="51.710405231812786" lon="16.241488861133135"><ele>78.25</ele><time>2026-04-08T11:07:17Z</time></trkpt><trkpt lat="51.71052844643487" lon="16.241567297529116"><ele>78.5</ele><time>2026-04-08T11:07:18Z</time></trkpt><trkpt lat="51.710639708860974" lon="16.241653368659534"><ele>78.75</ele><time>2026-04-08T11:07:19Z</time></trkpt><trkpt lat="51.71075732229492" lon="16.241728821950012"><ele>79.0</ele><time>2026-04-08T11:07:20Z</time></trkpt><trkpt lat="51.71087879810908" lon="16.241807087846624"><ele>79.0</ele><time>2026-04-08T11:07:21Z</time></trkpt><trkpt lat="51.71099612771245" lon="16.241886231424733"><ele>79.0</ele><time>2026-04-08T11:07:22Z</time></trkpt><trkpt lat="51.711115105090755" lon="16.241966123816916"><ele>79.0</ele><time>2026-04-08T11:07:23Z</time></trkpt><trkpt lat="51.71123528830525" lon="16.24204254331421"><ele>79.0</ele><time>2026-04-08T11:07:24Z</time></trkpt><trkpt lat="51.711347948696165" lon="16.242124177360132"><ele>79.0</ele><time>2026-04-08T11:07:25Z</time></trkpt><trkpt lat="51.71146349580046" lon="16.242195907509107"><ele>79.0</ele><time>2026-04-08T11:07:26Z</time></trkpt><trkpt lat="51.711571898069835" lon="16.242260321097994"><ele>79.0</ele><time>2026-04-08T11:07:27Z</time></trkpt><trkpt lat="51.711659302304405" lon="16.242324671560304"><ele>79.0</ele><time>2026-04-08T11:07:28Z</time></trkpt><trkpt lat="51.71174132993516" lon="16.242379566029104"><ele>79.0</ele><time>2026-04-08T11:07:29Z</time></trkpt><trkpt lat="51.71180800571689" lon="16.242417627395852"><ele>79.0</ele><time>2026-04-08T11:07:30Z</time></trkpt><trkpt lat="51.711910395313154" lon="16.24250001454883"><ele>79.0</ele><time>2026-04-08T11:07:32Z</time></trkpt><trkpt lat="51.71197211901847" lon="16.24252220597916"><ele>79.0</ele><time>2026-04-08T11:07:34Z</time></trkpt><trkpt lat="51.71202280779439" lon="16.242279712332387"><ele>79.0</ele><time>2026-04-08T11:07:35Z</time></trkpt><trkpt lat="51.7120300041637" lon="16.24215816476825"><ele>79.0</ele><time>2026-04-08T11:07:36Z</time></trkpt><trkpt lat="51.71206505779332" lon="16.242069237783088"><ele>78.83333333333333</ele><time>2026-04-08T11:07:37Z</time></trkpt><trkpt lat="51.712089324573164" lon="16.24197363379931"><ele>78.66666666666666</ele><time>2026-04-08T11:07:39Z</time></trkpt><trkpt lat="51.71212423660118" lon="16.241857426712254"><ele>78.5</ele><time>2026-04-08T11:07:40.998Z</time></trkpt><trkpt lat="51.712160220764346" lon="16.24175226350982"><ele>78.33333333333333</ele><time>2026-04-08T11:07:41.998Z</time></trkpt><trkpt lat="51.71218975166078" lon="16.241618129040457"><ele>78.16666666666667</ele><time>2026-04-08T11:07:42.998Z</time></trkpt><trkpt lat="51.71221547159421" lon="16.241475718429136"><ele>78.0</ele><time>2026-04-08T11:07:43.999Z</time></trkpt><trkpt lat="51.71223643003238" lon="16.24132994248715"><ele>78.0</ele><time>2026-04-08T11:07:44.999Z</time></trkpt><trkpt lat="51.712271319249126" lon="16.241180783378866"><ele>78.0</ele><time>2026-04-08T11:07:45.999Z</time></trkpt><trkpt lat="51.712327458627804" lon="16.24103812996058"><ele>78.0</ele><time>2026-04-08T11:07:46.999Z</time></trkpt><trkpt lat="51.71235323790314" lon="16.240887782315443"><ele>78.0</ele><time>2026-04-08T11:07:47.999Z</time></trkpt><trkpt lat="51.712380566679094" lon="16.24076717911933"><ele>78.0</ele><time>2026-04-08T11:07:48.999Z</time></trkpt><trkpt lat="51.712407138203574" lon="16.240670909897585"><ele>78.0</ele><time>2026-04-08T11:07:49.999Z</time></trkpt><trkpt lat="51.71256945630944" lon="16.240722173306303"><ele>78.0</ele><time>2026-04-08T11:07:52.999Z</time></trkpt><trkpt lat="51.71264981413901" lon="16.24075108244098"><ele>78.0</ele><time>2026-04-08T11:07:53.999Z</time></trkpt><trkpt lat="51.71274306040823" lon="16.240812149295483"><ele>78.0</ele><time>2026-04-08T11:07:54.999Z</time></trkpt><trkpt lat="51.712857407638666" lon="16.240872647771432"><ele>78.0</ele><time>2026-04-08T11:07:55.999Z</time></trkpt><trkpt lat="51.71298262804679" lon="16.240944334753795"><ele>78.0</ele><time>2026-04-08T11:07:56.999Z</time></trkpt><trkpt lat="51.71311590935436" lon="16.241030391773478"><ele>77.5</ele><time>2026-04-08T11:07:57.999Z</time></trkpt><trkpt lat="51.713254084598525" lon="16.241114542138963"><ele>77.0</ele><time>2026-04-08T11:07:58.999Z</time></trkpt><trkpt lat="51.71338413202252" lon="16.241192942376795"><ele>76.5</ele><time>2026-04-08T11:07:59.999Z</time></trkpt><trkpt lat="51.71351315133218" lon="16.24126546542441"><ele>76.0</ele><time>2026-04-08T11:08:00.999Z</time></trkpt><trkpt lat="51.713636288476295" lon="16.241342295481047"><ele>76.0</ele><time>2026-04-08T11:08:01.999Z</time></trkpt><trkpt lat="51.71375751440971" lon="16.241412095367522"><ele>76.0</ele><time>2026-04-08T11:08:02.999Z</time></trkpt><trkpt lat="51.71387813007765" lon="16.241483861540384"><ele>76.0</ele><time>2026-04-08T11:08:03.999Z</time></trkpt><trkpt lat="51.71398922238945" lon="16.241552615110166"><ele>76.0</ele><time>2026-04-08T11:08:04.999Z</time></trkpt><trkpt lat="51.71408738612002" lon="16.241617113723144"><ele>76.0</ele><time>2026-04-08T11:08:05.999Z</time></trkpt><trkpt lat="51.71419212611769" lon="16.24167337744246"><ele>76.0</ele><time>2026-04-08T11:08:06.999Z</time></trkpt><trkpt lat="51.714296306868135" lon="16.241733401145414"><ele>76.0</ele><time>2026-04-08T11:08:07.999Z</time></trkpt><trkpt lat="51.71438836593784" lon="16.241788598846583"><ele>76.0</ele><time>2026-04-08T11:08:08.999Z</time></trkpt><trkpt lat="51.71447327631942" lon="16.241835148064563"><ele>76.0</ele><time>2026-04-08T11:08:09.999Z</time></trkpt><trkpt lat="51.71456635605313" lon="16.241891693639143"><ele>76.0</ele><time>2026-04-08T11:08:10.999Z</time></trkpt><trkpt lat="51.71466832696433" lon="16.241950018282047"><ele>76.0</ele><time>2026-04-08T11:08:12Z</time></trkpt><trkpt lat="51.71477617508303" lon="16.24201028885988"><ele>76.0</ele><time>2026-04-08T11:08:13Z</time></trkpt><trkpt lat="51.71488858496117" lon="16.242067077686556"><ele>76.0</ele><time>2026-04-08T11:08:14Z</time></trkpt><trkpt lat="51.71498306108227" lon="16.242127788707343"><ele>76.0</ele><time>2026-04-08T11:08:15Z</time></trkpt><trkpt lat="51.71507448885703" lon="16.242175004140478"><ele>76.0</ele><time>2026-04-08T11:08:16Z</time></trkpt><trkpt lat="51.71515459009512" lon="16.242220333277547"><ele>76.0</ele><time>2026-04-08T11:08:17Z</time></trkpt><trkpt lat="51.715221041821565" lon="16.242269779578454"><ele>76.0</ele><time>2026-04-08T11:08:18Z</time></trkpt><trkpt lat="51.715282534092786" lon="16.242300886514766"><ele>76.0</ele><time>2026-04-08T11:08:19Z</time></trkpt><trkpt lat="51.71536991802839" lon="16.242348160787664"><ele>76.0</ele><time>2026-04-08T11:08:21Z</time></trkpt><trkpt lat="51.715438294298544" lon="16.242353411779167"><ele>76.0</ele><time>2026-04-08T11:08:24Z</time></trkpt><trkpt lat="51.715465812895715" lon="16.24215900902773"><ele>76.39999999999999</ele><time>2026-04-08T11:08:26Z</time></trkpt><trkpt lat="51.71548963711976" lon="16.242015993253755"><ele>76.8</ele><time>2026-04-08T11:08:27Z</time></trkpt><trkpt lat="51.715508826368016" lon="16.241864376391153"><ele>77.19999999999999</ele><time>2026-04-08T11:08:28Z</time></trkpt><trkpt lat="51.71553669803976" lon="16.24168291053862"><ele>77.6</ele><time>2026-04-08T11:08:29Z</time></trkpt><trkpt lat="51.71557036149277" lon="16.241482174066213"><ele>78.0</ele><time>2026-04-08T11:08:30Z</time></trkpt><trkpt lat="51.71560280643185" lon="16.241285451728324"><ele>78.25</ele><time>2026-04-08T11:08:31Z</time></trkpt><trkpt lat="51.71564595951697" lon="16.241099563444063"><ele>78.5</ele><time>2026-04-08T11:08:32Z</time></trkpt><trkpt lat="51.715673338416416" lon="16.240906326298017"><ele>78.75</ele><time>2026-04-08T11:08:33Z</time></trkpt><trkpt lat="51.71571607597327" lon="16.24071051571237"><ele>79.0</ele><time>2026-04-08T11:08:34Z</time></trkpt><trkpt lat="51.71575498205661" lon="16.240499524683703"><ele>79.25</ele><time>2026-04-08T11:08:35Z</time></trkpt><trkpt lat="51.715793977349556" lon="16.240275580699443"><ele>79.5</ele><time>2026-04-08T11:08:36Z</time></trkpt><trkpt lat="51.71583748294342" lon="16.240050202906918"><ele>79.75</ele><time>2026-04-08T11:08:37Z</time></trkpt><trkpt lat="51.71587817924662" lon="16.239819862708824"><ele>80.0</ele><time>2026-04-08T11:08:38Z</time></trkpt><trkpt lat="51.71592467032449" lon="16.23959156812012"><ele>79.75</ele><time>2026-04-08T11:08:39Z</time></trkpt><trkpt lat="51.715964862334616" lon="16.239363516832004"><ele>79.5</ele><time>2026-04-08T11:08:40Z</time></trkpt><trkpt lat="51.716011076683635" lon="16.239150991671636"><ele>79.25</ele><time>2026-04-08T11:08:41Z</time></trkpt><trkpt lat="51.71605250917734" lon="16.238944398736752"><ele>79.0</ele><time>2026-04-08T11:08:42Z</time></trkpt><trkpt lat="51.71608894577854" lon="16.23875325361642"><ele>79.0</ele><time>2026-04-08T11:08:43Z</time></trkpt><trkpt lat="51.71612199730039" lon="16.238554368428154"><ele>79.0</ele><time>2026-04-08T11:08:44Z</time></trkpt><trkpt lat="51.716157598385855" lon="16.23835443059065"><ele>79.0</ele><time>2026-04-08T11:08:45Z</time></trkpt><trkpt lat="51.71618598911999" lon="16.23814638036062"><ele>79.0</ele><time>2026-04-08T11:08:46Z</time></trkpt><trkpt lat="51.71621526582475" lon="16.237950588790227"><ele>79.0</ele><time>2026-04-08T11:08:47Z</time></trkpt><trkpt lat="51.71624999522156" lon="16.237752206186425"><ele>79.0</ele><time>2026-04-08T11:08:48Z</time></trkpt><trkpt lat="51.716287705307074" lon="16.237558754128862"><ele>79.0</ele><time>2026-04-08T11:08:49Z</time></trkpt><trkpt lat="51.71632538347997" lon="16.237374759620803"><ele>79.0</ele><time>2026-04-08T11:08:50Z</time></trkpt><trkpt lat="51.71635926943168" lon="16.237192782339324"><ele>78.5</ele><time>2026-04-08T11:08:51Z</time></trkpt><trkpt lat="51.71639853821004" lon="16.23702167241009"><ele>78.0</ele><time>2026-04-08T11:08:52Z</time></trkpt><trkpt lat="51.716421143861375" lon="16.236848274481623"><ele>77.5</ele><time>2026-04-08T11:08:53Z</time></trkpt><trkpt lat="51.716453494095866" lon="16.23667086206173"><ele>77.0</ele><time>2026-04-08T11:08:54Z</time></trkpt><trkpt lat="51.71649146910255" lon="16.23649473558979"><ele>77.4</ele><time>2026-04-08T11:08:55Z</time></trkpt><trkpt lat="51.716524875785296" lon="16.236325722209497"><ele>77.80000000000001</ele><time>2026-04-08T11:08:56Z</time></trkpt><trkpt lat="51.71655714125664" lon="16.23615063463585"><ele>78.2</ele><time>2026-04-08T11:08:57Z</time></trkpt><trkpt lat="51.71658359141022" lon="16.23598071130254"><ele>78.60000000000001</ele><time>2026-04-08T11:08:58Z</time></trkpt><trkpt lat="51.71661410749938" lon="16.235823943520284"><ele>79.0</ele><time>2026-04-08T11:08:59Z</time></trkpt><trkpt lat="51.71664269849773" lon="16.23566874684725"><ele>80.2</ele><time>2026-04-08T11:09:00Z</time></trkpt><trkpt lat="51.71667235269407" lon="16.23551218893801"><ele>81.4</ele><time>2026-04-08T11:09:01Z</time></trkpt><trkpt lat="51.71671071003409" lon="16.235368239413308"><ele>82.6</ele><time>2026-04-08T11:09:02Z</time></trkpt><trkpt lat="51.716742047100524" lon="16.23521244608891"><ele>83.8</ele><time>2026-04-08T11:09:03Z</time></trkpt><trkpt lat="51.71676597816967" lon="16.235053368871863"><ele>85.0</ele><time>2026-04-08T11:09:04Z</time></trkpt><trkpt lat="51.7167937314116" lon="16.23489662134008"><ele>85.33333333333333</ele><time>2026-04-08T11:09:05Z</time></trkpt><trkpt lat="51.71681060506453" lon="16.234747321065917"><ele>85.66666666666666</ele><time>2026-04-08T11:09:06Z</time></trkpt><trkpt lat="51.71683198110487" lon="16.23462343933182"><ele>86.0</ele><time>2026-04-08T11:09:07Z</time></trkpt><trkpt lat="51.716869701529156" lon="16.234516033531964"><ele>86.33333333333333</ele><time>2026-04-08T11:09:08Z</time></trkpt><trkpt lat="51.71689543569497" lon="16.23438338604614"><ele>86.66666666666667</ele><time>2026-04-08T11:09:09Z</time></trkpt><trkpt lat="51.716908614986046" lon="16.234227562441113"><ele>87.0</ele><time>2026-04-08T11:09:10Z</time></trkpt><trkpt lat="51.71694646920378" lon="16.23406785352554"><ele>87.0</ele><time>2026-04-08T11:09:11.001Z</time></trkpt><trkpt lat="51.71697895247842" lon="16.23389504524325"><ele>87.0</ele><time>2026-04-08T11:09:12.001Z</time></trkpt><trkpt lat="51.71700661788911" lon="16.233725562575906"><ele>87.0</ele><time>2026-04-08T11:09:13.001Z</time></trkpt><trkpt lat="51.717045698876085" lon="16.23353404681042"><ele>87.0</ele><time>2026-04-08T11:09:14.001Z</time></trkpt><trkpt lat="51.71708210589566" lon="16.233369002701426"><ele>87.0</ele><time>2026-04-08T11:09:15.001Z</time></trkpt><trkpt lat="51.71711037466451" lon="16.23319533451493"><ele>87.0</ele><time>2026-04-08T11:09:16.001Z</time></trkpt><trkpt lat="51.71714505577907" lon="16.233021120461185"><ele>87.0</ele><time>2026-04-08T11:09:17.001Z</time></trkpt><trkpt lat="51.71717595800138" lon="16.232849167841714"><ele>87.0</ele><time>2026-04-08T11:09:18.001Z</time></trkpt><trkpt lat="51.717222038649034" lon="16.23266601468413"><ele>86.5</ele><time>2026-04-08T11:09:19.001Z</time></trkpt><trkpt lat="51.71725429120393" lon="16.23248589777676"><ele>86.0</ele><time>2026-04-08T11:09:20.001Z</time></trkpt><trkpt lat="51.71728754449222" lon="16.232302948431556"><ele>85.5</ele><time>2026-04-08T11:09:21.001Z</time></trkpt><trkpt lat="51.71730473828078" lon="16.232115385136712"><ele>85.0</ele><time>2026-04-08T11:09:22.001Z</time></trkpt><trkpt lat="51.71734163188656" lon="16.231926699986673"><ele>84.5</ele><time>2026-04-08T11:09:23.001Z</time></trkpt><trkpt lat="51.71737737524485" lon="16.231729256035983"><ele>84.0</ele><time>2026-04-08T11:09:24.001Z</time></trkpt><trkpt lat="51.71741438294105" lon="16.231529650133478"><ele>83.5</ele><time>2026-04-08T11:09:25.001Z</time></trkpt><trkpt lat="51.71746178925233" lon="16.23133202754034"><ele>83.0</ele><time>2026-04-08T11:09:26.001Z</time></trkpt><trkpt lat="51.71749980300034" lon="16.23112395680435"><ele>83.0</ele><time>2026-04-08T11:09:27.001Z</time></trkpt><trkpt lat="51.71752247521726" lon="16.23090745666192"><ele>83.0</ele><time>2026-04-08T11:09:28.001Z</time></trkpt><trkpt lat="51.717562743461535" lon="16.230680915333306"><ele>83.0</ele><time>2026-04-08T11:09:29.001Z</time></trkpt><trkpt lat="51.71759969909031" lon="16.230475947085502"><ele>83.0</ele><time>2026-04-08T11:09:30.001Z</time></trkpt><trkpt lat="51.71765045263265" lon="16.230277419525496"><ele>83.0</ele><time>2026-04-08T11:09:31.001Z</time></trkpt><trkpt lat="51.71767338015804" lon="16.230076248397356"><ele>83.0</ele><time>2026-04-08T11:09:32.001Z</time></trkpt><trkpt lat="51.717713437126385" lon="16.229883440484024"><ele>83.0</ele><time>2026-04-08T11:09:33.001Z</time></trkpt><trkpt lat="51.71774532660471" lon="16.229675159049798"><ele>83.0</ele><time>2026-04-08T11:09:34.001Z</time></trkpt><trkpt lat="51.717782677277135" lon="16.229470502914626"><ele>81.5</ele><time>2026-04-08T11:09:35.001Z</time></trkpt><trkpt lat="51.71781885578532" lon="16.229258964126682"><ele>80.0</ele><time>2026-04-08T11:09:36.001Z</time></trkpt><trkpt lat="51.71785846102777" lon="16.229065166942604"><ele>78.5</ele><time>2026-04-08T11:09:37.001Z</time></trkpt><trkpt lat="51.71789181557616" lon="16.228877019652984"><ele>77.0</ele><time>2026-04-08T11:09:38.001Z</time></trkpt><trkpt lat="51.71792285509123" lon="16.228698876853763"><ele>77.0</ele><time>2026-04-08T11:09:39.001Z</time></trkpt><trkpt lat="51.717955602562064" lon="16.22853133675418"><ele>77.0</ele><time>2026-04-08T11:09:40.001Z</time></trkpt><trkpt lat="51.71799874942438" lon="16.228370114431407"><ele>77.0</ele><time>2026-04-08T11:09:41.001Z</time></trkpt><trkpt lat="51.718026623876355" lon="16.22822906484544"><ele>77.0</ele><time>2026-04-08T11:09:42.001Z</time></trkpt><trkpt lat="51.718057186384094" lon="16.228072995666537"><ele>77.0</ele><time>2026-04-08T11:09:43.001Z</time></trkpt><trkpt lat="51.7180890178891" lon="16.227913021780545"><ele>77.75</ele><time>2026-04-08T11:09:44.001Z</time></trkpt><trkpt lat="51.71810766193257" lon="16.227729430575085"><ele>78.5</ele><time>2026-04-08T11:09:45.001Z</time></trkpt><trkpt lat="51.71814905639162" lon="16.22756022110272"><ele>79.25</ele><time>2026-04-08T11:09:46.001Z</time></trkpt><trkpt lat="51.71818263338895" lon="16.22738537243537"><ele>80.0</ele><time>2026-04-08T11:09:47Z</time></trkpt><trkpt lat="51.71821556286625" lon="16.22720091305822"><ele>80.0</ele><time>2026-04-08T11:09:48Z</time></trkpt><trkpt lat="51.71825547696939" lon="16.22705004501694"><ele>80.0</ele><time>2026-04-08T11:09:49Z</time></trkpt><trkpt lat="51.71827773763185" lon="16.22693192523831"><ele>80.0</ele><time>2026-04-08T11:09:50Z</time></trkpt><trkpt lat="51.7183122447546" lon="16.226735987041362"><ele>80.0</ele><time>2026-04-08T11:09:51Z</time></trkpt><trkpt lat="51.718322666830296" lon="16.226569655912787"><ele>80.0</ele><time>2026-04-08T11:09:52Z</time></trkpt><trkpt lat="51.71836287668596" lon="16.226423876275177"><ele>80.0</ele><time>2026-04-08T11:09:53Z</time></trkpt><trkpt lat="51.718381952343435" lon="16.22629053760891"><ele>80.0</ele><time>2026-04-08T11:09:54Z</time></trkpt><trkpt lat="51.71838671465209" lon="16.226164096641032"><ele>80.0</ele><time>2026-04-08T11:09:55Z</time></trkpt><trkpt lat="51.718409602503755" lon="16.22604265400023"><ele>80.0</ele><time>2026-04-08T11:09:56Z</time></trkpt><trkpt lat="51.71843444076816" lon="16.225900934116254"><ele>80.0</ele><time>2026-04-08T11:09:57Z</time></trkpt><trkpt lat="51.71848693393711" lon="16.225753388063637"><ele>80.0</ele><time>2026-04-08T11:09:58Z</time></trkpt><trkpt lat="51.71855694716396" lon="16.22557645478162"><ele>79.0</ele><time>2026-04-08T11:09:59Z</time></trkpt><trkpt lat="51.7186316949047" lon="16.22539498581561"><ele>78.0</ele><time>2026-04-08T11:10:00Z</time></trkpt><trkpt lat="51.71870776284089" lon="16.225198520976694"><ele>77.0</ele><time>2026-04-08T11:10:01Z</time></trkpt><trkpt lat="51.718793812166844" lon="16.225020975875157"><ele>76.0</ele><time>2026-04-08T11:10:02Z</time></trkpt><trkpt lat="51.718854965625965" lon="16.224824293769824"><ele>76.25</ele><time>2026-04-08T11:10:03Z</time></trkpt><trkpt lat="51.71893509982035" lon="16.224651979101097"><ele>76.5</ele><time>2026-04-08T11:10:04Z</time></trkpt><trkpt lat="51.71899031342462" lon="16.224501076232542"><ele>76.75</ele><time>2026-04-08T11:10:05Z</time></trkpt><trkpt lat="51.719047452349855" lon="16.22434736026295"><ele>77.0</ele><time>2026-04-08T11:10:06Z</time></trkpt><trkpt lat="51.7190877931507" lon="16.224180890156738"><ele>77.0</ele><time>2026-04-08T11:10:07Z</time></trkpt><trkpt lat="51.71913701926501" lon="16.224023107369696"><ele>77.0</ele><time>2026-04-08T11:10:08Z</time></trkpt><trkpt lat="51.71918868072499" lon="16.223845635197456"><ele>77.0</ele><time>2026-04-08T11:10:09Z</time></trkpt><trkpt lat="51.7192497088578" lon="16.22366751939759"><ele>77.0</ele><time>2026-04-08T11:10:10Z</time></trkpt><trkpt lat="51.719307872980664" lon="16.22347273634999"><ele>77.0</ele><time>2026-04-08T11:10:11Z</time></trkpt><trkpt lat="51.71935701543457" lon="16.22328408439911"><ele>77.0</ele><time>2026-04-08T11:10:12Z</time></trkpt><trkpt lat="51.71942081093641" lon="16.22313041951029"><ele>77.0</ele><time>2026-04-08T11:10:13Z</time></trkpt><trkpt lat="51.71946601029708" lon="16.222971037875986"><ele>77.0</ele><time>2026-04-08T11:10:14Z</time></trkpt><trkpt lat="51.71950056542049" lon="16.22282293211343"><ele>77.0</ele><time>2026-04-08T11:10:15Z</time></trkpt><trkpt lat="51.71955228491938" lon="16.22268108587546"><ele>77.0</ele><time>2026-04-08T11:10:16Z</time></trkpt><trkpt lat="51.71960179139369" lon="16.222511952981446"><ele>77.0</ele><time>2026-04-08T11:10:17Z</time></trkpt><trkpt lat="51.71965569471457" lon="16.2223278898951"><ele>77.0</ele><time>2026-04-08T11:10:18Z</time></trkpt><trkpt lat="51.719694831353216" lon="16.22212408069467"><ele>77.0</ele><time>2026-04-08T11:10:19Z</time></trkpt><trkpt lat="51.71974644541041" lon="16.221954089496926"><ele>77.75</ele><time>2026-04-08T11:10:20Z</time></trkpt><trkpt lat="51.719791555418524" lon="16.221778932873665"><ele>78.5</ele><time>2026-04-08T11:10:21Z</time></trkpt><trkpt lat="51.71984989750753" lon="16.221618587464857"><ele>79.25</ele><time>2026-04-08T11:10:22Z</time></trkpt><trkpt lat="51.719900993704144" lon="16.221454604581627"><ele>80.0</ele><time>2026-04-08T11:10:23Z</time></trkpt><trkpt lat="51.7199553665635" lon="16.221292720713794"><ele>80.5</ele><time>2026-04-08T11:10:24Z</time></trkpt><trkpt lat="51.720010271025075" lon="16.221136816326243"><ele>81.0</ele><time>2026-04-08T11:10:25Z</time></trkpt><trkpt lat="51.72006648720543" lon="16.220979701411814"><ele>81.5</ele><time>2026-04-08T11:10:26Z</time></trkpt><trkpt lat="51.72012082592841" lon="16.220798422497047"><ele>82.0</ele><time>2026-04-08T11:10:27Z</time></trkpt><trkpt lat="51.72018771371378" lon="16.220630642331646"><ele>81.5</ele><time>2026-04-08T11:10:28Z</time></trkpt><trkpt lat="51.72024850723354" lon="16.220446210527857"><ele>81.0</ele><time>2026-04-08T11:10:29Z</time></trkpt><trkpt lat="51.72031138834512" lon="16.22024802775007"><ele>80.5</ele><time>2026-04-08T11:10:30Z</time></trkpt><trkpt lat="51.72037779288303" lon="16.220039887999736"><ele>80.0</ele><time>2026-04-08T11:10:31Z</time></trkpt><trkpt lat="51.7204342726854" lon="16.219816223280766"><ele>79.66666666666667</ele><time>2026-04-08T11:10:32Z</time></trkpt><trkpt lat="51.72050907651269" lon="16.21958753705223"><ele>79.33333333333333</ele><time>2026-04-08T11:10:33Z</time></trkpt><trkpt lat="51.72058045893446" lon="16.219337176190766"><ele>79.0</ele><time>2026-04-08T11:10:34Z</time></trkpt><trkpt lat="51.72065483816551" lon="16.21909280747522"><ele>79.0</ele><time>2026-04-08T11:10:35Z</time></trkpt><trkpt lat="51.72071859303434" lon="16.21886117455277"><ele>79.0</ele><time>2026-04-08T11:10:36Z</time></trkpt><trkpt lat="51.7207771703678" lon="16.218641307345735"><ele>79.0</ele><time>2026-04-08T11:10:37Z</time></trkpt><trkpt lat="51.72083977218504" lon="16.21845288890059"><ele>79.0</ele><time>2026-04-08T11:10:38Z</time></trkpt><trkpt lat="51.72089675610294" lon="16.21825907904595"><ele>79.4</ele><time>2026-04-08T11:10:39Z</time></trkpt><trkpt lat="51.72094498596976" lon="16.218085874093223"><ele>79.80000000000001</ele><time>2026-04-08T11:10:40.001Z</time></trkpt><trkpt lat="51.72099069288482" lon="16.217900922688152"><ele>80.19999999999999</ele><time>2026-04-08T11:10:41.001Z</time></trkpt><trkpt lat="51.72104055171731" lon="16.21775125616397"><ele>80.6</ele><time>2026-04-08T11:10:42.001Z</time></trkpt><trkpt lat="51.72107926440925" lon="16.217597941962385"><ele>81.0</ele><time>2026-04-08T11:10:43.001Z</time></trkpt><trkpt lat="51.7211316225298" lon="16.217481202123693"><ele>80.33333333333333</ele><time>2026-04-08T11:10:44.001Z</time></trkpt><trkpt lat="51.72115370168124" lon="16.217365794241502"><ele>79.66666666666667</ele><time>2026-04-08T11:10:45.001Z</time></trkpt><trkpt lat="51.72120125369836" lon="16.217258096990935"><ele>79.0</ele><time>2026-04-08T11:10:46.001Z</time></trkpt><trkpt lat="51.7212414931953" lon="16.21712974318293"><ele>78.33333333333334</ele><time>2026-04-08T11:10:47.001Z</time></trkpt><trkpt lat="51.72128111480741" lon="16.217004525946976"><ele>77.66666666666667</ele><time>2026-04-08T11:10:48.001Z</time></trkpt><trkpt lat="51.72132209004859" lon="16.21687729900938"><ele>77.0</ele><time>2026-04-08T11:10:49.001Z</time></trkpt><trkpt lat="51.72135517519391" lon="16.21677639255819"><ele>77.0</ele><time>2026-04-08T11:10:50.001Z</time></trkpt><trkpt lat="51.72139697107181" lon="16.216660430146227"><ele>77.0</ele><time>2026-04-08T11:10:51.001Z</time></trkpt><trkpt lat="51.72144226304058" lon="16.216542329394795"><ele>77.0</ele><time>2026-04-08T11:10:52.001Z</time></trkpt><trkpt lat="51.72149179168615" lon="16.21642228074728"><ele>77.0</ele><time>2026-04-08T11:10:53.001Z</time></trkpt><trkpt lat="51.7215440853342" lon="16.216288656133926"><ele>77.0</ele><time>2026-04-08T11:10:54.001Z</time></trkpt><trkpt lat="51.72159832464966" lon="16.216175885069408"><ele>77.0</ele><time>2026-04-08T11:10:55.001Z</time></trkpt><trkpt lat="51.72165864716897" lon="16.216046002938594"><ele>77.8</ele><time>2026-04-08T11:10:56.001Z</time></trkpt><trkpt lat="51.721723690161355" lon="16.21592259250601"><ele>78.6</ele><time>2026-04-08T11:10:57.001Z</time></trkpt><trkpt lat="51.721792468774964" lon="16.21579025367531"><ele>79.39999999999999</ele><time>2026-04-08T11:10:58.001Z</time></trkpt><trkpt lat="51.72186373013429" lon="16.215655409454232"><ele>80.2</ele><time>2026-04-08T11:10:59.001Z</time></trkpt><trkpt lat="51.72194764071918" lon="16.215531738817337"><ele>81.0</ele><time>2026-04-08T11:11:00.001Z</time></trkpt><trkpt lat="51.72201965127891" lon="16.21540858790975"><ele>81.0</ele><time>2026-04-08T11:11:01.001Z</time></trkpt><trkpt lat="51.72208709298503" lon="16.21526654067884"><ele>81.0</ele><time>2026-04-08T11:11:02.001Z</time></trkpt><trkpt lat="51.72216410995355" lon="16.215130900251534"><ele>81.0</ele><time>2026-04-08T11:11:03.001Z</time></trkpt><trkpt lat="51.72224132046404" lon="16.214997995166915"><ele>81.0</ele><time>2026-04-08T11:11:04.001Z</time></trkpt><trkpt lat="51.72231749856919" lon="16.214869714154307"><ele>81.0</ele><time>2026-04-08T11:11:05.001Z</time></trkpt><trkpt lat="51.722392427415905" lon="16.214737357948014"><ele>81.19999999999999</ele><time>2026-04-08T11:11:06.001Z</time></trkpt><trkpt lat="51.72246671783465" lon="16.214596190038616"><ele>81.39999999999999</ele><time>2026-04-08T11:11:07.001Z</time></trkpt><trkpt lat="51.722531665748505" lon="16.21447230713123"><ele>81.6</ele><time>2026-04-08T11:11:08.001Z</time></trkpt><trkpt lat="51.72259919599685" lon="16.214345909998194"><ele>81.8</ele><time>2026-04-08T11:11:09.001Z</time></trkpt><trkpt lat="51.72267317890809" lon="16.21421300512706"><ele>82.0</ele><time>2026-04-08T11:11:10.001Z</time></trkpt><trkpt lat="51.72273189391884" lon="16.214068570080627"><ele>83.0</ele><time>2026-04-08T11:11:11.001Z</time></trkpt><trkpt lat="51.722798051833415" lon="16.21392687559547"><ele>84.0</ele><time>2026-04-08T11:11:12.001Z</time></trkpt><trkpt lat="51.72286965777877" lon="16.213819670397655"><ele>85.0</ele><time>2026-04-08T11:11:13.001Z</time></trkpt><trkpt lat="51.72293582702098" lon="16.21368384900894"><ele>86.0</ele><time>2026-04-08T11:11:14.001Z</time></trkpt><trkpt lat="51.72300131338144" lon="16.21357253931984"><ele>87.0</ele><time>2026-04-08T11:11:15.001Z</time></trkpt><trkpt lat="51.72306697753132" lon="16.21344137606936"><ele>87.0</ele><time>2026-04-08T11:11:16.001Z</time></trkpt><trkpt lat="51.72313863555229" lon="16.213312187789086"><ele>87.0</ele><time>2026-04-08T11:11:17.001Z</time></trkpt><trkpt lat="51.72319196329482" lon="16.213200008813498"><ele>87.0</ele><time>2026-04-08T11:11:18.001Z</time></trkpt><trkpt lat="51.723199427086165" lon="16.213021121993997"><ele>87.0</ele><time>2026-04-08T11:11:20.001Z</time></trkpt><trkpt lat="51.7233280408511" lon="16.212872035263725"><ele>86.8</ele><time>2026-04-08T11:11:21.001Z</time></trkpt><trkpt lat="51.72338993616419" lon="16.21275341627721"><ele>86.6</ele><time>2026-04-08T11:11:22.001Z</time></trkpt><trkpt lat="51.723471337845226" lon="16.21263453811786"><ele>86.39999999999999</ele><time>2026-04-08T11:11:23.001Z</time></trkpt><trkpt lat="51.723544481214184" lon="16.212527058079715"><ele>86.19999999999999</ele><time>2026-04-08T11:11:24.001Z</time></trkpt><trkpt lat="51.72362464893412" lon="16.212408227634114"><ele>86.0</ele><time>2026-04-08T11:11:25.001Z</time></trkpt><trkpt lat="51.7236784370615" lon="16.21229399716831"><ele>85.0</ele><time>2026-04-08T11:11:26.001Z</time></trkpt><trkpt lat="51.723716910551914" lon="16.212184153162266"><ele>84.0</ele><time>2026-04-08T11:11:27.001Z</time></trkpt><trkpt lat="51.72379361203988" lon="16.212060174970294"><ele>83.0</ele><time>2026-04-08T11:11:28.001Z</time></trkpt><trkpt lat="51.723881923966054" lon="16.211926994539603"><ele>82.0</ele><time>2026-04-08T11:11:29.001Z</time></trkpt><trkpt lat="51.72396436103312" lon="16.211785239590785"><ele>81.0</ele><time>2026-04-08T11:11:30.001Z</time></trkpt><trkpt lat="51.72404026764995" lon="16.211679640380066"><ele>81.0</ele><time>2026-04-08T11:11:31.001Z</time></trkpt><trkpt lat="51.724096099953606" lon="16.211588379563654"><ele>81.0</ele><time>2026-04-08T11:11:32.001Z</time></trkpt><trkpt lat="51.72414646238549" lon="16.21150709121465"><ele>81.0</ele><time>2026-04-08T11:11:33.001Z</time></trkpt><trkpt lat="51.72419229571694" lon="16.211423837837582"><ele>81.0</ele><time>2026-04-08T11:11:34.001Z</time></trkpt><trkpt lat="51.724230600974224" lon="16.211329999811255"><ele>81.0</ele><time>2026-04-08T11:11:35.001Z</time></trkpt><trkpt lat="51.7242970988129" lon="16.211206332029867"><ele>81.0</ele><time>2026-04-08T11:11:37.001Z</time></trkpt><trkpt lat="51.72439448914766" lon="16.211231764181626"><ele>80.8</ele><time>2026-04-08T11:11:39.001Z</time></trkpt><trkpt lat="51.724504377911465" lon="16.211338452981288"><ele>80.6</ele><time>2026-04-08T11:11:41.001Z</time></trkpt><trkpt lat="51.72457940923191" lon="16.211377576563187"><ele>80.4</ele><time>2026-04-08T11:11:42.001Z</time></trkpt><trkpt lat="51.724669287477965" lon="16.211412309529248"><ele>80.2</ele><time>2026-04-08T11:11:43.001Z</time></trkpt><trkpt lat="51.724760893329396" lon="16.211451724355864"><ele>80.0</ele><time>2026-04-08T11:11:44.001Z</time></trkpt><trkpt lat="51.7248607949239" lon="16.21151169714767"><ele>79.75</ele><time>2026-04-08T11:11:45.001Z</time></trkpt><trkpt lat="51.72495436763449" lon="16.211566094299485"><ele>79.5</ele><time>2026-04-08T11:11:46.002Z</time></trkpt><trkpt lat="51.72505931577828" lon="16.211641424149764"><ele>79.25</ele><time>2026-04-08T11:11:47.002Z</time></trkpt><trkpt lat="51.72517798819893" lon="16.211700145747937"><ele>79.0</ele><time>2026-04-08T11:11:48.002Z</time></trkpt><trkpt lat="51.72529968474786" lon="16.211769235896764"><ele>79.4</ele><time>2026-04-08T11:11:49.002Z</time></trkpt><trkpt lat="51.72540944253217" lon="16.211838363408788"><ele>79.80000000000001</ele><time>2026-04-08T11:11:50.002Z</time></trkpt><trkpt lat="51.72551118796364" lon="16.211921375698044"><ele>80.19999999999999</ele><time>2026-04-08T11:11:51.002Z</time></trkpt><trkpt lat="51.725596048951175" lon="16.211980947388838"><ele>80.6</ele><time>2026-04-08T11:11:52.002Z</time></trkpt><trkpt lat="51.725675938438506" lon="16.212066458214366"><ele>81.0</ele><time>2026-04-08T11:11:53.001Z</time></trkpt><trkpt lat="51.72575617353467" lon="16.21216438839657"><ele>81.0</ele><time>2026-04-08T11:11:54.001Z</time></trkpt><trkpt lat="51.7258509053689" lon="16.21228157858523"><ele>81.0</ele><time>2026-04-08T11:11:55.001Z</time></trkpt><trkpt lat="51.72595339345438" lon="16.21239516944377"><ele>81.0</ele><time>2026-04-08T11:11:56.001Z</time></trkpt><trkpt lat="51.726041192802384" lon="16.212510198556057"><ele>81.0</ele><time>2026-04-08T11:11:57.001Z</time></trkpt><trkpt lat="51.72613136966251" lon="16.21261447704498"><ele>81.0</ele><time>2026-04-08T11:11:58.001Z</time></trkpt><trkpt lat="51.726228600756336" lon="16.2126947220142"><ele>81.0</ele><time>2026-04-08T11:11:59.001Z</time></trkpt><trkpt lat="51.72631425850272" lon="16.212797819682546"><ele>81.0</ele><time>2026-04-08T11:12:00.001Z</time></trkpt><trkpt lat="51.72640575696971" lon="16.212908442060524"><ele>81.0</ele><time>2026-04-08T11:12:01.001Z</time></trkpt><trkpt lat="51.7265057465336" lon="16.213029783090096"><ele>80.75</ele><time>2026-04-08T11:12:02.001Z</time></trkpt><trkpt lat="51.72661077181143" lon="16.213163063870482"><ele>80.5</ele><time>2026-04-08T11:12:03.001Z</time></trkpt><trkpt lat="51.72672019817306" lon="16.213301470205025"><ele>80.25</ele><time>2026-04-08T11:12:04.001Z</time></trkpt><trkpt lat="51.72684125574093" lon="16.213428412145063"><ele>80.0</ele><time>2026-04-08T11:12:05.001Z</time></trkpt><trkpt lat="51.72693969658445" lon="16.21355772926005"><ele>80.75</ele><time>2026-04-08T11:12:06.001Z</time></trkpt><trkpt lat="51.727030226628095" lon="16.213661211743638"><ele>81.5</ele><time>2026-04-08T11:12:07.001Z</time></trkpt><trkpt lat="51.72711162868843" lon="16.213768398035203"><ele>82.25</ele><time>2026-04-08T11:12:08.001Z</time></trkpt><trkpt lat="51.72721814384698" lon="16.213863266263914"><ele>83.0</ele><time>2026-04-08T11:12:09.001Z</time></trkpt><trkpt lat="51.72733017877142" lon="16.21398143324399"><ele>83.0</ele><time>2026-04-08T11:12:10.001Z</time></trkpt><trkpt lat="51.72741814123363" lon="16.214126111426374"><ele>83.0</ele><time>2026-04-08T11:12:11.001Z</time></trkpt><trkpt lat="51.72752649492353" lon="16.214246885507848"><ele>83.0</ele><time>2026-04-08T11:12:12.001Z</time></trkpt><trkpt lat="51.727636156740054" lon="16.214371272065037"><ele>83.0</ele><time>2026-04-08T11:12:13.001Z</time></trkpt><trkpt lat="51.72774341368539" lon="16.214502443256542"><ele>83.0</ele><time>2026-04-08T11:12:14.001Z</time></trkpt><trkpt lat="51.727839641126295" lon="16.2146151385113"><ele>83.0</ele><time>2026-04-08T11:12:15.001Z</time></trkpt><trkpt lat="51.727922832372165" lon="16.214719219940353"><ele>83.0</ele><time>2026-04-08T11:12:16.001Z</time></trkpt><trkpt lat="51.72799463555871" lon="16.214821449392506"><ele>83.0</ele><time>2026-04-08T11:12:17.001Z</time></trkpt><trkpt lat="51.72807608863406" lon="16.21490827712965"><ele>83.0</ele><time>2026-04-08T11:12:18.001Z</time></trkpt><trkpt lat="51.72812752319639" lon="16.21498630385032"><ele>83.0</ele><time>2026-04-08T11:12:19.001Z</time></trkpt><trkpt lat="51.728210917699464" lon="16.2150143114492"><ele>83.0</ele><time>2026-04-08T11:12:21.001Z</time></trkpt><trkpt lat="51.72827645204224" lon="16.214836785062122"><ele>83.0</ele><time>2026-04-08T11:12:23.001Z</time></trkpt><trkpt lat="51.72832392894298" lon="16.214745745988985"><ele>83.0</ele><time>2026-04-08T11:12:24.001Z</time></trkpt><trkpt lat="51.72838064948482" lon="16.214643084738967"><ele>83.0</ele><time>2026-04-08T11:12:25.001Z</time></trkpt><trkpt lat="51.72844971548678" lon="16.214534398426903"><ele>83.25</ele><time>2026-04-08T11:12:26.001Z</time></trkpt><trkpt lat="51.72851811956893" lon="16.214403463058957"><ele>83.5</ele><time>2026-04-08T11:12:27.001Z</time></trkpt><trkpt lat="51.72858832183061" lon="16.214265074385107"><ele>83.75</ele><time>2026-04-08T11:12:28.001Z</time></trkpt><trkpt lat="51.72865940298103" lon="16.214116970477377"><ele>84.0</ele><time>2026-04-08T11:12:29.001Z</time></trkpt><trkpt lat="51.72873682661408" lon="16.21396414275267"><ele>84.25</ele><time>2026-04-08T11:12:30.001Z</time></trkpt><trkpt lat="51.728814745455196" lon="16.213796427517217"><ele>84.5</ele><time>2026-04-08T11:12:31.001Z</time></trkpt><trkpt lat="51.728905463510614" lon="16.213632301902113"><ele>84.75</ele><time>2026-04-08T11:12:32.001Z</time></trkpt><trkpt lat="51.72899188692147" lon="16.21345977284106"><ele>85.0</ele><time>2026-04-08T11:12:33.001Z</time></trkpt><trkpt lat="51.72908486380776" lon="16.213297529236698"><ele>85.0</ele><time>2026-04-08T11:12:34.001Z</time></trkpt><trkpt lat="51.72917098884942" lon="16.213104802459366"><ele>85.0</ele><time>2026-04-08T11:12:35.001Z</time></trkpt><trkpt lat="51.729271067879246" lon="16.21292169156055"><ele>85.0</ele><time>2026-04-08T11:12:36.001Z</time></trkpt><trkpt lat="51.729355404271494" lon="16.21274717043761"><ele>85.0</ele><time>2026-04-08T11:12:37.001Z</time></trkpt><trkpt lat="51.72943974286305" lon="16.21255691609716"><ele>85.0</ele><time>2026-04-08T11:12:38.001Z</time></trkpt><trkpt lat="51.72953962957997" lon="16.21238107260683"><ele>85.0</ele><time>2026-04-08T11:12:39.001Z</time></trkpt><trkpt lat="51.729631418970214" lon="16.212199143961524"><ele>85.0</ele><time>2026-04-08T11:12:40.001Z</time></trkpt><trkpt lat="51.72973543975506" lon="16.212028635084376"><ele>85.0</ele><time>2026-04-08T11:12:41.001Z</time></trkpt><trkpt lat="51.72982901441511" lon="16.21183387363912"><ele>85.0</ele><time>2026-04-08T11:12:42.001Z</time></trkpt><trkpt lat="51.72993479489329" lon="16.211653113554956"><ele>85.0</ele><time>2026-04-08T11:12:43.001Z</time></trkpt><trkpt lat="51.73003664259524" lon="16.211462195205176"><ele>85.0</ele><time>2026-04-08T11:12:44.001Z</time></trkpt><trkpt lat="51.730140718006396" lon="16.211278783707673"><ele>85.33333333333333</ele><time>2026-04-08T11:12:45.001Z</time></trkpt><trkpt lat="51.73024096019216" lon="16.211087786104297"><ele>85.66666666666667</ele><time>2026-04-08T11:12:46.001Z</time></trkpt><trkpt lat="51.73033588483172" lon="16.21090543006199"><ele>86.0</ele><time>2026-04-08T11:12:47.001Z</time></trkpt><trkpt lat="51.73044010310998" lon="16.210735654923155"><ele>85.66666666666667</ele><time>2026-04-08T11:12:48.001Z</time></trkpt><trkpt lat="51.7305490052341" lon="16.2105776083396"><ele>85.33333333333333</ele><time>2026-04-08T11:12:49.001Z</time></trkpt><trkpt lat="51.730640656814" lon="16.210408919469465"><ele>85.0</ele><time>2026-04-08T11:12:50.001Z</time></trkpt><trkpt lat="51.73071863969124" lon="16.21016038545026"><ele>85.0</ele><time>2026-04-08T11:12:51.001Z</time></trkpt><trkpt lat="51.73080150534113" lon="16.20996650007232"><ele>85.0</ele><time>2026-04-08T11:12:52.001Z</time></trkpt><trkpt lat="51.73087031720667" lon="16.209914529865536"><ele>85.0</ele><time>2026-04-08T11:12:53.001Z</time></trkpt><trkpt lat="51.73093875163557" lon="16.20985296799318"><ele>85.0</ele><time>2026-04-08T11:12:54.001Z</time></trkpt><trkpt lat="51.73103295424896" lon="16.20967529058617"><ele>85.0</ele><time>2026-04-08T11:12:55.001Z</time></trkpt><trkpt lat="51.73113494631268" lon="16.20943346443816"><ele>85.25</ele><time>2026-04-08T11:12:56.001Z</time></trkpt><trkpt lat="51.731230230688645" lon="16.209262090389842"><ele>85.5</ele><time>2026-04-08T11:12:57.001Z</time></trkpt><trkpt lat="51.73132277895043" lon="16.209082945157185"><ele>85.75</ele><time>2026-04-08T11:12:58.001Z</time></trkpt><trkpt lat="51.73141909911548" lon="16.208907244059148"><ele>86.0</ele><time>2026-04-08T11:12:59.001Z</time></trkpt><trkpt lat="51.73151015640412" lon="16.20871980181868"><ele>86.33333333333334</ele><time>2026-04-08T11:13:00.001Z</time></trkpt><trkpt lat="51.731615621848825" lon="16.208539771319824"><ele>86.66666666666667</ele><time>2026-04-08T11:13:01.001Z</time></trkpt><trkpt lat="51.73171973289723" lon="16.20836441919405"><ele>87.0</ele><time>2026-04-08T11:13:02.001Z</time></trkpt><trkpt lat="51.73181938149274" lon="16.208163970569558"><ele>87.0</ele><time>2026-04-08T11:13:03.001Z</time></trkpt><trkpt lat="51.73191804242167" lon="16.207968633181917"><ele>87.0</ele><time>2026-04-08T11:13:04.001Z</time></trkpt><trkpt lat="51.73202415788518" lon="16.2077740660128"><ele>87.0</ele><time>2026-04-08T11:13:05.001Z</time></trkpt><trkpt lat="51.73212911363023" lon="16.207577824515393"><ele>87.0</ele><time>2026-04-08T11:13:06.001Z</time></trkpt><trkpt lat="51.73223852016931" lon="16.207386915957642"><ele>87.0</ele><time>2026-04-08T11:13:07.001Z</time></trkpt><trkpt lat="51.73234884748094" lon="16.207181381024306"><ele>87.0</ele><time>2026-04-08T11:13:08.001Z</time></trkpt><trkpt lat="51.73245995588434" lon="16.206988489512508"><ele>87.0</ele><time>2026-04-08T11:13:09.001Z</time></trkpt><trkpt lat="51.732557182453796" lon="16.206761307033904"><ele>87.0</ele><time>2026-04-08T11:13:10.001Z</time></trkpt><trkpt lat="51.732658884391675" lon="16.206582366213375"><ele>87.0</ele><time>2026-04-08T11:13:11.001Z</time></trkpt><trkpt lat="51.7327598405753" lon="16.20640759823847"><ele>87.75</ele><time>2026-04-08T11:13:12.001Z</time></trkpt><trkpt lat="51.732849224303926" lon="16.20624119422253"><ele>88.5</ele><time>2026-04-08T11:13:13.001Z</time></trkpt><trkpt lat="51.73293061109004" lon="16.206091248962913"><ele>89.25</ele><time>2026-04-08T11:13:14.001Z</time></trkpt><trkpt lat="51.73301091024989" lon="16.205937076854987"><ele>90.0</ele><time>2026-04-08T11:13:15.001Z</time></trkpt><trkpt lat="51.73309801500162" lon="16.205782853713266"><ele>90.25</ele><time>2026-04-08T11:13:16.001Z</time></trkpt><trkpt lat="51.7331836403009" lon="16.205606239589642"><ele>90.5</ele><time>2026-04-08T11:13:17.001Z</time></trkpt><trkpt lat="51.73327145123691" lon="16.20544052926493"><ele>90.75</ele><time>2026-04-08T11:13:18.001Z</time></trkpt><trkpt lat="51.7333642381916" lon="16.205268037946418"><ele>91.0</ele><time>2026-04-08T11:13:19.001Z</time></trkpt><trkpt lat="51.73345944414326" lon="16.20508200484138"><ele>91.0</ele><time>2026-04-08T11:13:20.001Z</time></trkpt><trkpt lat="51.73356165289088" lon="16.20489893617228"><ele>91.0</ele><time>2026-04-08T11:13:21.001Z</time></trkpt><trkpt lat="51.733660309881" lon="16.20471860794739"><ele>91.0</ele><time>2026-04-08T11:13:22.001Z</time></trkpt><trkpt lat="51.73375405444437" lon="16.204528117973346"><ele>91.0</ele><time>2026-04-08T11:13:23.001Z</time></trkpt><trkpt lat="51.73385410476217" lon="16.204337701885944"><ele>91.0</ele><time>2026-04-08T11:13:24.001Z</time></trkpt><trkpt lat="51.73394795380292" lon="16.204162713187337"><ele>91.0</ele><time>2026-04-08T11:13:25.001Z</time></trkpt><trkpt lat="51.73403462435828" lon="16.204009922520505"><ele>91.0</ele><time>2026-04-08T11:13:26.001Z</time></trkpt><trkpt lat="51.734102459139145" lon="16.20386819117595"><ele>91.0</ele><time>2026-04-08T11:13:27.001Z</time></trkpt><trkpt lat="51.734159656218246" lon="16.203738717295522"><ele>91.0</ele><time>2026-04-08T11:13:28.001Z</time></trkpt><trkpt lat="51.734213112837075" lon="16.203635153095185"><ele>91.0</ele><time>2026-04-08T11:13:29.001Z</time></trkpt><trkpt lat="51.73426121178096" lon="16.203549570791175"><ele>91.0</ele><time>2026-04-08T11:13:30.001Z</time></trkpt><trkpt lat="51.73430837209749" lon="16.20346685840969"><ele>91.0</ele><time>2026-04-08T11:13:31.001Z</time></trkpt><trkpt lat="51.734351693914974" lon="16.203375283946684"><ele>91.0</ele><time>2026-04-08T11:13:32.001Z</time></trkpt><trkpt lat="51.734453062322544" lon="16.203330613831366"><ele>91.0</ele><time>2026-04-08T11:13:34.001Z</time></trkpt><trkpt lat="51.734513818469985" lon="16.203370381452878"><ele>91.0</ele><time>2026-04-08T11:13:35.001Z</time></trkpt><trkpt lat="51.73456499201704" lon="16.20345154520502"><ele>91.0</ele><time>2026-04-08T11:13:36.001Z</time></trkpt><trkpt lat="51.73460351757964" lon="16.203538721282154"><ele>91.0</ele><time>2026-04-08T11:13:37.001Z</time></trkpt><trkpt lat="51.73465898336537" lon="16.203637336355293"><ele>91.0</ele><time>2026-04-08T11:13:38.002Z</time></trkpt><trkpt lat="51.73472420829302" lon="16.203737325940764"><ele>91.0</ele><time>2026-04-08T11:13:39.002Z</time></trkpt><trkpt lat="51.734794501254235" lon="16.203855481276303"><ele>91.0</ele><time>2026-04-08T11:13:40.002Z</time></trkpt><trkpt lat="51.73488102908425" lon="16.203985993294587"><ele>91.0</ele><time>2026-04-08T11:13:41.002Z</time></trkpt><trkpt lat="51.734957917790446" lon="16.204095698651305"><ele>91.0</ele><time>2026-04-08T11:13:42.002Z</time></trkpt><trkpt lat="51.73502223269706" lon="16.204178577588113"><ele>91.0</ele><time>2026-04-08T11:13:43.002Z</time></trkpt><trkpt lat="51.735083195868306" lon="16.204270338267182"><ele>91.0</ele><time>2026-04-08T11:13:44.002Z</time></trkpt><trkpt lat="51.73514811367297" lon="16.204373207734452"><ele>91.0</ele><time>2026-04-08T11:13:45.002Z</time></trkpt><trkpt lat="51.735213903953486" lon="16.20446024417998"><ele>91.0</ele><time>2026-04-08T11:13:46.002Z</time></trkpt><trkpt lat="51.73527051433687" lon="16.204539496441647"><ele>91.0</ele><time>2026-04-08T11:13:47.002Z</time></trkpt><trkpt lat="51.7353740650658" lon="16.20466905526486"><ele>91.0</ele><time>2026-04-08T11:13:49.002Z</time></trkpt><trkpt lat="51.73543497490094" lon="16.204732300404288"><ele>91.0</ele><time>2026-04-08T11:13:50.002Z</time></trkpt><trkpt lat="51.73549875477829" lon="16.204830996880055"><ele>91.19999999999999</ele><time>2026-04-08T11:13:51.002Z</time></trkpt><trkpt lat="51.73556590993989" lon="16.204931412194934"><ele>91.39999999999999</ele><time>2026-04-08T11:13:52.002Z</time></trkpt><trkpt lat="51.73563327068378" lon="16.20503461314678"><ele>91.6</ele><time>2026-04-08T11:13:53.002Z</time></trkpt><trkpt lat="51.735700663833015" lon="16.20512974305598"><ele>91.8</ele><time>2026-04-08T11:13:54.002Z</time></trkpt><trkpt lat="51.7357742702483" lon="16.205225995942566"><ele>92.0</ele><time>2026-04-08T11:13:55.002Z</time></trkpt><trkpt lat="51.73584732218911" lon="16.20532466806681"><ele>92.0</ele><time>2026-04-08T11:13:56.002Z</time></trkpt><trkpt lat="51.73592785276966" lon="16.205427238669635"><ele>92.0</ele><time>2026-04-08T11:13:57.002Z</time></trkpt><trkpt lat="51.73600857447252" lon="16.205546866135332"><ele>92.0</ele><time>2026-04-08T11:13:58.002Z</time></trkpt><trkpt lat="51.736093003326175" lon="16.205658898886572"><ele>92.0</ele><time>2026-04-08T11:13:59.001Z</time></trkpt><trkpt lat="51.736171679915536" lon="16.205784207725255"><ele>92.0</ele><time>2026-04-08T11:14:00.001Z</time></trkpt><trkpt lat="51.736252046139036" lon="16.20589038444464"><ele>92.5</ele><time>2026-04-08T11:14:01.001Z</time></trkpt><trkpt lat="51.73634566352197" lon="16.2060077833229"><ele>93.0</ele><time>2026-04-08T11:14:02.001Z</time></trkpt><trkpt lat="51.73644324351312" lon="16.206132364113465"><ele>93.5</ele><time>2026-04-08T11:14:03.001Z</time></trkpt><trkpt lat="51.73653812256691" lon="16.206274931010896"><ele>94.0</ele><time>2026-04-08T11:14:04.001Z</time></trkpt><trkpt lat="51.736630794000924" lon="16.206410947832808"><ele>93.75</ele><time>2026-04-08T11:14:05.001Z</time></trkpt><trkpt lat="51.736733041952775" lon="16.206558972313932"><ele>93.5</ele><time>2026-04-08T11:14:06.001Z</time></trkpt><trkpt lat="51.736845145510465" lon="16.20670867302533"><ele>93.25</ele><time>2026-04-08T11:14:07.001Z</time></trkpt><trkpt lat="51.736966338171655" lon="16.206854968812035"><ele>93.0</ele><time>2026-04-08T11:14:08.001Z</time></trkpt><trkpt lat="51.73708581101067" lon="16.207008019543824"><ele>93.0</ele><time>2026-04-08T11:14:09.001Z</time></trkpt><trkpt lat="51.73718156688453" lon="16.20715511670518"><ele>93.0</ele><time>2026-04-08T11:14:10.001Z</time></trkpt><trkpt lat="51.73727150904519" lon="16.207280788296693"><ele>93.0</ele><time>2026-04-08T11:14:11.001Z</time></trkpt><trkpt lat="51.7373708539687" lon="16.20740851019341"><ele>93.0</ele><time>2026-04-08T11:14:12.001Z</time></trkpt><trkpt lat="51.73748036424986" lon="16.207540842489607"><ele>93.0</ele><time>2026-04-08T11:14:13.001Z</time></trkpt><trkpt lat="51.73758878250547" lon="16.20770054782781"><ele>93.0</ele><time>2026-04-08T11:14:14.001Z</time></trkpt><trkpt lat="51.73770391607286" lon="16.2078496496459"><ele>93.0</ele><time>2026-04-08T11:14:15.001Z</time></trkpt><trkpt lat="51.73781587254145" lon="16.20800771740049"><ele>93.0</ele><time>2026-04-08T11:14:16.001Z</time></trkpt><trkpt lat="51.737910758041416" lon="16.208155457710117"><ele>92.75</ele><time>2026-04-08T11:14:17.001Z</time></trkpt><trkpt lat="51.7380148242655" lon="16.208278821616048"><ele>92.5</ele><time>2026-04-08T11:14:18.001Z</time></trkpt><trkpt lat="51.73812227748158" lon="16.208433508863983"><ele>92.25</ele><time>2026-04-08T11:14:19.001Z</time></trkpt><trkpt lat="51.73822067293709" lon="16.20859326155141"><ele>92.0</ele><time>2026-04-08T11:14:20.001Z</time></trkpt><trkpt lat="51.73832264736418" lon="16.208739905493946"><ele>92.0</ele><time>2026-04-08T11:14:21.001Z</time></trkpt><trkpt lat="51.738430848908486" lon="16.208885164184633"><ele>92.0</ele><time>2026-04-08T11:14:22.001Z</time></trkpt><trkpt lat="51.738540530100416" lon="16.209037865896455"><ele>92.0</ele><time>2026-04-08T11:14:23.001Z</time></trkpt><trkpt lat="51.73864129183603" lon="16.20918147070819"><ele>92.0</ele><time>2026-04-08T11:14:24.001Z</time></trkpt><trkpt lat="51.73875182536486" lon="16.209314925685664"><ele>92.75</ele><time>2026-04-08T11:14:25.001Z</time></trkpt><trkpt lat="51.73886954555645" lon="16.209460554036863"><ele>93.5</ele><time>2026-04-08T11:14:26.001Z</time></trkpt><trkpt lat="51.73896631191821" lon="16.209607301946857"><ele>94.25</ele><time>2026-04-08T11:14:27.001Z</time></trkpt><trkpt lat="51.739073278204344" lon="16.209726111229333"><ele>95.0</ele><time>2026-04-08T11:14:28.001Z</time></trkpt><trkpt lat="51.73914642590808" lon="16.20985755984246"><ele>95.2</ele><time>2026-04-08T11:14:29.001Z</time></trkpt><trkpt lat="51.73923123000857" lon="16.209982231214077"><ele>95.4</ele><time>2026-04-08T11:14:30.001Z</time></trkpt><trkpt lat="51.7393278410583" lon="16.210090488521697"><ele>95.6</ele><time>2026-04-08T11:14:31.001Z</time></trkpt><trkpt lat="51.73940443676936" lon="16.210189343576573"><ele>95.8</ele><time>2026-04-08T11:14:32.001Z</time></trkpt><trkpt lat="51.73945163717136" lon="16.210308463593215"><ele>96.0</ele><time>2026-04-08T11:14:33.001Z</time></trkpt><trkpt lat="51.739519199385704" lon="16.210416627082466"><ele>96.25</ele><time>2026-04-08T11:14:34.001Z</time></trkpt><trkpt lat="51.7396024218759" lon="16.210524753912242"><ele>96.5</ele><time>2026-04-08T11:14:35.001Z</time></trkpt><trkpt lat="51.73969477885281" lon="16.210654119093597"><ele>96.75</ele><time>2026-04-08T11:14:36.001Z</time></trkpt><trkpt lat="51.739785382998704" lon="16.210778041520893"><ele>97.0</ele><time>2026-04-08T11:14:37.001Z</time></trkpt><trkpt lat="51.739863296584524" lon="16.21090075297054"><ele>97.0</ele><time>2026-04-08T11:14:38.001Z</time></trkpt><trkpt lat="51.73995529119715" lon="16.211027083347446"><ele>97.0</ele><time>2026-04-08T11:14:39.001Z</time></trkpt><trkpt lat="51.740054235932234" lon="16.21115699227629"><ele>97.0</ele><time>2026-04-08T11:14:40.001Z</time></trkpt><trkpt lat="51.74015380092175" lon="16.21128603320271"><ele>97.0</ele><time>2026-04-08T11:14:41.001Z</time></trkpt><trkpt lat="51.7402459115588" lon="16.211421223210472"><ele>97.0</ele><time>2026-04-08T11:14:42.001Z</time></trkpt><trkpt lat="51.74032942195584" lon="16.211545196169812"><ele>97.0</ele><time>2026-04-08T11:14:43.001Z</time></trkpt><trkpt lat="51.74041563419403" lon="16.2116816748458"><ele>97.0</ele><time>2026-04-08T11:14:44.001Z</time></trkpt><trkpt lat="51.740503973220385" lon="16.21180475135165"><ele>97.0</ele><time>2026-04-08T11:14:45.001Z</time></trkpt><trkpt lat="51.740595619118984" lon="16.211925962733822"><ele>97.0</ele><time>2026-04-08T11:14:46.001Z</time></trkpt><trkpt lat="51.740694796124714" lon="16.212044908503806"><ele>97.0</ele><time>2026-04-08T11:14:47.001Z</time></trkpt><trkpt lat="51.74078019582787" lon="16.2121597641219"><ele>97.0</ele><time>2026-04-08T11:14:48.001Z</time></trkpt><trkpt lat="51.74087324332195" lon="16.212279154589602"><ele>97.0</ele><time>2026-04-08T11:14:49.001Z</time></trkpt><trkpt lat="51.740956539619" lon="16.212407746159307"><ele>97.0</ele><time>2026-04-08T11:14:50.001Z</time></trkpt><trkpt lat="51.74104232555409" lon="16.21254184448413"><ele>97.0</ele><time>2026-04-08T11:14:51.001Z</time></trkpt><trkpt lat="51.74113657722585" lon="16.212659770086812"><ele>97.0</ele><time>2026-04-08T11:14:52.001Z</time></trkpt><trkpt lat="51.74121699667828" lon="16.212793043407597"><ele>97.0</ele><time>2026-04-08T11:14:53.001Z</time></trkpt><trkpt lat="51.74130072760723" lon="16.212924315474908"><ele>97.25</ele><time>2026-04-08T11:14:54.001Z</time></trkpt><trkpt lat="51.74137644301052" lon="16.213053072647227"><ele>97.5</ele><time>2026-04-08T11:14:55.001Z</time></trkpt><trkpt lat="51.74146231962867" lon="16.213163146839438"><ele>97.75</ele><time>2026-04-08T11:14:56.001Z</time></trkpt><trkpt lat="51.74154764924401" lon="16.21329120229819"><ele>98.0</ele><time>2026-04-08T11:14:57.001Z</time></trkpt><trkpt lat="51.74162912805291" lon="16.213426404556134"><ele>98.0</ele><time>2026-04-08T11:14:58.001Z</time></trkpt><trkpt lat="51.74171729250371" lon="16.21355224960252"><ele>98.0</ele><time>2026-04-08T11:14:59.001Z</time></trkpt><trkpt lat="51.741804426356126" lon="16.21369510326155"><ele>98.0</ele><time>2026-04-08T11:15:00.001Z</time></trkpt><trkpt lat="51.74189092425567" lon="16.213811958465094"><ele>98.0</ele><time>2026-04-08T11:15:01.001Z</time></trkpt><trkpt lat="51.741970531871964" lon="16.213909539828133"><ele>97.99999999999999</ele><time>2026-04-08T11:15:02.001Z</time></trkpt><trkpt lat="51.74204045347595" lon="16.21398281885431"><ele>98.0</ele><time>2026-04-08T11:15:03.001Z</time></trkpt><trkpt lat="51.74211300756046" lon="16.21406111805569"><ele>98.0</ele><time>2026-04-08T11:15:04.001Z</time></trkpt><trkpt lat="51.74218771659301" lon="16.21413188080632"><ele>98.0</ele><time>2026-04-08T11:15:05.001Z</time></trkpt><trkpt lat="51.74226697927423" lon="16.21417903545479"><ele>97.99999999999999</ele><time>2026-04-08T11:15:06.001Z</time></trkpt><trkpt lat="51.742352047847454" lon="16.214225136548887"><ele>98.0</ele><time>2026-04-08T11:15:07.001Z</time></trkpt><trkpt lat="51.74242886530131" lon="16.21426269427013"><ele>99.0</ele><time>2026-04-08T11:15:08.001Z</time></trkpt><trkpt lat="51.74252129812207" lon="16.21433807433102"><ele>99.0</ele><time>2026-04-08T11:15:10.001Z</time></trkpt></trkseg><trkseg><trkpt lat="51.74262870799387" lon="16.21438321141357"><ele>99.0</ele><time>2026-04-08T11:28:31Z</time></trkpt><trkpt lat="51.74270356388089" lon="16.214254526095498"><ele>99.0</ele><time>2026-04-08T11:28:33Z</time></trkpt><trkpt lat="51.74274074831433" lon="16.214159712903555"><ele>99.0</ele><time>2026-04-08T11:28:34Z</time></trkpt><trkpt lat="51.74278995304132" lon="16.214062339716143"><ele>99.0</ele><time>2026-04-08T11:28:35Z</time></trkpt><trkpt lat="51.742852572917265" lon="16.213935463475906"><ele>99.0</ele><time>2026-04-08T11:28:36Z</time></trkpt><trkpt lat="51.742916533413556" lon="16.21380871568105"><ele>99.0</ele><time>2026-04-08T11:28:37Z</time></trkpt><trkpt lat="51.74298326445879" lon="16.213682798205337"><ele>99.0</ele><time>2026-04-08T11:28:38Z</time></trkpt><trkpt lat="51.74304662888046" lon="16.213556556968832"><ele>99.0</ele><time>2026-04-08T11:28:39Z</time></trkpt><trkpt lat="51.74311205056713" lon="16.213416858225038"><ele>99.0</ele><time>2026-04-08T11:28:40Z</time></trkpt><trkpt lat="51.743190576982876" lon="16.213276862417366"><ele>99.0</ele><time>2026-04-08T11:28:41Z</time></trkpt><trkpt lat="51.74326999708952" lon="16.213137111444407"><ele>98.75</ele><time>2026-04-08T11:28:42Z</time></trkpt><trkpt lat="51.74334845147645" lon="16.213005378403757"><ele>98.5</ele><time>2026-04-08T11:28:43Z</time></trkpt><trkpt lat="51.74342501422602" lon="16.21286578748694"><ele>98.25</ele><time>2026-04-08T11:28:44Z</time></trkpt><trkpt lat="51.743502364061825" lon="16.212719469692203"><ele>98.0</ele><time>2026-04-08T11:28:45Z</time></trkpt><trkpt lat="51.743581420347546" lon="16.2125741811045"><ele>98.0</ele><time>2026-04-08T11:28:46Z</time></trkpt><trkpt lat="51.74366231121688" lon="16.212428102632977"><ele>98.0</ele><time>2026-04-08T11:28:47.001Z</time></trkpt><trkpt lat="51.743741802744374" lon="16.212279738132803"><ele>98.0</ele><time>2026-04-08T11:28:48.001Z</time></trkpt><trkpt lat="51.743818160299675" lon="16.21212529750826"><ele>98.0</ele><time>2026-04-08T11:28:49.001Z</time></trkpt><trkpt lat="51.74388792011405" lon="16.211986912557983"><ele>97.80000000000001</ele><time>2026-04-08T11:28:50.001Z</time></trkpt><trkpt lat="51.74395947338673" lon="16.21184238935505"><ele>97.6</ele><time>2026-04-08T11:28:51.001Z</time></trkpt><trkpt lat="51.744032496316045" lon="16.211722628611746"><ele>97.4</ele><time>2026-04-08T11:28:52.001Z</time></trkpt><trkpt lat="51.74410163310012" lon="16.21158951363553"><ele>97.19999999999999</ele><time>2026-04-08T11:28:53.001Z</time></trkpt><trkpt lat="51.74416383415496" lon="16.21144767534307"><ele>97.0</ele><time>2026-04-08T11:28:54.001Z</time></trkpt><trkpt lat="51.744238155434445" lon="16.211318301719803"><ele>97.0</ele><time>2026-04-08T11:28:55.001Z</time></trkpt><trkpt lat="51.74431455718558" lon="16.211178958752527"><ele>97.0</ele><time>2026-04-08T11:28:56.001Z</time></trkpt><trkpt lat="51.744392017781486" lon="16.21103250939621"><ele>97.0</ele><time>2026-04-08T11:28:57.001Z</time></trkpt><trkpt lat="51.74446696598851" lon="16.21087479542472"><ele>97.0</ele><time>2026-04-08T11:28:58.001Z</time></trkpt><trkpt lat="51.74455214559815" lon="16.210726082000342"><ele>97.25</ele><time>2026-04-08T11:28:59.001Z</time></trkpt><trkpt lat="51.744641257116086" lon="16.210569510046792"><ele>97.5</ele><time>2026-04-08T11:29:00.001Z</time></trkpt><trkpt lat="51.74472399256753" lon="16.210407164564355"><ele>97.75</ele><time>2026-04-08T11:29:01.001Z</time></trkpt><trkpt lat="51.744805497639994" lon="16.210239557240733"><ele>98.0</ele><time>2026-04-08T11:29:02.001Z</time></trkpt><trkpt lat="51.74489008917075" lon="16.210082335523293"><ele>98.0</ele><time>2026-04-08T11:29:03.001Z</time></trkpt><trkpt lat="51.74496621223762" lon="16.20991719229894"><ele>98.0</ele><time>2026-04-08T11:29:04.001Z</time></trkpt><trkpt lat="51.745049903842904" lon="16.209772771996995"><ele>98.0</ele><time>2026-04-08T11:29:05.001Z</time></trkpt><trkpt lat="51.745132943086" lon="16.209617010061862"><ele>98.0</ele><time>2026-04-08T11:29:06.001Z</time></trkpt><trkpt lat="51.745219547483664" lon="16.209471995078328"><ele>98.0</ele><time>2026-04-08T11:29:07.001Z</time></trkpt><trkpt lat="51.745299908092214" lon="16.209328304592294"><ele>98.0</ele><time>2026-04-08T11:29:08.001Z</time></trkpt><trkpt lat="51.745378077887814" lon="16.209182637833074"><ele>98.0</ele><time>2026-04-08T11:29:09.001Z</time></trkpt><trkpt lat="51.74544005283605" lon="16.209049945835165"><ele>98.0</ele><time>2026-04-08T11:29:10.001Z</time></trkpt><trkpt lat="51.74550980699116" lon="16.20893269109771"><ele>98.0</ele><time>2026-04-08T11:29:11.001Z</time></trkpt><trkpt lat="51.74558937602243" lon="16.208825730792995"><ele>98.0</ele><time>2026-04-08T11:29:12.001Z</time></trkpt><trkpt lat="51.74566931549527" lon="16.208703765331443"><ele>98.0</ele><time>2026-04-08T11:29:13.001Z</time></trkpt><trkpt lat="51.745737543540756" lon="16.20855468599736"><ele>98.0</ele><time>2026-04-08T11:29:14.001Z</time></trkpt><trkpt lat="51.74580754850226" lon="16.20842024928166"><ele>98.0</ele><time>2026-04-08T11:29:15.001Z</time></trkpt><trkpt lat="51.74587676759345" lon="16.20829194850245"><ele>98.0</ele><time>2026-04-08T11:29:16.001Z</time></trkpt><trkpt lat="51.745956076170415" lon="16.20816276408639"><ele>98.25</ele><time>2026-04-08T11:29:16.999Z</time></trkpt><trkpt lat="51.74603481715023" lon="16.208023125579686"><ele>98.5</ele><time>2026-04-08T11:29:17.999Z</time></trkpt><trkpt lat="51.74611016767133" lon="16.207872664490885"><ele>98.75</ele><time>2026-04-08T11:29:18.999Z</time></trkpt><trkpt lat="51.746199783618415" lon="16.207709153452317"><ele>99.0</ele><time>2026-04-08T11:29:19.999Z</time></trkpt><trkpt lat="51.746293055960024" lon="16.207535286047772"><ele>99.0</ele><time>2026-04-08T11:29:20.999Z</time></trkpt><trkpt lat="51.74638377026593" lon="16.20736808057415"><ele>99.0</ele><time>2026-04-08T11:29:21.999Z</time></trkpt><trkpt lat="51.74646761254315" lon="16.207213954147086"><ele>99.0</ele><time>2026-04-08T11:29:22.999Z</time></trkpt><trkpt lat="51.746551584953245" lon="16.207078198014827"><ele>99.0</ele><time>2026-04-08T11:29:23.999Z</time></trkpt><trkpt lat="51.746621597212496" lon="16.2069408003226"><ele>99.0</ele><time>2026-04-08T11:29:24.999Z</time></trkpt><trkpt lat="51.746685958373654" lon="16.20681178353931"><ele>99.0</ele><time>2026-04-08T11:29:25.999Z</time></trkpt><trkpt lat="51.746742032583306" lon="16.206704584669616"><ele>99.0</ele><time>2026-04-08T11:29:26.999Z</time></trkpt><trkpt lat="51.746793432446516" lon="16.20660580010042"><ele>99.0</ele><time>2026-04-08T11:29:27.999Z</time></trkpt><trkpt lat="51.74683906848425" lon="16.206505585651378"><ele>99.0</ele><time>2026-04-08T11:29:28.999Z</time></trkpt><trkpt lat="51.746907409960244" lon="16.206382097705983"><ele>99.0</ele><time>2026-04-08T11:29:30.999Z</time></trkpt><trkpt lat="51.74695490169242" lon="16.206280621472295"><ele>99.0</ele><time>2026-04-08T11:29:35.999Z</time></trkpt><trkpt lat="51.74699464908666" lon="16.206200439621973"><ele>99.0</ele><time>2026-04-08T11:29:36.999Z</time></trkpt><trkpt lat="51.74703995306819" lon="16.20610295495817"><ele>99.0</ele><time>2026-04-08T11:29:37.999Z</time></trkpt><trkpt lat="51.747096516340584" lon="16.20598763629708"><ele>99.0</ele><time>2026-04-08T11:29:38.999Z</time></trkpt><trkpt lat="51.747164532765915" lon="16.205856482153763"><ele>99.0</ele><time>2026-04-08T11:29:39.999Z</time></trkpt><trkpt lat="51.747240963489475" lon="16.20573038209602"><ele>99.0</ele><time>2026-04-08T11:29:40.999Z</time></trkpt><trkpt lat="51.74731072070439" lon="16.205575747151077"><ele>99.0</ele><time>2026-04-08T11:29:41.999Z</time></trkpt><trkpt lat="51.747395938110365" lon="16.205423790841813"><ele>99.0</ele><time>2026-04-08T11:29:42.999Z</time></trkpt><trkpt lat="51.747472753387676" lon="16.205262152693553"><ele>99.0</ele><time>2026-04-08T11:29:43.999Z</time></trkpt><trkpt lat="51.74756310933451" lon="16.20510846317019"><ele>99.0</ele><time>2026-04-08T11:29:44.999Z</time></trkpt><trkpt lat="51.74764859988714" lon="16.204943916689913"><ele>99.25</ele><time>2026-04-08T11:29:45.999Z</time></trkpt><trkpt lat="51.74773626647691" lon="16.204791124072248"><ele>99.5</ele><time>2026-04-08T11:29:47Z</time></trkpt><trkpt lat="51.747817133837" lon="16.204664379893806"><ele>99.75</ele><time>2026-04-08T11:29:48Z</time></trkpt><trkpt lat="51.7478815872979" lon="16.204530725916364"><ele>100.0</ele><time>2026-04-08T11:29:49Z</time></trkpt><trkpt lat="51.74794100407002" lon="16.204392614793516"><ele>100.0</ele><time>2026-04-08T11:29:50Z</time></trkpt><trkpt lat="51.74800636551493" lon="16.20426936427545"><ele>100.0</ele><time>2026-04-08T11:29:51Z</time></trkpt><trkpt lat="51.748070226170924" lon="16.204148906531906"><ele>100.0</ele><time>2026-04-08T11:29:52Z</time></trkpt><trkpt lat="51.74813545007378" lon="16.20402634983865"><ele>100.0</ele><time>2026-04-08T11:29:53Z</time></trkpt><trkpt lat="51.74820577549996" lon="16.203908099963474"><ele>100.0</ele><time>2026-04-08T11:29:54Z</time></trkpt><trkpt lat="51.748268919565895" lon="16.203798208667095"><ele>100.0</ele><time>2026-04-08T11:29:55Z</time></trkpt><trkpt lat="51.74833688975628" lon="16.203672518088013"><ele>100.0</ele><time>2026-04-08T11:29:56Z</time></trkpt><trkpt lat="51.748407903210826" lon="16.20354175013049"><ele>100.0</ele><time>2026-04-08T11:29:57Z</time></trkpt><trkpt lat="51.74847640412488" lon="16.203396288155066"><ele>100.0</ele><time>2026-04-08T11:29:58Z</time></trkpt><trkpt lat="51.74855150129811" lon="16.203256156585244"><ele>100.0</ele><time>2026-04-08T11:29:59Z</time></trkpt><trkpt lat="51.748628437229144" lon="16.203110254262487"><ele>100.0</ele><time>2026-04-08T11:30:00Z</time></trkpt><trkpt lat="51.74870533860205" lon="16.202957653515387"><ele>100.0</ele><time>2026-04-08T11:30:01Z</time></trkpt><trkpt lat="51.748785011767744" lon="16.20281890275405"><ele>100.0</ele><time>2026-04-08T11:30:02Z</time></trkpt><trkpt lat="51.748872772764926" lon="16.20268165232757"><ele>100.0</ele><time>2026-04-08T11:30:03Z</time></trkpt><trkpt lat="51.748946265583264" lon="16.202536524723662"><ele>100.0</ele><time>2026-04-08T11:30:04Z</time></trkpt><trkpt lat="51.74901301353167" lon="16.2023669445239"><ele>100.0</ele><time>2026-04-08T11:30:05Z</time></trkpt><trkpt lat="51.74908961160276" lon="16.202216138851664"><ele>100.0</ele><time>2026-04-08T11:30:06Z</time></trkpt><trkpt lat="51.749164908982" lon="16.202058802492456"><ele>100.0</ele><time>2026-04-08T11:30:07Z</time></trkpt><trkpt lat="51.749241848879876" lon="16.20190353745277"><ele>99.75</ele><time>2026-04-08T11:30:08Z</time></trkpt><trkpt lat="51.74931514295539" lon="16.20176725783583"><ele>99.5</ele><time>2026-04-08T11:30:09Z</time></trkpt><trkpt lat="51.74939989967711" lon="16.20165209912422"><ele>99.25</ele><time>2026-04-08T11:30:10Z</time></trkpt><trkpt lat="51.749492270691114" lon="16.20151676284049"><ele>99.0</ele><time>2026-04-08T11:30:11Z</time></trkpt><trkpt lat="51.74957199276895" lon="16.20136896853005"><ele>99.5</ele><time>2026-04-08T11:30:12Z</time></trkpt><trkpt lat="51.74964705375664" lon="16.201208008689918"><ele>100.0</ele><time>2026-04-08T11:30:13Z</time></trkpt><trkpt lat="51.749711616421365" lon="16.201066668825707"><ele>100.5</ele><time>2026-04-08T11:30:14Z</time></trkpt><trkpt lat="51.749784730817034" lon="16.200920417411613"><ele>101.0</ele><time>2026-04-08T11:30:15Z</time></trkpt><trkpt lat="51.74986157461872" lon="16.200774564070556"><ele>100.75</ele><time>2026-04-08T11:30:16Z</time></trkpt><trkpt lat="51.74993933654521" lon="16.200625094122525"><ele>100.5</ele><time>2026-04-08T11:30:17Z</time></trkpt><trkpt lat="51.75000866805424" lon="16.2004769448904"><ele>100.25</ele><time>2026-04-08T11:30:18Z</time></trkpt><trkpt lat="51.75008164491285" lon="16.200310708194042"><ele>100.0</ele><time>2026-04-08T11:30:19Z</time></trkpt><trkpt lat="51.75015053152711" lon="16.200162666800274"><ele>100.33333333333334</ele><time>2026-04-08T11:30:20Z</time></trkpt><trkpt lat="51.750314625747535" lon="16.199871868518876"><ele>100.66666666666666</ele><time>2026-04-08T11:30:22Z</time></trkpt><trkpt lat="51.750404403514295" lon="16.19971352186431"><ele>101.0</ele><time>2026-04-08T11:30:23Z</time></trkpt><trkpt lat="51.75049317018535" lon="16.199569305567934"><ele>101.0</ele><time>2026-04-08T11:30:24Z</time></trkpt><trkpt lat="51.750572500379356" lon="16.199417862040978"><ele>101.0</ele><time>2026-04-08T11:30:25Z</time></trkpt><trkpt lat="51.75065729429833" lon="16.19926898949874"><ele>101.0</ele><time>2026-04-08T11:30:26Z</time></trkpt><trkpt lat="51.750745830004526" lon="16.199124325444096"><ele>101.0</ele><time>2026-04-08T11:30:27Z</time></trkpt><trkpt lat="51.75082854106588" lon="16.19897783687934"><ele>101.0</ele><time>2026-04-08T11:30:28Z</time></trkpt><trkpt lat="51.7509081689193" lon="16.198825762610117"><ele>101.0</ele><time>2026-04-08T11:30:29Z</time></trkpt><trkpt lat="51.75098635315648" lon="16.198682421268867"><ele>101.0</ele><time>2026-04-08T11:30:30Z</time></trkpt><trkpt lat="51.751067634219766" lon="16.19854686198938"><ele>101.0</ele><time>2026-04-08T11:30:31Z</time></trkpt><trkpt lat="51.75114526323901" lon="16.19844442044639"><ele>100.83333333333333</ele><time>2026-04-08T11:30:32Z</time></trkpt><trkpt lat="51.75120777778447" lon="16.198332627110002"><ele>100.66666666666666</ele><time>2026-04-08T11:30:33Z</time></trkpt><trkpt lat="51.75125481056186" lon="16.198195006447317"><ele>100.5</ele><time>2026-04-08T11:30:34Z</time></trkpt><trkpt lat="51.75134753554781" lon="16.198077762969024"><ele>100.33333333333334</ele><time>2026-04-08T11:30:36Z</time></trkpt><trkpt lat="51.751370986243515" lon="16.197972788369853"><ele>100.16666666666667</ele><time>2026-04-08T11:30:37Z</time></trkpt><trkpt lat="51.7513990840586" lon="16.197876386884825"><ele>100.0</ele><time>2026-04-08T11:30:38.001Z</time></trkpt><trkpt lat="51.75144066560564" lon="16.19778602286721"><ele>100.00000000000001</ele><time>2026-04-08T11:30:39.001Z</time></trkpt><trkpt lat="51.751529386150615" lon="16.197693466501597"><ele>100.0</ele><time>2026-04-08T11:30:41.001Z</time></trkpt><trkpt lat="51.75163416707643" lon="16.19774384930332"><ele>100.0</ele><time>2026-04-08T11:30:43.001Z</time></trkpt><trkpt lat="51.75169845940233" lon="16.19777535239999"><ele>100.0</ele><time>2026-04-08T11:30:44.001Z</time></trkpt><trkpt lat="51.7517738021616" lon="16.19780237514099"><ele>100.00000000000001</ele><time>2026-04-08T11:30:45.001Z</time></trkpt><trkpt lat="51.75185691731904" lon="16.19784004783466"><ele>100.0</ele><time>2026-04-08T11:30:46.001Z</time></trkpt><trkpt lat="51.75194163572529" lon="16.197880313724205"><ele>100.4</ele><time>2026-04-08T11:30:47.001Z</time></trkpt><trkpt lat="51.75203326316781" lon="16.19792530158247"><ele>100.8</ele><time>2026-04-08T11:30:48.001Z</time></trkpt><trkpt lat="51.752136916116356" lon="16.1979699062167"><ele>101.19999999999999</ele><time>2026-04-08T11:30:49.001Z</time></trkpt><trkpt lat="51.752243586196855" lon="16.198009004056093"><ele>101.6</ele><time>2026-04-08T11:30:50.001Z</time></trkpt><trkpt lat="51.7523522472576" lon="16.19804832719294"><ele>102.0</ele><time>2026-04-08T11:30:51.001Z</time></trkpt><trkpt lat="51.75246213380677" lon="16.198086108583166"><ele>102.0</ele><time>2026-04-08T11:30:52.001Z</time></trkpt><trkpt lat="51.752576268505685" lon="16.19812925998056"><ele>102.0</ele><time>2026-04-08T11:30:53.001Z</time></trkpt><trkpt lat="51.75269493278015" lon="16.19817245988434"><ele>102.0</ele><time>2026-04-08T11:30:54.001Z</time></trkpt><trkpt lat="51.75281749751023" lon="16.19821717618115"><ele>102.0</ele><time>2026-04-08T11:30:55.001Z</time></trkpt><trkpt lat="51.752939604828924" lon="16.19826397847445"><ele>101.25</ele><time>2026-04-08T11:30:56.001Z</time></trkpt><trkpt lat="51.75305831665176" lon="16.198323419640154"><ele>100.5</ele><time>2026-04-08T11:30:57.001Z</time></trkpt><trkpt lat="51.75317277944282" lon="16.198372438562373"><ele>99.75</ele><time>2026-04-08T11:30:58.001Z</time></trkpt><trkpt lat="51.7532846766952" lon="16.198419055224413"><ele>99.0</ele><time>2026-04-08T11:30:59.001Z</time></trkpt><trkpt lat="51.75338903779354" lon="16.198459557084576"><ele>99.0</ele><time>2026-04-08T11:31:00.001Z</time></trkpt><trkpt lat="51.753481190595885" lon="16.198495936726253"><ele>99.0</ele><time>2026-04-08T11:31:01.001Z</time></trkpt><trkpt lat="51.7535653500785" lon="16.198549778874074"><ele>99.0</ele><time>2026-04-08T11:31:02.001Z</time></trkpt><trkpt lat="51.75365496009389" lon="16.198604832618887"><ele>99.0</ele><time>2026-04-08T11:31:03.001Z</time></trkpt><trkpt lat="51.75374542155523" lon="16.198646368674588"><ele>99.0</ele><time>2026-04-08T11:31:04.001Z</time></trkpt><trkpt lat="51.753829112954456" lon="16.19867793843616"><ele>98.80000000000001</ele><time>2026-04-08T11:31:05.001Z</time></trkpt><trkpt lat="51.75391879037955" lon="16.19871009040146"><ele>98.60000000000001</ele><time>2026-04-08T11:31:06.001Z</time></trkpt><trkpt lat="51.754016185476104" lon="16.19873917760848"><ele>98.4</ele><time>2026-04-08T11:31:07.001Z</time></trkpt><trkpt lat="51.75412245716298" lon="16.198773452364982"><ele>98.2</ele><time>2026-04-08T11:31:08.001Z</time></trkpt><trkpt lat="51.7542326111732" lon="16.19880946783022"><ele>98.0</ele><time>2026-04-08T11:31:09.001Z</time></trkpt><trkpt lat="51.75433714833141" lon="16.198852801487618"><ele>97.99999999999999</ele><time>2026-04-08T11:31:10.001Z</time></trkpt><trkpt lat="51.75443552174836" lon="16.19888742676209"><ele>98.0</ele><time>2026-04-08T11:31:11.001Z</time></trkpt><trkpt lat="51.754529275695646" lon="16.19892450818767"><ele>98.0</ele><time>2026-04-08T11:31:12.001Z</time></trkpt><trkpt lat="51.754609367970055" lon="16.198943512437157"><ele>98.0</ele><time>2026-04-08T11:31:13.001Z</time></trkpt><trkpt lat="51.754679086532164" lon="16.19899324545644"><ele>97.99999999999999</ele><time>2026-04-08T11:31:14.001Z</time></trkpt><trkpt lat="51.75475027400699" lon="16.199072701240752"><ele>98.0</ele><time>2026-04-08T11:31:15.001Z</time></trkpt><trkpt lat="51.75482819490308" lon="16.199158458431523"><ele>98.0</ele><time>2026-04-08T11:31:16.001Z</time></trkpt><trkpt lat="51.75491008312651" lon="16.19926393480633"><ele>98.0</ele><time>2026-04-08T11:31:17.001Z</time></trkpt><trkpt lat="51.75499837567601" lon="16.19936317008289"><ele>98.0</ele><time>2026-04-08T11:31:18.001Z</time></trkpt><trkpt lat="51.75508861953921" lon="16.199462701179524"><ele>98.0</ele><time>2026-04-08T11:31:19.001Z</time></trkpt><trkpt lat="51.75517352345217" lon="16.19956928993722"><ele>98.0</ele><time>2026-04-08T11:31:20.001Z</time></trkpt><trkpt lat="51.75524902340801" lon="16.199671942727218"><ele>98.0</ele><time>2026-04-08T11:31:21.001Z</time></trkpt><trkpt lat="51.75531890424274" lon="16.199740172210845"><ele>98.0</ele><time>2026-04-08T11:31:22.001Z</time></trkpt><trkpt lat="51.75537458613864" lon="16.199821191983986"><ele>98.0</ele><time>2026-04-08T11:31:22.998Z</time></trkpt><trkpt lat="51.75545078970582" lon="16.199908483215715"><ele>98.0</ele><time>2026-04-08T11:31:23.998Z</time></trkpt><trkpt lat="51.75553785543176" lon="16.199992544134936"><ele>98.0</ele><time>2026-04-08T11:31:24.998Z</time></trkpt><trkpt lat="51.755628095086585" lon="16.20007944483293"><ele>98.0</ele><time>2026-04-08T11:31:25.998Z</time></trkpt><trkpt lat="51.755710611569" lon="16.200187517673527"><ele>98.0</ele><time>2026-04-08T11:31:26.998Z</time></trkpt><trkpt lat="51.755796392492" lon="16.20029579498287"><ele>98.0</ele><time>2026-04-08T11:31:27.998Z</time></trkpt><trkpt lat="51.75588214953184" lon="16.20040551861135"><ele>98.0</ele><time>2026-04-08T11:31:28.998Z</time></trkpt><trkpt lat="51.75597422335236" lon="16.20050544474573"><ele>98.0</ele><time>2026-04-08T11:31:29.998Z</time></trkpt><trkpt lat="51.756067427987965" lon="16.200606180195482"><ele>97.80000000000001</ele><time>2026-04-08T11:31:30.998Z</time></trkpt><trkpt lat="51.756166986922786" lon="16.20070092744799"><ele>97.6</ele><time>2026-04-08T11:31:31.999Z</time></trkpt><trkpt lat="51.756252370609786" lon="16.200795114846763"><ele>97.4</ele><time>2026-04-08T11:31:32.999Z</time></trkpt><trkpt lat="51.7563287957017" lon="16.200877019848292"><ele>97.19999999999999</ele><time>2026-04-08T11:31:33.999Z</time></trkpt><trkpt lat="51.75639841897205" lon="16.200981708981878"><ele>97.0</ele><time>2026-04-08T11:31:34.999Z</time></trkpt><trkpt lat="51.756480550194865" lon="16.201088811626903"><ele>97.0</ele><time>2026-04-08T11:31:35.999Z</time></trkpt><trkpt lat="51.75657121295596" lon="16.20118952653677"><ele>97.0</ele><time>2026-04-08T11:31:36.999Z</time></trkpt><trkpt lat="51.75665685469556" lon="16.201283098196942"><ele>97.0</ele><time>2026-04-08T11:31:37.999Z</time></trkpt><trkpt lat="51.75674325952421" lon="16.20138075335727"><ele>97.0</ele><time>2026-04-08T11:31:38.999Z</time></trkpt><trkpt lat="51.75682657597693" lon="16.20146421652343"><ele>97.0</ele><time>2026-04-08T11:31:39.999Z</time></trkpt><trkpt lat="51.756912894946474" lon="16.201550885246927"><ele>97.00000000000001</ele><time>2026-04-08T11:31:40.999Z</time></trkpt><trkpt lat="51.75699602208071" lon="16.201640488059727"><ele>97.0</ele><time>2026-04-08T11:31:41.999Z</time></trkpt><trkpt lat="51.75706331908065" lon="16.201725537712086"><ele>97.0</ele><time>2026-04-08T11:31:42.999Z</time></trkpt><trkpt lat="51.757110934816176" lon="16.201807912657248"><ele>97.0</ele><time>2026-04-08T11:31:43.999Z</time></trkpt><trkpt lat="51.757166753148034" lon="16.20189930893025"><ele>97.00000000000001</ele><time>2026-04-08T11:31:44.999Z</time></trkpt><trkpt lat="51.757243893422604" lon="16.20198423227394"><ele>97.0</ele><time>2026-04-08T11:31:45.999Z</time></trkpt><trkpt lat="51.75732968525045" lon="16.2020741604405"><ele>97.0</ele><time>2026-04-08T11:31:46.999Z</time></trkpt><trkpt lat="51.757418581328714" lon="16.202169969838895"><ele>97.0</ele><time>2026-04-08T11:31:47.999Z</time></trkpt><trkpt lat="51.757507110716475" lon="16.202278547701425"><ele>97.0</ele><time>2026-04-08T11:31:48.999Z</time></trkpt><trkpt lat="51.75760229618369" lon="16.20237953142452"><ele>97.0</ele><time>2026-04-08T11:31:49.999Z</time></trkpt><trkpt lat="51.75769254757075" lon="16.20248896014819"><ele>97.0</ele><time>2026-04-08T11:31:50.999Z</time></trkpt><trkpt lat="51.75777912023895" lon="16.202594614423155"><ele>97.25</ele><time>2026-04-08T11:31:51.999Z</time></trkpt><trkpt lat="51.757872185896304" lon="16.202690410790517"><ele>97.5</ele><time>2026-04-08T11:31:52.999Z</time></trkpt><trkpt lat="51.75796258823294" lon="16.20278384444901"><ele>97.75</ele><time>2026-04-08T11:31:54Z</time></trkpt><trkpt lat="51.75805511264207" lon="16.202899658404334"><ele>98.0</ele><time>2026-04-08T11:31:55Z</time></trkpt><trkpt lat="51.75815202152416" lon="16.203019114239932"><ele>98.0</ele><time>2026-04-08T11:31:56Z</time></trkpt><trkpt lat="51.7582502401933" lon="16.20313054102038"><ele>98.0</ele><time>2026-04-08T11:31:57Z</time></trkpt><trkpt lat="51.758351176552" lon="16.203241777087012"><ele>98.0</ele><time>2026-04-08T11:31:58Z</time></trkpt><trkpt lat="51.758443904983714" lon="16.203366171851254"><ele>98.0</ele><time>2026-04-08T11:31:59Z</time></trkpt><trkpt lat="51.7585393606497" lon="16.203478095236438"><ele>98.16666666666666</ele><time>2026-04-08T11:32:00Z</time></trkpt><trkpt lat="51.75862429749144" lon="16.203573993905092"><ele>98.33333333333333</ele><time>2026-04-08T11:32:01Z</time></trkpt><trkpt lat="51.75869772045257" lon="16.203656705632877"><ele>98.5</ele><time>2026-04-08T11:32:02Z</time></trkpt><trkpt lat="51.758764194968755" lon="16.2037334612722"><ele>98.66666666666666</ele><time>2026-04-08T11:32:03Z</time></trkpt><trkpt lat="51.75882019237389" lon="16.203803756419646"><ele>98.83333333333333</ele><time>2026-04-08T11:32:04Z</time></trkpt><trkpt lat="51.75888582527919" lon="16.203878754634495"><ele>99.0</ele><time>2026-04-08T11:32:05Z</time></trkpt><trkpt lat="51.75895343081401" lon="16.203961777196355"><ele>99.0</ele><time>2026-04-08T11:32:06Z</time></trkpt><trkpt lat="51.759019424630296" lon="16.204044701434576"><ele>99.0</ele><time>2026-04-08T11:32:07Z</time></trkpt><trkpt lat="51.75909158677608" lon="16.20412083782569"><ele>99.0</ele><time>2026-04-08T11:32:08Z</time></trkpt><trkpt lat="51.75916533628486" lon="16.204191231579752"><ele>99.0</ele><time>2026-04-08T11:32:09Z</time></trkpt><trkpt lat="51.75922909834682" lon="16.204274324275413"><ele>99.0</ele><time>2026-04-08T11:32:10Z</time></trkpt><trkpt lat="51.759297629754066" lon="16.20435507158538"><ele>99.0</ele><time>2026-04-08T11:32:11Z</time></trkpt><trkpt lat="51.75936928547186" lon="16.204432207656108"><ele>99.2</ele><time>2026-04-08T11:32:12Z</time></trkpt><trkpt lat="51.75944129999925" lon="16.204503937342917"><ele>99.4</ele><time>2026-04-08T11:32:13Z</time></trkpt><trkpt lat="51.759512589128036" lon="16.20458780115959"><ele>99.6</ele><time>2026-04-08T11:32:14Z</time></trkpt><trkpt lat="51.75958419225224" lon="16.20467875885492"><ele>99.8</ele><time>2026-04-08T11:32:15Z</time></trkpt><trkpt lat="51.759660995523966" lon="16.204770821086832"><ele>100.0</ele><time>2026-04-08T11:32:16Z</time></trkpt><trkpt lat="51.759738129371485" lon="16.204859675069528"><ele>100.00000000000001</ele><time>2026-04-08T11:32:17Z</time></trkpt><trkpt lat="51.759813291838576" lon="16.204940665137507"><ele>100.0</ele><time>2026-04-08T11:32:18Z</time></trkpt><trkpt lat="51.75988638135377" lon="16.205027344926975"><ele>100.0</ele><time>2026-04-08T11:32:19Z</time></trkpt><trkpt lat="51.759962529471046" lon="16.205110419528385"><ele>100.0</ele><time>2026-04-08T11:32:20Z</time></trkpt><trkpt lat="51.76003739918954" lon="16.20518785108734"><ele>100.00000000000001</ele><time>2026-04-08T11:32:21Z</time></trkpt><trkpt lat="51.76010207837814" lon="16.205279790354147"><ele>100.0</ele><time>2026-04-08T11:32:22Z</time></trkpt><trkpt lat="51.76016590798755" lon="16.205358834954076"><ele>100.00000000000001</ele><time>2026-04-08T11:32:23Z</time></trkpt><trkpt lat="51.7602361723984" lon="16.20541890271995"><ele>100.0</ele><time>2026-04-08T11:32:24Z</time></trkpt><trkpt lat="51.76029541462654" lon="16.20549258301132"><ele>100.0</ele><time>2026-04-08T11:32:25Z</time></trkpt><trkpt lat="51.76035482257676" lon="16.205562455740402"><ele>100.0</ele><time>2026-04-08T11:32:26Z</time></trkpt><trkpt lat="51.76041194589064" lon="16.20563685451909"><ele>100.00000000000001</ele><time>2026-04-08T11:32:27Z</time></trkpt><trkpt lat="51.76047534050578" lon="16.205711086138624"><ele>100.0</ele><time>2026-04-08T11:32:28Z</time></trkpt><trkpt lat="51.76054405836502" lon="16.20578166736594"><ele>100.0</ele><time>2026-04-08T11:32:29Z</time></trkpt><trkpt lat="51.76061439922162" lon="16.205862461651982"><ele>100.0</ele><time>2026-04-08T11:32:30Z</time></trkpt><trkpt lat="51.76068959377224" lon="16.20595402339778"><ele>100.0</ele><time>2026-04-08T11:32:31Z</time></trkpt><trkpt lat="51.760765274081926" lon="16.20603286405249"><ele>100.0</ele><time>2026-04-08T11:32:32Z</time></trkpt><trkpt lat="51.760843410704474" lon="16.20611639437805"><ele>100.0</ele><time>2026-04-08T11:32:33Z</time></trkpt><trkpt lat="51.760918138772574" lon="16.206208949687166"><ele>100.0</ele><time>2026-04-08T11:32:34.001Z</time></trkpt><trkpt lat="51.7609966133532" lon="16.206306673742976"><ele>100.0</ele><time>2026-04-08T11:32:35.001Z</time></trkpt><trkpt lat="51.76108274593692" lon="16.206402444398826"><ele>100.0</ele><time>2026-04-08T11:32:36.001Z</time></trkpt><trkpt lat="51.7611726993616" lon="16.20649364702101"><ele>100.0</ele><time>2026-04-08T11:32:37.001Z</time></trkpt><trkpt lat="51.7612496963371" lon="16.20659553383228"><ele>100.0</ele><time>2026-04-08T11:32:38.001Z</time></trkpt><trkpt lat="51.76133565277407" lon="16.206682032585352"><ele>100.4</ele><time>2026-04-08T11:32:39.001Z</time></trkpt><trkpt lat="51.761419920967015" lon="16.206778921653225"><ele>100.8</ele><time>2026-04-08T11:32:40.001Z</time></trkpt><trkpt lat="51.76150352078382" lon="16.206877084033845"><ele>101.19999999999999</ele><time>2026-04-08T11:32:41.001Z</time></trkpt><trkpt lat="51.76158883476436" lon="16.206973497446086"><ele>101.6</ele><time>2026-04-08T11:32:42.001Z</time></trkpt><trkpt lat="51.76167242800356" lon="16.207080242353335"><ele>102.0</ele><time>2026-04-08T11:32:43.001Z</time></trkpt><trkpt lat="51.76175301300625" lon="16.20718415145839"><ele>102.0</ele><time>2026-04-08T11:32:44.001Z</time></trkpt><trkpt lat="51.761838011905844" lon="16.207288093523317"><ele>102.0</ele><time>2026-04-08T11:32:45.001Z</time></trkpt><trkpt lat="51.7619139923112" lon="16.207380084456123"><ele>102.0</ele><time>2026-04-08T11:32:46.001Z</time></trkpt><trkpt lat="51.76199218138028" lon="16.20746385794846"><ele>102.0</ele><time>2026-04-08T11:32:47.001Z</time></trkpt><trkpt lat="51.76207268795762" lon="16.207549966520496"><ele>102.0</ele><time>2026-04-08T11:32:48.001Z</time></trkpt><trkpt lat="51.762159091182596" lon="16.207641405834995"><ele>102.19999999999999</ele><time>2026-04-08T11:32:49.001Z</time></trkpt><trkpt lat="51.76224540118695" lon="16.207725640340037"><ele>102.4</ele><time>2026-04-08T11:32:50.001Z</time></trkpt><trkpt lat="51.76233503824785" lon="16.207824123835305"><ele>102.6</ele><time>2026-04-08T11:32:51.001Z</time></trkpt><trkpt lat="51.76242034433521" lon="16.20793059320804"><ele>102.80000000000001</ele><time>2026-04-08T11:32:52.001Z</time></trkpt><trkpt lat="51.76250635115312" lon="16.20804349788929"><ele>103.0</ele><time>2026-04-08T11:32:53.001Z</time></trkpt><trkpt lat="51.76259293220145" lon="16.208169644879202"><ele>103.0</ele><time>2026-04-08T11:32:54.001Z</time></trkpt><trkpt lat="51.76268467125921" lon="16.208293362721214"><ele>103.0</ele><time>2026-04-08T11:32:55.001Z</time></trkpt><trkpt lat="51.76278103689764" lon="16.20839772542745"><ele>103.0</ele><time>2026-04-08T11:32:56.001Z</time></trkpt><trkpt lat="51.76287280641171" lon="16.208496829464906"><ele>103.0</ele><time>2026-04-08T11:32:57.001Z</time></trkpt><trkpt lat="51.762964796427404" lon="16.20858701718803"><ele>103.0</ele><time>2026-04-08T11:32:58.001Z</time></trkpt><trkpt lat="51.763048093027805" lon="16.208667942425382"><ele>103.0</ele><time>2026-04-08T11:32:59.001Z</time></trkpt><trkpt lat="51.76312518488561" lon="16.208731893773326"><ele>103.0</ele><time>2026-04-08T11:33:00.001Z</time></trkpt><trkpt lat="51.763195669382995" lon="16.20880358866008"><ele>103.0</ele><time>2026-04-08T11:33:01.001Z</time></trkpt><trkpt lat="51.76329314353844" lon="16.20886329171379"><ele>103.0</ele><time>2026-04-08T11:33:02.001Z</time></trkpt><trkpt lat="51.76340242562305" lon="16.208904349778663"><ele>103.0</ele><time>2026-04-08T11:33:03.001Z</time></trkpt><trkpt lat="51.76351343499039" lon="16.208950285781974"><ele>103.0</ele><time>2026-04-08T11:33:04.001Z</time></trkpt><trkpt lat="51.76362720604996" lon="16.209013585203532"><ele>103.0</ele><time>2026-04-08T11:33:05.001Z</time></trkpt><trkpt lat="51.76373897500861" lon="16.20908761729159"><ele>103.0</ele><time>2026-04-08T11:33:06.001Z</time></trkpt><trkpt lat="51.76386103150251" lon="16.20916611568351"><ele>102.25</ele><time>2026-04-08T11:33:07.001Z</time></trkpt><trkpt lat="51.763982309071196" lon="16.209238700464734"><ele>101.5</ele><time>2026-04-08T11:33:08.001Z</time></trkpt><trkpt lat="51.76410146461174" lon="16.20929715831208"><ele>100.75</ele><time>2026-04-08T11:33:09.001Z</time></trkpt><trkpt lat="51.76421975788549" lon="16.209361638501544"><ele>100.0</ele><time>2026-04-08T11:33:10.001Z</time></trkpt><trkpt lat="51.76434124810667" lon="16.20942408890933"><ele>100.0</ele><time>2026-04-08T11:33:11.001Z</time></trkpt><trkpt lat="51.76446667641747" lon="16.209486533965286"><ele>100.0</ele><time>2026-04-08T11:33:12.001Z</time></trkpt><trkpt lat="51.76458881690813" lon="16.209547652563927"><ele>100.0</ele><time>2026-04-08T11:33:13.001Z</time></trkpt><trkpt lat="51.76471264958725" lon="16.209619188586046"><ele>100.0</ele><time>2026-04-08T11:33:14.001Z</time></trkpt><trkpt lat="51.76483596621" lon="16.20968675336035"><ele>100.0</ele><time>2026-04-08T11:33:15.001Z</time></trkpt><trkpt lat="51.7649595771559" lon="16.209757174176787"><ele>100.0</ele><time>2026-04-08T11:33:16.001Z</time></trkpt><trkpt lat="51.76508683249359" lon="16.20982295390976"><ele>100.0</ele><time>2026-04-08T11:33:17.001Z</time></trkpt><trkpt lat="51.765209999404" lon="16.209890744675118"><ele>100.0</ele><time>2026-04-08T11:33:18.001Z</time></trkpt><trkpt lat="51.76533503597673" lon="16.20995875775772"><ele>99.75</ele><time>2026-04-08T11:33:19.001Z</time></trkpt><trkpt lat="51.765458131888025" lon="16.21003515630003"><ele>99.5</ele><time>2026-04-08T11:33:20.001Z</time></trkpt><trkpt lat="51.76558002163728" lon="16.210099031005083"><ele>99.25</ele><time>2026-04-08T11:33:21.001Z</time></trkpt><trkpt lat="51.76570309687148" lon="16.210167396130448"><ele>99.0</ele><time>2026-04-08T11:33:22.001Z</time></trkpt><trkpt lat="51.76582521644764" lon="16.210245230449374"><ele>99.0</ele><time>2026-04-08T11:33:23.001Z</time></trkpt><trkpt lat="51.765950020751866" lon="16.210317641434678"><ele>99.0</ele><time>2026-04-08T11:33:24.002Z</time></trkpt><trkpt lat="51.766076906218714" lon="16.21038443440743"><ele>99.0</ele><time>2026-04-08T11:33:25.002Z</time></trkpt><trkpt lat="51.76619764890254" lon="16.210460017057937"><ele>99.0</ele><time>2026-04-08T11:33:26.002Z</time></trkpt><trkpt lat="51.76631862386329" lon="16.21053791944436"><ele>98.75</ele><time>2026-04-08T11:33:27.002Z</time></trkpt><trkpt lat="51.766439577477236" lon="16.210611867948312"><ele>98.5</ele><time>2026-04-08T11:33:28.002Z</time></trkpt><trkpt lat="51.7665605527622" lon="16.210662252275213"><ele>98.25</ele><time>2026-04-08T11:33:28.999Z</time></trkpt><trkpt lat="51.76668279139684" lon="16.210714084166348"><ele>98.0</ele><time>2026-04-08T11:33:29.999Z</time></trkpt><trkpt lat="51.76680006733389" lon="16.21078694312378"><ele>97.75</ele><time>2026-04-08T11:33:30.999Z</time></trkpt><trkpt lat="51.76691958655391" lon="16.210858921083688"><ele>97.5</ele><time>2026-04-08T11:33:31.999Z</time></trkpt><trkpt lat="51.767041959400906" lon="16.210927605406727"><ele>97.25</ele><time>2026-04-08T11:33:32.999Z</time></trkpt><trkpt lat="51.76716364104392" lon="16.21100728207573"><ele>97.0</ele><time>2026-04-08T11:33:33.999Z</time></trkpt><trkpt lat="51.7672894313914" lon="16.211075559716466"><ele>97.0</ele><time>2026-04-08T11:33:34.999Z</time></trkpt><trkpt lat="51.76740998279439" lon="16.211162325786038"><ele>97.0</ele><time>2026-04-08T11:33:35.999Z</time></trkpt><trkpt lat="51.76753988336672" lon="16.211231766682662"><ele>97.0</ele><time>2026-04-08T11:33:36.999Z</time></trkpt><trkpt lat="51.76766897510031" lon="16.211304693309938"><ele>97.0</ele><time>2026-04-08T11:33:37.999Z</time></trkpt><trkpt lat="51.767800614085154" lon="16.211373928686356"><ele>97.0</ele><time>2026-04-08T11:33:38.999Z</time></trkpt><trkpt lat="51.76793495444044" lon="16.21145265375269"><ele>97.0</ele><time>2026-04-08T11:33:39.999Z</time></trkpt><trkpt lat="51.76806835178518" lon="16.21150805421796"><ele>97.0</ele><time>2026-04-08T11:33:41Z</time></trkpt><trkpt lat="51.76818456402166" lon="16.211567101512554"><ele>97.0</ele><time>2026-04-08T11:33:42Z</time></trkpt><trkpt lat="51.768292976657115" lon="16.211634768536815"><ele>97.0</ele><time>2026-04-08T11:33:43Z</time></trkpt><trkpt lat="51.768405666206974" lon="16.21169444078576"><ele>97.0</ele><time>2026-04-08T11:33:44Z</time></trkpt><trkpt lat="51.76851988527463" lon="16.211756325228695"><ele>97.0</ele><time>2026-04-08T11:33:45Z</time></trkpt><trkpt lat="51.76863360691224" lon="16.211817815872628"><ele>97.0</ele><time>2026-04-08T11:33:46Z</time></trkpt><trkpt lat="51.76875465253188" lon="16.211877997558844"><ele>97.25</ele><time>2026-04-08T11:33:47Z</time></trkpt><trkpt lat="51.76885859127254" lon="16.211951853734693"><ele>97.5</ele><time>2026-04-08T11:33:48Z</time></trkpt><trkpt lat="51.76897226976515" lon="16.21200982840827"><ele>97.75</ele><time>2026-04-08T11:33:49Z</time></trkpt><trkpt lat="51.76908291009914" lon="16.212069755497065"><ele>98.0</ele><time>2026-04-08T11:33:50Z</time></trkpt><trkpt lat="51.769174895649414" lon="16.212154332127497"><ele>98.0</ele><time>2026-04-08T11:33:51Z</time></trkpt><trkpt lat="51.76927602591233" lon="16.21220337185186"><ele>98.0</ele><time>2026-04-08T11:33:52Z</time></trkpt><trkpt lat="51.76938559345486" lon="16.212250815159475"><ele>98.0</ele><time>2026-04-08T11:33:53Z</time></trkpt><trkpt lat="51.769496595384645" lon="16.212328025987016"><ele>98.0</ele><time>2026-04-08T11:33:54Z</time></trkpt><trkpt lat="51.76961521647961" lon="16.21237650860641"><ele>98.25</ele><time>2026-04-08T11:33:55Z</time></trkpt><trkpt lat="51.76973200553914" lon="16.212435728986705"><ele>98.5</ele><time>2026-04-08T11:33:56Z</time></trkpt><trkpt lat="51.769841884013495" lon="16.21249391937284"><ele>98.75</ele><time>2026-04-08T11:33:57Z</time></trkpt><trkpt lat="51.76995239077854" lon="16.212543997567714"><ele>99.0</ele><time>2026-04-08T11:33:58Z</time></trkpt><trkpt lat="51.77007130722587" lon="16.212612438228028"><ele>98.75</ele><time>2026-04-08T11:33:59Z</time></trkpt><trkpt lat="51.77019612717433" lon="16.21265158224385"><ele>98.5</ele><time>2026-04-08T11:34:00Z</time></trkpt><trkpt lat="51.7703111430788" lon="16.212744246388922"><ele>98.25</ele><time>2026-04-08T11:34:01Z</time></trkpt><trkpt lat="51.770424063050555" lon="16.212804087617727"><ele>98.0</ele><time>2026-04-08T11:34:02Z</time></trkpt><trkpt lat="51.770531278826596" lon="16.212861151922016"><ele>98.0</ele><time>2026-04-08T11:34:03Z</time></trkpt><trkpt lat="51.77064449114874" lon="16.212936393190965"><ele>98.0</ele><time>2026-04-08T11:34:04Z</time></trkpt><trkpt lat="51.77073696568136" lon="16.212987421226995"><ele>98.0</ele><time>2026-04-08T11:34:05Z</time></trkpt><trkpt lat="51.77081132579147" lon="16.213031724774044"><ele>98.0</ele><time>2026-04-08T11:34:06Z</time></trkpt><trkpt lat="51.770889204041744" lon="16.2130847282566"><ele>98.0</ele><time>2026-04-08T11:34:07Z</time></trkpt><trkpt lat="51.77096563225724" lon="16.213130610291504"><ele>97.60000000000001</ele><time>2026-04-08T11:34:08Z</time></trkpt><trkpt lat="51.77103831148672" lon="16.213169177647913"><ele>97.2</ele><time>2026-04-08T11:34:09Z</time></trkpt><trkpt lat="51.771096889729954" lon="16.213207733078285"><ele>96.8</ele><time>2026-04-08T11:34:10Z</time></trkpt><trkpt lat="51.77117111723838" lon="16.213250654667124"><ele>96.4</ele><time>2026-04-08T11:34:12Z</time></trkpt><trkpt lat="51.77125808959502" lon="16.213067181089812"><ele>96.0</ele><time>2026-04-08T11:34:17.001Z</time></trkpt><trkpt lat="51.771263955262114" lon="16.212913804642454"><ele>96.0</ele><time>2026-04-08T11:34:18.001Z</time></trkpt><trkpt lat="51.77128612531478" lon="16.21277459869068"><ele>96.0</ele><time>2026-04-08T11:34:19.001Z</time></trkpt><trkpt lat="51.7713100971247" lon="16.21262418897266"><ele>96.0</ele><time>2026-04-08T11:34:20.001Z</time></trkpt><trkpt lat="51.771337062123436" lon="16.212468854806385"><ele>96.0</ele><time>2026-04-08T11:34:21.001Z</time></trkpt><trkpt lat="51.77136346095581" lon="16.21230112488621"><ele>96.0</ele><time>2026-04-08T11:34:22.001Z</time></trkpt><trkpt lat="51.77138294499153" lon="16.212131748406147"><ele>96.0</ele><time>2026-04-08T11:34:23.001Z</time></trkpt><trkpt lat="51.771406270841105" lon="16.211955725164582"><ele>96.0</ele><time>2026-04-08T11:34:24.001Z</time></trkpt><trkpt lat="51.77144422268972" lon="16.21177891034015"><ele>96.0</ele><time>2026-04-08T11:34:25.001Z</time></trkpt><trkpt lat="51.77146984378868" lon="16.211601090778437"><ele>96.0</ele><time>2026-04-08T11:34:26.001Z</time></trkpt><trkpt lat="51.77149635970131" lon="16.211413784874264"><ele>96.75</ele><time>2026-04-08T11:34:27.001Z</time></trkpt><trkpt lat="51.771520966135874" lon="16.21122392563387"><ele>97.5</ele><time>2026-04-08T11:34:28.001Z</time></trkpt><trkpt lat="51.77154217803696" lon="16.211038223686376"><ele>98.25</ele><time>2026-04-08T11:34:29.001Z</time></trkpt><trkpt lat="51.77156446519523" lon="16.21084294888767"><ele>99.0</ele><time>2026-04-08T11:34:30.001Z</time></trkpt><trkpt lat="51.771587491954556" lon="16.210653445704637"><ele>99.0</ele><time>2026-04-08T11:34:31.001Z</time></trkpt><trkpt lat="51.77161080181373" lon="16.21046347650186"><ele>99.0</ele><time>2026-04-08T11:34:32.001Z</time></trkpt><trkpt lat="51.771634831418034" lon="16.21026851782262"><ele>99.0</ele><time>2026-04-08T11:34:33.001Z</time></trkpt><trkpt lat="51.771643542834916" lon="16.210066790583024"><ele>99.0</ele><time>2026-04-08T11:34:34.001Z</time></trkpt><trkpt lat="51.77167462995348" lon="16.209859699344424"><ele>99.5</ele><time>2026-04-08T11:34:35.001Z</time></trkpt><trkpt lat="51.771699465120975" lon="16.209650920787773"><ele>100.0</ele><time>2026-04-08T11:34:36.001Z</time></trkpt><trkpt lat="51.77172329024103" lon="16.209437563872825"><ele>100.5</ele><time>2026-04-08T11:34:37.001Z</time></trkpt><trkpt lat="51.77175110343027" lon="16.209223388035667"><ele>101.0</ele><time>2026-04-08T11:34:38.001Z</time></trkpt><trkpt lat="51.77178770847847" lon="16.209018913407593"><ele>100.75</ele><time>2026-04-08T11:34:39.001Z</time></trkpt><trkpt lat="51.77183689665966" lon="16.2088074267755"><ele>100.5</ele><time>2026-04-08T11:34:40.001Z</time></trkpt><trkpt lat="51.77189010661615" lon="16.208589587013442"><ele>100.25</ele><time>2026-04-08T11:34:41.001Z</time></trkpt><trkpt lat="51.77194153245987" lon="16.208364236386984"><ele>100.0</ele><time>2026-04-08T11:34:42.001Z</time></trkpt><trkpt lat="51.7719969633119" lon="16.20814455361531"><ele>99.25</ele><time>2026-04-08T11:34:43.001Z</time></trkpt><trkpt lat="51.772044285857746" lon="16.207921883728215"><ele>98.5</ele><time>2026-04-08T11:34:44.001Z</time></trkpt><trkpt lat="51.772075588611074" lon="16.2076927550812"><ele>97.75</ele><time>2026-04-08T11:34:45.001Z</time></trkpt><trkpt lat="51.77209633102957" lon="16.207460514786543"><ele>97.0</ele><time>2026-04-08T11:34:46.001Z</time></trkpt><trkpt lat="51.77211079621339" lon="16.207219006635135"><ele>96.75</ele><time>2026-04-08T11:34:47.001Z</time></trkpt><trkpt lat="51.772150111302345" lon="16.206989877411896"><ele>96.5</ele><time>2026-04-08T11:34:48.001Z</time></trkpt><trkpt lat="51.772172756269796" lon="16.20675377691916"><ele>96.25</ele><time>2026-04-08T11:34:49.001Z</time></trkpt><trkpt lat="51.772229280776415" lon="16.206525393277253"><ele>96.0</ele><time>2026-04-08T11:34:50.001Z</time></trkpt><trkpt lat="51.77227635232824" lon="16.20627810688078"><ele>95.5</ele><time>2026-04-08T11:34:51.001Z</time></trkpt><trkpt lat="51.77237906317012" lon="16.20577885345439"><ele>95.0</ele><time>2026-04-08T11:34:53.001Z</time></trkpt><trkpt lat="51.77242493307527" lon="16.205539267911362"><ele>95.0</ele><time>2026-04-08T11:34:54.001Z</time></trkpt><trkpt lat="51.77246662198764" lon="16.205313478755887"><ele>95.0</ele><time>2026-04-08T11:34:55.001Z</time></trkpt><trkpt lat="51.772502499337314" lon="16.20509773126439"><ele>95.0</ele><time>2026-04-08T11:34:56.001Z</time></trkpt><trkpt lat="51.77253880668058" lon="16.204891227577352"><ele>95.0</ele><time>2026-04-08T11:34:57.001Z</time></trkpt><trkpt lat="51.77257044887908" lon="16.204679086178242"><ele>95.0</ele><time>2026-04-08T11:34:58.001Z</time></trkpt><trkpt lat="51.772596426686086" lon="16.204484673315914"><ele>95.0</ele><time>2026-04-08T11:34:59.001Z</time></trkpt><trkpt lat="51.77259851575602" lon="16.204303505960645"><ele>95.0</ele><time>2026-04-08T11:35:00.001Z</time></trkpt><trkpt lat="51.77259231608555" lon="16.204127610994835"><ele>95.0</ele><time>2026-04-08T11:35:01.002Z</time></trkpt><trkpt lat="51.7725733885423" lon="16.203951938073427"><ele>94.8</ele><time>2026-04-08T11:35:02.002Z</time></trkpt><trkpt lat="51.772521126930094" lon="16.203795029019247"><ele>94.6</ele><time>2026-04-08T11:35:03.002Z</time></trkpt><trkpt lat="51.77246600348532" lon="16.203650804639896"><ele>94.4</ele><time>2026-04-08T11:35:04.002Z</time></trkpt><trkpt lat="51.772403702847335" lon="16.203506644933142"><ele>94.2</ele><time>2026-04-08T11:35:05.002Z</time></trkpt><trkpt lat="51.77233360442732" lon="16.20338527370103"><ele>94.0</ele><time>2026-04-08T11:35:06.002Z</time></trkpt><trkpt lat="51.772267152979545" lon="16.20324725010276"><ele>94.0</ele><time>2026-04-08T11:35:07.002Z</time></trkpt><trkpt lat="51.7721956661128" lon="16.203170810346133"><ele>94.0</ele><time>2026-04-08T11:35:08.002Z</time></trkpt><trkpt lat="51.77212343545394" lon="16.203065607614125"><ele>94.0</ele><time>2026-04-08T11:35:09.002Z</time></trkpt><trkpt lat="51.77210907693848" lon="16.20295229304341"><ele>94.0</ele><time>2026-04-08T11:35:10.002Z</time></trkpt><trkpt lat="51.772161695190775" lon="16.202869468110134"><ele>94.0</ele><time>2026-04-08T11:35:11.002Z</time></trkpt><trkpt lat="51.77220597136526" lon="16.202765814438386"><ele>94.0</ele><time>2026-04-08T11:35:12.002Z</time></trkpt><trkpt lat="51.772248781235035" lon="16.20263322845816"><ele>93.75</ele><time>2026-04-08T11:35:13.002Z</time></trkpt><trkpt lat="51.77229095107334" lon="16.202471981954947"><ele>93.5</ele><time>2026-04-08T11:35:14.002Z</time></trkpt><trkpt lat="51.77234103614214" lon="16.202296242119843"><ele>93.25</ele><time>2026-04-08T11:35:15.002Z</time></trkpt><trkpt lat="51.77239563403619" lon="16.202103712504602"><ele>93.0</ele><time>2026-04-08T11:35:16.002Z</time></trkpt><trkpt lat="51.77245088297962" lon="16.201902051442254"><ele>93.0</ele><time>2026-04-08T11:35:17.002Z</time></trkpt><trkpt lat="51.77251414962002" lon="16.20168943843735"><ele>93.0</ele><time>2026-04-08T11:35:18.002Z</time></trkpt><trkpt lat="51.772580593862756" lon="16.20146471705051"><ele>93.0</ele><time>2026-04-08T11:35:19.002Z</time></trkpt><trkpt lat="51.77264597656827" lon="16.20122888869475"><ele>92.33333333333333</ele><time>2026-04-08T11:35:20.002Z</time></trkpt><trkpt lat="51.772719267396994" lon="16.200977439075245"><ele>91.66666666666666</ele><time>2026-04-08T11:35:21.002Z</time></trkpt><trkpt lat="51.77278397056744" lon="16.200725171149184"><ele>91.0</ele><time>2026-04-08T11:35:22.002Z</time></trkpt><trkpt lat="51.77285781242888" lon="16.20046908556824"><ele>91.0</ele><time>2026-04-08T11:35:23.002Z</time></trkpt><trkpt lat="51.77293073823135" lon="16.200206172537097"><ele>91.0</ele><time>2026-04-08T11:35:24.002Z</time></trkpt><trkpt lat="51.77299976848042" lon="16.19995124045853"><ele>91.0</ele><time>2026-04-08T11:35:25.002Z</time></trkpt><trkpt lat="51.77306422658111" lon="16.199725627426044"><ele>91.25</ele><time>2026-04-08T11:35:26.002Z</time></trkpt><trkpt lat="51.77312006936649" lon="16.19952159111446"><ele>91.5</ele><time>2026-04-08T11:35:27.002Z</time></trkpt><trkpt lat="51.77318104760537" lon="16.199317503820712"><ele>91.75</ele><time>2026-04-08T11:35:28.002Z</time></trkpt><trkpt lat="51.77324000856448" lon="16.199103489607765"><ele>92.0</ele><time>2026-04-08T11:35:29.002Z</time></trkpt><trkpt lat="51.77330166365002" lon="16.19887928711804"><ele>92.0</ele><time>2026-04-08T11:35:30.002Z</time></trkpt><trkpt lat="51.773365386646574" lon="16.19865986630842"><ele>92.0</ele><time>2026-04-08T11:35:31.002Z</time></trkpt><trkpt lat="51.773435734855184" lon="16.198420798477574"><ele>92.0</ele><time>2026-04-08T11:35:32.002Z</time></trkpt><trkpt lat="51.77350409076165" lon="16.19819163363185"><ele>92.0</ele><time>2026-04-08T11:35:33.002Z</time></trkpt><trkpt lat="51.77356245619851" lon="16.197947504739773"><ele>92.0</ele><time>2026-04-08T11:35:34.002Z</time></trkpt><trkpt lat="51.77363160039981" lon="16.19770936912259"><ele>92.0</ele><time>2026-04-08T11:35:35.001Z</time></trkpt><trkpt lat="51.773700664396735" lon="16.197472773835276"><ele>92.0</ele><time>2026-04-08T11:35:36.001Z</time></trkpt><trkpt lat="51.773757839941716" lon="16.19724567794805"><ele>92.0</ele><time>2026-04-08T11:35:37.001Z</time></trkpt><trkpt lat="51.7738208678645" lon="16.19702415708478"><ele>92.0</ele><time>2026-04-08T11:35:38.001Z</time></trkpt><trkpt lat="51.77388110696318" lon="16.196805171319735"><ele>92.0</ele><time>2026-04-08T11:35:39.001Z</time></trkpt><trkpt lat="51.77394073091722" lon="16.196585959844523"><ele>92.0</ele><time>2026-04-08T11:35:40.001Z</time></trkpt><trkpt lat="51.77399684971976" lon="16.196368481541665"><ele>92.0</ele><time>2026-04-08T11:35:41.001Z</time></trkpt><trkpt lat="51.77405758814109" lon="16.196156611973212"><ele>92.0</ele><time>2026-04-08T11:35:42.001Z</time></trkpt><trkpt lat="51.774116260912486" lon="16.195951657130426"><ele>92.0</ele><time>2026-04-08T11:35:43.001Z</time></trkpt><trkpt lat="51.77417624997784" lon="16.195742450957336"><ele>92.0</ele><time>2026-04-08T11:35:44.001Z</time></trkpt><trkpt lat="51.774238379475186" lon="16.195532775364665"><ele>92.0</ele><time>2026-04-08T11:35:45.001Z</time></trkpt><trkpt lat="51.77428902824638" lon="16.19532246372341"><ele>92.0</ele><time>2026-04-08T11:35:46.001Z</time></trkpt><trkpt lat="51.77435206032233" lon="16.195117030581777"><ele>92.0</ele><time>2026-04-08T11:35:47.001Z</time></trkpt><trkpt lat="51.774401793818306" lon="16.194902701487813"><ele>92.0</ele><time>2026-04-08T11:35:48.001Z</time></trkpt><trkpt lat="51.774462393093636" lon="16.194679908817957"><ele>92.0</ele><time>2026-04-08T11:35:49.001Z</time></trkpt><trkpt lat="51.77453298208069" lon="16.194473020409262"><ele>92.0</ele><time>2026-04-08T11:35:50.001Z</time></trkpt><trkpt lat="51.77459140567418" lon="16.19426251592785"><ele>92.25</ele><time>2026-04-08T11:35:51.001Z</time></trkpt><trkpt lat="51.77464748029586" lon="16.19406114932594"><ele>92.5</ele><time>2026-04-08T11:35:52.001Z</time></trkpt><trkpt lat="51.77470255854122" lon="16.19386414961522"><ele>92.75</ele><time>2026-04-08T11:35:53.001Z</time></trkpt><trkpt lat="51.774758160252595" lon="16.19366221016093"><ele>93.0</ele><time>2026-04-08T11:35:54.001Z</time></trkpt><trkpt lat="51.77481409441168" lon="16.193461114648592"><ele>93.25</ele><time>2026-04-08T11:35:55.001Z</time></trkpt><trkpt lat="51.77485737842715" lon="16.19325936076955"><ele>93.5</ele><time>2026-04-08T11:35:56.001Z</time></trkpt><trkpt lat="51.7749159962351" lon="16.193094569484007"><ele>93.75</ele><time>2026-04-08T11:35:57.001Z</time></trkpt><trkpt lat="51.77495796684776" lon="16.192919935081157"><ele>94.0</ele><time>2026-04-08T11:35:58.001Z</time></trkpt><trkpt lat="51.77500201659762" lon="16.192759483803467"><ele>94.0</ele><time>2026-04-08T11:35:59.001Z</time></trkpt><trkpt lat="51.775039495093594" lon="16.192628569498474"><ele>94.0</ele><time>2026-04-08T11:36:00.001Z</time></trkpt><trkpt lat="51.77507791593622" lon="16.192487618233272"><ele>94.0</ele><time>2026-04-08T11:36:01.001Z</time></trkpt><trkpt lat="51.775116447551845" lon="16.19234531584978"><ele>94.0</ele><time>2026-04-08T11:36:02.001Z</time></trkpt><trkpt lat="51.775152419465" lon="16.19220934495741"><ele>94.0</ele><time>2026-04-08T11:36:03.001Z</time></trkpt><trkpt lat="51.77518926911856" lon="16.192074104580552"><ele>94.33333333333333</ele><time>2026-04-08T11:36:04.001Z</time></trkpt><trkpt lat="51.775234115583075" lon="16.19195611534698"><ele>94.66666666666666</ele><time>2026-04-08T11:36:05.001Z</time></trkpt><trkpt lat="51.77527967034135" lon="16.191883172582504"><ele>95.0</ele><time>2026-04-08T11:36:06.001Z</time></trkpt><trkpt lat="51.77535575938097" lon="16.192001682028696"><ele>95.33333333333333</ele><time>2026-04-08T11:36:08.001Z</time></trkpt><trkpt lat="51.77540684730598" lon="16.192075247805327"><ele>95.66666666666667</ele><time>2026-04-08T11:36:09.001Z</time></trkpt><trkpt lat="51.77547077133476" lon="16.192167803840256"><ele>96.0</ele><time>2026-04-08T11:36:10.001Z</time></trkpt><trkpt lat="51.77553964162544" lon="16.19226796619936"><ele>95.75</ele><time>2026-04-08T11:36:11.001Z</time></trkpt><trkpt lat="51.77560840919383" lon="16.192368267031444"><ele>95.5</ele><time>2026-04-08T11:36:12.001Z</time></trkpt><trkpt lat="51.775706760246194" lon="16.19249838184633"><ele>95.25</ele><time>2026-04-08T11:36:13.001Z</time></trkpt><trkpt lat="51.77584517572787" lon="16.192596974859196"><ele>95.0</ele><time>2026-04-08T11:36:14.001Z</time></trkpt><trkpt lat="51.77596860679436" lon="16.192726480279276"><ele>94.5</ele><time>2026-04-08T11:36:15.001Z</time></trkpt><trkpt lat="51.77608577230249" lon="16.19287353791735"><ele>94.0</ele><time>2026-04-08T11:36:16.001Z</time></trkpt><trkpt lat="51.77618980915317" lon="16.193009072372053"><ele>93.5</ele><time>2026-04-08T11:36:17.001Z</time></trkpt><trkpt lat="51.77629336438541" lon="16.19314541995942"><ele>93.0</ele><time>2026-04-08T11:36:18.001Z</time></trkpt><trkpt lat="51.776392646933" lon="16.19327320388375"><ele>93.0</ele><time>2026-04-08T11:36:19.001Z</time></trkpt><trkpt lat="51.77649760653409" lon="16.193375272573117"><ele>93.0</ele><time>2026-04-08T11:36:20.001Z</time></trkpt><trkpt lat="51.77660326122255" lon="16.19349635001596"><ele>93.0</ele><time>2026-04-08T11:36:21.001Z</time></trkpt><trkpt lat="51.77669397366195" lon="16.193612966880895"><ele>93.0</ele><time>2026-04-08T11:36:22.001Z</time></trkpt><trkpt lat="51.77677872005225" lon="16.193716244343122"><ele>93.5</ele><time>2026-04-08T11:36:23.001Z</time></trkpt><trkpt lat="51.77686665766055" lon="16.19381033540076"><ele>94.0</ele><time>2026-04-08T11:36:24.001Z</time></trkpt><trkpt lat="51.77695866868417" lon="16.19392002247696"><ele>94.5</ele><time>2026-04-08T11:36:25.001Z</time></trkpt><trkpt lat="51.77706023480917" lon="16.194038037036734"><ele>95.0</ele><time>2026-04-08T11:36:26.001Z</time></trkpt><trkpt lat="51.77715646897871" lon="16.194147889068816"><ele>95.0</ele><time>2026-04-08T11:36:27.001Z</time></trkpt><trkpt lat="51.777256304045586" lon="16.19426716341886"><ele>95.0</ele><time>2026-04-08T11:36:28.001Z</time></trkpt><trkpt lat="51.777344853941635" lon="16.19439342619023"><ele>95.0</ele><time>2026-04-08T11:36:29.001Z</time></trkpt><trkpt lat="51.777449644180784" lon="16.19449121573426"><ele>95.0</ele><time>2026-04-08T11:36:30.001Z</time></trkpt><trkpt lat="51.777536404185255" lon="16.194597417218585"><ele>95.0</ele><time>2026-04-08T11:36:31.001Z</time></trkpt><trkpt lat="51.777615152425795" lon="16.194684699120607"><ele>95.0</ele><time>2026-04-08T11:36:32.001Z</time></trkpt><trkpt lat="51.77767927514868" lon="16.194783842156898"><ele>95.0</ele><time>2026-04-08T11:36:33.001Z</time></trkpt><trkpt lat="51.77775861657842" lon="16.19484898240671"><ele>95.0</ele><time>2026-04-08T11:36:34.001Z</time></trkpt><trkpt lat="51.77783363153998" lon="16.194939828936846"><ele>95.0</ele><time>2026-04-08T11:36:35.001Z</time></trkpt><trkpt lat="51.77790158890409" lon="16.195047744028326"><ele>95.0</ele><time>2026-04-08T11:36:36.001Z</time></trkpt><trkpt lat="51.77798201639741" lon="16.19514377246157"><ele>95.0</ele><time>2026-04-08T11:36:37.001Z</time></trkpt><trkpt lat="51.77807088349566" lon="16.19522305681429"><ele>95.0</ele><time>2026-04-08T11:36:38.001Z</time></trkpt><trkpt lat="51.77816770617719" lon="16.19533551943917"><ele>95.0</ele><time>2026-04-08T11:36:39.001Z</time></trkpt><trkpt lat="51.778265705371474" lon="16.195451191192465"><ele>95.0</ele><time>2026-04-08T11:36:40.001Z</time></trkpt><trkpt lat="51.77835509508198" lon="16.19558732780609"><ele>95.0</ele><time>2026-04-08T11:36:41.001Z</time></trkpt><trkpt lat="51.77846909805142" lon="16.195690165820956"><ele>95.0</ele><time>2026-04-08T11:36:42.001Z</time></trkpt><trkpt lat="51.778574941496444" lon="16.195816497274457"><ele>95.0</ele><time>2026-04-08T11:36:43.001Z</time></trkpt><trkpt lat="51.778682304934705" lon="16.19593885695483"><ele>95.0</ele><time>2026-04-08T11:36:44.002Z</time></trkpt><trkpt lat="51.77878912258207" lon="16.196064648454357"><ele>96.0</ele><time>2026-04-08T11:36:45.002Z</time></trkpt><trkpt lat="51.77889524464966" lon="16.19621548390289"><ele>97.0</ele><time>2026-04-08T11:36:46.002Z</time></trkpt><trkpt lat="51.77899314781511" lon="16.1963289438686"><ele>98.0</ele><time>2026-04-08T11:36:47.002Z</time></trkpt><trkpt lat="51.77910407149345" lon="16.19642922820093"><ele>99.0</ele><time>2026-04-08T11:36:48.002Z</time></trkpt><trkpt lat="51.779198773461204" lon="16.196541864630646"><ele>99.0</ele><time>2026-04-08T11:36:49.002Z</time></trkpt><trkpt lat="51.77930670566562" lon="16.19666892422535"><ele>99.0</ele><time>2026-04-08T11:36:50.002Z</time></trkpt><trkpt lat="51.779403995101326" lon="16.196811979704567"><ele>99.0</ele><time>2026-04-08T11:36:51.002Z</time></trkpt><trkpt lat="51.77949902229326" lon="16.196924977984715"><ele>99.0</ele><time>2026-04-08T11:36:52.002Z</time></trkpt><trkpt lat="51.77959355607224" lon="16.197013412226667"><ele>99.0</ele><time>2026-04-08T11:36:53.002Z</time></trkpt><trkpt lat="51.77967674129037" lon="16.197136590618687"><ele>99.0</ele><time>2026-04-08T11:36:54.002Z</time></trkpt><trkpt lat="51.779764552433804" lon="16.197240353036452"><ele>99.0</ele><time>2026-04-08T11:36:55.002Z</time></trkpt><trkpt lat="51.77985189732831" lon="16.197345052372356"><ele>99.0</ele><time>2026-04-08T11:36:56.002Z</time></trkpt><trkpt lat="51.77993642740592" lon="16.197413816800253"><ele>99.0</ele><time>2026-04-08T11:36:57.002Z</time></trkpt><trkpt lat="51.78001721970263" lon="16.197544603088055"><ele>99.0</ele><time>2026-04-08T11:36:58.002Z</time></trkpt><trkpt lat="51.78010482420827" lon="16.197619830713453"><ele>99.0</ele><time>2026-04-08T11:36:59.002Z</time></trkpt><trkpt lat="51.78018751192822" lon="16.197719372930656"><ele>99.0</ele><time>2026-04-08T11:37:00.002Z</time></trkpt><trkpt lat="51.78025834377865" lon="16.197804741708577"><ele>99.0</ele><time>2026-04-08T11:37:01.002Z</time></trkpt><trkpt lat="51.78033834854208" lon="16.197913565603287"><ele>99.0</ele><time>2026-04-08T11:37:02.002Z</time></trkpt><trkpt lat="51.78042889320146" lon="16.198003160492345"><ele>99.80000000000001</ele><time>2026-04-08T11:37:03.002Z</time></trkpt><trkpt lat="51.78050820121714" lon="16.198089570564516"><ele>100.60000000000001</ele><time>2026-04-08T11:37:04.002Z</time></trkpt><trkpt lat="51.780576549130444" lon="16.198186080059223"><ele>101.4</ele><time>2026-04-08T11:37:05.002Z</time></trkpt><trkpt lat="51.78065010078704" lon="16.19823737569648"><ele>102.2</ele><time>2026-04-08T11:37:06.002Z</time></trkpt><trkpt lat="51.78069853072568" lon="16.198317983105788"><ele>103.0</ele><time>2026-04-08T11:37:08.002Z</time></trkpt><trkpt lat="51.780796871618286" lon="16.19809629068807"><ele>103.0</ele><time>2026-04-08T11:37:09.002Z</time></trkpt><trkpt lat="51.78082056641182" lon="16.19798738300475"><ele>103.0</ele><time>2026-04-08T11:37:10.002Z</time></trkpt><trkpt lat="51.78085777441358" lon="16.197860746954284"><ele>103.0</ele><time>2026-04-08T11:37:11.002Z</time></trkpt><trkpt lat="51.780915151311994" lon="16.197725632224348"><ele>103.0</ele><time>2026-04-08T11:37:12.002Z</time></trkpt><trkpt lat="51.780953112422615" lon="16.197563990509227"><ele>103.0</ele><time>2026-04-08T11:37:13.002Z</time></trkpt><trkpt lat="51.78101955043468" lon="16.19740203249112"><ele>101.75</ele><time>2026-04-08T11:37:14.002Z</time></trkpt><trkpt lat="51.78109193762113" lon="16.197221899084536"><ele>100.5</ele><time>2026-04-08T11:37:15.002Z</time></trkpt><trkpt lat="51.78117033556981" lon="16.197053306616972"><ele>99.25</ele><time>2026-04-08T11:37:16.002Z</time></trkpt><trkpt lat="51.78126568543991" lon="16.196893305636358"><ele>98.0</ele><time>2026-04-08T11:37:17.002Z</time></trkpt><trkpt lat="51.781347205541636" lon="16.196730491954106"><ele>98.0</ele><time>2026-04-08T11:37:18.002Z</time></trkpt><trkpt lat="51.781432350546545" lon="16.196588046742484"><ele>98.0</ele><time>2026-04-08T11:37:19.002Z</time></trkpt><trkpt lat="51.78153159375782" lon="16.196429059364917"><ele>98.0</ele><time>2026-04-08T11:37:20.002Z</time></trkpt><trkpt lat="51.781625218729346" lon="16.196264338735816"><ele>98.0</ele><time>2026-04-08T11:37:21.002Z</time></trkpt><trkpt lat="51.78170830486375" lon="16.196085897957285"><ele>99.25</ele><time>2026-04-08T11:37:22.002Z</time></trkpt><trkpt lat="51.781805842528584" lon="16.195915079827284"><ele>100.5</ele><time>2026-04-08T11:37:23.002Z</time></trkpt><trkpt lat="51.7819096995886" lon="16.195752730236205"><ele>101.75</ele><time>2026-04-08T11:37:24.002Z</time></trkpt><trkpt lat="51.78200694128159" lon="16.195588649866256"><ele>103.0</ele><time>2026-04-08T11:37:25.002Z</time></trkpt><trkpt lat="51.78209969167036" lon="16.195431264755385"><ele>103.0</ele><time>2026-04-08T11:37:26.002Z</time></trkpt><trkpt lat="51.78220006549961" lon="16.195244782087475"><ele>103.0</ele><time>2026-04-08T11:37:27.002Z</time></trkpt><trkpt lat="51.78230956181458" lon="16.195066234074027"><ele>103.0</ele><time>2026-04-08T11:37:28.002Z</time></trkpt><trkpt lat="51.78241865689308" lon="16.194894760210886"><ele>103.25</ele><time>2026-04-08T11:37:29.002Z</time></trkpt><trkpt lat="51.78252120771504" lon="16.194726066404428"><ele>103.5</ele><time>2026-04-08T11:37:30.002Z</time></trkpt><trkpt lat="51.7826192411621" lon="16.19457292164123"><ele>103.75</ele><time>2026-04-08T11:37:31.002Z</time></trkpt><trkpt lat="51.782721743654896" lon="16.194418963936663"><ele>104.0</ele><time>2026-04-08T11:37:32.002Z</time></trkpt><trkpt lat="51.782807570744914" lon="16.194266625735985"><ele>104.25</ele><time>2026-04-08T11:37:33.002Z</time></trkpt><trkpt lat="51.78288610167745" lon="16.194111588062018"><ele>104.5</ele><time>2026-04-08T11:37:34.002Z</time></trkpt><trkpt lat="51.78297809734476" lon="16.19398871917992"><ele>104.75</ele><time>2026-04-08T11:37:35.003Z</time></trkpt><trkpt lat="51.78306139729371" lon="16.193841439657632"><ele>105.0</ele><time>2026-04-08T11:37:36.003Z</time></trkpt><trkpt lat="51.78314841533464" lon="16.193709073082903"><ele>105.0</ele><time>2026-04-08T11:37:37.003Z</time></trkpt><trkpt lat="51.783236719176784" lon="16.193559674538577"><ele>105.0</ele><time>2026-04-08T11:37:38.003Z</time></trkpt><trkpt lat="51.783331513310486" lon="16.193423737154898"><ele>105.0</ele><time>2026-04-08T11:37:39.003Z</time></trkpt><trkpt lat="51.78342431583171" lon="16.193285093029914"><ele>105.0</ele><time>2026-04-08T11:37:40.003Z</time></trkpt><trkpt lat="51.78351652147236" lon="16.193141437378134"><ele>104.5</ele><time>2026-04-08T11:37:41.001Z</time></trkpt><trkpt lat="51.78360674756091" lon="16.192988687938243"><ele>104.0</ele><time>2026-04-08T11:37:42.001Z</time></trkpt><trkpt lat="51.78369423216176" lon="16.192834711650516"><ele>103.5</ele><time>2026-04-08T11:37:43.001Z</time></trkpt><trkpt lat="51.78379226375328" lon="16.192703017163154"><ele>103.0</ele><time>2026-04-08T11:37:44.001Z</time></trkpt><trkpt lat="51.78387580362696" lon="16.192555947455773"><ele>103.0</ele><time>2026-04-08T11:37:45.001Z</time></trkpt><trkpt lat="51.78396754429938" lon="16.19241776780103"><ele>103.0</ele><time>2026-04-08T11:37:46.001Z</time></trkpt><trkpt lat="51.784043139705446" lon="16.192261207703915"><ele>103.0</ele><time>2026-04-08T11:37:47.001Z</time></trkpt><trkpt lat="51.78412670123773" lon="16.19211168725381"><ele>103.0</ele><time>2026-04-08T11:37:48.001Z</time></trkpt><trkpt lat="51.78421660445581" lon="16.19197013443912"><ele>103.0</ele><time>2026-04-08T11:37:49.001Z</time></trkpt><trkpt lat="51.78430402165893" lon="16.191808133983105"><ele>103.0</ele><time>2026-04-08T11:37:50.001Z</time></trkpt><trkpt lat="51.784408260558855" lon="16.191680855549635"><ele>103.0</ele><time>2026-04-08T11:37:51.001Z</time></trkpt><trkpt lat="51.78450483315746" lon="16.191549498035773"><ele>103.0</ele><time>2026-04-08T11:37:52.001Z</time></trkpt><trkpt lat="51.78459067882565" lon="16.191406293182343"><ele>103.0</ele><time>2026-04-08T11:37:53.001Z</time></trkpt><trkpt lat="51.78467363645133" lon="16.191278310500984"><ele>103.0</ele><time>2026-04-08T11:37:54.001Z</time></trkpt><trkpt lat="51.784763095327854" lon="16.19114367945987"><ele>103.0</ele><time>2026-04-08T11:37:55.001Z</time></trkpt><trkpt lat="51.784849786441896" lon="16.190998538471636"><ele>103.0</ele><time>2026-04-08T11:37:56.001Z</time></trkpt><trkpt lat="51.78494102105213" lon="16.19085873004195"><ele>103.0</ele><time>2026-04-08T11:37:57.001Z</time></trkpt><trkpt lat="51.7850324401131" lon="16.19071960148622"><ele>103.0</ele><time>2026-04-08T11:37:58.001Z</time></trkpt><trkpt lat="51.78512070336849" lon="16.19059940571246"><ele>103.0</ele><time>2026-04-08T11:37:59.001Z</time></trkpt><trkpt lat="51.78520335458632" lon="16.190487115995005"><ele>103.0</ele><time>2026-04-08T11:38:00.001Z</time></trkpt><trkpt lat="51.78528608630458" lon="16.190355161814587"><ele>103.75</ele><time>2026-04-08T11:38:01.001Z</time></trkpt><trkpt lat="51.78536692628621" lon="16.19021473536845"><ele>104.5</ele><time>2026-04-08T11:38:02.001Z</time></trkpt><trkpt lat="51.78544902131756" lon="16.190069742628765"><ele>105.25</ele><time>2026-04-08T11:38:03.001Z</time></trkpt><trkpt lat="51.78553361188674" lon="16.189929305265782"><ele>106.0</ele><time>2026-04-08T11:38:04.001Z</time></trkpt><trkpt lat="51.78562940122075" lon="16.18978525920308"><ele>106.0</ele><time>2026-04-08T11:38:05.001Z</time></trkpt><trkpt lat="51.78572452413928" lon="16.189647429610307"><ele>106.0</ele><time>2026-04-08T11:38:06.001Z</time></trkpt><trkpt lat="51.78581860957278" lon="16.18950606216059"><ele>106.0</ele><time>2026-04-08T11:38:07.001Z</time></trkpt><trkpt lat="51.78591110880212" lon="16.18936578000026"><ele>106.0</ele><time>2026-04-08T11:38:08.001Z</time></trkpt><trkpt lat="51.78599158436107" lon="16.18922555858481"><ele>107.0</ele><time>2026-04-08T11:38:09.001Z</time></trkpt><trkpt lat="51.786072200944965" lon="16.189088675966705"><ele>108.0</ele><time>2026-04-08T11:38:10.001Z</time></trkpt><trkpt lat="51.786155417587956" lon="16.188953263171328"><ele>109.0</ele><time>2026-04-08T11:38:11.001Z</time></trkpt><trkpt lat="51.786247405183786" lon="16.18882123031566"><ele>110.0</ele><time>2026-04-08T11:38:12.001Z</time></trkpt><trkpt lat="51.78632960359011" lon="16.188679099788164"><ele>110.0</ele><time>2026-04-08T11:38:13.001Z</time></trkpt><trkpt lat="51.78640934451723" lon="16.188547757670822"><ele>110.0</ele><time>2026-04-08T11:38:14.001Z</time></trkpt><trkpt lat="51.786486335758745" lon="16.188420518624405"><ele>110.0</ele><time>2026-04-08T11:38:15.001Z</time></trkpt><trkpt lat="51.78656567532554" lon="16.18828512227419"><ele>110.0</ele><time>2026-04-08T11:38:16.001Z</time></trkpt><trkpt lat="51.786647792852456" lon="16.188150685211262"><ele>110.5</ele><time>2026-04-08T11:38:17.001Z</time></trkpt><trkpt lat="51.786737959707885" lon="16.188018549579397"><ele>111.0</ele><time>2026-04-08T11:38:18.001Z</time></trkpt><trkpt lat="51.78683000096393" lon="16.18788256089064"><ele>111.5</ele><time>2026-04-08T11:38:19.001Z</time></trkpt><trkpt lat="51.78691966745277" lon="16.187751661239414"><ele>112.0</ele><time>2026-04-08T11:38:20.001Z</time></trkpt><trkpt lat="51.787003083911664" lon="16.187603477936023"><ele>112.25</ele><time>2026-04-08T11:38:21.001Z</time></trkpt><trkpt lat="51.78709180334978" lon="16.18746752474492"><ele>112.5</ele><time>2026-04-08T11:38:22.001Z</time></trkpt><trkpt lat="51.787182870512844" lon="16.18732371730399"><ele>112.75</ele><time>2026-04-08T11:38:23.001Z</time></trkpt><trkpt lat="51.78727698887732" lon="16.187186078651497"><ele>113.0</ele><time>2026-04-08T11:38:24.001Z</time></trkpt><trkpt lat="51.78736467542201" lon="16.18703976144241"><ele>113.0</ele><time>2026-04-08T11:38:25.001Z</time></trkpt><trkpt lat="51.78745978844636" lon="16.186906014605718"><ele>113.0</ele><time>2026-04-08T11:38:26.001Z</time></trkpt><trkpt lat="51.78755157115145" lon="16.186757835934902"><ele>113.0</ele><time>2026-04-08T11:38:27.001Z</time></trkpt><trkpt lat="51.78764346220321" lon="16.186617356837882"><ele>113.0</ele><time>2026-04-08T11:38:28.001Z</time></trkpt><trkpt lat="51.78774283669319" lon="16.18647344520494"><ele>113.0</ele><time>2026-04-08T11:38:29.001Z</time></trkpt><trkpt lat="51.787827072595704" lon="16.18634479423184"><ele>113.0</ele><time>2026-04-08T11:38:30.001Z</time></trkpt><trkpt lat="51.78791111611958" lon="16.186195764991783"><ele>113.0</ele><time>2026-04-08T11:38:31.001Z</time></trkpt><trkpt lat="51.78799571278266" lon="16.18604117625685"><ele>113.0</ele><time>2026-04-08T11:38:32.001Z</time></trkpt><trkpt lat="51.78808412768781" lon="16.185895316604665"><ele>113.0</ele><time>2026-04-08T11:38:33.001Z</time></trkpt><trkpt lat="51.78818015539829" lon="16.185771827461544"><ele>113.0</ele><time>2026-04-08T11:38:34.001Z</time></trkpt><trkpt lat="51.78827137118048" lon="16.185641066886696"><ele>113.0</ele><time>2026-04-08T11:38:35.001Z</time></trkpt><trkpt lat="51.788353505221174" lon="16.185503410676603"><ele>113.0</ele><time>2026-04-08T11:38:36.001Z</time></trkpt><trkpt lat="51.78843928552729" lon="16.185371051592625"><ele>113.0</ele><time>2026-04-08T11:38:37.001Z</time></trkpt><trkpt lat="51.78852467152791" lon="16.185226044799414"><ele>113.0</ele><time>2026-04-08T11:38:38.001Z</time></trkpt><trkpt lat="51.78860932664181" lon="16.185074540139954"><ele>113.0</ele><time>2026-04-08T11:38:39.001Z</time></trkpt><trkpt lat="51.78869587981516" lon="16.18492774093101"><ele>113.0</ele><time>2026-04-08T11:38:40.001Z</time></trkpt><trkpt lat="51.78879205641648" lon="16.184783026297065"><ele>113.0</ele><time>2026-04-08T11:38:41.001Z</time></trkpt><trkpt lat="51.788883025341576" lon="16.184640503311996"><ele>113.0</ele><time>2026-04-08T11:38:42.001Z</time></trkpt><trkpt lat="51.78897937051826" lon="16.184492192586454"><ele>113.0</ele><time>2026-04-08T11:38:43.001Z</time></trkpt><trkpt lat="51.78907092071013" lon="16.18434248342268"><ele>113.0</ele><time>2026-04-08T11:38:44.001Z</time></trkpt><trkpt lat="51.789162313750765" lon="16.18419336981365"><ele>113.0</ele><time>2026-04-08T11:38:45.001Z</time></trkpt><trkpt lat="51.78925811871795" lon="16.184064927088997"><ele>113.00000000000001</ele><time>2026-04-08T11:38:46.001Z</time></trkpt><trkpt lat="51.78932489524521" lon="16.183937913065535"><ele>113.00000000000001</ele><time>2026-04-08T11:38:47.001Z</time></trkpt><trkpt lat="51.78939430331842" lon="16.183821407803563"><ele>113.0</ele><time>2026-04-08T11:38:48.001Z</time></trkpt><trkpt lat="51.789452226202705" lon="16.183705747896525"><ele>113.0</ele><time>2026-04-08T11:38:49.001Z</time></trkpt><trkpt lat="51.789513228839304" lon="16.18360481780879"><ele>113.4</ele><time>2026-04-08T11:38:50.001Z</time></trkpt><trkpt lat="51.789581588052116" lon="16.183504398911477"><ele>113.80000000000001</ele><time>2026-04-08T11:38:51.001Z</time></trkpt><trkpt lat="51.78964492505367" lon="16.18339714430769"><ele>114.2</ele><time>2026-04-08T11:38:52.001Z</time></trkpt><trkpt lat="51.78972390428905" lon="16.183280968478645"><ele>114.6</ele><time>2026-04-08T11:38:53.001Z</time></trkpt><trkpt lat="51.789812110596884" lon="16.18314660367285"><ele>115.0</ele><time>2026-04-08T11:38:54.001Z</time></trkpt><trkpt lat="51.789897878383115" lon="16.183008184481203"><ele>115.4</ele><time>2026-04-08T11:38:55.002Z</time></trkpt><trkpt lat="51.78998106366082" lon="16.18286389804267"><ele>115.8</ele><time>2026-04-08T11:38:56.002Z</time></trkpt><trkpt lat="51.79006709082647" lon="16.182726782404455"><ele>116.19999999999999</ele><time>2026-04-08T11:38:57.002Z</time></trkpt><trkpt lat="51.79014010489522" lon="16.182619699172665"><ele>116.6</ele><time>2026-04-08T11:38:58.002Z</time></trkpt><trkpt lat="51.79021283729353" lon="16.182531065680863"><ele>117.0</ele><time>2026-04-08T11:38:59.002Z</time></trkpt><trkpt lat="51.79027575939091" lon="16.182421981097054"><ele>116.6</ele><time>2026-04-08T11:39:00.002Z</time></trkpt><trkpt lat="51.79034848764063" lon="16.182308818200173"><ele>116.19999999999999</ele><time>2026-04-08T11:39:01.002Z</time></trkpt><trkpt lat="51.790420648217" lon="16.182194755479546"><ele>115.8</ele><time>2026-04-08T11:39:02.002Z</time></trkpt><trkpt lat="51.79049526486306" lon="16.18209225537853"><ele>115.4</ele><time>2026-04-08T11:39:03.002Z</time></trkpt><trkpt lat="51.790570792531" lon="16.18198040261452"><ele>115.0</ele><time>2026-04-08T11:39:04.002Z</time></trkpt><trkpt lat="51.790646736750006" lon="16.181869584221143"><ele>115.0</ele><time>2026-04-08T11:39:05.002Z</time></trkpt><trkpt lat="51.79072340616287" lon="16.181751125288322"><ele>115.0</ele><time>2026-04-08T11:39:06.002Z</time></trkpt><trkpt lat="51.79079926648422" lon="16.181637064809934"><ele>115.0</ele><time>2026-04-08T11:39:07.002Z</time></trkpt><trkpt lat="51.79086704945582" lon="16.18150656340959"><ele>115.0</ele><time>2026-04-08T11:39:08.002Z</time></trkpt><trkpt lat="51.79094412786084" lon="16.18138030126738"><ele>115.0</ele><time>2026-04-08T11:39:09.002Z</time></trkpt><trkpt lat="51.79102149746784" lon="16.18124412505705"><ele>113.16666666666667</ele><time>2026-04-08T11:39:10.002Z</time></trkpt><trkpt lat="51.79109639146592" lon="16.181110452966468"><ele>111.33333333333334</ele><time>2026-04-08T11:39:11.002Z</time></trkpt><trkpt lat="51.79114910497468" lon="16.180985191953283"><ele>109.5</ele><time>2026-04-08T11:39:12.002Z</time></trkpt><trkpt lat="51.79118785697169" lon="16.18087688998934"><ele>107.66666666666666</ele><time>2026-04-08T11:39:13.002Z</time></trkpt><trkpt lat="51.79121910606156" lon="16.180770390243605"><ele>105.83333333333333</ele><time>2026-04-08T11:39:14.002Z</time></trkpt><trkpt lat="51.79123421946705" lon="16.180652318154014"><ele>104.0</ele><time>2026-04-08T11:39:15.002Z</time></trkpt><trkpt lat="51.791223504723284" lon="16.18052508097103"><ele>104.0</ele><time>2026-04-08T11:39:16.002Z</time></trkpt><trkpt lat="51.79120442476581" lon="16.180399441635842"><ele>104.0</ele><time>2026-04-08T11:39:17.002Z</time></trkpt><trkpt lat="51.791187823965984" lon="16.180268478284038"><ele>104.0</ele><time>2026-04-08T11:39:18.002Z</time></trkpt><trkpt lat="51.79117786936558" lon="16.18012523220642"><ele>104.0</ele><time>2026-04-08T11:39:19.002Z</time></trkpt><trkpt lat="51.79117741721905" lon="16.17997079932446"><ele>104.0</ele><time>2026-04-08T11:39:20.002Z</time></trkpt><trkpt lat="51.791174683642396" lon="16.179800966214685"><ele>104.0</ele><time>2026-04-08T11:39:21.002Z</time></trkpt><trkpt lat="51.791162074222164" lon="16.179632939830643"><ele>104.0</ele><time>2026-04-08T11:39:22.002Z</time></trkpt><trkpt lat="51.79115958193173" lon="16.179477277914987"><ele>104.0</ele><time>2026-04-08T11:39:23.002Z</time></trkpt><trkpt lat="51.79116376166268" lon="16.179323509406633"><ele>104.0</ele><time>2026-04-08T11:39:24.002Z</time></trkpt><trkpt lat="51.791165958695274" lon="16.179171071227618"><ele>104.0</ele><time>2026-04-08T11:39:25.002Z</time></trkpt><trkpt lat="51.791161714307854" lon="16.17902140330732"><ele>104.2</ele><time>2026-04-08T11:39:26.002Z</time></trkpt><trkpt lat="51.791165545706775" lon="16.178870825065278"><ele>104.4</ele><time>2026-04-08T11:39:27.002Z</time></trkpt><trkpt lat="51.79116458106664" lon="16.178718599463835"><ele>104.6</ele><time>2026-04-08T11:39:28.002Z</time></trkpt><trkpt lat="51.791166044973316" lon="16.178565121554385"><ele>104.8</ele><time>2026-04-08T11:39:29.002Z</time></trkpt><trkpt lat="51.791169412698004" lon="16.17840699345245"><ele>105.0</ele><time>2026-04-08T11:39:30.002Z</time></trkpt><trkpt lat="51.79118535959582" lon="16.178245269308707"><ele>105.2</ele><time>2026-04-08T11:39:31.002Z</time></trkpt><trkpt lat="51.79121250233579" lon="16.17808863770852"><ele>105.4</ele><time>2026-04-08T11:39:32.002Z</time></trkpt><trkpt lat="51.79123523623174" lon="16.177931726578773"><ele>105.6</ele><time>2026-04-08T11:39:33.002Z</time></trkpt><trkpt lat="51.79126677815469" lon="16.177783073252467"><ele>105.8</ele><time>2026-04-08T11:39:34.002Z</time></trkpt><trkpt lat="51.791298363063056" lon="16.17764788384406"><ele>106.0</ele><time>2026-04-08T11:39:35.002Z</time></trkpt><trkpt lat="51.79135487650124" lon="16.17749696140142"><ele>106.0</ele><time>2026-04-08T11:39:36.002Z</time></trkpt><trkpt lat="51.791406798825605" lon="16.177353717893258"><ele>106.0</ele><time>2026-04-08T11:39:37.002Z</time></trkpt><trkpt lat="51.79144217675743" lon="16.177217049637424"><ele>106.0</ele><time>2026-04-08T11:39:38.002Z</time></trkpt><trkpt lat="51.79148315460945" lon="16.177078999693098"><ele>106.0</ele><time>2026-04-08T11:39:39.002Z</time></trkpt><trkpt lat="51.79154006252405" lon="16.176940496209834"><ele>106.0</ele><time>2026-04-08T11:39:40.002Z</time></trkpt><trkpt lat="51.79157432221745" lon="16.17679467806405"><ele>106.8</ele><time>2026-04-08T11:39:41.002Z</time></trkpt><trkpt lat="51.79161443745838" lon="16.176657234770353"><ele>107.6</ele><time>2026-04-08T11:39:42.002Z</time></trkpt><trkpt lat="51.79166590444138" lon="16.176513166534747"><ele>108.4</ele><time>2026-04-08T11:39:43.002Z</time></trkpt><trkpt lat="51.791725475793655" lon="16.176383285028678"><ele>109.2</ele><time>2026-04-08T11:39:44.002Z</time></trkpt><trkpt lat="51.79177732688901" lon="16.17624783358006"><ele>110.0</ele><time>2026-04-08T11:39:45.002Z</time></trkpt><trkpt lat="51.79183832034899" lon="16.176112412314914"><ele>110.0</ele><time>2026-04-08T11:39:46.002Z</time></trkpt><trkpt lat="51.79190077553545" lon="16.175980437995175"><ele>110.0</ele><time>2026-04-08T11:39:47.002Z</time></trkpt><trkpt lat="51.79196669420559" lon="16.175846661777502"><ele>110.0</ele><time>2026-04-08T11:39:48.002Z</time></trkpt><trkpt lat="51.792028957363186" lon="16.175699323305306"><ele>110.0</ele><time>2026-04-08T11:39:49.002Z</time></trkpt><trkpt lat="51.79208911203029" lon="16.175568184191068"><ele>110.0</ele><time>2026-04-08T11:39:50.002Z</time></trkpt><trkpt lat="51.79215011262835" lon="16.175446057001068"><ele>110.0</ele><time>2026-04-08T11:39:51.002Z</time></trkpt><trkpt lat="51.792204581981736" lon="16.17529979227213"><ele>110.0</ele><time>2026-04-08T11:39:52.002Z</time></trkpt><trkpt lat="51.79226632328353" lon="16.175167595121508"><ele>110.0</ele><time>2026-04-08T11:39:53.002Z</time></trkpt><trkpt lat="51.79232861978294" lon="16.17502644012549"><ele>110.0</ele><time>2026-04-08T11:39:54.002Z</time></trkpt><trkpt lat="51.79238635900767" lon="16.174882668298686"><ele>110.0</ele><time>2026-04-08T11:39:55.002Z</time></trkpt><trkpt lat="51.79244767259948" lon="16.174749532747235"><ele>109.25</ele><time>2026-04-08T11:39:56.002Z</time></trkpt><trkpt lat="51.79250322658854" lon="16.174601570195865"><ele>108.5</ele><time>2026-04-08T11:39:57.002Z</time></trkpt><trkpt lat="51.792561753974226" lon="16.17444591369177"><ele>107.75</ele><time>2026-04-08T11:39:58.002Z</time></trkpt><trkpt lat="51.79262977814433" lon="16.174286002959413"><ele>107.0</ele><time>2026-04-08T11:39:59.001Z</time></trkpt><trkpt lat="51.79270013871269" lon="16.17411731437783"><ele>107.5</ele><time>2026-04-08T11:40:00.001Z</time></trkpt><trkpt lat="51.79276886240491" lon="16.17394406722668"><ele>108.0</ele><time>2026-04-08T11:40:01.001Z</time></trkpt><trkpt lat="51.792842444267485" lon="16.17378473019507"><ele>108.5</ele><time>2026-04-08T11:40:02.001Z</time></trkpt><trkpt lat="51.79291775715863" lon="16.173642822394008"><ele>109.0</ele><time>2026-04-08T11:40:03.001Z</time></trkpt><trkpt lat="51.79298778973795" lon="16.173499516206448"><ele>109.0</ele><time>2026-04-08T11:40:04.001Z</time></trkpt><trkpt lat="51.79304639389582" lon="16.17335380076733"><ele>109.0</ele><time>2026-04-08T11:40:05.001Z</time></trkpt><trkpt lat="51.79309564389864" lon="16.17321533768681"><ele>109.0</ele><time>2026-04-08T11:40:06.001Z</time></trkpt><trkpt lat="51.79315153792013" lon="16.173104554651108"><ele>109.0</ele><time>2026-04-08T11:40:07.001Z</time></trkpt><trkpt lat="51.793204875086005" lon="16.172990220135926"><ele>109.0</ele><time>2026-04-08T11:40:08.001Z</time></trkpt><trkpt lat="51.79325979036553" lon="16.17285778636455"><ele>110.4</ele><time>2026-04-08T11:40:09.001Z</time></trkpt><trkpt lat="51.7933187774191" lon="16.172730218349106"><ele>111.80000000000001</ele><time>2026-04-08T11:40:10.001Z</time></trkpt><trkpt lat="51.79338234253983" lon="16.172606507908664"><ele>113.19999999999999</ele><time>2026-04-08T11:40:11.001Z</time></trkpt><trkpt lat="51.79343986061715" lon="16.172476305432106"><ele>114.6</ele><time>2026-04-08T11:40:12.001Z</time></trkpt><trkpt lat="51.79350546248423" lon="16.172347030459072"><ele>116.0</ele><time>2026-04-08T11:40:13.001Z</time></trkpt><trkpt lat="51.79356557967515" lon="16.172193232859744"><ele>116.75</ele><time>2026-04-08T11:40:14.001Z</time></trkpt><trkpt lat="51.79363625103213" lon="16.17204585394224"><ele>117.5</ele><time>2026-04-08T11:40:15.001Z</time></trkpt><trkpt lat="51.79369948133252" lon="16.17188237779721"><ele>118.25</ele><time>2026-04-08T11:40:16.001Z</time></trkpt><trkpt lat="51.79378098942102" lon="16.17173737441902"><ele>119.0</ele><time>2026-04-08T11:40:17.001Z</time></trkpt><trkpt lat="51.79385573400593" lon="16.1715944555909"><ele>119.25</ele><time>2026-04-08T11:40:18.001Z</time></trkpt><trkpt lat="51.79393884518585" lon="16.171472360644266"><ele>119.5</ele><time>2026-04-08T11:40:19.001Z</time></trkpt><trkpt lat="51.79402392617101" lon="16.17132839482631"><ele>119.75</ele><time>2026-04-08T11:40:20.001Z</time></trkpt><trkpt lat="51.79410693743473" lon="16.17118429679593"><ele>120.0</ele><time>2026-04-08T11:40:21.001Z</time></trkpt><trkpt lat="51.79418837741536" lon="16.17105511320936"><ele>120.0</ele><time>2026-04-08T11:40:22.001Z</time></trkpt><trkpt lat="51.794273532639544" lon="16.170938296487535"><ele>120.0</ele><time>2026-04-08T11:40:23.001Z</time></trkpt><trkpt lat="51.794351007096765" lon="16.170796231909378"><ele>120.0</ele><time>2026-04-08T11:40:24.001Z</time></trkpt><trkpt lat="51.79444475166057" lon="16.170664738756255"><ele>120.0</ele><time>2026-04-08T11:40:25.001Z</time></trkpt><trkpt lat="51.794540651288514" lon="16.170537706607394"><ele>119.0</ele><time>2026-04-08T11:40:26.001Z</time></trkpt><trkpt lat="51.7946285817715" lon="16.17041169876833"><ele>118.0</ele><time>2026-04-08T11:40:27.001Z</time></trkpt><trkpt lat="51.7947112873729" lon="16.17029860969953"><ele>117.0</ele><time>2026-04-08T11:40:28.001Z</time></trkpt><trkpt lat="51.79480826960031" lon="16.170189256048587"><ele>116.0</ele><time>2026-04-08T11:40:29.001Z</time></trkpt><trkpt lat="51.794890781855635" lon="16.170054807219287"><ele>116.0</ele><time>2026-04-08T11:40:30.001Z</time></trkpt><trkpt lat="51.794972516910235" lon="16.169929097040782"><ele>116.0</ele><time>2026-04-08T11:40:31.001Z</time></trkpt><trkpt lat="51.795057210437626" lon="16.169795145360236"><ele>116.0</ele><time>2026-04-08T11:40:32.001Z</time></trkpt><trkpt lat="51.79515208627918" lon="16.169671149061273"><ele>116.0</ele><time>2026-04-08T11:40:33.001Z</time></trkpt><trkpt lat="51.7952606849515" lon="16.169551810493644"><ele>117.0</ele><time>2026-04-08T11:40:34.001Z</time></trkpt><trkpt lat="51.79535904297776" lon="16.169433887260954"><ele>118.0</ele><time>2026-04-08T11:40:35.001Z</time></trkpt><trkpt lat="51.795458147305055" lon="16.16931246693341"><ele>119.0</ele><time>2026-04-08T11:40:36.001Z</time></trkpt><trkpt lat="51.79556591068252" lon="16.16919342868748"><ele>120.0</ele><time>2026-04-08T11:40:37.001Z</time></trkpt><trkpt lat="51.79565928185137" lon="16.169076608243657"><ele>120.25</ele><time>2026-04-08T11:40:38.001Z</time></trkpt><trkpt lat="51.7957629389261" lon="16.168941147448532"><ele>120.5</ele><time>2026-04-08T11:40:39.001Z</time></trkpt><trkpt lat="51.79586805864628" lon="16.168825489968004"><ele>120.75</ele><time>2026-04-08T11:40:40.001Z</time></trkpt><trkpt lat="51.795968632487195" lon="16.168697030788646"><ele>121.0</ele><time>2026-04-08T11:40:41.001Z</time></trkpt><trkpt lat="51.79606777496803" lon="16.168594629720786"><ele>120.0</ele><time>2026-04-08T11:40:42.001Z</time></trkpt><trkpt lat="51.79615883994624" lon="16.168484123891428"><ele>119.0</ele><time>2026-04-08T11:40:43.001Z</time></trkpt><trkpt lat="51.796245886480335" lon="16.168384975355426"><ele>118.0</ele><time>2026-04-08T11:40:44.001Z</time></trkpt><trkpt lat="51.796343070109224" lon="16.168319807817156"><ele>117.0</ele><time>2026-04-08T11:40:45.001Z</time></trkpt><trkpt lat="51.79644499604749" lon="16.168260050998043"><ele>116.0</ele><time>2026-04-08T11:40:46.001Z</time></trkpt><trkpt lat="51.7965426756086" lon="16.16817625894181"><ele>116.0</ele><time>2026-04-08T11:40:47.001Z</time></trkpt><trkpt lat="51.79663646306497" lon="16.168095085250197"><ele>116.0</ele><time>2026-04-08T11:40:48.001Z</time></trkpt><trkpt lat="51.796729028313194" lon="16.167995370046597"><ele>116.0</ele><time>2026-04-08T11:40:49.001Z</time></trkpt><trkpt lat="51.796813475108735" lon="16.167880998732613"><ele>116.0</ele><time>2026-04-08T11:40:50.001Z</time></trkpt><trkpt lat="51.79690970851242" lon="16.167765392134836"><ele>116.0</ele><time>2026-04-08T11:40:51.001Z</time></trkpt><trkpt lat="51.7970076897252" lon="16.16762379625884"><ele>115.5</ele><time>2026-04-08T11:40:52.001Z</time></trkpt><trkpt lat="51.797105762428586" lon="16.167495246416483"><ele>115.0</ele><time>2026-04-08T11:40:53.001Z</time></trkpt><trkpt lat="51.79719337689366" lon="16.16736060259381"><ele>114.5</ele><time>2026-04-08T11:40:54.001Z</time></trkpt><trkpt lat="51.79728407011103" lon="16.16723067405033"><ele>114.0</ele><time>2026-04-08T11:40:55.001Z</time></trkpt><trkpt lat="51.79739031542915" lon="16.167107350864523"><ele>114.0</ele><time>2026-04-08T11:40:56.001Z</time></trkpt><trkpt lat="51.79749184316485" lon="16.16696823655768"><ele>114.0</ele><time>2026-04-08T11:40:57.001Z</time></trkpt><trkpt lat="51.79761201411922" lon="16.166884484260187"><ele>114.0</ele><time>2026-04-08T11:40:58.001Z</time></trkpt><trkpt lat="51.79771755939639" lon="16.166771459601772"><ele>114.0</ele><time>2026-04-08T11:40:59.001Z</time></trkpt><trkpt lat="51.79780190179373" lon="16.166668006236993"><ele>112.0</ele><time>2026-04-08T11:41:00.001Z</time></trkpt><trkpt lat="51.79788625985538" lon="16.166545624257125"><ele>110.0</ele><time>2026-04-08T11:41:01.001Z</time></trkpt><trkpt lat="51.79795616703106" lon="16.16643052870622"><ele>108.0</ele><time>2026-04-08T11:41:02.001Z</time></trkpt><trkpt lat="51.7980106751776" lon="16.16627308851125"><ele>106.0</ele><time>2026-04-08T11:41:03.001Z</time></trkpt><trkpt lat="51.79805549070524" lon="16.166119837964406"><ele>104.0</ele><time>2026-04-08T11:41:04.001Z</time></trkpt><trkpt lat="51.79811820024772" lon="16.16594559447464"><ele>104.0</ele><time>2026-04-08T11:41:05.001Z</time></trkpt><trkpt lat="51.79817270944996" lon="16.16577873788838"><ele>104.0</ele><time>2026-04-08T11:41:06.002Z</time></trkpt><trkpt lat="51.798229428349565" lon="16.16560497447614"><ele>104.0</ele><time>2026-04-08T11:41:07.002Z</time></trkpt><trkpt lat="51.798285371407076" lon="16.16541894626089"><ele>104.0</ele><time>2026-04-08T11:41:08.002Z</time></trkpt><trkpt lat="51.7983387281412" lon="16.1652368157198"><ele>104.0</ele><time>2026-04-08T11:41:09.002Z</time></trkpt><trkpt lat="51.798395240250954" lon="16.165052930655786"><ele>104.0</ele><time>2026-04-08T11:41:10.002Z</time></trkpt><trkpt lat="51.79844867146362" lon="16.164886440154742"><ele>104.0</ele><time>2026-04-08T11:41:11.002Z</time></trkpt><trkpt lat="51.79849630552114" lon="16.16474445063155"><ele>104.0</ele><time>2026-04-08T11:41:12.002Z</time></trkpt><trkpt lat="51.79857179775477" lon="16.16461861517092"><ele>103.99999999999999</ele><time>2026-04-08T11:41:13.002Z</time></trkpt><trkpt lat="51.79862188060311" lon="16.1644952902912"><ele>104.0</ele><time>2026-04-08T11:41:14.002Z</time></trkpt><trkpt lat="51.7986807298704" lon="16.16438079758085"><ele>104.0</ele><time>2026-04-08T11:41:15.002Z</time></trkpt><trkpt lat="51.79873410153442" lon="16.16427705898118"><ele>104.0</ele><time>2026-04-08T11:41:16.002Z</time></trkpt><trkpt lat="51.798800053914626" lon="16.16416200016026"><ele>103.99999999999999</ele><time>2026-04-08T11:41:17.002Z</time></trkpt><trkpt lat="51.79885568631848" lon="16.164062576714908"><ele>104.0</ele><time>2026-04-08T11:41:18.002Z</time></trkpt><trkpt lat="51.79891815704843" lon="16.164009011938845"><ele>104.99999999999999</ele><time>2026-04-08T11:41:19.002Z</time></trkpt><trkpt lat="51.7989758862767" lon="16.16395516055465"><ele>106.0</ele><time>2026-04-08T11:41:20.002Z</time></trkpt><trkpt lat="51.79903866050505" lon="16.16391065319848"><ele>107.0</ele><time>2026-04-08T11:41:21.002Z</time></trkpt><trkpt lat="51.79910978368613" lon="16.16388713605185"><ele>108.0</ele><time>2026-04-08T11:41:22.002Z</time></trkpt><trkpt lat="51.79919125093026" lon="16.163869228412995"><ele>108.99999999999999</ele><time>2026-04-08T11:41:23.002Z</time></trkpt><trkpt lat="51.7992881242911" lon="16.163892726339764"><ele>110.0</ele><time>2026-04-08T11:41:24.002Z</time></trkpt><trkpt lat="51.799385238814644" lon="16.163904909281314"><ele>110.4</ele><time>2026-04-08T11:41:25.002Z</time></trkpt><trkpt lat="51.79947918804663" lon="16.16391991692478"><ele>110.8</ele><time>2026-04-08T11:41:26.002Z</time></trkpt><trkpt lat="51.79958524770629" lon="16.163956477162795"><ele>111.19999999999999</ele><time>2026-04-08T11:41:27.002Z</time></trkpt><trkpt lat="51.799699016837614" lon="16.163988540429553"><ele>111.6</ele><time>2026-04-08T11:41:28.002Z</time></trkpt><trkpt lat="51.79981385024016" lon="16.163992701144114"><ele>112.0</ele><time>2026-04-08T11:41:29.002Z</time></trkpt><trkpt lat="51.79991641055932" lon="16.164000889340848"><ele>112.00000000000001</ele><time>2026-04-08T11:41:30.002Z</time></trkpt><trkpt lat="51.80000861140559" lon="16.163977385250995"><ele>112.0</ele><time>2026-04-08T11:41:31.002Z</time></trkpt><trkpt lat="51.8000935202349" lon="16.163943442693856"><ele>112.0</ele><time>2026-04-08T11:41:32.002Z</time></trkpt><trkpt lat="51.8001591808646" lon="16.16389992738899"><ele>112.0</ele><time>2026-04-08T11:41:33.002Z</time></trkpt><trkpt lat="51.800218209503775" lon="16.163836742931963"><ele>112.00000000000001</ele><time>2026-04-08T11:41:34.002Z</time></trkpt><trkpt lat="51.800287606934546" lon="16.163751737381826"><ele>112.0</ele><time>2026-04-08T11:41:35.002Z</time></trkpt><trkpt lat="51.800357282155964" lon="16.16364742917102"><ele>111.6</ele><time>2026-04-08T11:41:36.002Z</time></trkpt><trkpt lat="51.800444041409555" lon="16.16354502711379"><ele>111.19999999999999</ele><time>2026-04-08T11:41:37.002Z</time></trkpt><trkpt lat="51.80053921013002" lon="16.163433419717286"><ele>110.8</ele><time>2026-04-08T11:41:38.002Z</time></trkpt><trkpt lat="51.80062594175474" lon="16.16333606499203"><ele>110.4</ele><time>2026-04-08T11:41:39.002Z</time></trkpt><trkpt lat="51.8007111697566" lon="16.16325859384239"><ele>110.0</ele><time>2026-04-08T11:41:40.002Z</time></trkpt><trkpt lat="51.80079590948214" lon="16.16316813978044"><ele>110.0</ele><time>2026-04-08T11:41:41.002Z</time></trkpt><trkpt lat="51.800890474619024" lon="16.16307282605511"><ele>110.0</ele><time>2026-04-08T11:41:42.002Z</time></trkpt><trkpt lat="51.800985568907855" lon="16.16296650394382"><ele>110.0</ele><time>2026-04-08T11:41:43.002Z</time></trkpt><trkpt lat="51.80107787251056" lon="16.162854326020852"><ele>110.0</ele><time>2026-04-08T11:41:44.002Z</time></trkpt><trkpt lat="51.80116509513405" lon="16.162766369417294"><ele>110.0</ele><time>2026-04-08T11:41:45.002Z</time></trkpt><trkpt lat="51.80123535224605" lon="16.162691191812048"><ele>109.49999999999999</ele><time>2026-04-08T11:41:46.002Z</time></trkpt><trkpt lat="51.80128567481591" lon="16.162602900811958"><ele>109.0</ele><time>2026-04-08T11:41:47.002Z</time></trkpt><trkpt lat="51.80136394864315" lon="16.162557062385588"><ele>108.5</ele><time>2026-04-08T11:41:48.002Z</time></trkpt><trkpt lat="51.801435154604306" lon="16.16250455268388"><ele>108.0</ele><time>2026-04-08T11:41:49.002Z</time></trkpt><trkpt lat="51.80152629901316" lon="16.162443363205902"><ele>107.49999999999999</ele><time>2026-04-08T11:41:50.002Z</time></trkpt><trkpt lat="51.80162093122075" lon="16.162372093573047"><ele>107.0</ele><time>2026-04-08T11:41:51.002Z</time></trkpt><trkpt lat="51.80172137976759" lon="16.162309935605066"><ele>106.8</ele><time>2026-04-08T11:41:52.002Z</time></trkpt><trkpt lat="51.801825575008124" lon="16.162266434379976"><ele>106.6</ele><time>2026-04-08T11:41:53.001Z</time></trkpt><trkpt lat="51.801911428623875" lon="16.16225900816757"><ele>106.39999999999999</ele><time>2026-04-08T11:41:54.001Z</time></trkpt><trkpt lat="51.80199245659474" lon="16.162253047751634"><ele>106.19999999999999</ele><time>2026-04-08T11:41:55.001Z</time></trkpt><trkpt lat="51.80207763533769" lon="16.162241835483613"><ele>106.0</ele><time>2026-04-08T11:41:56.001Z</time></trkpt><trkpt lat="51.8021775943226" lon="16.16220802775898"><ele>105.8</ele><time>2026-04-08T11:41:57.001Z</time></trkpt><trkpt lat="51.8022697953597" lon="16.162149735899845"><ele>105.6</ele><time>2026-04-08T11:41:58.001Z</time></trkpt><trkpt lat="51.802363905309" lon="16.162097944725762"><ele>105.4</ele><time>2026-04-08T11:41:59.001Z</time></trkpt><trkpt lat="51.802461087955656" lon="16.162036925965207"><ele>105.2</ele><time>2026-04-08T11:42:00.001Z</time></trkpt><trkpt lat="51.80253619092562" lon="16.161926030317616"><ele>105.0</ele><time>2026-04-08T11:42:01.001Z</time></trkpt><trkpt lat="51.802613233721814" lon="16.161811288919985"><ele>104.6</ele><time>2026-04-08T11:42:02.001Z</time></trkpt><trkpt lat="51.80269338628318" lon="16.161707496042094"><ele>104.2</ele><time>2026-04-08T11:42:03.001Z</time></trkpt><trkpt lat="51.80275825515444" lon="16.161577531831554"><ele>103.80000000000001</ele><time>2026-04-08T11:42:04.001Z</time></trkpt><trkpt lat="51.80282857263679" lon="16.161440228844647"><ele>103.4</ele><time>2026-04-08T11:42:05.001Z</time></trkpt><trkpt lat="51.802928880274486" lon="16.16131795840295"><ele>103.0</ele><time>2026-04-08T11:42:06.001Z</time></trkpt><trkpt lat="51.80303459301063" lon="16.161191799575064"><ele>103.0</ele><time>2026-04-08T11:42:07.001Z</time></trkpt><trkpt lat="51.80310542399231" lon="16.161037163585863"><ele>103.0</ele><time>2026-04-08T11:42:08.001Z</time></trkpt><trkpt lat="51.8031996657853" lon="16.160893305915796"><ele>103.0</ele><time>2026-04-08T11:42:09.001Z</time></trkpt><trkpt lat="51.80327950142379" lon="16.160770127239076"><ele>103.0</ele><time>2026-04-08T11:42:10.001Z</time></trkpt><trkpt lat="51.8033624255542" lon="16.160656978712822"><ele>103.0</ele><time>2026-04-08T11:42:11.001Z</time></trkpt><trkpt lat="51.80344037043846" lon="16.160552396515516"><ele>103.0</ele><time>2026-04-08T11:42:12.001Z</time></trkpt><trkpt lat="51.80351411280229" lon="16.160455327223687"><ele>103.0</ele><time>2026-04-08T11:42:13.001Z</time></trkpt><trkpt lat="51.80358173805782" lon="16.160342279756943"><ele>103.0</ele><time>2026-04-08T11:42:14.001Z</time></trkpt><trkpt lat="51.8036619360357" lon="16.160234946139862"><ele>103.0</ele><time>2026-04-08T11:42:15.001Z</time></trkpt><trkpt lat="51.80373552118816" lon="16.1601153425861"><ele>102.80000000000001</ele><time>2026-04-08T11:42:16.001Z</time></trkpt><trkpt lat="51.80380632332763" lon="16.15999529511475"><ele>102.6</ele><time>2026-04-08T11:42:17.001Z</time></trkpt><trkpt lat="51.803895780086435" lon="16.15988661669576"><ele>102.4</ele><time>2026-04-08T11:42:18.001Z</time></trkpt><trkpt lat="51.80397553536581" lon="16.159747284598705"><ele>102.19999999999999</ele><time>2026-04-08T11:42:19.001Z</time></trkpt><trkpt lat="51.804062473593035" lon="16.159627194224655"><ele>102.0</ele><time>2026-04-08T11:42:20.001Z</time></trkpt><trkpt lat="51.80414936329125" lon="16.15950151123336"><ele>102.19999999999999</ele><time>2026-04-08T11:42:21.001Z</time></trkpt><trkpt lat="51.80422741689034" lon="16.159363962652932"><ele>102.4</ele><time>2026-04-08T11:42:22.001Z</time></trkpt><trkpt lat="51.80429830047624" lon="16.159219162962874"><ele>102.6</ele><time>2026-04-08T11:42:23.001Z</time></trkpt><trkpt lat="51.80436493281503" lon="16.159116542777344"><ele>102.80000000000001</ele><time>2026-04-08T11:42:24.001Z</time></trkpt><trkpt lat="51.80443092614845" lon="16.159001304210808"><ele>103.0</ele><time>2026-04-08T11:42:25.001Z</time></trkpt><trkpt lat="51.80450719648838" lon="16.15890855757599"><ele>102.5</ele><time>2026-04-08T11:42:26.001Z</time></trkpt><trkpt lat="51.804592838099" lon="16.158799080894354"><ele>102.0</ele><time>2026-04-08T11:42:27.001Z</time></trkpt><trkpt lat="51.804672043632145" lon="16.158663078077293"><ele>101.5</ele><time>2026-04-08T11:42:28.001Z</time></trkpt><trkpt lat="51.80475072397071" lon="16.15851843034428"><ele>101.0</ele><time>2026-04-08T11:42:29.001Z</time></trkpt><trkpt lat="51.80483522481782" lon="16.158393547735812"><ele>101.0</ele><time>2026-04-08T11:42:30.001Z</time></trkpt><trkpt lat="51.80491754132151" lon="16.158241130711083"><ele>101.0</ele><time>2026-04-08T11:42:31.001Z</time></trkpt><trkpt lat="51.805009253227034" lon="16.1580762348782"><ele>101.0</ele><time>2026-04-08T11:42:32.001Z</time></trkpt><trkpt lat="51.80510005891628" lon="16.157943037325076"><ele>101.0</ele><time>2026-04-08T11:42:33.001Z</time></trkpt><trkpt lat="51.80519795824198" lon="16.157822285971818"><ele>101.25</ele><time>2026-04-08T11:42:34.001Z</time></trkpt><trkpt lat="51.80529166384107" lon="16.157681210911445"><ele>101.5</ele><time>2026-04-08T11:42:35.001Z</time></trkpt><trkpt lat="51.805381643519794" lon="16.15755414784081"><ele>101.75</ele><time>2026-04-08T11:42:36.001Z</time></trkpt><trkpt lat="51.80548023352696" lon="16.157425738557567"><ele>102.0</ele><time>2026-04-08T11:42:37.001Z</time></trkpt><trkpt lat="51.80558221519138" lon="16.157280299853856"><ele>102.0</ele><time>2026-04-08T11:42:38.001Z</time></trkpt><trkpt lat="51.805686293759045" lon="16.157131633866825"><ele>102.0</ele><time>2026-04-08T11:42:39.001Z</time></trkpt><trkpt lat="51.80579259904982" lon="16.156985673335814"><ele>102.0</ele><time>2026-04-08T11:42:40.001Z</time></trkpt><trkpt lat="51.80589957525888" lon="16.15683832839397"><ele>102.0</ele><time>2026-04-08T11:42:41.001Z</time></trkpt><trkpt lat="51.80599586795335" lon="16.15669514536496"><ele>102.25</ele><time>2026-04-08T11:42:42.001Z</time></trkpt><trkpt lat="51.806098768006606" lon="16.156544511460897"><ele>102.5</ele><time>2026-04-08T11:42:43.001Z</time></trkpt><trkpt lat="51.806201479024416" lon="16.156390056370753"><ele>102.75</ele><time>2026-04-08T11:42:44.001Z</time></trkpt><trkpt lat="51.80629808885381" lon="16.156224132261823"><ele>103.0</ele><time>2026-04-08T11:42:45.001Z</time></trkpt><trkpt lat="51.8064092244416" lon="16.15607540964537"><ele>103.0</ele><time>2026-04-08T11:42:46.001Z</time></trkpt><trkpt lat="51.806501777285135" lon="16.155934969726612"><ele>103.0</ele><time>2026-04-08T11:42:47.001Z</time></trkpt><trkpt lat="51.80658977355794" lon="16.155816170164652"><ele>103.0</ele><time>2026-04-08T11:42:48.001Z</time></trkpt><trkpt lat="51.8066790099556" lon="16.155693464142843"><ele>103.0</ele><time>2026-04-08T11:42:49.001Z</time></trkpt><trkpt lat="51.806772860232186" lon="16.15559404098656"><ele>104.25</ele><time>2026-04-08T11:42:50.001Z</time></trkpt><trkpt lat="51.80687263853369" lon="16.155504333731297"><ele>105.5</ele><time>2026-04-08T11:42:51.001Z</time></trkpt><trkpt lat="51.80697472885944" lon="16.155448892065547"><ele>106.75</ele><time>2026-04-08T11:42:52.001Z</time></trkpt><trkpt lat="51.80708235936968" lon="16.155393783041635"><ele>108.0</ele><time>2026-04-08T11:42:53.001Z</time></trkpt><trkpt lat="51.80720609941273" lon="16.155358006696154"><ele>108.0</ele><time>2026-04-08T11:42:54.001Z</time></trkpt><trkpt lat="51.80733033607567" lon="16.15532896094318"><ele>108.0</ele><time>2026-04-08T11:42:55.001Z</time></trkpt><trkpt lat="51.80746464917652" lon="16.15530886603541"><ele>108.0</ele><time>2026-04-08T11:42:56.001Z</time></trkpt><trkpt lat="51.807606766651254" lon="16.155300676416616"><ele>108.0</ele><time>2026-04-08T11:42:57.001Z</time></trkpt><trkpt lat="51.80776167372263" lon="16.155274817305866"><ele>108.66666666666666</ele><time>2026-04-08T11:42:58.001Z</time></trkpt><trkpt lat="51.80791059524865" lon="16.15525068594701"><ele>109.33333333333333</ele><time>2026-04-08T11:42:59.001Z</time></trkpt><trkpt lat="51.808068247423435" lon="16.155224502258932"><ele>110.0</ele><time>2026-04-08T11:43:00.001Z</time></trkpt><trkpt lat="51.80821794551562" lon="16.155203381006864"><ele>110.0</ele><time>2026-04-08T11:43:01.001Z</time></trkpt><trkpt lat="51.80834087532081" lon="16.155184719975146"><ele>110.0</ele><time>2026-04-08T11:43:02.001Z</time></trkpt><trkpt lat="51.80844775207513" lon="16.15517051158221"><ele>110.0</ele><time>2026-04-08T11:43:03.001Z</time></trkpt><trkpt lat="51.80853183490639" lon="16.155140965770094"><ele>110.0</ele><time>2026-04-08T11:43:04.001Z</time></trkpt><trkpt lat="51.80864314133354" lon="16.155134947791613"><ele>110.0</ele><time>2026-04-08T11:43:05.001Z</time></trkpt><trkpt lat="51.808764549506115" lon="16.15510581650586"><ele>110.25</ele><time>2026-04-08T11:43:06.001Z</time></trkpt><trkpt lat="51.8088790836688" lon="16.155086171167564"><ele>110.5</ele><time>2026-04-08T11:43:07.001Z</time></trkpt><trkpt lat="51.80899081687802" lon="16.15507349388097"><ele>110.75</ele><time>2026-04-08T11:43:08.001Z</time></trkpt><trkpt lat="51.809111876737596" lon="16.15504762392928"><ele>111.0</ele><time>2026-04-08T11:43:09.001Z</time></trkpt><trkpt lat="51.80924988335684" lon="16.155016689406093"><ele>111.33333333333334</ele><time>2026-04-08T11:43:10.001Z</time></trkpt><trkpt lat="51.80939432810996" lon="16.154993171129483"><ele>111.66666666666667</ele><time>2026-04-08T11:43:11.001Z</time></trkpt><trkpt lat="51.80954131764121" lon="16.15497736604814"><ele>112.0</ele><time>2026-04-08T11:43:12.001Z</time></trkpt><trkpt lat="51.80970063692185" lon="16.154959365709356"><ele>112.0</ele><time>2026-04-08T11:43:13.001Z</time></trkpt><trkpt lat="51.80986150150965" lon="16.15493086716702"><ele>112.0</ele><time>2026-04-08T11:43:14.001Z</time></trkpt><trkpt lat="51.809987652587346" lon="16.15492022106631"><ele>112.0</ele><time>2026-04-08T11:43:15.001Z</time></trkpt><trkpt lat="51.810133832436655" lon="16.154892249661664"><ele>112.0</ele><time>2026-04-08T11:43:16.001Z</time></trkpt><trkpt lat="51.81028893668669" lon="16.1548689181738"><ele>111.6</ele><time>2026-04-08T11:43:17.001Z</time></trkpt><trkpt lat="51.81040715889543" lon="16.154851046660106"><ele>111.19999999999999</ele><time>2026-04-08T11:43:18.001Z</time></trkpt><trkpt lat="51.810519542989695" lon="16.154830703086937"><ele>110.8</ele><time>2026-04-08T11:43:19.001Z</time></trkpt><trkpt lat="51.81062927006668" lon="16.154810752593978"><ele>110.4</ele><time>2026-04-08T11:43:20.001Z</time></trkpt><trkpt lat="51.81070773682402" lon="16.15477456186725"><ele>110.0</ele><time>2026-04-08T11:43:21.001Z</time></trkpt><trkpt lat="51.810833969142706" lon="16.154756031459133"><ele>110.0</ele><time>2026-04-08T11:43:22.001Z</time></trkpt><trkpt lat="51.81095198605911" lon="16.15472197502078"><ele>110.0</ele><time>2026-04-08T11:43:23.001Z</time></trkpt><trkpt lat="51.811107872434306" lon="16.154659229854058"><ele>110.0</ele><time>2026-04-08T11:43:24.001Z</time></trkpt><trkpt lat="51.811265311962295" lon="16.154620827939798"><ele>110.0</ele><time>2026-04-08T11:43:25.001Z</time></trkpt><trkpt lat="51.81140918245178" lon="16.154567727244057"><ele>108.33333333333333</ele><time>2026-04-08T11:43:26.001Z</time></trkpt><trkpt lat="51.811563464219724" lon="16.154516423475897"><ele>106.66666666666666</ele><time>2026-04-08T11:43:27.001Z</time></trkpt><trkpt lat="51.811704510487175" lon="16.154465195722693"><ele>105.0</ele><time>2026-04-08T11:43:28.001Z</time></trkpt><trkpt lat="51.81185213999316" lon="16.154394350727692"><ele>105.0</ele><time>2026-04-08T11:43:29.001Z</time></trkpt><trkpt lat="51.81197931083276" lon="16.154319517841454"><ele>105.0</ele><time>2026-04-08T11:43:30.001Z</time></trkpt><trkpt lat="51.81209662687458" lon="16.154234034165444"><ele>105.0</ele><time>2026-04-08T11:43:31.001Z</time></trkpt><trkpt lat="51.812214404192844" lon="16.15415289096119"><ele>105.0</ele><time>2026-04-08T11:43:32.001Z</time></trkpt><trkpt lat="51.81246350620706" lon="16.153999574193076"><ele>104.0</ele><time>2026-04-08T11:43:34.001Z</time></trkpt><trkpt lat="51.81257924467951" lon="16.153911208229093"><ele>103.0</ele><time>2026-04-08T11:43:35.001Z</time></trkpt><trkpt lat="51.81269980533491" lon="16.153855931188062"><ele>102.0</ele><time>2026-04-08T11:43:36.001Z</time></trkpt><trkpt lat="51.812817609462066" lon="16.153797272831525"><ele>101.0</ele><time>2026-04-08T11:43:37.001Z</time></trkpt><trkpt lat="51.812941328352295" lon="16.153729989967687"><ele>101.0</ele><time>2026-04-08T11:43:38.001Z</time></trkpt><trkpt lat="51.813079547619886" lon="16.15365759023127"><ele>101.0</ele><time>2026-04-08T11:43:39.001Z</time></trkpt><trkpt lat="51.81322858860227" lon="16.153591393471388"><ele>101.0</ele><time>2026-04-08T11:43:40.001Z</time></trkpt><trkpt lat="51.813381083432844" lon="16.153520485679902"><ele>101.25</ele><time>2026-04-08T11:43:41.001Z</time></trkpt><trkpt lat="51.81353582881308" lon="16.153447697872757"><ele>101.5</ele><time>2026-04-08T11:43:42.001Z</time></trkpt><trkpt lat="51.813669370756365" lon="16.153371616749915"><ele>101.75</ele><time>2026-04-08T11:43:43.001Z</time></trkpt><trkpt lat="51.81378036778024" lon="16.153283478662765"><ele>102.0</ele><time>2026-04-08T11:43:44.001Z</time></trkpt><trkpt lat="51.81386800361368" lon="16.153208846992147"><ele>102.0</ele><time>2026-04-08T11:43:45.001Z</time></trkpt><trkpt lat="51.813949903213576" lon="16.153094261587274"><ele>102.0</ele><time>2026-04-08T11:43:47.001Z</time></trkpt><trkpt lat="51.81401958291569" lon="16.153134040111986"><ele>102.0</ele><time>2026-04-08T11:43:49.001Z</time></trkpt><trkpt lat="51.81405448799958" lon="16.153234257227492"><ele>102.0</ele><time>2026-04-08T11:43:50.001Z</time></trkpt><trkpt lat="51.81406621122179" lon="16.15333909724117"><ele>102.0</ele><time>2026-04-08T11:43:51.001Z</time></trkpt><trkpt lat="51.81407493182296" lon="16.1534675892036"><ele>102.0</ele><time>2026-04-08T11:43:52.001Z</time></trkpt><trkpt lat="51.81410892643266" lon="16.153601712431737"><ele>102.0</ele><time>2026-04-08T11:43:53.001Z</time></trkpt><trkpt lat="51.81414145583514" lon="16.15377018579543"><ele>102.0</ele><time>2026-04-08T11:43:54.001Z</time></trkpt><trkpt lat="51.81416882935931" lon="16.153943433232364"><ele>102.0</ele><time>2026-04-08T11:43:55.001Z</time></trkpt><trkpt lat="51.81418456158995" lon="16.154141593697105"><ele>102.0</ele><time>2026-04-08T11:43:56.001Z</time></trkpt><trkpt lat="51.81421768034889" lon="16.154358158893523"><ele>103.0</ele><time>2026-04-08T11:43:57.002Z</time></trkpt><trkpt lat="51.81425163018934" lon="16.15458540361229"><ele>104.0</ele><time>2026-04-08T11:43:58.002Z</time></trkpt><trkpt lat="51.81428638035175" lon="16.154823819158473"><ele>105.0</ele><time>2026-04-08T11:43:59.001Z</time></trkpt><trkpt lat="51.81433869338436" lon="16.15507374401317"><ele>105.25</ele><time>2026-04-08T11:44:00.001Z</time></trkpt><trkpt lat="51.81437406293096" lon="16.155323460737012"><ele>105.5</ele><time>2026-04-08T11:44:01.001Z</time></trkpt><trkpt lat="51.81440033037093" lon="16.155556264902284"><ele>105.75</ele><time>2026-04-08T11:44:02.001Z</time></trkpt><trkpt lat="51.8144199576554" lon="16.15576061135469"><ele>106.0</ele><time>2026-04-08T11:44:03.001Z</time></trkpt><trkpt lat="51.814441797422006" lon="16.155933085466593"><ele>106.19999999999999</ele><time>2026-04-08T11:44:04.001Z</time></trkpt><trkpt lat="51.814468115130055" lon="16.15610766105781"><ele>106.39999999999999</ele><time>2026-04-08T11:44:05.001Z</time></trkpt><trkpt lat="51.814483716621496" lon="16.156257165725183"><ele>106.6</ele><time>2026-04-08T11:44:06.001Z</time></trkpt><trkpt lat="51.814495559832686" lon="16.156388972869788"><ele>106.8</ele><time>2026-04-08T11:44:07.001Z</time></trkpt><trkpt lat="51.814519950943556" lon="16.15649841223543"><ele>107.0</ele><time>2026-04-08T11:44:08.001Z</time></trkpt><trkpt lat="51.81451167826954" lon="16.156672159587156"><ele>107.19999999999999</ele><time>2026-04-08T11:44:10.001Z</time></trkpt><trkpt lat="51.81467300821966" lon="16.15676978408054"><ele>107.39999999999999</ele><time>2026-04-08T11:44:13.001Z</time></trkpt><trkpt lat="51.81473778857574" lon="16.156773292041027"><ele>107.60000000000001</ele><time>2026-04-08T11:44:14.001Z</time></trkpt><trkpt lat="51.81480943255377" lon="16.156782423946982"><ele>107.80000000000001</ele><time>2026-04-08T11:44:15.001Z</time></trkpt><trkpt lat="51.814890896157905" lon="16.15679841669289"><ele>108.0</ele><time>2026-04-08T11:44:16.001Z</time></trkpt><trkpt lat="51.81498738986859" lon="16.156809857228755"><ele>108.0</ele><time>2026-04-08T11:44:17.001Z</time></trkpt><trkpt lat="51.81510582699541" lon="16.156826484463068"><ele>108.0</ele><time>2026-04-08T11:44:18.001Z</time></trkpt><trkpt lat="51.81522516025761" lon="16.15683996390156"><ele>108.0</ele><time>2026-04-08T11:44:19.001Z</time></trkpt><trkpt lat="51.81535988022341" lon="16.156846715076707"><ele>108.0</ele><time>2026-04-08T11:44:20.001Z</time></trkpt><trkpt lat="51.81547861986313" lon="16.156841527900177"><ele>108.0</ele><time>2026-04-08T11:44:21.001Z</time></trkpt><trkpt lat="51.815581148626634" lon="16.156815330811053"><ele>108.00000000000001</ele><time>2026-04-08T11:44:22.001Z</time></trkpt><trkpt lat="51.815685942418725" lon="16.156775279759472"><ele>108.00000000000001</ele><time>2026-04-08T11:44:23.001Z</time></trkpt><trkpt lat="51.81579576589494" lon="16.156736193807188"><ele>108.0</ele><time>2026-04-08T11:44:24.001Z</time></trkpt><trkpt lat="51.815892732493" lon="16.156706084698985"><ele>108.0</ele><time>2026-04-08T11:44:25.001Z</time></trkpt><trkpt lat="51.8159772807673" lon="16.156675946741906"><ele>108.2</ele><time>2026-04-08T11:44:26.001Z</time></trkpt><trkpt lat="51.81606739063977" lon="16.15663338528406"><ele>108.4</ele><time>2026-04-08T11:44:27.001Z</time></trkpt><trkpt lat="51.81617909630052" lon="16.15658484799001"><ele>108.60000000000001</ele><time>2026-04-08T11:44:28.001Z</time></trkpt><trkpt lat="51.81628729566299" lon="16.156531451761147"><ele>108.80000000000001</ele><time>2026-04-08T11:44:29.001Z</time></trkpt><trkpt lat="51.816365425357105" lon="16.156475246789782"><ele>109.0</ele><time>2026-04-08T11:44:30.001Z</time></trkpt><trkpt lat="51.816443422983184" lon="16.156424420539622"><ele>109.0</ele><time>2026-04-08T11:44:31.001Z</time></trkpt><trkpt lat="51.81651848705159" lon="16.15635870620378"><ele>109.0</ele><time>2026-04-08T11:44:32.001Z</time></trkpt><trkpt lat="51.816597622373095" lon="16.1563156842132"><ele>109.0</ele><time>2026-04-08T11:44:33.001Z</time></trkpt><trkpt lat="51.816678486564804" lon="16.156255569535595"><ele>109.0</ele><time>2026-04-08T11:44:34.001Z</time></trkpt><trkpt lat="51.816780341828384" lon="16.1562095758612"><ele>109.0</ele><time>2026-04-08T11:44:35.001Z</time></trkpt><trkpt lat="51.81688198540466" lon="16.156158565319235"><ele>109.0</ele><time>2026-04-08T11:44:36.001Z</time></trkpt><trkpt lat="51.81698018725405" lon="16.156140557061853"><ele>109.0</ele><time>2026-04-08T11:44:37.001Z</time></trkpt><trkpt lat="51.81707634802511" lon="16.156133243991444"><ele>109.0</ele><time>2026-04-08T11:44:38.001Z</time></trkpt><trkpt lat="51.81718857866043" lon="16.156090404458833"><ele>109.0</ele><time>2026-04-08T11:44:39.001Z</time></trkpt><trkpt lat="51.81728862448347" lon="16.15606501164843"><ele>109.0</ele><time>2026-04-08T11:44:40.001Z</time></trkpt><trkpt lat="51.817371868688596" lon="16.15605971007961"><ele>109.00000000000001</ele><time>2026-04-08T11:44:41.001Z</time></trkpt><trkpt lat="51.817448953049244" lon="16.15604010124023"><ele>109.0</ele><time>2026-04-08T11:44:42.001Z</time></trkpt><trkpt lat="51.81751828015774" lon="16.156019659171413"><ele>109.0</ele><time>2026-04-08T11:44:43.001Z</time></trkpt><trkpt lat="51.81759206544483" lon="16.155982467248357"><ele>109.0</ele><time>2026-04-08T11:44:44.001Z</time></trkpt><trkpt lat="51.8176742528338" lon="16.156013507918935"><ele>109.00000000000001</ele><time>2026-04-08T11:44:45.001Z</time></trkpt><trkpt lat="51.81777019811154" lon="16.15596814580824"><ele>109.0</ele><time>2026-04-08T11:44:46.001Z</time></trkpt><trkpt lat="51.817863060133796" lon="16.15590426066631"><ele>109.0</ele><time>2026-04-08T11:44:47.001Z</time></trkpt><trkpt lat="51.817977765722816" lon="16.15585645251356"><ele>109.0</ele><time>2026-04-08T11:44:48.001Z</time></trkpt><trkpt lat="51.81808724497393" lon="16.15576465141499"><ele>109.0</ele><time>2026-04-08T11:44:49.001Z</time></trkpt><trkpt lat="51.81820098145057" lon="16.155715853468756"><ele>109.0</ele><time>2026-04-08T11:44:50.001Z</time></trkpt><trkpt lat="51.81829468781562" lon="16.15564796540505"><ele>109.0</ele><time>2026-04-08T11:44:51.001Z</time></trkpt><trkpt lat="51.81835604238319" lon="16.155610316419832"><ele>109.0</ele><time>2026-04-08T11:44:52.001Z</time></trkpt><trkpt lat="51.81843415073353" lon="16.155570135551887"><ele>109.0</ele><time>2026-04-08T11:44:53.001Z</time></trkpt><trkpt lat="51.81852826024591" lon="16.155518655489253"><ele>109.0</ele><time>2026-04-08T11:44:54.001Z</time></trkpt><trkpt lat="51.81863256068069" lon="16.155466320225923"><ele>109.0</ele><time>2026-04-08T11:44:55.001Z</time></trkpt><trkpt lat="51.81872989374559" lon="16.155450730122435"><ele>108.80000000000001</ele><time>2026-04-08T11:44:56.001Z</time></trkpt><trkpt lat="51.81881725137554" lon="16.15541664467605"><ele>108.60000000000001</ele><time>2026-04-08T11:44:57.001Z</time></trkpt><trkpt lat="51.818902342012784" lon="16.155389466382452"><ele>108.4</ele><time>2026-04-08T11:44:58.001Z</time></trkpt><trkpt lat="51.818993298544356" lon="16.155374846698432"><ele>108.2</ele><time>2026-04-08T11:44:59.001Z</time></trkpt><trkpt lat="51.81909317615619" lon="16.155378945371773"><ele>108.0</ele><time>2026-04-08T11:45:00.001Z</time></trkpt><trkpt lat="51.81920244835272" lon="16.155395443572434"><ele>108.0</ele><time>2026-04-08T11:45:01.001Z</time></trkpt><trkpt lat="51.81931494950723" lon="16.155435018743812"><ele>108.0</ele><time>2026-04-08T11:45:02.001Z</time></trkpt><trkpt lat="51.81942409840407" lon="16.15549488111744"><ele>108.0</ele><time>2026-04-08T11:45:03.001Z</time></trkpt><trkpt lat="51.81953468670678" lon="16.15551993242297"><ele>108.0</ele><time>2026-04-08T11:45:04.001Z</time></trkpt><trkpt lat="51.81965137369336" lon="16.155553551551247"><ele>108.33333333333334</ele><time>2026-04-08T11:45:05.001Z</time></trkpt><trkpt lat="51.8197859124759" lon="16.155591792888078"><ele>108.66666666666667</ele><time>2026-04-08T11:45:06.001Z</time></trkpt><trkpt lat="51.819931796485065" lon="16.155621524010662"><ele>109.0</ele><time>2026-04-08T11:45:07.001Z</time></trkpt><trkpt lat="51.820098863119405" lon="16.155658429208977"><ele>108.75</ele><time>2026-04-08T11:45:08.001Z</time></trkpt><trkpt lat="51.820248093590095" lon="16.155695835214587"><ele>108.5</ele><time>2026-04-08T11:45:09.001Z</time></trkpt><trkpt lat="51.82038004173558" lon="16.15572704519397"><ele>108.25</ele><time>2026-04-08T11:45:10.001Z</time></trkpt><trkpt lat="51.820498007294965" lon="16.155755902094768"><ele>108.0</ele><time>2026-04-08T11:45:11.001Z</time></trkpt><trkpt lat="51.82061998272408" lon="16.155775494335916"><ele>107.25</ele><time>2026-04-08T11:45:12.001Z</time></trkpt><trkpt lat="51.82072247462671" lon="16.155768421379037"><ele>106.5</ele><time>2026-04-08T11:45:13.001Z</time></trkpt><trkpt lat="51.82084449847833" lon="16.155781221390637"><ele>105.75</ele><time>2026-04-08T11:45:14.001Z</time></trkpt><trkpt lat="51.820967366656475" lon="16.15577299949187"><ele>105.0</ele><time>2026-04-08T11:45:15.001Z</time></trkpt><trkpt lat="51.8210906955743" lon="16.15580506911904"><ele>104.25</ele><time>2026-04-08T11:45:16.001Z</time></trkpt><trkpt lat="51.821202680873945" lon="16.155857536047016"><ele>103.5</ele><time>2026-04-08T11:45:17.001Z</time></trkpt><trkpt lat="51.821326828451085" lon="16.155877528181634"><ele>102.75</ele><time>2026-04-08T11:45:18.001Z</time></trkpt><trkpt lat="51.8214355080502" lon="16.15590883288729"><ele>102.0</ele><time>2026-04-08T11:45:19.001Z</time></trkpt><trkpt lat="51.82157694595978" lon="16.155943643573817"><ele>102.0</ele><time>2026-04-08T11:45:20.001Z</time></trkpt><trkpt lat="51.82170311574957" lon="16.15600546857102"><ele>102.0</ele><time>2026-04-08T11:45:21.001Z</time></trkpt><trkpt lat="51.82183468732411" lon="16.156025038215613"><ele>102.0</ele><time>2026-04-08T11:45:22.001Z</time></trkpt><trkpt lat="51.82195506997456" lon="16.156054139123558"><ele>102.0</ele><time>2026-04-08T11:45:23.001Z</time></trkpt><trkpt lat="51.82207322704689" lon="16.156045966705463"><ele>101.75</ele><time>2026-04-08T11:45:24.001Z</time></trkpt><trkpt lat="51.82217732121507" lon="16.15605211127109"><ele>101.5</ele><time>2026-04-08T11:45:25.001Z</time></trkpt><trkpt lat="51.82228522605747" lon="16.156064181638023"><ele>101.25</ele><time>2026-04-08T11:45:26.001Z</time></trkpt><trkpt lat="51.822422913685095" lon="16.156070406885327"><ele>101.0</ele><time>2026-04-08T11:45:27.001Z</time></trkpt><trkpt lat="51.822562527502065" lon="16.156065288693622"><ele>101.25</ele><time>2026-04-08T11:45:28.001Z</time></trkpt><trkpt lat="51.8226823413284" lon="16.15607677946224"><ele>101.5</ele><time>2026-04-08T11:45:29.001Z</time></trkpt><trkpt lat="51.82280127621119" lon="16.156084454624153"><ele>101.75</ele><time>2026-04-08T11:45:30.001Z</time></trkpt><trkpt lat="51.82292426326997" lon="16.156093584478118"><ele>102.0</ele><time>2026-04-08T11:45:31.001Z</time></trkpt><trkpt lat="51.823054882383246" lon="16.156094003323386"><ele>102.0</ele><time>2026-04-08T11:45:32.001Z</time></trkpt><trkpt lat="51.82319803007477" lon="16.156061022948222"><ele>102.0</ele><time>2026-04-08T11:45:33.001Z</time></trkpt><trkpt lat="51.823332197801676" lon="16.15604314956667"><ele>102.0</ele><time>2026-04-08T11:45:34.001Z</time></trkpt><trkpt lat="51.823457574900516" lon="16.156048230996678"><ele>102.0</ele><time>2026-04-08T11:45:35.001Z</time></trkpt><trkpt lat="51.82358637841922" lon="16.15609888461853"><ele>101.0</ele><time>2026-04-08T11:45:36.001Z</time></trkpt><trkpt lat="51.8237012995965" lon="16.15613211525916"><ele>100.0</ele><time>2026-04-08T11:45:37.001Z</time></trkpt><trkpt lat="51.82380767064751" lon="16.156143509983913"><ele>99.0</ele><time>2026-04-08T11:45:38.001Z</time></trkpt><trkpt lat="51.82391700689676" lon="16.15611104773532"><ele>98.0</ele><time>2026-04-08T11:45:39.001Z</time></trkpt><trkpt lat="51.824033077007776" lon="16.1560999005823"><ele>98.0</ele><time>2026-04-08T11:45:40.001Z</time></trkpt><trkpt lat="51.82415386172285" lon="16.156082771785204"><ele>98.0</ele><time>2026-04-08T11:45:41.001Z</time></trkpt><trkpt lat="51.82426856184842" lon="16.15605674903198"><ele>98.0</ele><time>2026-04-08T11:45:42.001Z</time></trkpt><trkpt lat="51.824368197038034" lon="16.156038469332252"><ele>98.0</ele><time>2026-04-08T11:45:43.001Z</time></trkpt><trkpt lat="51.82447433926626" lon="16.15602425401701"><ele>98.0</ele><time>2026-04-08T11:45:44.001Z</time></trkpt><trkpt lat="51.82458512420093" lon="16.15601306958981"><ele>97.4</ele><time>2026-04-08T11:45:45.001Z</time></trkpt><trkpt lat="51.82468570202232" lon="16.15599898524606"><ele>96.80000000000001</ele><time>2026-04-08T11:45:46.001Z</time></trkpt><trkpt lat="51.82476925685997" lon="16.155962923945506"><ele>96.2</ele><time>2026-04-08T11:45:47.001Z</time></trkpt><trkpt lat="51.8248639582719" lon="16.15594455600097"><ele>95.6</ele><time>2026-04-08T11:45:48.001Z</time></trkpt><trkpt lat="51.82496541914317" lon="16.155942729493358"><ele>95.0</ele><time>2026-04-08T11:45:49.001Z</time></trkpt><trkpt lat="51.82506528643066" lon="16.155942215182225"><ele>96.0</ele><time>2026-04-08T11:45:50.001Z</time></trkpt><trkpt lat="51.825151228537415" lon="16.155976629942668"><ele>97.0</ele><time>2026-04-08T11:45:51.001Z</time></trkpt><trkpt lat="51.82524492486728" lon="16.156039476391292"><ele>98.0</ele><time>2026-04-08T11:45:52.001Z</time></trkpt><trkpt lat="51.82535091550746" lon="16.15611594439022"><ele>99.0</ele><time>2026-04-08T11:45:53.001Z</time></trkpt><trkpt lat="51.825467371394105" lon="16.156186002845214"><ele>100.0</ele><time>2026-04-08T11:45:54.001Z</time></trkpt><trkpt lat="51.82558682178787" lon="16.156245136665998"><ele>100.0</ele><time>2026-04-08T11:45:55.001Z</time></trkpt><trkpt lat="51.82571677810588" lon="16.1563146636242"><ele>100.0</ele><time>2026-04-08T11:45:56.001Z</time></trkpt><trkpt lat="51.825829238087685" lon="16.1563698780163"><ele>100.0</ele><time>2026-04-08T11:45:57.001Z</time></trkpt><trkpt lat="51.82595277330912" lon="16.15641739948544"><ele>100.0</ele><time>2026-04-08T11:45:58.001Z</time></trkpt><trkpt lat="51.82606001057864" lon="16.15650802492252"><ele>99.25</ele><time>2026-04-08T11:45:59.001Z</time></trkpt><trkpt lat="51.826178660835836" lon="16.156592883340938"><ele>98.5</ele><time>2026-04-08T11:46:00.001Z</time></trkpt><trkpt lat="51.82629981407022" lon="16.156701647665866"><ele>97.75</ele><time>2026-04-08T11:46:01.001Z</time></trkpt><trkpt lat="51.82643054761762" lon="16.156822140863184"><ele>97.0</ele><time>2026-04-08T11:46:02.001Z</time></trkpt><trkpt lat="51.82656414116706" lon="16.15694501264458"><ele>97.0</ele><time>2026-04-08T11:46:03.001Z</time></trkpt><trkpt lat="51.82669201588384" lon="16.157063208665896"><ele>97.0</ele><time>2026-04-08T11:46:04.001Z</time></trkpt><trkpt lat="51.82681330862174" lon="16.157179784871737"><ele>97.0</ele><time>2026-04-08T11:46:05.002Z</time></trkpt><trkpt lat="51.82694406007231" lon="16.157282916522103"><ele>97.0</ele><time>2026-04-08T11:46:06.002Z</time></trkpt><trkpt lat="51.82705825307837" lon="16.15738666021343"><ele>96.25</ele><time>2026-04-08T11:46:07.002Z</time></trkpt><trkpt lat="51.8271784474672" lon="16.157489609042802"><ele>95.5</ele><time>2026-04-08T11:46:08.001Z</time></trkpt><trkpt lat="51.8272902046533" lon="16.15757575484846"><ele>94.75</ele><time>2026-04-08T11:46:09.001Z</time></trkpt><trkpt lat="51.827395222239524" lon="16.157632319072103"><ele>94.0</ele><time>2026-04-08T11:46:10.001Z</time></trkpt><trkpt lat="51.82749414634128" lon="16.15766312423097"><ele>94.0</ele><time>2026-04-08T11:46:11.001Z</time></trkpt><trkpt lat="51.827594684036185" lon="16.15762650193692"><ele>94.0</ele><time>2026-04-08T11:46:12.001Z</time></trkpt><trkpt lat="51.827662164940044" lon="16.157617279769127"><ele>94.0</ele><time>2026-04-08T11:46:13.001Z</time></trkpt><trkpt lat="51.82773992764393" lon="16.157581293443755"><ele>94.0</ele><time>2026-04-08T11:46:14.001Z</time></trkpt><trkpt lat="51.8278322533778" lon="16.15752417896009"><ele>94.0</ele><time>2026-04-08T11:46:15.001Z</time></trkpt><trkpt lat="51.827920622620596" lon="16.157448493724445"><ele>93.80000000000001</ele><time>2026-04-08T11:46:16.001Z</time></trkpt><trkpt lat="51.82802611766112" lon="16.1573991905094"><ele>93.60000000000001</ele><time>2026-04-08T11:46:17.001Z</time></trkpt><trkpt lat="51.828128055367124" lon="16.157366960968478"><ele>93.4</ele><time>2026-04-08T11:46:18.001Z</time></trkpt><trkpt lat="51.828228615337316" lon="16.157336369022033"><ele>93.2</ele><time>2026-04-08T11:46:19.001Z</time></trkpt><trkpt lat="51.82834472153838" lon="16.157308983538694"><ele>93.0</ele><time>2026-04-08T11:46:20.001Z</time></trkpt><trkpt lat="51.8284606204179" lon="16.157278877206068"><ele>95.75</ele><time>2026-04-08T11:46:21.001Z</time></trkpt><trkpt lat="51.82857488695476" lon="16.157248641584722"><ele>98.5</ele><time>2026-04-08T11:46:22.001Z</time></trkpt><trkpt lat="51.82869732448398" lon="16.157174857509894"><ele>101.25</ele><time>2026-04-08T11:46:23.001Z</time></trkpt><trkpt lat="51.828806124118714" lon="16.157095509563487"><ele>104.0</ele><time>2026-04-08T11:46:24.001Z</time></trkpt><trkpt lat="51.82893330888363" lon="16.157049032538993"><ele>104.0</ele><time>2026-04-08T11:46:25.001Z</time></trkpt><trkpt lat="51.829061460692934" lon="16.157024113395135"><ele>104.0</ele><time>2026-04-08T11:46:26.001Z</time></trkpt><trkpt lat="51.82916318615195" lon="16.157016681298114"><ele>104.0</ele><time>2026-04-08T11:46:27.001Z</time></trkpt><trkpt lat="51.829273574062064" lon="16.157008163840743"><ele>104.0</ele><time>2026-04-08T11:46:28.001Z</time></trkpt><trkpt lat="51.82936261326542" lon="16.15699073593505"><ele>104.0</ele><time>2026-04-08T11:46:29.001Z</time></trkpt><trkpt lat="51.8294634492899" lon="16.15695530846673"><ele>104.6</ele><time>2026-04-08T11:46:30.001Z</time></trkpt><trkpt lat="51.829575943381386" lon="16.156944807825656"><ele>105.2</ele><time>2026-04-08T11:46:31.001Z</time></trkpt><trkpt lat="51.82967866401416" lon="16.156952684390262"><ele>105.79999999999998</ele><time>2026-04-08T11:46:32.001Z</time></trkpt><trkpt lat="51.82978468772409" lon="16.156982182828262"><ele>106.39999999999999</ele><time>2026-04-08T11:46:33.001Z</time></trkpt><trkpt lat="51.829894392289034" lon="16.157016939240226"><ele>107.0</ele><time>2026-04-08T11:46:34.001Z</time></trkpt><trkpt lat="51.83000872457876" lon="16.15703733236667"><ele>107.5</ele><time>2026-04-08T11:46:35.001Z</time></trkpt><trkpt lat="51.8301444825069" lon="16.157056616133893"><ele>108.0</ele><time>2026-04-08T11:46:36.001Z</time></trkpt><trkpt lat="51.830263473778494" lon="16.157034336563743"><ele>108.5</ele><time>2026-04-08T11:46:37.001Z</time></trkpt><trkpt lat="51.830382146368436" lon="16.157036346345144"><ele>109.0</ele><time>2026-04-08T11:46:38.001Z</time></trkpt><trkpt lat="51.83051112908754" lon="16.157070240678323"><ele>109.0</ele><time>2026-04-08T11:46:39.001Z</time></trkpt><trkpt lat="51.830626069229154" lon="16.15708805868209"><ele>109.0</ele><time>2026-04-08T11:46:40.001Z</time></trkpt><trkpt lat="51.83072469406559" lon="16.15709837784473"><ele>109.0</ele><time>2026-04-08T11:46:41.001Z</time></trkpt><trkpt lat="51.83081545557845" lon="16.15709538054697"><ele>109.0</ele><time>2026-04-08T11:46:42.001Z</time></trkpt><trkpt lat="51.83089689398677" lon="16.157055636613958"><ele>109.0</ele><time>2026-04-08T11:46:43.001Z</time></trkpt><trkpt lat="51.83097992870516" lon="16.15696176447977"><ele>109.5</ele><time>2026-04-08T11:46:44.001Z</time></trkpt><trkpt lat="51.83105710629676" lon="16.15683652984624"><ele>110.0</ele><time>2026-04-08T11:46:45.001Z</time></trkpt><trkpt lat="51.83113273600993" lon="16.156710135100393"><ele>110.5</ele><time>2026-04-08T11:46:46.001Z</time></trkpt><trkpt lat="51.83121626640293" lon="16.156596620013957"><ele>111.0</ele><time>2026-04-08T11:46:47.001Z</time></trkpt><trkpt lat="51.831324842075965" lon="16.15649143446002"><ele>111.0</ele><time>2026-04-08T11:46:48.001Z</time></trkpt><trkpt lat="51.83140542205417" lon="16.156428040223496"><ele>111.0</ele><time>2026-04-08T11:46:49.001Z</time></trkpt><trkpt lat="51.8314788431666" lon="16.15637092724292"><ele>111.0</ele><time>2026-04-08T11:46:50.001Z</time></trkpt><trkpt lat="51.831572249771234" lon="16.156327476146757"><ele>111.0</ele><time>2026-04-08T11:46:51.001Z</time></trkpt><trkpt lat="51.83166686750297" lon="16.1562851358747"><ele>111.0</ele><time>2026-04-08T11:46:52.001Z</time></trkpt><trkpt lat="51.831804140763005" lon="16.156251524251946"><ele>110.0</ele><time>2026-04-08T11:46:53.001Z</time></trkpt><trkpt lat="51.831912788908156" lon="16.15622043974838"><ele>109.0</ele><time>2026-04-08T11:46:54.001Z</time></trkpt><trkpt lat="51.832018695703" lon="16.156196534723122"><ele>108.0</ele><time>2026-04-08T11:46:55.001Z</time></trkpt><trkpt lat="51.832119371309815" lon="16.156186522216068"><ele>107.0</ele><time>2026-04-08T11:46:56.001Z</time></trkpt><trkpt lat="51.83223457055928" lon="16.15613854734942"><ele>106.0</ele><time>2026-04-08T11:46:57.001Z</time></trkpt><trkpt lat="51.83233141556504" lon="16.156069582608175"><ele>106.00000000000001</ele><time>2026-04-08T11:46:58.001Z</time></trkpt><trkpt lat="51.832421113633835" lon="16.15600311775802"><ele>106.0</ele><time>2026-04-08T11:46:59.001Z</time></trkpt><trkpt lat="51.83250415024973" lon="16.155929599237805"><ele>106.0</ele><time>2026-04-08T11:47:00.001Z</time></trkpt><trkpt lat="51.83257510993488" lon="16.15586914092048"><ele>106.0</ele><time>2026-04-08T11:47:01.001Z</time></trkpt><trkpt lat="51.832645243292475" lon="16.15579323550254"><ele>106.00000000000001</ele><time>2026-04-08T11:47:02.001Z</time></trkpt><trkpt lat="51.832709919900566" lon="16.155700951919307"><ele>106.0</ele><time>2026-04-08T11:47:03.001Z</time></trkpt><trkpt lat="51.832773260855525" lon="16.15557598509996"><ele>104.0</ele><time>2026-04-08T11:47:04.001Z</time></trkpt><trkpt lat="51.83285039063568" lon="16.155450480525175"><ele>102.0</ele><time>2026-04-08T11:47:05.001Z</time></trkpt><trkpt lat="51.832938225991626" lon="16.155327701612563"><ele>100.0</ele><time>2026-04-08T11:47:06.001Z</time></trkpt><trkpt lat="51.83302300420333" lon="16.15520070171978"><ele>98.0</ele><time>2026-04-08T11:47:07.001Z</time></trkpt><trkpt lat="51.83309385040084" lon="16.155086145132938"><ele>96.0</ele><time>2026-04-08T11:47:08.001Z</time></trkpt><trkpt lat="51.83316654844269" lon="16.154963642795035"><ele>97.4</ele><time>2026-04-08T11:47:09.001Z</time></trkpt><trkpt lat="51.833230453403324" lon="16.154832878520388"><ele>98.8</ele><time>2026-04-08T11:47:10.001Z</time></trkpt><trkpt lat="51.83329929014255" lon="16.154703068844952"><ele>100.2</ele><time>2026-04-08T11:47:11.001Z</time></trkpt><trkpt lat="51.83337544993288" lon="16.154588862806257"><ele>101.60000000000001</ele><time>2026-04-08T11:47:12.001Z</time></trkpt><trkpt lat="51.83346053834374" lon="16.154475014372885"><ele>103.0</ele><time>2026-04-08T11:47:13.001Z</time></trkpt><trkpt lat="51.833542715769354" lon="16.15436054495615"><ele>101.60000000000001</ele><time>2026-04-08T11:47:14.001Z</time></trkpt><trkpt lat="51.833616655613895" lon="16.15425216020586"><ele>100.2</ele><time>2026-04-08T11:47:15.001Z</time></trkpt><trkpt lat="51.833671226712376" lon="16.154127802380092"><ele>98.8</ele><time>2026-04-08T11:47:16.001Z</time></trkpt><trkpt lat="51.83373408447536" lon="16.15399174743328"><ele>97.4</ele><time>2026-04-08T11:47:17.001Z</time></trkpt><trkpt lat="51.83380209749248" lon="16.153851167266865"><ele>96.0</ele><time>2026-04-08T11:47:18.001Z</time></trkpt><trkpt lat="51.83388303146641" lon="16.153702000511704"><ele>96.0</ele><time>2026-04-08T11:47:19.001Z</time></trkpt><trkpt lat="51.833963604712466" lon="16.15355609676865"><ele>96.0</ele><time>2026-04-08T11:47:20.001Z</time></trkpt><trkpt lat="51.83403909627293" lon="16.15344070285782"><ele>96.0</ele><time>2026-04-08T11:47:21.001Z</time></trkpt><trkpt lat="51.83411247763251" lon="16.153317908415826"><ele>96.0</ele><time>2026-04-08T11:47:22.001Z</time></trkpt><trkpt lat="51.834194230037006" lon="16.153221640796062"><ele>96.0</ele><time>2026-04-08T11:47:23.001Z</time></trkpt><trkpt lat="51.83428628765438" lon="16.153157645263295"><ele>95.5</ele><time>2026-04-08T11:47:24.001Z</time></trkpt><trkpt lat="51.83439258710725" lon="16.153109133515716"><ele>95.0</ele><time>2026-04-08T11:47:25.001Z</time></trkpt><trkpt lat="51.83450964808572" lon="16.153075993990953"><ele>94.5</ele><time>2026-04-08T11:47:26.001Z</time></trkpt><trkpt lat="51.83463085652961" lon="16.15304263118723"><ele>94.0</ele><time>2026-04-08T11:47:27.001Z</time></trkpt><trkpt lat="51.834752981293406" lon="16.15301190745923"><ele>94.0</ele><time>2026-04-08T11:47:28.001Z</time></trkpt><trkpt lat="51.83486713661328" lon="16.152966279012738"><ele>94.0</ele><time>2026-04-08T11:47:29.001Z</time></trkpt><trkpt lat="51.83498354806288" lon="16.152941401820552"><ele>94.0</ele><time>2026-04-08T11:47:30.001Z</time></trkpt><trkpt lat="51.835095047034244" lon="16.152926693349965"><ele>94.0</ele><time>2026-04-08T11:47:31.001Z</time></trkpt><trkpt lat="51.83519354488512" lon="16.152911506332043"><ele>94.0</ele><time>2026-04-08T11:47:32.001Z</time></trkpt><trkpt lat="51.835300025273405" lon="16.152921319309232"><ele>91.25</ele><time>2026-04-08T11:47:33.001Z</time></trkpt><trkpt lat="51.8354056925177" lon="16.152940127655608"><ele>88.5</ele><time>2026-04-08T11:47:34.001Z</time></trkpt><trkpt lat="51.83551513281842" lon="16.152960598957232"><ele>85.75</ele><time>2026-04-08T11:47:35.001Z</time></trkpt><trkpt lat="51.83563482062144" lon="16.15297210441749"><ele>83.0</ele><time>2026-04-08T11:47:36.001Z</time></trkpt><trkpt lat="51.835747566728536" lon="16.15300331516178"><ele>83.0</ele><time>2026-04-08T11:47:37.001Z</time></trkpt><trkpt lat="51.83583098452564" lon="16.153034291874167"><ele>83.0</ele><time>2026-04-08T11:47:38.001Z</time></trkpt><trkpt lat="51.835909559755244" lon="16.153071385814158"><ele>83.0</ele><time>2026-04-08T11:47:39.001Z</time></trkpt><trkpt lat="51.83600016415272" lon="16.153115470134384"><ele>83.0</ele><time>2026-04-08T11:47:41.001Z</time></trkpt><trkpt lat="51.83604210896979" lon="16.152982138393483"><ele>83.0</ele><time>2026-04-08T11:47:44.001Z</time></trkpt><trkpt lat="51.83599465092099" lon="16.1528718979075"><ele>83.0</ele><time>2026-04-08T11:48:36.001Z</time></trkpt><trkpt lat="51.83600085929792" lon="16.152763817558704"><ele>83.60000000000001</ele><time>2026-04-08T11:48:37.001Z</time></trkpt><trkpt lat="51.8360000986762" lon="16.152618948754984"><ele>84.2</ele><time>2026-04-08T11:48:38.001Z</time></trkpt><trkpt lat="51.83599826011803" lon="16.152480237466143"><ele>84.8</ele><time>2026-04-08T11:48:39.001Z</time></trkpt><trkpt lat="51.83597873657986" lon="16.152349135158648"><ele>85.4</ele><time>2026-04-08T11:48:40.001Z</time></trkpt><trkpt lat="51.835960389730566" lon="16.152182859731518"><ele>86.0</ele><time>2026-04-08T11:48:41.001Z</time></trkpt><trkpt lat="51.83595345411634" lon="16.15199347912653"><ele>86.0</ele><time>2026-04-08T11:48:42.001Z</time></trkpt><trkpt lat="51.83595711764557" lon="16.151810160544127"><ele>86.0</ele><time>2026-04-08T11:48:43.001Z</time></trkpt><trkpt lat="51.83595869881601" lon="16.151658347088322"><ele>86.0</ele><time>2026-04-08T11:48:44.001Z</time></trkpt><trkpt lat="51.83596546976009" lon="16.15148763478977"><ele>86.0</ele><time>2026-04-08T11:48:45.001Z</time></trkpt><trkpt lat="51.835965368332836" lon="16.15131982567092"><ele>86.0</ele><time>2026-04-08T11:48:46.001Z</time></trkpt><trkpt lat="51.83596408350196" lon="16.15115684237536"><ele>86.16666666666667</ele><time>2026-04-08T11:48:47.001Z</time></trkpt><trkpt lat="51.83595006751822" lon="16.151006606541078"><ele>86.33333333333334</ele><time>2026-04-08T11:48:48.001Z</time></trkpt><trkpt lat="51.83592403228209" lon="16.150895294541748"><ele>86.5</ele><time>2026-04-08T11:48:49.001Z</time></trkpt><trkpt lat="51.8358736797721" lon="16.15080913274933"><ele>86.66666666666667</ele><time>2026-04-08T11:48:51.001Z</time></trkpt><trkpt lat="51.83594055807037" lon="16.150759109404795"><ele>86.83333333333333</ele><time>2026-04-08T11:48:54.001Z</time></trkpt><trkpt lat="51.83598047193527" lon="16.150853429509507"><ele>87.0</ele><time>2026-04-08T11:48:56.001Z</time></trkpt><trkpt lat="51.83597535597511" lon="16.15104573400036"><ele>85.39999999999999</ele><time>2026-04-08T11:48:58.001Z</time></trkpt><trkpt lat="51.83597790894111" lon="16.151168527708535"><ele>83.8</ele><time>2026-04-08T11:48:59.001Z</time></trkpt><trkpt lat="51.8359848739915" lon="16.151312595287912"><ele>82.2</ele><time>2026-04-08T11:49:00.001Z</time></trkpt><trkpt lat="51.83598972779717" lon="16.15148303350528"><ele>80.6</ele><time>2026-04-08T11:49:01.001Z</time></trkpt><trkpt lat="51.835998261795474" lon="16.151686634908895"><ele>79.0</ele><time>2026-04-08T11:49:02.001Z</time></trkpt><trkpt lat="51.83601030935642" lon="16.151903849453138"><ele>77.0</ele><time>2026-04-08T11:49:03.001Z</time></trkpt><trkpt lat="51.836022878528965" lon="16.152127831125437"><ele>75.0</ele><time>2026-04-08T11:49:04.001Z</time></trkpt><trkpt lat="51.83603221913676" lon="16.15252671559445"><ele>73.0</ele><time>2026-04-08T11:49:06.001Z</time></trkpt><trkpt lat="51.836053329478204" lon="16.15267637118906"><ele>72.66666666666666</ele><time>2026-04-08T11:49:07.001Z</time></trkpt><trkpt lat="51.83606685918188" lon="16.152811687231978"><ele>72.33333333333333</ele><time>2026-04-08T11:49:08.001Z</time></trkpt><trkpt lat="51.83606040299311" lon="16.152978399692028"><ele>72.0</ele><time>2026-04-08T11:49:10.001Z</time></trkpt><trkpt lat="51.83606231262268" lon="16.153103471468224"><ele>71.66666666666667</ele><time>2026-04-08T11:49:13.001Z</time></trkpt><trkpt lat="51.836100373882545" lon="16.153195262320352"><ele>71.33333333333334</ele><time>2026-04-08T11:49:16.001Z</time></trkpt><trkpt lat="51.8361349301048" lon="16.153089293636945"><ele>71.0</ele><time>2026-04-08T11:49:18.001Z</time></trkpt><trkpt lat="51.836070050000124" lon="16.15305961990956"><ele>71.0</ele><time>2026-04-08T11:49:31.001Z</time></trkpt><trkpt lat="51.83600546385872" lon="16.153074868121887"><ele>71.0</ele><time>2026-04-08T11:51:25Z</time></trkpt><trkpt lat="51.835974232058554" lon="16.15294837683114"><ele>71.0</ele><time>2026-04-08T11:51:27Z</time></trkpt><trkpt lat="51.835966665332045" lon="16.152840816108604"><ele>71.0</ele><time>2026-04-08T11:51:28Z</time></trkpt><trkpt lat="51.83596990771975" lon="16.152718418825483"><ele>71.0</ele><time>2026-04-08T11:51:29Z</time></trkpt><trkpt lat="51.83597367588385" lon="16.152610343323182"><ele>71.0</ele><time>2026-04-08T11:51:30Z</time></trkpt><trkpt lat="51.83595275459187" lon="16.152467300068352"><ele>73.5</ele><time>2026-04-08T11:51:31Z</time></trkpt><trkpt lat="51.835945039643626" lon="16.152355986947384"><ele>76.0</ele><time>2026-04-08T11:51:32Z</time></trkpt><trkpt lat="51.835946468745384" lon="16.152241278571324"><ele>78.5</ele><time>2026-04-08T11:51:33Z</time></trkpt><trkpt lat="51.835946082167695" lon="16.15211781443595"><ele>81.0</ele><time>2026-04-08T11:51:34Z</time></trkpt><trkpt lat="51.835940676717996" lon="16.15197977287625"><ele>83.5</ele><time>2026-04-08T11:51:35Z</time></trkpt><trkpt lat="51.83594919177903" lon="16.151844608478683"><ele>86.0</ele><time>2026-04-08T11:51:36Z</time></trkpt><trkpt lat="51.83595508714102" lon="16.151725616124107"><ele>86.0</ele><time>2026-04-08T11:51:37Z</time></trkpt><trkpt lat="51.83595761469441" lon="16.151593212167946"><ele>86.0</ele><time>2026-04-08T11:51:38Z</time></trkpt><trkpt lat="51.83595295729701" lon="16.151448263096142"><ele>86.0</ele><time>2026-04-08T11:51:39Z</time></trkpt><trkpt lat="51.835951523222924" lon="16.15130315313586"><ele>86.0</ele><time>2026-04-08T11:51:40Z</time></trkpt><trkpt lat="51.83594409357895" lon="16.151163200207506"><ele>86.0</ele><time>2026-04-08T11:51:41Z</time></trkpt><trkpt lat="51.83594524197856" lon="16.151041108358175"><ele>86.0</ele><time>2026-04-08T11:51:42Z</time></trkpt><trkpt lat="51.835937967069675" lon="16.150920348221295"><ele>86.16666666666667</ele><time>2026-04-08T11:51:43Z</time></trkpt><trkpt lat="51.835941021849" lon="16.15080109295095"><ele>86.33333333333334</ele><time>2026-04-08T11:51:44Z</time></trkpt><trkpt lat="51.835949550434066" lon="16.150677192635428"><ele>86.5</ele><time>2026-04-08T11:51:45Z</time></trkpt><trkpt lat="51.835960075247996" lon="16.150533004757957"><ele>86.66666666666667</ele><time>2026-04-08T11:51:46Z</time></trkpt><trkpt lat="51.83596990773002" lon="16.15039237834008"><ele>86.83333333333333</ele><time>2026-04-08T11:51:47Z</time></trkpt><trkpt lat="51.83598524147701" lon="16.150247382324462"><ele>87.0</ele><time>2026-04-08T11:51:48Z</time></trkpt><trkpt lat="51.83599251630459" lon="16.150090740438788"><ele>85.6</ele><time>2026-04-08T11:51:49Z</time></trkpt><trkpt lat="51.8360000810623" lon="16.14993946854755"><ele>84.19999999999999</ele><time>2026-04-08T11:51:50Z</time></trkpt><trkpt lat="51.83600709146747" lon="16.14978658813336"><ele>82.8</ele><time>2026-04-08T11:51:51Z</time></trkpt><trkpt lat="51.836018255373645" lon="16.14963163512082"><ele>81.4</ele><time>2026-04-08T11:51:52Z</time></trkpt><trkpt lat="51.836024858527765" lon="16.149472645834546"><ele>80.0</ele><time>2026-04-08T11:51:53Z</time></trkpt><trkpt lat="51.83603429894561" lon="16.149318831210586"><ele>79.6</ele><time>2026-04-08T11:51:54Z</time></trkpt><trkpt lat="51.83604496116201" lon="16.149163200941377"><ele>79.2</ele><time>2026-04-08T11:51:55Z</time></trkpt><trkpt lat="51.836049301996105" lon="16.149005391818093"><ele>78.8</ele><time>2026-04-08T11:51:56Z</time></trkpt><trkpt lat="51.836053327090916" lon="16.148850237652717"><ele>78.4</ele><time>2026-04-08T11:51:57Z</time></trkpt><trkpt lat="51.836058528741916" lon="16.148696038536784"><ele>78.0</ele><time>2026-04-08T11:51:58Z</time></trkpt><trkpt lat="51.83605684933041" lon="16.148532342648462"><ele>77.4</ele><time>2026-04-08T11:51:59Z</time></trkpt><trkpt lat="51.83607173706981" lon="16.148374536134003"><ele>76.8</ele><time>2026-04-08T11:52:00Z</time></trkpt><trkpt lat="51.83608672109913" lon="16.148213298890937"><ele>76.2</ele><time>2026-04-08T11:52:01Z</time></trkpt><trkpt lat="51.83610126586958" lon="16.14804016688261"><ele>75.6</ele><time>2026-04-08T11:52:02Z</time></trkpt><trkpt lat="51.83611813403073" lon="16.147863412195004"><ele>75.0</ele><time>2026-04-08T11:52:03Z</time></trkpt><trkpt lat="51.83613807144559" lon="16.14769811618775"><ele>75.0</ele><time>2026-04-08T11:52:04Z</time></trkpt><trkpt lat="51.83615363348613" lon="16.147542756665775"><ele>75.0</ele><time>2026-04-08T11:52:05Z</time></trkpt><trkpt lat="51.83616653614419" lon="16.147403632391697"><ele>75.0</ele><time>2026-04-08T11:52:06Z</time></trkpt><trkpt lat="51.83617927375231" lon="16.14726151396262"><ele>75.0</ele><time>2026-04-08T11:52:07Z</time></trkpt><trkpt lat="51.8361953821135" lon="16.147114826535557"><ele>75.0</ele><time>2026-04-08T11:52:08Z</time></trkpt><trkpt lat="51.836210791439996" lon="16.146967825137487"><ele>75.0</ele><time>2026-04-08T11:52:09Z</time></trkpt><trkpt lat="51.836221907236926" lon="16.146812313342718"><ele>75.0</ele><time>2026-04-08T11:52:10Z</time></trkpt><trkpt lat="51.836232261820605" lon="16.146667853856883"><ele>75.0</ele><time>2026-04-08T11:52:11Z</time></trkpt><trkpt lat="51.83622737261928" lon="16.146527674244414"><ele>75.0</ele><time>2026-04-08T11:52:12Z</time></trkpt><trkpt lat="51.836236643793114" lon="16.146370625092754"><ele>75.0</ele><time>2026-04-08T11:52:13Z</time></trkpt><trkpt lat="51.83625060665344" lon="16.14620736810713"><ele>75.0</ele><time>2026-04-08T11:52:14Z</time></trkpt><trkpt lat="51.83626873888209" lon="16.14605264036198"><ele>75.0</ele><time>2026-04-08T11:52:15Z</time></trkpt><trkpt lat="51.83629477604389" lon="16.145901159706437"><ele>75.0</ele><time>2026-04-08T11:52:16Z</time></trkpt><trkpt lat="51.83631047364317" lon="16.14574166820389"><ele>75.0</ele><time>2026-04-08T11:52:17Z</time></trkpt><trkpt lat="51.83632195634811" lon="16.145573000635434"><ele>75.0</ele><time>2026-04-08T11:52:18Z</time></trkpt><trkpt lat="51.83635234277296" lon="16.145408581487512"><ele>75.6</ele><time>2026-04-08T11:52:19Z</time></trkpt><trkpt lat="51.83636168764132" lon="16.14524162562532"><ele>76.2</ele><time>2026-04-08T11:52:20Z</time></trkpt><trkpt lat="51.83639667908487" lon="16.145066161096565"><ele>76.8</ele><time>2026-04-08T11:52:21Z</time></trkpt><trkpt lat="51.836424915743706" lon="16.144887354599064"><ele>77.4</ele><time>2026-04-08T11:52:22Z</time></trkpt><trkpt lat="51.836441925672695" lon="16.144708953716012"><ele>78.0</ele><time>2026-04-08T11:52:23.001Z</time></trkpt><trkpt lat="51.83646631473978" lon="16.14451830039548"><ele>78.75</ele><time>2026-04-08T11:52:24.001Z</time></trkpt><trkpt lat="51.83652156212137" lon="16.144356038387503"><ele>79.5</ele><time>2026-04-08T11:52:25.001Z</time></trkpt><trkpt lat="51.83657411157898" lon="16.144172085583442"><ele>80.25</ele><time>2026-04-08T11:52:26.001Z</time></trkpt><trkpt lat="51.83664187479917" lon="16.144020011427276"><ele>81.0</ele><time>2026-04-08T11:52:27.001Z</time></trkpt><trkpt lat="51.83673076442446" lon="16.143885028138538"><ele>81.75</ele><time>2026-04-08T11:52:28.001Z</time></trkpt><trkpt lat="51.83681723210338" lon="16.143748285828917"><ele>82.5</ele><time>2026-04-08T11:52:29.001Z</time></trkpt><trkpt lat="51.83690599372874" lon="16.143623511063176"><ele>83.25</ele><time>2026-04-08T11:52:30.001Z</time></trkpt><trkpt lat="51.83697466949643" lon="16.143460592761183"><ele>84.0</ele><time>2026-04-08T11:52:31.001Z</time></trkpt><trkpt lat="51.83704126760203" lon="16.143291114170218"><ele>84.75</ele><time>2026-04-08T11:52:32.001Z</time></trkpt><trkpt lat="51.83710557598419" lon="16.14313968929311"><ele>85.5</ele><time>2026-04-08T11:52:33.001Z</time></trkpt><trkpt lat="51.83716414813756" lon="16.142970458458937"><ele>86.25</ele><time>2026-04-08T11:52:34.001Z</time></trkpt><trkpt lat="51.83722909213735" lon="16.14280681227761"><ele>87.0</ele><time>2026-04-08T11:52:35.001Z</time></trkpt><trkpt lat="51.837308512729784" lon="16.14264994601874"><ele>87.0</ele><time>2026-04-08T11:52:36.001Z</time></trkpt><trkpt lat="51.83739189786027" lon="16.14249460917404"><ele>87.0</ele><time>2026-04-08T11:52:37.001Z</time></trkpt><trkpt lat="51.837464076456115" lon="16.142333103800635"><ele>87.0</ele><time>2026-04-08T11:52:38.001Z</time></trkpt><trkpt lat="51.837524785435434" lon="16.14217155384141"><ele>87.0</ele><time>2026-04-08T11:52:39.001Z</time></trkpt><trkpt lat="51.83757961906899" lon="16.141999210030782"><ele>86.75</ele><time>2026-04-08T11:52:40.001Z</time></trkpt><trkpt lat="51.837660224503594" lon="16.141851354610807"><ele>86.5</ele><time>2026-04-08T11:52:41.001Z</time></trkpt><trkpt lat="51.837745350620914" lon="16.14172483747825"><ele>86.25</ele><time>2026-04-08T11:52:42.001Z</time></trkpt><trkpt lat="51.83782111076197" lon="16.141603864444804"><ele>86.0</ele><time>2026-04-08T11:52:43.001Z</time></trkpt><trkpt lat="51.83789964255263" lon="16.14144598077464"><ele>86.0</ele><time>2026-04-08T11:52:44.001Z</time></trkpt><trkpt lat="51.837977610633985" lon="16.141299822855565"><ele>86.0</ele><time>2026-04-08T11:52:45Z</time></trkpt><trkpt lat="51.83805834903335" lon="16.141167596231448"><ele>86.0</ele><time>2026-04-08T11:52:46Z</time></trkpt><trkpt lat="51.838134178044015" lon="16.141028431129413"><ele>86.0</ele><time>2026-04-08T11:52:47Z</time></trkpt><trkpt lat="51.83820869424459" lon="16.140888233684763"><ele>86.0</ele><time>2026-04-08T11:52:48Z</time></trkpt><trkpt lat="51.838287326005556" lon="16.140751305306026"><ele>86.0</ele><time>2026-04-08T11:52:49Z</time></trkpt><trkpt lat="51.83835846260075" lon="16.14062452427149"><ele>86.0</ele><time>2026-04-08T11:52:50Z</time></trkpt><trkpt lat="51.83841801281078" lon="16.140503119773204"><ele>86.0</ele><time>2026-04-08T11:52:51Z</time></trkpt><trkpt lat="51.838489392205325" lon="16.1403764411065"><ele>86.0</ele><time>2026-04-08T11:52:52Z</time></trkpt><trkpt lat="51.838565095277296" lon="16.1402382522271"><ele>86.0</ele><time>2026-04-08T11:52:53Z</time></trkpt><trkpt lat="51.83865097479103" lon="16.140101296004808"><ele>86.0</ele><time>2026-04-08T11:52:54Z</time></trkpt><trkpt lat="51.83873603650998" lon="16.139968246715654"><ele>86.0</ele><time>2026-04-08T11:52:55Z</time></trkpt><trkpt lat="51.83881308880147" lon="16.139838250173092"><ele>86.0</ele><time>2026-04-08T11:52:56Z</time></trkpt><trkpt lat="51.83889736182727" lon="16.139709370450237"><ele>85.75</ele><time>2026-04-08T11:52:57Z</time></trkpt><trkpt lat="51.83899706722921" lon="16.139589555976222"><ele>85.5</ele><time>2026-04-08T11:52:58Z</time></trkpt><trkpt lat="51.83909506550339" lon="16.13947836025036"><ele>85.25</ele><time>2026-04-08T11:52:59Z</time></trkpt><trkpt lat="51.839183602047875" lon="16.139332759494913"><ele>85.0</ele><time>2026-04-08T11:53:00Z</time></trkpt><trkpt lat="51.83927120574776" lon="16.139185819284364"><ele>84.25</ele><time>2026-04-08T11:53:01Z</time></trkpt><trkpt lat="51.83937289864689" lon="16.139074236694867"><ele>83.5</ele><time>2026-04-08T11:53:02Z</time></trkpt><trkpt lat="51.839478035560184" lon="16.138972042611332"><ele>82.75</ele><time>2026-04-08T11:53:03Z</time></trkpt><trkpt lat="51.839591799413945" lon="16.13888343747636"><ele>82.0</ele><time>2026-04-08T11:53:04Z</time></trkpt><trkpt lat="51.83970584642116" lon="16.138788596385055"><ele>82.0</ele><time>2026-04-08T11:53:05Z</time></trkpt><trkpt lat="51.83983068353937" lon="16.13870728456927"><ele>82.0</ele><time>2026-04-08T11:53:06Z</time></trkpt><trkpt lat="51.83995105257841" lon="16.13863551876998"><ele>82.0</ele><time>2026-04-08T11:53:07Z</time></trkpt><trkpt lat="51.84006962971293" lon="16.138563060045048"><ele>82.0</ele><time>2026-04-08T11:53:08Z</time></trkpt><trkpt lat="51.84018785970377" lon="16.138490652382643"><ele>81.75</ele><time>2026-04-08T11:53:09Z</time></trkpt><trkpt lat="51.84028741474242" lon="16.138411333881237"><ele>81.5</ele><time>2026-04-08T11:53:10Z</time></trkpt><trkpt lat="51.84039538092784" lon="16.13833224448976"><ele>81.25</ele><time>2026-04-08T11:53:11Z</time></trkpt><trkpt lat="51.84051086114524" lon="16.13826552943998"><ele>81.0</ele><time>2026-04-08T11:53:12Z</time></trkpt><trkpt lat="51.84062227324026" lon="16.13818243216306"><ele>81.0</ele><time>2026-04-08T11:53:13Z</time></trkpt><trkpt lat="51.840737196501415" lon="16.138102133955343"><ele>81.0</ele><time>2026-04-08T11:53:14Z</time></trkpt><trkpt lat="51.840846389886366" lon="16.138003171286876"><ele>81.0</ele><time>2026-04-08T11:53:15Z</time></trkpt><trkpt lat="51.840957246709216" lon="16.137907246757866"><ele>81.0</ele><time>2026-04-08T11:53:16Z</time></trkpt><trkpt lat="51.841061479366886" lon="16.1377937097212"><ele>81.0</ele><time>2026-04-08T11:53:17Z</time></trkpt><trkpt lat="51.84116718439123" lon="16.137684471678615"><ele>81.0</ele><time>2026-04-08T11:53:18Z</time></trkpt><trkpt lat="51.84128517417886" lon="16.137604576163145"><ele>81.0</ele><time>2026-04-08T11:53:19Z</time></trkpt><trkpt lat="51.84140508427885" lon="16.137522693595926"><ele>81.0</ele><time>2026-04-08T11:53:20Z</time></trkpt><trkpt lat="51.8415115044871" lon="16.13743637794088"><ele>81.75</ele><time>2026-04-08T11:53:21Z</time></trkpt><trkpt lat="51.84161379778338" lon="16.137357357252693"><ele>82.5</ele><time>2026-04-08T11:53:22Z</time></trkpt><trkpt lat="51.841733013629934" lon="16.137280462060275"><ele>83.25</ele><time>2026-04-08T11:53:23Z</time></trkpt><trkpt lat="51.841836220781744" lon="16.137192440164768"><ele>84.0</ele><time>2026-04-08T11:53:24Z</time></trkpt><trkpt lat="51.84194662565854" lon="16.137106435586528"><ele>80.75</ele><time>2026-04-08T11:53:25Z</time></trkpt><trkpt lat="51.842067717721186" lon="16.13699858290498"><ele>77.5</ele><time>2026-04-08T11:53:26Z</time></trkpt><trkpt lat="51.84220878861704" lon="16.136963120891142"><ele>74.25</ele><time>2026-04-08T11:53:27Z</time></trkpt><trkpt lat="51.84232845985301" lon="16.13686148755809"><ele>71.0</ele><time>2026-04-08T11:53:28Z</time></trkpt><trkpt lat="51.84243437104686" lon="16.13677022065778"><ele>71.0</ele><time>2026-04-08T11:53:29Z</time></trkpt><trkpt lat="51.842551349615" lon="16.13668285127612"><ele>71.0</ele><time>2026-04-08T11:53:30Z</time></trkpt><trkpt lat="51.84266385010089" lon="16.13659829399125"><ele>71.0</ele><time>2026-04-08T11:53:31Z</time></trkpt><trkpt lat="51.84278260782537" lon="16.13650884633998"><ele>71.0</ele><time>2026-04-08T11:53:32Z</time></trkpt><trkpt lat="51.842900423868066" lon="16.13641906721713"><ele>71.2</ele><time>2026-04-08T11:53:33Z</time></trkpt><trkpt lat="51.843005374248676" lon="16.136336397978738"><ele>71.39999999999999</ele><time>2026-04-08T11:53:34Z</time></trkpt><trkpt lat="51.84309377766624" lon="16.136266762726375"><ele>71.6</ele><time>2026-04-08T11:53:35Z</time></trkpt><trkpt lat="51.843171937101374" lon="16.136206465958523"><ele>71.8</ele><time>2026-04-08T11:53:36Z</time></trkpt><trkpt lat="51.84323687315394" lon="16.136157491307248"><ele>72.0</ele><time>2026-04-08T11:53:37Z</time></trkpt><trkpt lat="51.84333574605369" lon="16.13608829963456"><ele>72.0</ele><time>2026-04-08T11:53:39Z</time></trkpt><trkpt lat="51.8434044520924" lon="16.136040797024553"><ele>72.0</ele><time>2026-04-08T11:53:43Z</time></trkpt></trkseg><trkseg><trkpt lat="51.84348541262935" lon="16.13597788695443"><ele>71.0</ele><time>2026-04-08T12:21:17Z</time></trkpt><trkpt lat="51.84354959195533" lon="16.1359390013504"><ele>71.0</ele><time>2026-04-08T12:21:18Z</time></trkpt><trkpt lat="51.84361427435134" lon="16.135899492245198"><ele>71.0</ele><time>2026-04-08T12:21:19Z</time></trkpt><trkpt lat="51.84369077702131" lon="16.135847438938328"><ele>71.0</ele><time>2026-04-08T12:21:20Z</time></trkpt><trkpt lat="51.84377441090835" lon="16.135784249800857"><ele>71.0</ele><time>2026-04-08T12:21:21Z</time></trkpt><trkpt lat="51.84386290279982" lon="16.135717501578455"><ele>71.0</ele><time>2026-04-08T12:21:22Z</time></trkpt><trkpt lat="51.84395825257564" lon="16.13564127685878"><ele>71.0</ele><time>2026-04-08T12:21:23Z</time></trkpt><trkpt lat="51.84405070853652" lon="16.13556800045289"><ele>71.0</ele><time>2026-04-08T12:21:24Z</time></trkpt><trkpt lat="51.844126019523195" lon="16.135499322016646"><ele>71.0</ele><time>2026-04-08T12:21:25Z</time></trkpt><trkpt lat="51.84418883656538" lon="16.13544954069184"><ele>71.0</ele><time>2026-04-08T12:21:26Z</time></trkpt><trkpt lat="51.84424408348404" lon="16.135395608373685"><ele>71.0</ele><time>2026-04-08T12:21:27Z</time></trkpt><trkpt lat="51.84431959229032" lon="16.13536108377177"><ele>71.0</ele><time>2026-04-08T12:21:29Z</time></trkpt><trkpt lat="51.84423229206452" lon="16.13507067730082"><ele>71.0</ele><time>2026-04-08T12:21:31Z</time></trkpt><trkpt lat="51.84418977686904" lon="16.13498533092964"><ele>71.0</ele><time>2026-04-08T12:21:32Z</time></trkpt><trkpt lat="51.844152524904445" lon="16.134867227556292"><ele>71.0</ele><time>2026-04-08T12:21:33Z</time></trkpt><trkpt lat="51.844110150654664" lon="16.134737259446574"><ele>71.0</ele><time>2026-04-08T12:21:34Z</time></trkpt><trkpt lat="51.844066680103595" lon="16.134594984232724"><ele>71.0</ele><time>2026-04-08T12:21:35Z</time></trkpt><trkpt lat="51.84401998292549" lon="16.134442739102717"><ele>71.0</ele><time>2026-04-08T12:21:36Z</time></trkpt><trkpt lat="51.84397609019148" lon="16.13428562322327"><ele>70.6</ele><time>2026-04-08T12:21:37Z</time></trkpt><trkpt lat="51.843933163104616" lon="16.134128993129075"><ele>70.19999999999999</ele><time>2026-04-08T12:21:38Z</time></trkpt><trkpt lat="51.84390673908178" lon="16.133970506872565"><ele>69.80000000000001</ele><time>2026-04-08T12:21:39Z</time></trkpt><trkpt lat="51.84385145678521" lon="16.13382535634768"><ele>69.4</ele><time>2026-04-08T12:21:40Z</time></trkpt><trkpt lat="51.843815059713165" lon="16.133664102858262"><ele>69.0</ele><time>2026-04-08T12:21:41Z</time></trkpt><trkpt lat="51.843767861056115" lon="16.133506621797206"><ele>69.0</ele><time>2026-04-08T12:21:42Z</time></trkpt><trkpt lat="51.84372063319023" lon="16.133355653269987"><ele>69.0</ele><time>2026-04-08T12:21:43Z</time></trkpt><trkpt lat="51.84366693773399" lon="16.13320332589534"><ele>69.0</ele><time>2026-04-08T12:21:44Z</time></trkpt><trkpt lat="51.84362593108691" lon="16.13303927242399"><ele>69.0</ele><time>2026-04-08T12:21:45Z</time></trkpt><trkpt lat="51.84358167226503" lon="16.132874853348596"><ele>69.0</ele><time>2026-04-08T12:21:46Z</time></trkpt><trkpt lat="51.843550840923434" lon="16.132696728722767"><ele>69.0</ele><time>2026-04-08T12:21:46.999Z</time></trkpt><trkpt lat="51.84349311843125" lon="16.132533723241288"><ele>69.0</ele><time>2026-04-08T12:21:47.999Z</time></trkpt><trkpt lat="51.843446389678334" lon="16.132350874942734"><ele>69.0</ele><time>2026-04-08T12:21:48.999Z</time></trkpt><trkpt lat="51.84341441501303" lon="16.132162038436963"><ele>69.0</ele><time>2026-04-08T12:21:49.999Z</time></trkpt><trkpt lat="51.84336202028553" lon="16.13197369504134"><ele>70.75</ele><time>2026-04-08T12:21:50.999Z</time></trkpt><trkpt lat="51.843310368295604" lon="16.1317902537279"><ele>72.5</ele><time>2026-04-08T12:21:51.999Z</time></trkpt><trkpt lat="51.84326213176825" lon="16.13160899170259"><ele>74.25</ele><time>2026-04-08T12:21:52.999Z</time></trkpt><trkpt lat="51.843217426472016" lon="16.131412107175866"><ele>76.0</ele><time>2026-04-08T12:21:53.999Z</time></trkpt><trkpt lat="51.843175556190054" lon="16.13121223764952"><ele>76.0</ele><time>2026-04-08T12:21:54.999Z</time></trkpt><trkpt lat="51.84313866719877" lon="16.13102473919963"><ele>76.0</ele><time>2026-04-08T12:21:55.999Z</time></trkpt><trkpt lat="51.843113613624915" lon="16.130895294612465"><ele>76.0</ele><time>2026-04-08T12:21:56.999Z</time></trkpt><trkpt lat="51.84308728042185" lon="16.130759576145557"><ele>76.0</ele><time>2026-04-08T12:21:57.999Z</time></trkpt><trkpt lat="51.843046016801296" lon="16.130614046880083"><ele>76.0</ele><time>2026-04-08T12:21:58.999Z</time></trkpt><trkpt lat="51.843016029965796" lon="16.130457873320005"><ele>75.2</ele><time>2026-04-08T12:21:59.999Z</time></trkpt><trkpt lat="51.842987517185655" lon="16.130304506702814"><ele>74.39999999999999</ele><time>2026-04-08T12:22:00.999Z</time></trkpt><trkpt lat="51.842959278048454" lon="16.130142713536472"><ele>73.6</ele><time>2026-04-08T12:22:01.999Z</time></trkpt><trkpt lat="51.84292785713665" lon="16.129968096063955"><ele>72.8</ele><time>2026-04-08T12:22:02.999Z</time></trkpt><trkpt lat="51.84291307983179" lon="16.12978344660384"><ele>72.0</ele><time>2026-04-08T12:22:03.999Z</time></trkpt><trkpt lat="51.84286745313333" lon="16.12959450243755"><ele>71.75</ele><time>2026-04-08T12:22:04.999Z</time></trkpt><trkpt lat="51.84285609558587" lon="16.12938974239677"><ele>71.5</ele><time>2026-04-08T12:22:05.999Z</time></trkpt><trkpt lat="51.84281769246575" lon="16.129179053756598"><ele>71.25</ele><time>2026-04-08T12:22:06.999Z</time></trkpt><trkpt lat="51.84279348543954" lon="16.128971743137832"><ele>71.0</ele><time>2026-04-08T12:22:07.999Z</time></trkpt><trkpt lat="51.84276674860101" lon="16.128764857946027"><ele>71.0</ele><time>2026-04-08T12:22:08.999Z</time></trkpt><trkpt lat="51.842733311918934" lon="16.12858140941164"><ele>71.0</ele><time>2026-04-08T12:22:09.999Z</time></trkpt><trkpt lat="51.84270608947192" lon="16.128407322128044"><ele>71.0</ele><time>2026-04-08T12:22:10.999Z</time></trkpt><trkpt lat="51.8426947667556" lon="16.128231167957118"><ele>71.0</ele><time>2026-04-08T12:22:11.999Z</time></trkpt><trkpt lat="51.84267083282538" lon="16.12804785950435"><ele>70.75</ele><time>2026-04-08T12:22:12.999Z</time></trkpt><trkpt lat="51.842649122824554" lon="16.127853765838218"><ele>70.5</ele><time>2026-04-08T12:22:13.999Z</time></trkpt><trkpt lat="51.84263992243938" lon="16.127658183006027"><ele>70.25</ele><time>2026-04-08T12:22:14.999Z</time></trkpt><trkpt lat="51.84262849057499" lon="16.127457722276166"><ele>70.0</ele><time>2026-04-08T12:22:15.999Z</time></trkpt><trkpt lat="51.84264283162136" lon="16.127250986328594"><ele>70.0</ele><time>2026-04-08T12:22:16.999Z</time></trkpt><trkpt lat="51.842663623740805" lon="16.127029317460654"><ele>70.0</ele><time>2026-04-08T12:22:17.999Z</time></trkpt><trkpt lat="51.84269059115994" lon="16.126812480955333"><ele>70.0</ele><time>2026-04-08T12:22:18.999Z</time></trkpt><trkpt lat="51.84273583465165" lon="16.126592055905277"><ele>70.0</ele><time>2026-04-08T12:22:19.999Z</time></trkpt><trkpt lat="51.84276368793001" lon="16.126370440624413"><ele>70.0</ele><time>2026-04-08T12:22:20.999Z</time></trkpt><trkpt lat="51.84280545439153" lon="16.126152079325518"><ele>70.0</ele><time>2026-04-08T12:22:21.999Z</time></trkpt><trkpt lat="51.84285533527991" lon="16.125934193151636"><ele>70.0</ele><time>2026-04-08T12:22:22.999Z</time></trkpt><trkpt lat="51.842910040210214" lon="16.125711360681304"><ele>70.0</ele><time>2026-04-08T12:22:23.999Z</time></trkpt><trkpt lat="51.84296752212276" lon="16.125486164431205"><ele>70.75</ele><time>2026-04-08T12:22:24.999Z</time></trkpt><trkpt lat="51.843039321309995" lon="16.12528375470889"><ele>71.5</ele><time>2026-04-08T12:22:25.999Z</time></trkpt><trkpt lat="51.843084733132606" lon="16.12506479141914"><ele>72.25</ele><time>2026-04-08T12:22:26.999Z</time></trkpt><trkpt lat="51.843151233573316" lon="16.124856078105868"><ele>73.0</ele><time>2026-04-08T12:22:27.999Z</time></trkpt><trkpt lat="51.84321635536868" lon="16.124652997214664"><ele>74.0</ele><time>2026-04-08T12:22:28.999Z</time></trkpt><trkpt lat="51.843292797231236" lon="16.12445468242913"><ele>75.0</ele><time>2026-04-08T12:22:29.999Z</time></trkpt><trkpt lat="51.84333444600073" lon="16.124244087141435"><ele>76.0</ele><time>2026-04-08T12:22:30.999Z</time></trkpt><trkpt lat="51.84339782713856" lon="16.12405111928686"><ele>77.0</ele><time>2026-04-08T12:22:31.999Z</time></trkpt><trkpt lat="51.84345764114712" lon="16.123853405732337"><ele>76.0</ele><time>2026-04-08T12:22:32.999Z</time></trkpt><trkpt lat="51.84351355045652" lon="16.12365858587425"><ele>75.0</ele><time>2026-04-08T12:22:33.999Z</time></trkpt><trkpt lat="51.84357094512528" lon="16.12345795066749"><ele>74.0</ele><time>2026-04-08T12:22:34.999Z</time></trkpt><trkpt lat="51.843626820726776" lon="16.123252608324695"><ele>73.0</ele><time>2026-04-08T12:22:35.999Z</time></trkpt><trkpt lat="51.843680156938284" lon="16.123039649069742"><ele>73.0</ele><time>2026-04-08T12:22:36.999Z</time></trkpt><trkpt lat="51.84373820431892" lon="16.122838211898905"><ele>73.0</ele><time>2026-04-08T12:22:37.999Z</time></trkpt><trkpt lat="51.8437916155946" lon="16.122625853200617"><ele>73.0</ele><time>2026-04-08T12:22:38.999Z</time></trkpt><trkpt lat="51.84383711687585" lon="16.122426936610776"><ele>73.0</ele><time>2026-04-08T12:22:39.999Z</time></trkpt><trkpt lat="51.843883641340625" lon="16.12223567110939"><ele>73.0</ele><time>2026-04-08T12:22:40.999Z</time></trkpt><trkpt lat="51.84393839135883" lon="16.12190531741388"><ele>73.0</ele><time>2026-04-08T12:22:42.999Z</time></trkpt><trkpt lat="51.84396942927389" lon="16.121740305176154"><ele>73.0</ele><time>2026-04-08T12:22:43.999Z</time></trkpt><trkpt lat="51.84400179182525" lon="16.121602990363474"><ele>73.0</ele><time>2026-04-08T12:22:44.999Z</time></trkpt><trkpt lat="51.844025793137526" lon="16.121487274828844"><ele>73.0</ele><time>2026-04-08T12:22:45.999Z</time></trkpt><trkpt lat="51.84404498888182" lon="16.121387720160484"><ele>73.0</ele><time>2026-04-08T12:22:46.999Z</time></trkpt><trkpt lat="51.844076095337314" lon="16.121230046786327"><ele>73.0</ele><time>2026-04-08T12:22:49.999Z</time></trkpt><trkpt lat="51.84410270872204" lon="16.121082811282783"><ele>73.0</ele><time>2026-04-08T12:22:57.999Z</time></trkpt><trkpt lat="51.84413937952776" lon="16.120998658912097"><ele>73.0</ele><time>2026-04-08T12:22:59.999Z</time></trkpt><trkpt lat="51.844265140663595" lon="16.12108542838889"><ele>72.75</ele><time>2026-04-08T12:23:00.999Z</time></trkpt><trkpt lat="51.844333546388555" lon="16.12107665522603"><ele>72.5</ele><time>2026-04-08T12:23:02.999Z</time></trkpt><trkpt lat="51.844350167495385" lon="16.120655022171785"><ele>72.25</ele><time>2026-04-08T12:23:04.999Z</time></trkpt><trkpt lat="51.84436031567218" lon="16.12051720882363"><ele>72.0</ele><time>2026-04-08T12:23:05.999Z</time></trkpt><trkpt lat="51.84437608649215" lon="16.120359457895827"><ele>72.0</ele><time>2026-04-08T12:23:06.999Z</time></trkpt><trkpt lat="51.84440422953688" lon="16.12019304929698"><ele>72.0</ele><time>2026-04-08T12:23:07.999Z</time></trkpt><trkpt lat="51.84443128478564" lon="16.12002154707711"><ele>72.0</ele><time>2026-04-08T12:23:08.999Z</time></trkpt><trkpt lat="51.84445096639624" lon="16.119853947728128"><ele>72.0</ele><time>2026-04-08T12:23:09.999Z</time></trkpt><trkpt lat="51.84446286473757" lon="16.11968694314961"><ele>72.0</ele><time>2026-04-08T12:23:10.999Z</time></trkpt><trkpt lat="51.84448493068778" lon="16.119513265804358"><ele>72.0</ele><time>2026-04-08T12:23:11.999Z</time></trkpt><trkpt lat="51.844514401616784" lon="16.11933160707235"><ele>72.0</ele><time>2026-04-08T12:23:12.999Z</time></trkpt><trkpt lat="51.84453881089012" lon="16.119144465043732"><ele>72.0</ele><time>2026-04-08T12:23:13.999Z</time></trkpt><trkpt lat="51.84456189996872" lon="16.11896605319448"><ele>72.0</ele><time>2026-04-08T12:23:14.999Z</time></trkpt><trkpt lat="51.84458986613717" lon="16.118678143379483"><ele>72.0</ele><time>2026-04-08T12:23:16.999Z</time></trkpt><trkpt lat="51.844593047152216" lon="16.1185609119439"><ele>72.0</ele><time>2026-04-08T12:23:17.999Z</time></trkpt><trkpt lat="51.84453874956007" lon="16.11839774042832"><ele>72.0</ele><time>2026-04-08T12:23:19.999Z</time></trkpt><trkpt lat="51.844418413577905" lon="16.11837132189899"><ele>72.0</ele><time>2026-04-08T12:23:21.999Z</time></trkpt><trkpt lat="51.84434679066004" lon="16.118389177815345"><ele>72.0</ele><time>2026-04-08T12:23:22.999Z</time></trkpt><trkpt lat="51.84426416181058" lon="16.118397764360743"><ele>72.2</ele><time>2026-04-08T12:23:23.999Z</time></trkpt><trkpt lat="51.84417501769039" lon="16.118407588235787"><ele>72.4</ele><time>2026-04-08T12:23:24.999Z</time></trkpt><trkpt lat="51.84407946608444" lon="16.11841152960418"><ele>72.6</ele><time>2026-04-08T12:23:25.999Z</time></trkpt><trkpt lat="51.843975587173546" lon="16.118423825380173"><ele>72.8</ele><time>2026-04-08T12:23:26.999Z</time></trkpt><trkpt lat="51.84386951736504" lon="16.118424081697256"><ele>73.0</ele><time>2026-04-08T12:23:27.999Z</time></trkpt><trkpt lat="51.843763109976486" lon="16.118423581969473"><ele>73.0</ele><time>2026-04-08T12:23:28.999Z</time></trkpt><trkpt lat="51.843658250700386" lon="16.118431095603388"><ele>73.0</ele><time>2026-04-08T12:23:29.999Z</time></trkpt><trkpt lat="51.84358246348322" lon="16.11840796170895"><ele>73.0</ele><time>2026-04-08T12:23:30.999Z</time></trkpt><trkpt lat="51.84350510579764" lon="16.11830345817833"><ele>73.0</ele><time>2026-04-08T12:23:32.999Z</time></trkpt><trkpt lat="51.84349529809604" lon="16.11809521090001"><ele>73.0</ele><time>2026-04-08T12:23:34.999Z</time></trkpt><trkpt lat="51.843514360964924" lon="16.11797402445661"><ele>73.2</ele><time>2026-04-08T12:23:35.999Z</time></trkpt><trkpt lat="51.843519724412815" lon="16.117836485992107"><ele>73.4</ele><time>2026-04-08T12:23:36.999Z</time></trkpt><trkpt lat="51.84350205531317" lon="16.117698114371805"><ele>73.60000000000001</ele><time>2026-04-08T12:23:37.999Z</time></trkpt><trkpt lat="51.84348274902793" lon="16.117551412491917"><ele>73.8</ele><time>2026-04-08T12:23:38.999Z</time></trkpt><trkpt lat="51.843465853457175" lon="16.11738426665261"><ele>74.0</ele><time>2026-04-08T12:23:39.999Z</time></trkpt><trkpt lat="51.84344562917133" lon="16.11720033832172"><ele>75.0</ele><time>2026-04-08T12:23:40.999Z</time></trkpt><trkpt lat="51.84342217360541" lon="16.116997979313272"><ele>76.0</ele><time>2026-04-08T12:23:41.999Z</time></trkpt><trkpt lat="51.843401287088284" lon="16.116790876492495"><ele>77.0</ele><time>2026-04-08T12:23:42.999Z</time></trkpt><trkpt lat="51.84337414002648" lon="16.116582087235315"><ele>78.0</ele><time>2026-04-08T12:23:43.999Z</time></trkpt><trkpt lat="51.843362842596655" lon="16.116358517546992"><ele>78.0</ele><time>2026-04-08T12:23:44.999Z</time></trkpt><trkpt lat="51.843342231063176" lon="16.116144339584704"><ele>78.0</ele><time>2026-04-08T12:23:45.999Z</time></trkpt><trkpt lat="51.843319710829455" lon="16.1159246840961"><ele>78.0</ele><time>2026-04-08T12:23:46.999Z</time></trkpt><trkpt lat="51.84329510218783" lon="16.115701861817158"><ele>78.0</ele><time>2026-04-08T12:23:47.999Z</time></trkpt><trkpt lat="51.843273879325416" lon="16.115488030522783"><ele>77.75</ele><time>2026-04-08T12:23:48.999Z</time></trkpt><trkpt lat="51.84324860770723" lon="16.11530190252197"><ele>77.5</ele><time>2026-04-08T12:23:49.999Z</time></trkpt><trkpt lat="51.84321897017671" lon="16.115106031182314"><ele>77.25</ele><time>2026-04-08T12:23:50.999Z</time></trkpt><trkpt lat="51.843197860948344" lon="16.114904844612433"><ele>77.0</ele><time>2026-04-08T12:23:51.999Z</time></trkpt><trkpt lat="51.8431836831795" lon="16.114703353546417"><ele>77.0</ele><time>2026-04-08T12:23:52.998Z</time></trkpt><trkpt lat="51.84315824071039" lon="16.114502586453952"><ele>77.0</ele><time>2026-04-08T12:23:53.998Z</time></trkpt><trkpt lat="51.84312663839556" lon="16.114306664886367"><ele>77.0</ele><time>2026-04-08T12:23:54.998Z</time></trkpt><trkpt lat="51.843115866393134" lon="16.114106574523213"><ele>77.0</ele><time>2026-04-08T12:23:55.998Z</time></trkpt><trkpt lat="51.843093375582505" lon="16.11391242954911"><ele>77.0</ele><time>2026-04-08T12:23:56.998Z</time></trkpt><trkpt lat="51.84307904187461" lon="16.113714218302245"><ele>77.0</ele><time>2026-04-08T12:23:57.998Z</time></trkpt><trkpt lat="51.84306161019923" lon="16.113505623767722"><ele>77.0</ele><time>2026-04-08T12:23:58.998Z</time></trkpt><trkpt lat="51.843035975589466" lon="16.113298153638805"><ele>77.0</ele><time>2026-04-08T12:23:59.998Z</time></trkpt><trkpt lat="51.84302175685649" lon="16.11311616080874"><ele>77.0</ele><time>2026-04-08T12:24:00.998Z</time></trkpt><trkpt lat="51.84300493034459" lon="16.112949787586814"><ele>77.0</ele><time>2026-04-08T12:24:01.998Z</time></trkpt><trkpt lat="51.8429814908409" lon="16.112799446361564"><ele>77.0</ele><time>2026-04-08T12:24:02.999Z</time></trkpt><trkpt lat="51.84297072345422" lon="16.11264012491976"><ele>77.0</ele><time>2026-04-08T12:24:03.999Z</time></trkpt><trkpt lat="51.84295511099644" lon="16.112509036531936"><ele>77.0</ele><time>2026-04-08T12:24:04.999Z</time></trkpt><trkpt lat="51.842939158931415" lon="16.11239176308028"><ele>77.2</ele><time>2026-04-08T12:24:05.999Z</time></trkpt><trkpt lat="51.84292297307854" lon="16.112255138556876"><ele>77.4</ele><time>2026-04-08T12:24:06.999Z</time></trkpt><trkpt lat="51.84290246618046" lon="16.112093939074036"><ele>77.6</ele><time>2026-04-08T12:24:07.999Z</time></trkpt><trkpt lat="51.84288221206044" lon="16.11192138262821"><ele>77.8</ele><time>2026-04-08T12:24:08.999Z</time></trkpt><trkpt lat="51.84286366011824" lon="16.111748067158185"><ele>78.0</ele><time>2026-04-08T12:24:09.999Z</time></trkpt><trkpt lat="51.84284648982363" lon="16.111574518518413"><ele>78.0</ele><time>2026-04-08T12:24:10.999Z</time></trkpt><trkpt lat="51.842821235003704" lon="16.111430013051198"><ele>78.0</ele><time>2026-04-08T12:24:11.999Z</time></trkpt><trkpt lat="51.84278991953486" lon="16.111267704076237"><ele>78.0</ele><time>2026-04-08T12:24:12.999Z</time></trkpt><trkpt lat="51.842762646912405" lon="16.111091462092567"><ele>78.0</ele><time>2026-04-08T12:24:13.999Z</time></trkpt><trkpt lat="51.842730874145175" lon="16.110903935662567"><ele>78.0</ele><time>2026-04-08T12:24:14.999Z</time></trkpt><trkpt lat="51.84270875356591" lon="16.11072425260753"><ele>78.0</ele><time>2026-04-08T12:24:15.999Z</time></trkpt><trkpt lat="51.842680756759734" lon="16.1105529081174"><ele>78.0</ele><time>2026-04-08T12:24:16.999Z</time></trkpt><trkpt lat="51.84265356522982" lon="16.11038562202924"><ele>78.0</ele><time>2026-04-08T12:24:17.999Z</time></trkpt><trkpt lat="51.84263589822791" lon="16.110202641128396"><ele>78.0</ele><time>2026-04-08T12:24:18.999Z</time></trkpt><trkpt lat="51.84261670062218" lon="16.11001716733283"><ele>78.0</ele><time>2026-04-08T12:24:19.999Z</time></trkpt><trkpt lat="51.842588700729856" lon="16.10981730477569"><ele>78.25</ele><time>2026-04-08T12:24:20.999Z</time></trkpt><trkpt lat="51.842557969998964" lon="16.10961625121542"><ele>78.5</ele><time>2026-04-08T12:24:21.999Z</time></trkpt><trkpt lat="51.84253100141077" lon="16.109390567758517"><ele>78.75</ele><time>2026-04-08T12:24:22.999Z</time></trkpt><trkpt lat="51.84250091857923" lon="16.109162920512283"><ele>79.0</ele><time>2026-04-08T12:24:23.999Z</time></trkpt><trkpt lat="51.84249206101963" lon="16.10897047805681"><ele>79.0</ele><time>2026-04-08T12:24:24.999Z</time></trkpt><trkpt lat="51.84246767982168" lon="16.108784104982895"><ele>79.0</ele><time>2026-04-08T12:24:26Z</time></trkpt><trkpt lat="51.842443736777284" lon="16.108594698243866"><ele>79.0</ele><time>2026-04-08T12:24:27Z</time></trkpt><trkpt lat="51.842412273490844" lon="16.108413557076027"><ele>79.0</ele><time>2026-04-08T12:24:28Z</time></trkpt><trkpt lat="51.84237296935895" lon="16.108242614463343"><ele>78.8</ele><time>2026-04-08T12:24:29Z</time></trkpt><trkpt lat="51.84234632663027" lon="16.108066594427065"><ele>78.60000000000001</ele><time>2026-04-08T12:24:30Z</time></trkpt><trkpt lat="51.84231608506551" lon="16.107903762531194"><ele>78.4</ele><time>2026-04-08T12:24:31Z</time></trkpt><trkpt lat="51.84229779756101" lon="16.10772421239876"><ele>78.2</ele><time>2026-04-08T12:24:32Z</time></trkpt><trkpt lat="51.84229493394548" lon="16.107538904748548"><ele>78.0</ele><time>2026-04-08T12:24:33Z</time></trkpt><trkpt lat="51.84229042485724" lon="16.10734526983616"><ele>78.0</ele><time>2026-04-08T12:24:34Z</time></trkpt><trkpt lat="51.842277624924435" lon="16.1071512205256"><ele>78.0</ele><time>2026-04-08T12:24:35Z</time></trkpt><trkpt lat="51.84227256399985" lon="16.10697557013657"><ele>78.0</ele><time>2026-04-08T12:24:36Z</time></trkpt><trkpt lat="51.84227268185402" lon="16.106822631195538"><ele>78.0</ele><time>2026-04-08T12:24:37Z</time></trkpt><trkpt lat="51.842286430391326" lon="16.106682005547704"><ele>78.0</ele><time>2026-04-08T12:24:38Z</time></trkpt><trkpt lat="51.842273116726865" lon="16.106549617821358"><ele>78.0</ele><time>2026-04-08T12:24:39Z</time></trkpt><trkpt lat="51.842241985135736" lon="16.10639143554669"><ele>78.0</ele><time>2026-04-08T12:24:40Z</time></trkpt><trkpt lat="51.84220475931214" lon="16.106213970786012"><ele>78.0</ele><time>2026-04-08T12:24:41Z</time></trkpt><trkpt lat="51.84217310911225" lon="16.106014002800514"><ele>78.0</ele><time>2026-04-08T12:24:42Z</time></trkpt><trkpt lat="51.84213897681843" lon="16.105799079825893"><ele>78.25</ele><time>2026-04-08T12:24:43Z</time></trkpt><trkpt lat="51.842099504169944" lon="16.105573562187377"><ele>78.5</ele><time>2026-04-08T12:24:44Z</time></trkpt><trkpt lat="51.84207275658791" lon="16.10533574060395"><ele>78.75</ele><time>2026-04-08T12:24:45Z</time></trkpt><trkpt lat="51.842038973287046" lon="16.105092338272783"><ele>79.0</ele><time>2026-04-08T12:24:46Z</time></trkpt><trkpt lat="51.842002569776874" lon="16.104875473612285"><ele>79.0</ele><time>2026-04-08T12:24:47Z</time></trkpt><trkpt lat="51.84197349089904" lon="16.104668838678922"><ele>79.0</ele><time>2026-04-08T12:24:48Z</time></trkpt><trkpt lat="51.84195540750194" lon="16.104466129609783"><ele>79.0</ele><time>2026-04-08T12:24:49Z</time></trkpt><trkpt lat="51.841937459915805" lon="16.104259114474623"><ele>79.0</ele><time>2026-04-08T12:24:50Z</time></trkpt><trkpt lat="51.84191421580287" lon="16.104044547106383"><ele>79.0</ele><time>2026-04-08T12:24:51Z</time></trkpt><trkpt lat="51.84189818676323" lon="16.103829197086043"><ele>79.0</ele><time>2026-04-08T12:24:52Z</time></trkpt><trkpt lat="51.84186043067391" lon="16.103613228668905"><ele>79.0</ele><time>2026-04-08T12:24:53Z</time></trkpt><trkpt lat="51.84184593750258" lon="16.103399683609823"><ele>79.0</ele><time>2026-04-08T12:24:54Z</time></trkpt><trkpt lat="51.841819641908096" lon="16.10318520688178"><ele>79.0</ele><time>2026-04-08T12:24:55Z</time></trkpt><trkpt lat="51.841800471674546" lon="16.102941774192765"><ele>79.0</ele><time>2026-04-08T12:24:56Z</time></trkpt><trkpt lat="51.84178581899622" lon="16.102706083922353"><ele>79.0</ele><time>2026-04-08T12:24:57Z</time></trkpt><trkpt lat="51.841759976404404" lon="16.102473301833395"><ele>79.0</ele><time>2026-04-08T12:24:58Z</time></trkpt><trkpt lat="51.84173984453285" lon="16.1022469387641"><ele>79.0</ele><time>2026-04-08T12:24:59Z</time></trkpt><trkpt lat="51.841719309951756" lon="16.102058411116918"><ele>79.0</ele><time>2026-04-08T12:25:00Z</time></trkpt><trkpt lat="51.841700363822994" lon="16.101890981131373"><ele>79.0</ele><time>2026-04-08T12:25:01Z</time></trkpt><trkpt lat="51.84167933983908" lon="16.101746169567704"><ele>79.0</ele><time>2026-04-08T12:25:02Z</time></trkpt><trkpt lat="51.84166892411741" lon="16.10162278828879"><ele>79.0</ele><time>2026-04-08T12:25:03Z</time></trkpt><trkpt lat="51.84168525244563" lon="16.101477381409573"><ele>79.0</ele><time>2026-04-08T12:25:05Z</time></trkpt><trkpt lat="51.841794786197035" lon="16.101450829691867"><ele>79.0</ele><time>2026-04-08T12:25:07Z</time></trkpt><trkpt lat="51.841864448149835" lon="16.10146335420127"><ele>79.0</ele><time>2026-04-08T12:25:08Z</time></trkpt><trkpt lat="51.84194180181049" lon="16.101503012607058"><ele>79.0</ele><time>2026-04-08T12:25:09Z</time></trkpt><trkpt lat="51.842028957575785" lon="16.10154055876303"><ele>79.0</ele><time>2026-04-08T12:25:10Z</time></trkpt><trkpt lat="51.842133065027916" lon="16.10158610156026"><ele>79.0</ele><time>2026-04-08T12:25:11Z</time></trkpt><trkpt lat="51.8422506717391" lon="16.101612179930658"><ele>79.0</ele><time>2026-04-08T12:25:12Z</time></trkpt><trkpt lat="51.842378467227775" lon="16.101638018477413"><ele>79.0</ele><time>2026-04-08T12:25:13Z</time></trkpt><trkpt lat="51.84251069703909" lon="16.101661781932783"><ele>79.0</ele><time>2026-04-08T12:25:14Z</time></trkpt><trkpt lat="51.84275774624792" lon="16.10168778528535"><ele>79.0</ele><time>2026-04-08T12:25:16Z</time></trkpt><trkpt lat="51.84287254919044" lon="16.101722865031142"><ele>79.0</ele><time>2026-04-08T12:25:17Z</time></trkpt><trkpt lat="51.84299416188498" lon="16.101731617633398"><ele>79.0</ele><time>2026-04-08T12:25:18Z</time></trkpt><trkpt lat="51.84311621727991" lon="16.101715965732705"><ele>79.0</ele><time>2026-04-08T12:25:19Z</time></trkpt><trkpt lat="51.843228389016645" lon="16.101720103254358"><ele>79.0</ele><time>2026-04-08T12:25:20Z</time></trkpt><trkpt lat="51.84332706816768" lon="16.101724650619875"><ele>79.0</ele><time>2026-04-08T12:25:21Z</time></trkpt><trkpt lat="51.84340742534258" lon="16.10172166438871"><ele>79.0</ele><time>2026-04-08T12:25:22Z</time></trkpt><trkpt lat="51.84349936085222" lon="16.101731855764125"><ele>79.0</ele><time>2026-04-08T12:25:23Z</time></trkpt><trkpt lat="51.84358484531759" lon="16.101735844814378"><ele>79.0</ele><time>2026-04-08T12:25:24Z</time></trkpt><trkpt lat="51.843668637777455" lon="16.101738643567373"><ele>79.0</ele><time>2026-04-08T12:25:26Z</time></trkpt><trkpt lat="51.84380547467664" lon="16.101725943801565"><ele>79.0</ele><time>2026-04-08T12:25:30Z</time></trkpt><trkpt lat="51.84389391302188" lon="16.101698053853806"><ele>79.0</ele><time>2026-04-08T12:25:31Z</time></trkpt><trkpt lat="51.84399230616861" lon="16.10166702457631"><ele>79.0</ele><time>2026-04-08T12:25:32Z</time></trkpt><trkpt lat="51.84409704021731" lon="16.101636364238608"><ele>79.0</ele><time>2026-04-08T12:25:33Z</time></trkpt><trkpt lat="51.844214873776586" lon="16.101578149667766"><ele>79.0</ele><time>2026-04-08T12:25:34Z</time></trkpt><trkpt lat="51.84434953788065" lon="16.10156823405644"><ele>79.0</ele><time>2026-04-08T12:25:35Z</time></trkpt><trkpt lat="51.844490096194356" lon="16.101533122312958"><ele>79.0</ele><time>2026-04-08T12:25:36Z</time></trkpt><trkpt lat="51.84463480057427" lon="16.101481369789788"><ele>79.0</ele><time>2026-04-08T12:25:37Z</time></trkpt><trkpt lat="51.84478287253034" lon="16.1014448276983"><ele>79.0</ele><time>2026-04-08T12:25:38Z</time></trkpt><trkpt lat="51.84493132550709" lon="16.101400259083814"><ele>79.0</ele><time>2026-04-08T12:25:39Z</time></trkpt><trkpt lat="51.845081908333526" lon="16.101370971896216"><ele>79.0</ele><time>2026-04-08T12:25:40Z</time></trkpt><trkpt lat="51.84523528412927" lon="16.101354590484704"><ele>79.0</ele><time>2026-04-08T12:25:41Z</time></trkpt><trkpt lat="51.84537287466079" lon="16.101295011859737"><ele>79.0</ele><time>2026-04-08T12:25:42Z</time></trkpt><trkpt lat="51.845505499398364" lon="16.101270195126574"><ele>79.0</ele><time>2026-04-08T12:25:43Z</time></trkpt><trkpt lat="51.845629096155946" lon="16.101244369508734"><ele>79.0</ele><time>2026-04-08T12:25:44Z</time></trkpt><trkpt lat="51.84575784801305" lon="16.10121177734297"><ele>79.0</ele><time>2026-04-08T12:25:45Z</time></trkpt><trkpt lat="51.84588844500118" lon="16.10118362817659"><ele>79.0</ele><time>2026-04-08T12:25:46Z</time></trkpt><trkpt lat="51.84602353672427" lon="16.101149122047698"><ele>79.0</ele><time>2026-04-08T12:25:47Z</time></trkpt><trkpt lat="51.84615687251001" lon="16.101116766518384"><ele>79.0</ele><time>2026-04-08T12:25:48Z</time></trkpt><trkpt lat="51.846294259832675" lon="16.101082941467716"><ele>79.0</ele><time>2026-04-08T12:25:49Z</time></trkpt><trkpt lat="51.846428235297275" lon="16.10106699492731"><ele>79.0</ele><time>2026-04-08T12:25:50Z</time></trkpt><trkpt lat="51.84656656397104" lon="16.10103867794709"><ele>79.0</ele><time>2026-04-08T12:25:51Z</time></trkpt><trkpt lat="51.84670028922845" lon="16.1010128436138"><ele>79.0</ele><time>2026-04-08T12:25:52.001Z</time></trkpt><trkpt lat="51.846836347176804" lon="16.10098836535096"><ele>79.0</ele><time>2026-04-08T12:25:53.001Z</time></trkpt><trkpt lat="51.846972165028134" lon="16.100950455438173"><ele>79.0</ele><time>2026-04-08T12:25:54.001Z</time></trkpt><trkpt lat="51.84710832257364" lon="16.10093097777391"><ele>79.25</ele><time>2026-04-08T12:25:55.001Z</time></trkpt><trkpt lat="51.84724306746577" lon="16.10090424841428"><ele>79.5</ele><time>2026-04-08T12:25:56.001Z</time></trkpt><trkpt lat="51.8473777902329" lon="16.100879256762152"><ele>79.75</ele><time>2026-04-08T12:25:57.001Z</time></trkpt><trkpt lat="51.84751546997662" lon="16.100852110508875"><ele>80.0</ele><time>2026-04-08T12:25:58.001Z</time></trkpt><trkpt lat="51.8476538896226" lon="16.100826734983798"><ele>80.0</ele><time>2026-04-08T12:25:59Z</time></trkpt><trkpt lat="51.84779302002589" lon="16.100791439696106"><ele>80.0</ele><time>2026-04-08T12:26:00Z</time></trkpt><trkpt lat="51.8479313568272" lon="16.10075838693193"><ele>80.0</ele><time>2026-04-08T12:26:01Z</time></trkpt><trkpt lat="51.84807402555942" lon="16.100736752318152"><ele>80.0</ele><time>2026-04-08T12:26:02Z</time></trkpt><trkpt lat="51.84821312090532" lon="16.100697531961142"><ele>80.0</ele><time>2026-04-08T12:26:03Z</time></trkpt><trkpt lat="51.84834702871311" lon="16.100670863778184"><ele>80.0</ele><time>2026-04-08T12:26:04Z</time></trkpt><trkpt lat="51.848474723328074" lon="16.100641418783916"><ele>80.0</ele><time>2026-04-08T12:26:05Z</time></trkpt><trkpt lat="51.84859957758709" lon="16.100625718928754"><ele>80.0</ele><time>2026-04-08T12:26:06Z</time></trkpt><trkpt lat="51.848721174727224" lon="16.100617410141027"><ele>80.0</ele><time>2026-04-08T12:26:07Z</time></trkpt><trkpt lat="51.848833570413575" lon="16.100591953122773"><ele>80.0</ele><time>2026-04-08T12:26:08Z</time></trkpt><trkpt lat="51.848932754644466" lon="16.100571380762315"><ele>80.0</ele><time>2026-04-08T12:26:09Z</time></trkpt><trkpt lat="51.84902300259768" lon="16.100563877664253"><ele>80.0</ele><time>2026-04-08T12:26:10Z</time></trkpt><trkpt lat="51.849093639368654" lon="16.100550863892156"><ele>80.0</ele><time>2026-04-08T12:26:11Z</time></trkpt><trkpt lat="51.84918997458661" lon="16.100474644747155"><ele>80.0</ele><time>2026-04-08T12:26:13Z</time></trkpt><trkpt lat="51.84919504101937" lon="16.10033534643949"><ele>80.0</ele><time>2026-04-08T12:26:15Z</time></trkpt><trkpt lat="51.84917964474923" lon="16.100236063868422"><ele>80.0</ele><time>2026-04-08T12:26:16Z</time></trkpt><trkpt lat="51.84917906775534" lon="16.10011676611816"><ele>80.0</ele><time>2026-04-08T12:26:17Z</time></trkpt><trkpt lat="51.84917415239122" lon="16.099972681330932"><ele>80.0</ele><time>2026-04-08T12:26:18Z</time></trkpt><trkpt lat="51.8491701368982" lon="16.099809342160984"><ele>80.0</ele><time>2026-04-08T12:26:19Z</time></trkpt><trkpt lat="51.84916726046052" lon="16.0996282987726"><ele>79.75</ele><time>2026-04-08T12:26:20Z</time></trkpt><trkpt lat="51.84916175850694" lon="16.09944271010447"><ele>79.5</ele><time>2026-04-08T12:26:21Z</time></trkpt><trkpt lat="51.849155192095665" lon="16.099258831396373"><ele>79.25</ele><time>2026-04-08T12:26:22Z</time></trkpt><trkpt lat="51.849148133855294" lon="16.099072716936366"><ele>79.0</ele><time>2026-04-08T12:26:23Z</time></trkpt><trkpt lat="51.849141681021415" lon="16.098884519168557"><ele>79.0</ele><time>2026-04-08T12:26:24Z</time></trkpt><trkpt lat="51.849137426366866" lon="16.09869313980869"><ele>79.0</ele><time>2026-04-08T12:26:25Z</time></trkpt><trkpt lat="51.84913388757122" lon="16.09849441837157"><ele>79.0</ele><time>2026-04-08T12:26:26Z</time></trkpt><trkpt lat="51.84912654754859" lon="16.098298970047896"><ele>79.0</ele><time>2026-04-08T12:26:27Z</time></trkpt><trkpt lat="51.84911856460472" lon="16.09810084769565"><ele>79.25</ele><time>2026-04-08T12:26:28Z</time></trkpt><trkpt lat="51.849108038020816" lon="16.097897029442827"><ele>79.5</ele><time>2026-04-08T12:26:29Z</time></trkpt><trkpt lat="51.849102908600614" lon="16.097697515207777"><ele>79.75</ele><time>2026-04-08T12:26:30Z</time></trkpt><trkpt lat="51.84910528532575" lon="16.09752213034812"><ele>80.0</ele><time>2026-04-08T12:26:31Z</time></trkpt><trkpt lat="51.849106350145036" lon="16.09735234409156"><ele>80.0</ele><time>2026-04-08T12:26:32Z</time></trkpt><trkpt lat="51.849097856623814" lon="16.097174871840945"><ele>80.0</ele><time>2026-04-08T12:26:33Z</time></trkpt><trkpt lat="51.84908812082245" lon="16.09699885732654"><ele>80.0</ele><time>2026-04-08T12:26:34Z</time></trkpt><trkpt lat="51.84906075724418" lon="16.096834879265117"><ele>80.0</ele><time>2026-04-08T12:26:35Z</time></trkpt><trkpt lat="51.84909084535428" lon="16.09669126678362"><ele>80.0</ele><time>2026-04-08T12:26:36Z</time></trkpt><trkpt lat="51.84908447854507" lon="16.09654620142516"><ele>79.83333333333334</ele><time>2026-04-08T12:26:37Z</time></trkpt><trkpt lat="51.849079217525286" lon="16.09640610489492"><ele>79.66666666666667</ele><time>2026-04-08T12:26:38Z</time></trkpt><trkpt lat="51.84907133042366" lon="16.09630172690416"><ele>79.5</ele><time>2026-04-08T12:26:39Z</time></trkpt><trkpt lat="51.84908733122422" lon="16.09617919703509"><ele>79.33333333333333</ele><time>2026-04-08T12:26:41Z</time></trkpt><trkpt lat="51.84919013266862" lon="16.09611301744429"><ele>79.16666666666666</ele><time>2026-04-08T12:26:43Z</time></trkpt><trkpt lat="51.84925677754885" lon="16.096079694934225"><ele>79.0</ele><time>2026-04-08T12:26:44Z</time></trkpt><trkpt lat="51.849342534115465" lon="16.09605319720682"><ele>78.8</ele><time>2026-04-08T12:26:45Z</time></trkpt><trkpt lat="51.84943929263742" lon="16.09602547735371"><ele>78.60000000000001</ele><time>2026-04-08T12:26:46Z</time></trkpt><trkpt lat="51.849539616765554" lon="16.095988962479417"><ele>78.4</ele><time>2026-04-08T12:26:47Z</time></trkpt><trkpt lat="51.84964496075699" lon="16.095961932869386"><ele>78.2</ele><time>2026-04-08T12:26:48Z</time></trkpt><trkpt lat="51.84974818885793" lon="16.095933751993083"><ele>78.0</ele><time>2026-04-08T12:26:49Z</time></trkpt><trkpt lat="51.849837805782926" lon="16.09594584734273"><ele>78.0</ele><time>2026-04-08T12:26:50Z</time></trkpt><trkpt lat="51.849917418152806" lon="16.095944430309324"><ele>78.0</ele><time>2026-04-08T12:26:51Z</time></trkpt><trkpt lat="51.84997939276521" lon="16.09592099086999"><ele>78.0</ele><time>2026-04-08T12:26:52Z</time></trkpt><trkpt lat="51.850009165411706" lon="16.095810838089964"><ele>78.0</ele><time>2026-04-08T12:26:53.001Z</time></trkpt><trkpt lat="51.850037316559906" lon="16.095715860650394"><ele>78.0</ele><time>2026-04-08T12:26:54.001Z</time></trkpt><trkpt lat="51.85007814788856" lon="16.095610543281218"><ele>78.0</ele><time>2026-04-08T12:26:55.001Z</time></trkpt><trkpt lat="51.85014155106219" lon="16.095541750078926"><ele>78.0</ele><time>2026-04-08T12:26:56.001Z</time></trkpt><trkpt lat="51.850232869789096" lon="16.09556763054128"><ele>78.2</ele><time>2026-04-08T12:26:57.001Z</time></trkpt><trkpt lat="51.850320062197454" lon="16.095544346752085"><ele>78.4</ele><time>2026-04-08T12:26:58.001Z</time></trkpt><trkpt lat="51.850422176830556" lon="16.09552300525445"><ele>78.60000000000001</ele><time>2026-04-08T12:26:59.001Z</time></trkpt><trkpt lat="51.85053706734902" lon="16.095479960098107"><ele>78.8</ele><time>2026-04-08T12:27:00.001Z</time></trkpt><trkpt lat="51.850652544985465" lon="16.095460872516146"><ele>79.0</ele><time>2026-04-08T12:27:01.001Z</time></trkpt><trkpt lat="51.850773358318136" lon="16.095428904921306"><ele>79.0</ele><time>2026-04-08T12:27:02.001Z</time></trkpt><trkpt lat="51.8508986464847" lon="16.095386127759756"><ele>79.0</ele><time>2026-04-08T12:27:03.001Z</time></trkpt><trkpt lat="51.85102912524278" lon="16.095347416575475"><ele>79.0</ele><time>2026-04-08T12:27:04.001Z</time></trkpt><trkpt lat="51.85116563763933" lon="16.095303200709914"><ele>79.0</ele><time>2026-04-08T12:27:05.001Z</time></trkpt><trkpt lat="51.85129969389194" lon="16.095297917852314"><ele>78.75</ele><time>2026-04-08T12:27:06.001Z</time></trkpt><trkpt lat="51.85143787394358" lon="16.095247282944193"><ele>78.5</ele><time>2026-04-08T12:27:07.001Z</time></trkpt><trkpt lat="51.85157129743837" lon="16.09521580499339"><ele>78.25</ele><time>2026-04-08T12:27:08.001Z</time></trkpt><trkpt lat="51.85170103471047" lon="16.095185739067084"><ele>78.0</ele><time>2026-04-08T12:27:09.001Z</time></trkpt><trkpt lat="51.85182549060572" lon="16.095139229268693"><ele>77.75</ele><time>2026-04-08T12:27:10.001Z</time></trkpt><trkpt lat="51.851955096720985" lon="16.095128184712838"><ele>77.5</ele><time>2026-04-08T12:27:11.001Z</time></trkpt><trkpt lat="51.85208444583645" lon="16.09510083273516"><ele>77.25</ele><time>2026-04-08T12:27:12.001Z</time></trkpt><trkpt lat="51.8522155837639" lon="16.09505830175615"><ele>77.0</ele><time>2026-04-08T12:27:13.001Z</time></trkpt><trkpt lat="51.852348263326476" lon="16.09501632717659"><ele>77.0</ele><time>2026-04-08T12:27:14.001Z</time></trkpt><trkpt lat="51.8524806752102" lon="16.094969921547055"><ele>77.0</ele><time>2026-04-08T12:27:15.001Z</time></trkpt><trkpt lat="51.852613930058496" lon="16.09493609894948"><ele>77.0</ele><time>2026-04-08T12:27:16.001Z</time></trkpt><trkpt lat="51.85274188888649" lon="16.09488431541086"><ele>77.0</ele><time>2026-04-08T12:27:17.001Z</time></trkpt><trkpt lat="51.8528749108475" lon="16.094869315288875"><ele>77.0</ele><time>2026-04-08T12:27:18.001Z</time></trkpt><trkpt lat="51.85300192116507" lon="16.09480848123104"><ele>77.0</ele><time>2026-04-08T12:27:19.001Z</time></trkpt><trkpt lat="51.85312727460732" lon="16.094755840352125"><ele>77.0</ele><time>2026-04-08T12:27:20.001Z</time></trkpt><trkpt lat="51.85324799649366" lon="16.094690925709962"><ele>77.0</ele><time>2026-04-08T12:27:21.001Z</time></trkpt><trkpt lat="51.853342802457654" lon="16.09456557084762"><ele>77.0</ele><time>2026-04-08T12:27:22.001Z</time></trkpt><trkpt lat="51.85344539503873" lon="16.09445149643281"><ele>77.0</ele><time>2026-04-08T12:27:23.001Z</time></trkpt><trkpt lat="51.853545956142376" lon="16.09433784973761"><ele>77.0</ele><time>2026-04-08T12:27:24.001Z</time></trkpt><trkpt lat="51.85363287467991" lon="16.094246028104212"><ele>77.0</ele><time>2026-04-08T12:27:25.001Z</time></trkpt><trkpt lat="51.85370746350243" lon="16.094157697793996"><ele>77.0</ele><time>2026-04-08T12:27:26.001Z</time></trkpt><trkpt lat="51.85377869907608" lon="16.09407012493246"><ele>76.66666666666667</ele><time>2026-04-08T12:27:27.001Z</time></trkpt><trkpt lat="51.853806436586815" lon="16.093924829640894"><ele>76.33333333333334</ele><time>2026-04-08T12:27:28.001Z</time></trkpt><trkpt lat="51.85381233287028" lon="16.093792306577726"><ele>76.0</ele><time>2026-04-08T12:27:29.001Z</time></trkpt><trkpt lat="51.853799618222034" lon="16.0936546060461"><ele>75.66666666666667</ele><time>2026-04-08T12:27:30.001Z</time></trkpt><trkpt lat="51.853780817879816" lon="16.09351159145733"><ele>75.33333333333333</ele><time>2026-04-08T12:27:31.001Z</time></trkpt><trkpt lat="51.85377015972681" lon="16.093360588119154"><ele>75.0</ele><time>2026-04-08T12:27:32.001Z</time></trkpt><trkpt lat="51.85376804978532" lon="16.09320158550828"><ele>75.0</ele><time>2026-04-08T12:27:33.001Z</time></trkpt><trkpt lat="51.853768710117976" lon="16.093032054228985"><ele>75.0</ele><time>2026-04-08T12:27:34.001Z</time></trkpt><trkpt lat="51.85376737665548" lon="16.092859512884043"><ele>75.0</ele><time>2026-04-08T12:27:35.001Z</time></trkpt><trkpt lat="51.853773008714235" lon="16.09267742234278"><ele>75.0</ele><time>2026-04-08T12:27:36.001Z</time></trkpt><trkpt lat="51.85379540977105" lon="16.092489853262027"><ele>75.0</ele><time>2026-04-08T12:27:37.001Z</time></trkpt><trkpt lat="51.853807302741025" lon="16.092302136849348"><ele>75.5</ele><time>2026-04-08T12:27:38.001Z</time></trkpt><trkpt lat="51.853823148356504" lon="16.092107808810443"><ele>76.0</ele><time>2026-04-08T12:27:39.001Z</time></trkpt><trkpt lat="51.8538336343629" lon="16.091900964114753"><ele>76.5</ele><time>2026-04-08T12:27:40.001Z</time></trkpt><trkpt lat="51.853820830595495" lon="16.09169158116846"><ele>77.0</ele><time>2026-04-08T12:27:41.001Z</time></trkpt><trkpt lat="51.853843307877064" lon="16.09147683698332"><ele>77.0</ele><time>2026-04-08T12:27:42.001Z</time></trkpt><trkpt lat="51.853853989356715" lon="16.09127116240082"><ele>77.0</ele><time>2026-04-08T12:27:43.001Z</time></trkpt><trkpt lat="51.853853234306655" lon="16.091065454566916"><ele>77.0</ele><time>2026-04-08T12:27:44.001Z</time></trkpt><trkpt lat="51.85386357179095" lon="16.09086580711916"><ele>77.0</ele><time>2026-04-08T12:27:45.001Z</time></trkpt><trkpt lat="51.85387495353213" lon="16.090671548421017"><ele>77.0</ele><time>2026-04-08T12:27:46.001Z</time></trkpt><trkpt lat="51.85386117550277" lon="16.09051138456615"><ele>77.0</ele><time>2026-04-08T12:27:47.001Z</time></trkpt><trkpt lat="51.85385724361469" lon="16.090362964238707"><ele>77.0</ele><time>2026-04-08T12:27:48.001Z</time></trkpt><trkpt lat="51.85388021362909" lon="16.090239210880505"><ele>77.0</ele><time>2026-04-08T12:27:49.001Z</time></trkpt><trkpt lat="51.85391994362392" lon="16.090156669895258"><ele>77.0</ele><time>2026-04-08T12:27:50.001Z</time></trkpt><trkpt lat="51.85400997406025" lon="16.090105027087695"><ele>77.0</ele><time>2026-04-08T12:27:52.001Z</time></trkpt><trkpt lat="51.85408954923437" lon="16.090081802304326"><ele>77.0</ele><time>2026-04-08T12:27:53.001Z</time></trkpt><trkpt lat="51.854175300082474" lon="16.090061336253694"><ele>77.0</ele><time>2026-04-08T12:27:54.001Z</time></trkpt><trkpt lat="51.85427272973413" lon="16.090042362852454"><ele>77.0</ele><time>2026-04-08T12:27:55.001Z</time></trkpt><trkpt lat="51.854380548222224" lon="16.090014141626696"><ele>77.0</ele><time>2026-04-08T12:27:56.001Z</time></trkpt><trkpt lat="51.85449458085715" lon="16.089963860023346"><ele>77.0</ele><time>2026-04-08T12:27:57.001Z</time></trkpt><trkpt lat="51.85459914528967" lon="16.08990633614773"><ele>76.75</ele><time>2026-04-08T12:27:58.001Z</time></trkpt><trkpt lat="51.85470458692258" lon="16.08983615399182"><ele>76.5</ele><time>2026-04-08T12:27:59.001Z</time></trkpt><trkpt lat="51.85481372168977" lon="16.089741707999096"><ele>76.25</ele><time>2026-04-08T12:28:00.001Z</time></trkpt><trkpt lat="51.85491662198208" lon="16.089633215730444"><ele>76.0</ele><time>2026-04-08T12:28:01.001Z</time></trkpt><trkpt lat="51.85502677737283" lon="16.089527644065573"><ele>75.75</ele><time>2026-04-08T12:28:02.001Z</time></trkpt><trkpt lat="51.85513521480826" lon="16.089408370811295"><ele>75.5</ele><time>2026-04-08T12:28:03.001Z</time></trkpt><trkpt lat="51.8552488531707" lon="16.089298845274957"><ele>75.25</ele><time>2026-04-08T12:28:04.001Z</time></trkpt><trkpt lat="51.855362326892916" lon="16.089181065989795"><ele>75.0</ele><time>2026-04-08T12:28:05.001Z</time></trkpt><trkpt lat="51.85548584718092" lon="16.0890908569596"><ele>75.0</ele><time>2026-04-08T12:28:06.001Z</time></trkpt><trkpt lat="51.855601362246354" lon="16.088997818753963"><ele>75.0</ele><time>2026-04-08T12:28:07.001Z</time></trkpt><trkpt lat="51.855713791596784" lon="16.088919301214645"><ele>75.0</ele><time>2026-04-08T12:28:08.001Z</time></trkpt><trkpt lat="51.85580859378769" lon="16.08883806866188"><ele>75.0</ele><time>2026-04-08T12:28:09.001Z</time></trkpt><trkpt lat="51.855901133544904" lon="16.088793298129655"><ele>75.4</ele><time>2026-04-08T12:28:10.001Z</time></trkpt><trkpt lat="51.85599032526451" lon="16.088787848386783"><ele>75.8</ele><time>2026-04-08T12:28:11.001Z</time></trkpt><trkpt lat="51.85608295479224" lon="16.08874449737563"><ele>76.2</ele><time>2026-04-08T12:28:12.001Z</time></trkpt><trkpt lat="51.85619099194638" lon="16.08872888254853"><ele>76.6</ele><time>2026-04-08T12:28:13.001Z</time></trkpt><trkpt lat="51.85630480724352" lon="16.08872554380083"><ele>77.0</ele><time>2026-04-08T12:28:14.001Z</time></trkpt><trkpt lat="51.85642247893435" lon="16.08867669471467"><ele>77.0</ele><time>2026-04-08T12:28:15.001Z</time></trkpt><trkpt lat="51.85654216627341" lon="16.088661616747643"><ele>77.0</ele><time>2026-04-08T12:28:16.001Z</time></trkpt><trkpt lat="51.856666700490244" lon="16.088634525360586"><ele>77.0</ele><time>2026-04-08T12:28:17.001Z</time></trkpt><trkpt lat="51.8567910305833" lon="16.088633345863286"><ele>77.0</ele><time>2026-04-08T12:28:18.001Z</time></trkpt><trkpt lat="51.85691836924321" lon="16.08858354105028"><ele>77.0</ele><time>2026-04-08T12:28:19.001Z</time></trkpt><trkpt lat="51.85704777139608" lon="16.08854938443259"><ele>77.0</ele><time>2026-04-08T12:28:20.001Z</time></trkpt><trkpt lat="51.857182574848544" lon="16.08853182613532"><ele>77.0</ele><time>2026-04-08T12:28:21.001Z</time></trkpt><trkpt lat="51.857313551971586" lon="16.088477057820082"><ele>77.0</ele><time>2026-04-08T12:28:22.001Z</time></trkpt><trkpt lat="51.857449374203426" lon="16.088429124861154"><ele>77.0</ele><time>2026-04-08T12:28:23.001Z</time></trkpt><trkpt lat="51.8575767086334" lon="16.088371883692663"><ele>77.0</ele><time>2026-04-08T12:28:24.001Z</time></trkpt><trkpt lat="51.85769864963209" lon="16.088312701165698"><ele>77.0</ele><time>2026-04-08T12:28:25.001Z</time></trkpt><trkpt lat="51.85782172218706" lon="16.08824937321137"><ele>77.0</ele><time>2026-04-08T12:28:26.001Z</time></trkpt><trkpt lat="51.85795280274941" lon="16.08820897967735"><ele>76.75</ele><time>2026-04-08T12:28:27.001Z</time></trkpt><trkpt lat="51.85807352578201" lon="16.088124522897864"><ele>76.5</ele><time>2026-04-08T12:28:28.001Z</time></trkpt><trkpt lat="51.8581987897429" lon="16.08807538752918"><ele>76.25</ele><time>2026-04-08T12:28:29.001Z</time></trkpt><trkpt lat="51.85831250258824" lon="16.088005557935233"><ele>76.0</ele><time>2026-04-08T12:28:30.001Z</time></trkpt><trkpt lat="51.85842820614325" lon="16.087943743178208"><ele>75.75</ele><time>2026-04-08T12:28:31.001Z</time></trkpt><trkpt lat="51.858547449247304" lon="16.087878259032383"><ele>75.5</ele><time>2026-04-08T12:28:32.001Z</time></trkpt><trkpt lat="51.85866567561446" lon="16.087811457893896"><ele>75.25</ele><time>2026-04-08T12:28:33.001Z</time></trkpt><trkpt lat="51.85878153587739" lon="16.087758714868244"><ele>75.0</ele><time>2026-04-08T12:28:34.001Z</time></trkpt><trkpt lat="51.85889865163788" lon="16.08773564237651"><ele>75.0</ele><time>2026-04-08T12:28:35.001Z</time></trkpt><trkpt lat="51.859003058722415" lon="16.087673401921858"><ele>75.0</ele><time>2026-04-08T12:28:36.001Z</time></trkpt><trkpt lat="51.859116269757074" lon="16.0876601266859"><ele>75.0</ele><time>2026-04-08T12:28:37.001Z</time></trkpt><trkpt lat="51.85922377078845" lon="16.08762623709228"><ele>75.0</ele><time>2026-04-08T12:28:38.001Z</time></trkpt><trkpt lat="51.85933171951163" lon="16.087594836270764"><ele>75.0</ele><time>2026-04-08T12:28:39.001Z</time></trkpt><trkpt lat="51.85944485616927" lon="16.08756623448099"><ele>74.75</ele><time>2026-04-08T12:28:40.001Z</time></trkpt><trkpt lat="51.859555745743165" lon="16.087543790652973"><ele>74.5</ele><time>2026-04-08T12:28:41.001Z</time></trkpt><trkpt lat="51.85967384840843" lon="16.08749620855286"><ele>74.25</ele><time>2026-04-08T12:28:42.001Z</time></trkpt><trkpt lat="51.85980112142601" lon="16.087504603751174"><ele>74.0</ele><time>2026-04-08T12:28:43.001Z</time></trkpt><trkpt lat="51.85992667642286" lon="16.087490060359"><ele>74.0</ele><time>2026-04-08T12:28:44.001Z</time></trkpt><trkpt lat="51.860054322674436" lon="16.087475274672983"><ele>74.0</ele><time>2026-04-08T12:28:45.001Z</time></trkpt><trkpt lat="51.86017768182715" lon="16.08746445193434"><ele>74.0</ele><time>2026-04-08T12:28:46.001Z</time></trkpt><trkpt lat="51.86029547253168" lon="16.087454760313715"><ele>74.0</ele><time>2026-04-08T12:28:47.001Z</time></trkpt><trkpt lat="51.86041208362446" lon="16.087449419815567"><ele>74.0</ele><time>2026-04-08T12:28:48.001Z</time></trkpt><trkpt lat="51.86053600263945" lon="16.08742062019407"><ele>74.0</ele><time>2026-04-08T12:28:49.001Z</time></trkpt><trkpt lat="51.86065672568857" lon="16.087449954843905"><ele>74.0</ele><time>2026-04-08T12:28:50.001Z</time></trkpt><trkpt lat="51.8607791088354" lon="16.08745606507395"><ele>74.0</ele><time>2026-04-08T12:28:51.001Z</time></trkpt><trkpt lat="51.86089421978007" lon="16.087462823304126"><ele>74.25</ele><time>2026-04-08T12:28:52.001Z</time></trkpt><trkpt lat="51.86101663946677" lon="16.08745166041465"><ele>74.5</ele><time>2026-04-08T12:28:53.001Z</time></trkpt><trkpt lat="51.86113968698252" lon="16.08746025376545"><ele>74.75</ele><time>2026-04-08T12:28:54.001Z</time></trkpt><trkpt lat="51.86126125723622" lon="16.08746129413258"><ele>75.0</ele><time>2026-04-08T12:28:55.001Z</time></trkpt><trkpt lat="51.86138111170106" lon="16.0874720875797"><ele>75.0</ele><time>2026-04-08T12:28:56.001Z</time></trkpt><trkpt lat="51.86149723126708" lon="16.087483084092195"><ele>75.0</ele><time>2026-04-08T12:28:57.001Z</time></trkpt><trkpt lat="51.86161517188228" lon="16.08748197147979"><ele>75.0</ele><time>2026-04-08T12:28:58.001Z</time></trkpt><trkpt lat="51.861731015348205" lon="16.087487026424643"><ele>75.0</ele><time>2026-04-08T12:28:59.001Z</time></trkpt><trkpt lat="51.86184892822289" lon="16.087488181589322"><ele>74.75</ele><time>2026-04-08T12:29:00.001Z</time></trkpt><trkpt lat="51.86196423728357" lon="16.087486213885256"><ele>74.5</ele><time>2026-04-08T12:29:01.001Z</time></trkpt><trkpt lat="51.86208193265923" lon="16.087480598265074"><ele>74.25</ele><time>2026-04-08T12:29:02.001Z</time></trkpt><trkpt lat="51.862199780508725" lon="16.087486509208713"><ele>74.0</ele><time>2026-04-08T12:29:03.001Z</time></trkpt><trkpt lat="51.86231388478464" lon="16.087482925332083"><ele>74.0</ele><time>2026-04-08T12:29:04.001Z</time></trkpt><trkpt lat="51.862428400498025" lon="16.0874804926587"><ele>74.0</ele><time>2026-04-08T12:29:05.001Z</time></trkpt><trkpt lat="51.86255490303176" lon="16.08748697156198"><ele>74.0</ele><time>2026-04-08T12:29:06.001Z</time></trkpt><trkpt lat="51.86268961842587" lon="16.087495641513375"><ele>74.0</ele><time>2026-04-08T12:29:07.001Z</time></trkpt><trkpt lat="51.86282394494491" lon="16.08749060392022"><ele>74.25</ele><time>2026-04-08T12:29:08.001Z</time></trkpt><trkpt lat="51.86295182315523" lon="16.087481021434872"><ele>74.5</ele><time>2026-04-08T12:29:09.001Z</time></trkpt><trkpt lat="51.86307691083835" lon="16.08747231255103"><ele>74.75</ele><time>2026-04-08T12:29:10.001Z</time></trkpt><trkpt lat="51.86319365982316" lon="16.08747365194525"><ele>75.0</ele><time>2026-04-08T12:29:11.001Z</time></trkpt><trkpt lat="51.86330767165168" lon="16.087475967032272"><ele>75.0</ele><time>2026-04-08T12:29:12.001Z</time></trkpt><trkpt lat="51.863422061649764" lon="16.08748358458716"><ele>75.0</ele><time>2026-04-08T12:29:13.001Z</time></trkpt><trkpt lat="51.86353521462936" lon="16.08746504829968"><ele>75.0</ele><time>2026-04-08T12:29:14.001Z</time></trkpt><trkpt lat="51.86365098764974" lon="16.08745500742082"><ele>75.0</ele><time>2026-04-08T12:29:15.001Z</time></trkpt><trkpt lat="51.863763163813196" lon="16.08745198554602"><ele>75.0</ele><time>2026-04-08T12:29:16.001Z</time></trkpt><trkpt lat="51.863875920278176" lon="16.087460512301316"><ele>75.0</ele><time>2026-04-08T12:29:17.001Z</time></trkpt><trkpt lat="51.86398836815494" lon="16.087462337201323"><ele>75.0</ele><time>2026-04-08T12:29:18.001Z</time></trkpt><trkpt lat="51.86410294118857" lon="16.087466302498733"><ele>75.0</ele><time>2026-04-08T12:29:19.001Z</time></trkpt><trkpt lat="51.864222654000294" lon="16.08746163776266"><ele>74.75</ele><time>2026-04-08T12:29:20.001Z</time></trkpt><trkpt lat="51.864344668385705" lon="16.08746143419123"><ele>74.5</ele><time>2026-04-08T12:29:21.001Z</time></trkpt><trkpt lat="51.86446384094568" lon="16.087468450781362"><ele>74.25</ele><time>2026-04-08T12:29:22.001Z</time></trkpt><trkpt lat="51.86458066564614" lon="16.087467310901562"><ele>74.0</ele><time>2026-04-08T12:29:23.001Z</time></trkpt><trkpt lat="51.86470531098841" lon="16.087472951989902"><ele>74.0</ele><time>2026-04-08T12:29:24.001Z</time></trkpt><trkpt lat="51.864828318676594" lon="16.087473973875905"><ele>74.0</ele><time>2026-04-08T12:29:25.001Z</time></trkpt><trkpt lat="51.86494439510087" lon="16.087469527171418"><ele>74.0</ele><time>2026-04-08T12:29:26.001Z</time></trkpt><trkpt lat="51.865058878278795" lon="16.087466747274192"><ele>74.0</ele><time>2026-04-08T12:29:27.001Z</time></trkpt><trkpt lat="51.865173603620846" lon="16.087464674595243"><ele>73.66666666666667</ele><time>2026-04-08T12:29:28.001Z</time></trkpt><trkpt lat="51.86526961922922" lon="16.0874697260917"><ele>73.33333333333334</ele><time>2026-04-08T12:29:29.001Z</time></trkpt><trkpt lat="51.86534656312989" lon="16.08747303203972"><ele>73.0</ele><time>2026-04-08T12:29:30.001Z</time></trkpt><trkpt lat="51.865422501633425" lon="16.087487094767773"><ele>72.66666666666667</ele><time>2026-04-08T12:29:32.001Z</time></trkpt><trkpt lat="51.86552058040791" lon="16.08745584135219"><ele>72.33333333333333</ele><time>2026-04-08T12:30:04.001Z</time></trkpt><trkpt lat="51.865591109931316" lon="16.087460445110775"><ele>72.0</ele><time>2026-04-08T12:30:05.001Z</time></trkpt><trkpt lat="51.86567740998208" lon="16.087459542989002"><ele>72.0</ele><time>2026-04-08T12:30:06.001Z</time></trkpt><trkpt lat="51.86577330995985" lon="16.087461300747815"><ele>72.0</ele><time>2026-04-08T12:30:07.001Z</time></trkpt><trkpt lat="51.86588071613043" lon="16.08745537164701"><ele>72.0</ele><time>2026-04-08T12:30:08.001Z</time></trkpt><trkpt lat="51.86598572423688" lon="16.087465863831703"><ele>72.0</ele><time>2026-04-08T12:30:09.001Z</time></trkpt><trkpt lat="51.8661014416449" lon="16.08748699647092"><ele>72.0</ele><time>2026-04-08T12:30:10.001Z</time></trkpt><trkpt lat="51.86621553324413" lon="16.0874632593993"><ele>71.75</ele><time>2026-04-08T12:30:11.001Z</time></trkpt><trkpt lat="51.866338441018556" lon="16.08747346677552"><ele>71.5</ele><time>2026-04-08T12:30:12.001Z</time></trkpt><trkpt lat="51.866467842874734" lon="16.087476320487696"><ele>71.25</ele><time>2026-04-08T12:30:13.001Z</time></trkpt><trkpt lat="51.86659900999779" lon="16.087474182393848"><ele>71.0</ele><time>2026-04-08T12:30:14.001Z</time></trkpt><trkpt lat="51.86673672517981" lon="16.087503412357446"><ele>70.75</ele><time>2026-04-08T12:30:15.001Z</time></trkpt><trkpt lat="51.866857310956966" lon="16.087485294842757"><ele>70.5</ele><time>2026-04-08T12:30:16.001Z</time></trkpt><trkpt lat="51.8669989826518" lon="16.087505500014696"><ele>70.25</ele><time>2026-04-08T12:30:17.001Z</time></trkpt><trkpt lat="51.86713946400584" lon="16.087506019011936"><ele>70.0</ele><time>2026-04-08T12:30:18.001Z</time></trkpt><trkpt lat="51.86727011555923" lon="16.087508713572426"><ele>70.0</ele><time>2026-04-08T12:30:19.001Z</time></trkpt><trkpt lat="51.867402239138634" lon="16.08754634516007"><ele>70.0</ele><time>2026-04-08T12:30:20.001Z</time></trkpt><trkpt lat="51.867533661273114" lon="16.087565577184165"><ele>70.0</ele><time>2026-04-08T12:30:21.001Z</time></trkpt><trkpt lat="51.867667439897836" lon="16.087595122044327"><ele>70.0</ele><time>2026-04-08T12:30:22.001Z</time></trkpt><trkpt lat="51.86779612383601" lon="16.087637107101187"><ele>70.5</ele><time>2026-04-08T12:30:23.001Z</time></trkpt><trkpt lat="51.86791359842433" lon="16.087696624214"><ele>71.0</ele><time>2026-04-08T12:30:24.001Z</time></trkpt><trkpt lat="51.868023079279695" lon="16.087760389204686"><ele>71.5</ele><time>2026-04-08T12:30:25.001Z</time></trkpt><trkpt lat="51.868131307251055" lon="16.087802840934224"><ele>72.0</ele><time>2026-04-08T12:30:26.001Z</time></trkpt><trkpt lat="51.868230220317976" lon="16.08787066856926"><ele>72.0</ele><time>2026-04-08T12:30:27.001Z</time></trkpt><trkpt lat="51.868324923407094" lon="16.08792345767267"><ele>72.0</ele><time>2026-04-08T12:30:28.001Z</time></trkpt><trkpt lat="51.868413169686406" lon="16.087961887667596"><ele>72.0</ele><time>2026-04-08T12:30:29.001Z</time></trkpt><trkpt lat="51.868490968367006" lon="16.088024240369"><ele>72.0</ele><time>2026-04-08T12:30:30.001Z</time></trkpt><trkpt lat="51.868560325730336" lon="16.088042972082373"><ele>72.0</ele><time>2026-04-08T12:30:31.001Z</time></trkpt><trkpt lat="51.86861961486165" lon="16.08810277489786"><ele>72.0</ele><time>2026-04-08T12:30:33.001Z</time></trkpt><trkpt lat="51.868690196018825" lon="16.088147502534042"><ele>72.6</ele><time>2026-04-08T12:30:41.001Z</time></trkpt><trkpt lat="51.86875482884482" lon="16.088024325041392"><ele>73.2</ele><time>2026-04-08T12:30:42.001Z</time></trkpt><trkpt lat="51.868811864219374" lon="16.087895283580764"><ele>73.8</ele><time>2026-04-08T12:30:43.001Z</time></trkpt><trkpt lat="51.868877517269766" lon="16.08776706285505"><ele>74.4</ele><time>2026-04-08T12:30:44.001Z</time></trkpt><trkpt lat="51.86895114689222" lon="16.087624625500045"><ele>75.0</ele><time>2026-04-08T12:30:45.001Z</time></trkpt><trkpt lat="51.86903631815302" lon="16.08748491853872"><ele>75.0</ele><time>2026-04-08T12:30:46.001Z</time></trkpt><trkpt lat="51.86912267245572" lon="16.087317861507458"><ele>75.0</ele><time>2026-04-08T12:30:47.001Z</time></trkpt><trkpt lat="51.869219243658655" lon="16.087129483436048"><ele>75.0</ele><time>2026-04-08T12:30:48.001Z</time></trkpt><trkpt lat="51.86931831772181" lon="16.086942126135924"><ele>75.0</ele><time>2026-04-08T12:30:49.001Z</time></trkpt><trkpt lat="51.86942096568567" lon="16.086741712683477"><ele>75.66666666666667</ele><time>2026-04-08T12:30:50.001Z</time></trkpt><trkpt lat="51.86953306463122" lon="16.086527836506228"><ele>76.33333333333334</ele><time>2026-04-08T12:30:51.001Z</time></trkpt><trkpt lat="51.869651430663154" lon="16.086309692168427"><ele>77.0</ele><time>2026-04-08T12:30:52.001Z</time></trkpt><trkpt lat="51.869749524794585" lon="16.08609880890875"><ele>77.0</ele><time>2026-04-08T12:30:53.001Z</time></trkpt><trkpt lat="51.86985950532599" lon="16.085912032254335"><ele>77.0</ele><time>2026-04-08T12:30:54.001Z</time></trkpt><trkpt lat="51.86995367535079" lon="16.085730616852782"><ele>77.0</ele><time>2026-04-08T12:30:55.001Z</time></trkpt><trkpt lat="51.87010374660299" lon="16.085443221766777"><ele>77.0</ele><time>2026-04-08T12:30:56.001Z</time></trkpt><trkpt lat="51.87021647416968" lon="16.08521369418138"><ele>77.0</ele><time>2026-04-08T12:30:57.001Z</time></trkpt><trkpt lat="51.870335343575306" lon="16.08497716215464"><ele>77.0</ele><time>2026-04-08T12:30:58.001Z</time></trkpt><trkpt lat="51.87045585820229" lon="16.08474750354335"><ele>77.0</ele><time>2026-04-08T12:30:59.001Z</time></trkpt><trkpt lat="51.8705744099683" lon="16.084534723012627"><ele>77.0</ele><time>2026-04-08T12:31:00.001Z</time></trkpt><trkpt lat="51.87068620935157" lon="16.08431846185981"><ele>77.0</ele><time>2026-04-08T12:31:01.001Z</time></trkpt><trkpt lat="51.870798173390504" lon="16.084094526677863"><ele>77.0</ele><time>2026-04-08T12:31:02.001Z</time></trkpt><trkpt lat="51.87091537979753" lon="16.083885818337947"><ele>77.0</ele><time>2026-04-08T12:31:03.001Z</time></trkpt><trkpt lat="51.87102843628003" lon="16.08366798479007"><ele>77.0</ele><time>2026-04-08T12:31:04.001Z</time></trkpt><trkpt lat="51.8711401990533" lon="16.083455937402203"><ele>77.0</ele><time>2026-04-08T12:31:05.001Z</time></trkpt><trkpt lat="51.8712497070568" lon="16.083246676055698"><ele>77.0</ele><time>2026-04-08T12:31:06.001Z</time></trkpt><trkpt lat="51.871358491545855" lon="16.083039005981377"><ele>77.0</ele><time>2026-04-08T12:31:07.001Z</time></trkpt><trkpt lat="51.871465208174705" lon="16.082826275573566"><ele>77.0</ele><time>2026-04-08T12:31:08.001Z</time></trkpt><trkpt lat="51.87157784760262" lon="16.082619791262385"><ele>77.0</ele><time>2026-04-08T12:31:09.001Z</time></trkpt><trkpt lat="51.87168250881917" lon="16.08241643298472"><ele>77.0</ele><time>2026-04-08T12:31:10.001Z</time></trkpt><trkpt lat="51.87177764785539" lon="16.08224123739442"><ele>76.75</ele><time>2026-04-08T12:31:11.001Z</time></trkpt><trkpt lat="51.871859114015145" lon="16.08207727240672"><ele>76.5</ele><time>2026-04-08T12:31:12.001Z</time></trkpt><trkpt lat="51.87194391627217" lon="16.0819267681147"><ele>76.25</ele><time>2026-04-08T12:31:13.001Z</time></trkpt><trkpt lat="51.87201946694819" lon="16.08177822104507"><ele>76.0</ele><time>2026-04-08T12:31:14.001Z</time></trkpt><trkpt lat="51.87208686897204" lon="16.081659124387023"><ele>76.0</ele><time>2026-04-08T12:31:15.001Z</time></trkpt><trkpt lat="51.8721502393699" lon="16.081551708295088"><ele>76.0</ele><time>2026-04-08T12:31:16.001Z</time></trkpt><trkpt lat="51.87221820137743" lon="16.08150212490615"><ele>76.0</ele><time>2026-04-08T12:31:17.001Z</time></trkpt><trkpt lat="51.87228654595331" lon="16.08154933081606"><ele>76.0</ele><time>2026-04-08T12:31:18.001Z</time></trkpt><trkpt lat="51.872354862224206" lon="16.081545914561183"><ele>76.0</ele><time>2026-04-08T12:31:19.001Z</time></trkpt><trkpt lat="51.87240031900338" lon="16.081466221592613"><ele>76.0</ele><time>2026-04-08T12:31:20.001Z</time></trkpt><trkpt lat="51.872419941519006" lon="16.081343444714193"><ele>76.0</ele><time>2026-04-08T12:31:21.001Z</time></trkpt><trkpt lat="51.87241340419643" lon="16.08121605124444"><ele>76.0</ele><time>2026-04-08T12:31:22.001Z</time></trkpt><trkpt lat="51.872377859826315" lon="16.08110065879593"><ele>76.0</ele><time>2026-04-08T12:31:23.001Z</time></trkpt><trkpt lat="51.87242554576852" lon="16.080962003081012"><ele>76.0</ele><time>2026-04-08T12:31:24.001Z</time></trkpt><trkpt lat="51.872488856836114" lon="16.080841078836276"><ele>76.0</ele><time>2026-04-08T12:31:25.001Z</time></trkpt><trkpt lat="51.872557810562064" lon="16.0807112871321"><ele>76.5</ele><time>2026-04-08T12:31:26.001Z</time></trkpt><trkpt lat="51.87263375739162" lon="16.080570450915328"><ele>77.0</ele><time>2026-04-08T12:31:27.001Z</time></trkpt><trkpt lat="51.87271070879398" lon="16.08042286441961"><ele>77.5</ele><time>2026-04-08T12:31:28.001Z</time></trkpt><trkpt lat="51.87279053589364" lon="16.080270210407114"><ele>78.0</ele><time>2026-04-08T12:31:29.001Z</time></trkpt><trkpt lat="51.87287341355187" lon="16.080104760023175"><ele>78.0</ele><time>2026-04-08T12:31:30.001Z</time></trkpt><trkpt lat="51.87295857682679" lon="16.07993486451189"><ele>78.0</ele><time>2026-04-08T12:31:31.001Z</time></trkpt><trkpt lat="51.873047895468865" lon="16.07977200169695"><ele>78.0</ele><time>2026-04-08T12:31:32.001Z</time></trkpt><trkpt lat="51.873137735098034" lon="16.079609946570105"><ele>78.0</ele><time>2026-04-08T12:31:33.001Z</time></trkpt><trkpt lat="51.87321580520246" lon="16.07945842629993"><ele>78.0</ele><time>2026-04-08T12:31:34.001Z</time></trkpt><trkpt lat="51.87329091139084" lon="16.07931286915039"><ele>78.0</ele><time>2026-04-08T12:31:35.001Z</time></trkpt><trkpt lat="51.873368183328424" lon="16.079169843897215"><ele>78.0</ele><time>2026-04-08T12:31:36.001Z</time></trkpt><trkpt lat="51.87344506436103" lon="16.07902272771756"><ele>78.0</ele><time>2026-04-08T12:31:37.001Z</time></trkpt><trkpt lat="51.87352482930789" lon="16.07886936237191"><ele>77.5</ele><time>2026-04-08T12:31:38.001Z</time></trkpt><trkpt lat="51.87360786728567" lon="16.078712230113354"><ele>77.0</ele><time>2026-04-08T12:31:39.001Z</time></trkpt><trkpt lat="51.87369316701552" lon="16.07856017111083"><ele>76.5</ele><time>2026-04-08T12:31:40.001Z</time></trkpt><trkpt lat="51.87377862088838" lon="16.078399400219173"><ele>76.0</ele><time>2026-04-08T12:31:41.001Z</time></trkpt><trkpt lat="51.873866577637564" lon="16.078234833194518"><ele>75.5</ele><time>2026-04-08T12:31:42.001Z</time></trkpt><trkpt lat="51.873952290252625" lon="16.078066847722795"><ele>75.0</ele><time>2026-04-08T12:31:43.001Z</time></trkpt><trkpt lat="51.87403770669285" lon="16.07789443608511"><ele>74.5</ele><time>2026-04-08T12:31:44.001Z</time></trkpt><trkpt lat="51.874128123750566" lon="16.07772469486964"><ele>74.0</ele><time>2026-04-08T12:31:45.001Z</time></trkpt><trkpt lat="51.87421858697153" lon="16.077557020700496"><ele>73.0</ele><time>2026-04-08T12:31:46.001Z</time></trkpt><trkpt lat="51.87430887727635" lon="16.077382929143532"><ele>72.0</ele><time>2026-04-08T12:31:47.001Z</time></trkpt><trkpt lat="51.87439805565116" lon="16.07721015199546"><ele>71.0</ele><time>2026-04-08T12:31:48.001Z</time></trkpt><trkpt lat="51.874484503968894" lon="16.077041216057232"><ele>70.0</ele><time>2026-04-08T12:31:49.001Z</time></trkpt><trkpt lat="51.874565111026996" lon="16.07687123270735"><ele>70.0</ele><time>2026-04-08T12:31:50.001Z</time></trkpt><trkpt lat="51.87464887794038" lon="16.076709758105807"><ele>70.0</ele><time>2026-04-08T12:31:51.001Z</time></trkpt><trkpt lat="51.8747360741188" lon="16.076544485064623"><ele>70.0</ele><time>2026-04-08T12:31:52.001Z</time></trkpt><trkpt lat="51.87481055395799" lon="16.07637836863238"><ele>70.0</ele><time>2026-04-08T12:31:53.001Z</time></trkpt><trkpt lat="51.87488129894156" lon="16.076205473895037"><ele>69.5</ele><time>2026-04-08T12:31:54.001Z</time></trkpt><trkpt lat="51.874946670426276" lon="16.07602695498423"><ele>69.0</ele><time>2026-04-08T12:31:55.001Z</time></trkpt><trkpt lat="51.87500863226971" lon="16.075848658745294"><ele>68.5</ele><time>2026-04-08T12:31:56.001Z</time></trkpt><trkpt lat="51.87507195953831" lon="16.07567784940274"><ele>68.0</ele><time>2026-04-08T12:31:57.001Z</time></trkpt><trkpt lat="51.87513607114244" lon="16.075509495669834"><ele>67.0</ele><time>2026-04-08T12:31:58.001Z</time></trkpt><trkpt lat="51.875196292695044" lon="16.0753376345711"><ele>66.0</ele><time>2026-04-08T12:31:59.001Z</time></trkpt><trkpt lat="51.87525494821311" lon="16.07516369422709"><ele>65.0</ele><time>2026-04-08T12:32:00.001Z</time></trkpt><trkpt lat="51.87531714344873" lon="16.074984970971208"><ele>64.0</ele><time>2026-04-08T12:32:01.001Z</time></trkpt><trkpt lat="51.8753817995774" lon="16.07482582734351"><ele>63.75</ele><time>2026-04-08T12:32:02.001Z</time></trkpt><trkpt lat="51.87544607555981" lon="16.0746805320485"><ele>63.5</ele><time>2026-04-08T12:32:03.001Z</time></trkpt><trkpt lat="51.87551661090901" lon="16.074539373610236"><ele>63.25</ele><time>2026-04-08T12:32:04.001Z</time></trkpt><trkpt lat="51.8755978404458" lon="16.074403095765064"><ele>63.0</ele><time>2026-04-08T12:32:05.001Z</time></trkpt><trkpt lat="51.875682693334475" lon="16.07427019651991"><ele>63.0</ele><time>2026-04-08T12:32:06.001Z</time></trkpt><trkpt lat="51.87577074420319" lon="16.07415369411862"><ele>63.0</ele><time>2026-04-08T12:32:07.001Z</time></trkpt><trkpt lat="51.875862373922295" lon="16.07405097986299"><ele>63.0</ele><time>2026-04-08T12:32:08.001Z</time></trkpt><trkpt lat="51.875937006083" lon="16.073942716316346"><ele>63.0</ele><time>2026-04-08T12:32:09.001Z</time></trkpt><trkpt lat="51.876030549067934" lon="16.073891863350195"><ele>63.0</ele><time>2026-04-08T12:32:10.001Z</time></trkpt><trkpt lat="51.876127861825346" lon="16.073835727047232"><ele>62.833333333333336</ele><time>2026-04-08T12:32:11.001Z</time></trkpt><trkpt lat="51.8762282228494" lon="16.07383268937307"><ele>62.66666666666667</ele><time>2026-04-08T12:32:12.001Z</time></trkpt><trkpt lat="51.87632206050527" lon="16.073818108946895"><ele>62.5</ele><time>2026-04-08T12:32:13.001Z</time></trkpt><trkpt lat="51.87639756991191" lon="16.07378060494426"><ele>62.333333333333336</ele><time>2026-04-08T12:32:14.001Z</time></trkpt><trkpt lat="51.87646633959438" lon="16.073774801308783"><ele>62.16666666666667</ele><time>2026-04-08T12:32:15.001Z</time></trkpt><trkpt lat="51.8765576078962" lon="16.07373674543922"><ele>62.0</ele><time>2026-04-08T12:32:17.001Z</time></trkpt><trkpt lat="51.87663085460848" lon="16.0736932298566"><ele>62.0</ele><time>2026-04-08T12:32:20.001Z</time></trkpt><trkpt lat="51.8766962985443" lon="16.07365879353407"><ele>62.0</ele><time>2026-04-08T12:32:23.001Z</time></trkpt><trkpt lat="51.876641914818116" lon="16.07341273149544"><ele>62.0</ele><time>2026-04-08T12:32:27.001Z</time></trkpt><trkpt lat="51.87657611569984" lon="16.073318503816843"><ele>62.0</ele><time>2026-04-08T12:32:28.001Z</time></trkpt><trkpt lat="51.87651899909568" lon="16.07322292805133"><ele>62.0</ele><time>2026-04-08T12:32:29.001Z</time></trkpt><trkpt lat="51.8764576211388" lon="16.073107812504848"><ele>62.0</ele><time>2026-04-08T12:32:30.001Z</time></trkpt><trkpt lat="51.876393895260755" lon="16.07298356336837"><ele>62.0</ele><time>2026-04-08T12:32:31.001Z</time></trkpt><trkpt lat="51.87631811097137" lon="16.07286636633832"><ele>62.0</ele><time>2026-04-08T12:32:32.001Z</time></trkpt><trkpt lat="51.876239736288596" lon="16.072731193495418"><ele>62.0</ele><time>2026-04-08T12:32:33.001Z</time></trkpt><trkpt lat="51.87616916124111" lon="16.07261540633361"><ele>62.0</ele><time>2026-04-08T12:32:34.001Z</time></trkpt><trkpt lat="51.87611212127096" lon="16.072513248817728"><ele>62.0</ele><time>2026-04-08T12:32:35.001Z</time></trkpt><trkpt lat="51.87606172796853" lon="16.07242439813995"><ele>62.0</ele><time>2026-04-08T12:32:36.001Z</time></trkpt><trkpt lat="51.87598112946491" lon="16.07229153605885"><ele>62.0</ele><time>2026-04-08T12:32:38.001Z</time></trkpt><trkpt lat="51.87593901813122" lon="16.072187664664956"><ele>62.0</ele><time>2026-04-08T12:32:40.001Z</time></trkpt><trkpt lat="51.87595748211541" lon="16.07199574644674"><ele>62.0</ele><time>2026-04-08T12:32:42.001Z</time></trkpt><trkpt lat="51.87599716811902" lon="16.071886928284354"><ele>62.0</ele><time>2026-04-08T12:32:43.001Z</time></trkpt><trkpt lat="51.87599897250145" lon="16.071778151642082"><ele>62.0</ele><time>2026-04-08T12:32:44.001Z</time></trkpt><trkpt lat="51.87612592047748" lon="16.071788777885033"><ele>62.0</ele><time>2026-04-08T12:32:45.001Z</time></trkpt><trkpt lat="51.876198343726784" lon="16.07176719754904"><ele>62.0</ele><time>2026-04-08T12:32:46.001Z</time></trkpt><trkpt lat="51.87628722736172" lon="16.071817306843474"><ele>62.0</ele><time>2026-04-08T12:32:47.001Z</time></trkpt><trkpt lat="51.87637982196351" lon="16.071880603523063"><ele>62.0</ele><time>2026-04-08T12:32:48.001Z</time></trkpt><trkpt lat="51.87647559132246" lon="16.071959689144634"><ele>62.0</ele><time>2026-04-08T12:32:49.001Z</time></trkpt><trkpt lat="51.87657747665652" lon="16.072027089000187"><ele>62.0</ele><time>2026-04-08T12:32:50.001Z</time></trkpt><trkpt lat="51.876679224200174" lon="16.07207727812971"><ele>62.0</ele><time>2026-04-08T12:32:51.001Z</time></trkpt><trkpt lat="51.8767679680481" lon="16.07211016986729"><ele>62.0</ele><time>2026-04-08T12:32:52.001Z</time></trkpt><trkpt lat="51.87684227630976" lon="16.072129886112304"><ele>62.6</ele><time>2026-04-08T12:32:53.001Z</time></trkpt><trkpt lat="51.87696334944618" lon="16.072108561396586"><ele>63.2</ele><time>2026-04-08T12:32:55.001Z</time></trkpt><trkpt lat="51.877064307491054" lon="16.072101606197716"><ele>63.8</ele><time>2026-04-08T12:32:57.001Z</time></trkpt><trkpt lat="51.87715764232695" lon="16.07202409806126"><ele>64.4</ele><time>2026-04-08T12:33:00.001Z</time></trkpt><trkpt lat="51.877226793945944" lon="16.071998409137738"><ele>65.0</ele><time>2026-04-08T12:33:01.001Z</time></trkpt><trkpt lat="51.87730550073712" lon="16.07209438297573"><ele>65.0</ele><time>2026-04-08T12:33:02.001Z</time></trkpt><trkpt lat="51.8773721379719" lon="16.0720889033986"><ele>65.0</ele><time>2026-04-08T12:33:03.001Z</time></trkpt><trkpt lat="51.87745763127685" lon="16.07208356738046"><ele>65.0</ele><time>2026-04-08T12:33:05.001Z</time></trkpt><trkpt lat="51.87754047278796" lon="16.072081683616375"><ele>65.0</ele><time>2026-04-08T12:33:07.001Z</time></trkpt><trkpt lat="51.87755193580867" lon="16.071816408019124"><ele>65.0</ele><time>2026-04-08T12:33:08Z</time></trkpt><trkpt lat="51.87754839647828" lon="16.071669167997936"><ele>65.0</ele><time>2026-04-08T12:33:10Z</time></trkpt><trkpt lat="51.877570586165376" lon="16.071564707296112"><ele>65.0</ele><time>2026-04-08T12:33:13Z</time></trkpt><trkpt lat="51.87756411094311" lon="16.071685916225434"><ele>65.0</ele><time>2026-04-08T12:33:36Z</time></trkpt><trkpt lat="51.877542762371114" lon="16.071839725943594"><ele>65.0</ele><time>2026-04-08T12:33:37Z</time></trkpt><trkpt lat="51.877536706175064" lon="16.0719434549279"><ele>65.0</ele><time>2026-04-08T12:33:38Z</time></trkpt><trkpt lat="51.87754256259116" lon="16.072089275988656"><ele>65.0</ele><time>2026-04-08T12:33:40Z</time></trkpt><trkpt lat="51.87734658612506" lon="16.07206839776077"><ele>65.0</ele><time>2026-04-08T12:33:42Z</time></trkpt><trkpt lat="51.877278532817186" lon="16.072058744606522"><ele>65.0</ele><time>2026-04-08T12:33:43Z</time></trkpt><trkpt lat="51.87718053683507" lon="16.07204423250167"><ele>65.0</ele><time>2026-04-08T12:33:45Z</time></trkpt><trkpt lat="51.87712575345841" lon="16.071856025094565"><ele>65.0</ele><time>2026-04-08T12:33:47Z</time></trkpt><trkpt lat="51.87713243456751" lon="16.0717379779949"><ele>65.0</ele><time>2026-04-08T12:33:48Z</time></trkpt><trkpt lat="51.87713819806255" lon="16.071626311556688"><ele>65.0</ele><time>2026-04-08T12:33:49Z</time></trkpt><trkpt lat="51.87713092816375" lon="16.07146192223135"><ele>64.8</ele><time>2026-04-08T12:33:51Z</time></trkpt><trkpt lat="51.87714271339851" lon="16.07133536415807"><ele>64.6</ele><time>2026-04-08T12:33:53Z</time></trkpt><trkpt lat="51.87725787378578" lon="16.071333913635517"><ele>64.4</ele><time>2026-04-08T12:33:54Z</time></trkpt><trkpt lat="51.87733087953337" lon="16.071297558366236"><ele>64.2</ele><time>2026-04-08T12:33:55Z</time></trkpt><trkpt lat="51.87742291500892" lon="16.07126684035425"><ele>64.0</ele><time>2026-04-08T12:33:56Z</time></trkpt><trkpt lat="51.87751241294578" lon="16.07125613529647"><ele>63.49999999999999</ele><time>2026-04-08T12:33:57Z</time></trkpt><trkpt lat="51.87760452519874" lon="16.07124249496835"><ele>63.0</ele><time>2026-04-08T12:33:58Z</time></trkpt><trkpt lat="51.87768815172425" lon="16.071232949524802"><ele>62.5</ele><time>2026-04-08T12:33:59Z</time></trkpt><trkpt lat="51.87777591705058" lon="16.071211434927196"><ele>62.0</ele><time>2026-04-08T12:34:00Z</time></trkpt><trkpt lat="51.877858366029656" lon="16.07120679148394"><ele>61.49999999999999</ele><time>2026-04-08T12:34:01Z</time></trkpt><trkpt lat="51.87795437851148" lon="16.07122450918955"><ele>61.0</ele><time>2026-04-08T12:34:02Z</time></trkpt><trkpt lat="51.8780392009487" lon="16.071203339015728"><ele>61.0</ele><time>2026-04-08T12:34:03Z</time></trkpt><trkpt lat="51.878123052201815" lon="16.07118810561421"><ele>60.99999999999999</ele><time>2026-04-08T12:34:04Z</time></trkpt><trkpt lat="51.878291573217844" lon="16.07117942842413"><ele>60.99999999999999</ele><time>2026-04-08T12:34:06Z</time></trkpt><trkpt lat="51.878360679096545" lon="16.07117645367078"><ele>61.0</ele><time>2026-04-08T12:34:07Z</time></trkpt><trkpt lat="51.87843925649152" lon="16.071179458361456"><ele>61.0</ele><time>2026-04-08T12:34:08Z</time></trkpt><trkpt lat="51.878517359919655" lon="16.071176332170968"><ele>60.99999999999999</ele><time>2026-04-08T12:34:09Z</time></trkpt><trkpt lat="51.87859450400544" lon="16.071177196523465"><ele>61.0</ele><time>2026-04-08T12:34:10Z</time></trkpt><trkpt lat="51.87866378794449" lon="16.07117669415563"><ele>61.0</ele><time>2026-04-08T12:34:11Z</time></trkpt><trkpt lat="51.878734542420524" lon="16.071176548497647"><ele>61.0</ele><time>2026-04-08T12:34:12Z</time></trkpt><trkpt lat="51.87883211128507" lon="16.071190482020366"><ele>60.99999999999999</ele><time>2026-04-08T12:34:14Z</time></trkpt><trkpt lat="51.87892229741167" lon="16.07118186983378"><ele>61.0</ele><time>2026-04-08T12:34:16Z</time></trkpt><trkpt lat="51.87896615423039" lon="16.071062276759637"><ele>60.99999999999999</ele><time>2026-04-08T12:34:17Z</time></trkpt><trkpt lat="51.8790014688955" lon="16.070898373810977"><ele>61.0</ele><time>2026-04-08T12:34:19Z</time></trkpt><trkpt lat="51.87902375912662" lon="16.070802689592053"><ele>61.0</ele><time>2026-04-08T12:34:22Z</time></trkpt><trkpt lat="51.8790512199197" lon="16.070684809905472"><ele>61.0</ele><time>2026-04-08T12:34:24.001Z</time></trkpt><trkpt lat="51.87908901816846" lon="16.070521259621835"><ele>60.99999999999999</ele><time>2026-04-08T12:34:26.001Z</time></trkpt><trkpt lat="51.879112779785885" lon="16.07041777205531"><ele>61.0</ele><time>2026-04-08T12:34:27.001Z</time></trkpt><trkpt lat="51.879138472371615" lon="16.070309441778225"><ele>61.0</ele><time>2026-04-08T12:34:28.001Z</time></trkpt><trkpt lat="51.87916077723928" lon="16.07017687011526"><ele>60.99999999999999</ele><time>2026-04-08T12:34:29.001Z</time></trkpt><trkpt lat="51.87919148772446" lon="16.070038166330917"><ele>60.99999999999999</ele><time>2026-04-08T12:34:30.001Z</time></trkpt><trkpt lat="51.87923249260129" lon="16.069907354460746"><ele>61.0</ele><time>2026-04-08T12:34:31.001Z</time></trkpt><trkpt lat="51.87926973195263" lon="16.069765238658267"><ele>61.0</ele><time>2026-04-08T12:34:32.001Z</time></trkpt><trkpt lat="51.87931094702765" lon="16.06963382710842"><ele>60.99999999999999</ele><time>2026-04-08T12:34:33.001Z</time></trkpt><trkpt lat="51.87935309676467" lon="16.069521064113072"><ele>61.0</ele><time>2026-04-08T12:34:34.001Z</time></trkpt><trkpt lat="51.879388158428895" lon="16.069425208153742"><ele>61.0</ele><time>2026-04-08T12:34:35.001Z</time></trkpt><trkpt lat="51.87945632149603" lon="16.06924898263658"><ele>61.0</ele><time>2026-04-08T12:34:37.001Z</time></trkpt><trkpt lat="51.879490294538186" lon="16.06913366066864"><ele>60.99999999999999</ele><time>2026-04-08T12:34:38.001Z</time></trkpt><trkpt lat="51.87952420122214" lon="16.069044959033736"><ele>61.0</ele><time>2026-04-08T12:34:39.001Z</time></trkpt><trkpt lat="51.87956199568407" lon="16.068921752547098"><ele>61.4</ele><time>2026-04-08T12:34:41.001Z</time></trkpt><trkpt lat="51.87959339722978" lon="16.068797292279132"><ele>61.8</ele><time>2026-04-08T12:34:47.001Z</time></trkpt><trkpt lat="51.87962132555683" lon="16.06867569810557"><ele>62.199999999999996</ele><time>2026-04-08T12:34:49Z</time></trkpt><trkpt lat="51.87965295888594" lon="16.068523965437432"><ele>62.599999999999994</ele><time>2026-04-08T12:34:51Z</time></trkpt><trkpt lat="51.87968354063885" lon="16.068367775779592"><ele>63.0</ele><time>2026-04-08T12:34:53Z</time></trkpt><trkpt lat="51.87971857349094" lon="16.068220925521626"><ele>63.166666666666664</ele><time>2026-04-08T12:34:56Z</time></trkpt><trkpt lat="51.87973622744952" lon="16.068111397997875"><ele>63.33333333333333</ele><time>2026-04-08T12:34:57Z</time></trkpt><trkpt lat="51.87976011452796" lon="16.067982580836386"><ele>63.5</ele><time>2026-04-08T12:34:58Z</time></trkpt><trkpt lat="51.87978938290568" lon="16.067844922890288"><ele>63.666666666666664</ele><time>2026-04-08T12:34:59Z</time></trkpt><trkpt lat="51.879816771655214" lon="16.067716078882743"><ele>63.83333333333333</ele><time>2026-04-08T12:35:00Z</time></trkpt><trkpt lat="51.87984445156754" lon="16.0675969057892"><ele>64.0</ele><time>2026-04-08T12:35:01Z</time></trkpt><trkpt lat="51.87987041547447" lon="16.067477090339207"><ele>63.99999999999999</ele><time>2026-04-08T12:35:02Z</time></trkpt><trkpt lat="51.879895727911084" lon="16.06736705318542"><ele>64.0</ele><time>2026-04-08T12:35:03Z</time></trkpt><trkpt lat="51.87991609851291" lon="16.06726761963181"><ele>64.0</ele><time>2026-04-08T12:35:04Z</time></trkpt><trkpt lat="51.87995096971103" lon="16.06711941723957"><ele>64.0</ele><time>2026-04-08T12:35:06Z</time></trkpt><trkpt lat="51.87997650784087" lon="16.067000908528787"><ele>63.99999999999999</ele><time>2026-04-08T12:35:08Z</time></trkpt><trkpt lat="51.88000112534281" lon="16.066864392766593"><ele>64.0</ele><time>2026-04-08T12:35:11Z</time></trkpt><trkpt lat="51.880029134781445" lon="16.066750257746282"><ele>64.2</ele><time>2026-04-08T12:35:13Z</time></trkpt><trkpt lat="51.880067192822125" lon="16.06658140077342"><ele>64.4</ele><time>2026-04-08T12:35:15Z</time></trkpt><trkpt lat="51.88009015227589" lon="16.066457893493137"><ele>64.6</ele><time>2026-04-08T12:35:16Z</time></trkpt><trkpt lat="51.88011583163431" lon="16.06630608078477"><ele>64.8</ele><time>2026-04-08T12:35:17Z</time></trkpt><trkpt lat="51.8801687101379" lon="16.06614108646736"><ele>65.0</ele><time>2026-04-08T12:35:18Z</time></trkpt><trkpt lat="51.88019421965311" lon="16.065961755431395"><ele>65.2</ele><time>2026-04-08T12:35:19Z</time></trkpt><trkpt lat="51.88022383498799" lon="16.065808286120383"><ele>65.4</ele><time>2026-04-08T12:35:20Z</time></trkpt><trkpt lat="51.88024926761371" lon="16.06565781255629"><ele>65.6</ele><time>2026-04-08T12:35:21Z</time></trkpt><trkpt lat="51.88027351760447" lon="16.06549876351304"><ele>65.8</ele><time>2026-04-08T12:35:22Z</time></trkpt><trkpt lat="51.88029531994152" lon="16.0653273622917"><ele>66.0</ele><time>2026-04-08T12:35:23Z</time></trkpt><trkpt lat="51.88032508038083" lon="16.06513071605145"><ele>66.5</ele><time>2026-04-08T12:35:24Z</time></trkpt><trkpt lat="51.88035631079883" lon="16.06491547722616"><ele>67.0</ele><time>2026-04-08T12:35:25Z</time></trkpt><trkpt lat="51.88038377394097" lon="16.064706331613824"><ele>67.5</ele><time>2026-04-08T12:35:26Z</time></trkpt><trkpt lat="51.88041264231637" lon="16.064499956874055"><ele>68.0</ele><time>2026-04-08T12:35:27Z</time></trkpt><trkpt lat="51.8804466456685" lon="16.064294091999994"><ele>68.5</ele><time>2026-04-08T12:35:28Z</time></trkpt><trkpt lat="51.88049354840988" lon="16.06408392869821"><ele>69.0</ele><time>2026-04-08T12:35:29Z</time></trkpt><trkpt lat="51.880552729797834" lon="16.06388018453075"><ele>69.5</ele><time>2026-04-08T12:35:30Z</time></trkpt><trkpt lat="51.88062873179133" lon="16.0636751292971"><ele>70.0</ele><time>2026-04-08T12:35:31Z</time></trkpt><trkpt lat="51.88070915127145" lon="16.06347288516013"><ele>69.75</ele><time>2026-04-08T12:35:32Z</time></trkpt><trkpt lat="51.880794159755645" lon="16.063269697549654"><ele>69.5</ele><time>2026-04-08T12:35:33Z</time></trkpt><trkpt lat="51.88088012510639" lon="16.063060102511372"><ele>69.25</ele><time>2026-04-08T12:35:34Z</time></trkpt><trkpt lat="51.8809627896103" lon="16.062884241383916"><ele>69.0</ele><time>2026-04-08T12:35:35Z</time></trkpt><trkpt lat="51.881030281524325" lon="16.062723485286895"><ele>69.0</ele><time>2026-04-08T12:35:36Z</time></trkpt><trkpt lat="51.88109517694567" lon="16.0625630329072"><ele>69.0</ele><time>2026-04-08T12:35:37Z</time></trkpt><trkpt lat="51.88116091081975" lon="16.062406327199"><ele>69.0</ele><time>2026-04-08T12:35:38Z</time></trkpt><trkpt lat="51.881224584678186" lon="16.062247594239945"><ele>69.0</ele><time>2026-04-08T12:35:39Z</time></trkpt><trkpt lat="51.881291169838235" lon="16.062097553489945"><ele>69.25</ele><time>2026-04-08T12:35:40Z</time></trkpt><trkpt lat="51.88135915645934" lon="16.061934594900265"><ele>69.5</ele><time>2026-04-08T12:35:41Z</time></trkpt><trkpt lat="51.88142827737452" lon="16.061766749039755"><ele>69.75</ele><time>2026-04-08T12:35:42Z</time></trkpt><trkpt lat="51.881495503729866" lon="16.061597962456073"><ele>70.0</ele><time>2026-04-08T12:35:43Z</time></trkpt><trkpt lat="51.88156356002589" lon="16.061426688109062"><ele>70.0</ele><time>2026-04-08T12:35:44Z</time></trkpt><trkpt lat="51.8816326424052" lon="16.061261946623556"><ele>70.0</ele><time>2026-04-08T12:35:45Z</time></trkpt><trkpt lat="51.881700135387106" lon="16.06110537024775"><ele>70.0</ele><time>2026-04-08T12:35:46Z</time></trkpt><trkpt lat="51.88176844257587" lon="16.06094165519158"><ele>70.0</ele><time>2026-04-08T12:35:47Z</time></trkpt><trkpt lat="51.88183791521933" lon="16.06076077859701"><ele>70.0</ele><time>2026-04-08T12:35:48Z</time></trkpt><trkpt lat="51.881911344278485" lon="16.060572611367675"><ele>70.0</ele><time>2026-04-08T12:35:49Z</time></trkpt><trkpt lat="51.881987361372744" lon="16.060393912221326"><ele>70.0</ele><time>2026-04-08T12:35:50Z</time></trkpt><trkpt lat="51.88206012306321" lon="16.060228249943535"><ele>70.0</ele><time>2026-04-08T12:35:51Z</time></trkpt><trkpt lat="51.882128186372235" lon="16.060073737349544"><ele>70.2</ele><time>2026-04-08T12:35:52Z</time></trkpt><trkpt lat="51.88219389580592" lon="16.059917410382987"><ele>70.4</ele><time>2026-04-08T12:35:53Z</time></trkpt><trkpt lat="51.88225132091667" lon="16.059774758226197"><ele>70.6</ele><time>2026-04-08T12:35:54Z</time></trkpt><trkpt lat="51.88229789824781" lon="16.059646736707027"><ele>70.8</ele><time>2026-04-08T12:35:55Z</time></trkpt><trkpt lat="51.88234497283259" lon="16.0595394546892"><ele>71.0</ele><time>2026-04-08T12:35:56Z</time></trkpt><trkpt lat="51.88238552529061" lon="16.05944380293666"><ele>71.0</ele><time>2026-04-08T12:35:57Z</time></trkpt><trkpt lat="51.88244068265165" lon="16.059299627295342"><ele>71.0</ele><time>2026-04-08T12:35:59Z</time></trkpt><trkpt lat="51.88235803188644" lon="16.059165851724575"><ele>71.0</ele><time>2026-04-08T12:36:03Z</time></trkpt><trkpt lat="51.88228991349049" lon="16.059136793645116"><ele>71.0</ele><time>2026-04-08T12:36:13Z</time></trkpt><trkpt lat="51.88241689382043" lon="16.05926714844948"><ele>71.0</ele><time>2026-04-08T12:36:21Z</time></trkpt><trkpt lat="51.882529761586504" lon="16.059119525717588"><ele>71.0</ele><time>2026-04-08T12:36:23Z</time></trkpt><trkpt lat="51.88258415044993" lon="16.05898256572286"><ele>71.0</ele><time>2026-04-08T12:36:24Z</time></trkpt><trkpt lat="51.88264774062576" lon="16.058828770404592"><ele>71.0</ele><time>2026-04-08T12:36:25Z</time></trkpt><trkpt lat="51.882718900085656" lon="16.058653588733826"><ele>71.0</ele><time>2026-04-08T12:36:26Z</time></trkpt><trkpt lat="51.8827975474309" lon="16.058466632562773"><ele>71.0</ele><time>2026-04-08T12:36:27Z</time></trkpt><trkpt lat="51.8828841734655" lon="16.058260699616397"><ele>71.0</ele><time>2026-04-08T12:36:28Z</time></trkpt><trkpt lat="51.88296991756172" lon="16.058044859133542"><ele>71.0</ele><time>2026-04-08T12:36:29.001Z</time></trkpt><trkpt lat="51.883056598564714" lon="16.057819084975133"><ele>71.0</ele><time>2026-04-08T12:36:30.001Z</time></trkpt><trkpt lat="51.88314737368854" lon="16.05758361364278"><ele>71.0</ele><time>2026-04-08T12:36:31.001Z</time></trkpt><trkpt lat="51.88323001788461" lon="16.057335139672244"><ele>71.0</ele><time>2026-04-08T12:36:32Z</time></trkpt><trkpt lat="51.88330663689715" lon="16.05707553026495"><ele>71.0</ele><time>2026-04-08T12:36:33Z</time></trkpt><trkpt lat="51.88337829562946" lon="16.05679480168103"><ele>71.0</ele><time>2026-04-08T12:36:34Z</time></trkpt><trkpt lat="51.8834515113411" lon="16.05651137341251"><ele>71.0</ele><time>2026-04-08T12:36:35Z</time></trkpt><trkpt lat="51.883522013973966" lon="16.056231136441525"><ele>71.33333333333334</ele><time>2026-04-08T12:36:36Z</time></trkpt><trkpt lat="51.883590551152764" lon="16.055978854186794"><ele>71.66666666666667</ele><time>2026-04-08T12:36:37Z</time></trkpt><trkpt lat="51.88364316133288" lon="16.055738603837078"><ele>72.0</ele><time>2026-04-08T12:36:38Z</time></trkpt><trkpt lat="51.883691009363" lon="16.055533289686668"><ele>72.0</ele><time>2026-04-08T12:36:39Z</time></trkpt><trkpt lat="51.88373448543557" lon="16.055359416953415"><ele>72.0</ele><time>2026-04-08T12:36:40Z</time></trkpt><trkpt lat="51.88377024942177" lon="16.05519895719047"><ele>72.0</ele><time>2026-04-08T12:36:41Z</time></trkpt><trkpt lat="51.883804528775535" lon="16.055079148742124"><ele>72.0</ele><time>2026-04-08T12:36:42Z</time></trkpt><trkpt lat="51.88383798147472" lon="16.054983702094194"><ele>72.0</ele><time>2026-04-08T12:36:43Z</time></trkpt><trkpt lat="51.88373379119266" lon="16.054786756590897"><ele>72.0</ele><time>2026-04-08T12:36:45Z</time></trkpt><trkpt lat="51.88366135407325" lon="16.054718165000345"><ele>72.0</ele><time>2026-04-08T12:36:46Z</time></trkpt><trkpt lat="51.883579080698894" lon="16.05463967246346"><ele>72.0</ele><time>2026-04-08T12:36:47Z</time></trkpt><trkpt lat="51.88349828154468" lon="16.054562704778395"><ele>72.0</ele><time>2026-04-08T12:36:48Z</time></trkpt><trkpt lat="51.883435747298606" lon="16.054500792447307"><ele>72.0</ele><time>2026-04-08T12:36:49Z</time></trkpt><trkpt lat="51.88333851068773" lon="16.054395065051054"><ele>72.0</ele><time>2026-04-08T12:36:51Z</time></trkpt><trkpt lat="51.88323729080215" lon="16.05427779987607"><ele>72.0</ele><time>2026-04-08T12:36:53Z</time></trkpt><trkpt lat="51.883176486830564" lon="16.054223274885462"><ele>72.0</ele><time>2026-04-08T12:36:54Z</time></trkpt><trkpt lat="51.88311162504919" lon="16.054168188677096"><ele>72.0</ele><time>2026-04-08T12:36:55Z</time></trkpt><trkpt lat="51.88305108219375" lon="16.054095062148093"><ele>72.0</ele><time>2026-04-08T12:36:56Z</time></trkpt><trkpt lat="51.88297948994953" lon="16.054019219781914"><ele>72.0</ele><time>2026-04-08T12:36:57Z</time></trkpt><trkpt lat="51.88289334056206" lon="16.053934139157445"><ele>72.28571428571429</ele><time>2026-04-08T12:36:58Z</time></trkpt><trkpt lat="51.88283065084978" lon="16.05385982885005"><ele>72.57142857142857</ele><time>2026-04-08T12:36:59Z</time></trkpt><trkpt lat="51.88277037108641" lon="16.05380853874896"><ele>72.85714285714286</ele><time>2026-04-08T12:37:00Z</time></trkpt><trkpt lat="51.88270599332729" lon="16.05373998472507"><ele>73.14285714285714</ele><time>2026-04-08T12:37:02Z</time></trkpt><trkpt lat="51.88264820725584" lon="16.053676063192427"><ele>73.42857142857143</ele><time>2026-04-08T12:37:06Z</time></trkpt><trkpt lat="51.88258665915902" lon="16.05359353718892"><ele>73.71428571428572</ele><time>2026-04-08T12:37:18Z</time></trkpt><trkpt lat="51.882526226978044" lon="16.053530054576004"><ele>74.0</ele><time>2026-04-08T12:37:20Z</time></trkpt><trkpt lat="51.88246300811757" lon="16.05347721091592"><ele>73.42857142857143</ele><time>2026-04-08T12:37:25Z</time></trkpt><trkpt lat="51.882404155487784" lon="16.053429511479376"><ele>72.85714285714286</ele><time>2026-04-08T12:37:30Z</time></trkpt><trkpt lat="51.88234142758517" lon="16.05335499179738"><ele>72.28571428571428</ele><time>2026-04-08T12:37:34Z</time></trkpt><trkpt lat="51.88228909625603" lon="16.05329335479462"><ele>71.71428571428572</ele><time>2026-04-08T12:37:37Z</time></trkpt><trkpt lat="51.882222318683255" lon="16.053216243239323"><ele>71.14285714285714</ele><time>2026-04-08T12:37:40Z</time></trkpt><trkpt lat="51.88217488333853" lon="16.053126306541184"><ele>70.57142857142857</ele><time>2026-04-08T12:37:42Z</time></trkpt><trkpt lat="51.882115036463404" lon="16.05308207666816"><ele>70.0</ele><time>2026-04-08T12:37:44Z</time></trkpt><trkpt lat="51.88207472915996" lon="16.053001358479158"><ele>69.33333333333333</ele><time>2026-04-08T12:37:47Z</time></trkpt><trkpt lat="51.88200299441929" lon="16.05291205111631"><ele>68.66666666666666</ele><time>2026-04-08T12:37:50Z</time></trkpt><trkpt lat="51.88189827535783" lon="16.052799924223333"><ele>68.0</ele><time>2026-04-08T12:37:52Z</time></trkpt><trkpt lat="51.8818501946429" lon="16.052719878140586"><ele>67.33333333333333</ele><time>2026-04-08T12:37:53Z</time></trkpt><trkpt lat="51.88178667762186" lon="16.052676889256603"><ele>66.66666666666667</ele><time>2026-04-08T12:37:54Z</time></trkpt><trkpt lat="51.8817140895453" lon="16.05258795761487"><ele>66.0</ele><time>2026-04-08T12:37:56Z</time></trkpt><trkpt lat="51.88167019695074" lon="16.0524865336511"><ele>58.0</ele><time>2026-04-08T12:37:59Z</time></trkpt><trkpt lat="51.881588616314566" lon="16.052588516145246"><ele>58.0</ele><time>2026-04-08T12:38:02Z</time></trkpt><trkpt lat="51.88154982500456" lon="16.05268736065531"><ele>58.0</ele><time>2026-04-08T12:38:36Z</time></trkpt><trkpt lat="51.88150064685478" lon="16.05276778178292"><ele>58.0</ele><time>2026-04-08T12:39:09Z</time></trkpt></trkseg></trk></gpx>